<?xml version="1.0" encoding="UTF-8" standalone="no" ?>
<gpx xmlns="http://www.topografix.com/GPX/1/1" xmlns:xsi="http://www.w3.org/2001/XMLSchema-instance" xsi:schemaLocation="http://www.topografix.com/GPX/1/1 http://www.topografix.com/GPX/1/1/gpx.xsd" version="1.1" creator="VisuGPX - https://www.visugpx.com">
  <metadata>
    <name>Ronde des Gaulois 2025</name>
    <desc><![CDATA[Parcours 55 kms ronde des gaulois, du bonheur ]]></desc>
  </metadata>
  <trk>
    <name><![CDATA[Ronde des Gaulois 2025_1]]></name>
    <trkseg>
      <trkpt lat="45.71998" lon="3.01406">
        <ele>888</ele>
        <time>2025-09-28T06:46:31Z</time>
      </trkpt>
      <trkpt lat="45.71998" lon="3.01406">
        <ele>896.4</ele>
        <time>2025-09-28T06:46:32Z</time>
      </trkpt>
      <trkpt lat="45.71998" lon="3.01406">
        <ele>896.4</ele>
        <time>2025-09-28T06:46:33Z</time>
      </trkpt>
      <trkpt lat="45.71998" lon="3.01406">
        <ele>896.4</ele>
        <time>2025-09-28T06:46:34Z</time>
      </trkpt>
      <trkpt lat="45.71998" lon="3.01406">
        <ele>896.4</ele>
        <time>2025-09-28T06:46:35Z</time>
      </trkpt>
      <trkpt lat="45.71999" lon="3.01406">
        <ele>896.4</ele>
        <time>2025-09-28T06:46:36Z</time>
      </trkpt>
      <trkpt lat="45.71999" lon="3.01405">
        <ele>896.4</ele>
        <time>2025-09-28T06:46:37Z</time>
      </trkpt>
      <trkpt lat="45.71999" lon="3.01404">
        <ele>896.4</ele>
        <time>2025-09-28T06:46:38Z</time>
      </trkpt>
      <trkpt lat="45.71999" lon="3.01403">
        <ele>896.4</ele>
        <time>2025-09-28T06:46:39Z</time>
      </trkpt>
      <trkpt lat="45.71999" lon="3.01403">
        <ele>896.4</ele>
        <time>2025-09-28T06:46:40Z</time>
      </trkpt>
      <trkpt lat="45.72" lon="3.01403">
        <ele>896.4</ele>
        <time>2025-09-28T06:46:41Z</time>
      </trkpt>
      <trkpt lat="45.72" lon="3.01404">
        <ele>896.4</ele>
        <time>2025-09-28T06:46:42Z</time>
      </trkpt>
      <trkpt lat="45.72" lon="3.01405">
        <ele>896.4</ele>
        <time>2025-09-28T06:46:43Z</time>
      </trkpt>
      <trkpt lat="45.72" lon="3.01405">
        <ele>896.4</ele>
        <time>2025-09-28T06:46:44Z</time>
      </trkpt>
      <trkpt lat="45.72" lon="3.01406">
        <ele>896.4</ele>
        <time>2025-09-28T06:46:45Z</time>
      </trkpt>
      <trkpt lat="45.72" lon="3.01406">
        <ele>896.4</ele>
        <time>2025-09-28T06:46:46Z</time>
      </trkpt>
      <trkpt lat="45.72" lon="3.01406">
        <ele>896.4</ele>
        <time>2025-09-28T06:46:47Z</time>
      </trkpt>
      <trkpt lat="45.72" lon="3.01407">
        <ele>896.4</ele>
        <time>2025-09-28T06:46:48Z</time>
      </trkpt>
      <trkpt lat="45.72" lon="3.01406">
        <ele>896.4</ele>
        <time>2025-09-28T06:46:49Z</time>
      </trkpt>
      <trkpt lat="45.72" lon="3.01406">
        <ele>896.4</ele>
        <time>2025-09-28T06:46:50Z</time>
      </trkpt>
      <trkpt lat="45.72" lon="3.01406">
        <ele>896.4</ele>
        <time>2025-09-28T06:46:51Z</time>
      </trkpt>
      <trkpt lat="45.72" lon="3.01406">
        <ele>896.4</ele>
        <time>2025-09-28T06:46:52Z</time>
      </trkpt>
      <trkpt lat="45.72" lon="3.01406">
        <ele>896.4</ele>
        <time>2025-09-28T06:46:53Z</time>
      </trkpt>
      <trkpt lat="45.72" lon="3.01406">
        <ele>896.4</ele>
        <time>2025-09-28T06:46:54Z</time>
      </trkpt>
      <trkpt lat="45.72" lon="3.01406">
        <ele>896.4</ele>
        <time>2025-09-28T06:46:55Z</time>
      </trkpt>
      <trkpt lat="45.72" lon="3.01406">
        <ele>896.4</ele>
        <time>2025-09-28T06:46:56Z</time>
      </trkpt>
      <trkpt lat="45.72" lon="3.01406">
        <ele>896.4</ele>
        <time>2025-09-28T06:46:57Z</time>
      </trkpt>
      <trkpt lat="45.72" lon="3.01406">
        <ele>896.4</ele>
        <time>2025-09-28T06:46:58Z</time>
      </trkpt>
      <trkpt lat="45.72" lon="3.01406">
        <ele>896.4</ele>
        <time>2025-09-28T06:46:59Z</time>
      </trkpt>
      <trkpt lat="45.72" lon="3.01406">
        <ele>896.4</ele>
        <time>2025-09-28T06:47:00Z</time>
      </trkpt>
      <trkpt lat="45.72" lon="3.01406">
        <ele>896.4</ele>
        <time>2025-09-28T06:47:01Z</time>
      </trkpt>
      <trkpt lat="45.72" lon="3.01406">
        <ele>896.4</ele>
        <time>2025-09-28T06:47:02Z</time>
      </trkpt>
      <trkpt lat="45.72" lon="3.01406">
        <ele>896.4</ele>
        <time>2025-09-28T06:47:03Z</time>
      </trkpt>
      <trkpt lat="45.72" lon="3.01406">
        <ele>896.4</ele>
        <time>2025-09-28T06:47:04Z</time>
      </trkpt>
      <trkpt lat="45.72" lon="3.01406">
        <ele>896.4</ele>
        <time>2025-09-28T06:47:05Z</time>
      </trkpt>
      <trkpt lat="45.72" lon="3.01406">
        <ele>896.4</ele>
        <time>2025-09-28T06:47:06Z</time>
      </trkpt>
      <trkpt lat="45.72" lon="3.01406">
        <ele>896.4</ele>
        <time>2025-09-28T06:47:07Z</time>
      </trkpt>
      <trkpt lat="45.71999" lon="3.01406">
        <ele>896.4</ele>
        <time>2025-09-28T06:47:08Z</time>
      </trkpt>
      <trkpt lat="45.71999" lon="3.01406">
        <ele>896.4</ele>
        <time>2025-09-28T06:47:09Z</time>
      </trkpt>
      <trkpt lat="45.71999" lon="3.01406">
        <ele>896.4</ele>
        <time>2025-09-28T06:47:10Z</time>
      </trkpt>
      <trkpt lat="45.71999" lon="3.01406">
        <ele>896.4</ele>
        <time>2025-09-28T06:47:11Z</time>
      </trkpt>
      <trkpt lat="45.71999" lon="3.01406">
        <ele>896.4</ele>
        <time>2025-09-28T06:47:12Z</time>
      </trkpt>
      <trkpt lat="45.71999" lon="3.01406">
        <ele>896.4</ele>
        <time>2025-09-28T06:47:13Z</time>
      </trkpt>
      <trkpt lat="45.71999" lon="3.01406">
        <ele>896.4</ele>
        <time>2025-09-28T06:47:14Z</time>
      </trkpt>
      <trkpt lat="45.71998" lon="3.01405">
        <ele>896.4</ele>
        <time>2025-09-28T06:47:15Z</time>
      </trkpt>
      <trkpt lat="45.71998" lon="3.01405">
        <ele>896.4</ele>
        <time>2025-09-28T06:47:16Z</time>
      </trkpt>
      <trkpt lat="45.71998" lon="3.01405">
        <ele>896.4</ele>
        <time>2025-09-28T06:47:17Z</time>
      </trkpt>
      <trkpt lat="45.71998" lon="3.01405">
        <ele>896.4</ele>
        <time>2025-09-28T06:47:18Z</time>
      </trkpt>
      <trkpt lat="45.71998" lon="3.01405">
        <ele>896.4</ele>
        <time>2025-09-28T06:47:19Z</time>
      </trkpt>
      <trkpt lat="45.71998" lon="3.01405">
        <ele>896.4</ele>
        <time>2025-09-28T06:47:20Z</time>
      </trkpt>
      <trkpt lat="45.71998" lon="3.01405">
        <ele>896.4</ele>
        <time>2025-09-28T06:47:21Z</time>
      </trkpt>
      <trkpt lat="45.71998" lon="3.01405">
        <ele>896.4</ele>
        <time>2025-09-28T06:47:22Z</time>
      </trkpt>
      <trkpt lat="45.71998" lon="3.01405">
        <ele>896.4</ele>
        <time>2025-09-28T06:47:23Z</time>
      </trkpt>
      <trkpt lat="45.71997" lon="3.01404">
        <ele>896.4</ele>
        <time>2025-09-28T06:47:24Z</time>
      </trkpt>
      <trkpt lat="45.71997" lon="3.01403">
        <ele>896.4</ele>
        <time>2025-09-28T06:47:25Z</time>
      </trkpt>
      <trkpt lat="45.71997" lon="3.01403">
        <ele>896.4</ele>
        <time>2025-09-28T06:47:26Z</time>
      </trkpt>
      <trkpt lat="45.71997" lon="3.01402">
        <ele>896.4</ele>
        <time>2025-09-28T06:47:27Z</time>
      </trkpt>
      <trkpt lat="45.71996" lon="3.01402">
        <ele>896.4</ele>
        <time>2025-09-28T06:47:28Z</time>
      </trkpt>
      <trkpt lat="45.71996" lon="3.01402">
        <ele>896.4</ele>
        <time>2025-09-28T06:47:29Z</time>
      </trkpt>
      <trkpt lat="45.71996" lon="3.01401">
        <ele>896.4</ele>
        <time>2025-09-28T06:47:30Z</time>
      </trkpt>
      <trkpt lat="45.71996" lon="3.01401">
        <ele>896.4</ele>
        <time>2025-09-28T06:47:31Z</time>
      </trkpt>
      <trkpt lat="45.71996" lon="3.01401">
        <ele>896.4</ele>
        <time>2025-09-28T06:47:32Z</time>
      </trkpt>
      <trkpt lat="45.71996" lon="3.01401">
        <ele>896.4</ele>
        <time>2025-09-28T06:47:33Z</time>
      </trkpt>
      <trkpt lat="45.71996" lon="3.01401">
        <ele>896.4</ele>
        <time>2025-09-28T06:47:34Z</time>
      </trkpt>
      <trkpt lat="45.71996" lon="3.01401">
        <ele>896.4</ele>
        <time>2025-09-28T06:47:35Z</time>
      </trkpt>
      <trkpt lat="45.71996" lon="3.014">
        <ele>896.4</ele>
        <time>2025-09-28T06:47:36Z</time>
      </trkpt>
      <trkpt lat="45.71996" lon="3.014">
        <ele>896.4</ele>
        <time>2025-09-28T06:47:37Z</time>
      </trkpt>
      <trkpt lat="45.71996" lon="3.014">
        <ele>896.4</ele>
        <time>2025-09-28T06:47:38Z</time>
      </trkpt>
      <trkpt lat="45.71995" lon="3.014">
        <ele>896.4</ele>
        <time>2025-09-28T06:47:39Z</time>
      </trkpt>
      <trkpt lat="45.71995" lon="3.014">
        <ele>896.4</ele>
        <time>2025-09-28T06:47:40Z</time>
      </trkpt>
      <trkpt lat="45.71995" lon="3.014">
        <ele>896.4</ele>
        <time>2025-09-28T06:47:41Z</time>
      </trkpt>
      <trkpt lat="45.71995" lon="3.014">
        <ele>896.4</ele>
        <time>2025-09-28T06:47:42Z</time>
      </trkpt>
      <trkpt lat="45.71995" lon="3.014">
        <ele>896.4</ele>
        <time>2025-09-28T06:47:43Z</time>
      </trkpt>
      <trkpt lat="45.71995" lon="3.014">
        <ele>896.4</ele>
        <time>2025-09-28T06:47:44Z</time>
      </trkpt>
      <trkpt lat="45.71995" lon="3.014">
        <ele>896.4</ele>
        <time>2025-09-28T06:47:45Z</time>
      </trkpt>
      <trkpt lat="45.71995" lon="3.014">
        <ele>896.4</ele>
        <time>2025-09-28T06:47:46Z</time>
      </trkpt>
      <trkpt lat="45.71995" lon="3.014">
        <ele>896.4</ele>
        <time>2025-09-28T06:47:47Z</time>
      </trkpt>
      <trkpt lat="45.71994" lon="3.014">
        <ele>896.4</ele>
        <time>2025-09-28T06:47:48Z</time>
      </trkpt>
      <trkpt lat="45.71994" lon="3.014">
        <ele>896.4</ele>
        <time>2025-09-28T06:47:49Z</time>
      </trkpt>
      <trkpt lat="45.71994" lon="3.014">
        <ele>896.4</ele>
        <time>2025-09-28T06:47:50Z</time>
      </trkpt>
      <trkpt lat="45.71994" lon="3.014">
        <ele>896.4</ele>
        <time>2025-09-28T06:47:51Z</time>
      </trkpt>
      <trkpt lat="45.71994" lon="3.014">
        <ele>896.4</ele>
        <time>2025-09-28T06:47:52Z</time>
      </trkpt>
      <trkpt lat="45.71994" lon="3.014">
        <ele>896.4</ele>
        <time>2025-09-28T06:47:53Z</time>
      </trkpt>
      <trkpt lat="45.71994" lon="3.01399">
        <ele>896.4</ele>
        <time>2025-09-28T06:47:54Z</time>
      </trkpt>
      <trkpt lat="45.71994" lon="3.01399">
        <ele>896.4</ele>
        <time>2025-09-28T06:47:55Z</time>
      </trkpt>
      <trkpt lat="45.71994" lon="3.01399">
        <ele>896.4</ele>
        <time>2025-09-28T06:47:56Z</time>
      </trkpt>
      <trkpt lat="45.71994" lon="3.01399">
        <ele>896.4</ele>
        <time>2025-09-28T06:47:57Z</time>
      </trkpt>
      <trkpt lat="45.71994" lon="3.01399">
        <ele>896.4</ele>
        <time>2025-09-28T06:47:58Z</time>
      </trkpt>
      <trkpt lat="45.71994" lon="3.01399">
        <ele>896.4</ele>
        <time>2025-09-28T06:47:59Z</time>
      </trkpt>
      <trkpt lat="45.71994" lon="3.01399">
        <ele>896.4</ele>
        <time>2025-09-28T06:48:00Z</time>
      </trkpt>
      <trkpt lat="45.71994" lon="3.01399">
        <ele>896.4</ele>
        <time>2025-09-28T06:48:01Z</time>
      </trkpt>
      <trkpt lat="45.71994" lon="3.01399">
        <ele>896.4</ele>
        <time>2025-09-28T06:48:02Z</time>
      </trkpt>
      <trkpt lat="45.71994" lon="3.01399">
        <ele>896.4</ele>
        <time>2025-09-28T06:48:03Z</time>
      </trkpt>
      <trkpt lat="45.71994" lon="3.01399">
        <ele>896.4</ele>
        <time>2025-09-28T06:48:04Z</time>
      </trkpt>
      <trkpt lat="45.71994" lon="3.01399">
        <ele>896.4</ele>
        <time>2025-09-28T06:48:05Z</time>
      </trkpt>
      <trkpt lat="45.71994" lon="3.01399">
        <ele>896.4</ele>
        <time>2025-09-28T06:48:06Z</time>
      </trkpt>
      <trkpt lat="45.71994" lon="3.01399">
        <ele>896.4</ele>
        <time>2025-09-28T06:48:07Z</time>
      </trkpt>
      <trkpt lat="45.71994" lon="3.01399">
        <ele>896.4</ele>
        <time>2025-09-28T06:48:08Z</time>
      </trkpt>
      <trkpt lat="45.71994" lon="3.01399">
        <ele>896.4</ele>
        <time>2025-09-28T06:48:09Z</time>
      </trkpt>
      <trkpt lat="45.71994" lon="3.01399">
        <ele>896.4</ele>
        <time>2025-09-28T06:48:10Z</time>
      </trkpt>
      <trkpt lat="45.71994" lon="3.01399">
        <ele>896.4</ele>
        <time>2025-09-28T06:48:11Z</time>
      </trkpt>
      <trkpt lat="45.71994" lon="3.01399">
        <ele>896.4</ele>
        <time>2025-09-28T06:48:12Z</time>
      </trkpt>
      <trkpt lat="45.71994" lon="3.01399">
        <ele>896.4</ele>
        <time>2025-09-28T06:48:13Z</time>
      </trkpt>
      <trkpt lat="45.71994" lon="3.01399">
        <ele>896.4</ele>
        <time>2025-09-28T06:48:14Z</time>
      </trkpt>
      <trkpt lat="45.71994" lon="3.01399">
        <ele>896.4</ele>
        <time>2025-09-28T06:48:15Z</time>
      </trkpt>
      <trkpt lat="45.71994" lon="3.01398">
        <ele>896.4</ele>
        <time>2025-09-28T06:48:16Z</time>
      </trkpt>
      <trkpt lat="45.71994" lon="3.01398">
        <ele>896.4</ele>
        <time>2025-09-28T06:48:17Z</time>
      </trkpt>
      <trkpt lat="45.71994" lon="3.01398">
        <ele>896.4</ele>
        <time>2025-09-28T06:48:18Z</time>
      </trkpt>
      <trkpt lat="45.71995" lon="3.01398">
        <ele>896.4</ele>
        <time>2025-09-28T06:48:19Z</time>
      </trkpt>
      <trkpt lat="45.71995" lon="3.01398">
        <ele>896.4</ele>
        <time>2025-09-28T06:48:20Z</time>
      </trkpt>
      <trkpt lat="45.71995" lon="3.01398">
        <ele>896.4</ele>
        <time>2025-09-28T06:48:21Z</time>
      </trkpt>
      <trkpt lat="45.71995" lon="3.01398">
        <ele>896.4</ele>
        <time>2025-09-28T06:48:22Z</time>
      </trkpt>
      <trkpt lat="45.71995" lon="3.01398">
        <ele>896.4</ele>
        <time>2025-09-28T06:48:23Z</time>
      </trkpt>
      <trkpt lat="45.71995" lon="3.01398">
        <ele>896.4</ele>
        <time>2025-09-28T06:48:24Z</time>
      </trkpt>
      <trkpt lat="45.71995" lon="3.01398">
        <ele>896.4</ele>
        <time>2025-09-28T06:48:25Z</time>
      </trkpt>
      <trkpt lat="45.71995" lon="3.01398">
        <ele>896.4</ele>
        <time>2025-09-28T06:48:26Z</time>
      </trkpt>
      <trkpt lat="45.71995" lon="3.01398">
        <ele>896.4</ele>
        <time>2025-09-28T06:48:27Z</time>
      </trkpt>
      <trkpt lat="45.71995" lon="3.01398">
        <ele>896.4</ele>
        <time>2025-09-28T06:48:28Z</time>
      </trkpt>
      <trkpt lat="45.71995" lon="3.01398">
        <ele>896.4</ele>
        <time>2025-09-28T06:48:29Z</time>
      </trkpt>
      <trkpt lat="45.71995" lon="3.01398">
        <ele>896.4</ele>
        <time>2025-09-28T06:48:30Z</time>
      </trkpt>
      <trkpt lat="45.71995" lon="3.01398">
        <ele>896.4</ele>
        <time>2025-09-28T06:48:31Z</time>
      </trkpt>
      <trkpt lat="45.71995" lon="3.01398">
        <ele>896.4</ele>
        <time>2025-09-28T06:48:32Z</time>
      </trkpt>
      <trkpt lat="45.71995" lon="3.01398">
        <ele>896.4</ele>
        <time>2025-09-28T06:48:33Z</time>
      </trkpt>
      <trkpt lat="45.71995" lon="3.01398">
        <ele>896.4</ele>
        <time>2025-09-28T06:48:34Z</time>
      </trkpt>
      <trkpt lat="45.71995" lon="3.01398">
        <ele>896.4</ele>
        <time>2025-09-28T06:48:35Z</time>
      </trkpt>
      <trkpt lat="45.71995" lon="3.01398">
        <ele>896.4</ele>
        <time>2025-09-28T06:48:36Z</time>
      </trkpt>
      <trkpt lat="45.71996" lon="3.01398">
        <ele>896.4</ele>
        <time>2025-09-28T06:48:37Z</time>
      </trkpt>
      <trkpt lat="45.71996" lon="3.01399">
        <ele>896.4</ele>
        <time>2025-09-28T06:48:38Z</time>
      </trkpt>
      <trkpt lat="45.71996" lon="3.01399">
        <ele>896.4</ele>
        <time>2025-09-28T06:48:39Z</time>
      </trkpt>
      <trkpt lat="45.71996" lon="3.01399">
        <ele>896.4</ele>
        <time>2025-09-28T06:48:40Z</time>
      </trkpt>
      <trkpt lat="45.71996" lon="3.01399">
        <ele>896.4</ele>
        <time>2025-09-28T06:48:41Z</time>
      </trkpt>
      <trkpt lat="45.71996" lon="3.01399">
        <ele>896.4</ele>
        <time>2025-09-28T06:48:42Z</time>
      </trkpt>
      <trkpt lat="45.71996" lon="3.01399">
        <ele>896.4</ele>
        <time>2025-09-28T06:48:43Z</time>
      </trkpt>
      <trkpt lat="45.71996" lon="3.01399">
        <ele>896.4</ele>
        <time>2025-09-28T06:48:44Z</time>
      </trkpt>
      <trkpt lat="45.71996" lon="3.01399">
        <ele>896.4</ele>
        <time>2025-09-28T06:48:45Z</time>
      </trkpt>
      <trkpt lat="45.71996" lon="3.01399">
        <ele>896.4</ele>
        <time>2025-09-28T06:48:46Z</time>
      </trkpt>
      <trkpt lat="45.71996" lon="3.01399">
        <ele>896.4</ele>
        <time>2025-09-28T06:48:47Z</time>
      </trkpt>
      <trkpt lat="45.71997" lon="3.01399">
        <ele>896.4</ele>
        <time>2025-09-28T06:48:48Z</time>
      </trkpt>
      <trkpt lat="45.71997" lon="3.014">
        <ele>896.4</ele>
        <time>2025-09-28T06:48:49Z</time>
      </trkpt>
      <trkpt lat="45.71997" lon="3.014">
        <ele>896.4</ele>
        <time>2025-09-28T06:48:50Z</time>
      </trkpt>
      <trkpt lat="45.71997" lon="3.014">
        <ele>896.4</ele>
        <time>2025-09-28T06:48:51Z</time>
      </trkpt>
      <trkpt lat="45.71997" lon="3.014">
        <ele>896.4</ele>
        <time>2025-09-28T06:48:52Z</time>
      </trkpt>
      <trkpt lat="45.71997" lon="3.014">
        <ele>896.4</ele>
        <time>2025-09-28T06:48:53Z</time>
      </trkpt>
      <trkpt lat="45.71997" lon="3.014">
        <ele>896.4</ele>
        <time>2025-09-28T06:48:54Z</time>
      </trkpt>
      <trkpt lat="45.71997" lon="3.01401">
        <ele>896.4</ele>
        <time>2025-09-28T06:48:55Z</time>
      </trkpt>
      <trkpt lat="45.71998" lon="3.01401">
        <ele>896.4</ele>
        <time>2025-09-28T06:48:56Z</time>
      </trkpt>
      <trkpt lat="45.71998" lon="3.01401">
        <ele>896.4</ele>
        <time>2025-09-28T06:48:57Z</time>
      </trkpt>
      <trkpt lat="45.71998" lon="3.01401">
        <ele>896.4</ele>
        <time>2025-09-28T06:48:58Z</time>
      </trkpt>
      <trkpt lat="45.71998" lon="3.01401">
        <ele>896.4</ele>
        <time>2025-09-28T06:48:59Z</time>
      </trkpt>
      <trkpt lat="45.71998" lon="3.01402">
        <ele>896.4</ele>
        <time>2025-09-28T06:49:00Z</time>
      </trkpt>
      <trkpt lat="45.71998" lon="3.01402">
        <ele>896.4</ele>
        <time>2025-09-28T06:49:01Z</time>
      </trkpt>
      <trkpt lat="45.71998" lon="3.01402">
        <ele>896.4</ele>
        <time>2025-09-28T06:49:02Z</time>
      </trkpt>
      <trkpt lat="45.71999" lon="3.01402">
        <ele>896.4</ele>
        <time>2025-09-28T06:49:03Z</time>
      </trkpt>
      <trkpt lat="45.71999" lon="3.01403">
        <ele>896.4</ele>
        <time>2025-09-28T06:49:04Z</time>
      </trkpt>
      <trkpt lat="45.71999" lon="3.01403">
        <ele>896.4</ele>
        <time>2025-09-28T06:49:05Z</time>
      </trkpt>
      <trkpt lat="45.71999" lon="3.01403">
        <ele>896.4</ele>
        <time>2025-09-28T06:49:06Z</time>
      </trkpt>
      <trkpt lat="45.71999" lon="3.01403">
        <ele>896.4</ele>
        <time>2025-09-28T06:49:07Z</time>
      </trkpt>
      <trkpt lat="45.72" lon="3.01403">
        <ele>896.4</ele>
        <time>2025-09-28T06:49:08Z</time>
      </trkpt>
      <trkpt lat="45.72" lon="3.01403">
        <ele>896.4</ele>
        <time>2025-09-28T06:49:09Z</time>
      </trkpt>
      <trkpt lat="45.72" lon="3.01403">
        <ele>896.4</ele>
        <time>2025-09-28T06:49:10Z</time>
      </trkpt>
      <trkpt lat="45.72" lon="3.01404">
        <ele>896.4</ele>
        <time>2025-09-28T06:49:11Z</time>
      </trkpt>
      <trkpt lat="45.72001" lon="3.01404">
        <ele>896.4</ele>
        <time>2025-09-28T06:49:12Z</time>
      </trkpt>
      <trkpt lat="45.72001" lon="3.01404">
        <ele>896.4</ele>
        <time>2025-09-28T06:49:13Z</time>
      </trkpt>
      <trkpt lat="45.72001" lon="3.01404">
        <ele>896.4</ele>
        <time>2025-09-28T06:49:14Z</time>
      </trkpt>
      <trkpt lat="45.72001" lon="3.01404">
        <ele>896.4</ele>
        <time>2025-09-28T06:49:15Z</time>
      </trkpt>
      <trkpt lat="45.72001" lon="3.01404">
        <ele>896.4</ele>
        <time>2025-09-28T06:49:16Z</time>
      </trkpt>
      <trkpt lat="45.72001" lon="3.01404">
        <ele>896.4</ele>
        <time>2025-09-28T06:49:17Z</time>
      </trkpt>
      <trkpt lat="45.72001" lon="3.01404">
        <ele>896.4</ele>
        <time>2025-09-28T06:49:18Z</time>
      </trkpt>
      <trkpt lat="45.72001" lon="3.01404">
        <ele>896.4</ele>
        <time>2025-09-28T06:49:19Z</time>
      </trkpt>
      <trkpt lat="45.72001" lon="3.01404">
        <ele>896.4</ele>
        <time>2025-09-28T06:49:20Z</time>
      </trkpt>
      <trkpt lat="45.72001" lon="3.01404">
        <ele>896.4</ele>
        <time>2025-09-28T06:49:21Z</time>
      </trkpt>
      <trkpt lat="45.72001" lon="3.01404">
        <ele>896.4</ele>
        <time>2025-09-28T06:49:22Z</time>
      </trkpt>
      <trkpt lat="45.72001" lon="3.01404">
        <ele>896.4</ele>
        <time>2025-09-28T06:49:23Z</time>
      </trkpt>
      <trkpt lat="45.72001" lon="3.01404">
        <ele>896.4</ele>
        <time>2025-09-28T06:49:24Z</time>
      </trkpt>
      <trkpt lat="45.72001" lon="3.01404">
        <ele>896.4</ele>
        <time>2025-09-28T06:49:25Z</time>
      </trkpt>
      <trkpt lat="45.72001" lon="3.01404">
        <ele>896.4</ele>
        <time>2025-09-28T06:49:26Z</time>
      </trkpt>
      <trkpt lat="45.72001" lon="3.01404">
        <ele>896.4</ele>
        <time>2025-09-28T06:49:27Z</time>
      </trkpt>
      <trkpt lat="45.72001" lon="3.01404">
        <ele>896.4</ele>
        <time>2025-09-28T06:49:28Z</time>
      </trkpt>
      <trkpt lat="45.72" lon="3.01404">
        <ele>896.4</ele>
        <time>2025-09-28T06:49:29Z</time>
      </trkpt>
      <trkpt lat="45.72" lon="3.01404">
        <ele>896.4</ele>
        <time>2025-09-28T06:49:30Z</time>
      </trkpt>
      <trkpt lat="45.72" lon="3.01404">
        <ele>896.4</ele>
        <time>2025-09-28T06:49:31Z</time>
      </trkpt>
      <trkpt lat="45.72" lon="3.01404">
        <ele>896.4</ele>
        <time>2025-09-28T06:49:32Z</time>
      </trkpt>
      <trkpt lat="45.72" lon="3.01404">
        <ele>896.4</ele>
        <time>2025-09-28T06:49:33Z</time>
      </trkpt>
      <trkpt lat="45.72" lon="3.01404">
        <ele>896.4</ele>
        <time>2025-09-28T06:49:34Z</time>
      </trkpt>
      <trkpt lat="45.72" lon="3.01404">
        <ele>896.4</ele>
        <time>2025-09-28T06:49:35Z</time>
      </trkpt>
      <trkpt lat="45.72" lon="3.01404">
        <ele>896.4</ele>
        <time>2025-09-28T06:49:36Z</time>
      </trkpt>
      <trkpt lat="45.72" lon="3.01404">
        <ele>896.4</ele>
        <time>2025-09-28T06:49:37Z</time>
      </trkpt>
      <trkpt lat="45.72" lon="3.01404">
        <ele>896.4</ele>
        <time>2025-09-28T06:49:38Z</time>
      </trkpt>
      <trkpt lat="45.72" lon="3.01404">
        <ele>896.4</ele>
        <time>2025-09-28T06:49:39Z</time>
      </trkpt>
      <trkpt lat="45.71999" lon="3.01404">
        <ele>896.4</ele>
        <time>2025-09-28T06:49:40Z</time>
      </trkpt>
      <trkpt lat="45.72" lon="3.01403">
        <ele>896.4</ele>
        <time>2025-09-28T06:49:41Z</time>
      </trkpt>
      <trkpt lat="45.72" lon="3.01402">
        <ele>896.4</ele>
        <time>2025-09-28T06:49:42Z</time>
      </trkpt>
      <trkpt lat="45.72" lon="3.01402">
        <ele>896.4</ele>
        <time>2025-09-28T06:49:43Z</time>
      </trkpt>
      <trkpt lat="45.72" lon="3.01402">
        <ele>896.4</ele>
        <time>2025-09-28T06:49:44Z</time>
      </trkpt>
      <trkpt lat="45.72" lon="3.01402">
        <ele>896.4</ele>
        <time>2025-09-28T06:49:45Z</time>
      </trkpt>
      <trkpt lat="45.72" lon="3.01402">
        <ele>896.4</ele>
        <time>2025-09-28T06:49:46Z</time>
      </trkpt>
      <trkpt lat="45.72" lon="3.01402">
        <ele>896.4</ele>
        <time>2025-09-28T06:49:47Z</time>
      </trkpt>
      <trkpt lat="45.72" lon="3.01402">
        <ele>896.4</ele>
        <time>2025-09-28T06:49:48Z</time>
      </trkpt>
      <trkpt lat="45.72" lon="3.01402">
        <ele>896.4</ele>
        <time>2025-09-28T06:49:49Z</time>
      </trkpt>
      <trkpt lat="45.71999" lon="3.01402">
        <ele>896.4</ele>
        <time>2025-09-28T06:49:50Z</time>
      </trkpt>
      <trkpt lat="45.71999" lon="3.01402">
        <ele>896.4</ele>
        <time>2025-09-28T06:49:51Z</time>
      </trkpt>
      <trkpt lat="45.71999" lon="3.01402">
        <ele>896.4</ele>
        <time>2025-09-28T06:49:52Z</time>
      </trkpt>
      <trkpt lat="45.71999" lon="3.01402">
        <ele>896.4</ele>
        <time>2025-09-28T06:49:53Z</time>
      </trkpt>
      <trkpt lat="45.71999" lon="3.01402">
        <ele>896.4</ele>
        <time>2025-09-28T06:49:54Z</time>
      </trkpt>
      <trkpt lat="45.71999" lon="3.01402">
        <ele>896.4</ele>
        <time>2025-09-28T06:49:55Z</time>
      </trkpt>
      <trkpt lat="45.71999" lon="3.01402">
        <ele>896.4</ele>
        <time>2025-09-28T06:49:56Z</time>
      </trkpt>
      <trkpt lat="45.71999" lon="3.01402">
        <ele>896.4</ele>
        <time>2025-09-28T06:49:57Z</time>
      </trkpt>
      <trkpt lat="45.71998" lon="3.01402">
        <ele>896.4</ele>
        <time>2025-09-28T06:49:58Z</time>
      </trkpt>
      <trkpt lat="45.71998" lon="3.01402">
        <ele>896.4</ele>
        <time>2025-09-28T06:49:59Z</time>
      </trkpt>
      <trkpt lat="45.71998" lon="3.01402">
        <ele>896.4</ele>
        <time>2025-09-28T06:50:00Z</time>
      </trkpt>
      <trkpt lat="45.71998" lon="3.01402">
        <ele>896.4</ele>
        <time>2025-09-28T06:50:01Z</time>
      </trkpt>
      <trkpt lat="45.71998" lon="3.01402">
        <ele>896.4</ele>
        <time>2025-09-28T06:50:02Z</time>
      </trkpt>
      <trkpt lat="45.71998" lon="3.01402">
        <ele>896.4</ele>
        <time>2025-09-28T06:50:03Z</time>
      </trkpt>
      <trkpt lat="45.71998" lon="3.01402">
        <ele>896.4</ele>
        <time>2025-09-28T06:50:04Z</time>
      </trkpt>
      <trkpt lat="45.71998" lon="3.01402">
        <ele>896.4</ele>
        <time>2025-09-28T06:50:05Z</time>
      </trkpt>
      <trkpt lat="45.71998" lon="3.01402">
        <ele>896.4</ele>
        <time>2025-09-28T06:50:06Z</time>
      </trkpt>
      <trkpt lat="45.71998" lon="3.01402">
        <ele>896.4</ele>
        <time>2025-09-28T06:50:07Z</time>
      </trkpt>
      <trkpt lat="45.71998" lon="3.01402">
        <ele>896.4</ele>
        <time>2025-09-28T06:50:08Z</time>
      </trkpt>
      <trkpt lat="45.71998" lon="3.01402">
        <ele>896.4</ele>
        <time>2025-09-28T06:50:09Z</time>
      </trkpt>
      <trkpt lat="45.71998" lon="3.01402">
        <ele>896.4</ele>
        <time>2025-09-28T06:50:10Z</time>
      </trkpt>
      <trkpt lat="45.71997" lon="3.01402">
        <ele>896.4</ele>
        <time>2025-09-28T06:50:11Z</time>
      </trkpt>
      <trkpt lat="45.71997" lon="3.01402">
        <ele>896.4</ele>
        <time>2025-09-28T06:50:12Z</time>
      </trkpt>
      <trkpt lat="45.71997" lon="3.01402">
        <ele>896.4</ele>
        <time>2025-09-28T06:50:13Z</time>
      </trkpt>
      <trkpt lat="45.71997" lon="3.01402">
        <ele>896.4</ele>
        <time>2025-09-28T06:50:14Z</time>
      </trkpt>
      <trkpt lat="45.71997" lon="3.01402">
        <ele>896.4</ele>
        <time>2025-09-28T06:50:15Z</time>
      </trkpt>
      <trkpt lat="45.71997" lon="3.01402">
        <ele>896.4</ele>
        <time>2025-09-28T06:50:16Z</time>
      </trkpt>
      <trkpt lat="45.71997" lon="3.01402">
        <ele>896.4</ele>
        <time>2025-09-28T06:50:17Z</time>
      </trkpt>
      <trkpt lat="45.71997" lon="3.01402">
        <ele>896.4</ele>
        <time>2025-09-28T06:50:18Z</time>
      </trkpt>
      <trkpt lat="45.71997" lon="3.01402">
        <ele>896.4</ele>
        <time>2025-09-28T06:50:19Z</time>
      </trkpt>
      <trkpt lat="45.71997" lon="3.01402">
        <ele>896.4</ele>
        <time>2025-09-28T06:50:20Z</time>
      </trkpt>
      <trkpt lat="45.71997" lon="3.01402">
        <ele>896.4</ele>
        <time>2025-09-28T06:50:21Z</time>
      </trkpt>
      <trkpt lat="45.71997" lon="3.01402">
        <ele>896.4</ele>
        <time>2025-09-28T06:50:22Z</time>
      </trkpt>
      <trkpt lat="45.71997" lon="3.01401">
        <ele>896.4</ele>
        <time>2025-09-28T06:50:23Z</time>
      </trkpt>
      <trkpt lat="45.71997" lon="3.01401">
        <ele>896.4</ele>
        <time>2025-09-28T06:50:24Z</time>
      </trkpt>
      <trkpt lat="45.71997" lon="3.01401">
        <ele>896.4</ele>
        <time>2025-09-28T06:50:25Z</time>
      </trkpt>
      <trkpt lat="45.71997" lon="3.01401">
        <ele>896.4</ele>
        <time>2025-09-28T06:50:26Z</time>
      </trkpt>
      <trkpt lat="45.71996" lon="3.014">
        <ele>896.4</ele>
        <time>2025-09-28T06:50:27Z</time>
      </trkpt>
      <trkpt lat="45.71996" lon="3.014">
        <ele>896.4</ele>
        <time>2025-09-28T06:50:28Z</time>
      </trkpt>
      <trkpt lat="45.71996" lon="3.014">
        <ele>896.4</ele>
        <time>2025-09-28T06:50:29Z</time>
      </trkpt>
      <trkpt lat="45.71996" lon="3.01399">
        <ele>896.4</ele>
        <time>2025-09-28T06:50:30Z</time>
      </trkpt>
      <trkpt lat="45.71996" lon="3.01399">
        <ele>896.4</ele>
        <time>2025-09-28T06:50:31Z</time>
      </trkpt>
      <trkpt lat="45.71996" lon="3.01399">
        <ele>896.4</ele>
        <time>2025-09-28T06:50:32Z</time>
      </trkpt>
      <trkpt lat="45.71996" lon="3.01398">
        <ele>896.4</ele>
        <time>2025-09-28T06:50:33Z</time>
      </trkpt>
      <trkpt lat="45.71996" lon="3.01398">
        <ele>896.4</ele>
        <time>2025-09-28T06:50:34Z</time>
      </trkpt>
      <trkpt lat="45.71996" lon="3.01398">
        <ele>896.4</ele>
        <time>2025-09-28T06:50:35Z</time>
      </trkpt>
      <trkpt lat="45.71996" lon="3.01398">
        <ele>896.4</ele>
        <time>2025-09-28T06:50:36Z</time>
      </trkpt>
      <trkpt lat="45.71996" lon="3.01398">
        <ele>896.4</ele>
        <time>2025-09-28T06:50:37Z</time>
      </trkpt>
      <trkpt lat="45.71996" lon="3.01398">
        <ele>896.4</ele>
        <time>2025-09-28T06:50:38Z</time>
      </trkpt>
      <trkpt lat="45.71996" lon="3.01397">
        <ele>896.4</ele>
        <time>2025-09-28T06:50:39Z</time>
      </trkpt>
      <trkpt lat="45.71996" lon="3.01397">
        <ele>896.4</ele>
        <time>2025-09-28T06:50:40Z</time>
      </trkpt>
      <trkpt lat="45.71996" lon="3.01397">
        <ele>896.4</ele>
        <time>2025-09-28T06:50:41Z</time>
      </trkpt>
      <trkpt lat="45.71996" lon="3.01397">
        <ele>896.4</ele>
        <time>2025-09-28T06:50:42Z</time>
      </trkpt>
      <trkpt lat="45.71996" lon="3.01397">
        <ele>896.4</ele>
        <time>2025-09-28T06:50:43Z</time>
      </trkpt>
      <trkpt lat="45.71996" lon="3.01397">
        <ele>896.4</ele>
        <time>2025-09-28T06:50:44Z</time>
      </trkpt>
      <trkpt lat="45.71996" lon="3.01397">
        <ele>896.4</ele>
        <time>2025-09-28T06:50:45Z</time>
      </trkpt>
      <trkpt lat="45.71996" lon="3.01397">
        <ele>896.4</ele>
        <time>2025-09-28T06:50:46Z</time>
      </trkpt>
      <trkpt lat="45.71996" lon="3.01397">
        <ele>896.4</ele>
        <time>2025-09-28T06:50:47Z</time>
      </trkpt>
      <trkpt lat="45.71996" lon="3.01397">
        <ele>896.4</ele>
        <time>2025-09-28T06:50:48Z</time>
      </trkpt>
      <trkpt lat="45.71996" lon="3.01397">
        <ele>896.4</ele>
        <time>2025-09-28T06:50:49Z</time>
      </trkpt>
      <trkpt lat="45.71996" lon="3.01397">
        <ele>896.4</ele>
        <time>2025-09-28T06:50:50Z</time>
      </trkpt>
      <trkpt lat="45.71996" lon="3.01397">
        <ele>896.4</ele>
        <time>2025-09-28T06:50:51Z</time>
      </trkpt>
      <trkpt lat="45.71996" lon="3.01397">
        <ele>896.4</ele>
        <time>2025-09-28T06:50:52Z</time>
      </trkpt>
      <trkpt lat="45.71996" lon="3.01397">
        <ele>896.4</ele>
        <time>2025-09-28T06:50:53Z</time>
      </trkpt>
      <trkpt lat="45.71996" lon="3.01397">
        <ele>896.4</ele>
        <time>2025-09-28T06:50:54Z</time>
      </trkpt>
      <trkpt lat="45.71996" lon="3.01397">
        <ele>896.4</ele>
        <time>2025-09-28T06:50:55Z</time>
      </trkpt>
      <trkpt lat="45.71996" lon="3.01397">
        <ele>896.4</ele>
        <time>2025-09-28T06:50:56Z</time>
      </trkpt>
      <trkpt lat="45.71996" lon="3.01397">
        <ele>896.4</ele>
        <time>2025-09-28T06:50:57Z</time>
      </trkpt>
      <trkpt lat="45.71996" lon="3.01397">
        <ele>896.4</ele>
        <time>2025-09-28T06:50:58Z</time>
      </trkpt>
      <trkpt lat="45.71996" lon="3.01397">
        <ele>896.4</ele>
        <time>2025-09-28T06:50:59Z</time>
      </trkpt>
      <trkpt lat="45.71996" lon="3.01397">
        <ele>896.4</ele>
        <time>2025-09-28T06:51:00Z</time>
      </trkpt>
      <trkpt lat="45.71996" lon="3.01397">
        <ele>896.4</ele>
        <time>2025-09-28T06:51:01Z</time>
      </trkpt>
      <trkpt lat="45.71996" lon="3.01397">
        <ele>896.4</ele>
        <time>2025-09-28T06:51:02Z</time>
      </trkpt>
      <trkpt lat="45.71996" lon="3.01398">
        <ele>896.4</ele>
        <time>2025-09-28T06:51:03Z</time>
      </trkpt>
      <trkpt lat="45.71996" lon="3.01398">
        <ele>896.4</ele>
        <time>2025-09-28T06:51:04Z</time>
      </trkpt>
      <trkpt lat="45.71996" lon="3.01398">
        <ele>896.4</ele>
        <time>2025-09-28T06:51:05Z</time>
      </trkpt>
      <trkpt lat="45.71996" lon="3.01398">
        <ele>896.4</ele>
        <time>2025-09-28T06:51:06Z</time>
      </trkpt>
      <trkpt lat="45.71996" lon="3.01398">
        <ele>896.4</ele>
        <time>2025-09-28T06:51:07Z</time>
      </trkpt>
      <trkpt lat="45.71996" lon="3.01399">
        <ele>896.4</ele>
        <time>2025-09-28T06:51:08Z</time>
      </trkpt>
      <trkpt lat="45.71996" lon="3.01399">
        <ele>896.4</ele>
        <time>2025-09-28T06:51:09Z</time>
      </trkpt>
      <trkpt lat="45.71996" lon="3.01399">
        <ele>896.4</ele>
        <time>2025-09-28T06:51:10Z</time>
      </trkpt>
      <trkpt lat="45.71996" lon="3.01399">
        <ele>896.4</ele>
        <time>2025-09-28T06:51:11Z</time>
      </trkpt>
      <trkpt lat="45.71996" lon="3.01399">
        <ele>896.4</ele>
        <time>2025-09-28T06:51:12Z</time>
      </trkpt>
      <trkpt lat="45.71996" lon="3.01399">
        <ele>896.4</ele>
        <time>2025-09-28T06:51:13Z</time>
      </trkpt>
      <trkpt lat="45.71996" lon="3.01399">
        <ele>896.4</ele>
        <time>2025-09-28T06:51:14Z</time>
      </trkpt>
      <trkpt lat="45.71996" lon="3.01399">
        <ele>896.4</ele>
        <time>2025-09-28T06:51:15Z</time>
      </trkpt>
      <trkpt lat="45.71996" lon="3.014">
        <ele>896.4</ele>
        <time>2025-09-28T06:51:16Z</time>
      </trkpt>
      <trkpt lat="45.71996" lon="3.014">
        <ele>896.4</ele>
        <time>2025-09-28T06:51:17Z</time>
      </trkpt>
      <trkpt lat="45.71996" lon="3.014">
        <ele>896.4</ele>
        <time>2025-09-28T06:51:18Z</time>
      </trkpt>
      <trkpt lat="45.71996" lon="3.014">
        <ele>896.4</ele>
        <time>2025-09-28T06:51:19Z</time>
      </trkpt>
      <trkpt lat="45.71996" lon="3.014">
        <ele>896.4</ele>
        <time>2025-09-28T06:51:20Z</time>
      </trkpt>
      <trkpt lat="45.71996" lon="3.014">
        <ele>896.4</ele>
        <time>2025-09-28T06:51:21Z</time>
      </trkpt>
      <trkpt lat="45.71996" lon="3.014">
        <ele>896.4</ele>
        <time>2025-09-28T06:51:22Z</time>
      </trkpt>
      <trkpt lat="45.71996" lon="3.014">
        <ele>896.4</ele>
        <time>2025-09-28T06:51:23Z</time>
      </trkpt>
      <trkpt lat="45.71996" lon="3.014">
        <ele>896.4</ele>
        <time>2025-09-28T06:51:24Z</time>
      </trkpt>
      <trkpt lat="45.71996" lon="3.014">
        <ele>896.4</ele>
        <time>2025-09-28T06:51:25Z</time>
      </trkpt>
      <trkpt lat="45.71996" lon="3.014">
        <ele>896.4</ele>
        <time>2025-09-28T06:51:26Z</time>
      </trkpt>
      <trkpt lat="45.71996" lon="3.014">
        <ele>896.4</ele>
        <time>2025-09-28T06:51:27Z</time>
      </trkpt>
      <trkpt lat="45.71996" lon="3.014">
        <ele>896.4</ele>
        <time>2025-09-28T06:51:28Z</time>
      </trkpt>
      <trkpt lat="45.71996" lon="3.014">
        <ele>896.4</ele>
        <time>2025-09-28T06:51:29Z</time>
      </trkpt>
      <trkpt lat="45.71996" lon="3.014">
        <ele>896.4</ele>
        <time>2025-09-28T06:51:30Z</time>
      </trkpt>
      <trkpt lat="45.71996" lon="3.014">
        <ele>896.4</ele>
        <time>2025-09-28T06:51:31Z</time>
      </trkpt>
      <trkpt lat="45.71996" lon="3.014">
        <ele>896.4</ele>
        <time>2025-09-28T06:51:32Z</time>
      </trkpt>
      <trkpt lat="45.71996" lon="3.014">
        <ele>896.4</ele>
        <time>2025-09-28T06:51:33Z</time>
      </trkpt>
      <trkpt lat="45.71996" lon="3.014">
        <ele>896.4</ele>
        <time>2025-09-28T06:51:34Z</time>
      </trkpt>
      <trkpt lat="45.71996" lon="3.014">
        <ele>896.4</ele>
        <time>2025-09-28T06:51:35Z</time>
      </trkpt>
      <trkpt lat="45.71996" lon="3.014">
        <ele>896.4</ele>
        <time>2025-09-28T06:51:36Z</time>
      </trkpt>
      <trkpt lat="45.71996" lon="3.014">
        <ele>896.4</ele>
        <time>2025-09-28T06:51:37Z</time>
      </trkpt>
      <trkpt lat="45.71996" lon="3.014">
        <ele>896.4</ele>
        <time>2025-09-28T06:51:38Z</time>
      </trkpt>
      <trkpt lat="45.71996" lon="3.014">
        <ele>896.4</ele>
        <time>2025-09-28T06:51:39Z</time>
      </trkpt>
      <trkpt lat="45.71996" lon="3.014">
        <ele>896.4</ele>
        <time>2025-09-28T06:51:40Z</time>
      </trkpt>
      <trkpt lat="45.71996" lon="3.014">
        <ele>896.4</ele>
        <time>2025-09-28T06:51:41Z</time>
      </trkpt>
      <trkpt lat="45.71996" lon="3.014">
        <ele>896.4</ele>
        <time>2025-09-28T06:51:42Z</time>
      </trkpt>
      <trkpt lat="45.71996" lon="3.014">
        <ele>896.4</ele>
        <time>2025-09-28T06:51:43Z</time>
      </trkpt>
      <trkpt lat="45.71996" lon="3.014">
        <ele>896.4</ele>
        <time>2025-09-28T06:51:44Z</time>
      </trkpt>
      <trkpt lat="45.71996" lon="3.014">
        <ele>896.4</ele>
        <time>2025-09-28T06:51:45Z</time>
      </trkpt>
      <trkpt lat="45.71996" lon="3.014">
        <ele>896.4</ele>
        <time>2025-09-28T06:51:46Z</time>
      </trkpt>
      <trkpt lat="45.71996" lon="3.01399">
        <ele>896.4</ele>
        <time>2025-09-28T06:51:47Z</time>
      </trkpt>
      <trkpt lat="45.71997" lon="3.01399">
        <ele>896.4</ele>
        <time>2025-09-28T06:51:48Z</time>
      </trkpt>
      <trkpt lat="45.71997" lon="3.01399">
        <ele>896.4</ele>
        <time>2025-09-28T06:51:49Z</time>
      </trkpt>
      <trkpt lat="45.71997" lon="3.01398">
        <ele>896.4</ele>
        <time>2025-09-28T06:51:50Z</time>
      </trkpt>
      <trkpt lat="45.71997" lon="3.01398">
        <ele>896.4</ele>
        <time>2025-09-28T06:51:51Z</time>
      </trkpt>
      <trkpt lat="45.71997" lon="3.01398">
        <ele>896.4</ele>
        <time>2025-09-28T06:51:52Z</time>
      </trkpt>
      <trkpt lat="45.71997" lon="3.01398">
        <ele>896.4</ele>
        <time>2025-09-28T06:51:53Z</time>
      </trkpt>
      <trkpt lat="45.71997" lon="3.01398">
        <ele>896.4</ele>
        <time>2025-09-28T06:51:54Z</time>
      </trkpt>
      <trkpt lat="45.71997" lon="3.01398">
        <ele>896.4</ele>
        <time>2025-09-28T06:51:55Z</time>
      </trkpt>
      <trkpt lat="45.71997" lon="3.01398">
        <ele>896.4</ele>
        <time>2025-09-28T06:51:56Z</time>
      </trkpt>
      <trkpt lat="45.71997" lon="3.01398">
        <ele>896.4</ele>
        <time>2025-09-28T06:51:57Z</time>
      </trkpt>
      <trkpt lat="45.71997" lon="3.01398">
        <ele>896.4</ele>
        <time>2025-09-28T06:51:58Z</time>
      </trkpt>
      <trkpt lat="45.71997" lon="3.01398">
        <ele>896.4</ele>
        <time>2025-09-28T06:51:59Z</time>
      </trkpt>
      <trkpt lat="45.71997" lon="3.01398">
        <ele>896.4</ele>
        <time>2025-09-28T06:52:00Z</time>
      </trkpt>
      <trkpt lat="45.71997" lon="3.01397">
        <ele>896.4</ele>
        <time>2025-09-28T06:52:01Z</time>
      </trkpt>
      <trkpt lat="45.71997" lon="3.01397">
        <ele>896.4</ele>
        <time>2025-09-28T06:52:02Z</time>
      </trkpt>
      <trkpt lat="45.71997" lon="3.01397">
        <ele>896.4</ele>
        <time>2025-09-28T06:52:03Z</time>
      </trkpt>
      <trkpt lat="45.71997" lon="3.01397">
        <ele>896.4</ele>
        <time>2025-09-28T06:52:04Z</time>
      </trkpt>
      <trkpt lat="45.71997" lon="3.01397">
        <ele>896.4</ele>
        <time>2025-09-28T06:52:05Z</time>
      </trkpt>
      <trkpt lat="45.71997" lon="3.01397">
        <ele>896.4</ele>
        <time>2025-09-28T06:52:06Z</time>
      </trkpt>
      <trkpt lat="45.71997" lon="3.01397">
        <ele>896.4</ele>
        <time>2025-09-28T06:52:07Z</time>
      </trkpt>
      <trkpt lat="45.71997" lon="3.01397">
        <ele>896.4</ele>
        <time>2025-09-28T06:52:08Z</time>
      </trkpt>
      <trkpt lat="45.71997" lon="3.01397">
        <ele>896.4</ele>
        <time>2025-09-28T06:52:09Z</time>
      </trkpt>
      <trkpt lat="45.71997" lon="3.01397">
        <ele>896.4</ele>
        <time>2025-09-28T06:52:10Z</time>
      </trkpt>
      <trkpt lat="45.71997" lon="3.01397">
        <ele>896.4</ele>
        <time>2025-09-28T06:52:11Z</time>
      </trkpt>
      <trkpt lat="45.71997" lon="3.01397">
        <ele>896.4</ele>
        <time>2025-09-28T06:52:12Z</time>
      </trkpt>
      <trkpt lat="45.71997" lon="3.01397">
        <ele>896.4</ele>
        <time>2025-09-28T06:52:13Z</time>
      </trkpt>
      <trkpt lat="45.71997" lon="3.01397">
        <ele>896.4</ele>
        <time>2025-09-28T06:52:14Z</time>
      </trkpt>
      <trkpt lat="45.71997" lon="3.01397">
        <ele>896.4</ele>
        <time>2025-09-28T06:52:15Z</time>
      </trkpt>
      <trkpt lat="45.71997" lon="3.01397">
        <ele>896.4</ele>
        <time>2025-09-28T06:52:16Z</time>
      </trkpt>
      <trkpt lat="45.71997" lon="3.01397">
        <ele>896.4</ele>
        <time>2025-09-28T06:52:17Z</time>
      </trkpt>
      <trkpt lat="45.71997" lon="3.01397">
        <ele>896.4</ele>
        <time>2025-09-28T06:52:18Z</time>
      </trkpt>
      <trkpt lat="45.71997" lon="3.01397">
        <ele>896.4</ele>
        <time>2025-09-28T06:52:19Z</time>
      </trkpt>
      <trkpt lat="45.71997" lon="3.01397">
        <ele>896.4</ele>
        <time>2025-09-28T06:52:20Z</time>
      </trkpt>
      <trkpt lat="45.71997" lon="3.01397">
        <ele>896.4</ele>
        <time>2025-09-28T06:52:21Z</time>
      </trkpt>
      <trkpt lat="45.71997" lon="3.01397">
        <ele>896.4</ele>
        <time>2025-09-28T06:52:22Z</time>
      </trkpt>
      <trkpt lat="45.71997" lon="3.01397">
        <ele>896.4</ele>
        <time>2025-09-28T06:52:23Z</time>
      </trkpt>
      <trkpt lat="45.71996" lon="3.01397">
        <ele>896.4</ele>
        <time>2025-09-28T06:52:24Z</time>
      </trkpt>
      <trkpt lat="45.71996" lon="3.01397">
        <ele>896.4</ele>
        <time>2025-09-28T06:52:25Z</time>
      </trkpt>
      <trkpt lat="45.71996" lon="3.01397">
        <ele>896.4</ele>
        <time>2025-09-28T06:52:26Z</time>
      </trkpt>
      <trkpt lat="45.71996" lon="3.01397">
        <ele>896.4</ele>
        <time>2025-09-28T06:52:27Z</time>
      </trkpt>
      <trkpt lat="45.71996" lon="3.01397">
        <ele>896.4</ele>
        <time>2025-09-28T06:52:28Z</time>
      </trkpt>
      <trkpt lat="45.71996" lon="3.01397">
        <ele>896.4</ele>
        <time>2025-09-28T06:52:29Z</time>
      </trkpt>
      <trkpt lat="45.71996" lon="3.01396">
        <ele>896.4</ele>
        <time>2025-09-28T06:52:30Z</time>
      </trkpt>
      <trkpt lat="45.71996" lon="3.01396">
        <ele>896.4</ele>
        <time>2025-09-28T06:52:31Z</time>
      </trkpt>
      <trkpt lat="45.71996" lon="3.01396">
        <ele>896.4</ele>
        <time>2025-09-28T06:52:32Z</time>
      </trkpt>
      <trkpt lat="45.71996" lon="3.01396">
        <ele>896.4</ele>
        <time>2025-09-28T06:52:33Z</time>
      </trkpt>
      <trkpt lat="45.71996" lon="3.01396">
        <ele>896.4</ele>
        <time>2025-09-28T06:52:34Z</time>
      </trkpt>
      <trkpt lat="45.71996" lon="3.01396">
        <ele>896.4</ele>
        <time>2025-09-28T06:52:35Z</time>
      </trkpt>
      <trkpt lat="45.71996" lon="3.01396">
        <ele>896.4</ele>
        <time>2025-09-28T06:52:36Z</time>
      </trkpt>
      <trkpt lat="45.71996" lon="3.01396">
        <ele>896.4</ele>
        <time>2025-09-28T06:52:37Z</time>
      </trkpt>
      <trkpt lat="45.71996" lon="3.01396">
        <ele>896.4</ele>
        <time>2025-09-28T06:52:38Z</time>
      </trkpt>
      <trkpt lat="45.71996" lon="3.01396">
        <ele>896.4</ele>
        <time>2025-09-28T06:52:39Z</time>
      </trkpt>
      <trkpt lat="45.71996" lon="3.01396">
        <ele>896.4</ele>
        <time>2025-09-28T06:52:40Z</time>
      </trkpt>
      <trkpt lat="45.71996" lon="3.01396">
        <ele>896.4</ele>
        <time>2025-09-28T06:52:41Z</time>
      </trkpt>
      <trkpt lat="45.71996" lon="3.01396">
        <ele>896.4</ele>
        <time>2025-09-28T06:52:42Z</time>
      </trkpt>
      <trkpt lat="45.71996" lon="3.01396">
        <ele>896.4</ele>
        <time>2025-09-28T06:52:43Z</time>
      </trkpt>
      <trkpt lat="45.71996" lon="3.01396">
        <ele>896.4</ele>
        <time>2025-09-28T06:52:44Z</time>
      </trkpt>
      <trkpt lat="45.71996" lon="3.01396">
        <ele>896.4</ele>
        <time>2025-09-28T06:52:45Z</time>
      </trkpt>
      <trkpt lat="45.71997" lon="3.01396">
        <ele>896.4</ele>
        <time>2025-09-28T06:52:46Z</time>
      </trkpt>
      <trkpt lat="45.71997" lon="3.01396">
        <ele>896.4</ele>
        <time>2025-09-28T06:52:47Z</time>
      </trkpt>
      <trkpt lat="45.71997" lon="3.01397">
        <ele>896.4</ele>
        <time>2025-09-28T06:52:48Z</time>
      </trkpt>
      <trkpt lat="45.71997" lon="3.01397">
        <ele>896.4</ele>
        <time>2025-09-28T06:52:49Z</time>
      </trkpt>
      <trkpt lat="45.71997" lon="3.01397">
        <ele>896.4</ele>
        <time>2025-09-28T06:52:50Z</time>
      </trkpt>
      <trkpt lat="45.71997" lon="3.01397">
        <ele>896.4</ele>
        <time>2025-09-28T06:52:51Z</time>
      </trkpt>
      <trkpt lat="45.71997" lon="3.01397">
        <ele>896.4</ele>
        <time>2025-09-28T06:52:52Z</time>
      </trkpt>
      <trkpt lat="45.71997" lon="3.01397">
        <ele>896.4</ele>
        <time>2025-09-28T06:52:53Z</time>
      </trkpt>
      <trkpt lat="45.71997" lon="3.01397">
        <ele>896.4</ele>
        <time>2025-09-28T06:52:54Z</time>
      </trkpt>
      <trkpt lat="45.71997" lon="3.01397">
        <ele>896.4</ele>
        <time>2025-09-28T06:52:55Z</time>
      </trkpt>
      <trkpt lat="45.71997" lon="3.01397">
        <ele>896.4</ele>
        <time>2025-09-28T06:52:56Z</time>
      </trkpt>
      <trkpt lat="45.71997" lon="3.01397">
        <ele>896.4</ele>
        <time>2025-09-28T06:52:57Z</time>
      </trkpt>
      <trkpt lat="45.71997" lon="3.01397">
        <ele>896.4</ele>
        <time>2025-09-28T06:52:58Z</time>
      </trkpt>
      <trkpt lat="45.71997" lon="3.01397">
        <ele>896.4</ele>
        <time>2025-09-28T06:52:59Z</time>
      </trkpt>
      <trkpt lat="45.71997" lon="3.01397">
        <ele>896.4</ele>
        <time>2025-09-28T06:53:00Z</time>
      </trkpt>
      <trkpt lat="45.71997" lon="3.01397">
        <ele>896.4</ele>
        <time>2025-09-28T06:53:01Z</time>
      </trkpt>
      <trkpt lat="45.71997" lon="3.01397">
        <ele>896.4</ele>
        <time>2025-09-28T06:53:02Z</time>
      </trkpt>
      <trkpt lat="45.71997" lon="3.01397">
        <ele>896.4</ele>
        <time>2025-09-28T06:53:03Z</time>
      </trkpt>
      <trkpt lat="45.71997" lon="3.01397">
        <ele>896.4</ele>
        <time>2025-09-28T06:53:04Z</time>
      </trkpt>
      <trkpt lat="45.71998" lon="3.01397">
        <ele>896.4</ele>
        <time>2025-09-28T06:53:05Z</time>
      </trkpt>
      <trkpt lat="45.71998" lon="3.01397">
        <ele>896.4</ele>
        <time>2025-09-28T06:53:06Z</time>
      </trkpt>
      <trkpt lat="45.71998" lon="3.01397">
        <ele>896.4</ele>
        <time>2025-09-28T06:53:07Z</time>
      </trkpt>
      <trkpt lat="45.71998" lon="3.01397">
        <ele>896.4</ele>
        <time>2025-09-28T06:53:08Z</time>
      </trkpt>
      <trkpt lat="45.71998" lon="3.01397">
        <ele>896.4</ele>
        <time>2025-09-28T06:53:09Z</time>
      </trkpt>
      <trkpt lat="45.71998" lon="3.01397">
        <ele>896.4</ele>
        <time>2025-09-28T06:53:10Z</time>
      </trkpt>
      <trkpt lat="45.71998" lon="3.01397">
        <ele>896.4</ele>
        <time>2025-09-28T06:53:11Z</time>
      </trkpt>
      <trkpt lat="45.71998" lon="3.01396">
        <ele>896.4</ele>
        <time>2025-09-28T06:53:12Z</time>
      </trkpt>
      <trkpt lat="45.71998" lon="3.01396">
        <ele>896.4</ele>
        <time>2025-09-28T06:53:13Z</time>
      </trkpt>
      <trkpt lat="45.71998" lon="3.01396">
        <ele>896.4</ele>
        <time>2025-09-28T06:53:14Z</time>
      </trkpt>
      <trkpt lat="45.71998" lon="3.01396">
        <ele>896.4</ele>
        <time>2025-09-28T06:53:15Z</time>
      </trkpt>
      <trkpt lat="45.71998" lon="3.01396">
        <ele>896.4</ele>
        <time>2025-09-28T06:53:16Z</time>
      </trkpt>
      <trkpt lat="45.71998" lon="3.01396">
        <ele>896.4</ele>
        <time>2025-09-28T06:53:17Z</time>
      </trkpt>
      <trkpt lat="45.71998" lon="3.01396">
        <ele>896.4</ele>
        <time>2025-09-28T06:53:18Z</time>
      </trkpt>
      <trkpt lat="45.71998" lon="3.01396">
        <ele>896.4</ele>
        <time>2025-09-28T06:53:19Z</time>
      </trkpt>
      <trkpt lat="45.71998" lon="3.01396">
        <ele>896.4</ele>
        <time>2025-09-28T06:53:20Z</time>
      </trkpt>
      <trkpt lat="45.71998" lon="3.01396">
        <ele>896.4</ele>
        <time>2025-09-28T06:53:21Z</time>
      </trkpt>
      <trkpt lat="45.71998" lon="3.01396">
        <ele>896.4</ele>
        <time>2025-09-28T06:53:22Z</time>
      </trkpt>
      <trkpt lat="45.71998" lon="3.01396">
        <ele>896.4</ele>
        <time>2025-09-28T06:53:23Z</time>
      </trkpt>
      <trkpt lat="45.71998" lon="3.01396">
        <ele>896.4</ele>
        <time>2025-09-28T06:53:24Z</time>
      </trkpt>
      <trkpt lat="45.71998" lon="3.01396">
        <ele>896.4</ele>
        <time>2025-09-28T06:53:25Z</time>
      </trkpt>
      <trkpt lat="45.71998" lon="3.01396">
        <ele>896.4</ele>
        <time>2025-09-28T06:53:26Z</time>
      </trkpt>
      <trkpt lat="45.71998" lon="3.01396">
        <ele>896.4</ele>
        <time>2025-09-28T06:53:27Z</time>
      </trkpt>
      <trkpt lat="45.71998" lon="3.01396">
        <ele>896.4</ele>
        <time>2025-09-28T06:53:28Z</time>
      </trkpt>
      <trkpt lat="45.71998" lon="3.01396">
        <ele>896.4</ele>
        <time>2025-09-28T06:53:29Z</time>
      </trkpt>
      <trkpt lat="45.71998" lon="3.01396">
        <ele>896.4</ele>
        <time>2025-09-28T06:53:30Z</time>
      </trkpt>
      <trkpt lat="45.71998" lon="3.01396">
        <ele>896.4</ele>
        <time>2025-09-28T06:53:31Z</time>
      </trkpt>
      <trkpt lat="45.71998" lon="3.01396">
        <ele>896.4</ele>
        <time>2025-09-28T06:53:32Z</time>
      </trkpt>
      <trkpt lat="45.71998" lon="3.01396">
        <ele>896.4</ele>
        <time>2025-09-28T06:53:33Z</time>
      </trkpt>
      <trkpt lat="45.71998" lon="3.01396">
        <ele>896.4</ele>
        <time>2025-09-28T06:53:34Z</time>
      </trkpt>
      <trkpt lat="45.71998" lon="3.01396">
        <ele>896.4</ele>
        <time>2025-09-28T06:53:35Z</time>
      </trkpt>
      <trkpt lat="45.71998" lon="3.01396">
        <ele>896.4</ele>
        <time>2025-09-28T06:53:36Z</time>
      </trkpt>
      <trkpt lat="45.71998" lon="3.01396">
        <ele>896.4</ele>
        <time>2025-09-28T06:53:37Z</time>
      </trkpt>
      <trkpt lat="45.71998" lon="3.01396">
        <ele>896.4</ele>
        <time>2025-09-28T06:53:38Z</time>
      </trkpt>
      <trkpt lat="45.71998" lon="3.01396">
        <ele>896.4</ele>
        <time>2025-09-28T06:53:39Z</time>
      </trkpt>
      <trkpt lat="45.71998" lon="3.01396">
        <ele>896.4</ele>
        <time>2025-09-28T06:53:40Z</time>
      </trkpt>
      <trkpt lat="45.71998" lon="3.01396">
        <ele>896.4</ele>
        <time>2025-09-28T06:53:41Z</time>
      </trkpt>
      <trkpt lat="45.71998" lon="3.01396">
        <ele>896.4</ele>
        <time>2025-09-28T06:53:42Z</time>
      </trkpt>
      <trkpt lat="45.71998" lon="3.01396">
        <ele>896.4</ele>
        <time>2025-09-28T06:53:43Z</time>
      </trkpt>
      <trkpt lat="45.71998" lon="3.01396">
        <ele>896.4</ele>
        <time>2025-09-28T06:53:44Z</time>
      </trkpt>
      <trkpt lat="45.71998" lon="3.01396">
        <ele>896.4</ele>
        <time>2025-09-28T06:53:45Z</time>
      </trkpt>
      <trkpt lat="45.71998" lon="3.01396">
        <ele>896.4</ele>
        <time>2025-09-28T06:53:46Z</time>
      </trkpt>
      <trkpt lat="45.71998" lon="3.01396">
        <ele>896.4</ele>
        <time>2025-09-28T06:53:47Z</time>
      </trkpt>
      <trkpt lat="45.71998" lon="3.01396">
        <ele>896.4</ele>
        <time>2025-09-28T06:53:48Z</time>
      </trkpt>
      <trkpt lat="45.71998" lon="3.01396">
        <ele>896.4</ele>
        <time>2025-09-28T06:53:49Z</time>
      </trkpt>
      <trkpt lat="45.71998" lon="3.01396">
        <ele>896.4</ele>
        <time>2025-09-28T06:53:50Z</time>
      </trkpt>
      <trkpt lat="45.71998" lon="3.01396">
        <ele>896.4</ele>
        <time>2025-09-28T06:53:51Z</time>
      </trkpt>
      <trkpt lat="45.71998" lon="3.01396">
        <ele>896.4</ele>
        <time>2025-09-28T06:53:52Z</time>
      </trkpt>
      <trkpt lat="45.71998" lon="3.01396">
        <ele>896.4</ele>
        <time>2025-09-28T06:53:53Z</time>
      </trkpt>
      <trkpt lat="45.71998" lon="3.01396">
        <ele>896.4</ele>
        <time>2025-09-28T06:53:54Z</time>
      </trkpt>
      <trkpt lat="45.71998" lon="3.01396">
        <ele>896.4</ele>
        <time>2025-09-28T06:53:55Z</time>
      </trkpt>
      <trkpt lat="45.71998" lon="3.01396">
        <ele>896.4</ele>
        <time>2025-09-28T06:53:56Z</time>
      </trkpt>
      <trkpt lat="45.71998" lon="3.01396">
        <ele>896.4</ele>
        <time>2025-09-28T06:53:57Z</time>
      </trkpt>
      <trkpt lat="45.71998" lon="3.01396">
        <ele>896.4</ele>
        <time>2025-09-28T06:53:58Z</time>
      </trkpt>
      <trkpt lat="45.71998" lon="3.01396">
        <ele>896.4</ele>
        <time>2025-09-28T06:53:59Z</time>
      </trkpt>
      <trkpt lat="45.71998" lon="3.01396">
        <ele>896.4</ele>
        <time>2025-09-28T06:54:00Z</time>
      </trkpt>
      <trkpt lat="45.71998" lon="3.01396">
        <ele>896.4</ele>
        <time>2025-09-28T06:54:01Z</time>
      </trkpt>
      <trkpt lat="45.71998" lon="3.01396">
        <ele>896.4</ele>
        <time>2025-09-28T06:54:02Z</time>
      </trkpt>
      <trkpt lat="45.71998" lon="3.01396">
        <ele>896.4</ele>
        <time>2025-09-28T06:54:03Z</time>
      </trkpt>
      <trkpt lat="45.71998" lon="3.01396">
        <ele>896.4</ele>
        <time>2025-09-28T06:54:04Z</time>
      </trkpt>
      <trkpt lat="45.71998" lon="3.01396">
        <ele>896.4</ele>
        <time>2025-09-28T06:54:05Z</time>
      </trkpt>
      <trkpt lat="45.71998" lon="3.01396">
        <ele>896.4</ele>
        <time>2025-09-28T06:54:06Z</time>
      </trkpt>
      <trkpt lat="45.71998" lon="3.01396">
        <ele>896.4</ele>
        <time>2025-09-28T06:54:07Z</time>
      </trkpt>
      <trkpt lat="45.71998" lon="3.01396">
        <ele>896.4</ele>
        <time>2025-09-28T06:54:08Z</time>
      </trkpt>
      <trkpt lat="45.71998" lon="3.01396">
        <ele>896.4</ele>
        <time>2025-09-28T06:54:09Z</time>
      </trkpt>
      <trkpt lat="45.71998" lon="3.01396">
        <ele>896.4</ele>
        <time>2025-09-28T06:54:10Z</time>
      </trkpt>
      <trkpt lat="45.71998" lon="3.01396">
        <ele>896.4</ele>
        <time>2025-09-28T06:54:11Z</time>
      </trkpt>
      <trkpt lat="45.71998" lon="3.01396">
        <ele>896.4</ele>
        <time>2025-09-28T06:54:12Z</time>
      </trkpt>
      <trkpt lat="45.71998" lon="3.01396">
        <ele>896.4</ele>
        <time>2025-09-28T06:54:13Z</time>
      </trkpt>
      <trkpt lat="45.71998" lon="3.01396">
        <ele>896.4</ele>
        <time>2025-09-28T06:54:14Z</time>
      </trkpt>
      <trkpt lat="45.71998" lon="3.01396">
        <ele>896.4</ele>
        <time>2025-09-28T06:54:15Z</time>
      </trkpt>
      <trkpt lat="45.71998" lon="3.01396">
        <ele>896.4</ele>
        <time>2025-09-28T06:54:16Z</time>
      </trkpt>
      <trkpt lat="45.71998" lon="3.01396">
        <ele>896.4</ele>
        <time>2025-09-28T06:54:17Z</time>
      </trkpt>
      <trkpt lat="45.71998" lon="3.01396">
        <ele>896.4</ele>
        <time>2025-09-28T06:54:18Z</time>
      </trkpt>
      <trkpt lat="45.71998" lon="3.01396">
        <ele>896.4</ele>
        <time>2025-09-28T06:54:19Z</time>
      </trkpt>
      <trkpt lat="45.71998" lon="3.01396">
        <ele>896.4</ele>
        <time>2025-09-28T06:54:20Z</time>
      </trkpt>
      <trkpt lat="45.71998" lon="3.01396">
        <ele>896.4</ele>
        <time>2025-09-28T06:54:21Z</time>
      </trkpt>
      <trkpt lat="45.71998" lon="3.01396">
        <ele>896.4</ele>
        <time>2025-09-28T06:54:22Z</time>
      </trkpt>
      <trkpt lat="45.71998" lon="3.01396">
        <ele>896.4</ele>
        <time>2025-09-28T06:54:23Z</time>
      </trkpt>
      <trkpt lat="45.71998" lon="3.01396">
        <ele>896.4</ele>
        <time>2025-09-28T06:54:24Z</time>
      </trkpt>
      <trkpt lat="45.71998" lon="3.01396">
        <ele>896.4</ele>
        <time>2025-09-28T06:54:25Z</time>
      </trkpt>
      <trkpt lat="45.71998" lon="3.01396">
        <ele>896.4</ele>
        <time>2025-09-28T06:54:26Z</time>
      </trkpt>
      <trkpt lat="45.71998" lon="3.01396">
        <ele>896.4</ele>
        <time>2025-09-28T06:54:27Z</time>
      </trkpt>
      <trkpt lat="45.71998" lon="3.01396">
        <ele>896.4</ele>
        <time>2025-09-28T06:54:28Z</time>
      </trkpt>
      <trkpt lat="45.71998" lon="3.01396">
        <ele>896.4</ele>
        <time>2025-09-28T06:54:29Z</time>
      </trkpt>
      <trkpt lat="45.71998" lon="3.01396">
        <ele>896.4</ele>
        <time>2025-09-28T06:54:30Z</time>
      </trkpt>
      <trkpt lat="45.71998" lon="3.01396">
        <ele>896.4</ele>
        <time>2025-09-28T06:54:31Z</time>
      </trkpt>
      <trkpt lat="45.71998" lon="3.01396">
        <ele>896.4</ele>
        <time>2025-09-28T06:54:32Z</time>
      </trkpt>
      <trkpt lat="45.71998" lon="3.01396">
        <ele>896.4</ele>
        <time>2025-09-28T06:54:33Z</time>
      </trkpt>
      <trkpt lat="45.71998" lon="3.01396">
        <ele>896.4</ele>
        <time>2025-09-28T06:54:34Z</time>
      </trkpt>
      <trkpt lat="45.71998" lon="3.01396">
        <ele>896.4</ele>
        <time>2025-09-28T06:54:35Z</time>
      </trkpt>
      <trkpt lat="45.71998" lon="3.01396">
        <ele>896.4</ele>
        <time>2025-09-28T06:54:36Z</time>
      </trkpt>
      <trkpt lat="45.71998" lon="3.01396">
        <ele>896.4</ele>
        <time>2025-09-28T06:54:37Z</time>
      </trkpt>
      <trkpt lat="45.71998" lon="3.01396">
        <ele>896.4</ele>
        <time>2025-09-28T06:54:38Z</time>
      </trkpt>
      <trkpt lat="45.71998" lon="3.01396">
        <ele>896.4</ele>
        <time>2025-09-28T06:54:39Z</time>
      </trkpt>
      <trkpt lat="45.71998" lon="3.01396">
        <ele>896.4</ele>
        <time>2025-09-28T06:54:40Z</time>
      </trkpt>
      <trkpt lat="45.71998" lon="3.01396">
        <ele>896.4</ele>
        <time>2025-09-28T06:54:41Z</time>
      </trkpt>
      <trkpt lat="45.71998" lon="3.01396">
        <ele>896.4</ele>
        <time>2025-09-28T06:54:42Z</time>
      </trkpt>
      <trkpt lat="45.71998" lon="3.01396">
        <ele>896.4</ele>
        <time>2025-09-28T06:54:43Z</time>
      </trkpt>
      <trkpt lat="45.71998" lon="3.01396">
        <ele>896.4</ele>
        <time>2025-09-28T06:54:44Z</time>
      </trkpt>
      <trkpt lat="45.71998" lon="3.01396">
        <ele>896.4</ele>
        <time>2025-09-28T06:54:45Z</time>
      </trkpt>
      <trkpt lat="45.71998" lon="3.01396">
        <ele>896.4</ele>
        <time>2025-09-28T06:54:46Z</time>
      </trkpt>
      <trkpt lat="45.71998" lon="3.01396">
        <ele>896.4</ele>
        <time>2025-09-28T06:54:47Z</time>
      </trkpt>
      <trkpt lat="45.71998" lon="3.01396">
        <ele>896.4</ele>
        <time>2025-09-28T06:54:48Z</time>
      </trkpt>
      <trkpt lat="45.71998" lon="3.01396">
        <ele>896.4</ele>
        <time>2025-09-28T06:54:49Z</time>
      </trkpt>
      <trkpt lat="45.71998" lon="3.01396">
        <ele>896.4</ele>
        <time>2025-09-28T06:54:50Z</time>
      </trkpt>
      <trkpt lat="45.71998" lon="3.01396">
        <ele>896.4</ele>
        <time>2025-09-28T06:54:51Z</time>
      </trkpt>
      <trkpt lat="45.71998" lon="3.01396">
        <ele>896.4</ele>
        <time>2025-09-28T06:54:52Z</time>
      </trkpt>
      <trkpt lat="45.71998" lon="3.01396">
        <ele>896.4</ele>
        <time>2025-09-28T06:54:53Z</time>
      </trkpt>
      <trkpt lat="45.71998" lon="3.01395">
        <ele>896.4</ele>
        <time>2025-09-28T06:54:54Z</time>
      </trkpt>
      <trkpt lat="45.71998" lon="3.01394">
        <ele>896.4</ele>
        <time>2025-09-28T06:54:55Z</time>
      </trkpt>
      <trkpt lat="45.71998" lon="3.01392">
        <ele>896.4</ele>
        <time>2025-09-28T06:54:56Z</time>
      </trkpt>
      <trkpt lat="45.71997" lon="3.01391">
        <ele>896.4</ele>
        <time>2025-09-28T06:54:57Z</time>
      </trkpt>
      <trkpt lat="45.71997" lon="3.01391">
        <ele>896.4</ele>
        <time>2025-09-28T06:54:58Z</time>
      </trkpt>
      <trkpt lat="45.71997" lon="3.01391">
        <ele>896.4</ele>
        <time>2025-09-28T06:54:59Z</time>
      </trkpt>
      <trkpt lat="45.71997" lon="3.01391">
        <ele>896.4</ele>
        <time>2025-09-28T06:55:00Z</time>
      </trkpt>
      <trkpt lat="45.71997" lon="3.01391">
        <ele>896.4</ele>
        <time>2025-09-28T06:55:01Z</time>
      </trkpt>
      <trkpt lat="45.71997" lon="3.01391">
        <ele>896.4</ele>
        <time>2025-09-28T06:55:02Z</time>
      </trkpt>
      <trkpt lat="45.71997" lon="3.01391">
        <ele>896.4</ele>
        <time>2025-09-28T06:55:03Z</time>
      </trkpt>
      <trkpt lat="45.71997" lon="3.01391">
        <ele>896.4</ele>
        <time>2025-09-28T06:55:04Z</time>
      </trkpt>
      <trkpt lat="45.71997" lon="3.01391">
        <ele>896.4</ele>
        <time>2025-09-28T06:55:05Z</time>
      </trkpt>
      <trkpt lat="45.71997" lon="3.01391">
        <ele>896.4</ele>
        <time>2025-09-28T06:55:06Z</time>
      </trkpt>
      <trkpt lat="45.71997" lon="3.01391">
        <ele>896.4</ele>
        <time>2025-09-28T06:55:07Z</time>
      </trkpt>
      <trkpt lat="45.71997" lon="3.01391">
        <ele>896.4</ele>
        <time>2025-09-28T06:55:08Z</time>
      </trkpt>
      <trkpt lat="45.71997" lon="3.01391">
        <ele>896.4</ele>
        <time>2025-09-28T06:55:09Z</time>
      </trkpt>
      <trkpt lat="45.71997" lon="3.01391">
        <ele>896.4</ele>
        <time>2025-09-28T06:55:10Z</time>
      </trkpt>
      <trkpt lat="45.71997" lon="3.01391">
        <ele>896.4</ele>
        <time>2025-09-28T06:55:11Z</time>
      </trkpt>
      <trkpt lat="45.71997" lon="3.01391">
        <ele>896.4</ele>
        <time>2025-09-28T06:55:12Z</time>
      </trkpt>
      <trkpt lat="45.71997" lon="3.01391">
        <ele>896.4</ele>
        <time>2025-09-28T06:55:13Z</time>
      </trkpt>
      <trkpt lat="45.71997" lon="3.01391">
        <ele>896.4</ele>
        <time>2025-09-28T06:55:14Z</time>
      </trkpt>
      <trkpt lat="45.71997" lon="3.01391">
        <ele>896.4</ele>
        <time>2025-09-28T06:55:15Z</time>
      </trkpt>
      <trkpt lat="45.71997" lon="3.01391">
        <ele>896.4</ele>
        <time>2025-09-28T06:55:16Z</time>
      </trkpt>
      <trkpt lat="45.71997" lon="3.01391">
        <ele>896.4</ele>
        <time>2025-09-28T06:55:17Z</time>
      </trkpt>
      <trkpt lat="45.71996" lon="3.01391">
        <ele>896.4</ele>
        <time>2025-09-28T06:55:18Z</time>
      </trkpt>
      <trkpt lat="45.71996" lon="3.01391">
        <ele>896.4</ele>
        <time>2025-09-28T06:55:19Z</time>
      </trkpt>
      <trkpt lat="45.71996" lon="3.01391">
        <ele>896.4</ele>
        <time>2025-09-28T06:55:20Z</time>
      </trkpt>
      <trkpt lat="45.71996" lon="3.01391">
        <ele>896.4</ele>
        <time>2025-09-28T06:55:21Z</time>
      </trkpt>
      <trkpt lat="45.71996" lon="3.01391">
        <ele>896.4</ele>
        <time>2025-09-28T06:55:22Z</time>
      </trkpt>
      <trkpt lat="45.71996" lon="3.01391">
        <ele>896.4</ele>
        <time>2025-09-28T06:55:23Z</time>
      </trkpt>
      <trkpt lat="45.71996" lon="3.01391">
        <ele>896.4</ele>
        <time>2025-09-28T06:55:24Z</time>
      </trkpt>
      <trkpt lat="45.71996" lon="3.01391">
        <ele>896.4</ele>
        <time>2025-09-28T06:55:25Z</time>
      </trkpt>
      <trkpt lat="45.71996" lon="3.01391">
        <ele>896.4</ele>
        <time>2025-09-28T06:55:26Z</time>
      </trkpt>
      <trkpt lat="45.71996" lon="3.01391">
        <ele>896.4</ele>
        <time>2025-09-28T06:55:27Z</time>
      </trkpt>
      <trkpt lat="45.71996" lon="3.01391">
        <ele>896.4</ele>
        <time>2025-09-28T06:55:28Z</time>
      </trkpt>
      <trkpt lat="45.71996" lon="3.0139">
        <ele>896.4</ele>
        <time>2025-09-28T06:55:29Z</time>
      </trkpt>
      <trkpt lat="45.71996" lon="3.0139">
        <ele>896.4</ele>
        <time>2025-09-28T06:55:30Z</time>
      </trkpt>
      <trkpt lat="45.71996" lon="3.0139">
        <ele>896.4</ele>
        <time>2025-09-28T06:55:31Z</time>
      </trkpt>
      <trkpt lat="45.71996" lon="3.0139">
        <ele>896.4</ele>
        <time>2025-09-28T06:55:32Z</time>
      </trkpt>
      <trkpt lat="45.71996" lon="3.0139">
        <ele>896.4</ele>
        <time>2025-09-28T06:55:33Z</time>
      </trkpt>
      <trkpt lat="45.71996" lon="3.0139">
        <ele>896.4</ele>
        <time>2025-09-28T06:55:34Z</time>
      </trkpt>
      <trkpt lat="45.71995" lon="3.0139">
        <ele>896.4</ele>
        <time>2025-09-28T06:55:35Z</time>
      </trkpt>
      <trkpt lat="45.71995" lon="3.0139">
        <ele>896.4</ele>
        <time>2025-09-28T06:55:36Z</time>
      </trkpt>
      <trkpt lat="45.71995" lon="3.01391">
        <ele>896.4</ele>
        <time>2025-09-28T06:55:37Z</time>
      </trkpt>
      <trkpt lat="45.71995" lon="3.01391">
        <ele>896.4</ele>
        <time>2025-09-28T06:55:38Z</time>
      </trkpt>
      <trkpt lat="45.71995" lon="3.01391">
        <ele>896.4</ele>
        <time>2025-09-28T06:55:39Z</time>
      </trkpt>
      <trkpt lat="45.71995" lon="3.0139">
        <ele>896.4</ele>
        <time>2025-09-28T06:55:40Z</time>
      </trkpt>
      <trkpt lat="45.71995" lon="3.0139">
        <ele>896.4</ele>
        <time>2025-09-28T06:55:41Z</time>
      </trkpt>
      <trkpt lat="45.71995" lon="3.0139">
        <ele>896.4</ele>
        <time>2025-09-28T06:55:42Z</time>
      </trkpt>
      <trkpt lat="45.71995" lon="3.0139">
        <ele>896.4</ele>
        <time>2025-09-28T06:55:43Z</time>
      </trkpt>
      <trkpt lat="45.71995" lon="3.0139">
        <ele>896.4</ele>
        <time>2025-09-28T06:55:44Z</time>
      </trkpt>
      <trkpt lat="45.71995" lon="3.0139">
        <ele>896.4</ele>
        <time>2025-09-28T06:55:45Z</time>
      </trkpt>
      <trkpt lat="45.71995" lon="3.0139">
        <ele>896.4</ele>
        <time>2025-09-28T06:55:46Z</time>
      </trkpt>
      <trkpt lat="45.71995" lon="3.0139">
        <ele>896.4</ele>
        <time>2025-09-28T06:55:47Z</time>
      </trkpt>
      <trkpt lat="45.71995" lon="3.0139">
        <ele>896.4</ele>
        <time>2025-09-28T06:55:48Z</time>
      </trkpt>
      <trkpt lat="45.71995" lon="3.0139">
        <ele>896.4</ele>
        <time>2025-09-28T06:55:49Z</time>
      </trkpt>
      <trkpt lat="45.71995" lon="3.0139">
        <ele>896.4</ele>
        <time>2025-09-28T06:55:50Z</time>
      </trkpt>
      <trkpt lat="45.71995" lon="3.0139">
        <ele>896.4</ele>
        <time>2025-09-28T06:55:51Z</time>
      </trkpt>
      <trkpt lat="45.71995" lon="3.0139">
        <ele>896.4</ele>
        <time>2025-09-28T06:55:52Z</time>
      </trkpt>
      <trkpt lat="45.71996" lon="3.0139">
        <ele>896.4</ele>
        <time>2025-09-28T06:55:53Z</time>
      </trkpt>
      <trkpt lat="45.71996" lon="3.0139">
        <ele>896.4</ele>
        <time>2025-09-28T06:55:54Z</time>
      </trkpt>
      <trkpt lat="45.71996" lon="3.0139">
        <ele>896.4</ele>
        <time>2025-09-28T06:55:55Z</time>
      </trkpt>
      <trkpt lat="45.71996" lon="3.0139">
        <ele>896.4</ele>
        <time>2025-09-28T06:55:56Z</time>
      </trkpt>
      <trkpt lat="45.71997" lon="3.0139">
        <ele>896.4</ele>
        <time>2025-09-28T06:55:57Z</time>
      </trkpt>
      <trkpt lat="45.71997" lon="3.0139">
        <ele>896.4</ele>
        <time>2025-09-28T06:55:58Z</time>
      </trkpt>
      <trkpt lat="45.71997" lon="3.0139">
        <ele>896.4</ele>
        <time>2025-09-28T06:55:59Z</time>
      </trkpt>
      <trkpt lat="45.71997" lon="3.0139">
        <ele>896.4</ele>
        <time>2025-09-28T06:56:00Z</time>
      </trkpt>
      <trkpt lat="45.71997" lon="3.0139">
        <ele>896.4</ele>
        <time>2025-09-28T06:56:01Z</time>
      </trkpt>
      <trkpt lat="45.71997" lon="3.0139">
        <ele>896.4</ele>
        <time>2025-09-28T06:56:02Z</time>
      </trkpt>
      <trkpt lat="45.71997" lon="3.01389">
        <ele>896.4</ele>
        <time>2025-09-28T06:56:03Z</time>
      </trkpt>
      <trkpt lat="45.71997" lon="3.01389">
        <ele>896.4</ele>
        <time>2025-09-28T06:56:04Z</time>
      </trkpt>
      <trkpt lat="45.71997" lon="3.01389">
        <ele>896.4</ele>
        <time>2025-09-28T06:56:05Z</time>
      </trkpt>
      <trkpt lat="45.71997" lon="3.01389">
        <ele>896.4</ele>
        <time>2025-09-28T06:56:06Z</time>
      </trkpt>
      <trkpt lat="45.71997" lon="3.01389">
        <ele>896.4</ele>
        <time>2025-09-28T06:56:07Z</time>
      </trkpt>
      <trkpt lat="45.71997" lon="3.01389">
        <ele>896.4</ele>
        <time>2025-09-28T06:56:08Z</time>
      </trkpt>
      <trkpt lat="45.71997" lon="3.01389">
        <ele>896.4</ele>
        <time>2025-09-28T06:56:09Z</time>
      </trkpt>
      <trkpt lat="45.71997" lon="3.01389">
        <ele>896.4</ele>
        <time>2025-09-28T06:56:10Z</time>
      </trkpt>
      <trkpt lat="45.71997" lon="3.01389">
        <ele>896.4</ele>
        <time>2025-09-28T06:56:11Z</time>
      </trkpt>
      <trkpt lat="45.71997" lon="3.01389">
        <ele>896.4</ele>
        <time>2025-09-28T06:56:12Z</time>
      </trkpt>
      <trkpt lat="45.71997" lon="3.01389">
        <ele>896.4</ele>
        <time>2025-09-28T06:56:13Z</time>
      </trkpt>
      <trkpt lat="45.71997" lon="3.01389">
        <ele>896.4</ele>
        <time>2025-09-28T06:56:14Z</time>
      </trkpt>
      <trkpt lat="45.71997" lon="3.01389">
        <ele>896.4</ele>
        <time>2025-09-28T06:56:15Z</time>
      </trkpt>
      <trkpt lat="45.71997" lon="3.01389">
        <ele>896.4</ele>
        <time>2025-09-28T06:56:16Z</time>
      </trkpt>
      <trkpt lat="45.71997" lon="3.01389">
        <ele>896.4</ele>
        <time>2025-09-28T06:56:17Z</time>
      </trkpt>
      <trkpt lat="45.71996" lon="3.0139">
        <ele>896.4</ele>
        <time>2025-09-28T06:56:18Z</time>
      </trkpt>
      <trkpt lat="45.71996" lon="3.0139">
        <ele>896.4</ele>
        <time>2025-09-28T06:56:19Z</time>
      </trkpt>
      <trkpt lat="45.71996" lon="3.0139">
        <ele>896.4</ele>
        <time>2025-09-28T06:56:20Z</time>
      </trkpt>
      <trkpt lat="45.71996" lon="3.0139">
        <ele>896.4</ele>
        <time>2025-09-28T06:56:21Z</time>
      </trkpt>
      <trkpt lat="45.71995" lon="3.0139">
        <ele>896.4</ele>
        <time>2025-09-28T06:56:22Z</time>
      </trkpt>
      <trkpt lat="45.71995" lon="3.0139">
        <ele>896.4</ele>
        <time>2025-09-28T06:56:23Z</time>
      </trkpt>
      <trkpt lat="45.71995" lon="3.0139">
        <ele>896.4</ele>
        <time>2025-09-28T06:56:24Z</time>
      </trkpt>
      <trkpt lat="45.71995" lon="3.0139">
        <ele>896.4</ele>
        <time>2025-09-28T06:56:25Z</time>
      </trkpt>
      <trkpt lat="45.71995" lon="3.0139">
        <ele>896.4</ele>
        <time>2025-09-28T06:56:26Z</time>
      </trkpt>
      <trkpt lat="45.71995" lon="3.0139">
        <ele>896.4</ele>
        <time>2025-09-28T06:56:27Z</time>
      </trkpt>
      <trkpt lat="45.71995" lon="3.0139">
        <ele>896.4</ele>
        <time>2025-09-28T06:56:28Z</time>
      </trkpt>
      <trkpt lat="45.71995" lon="3.0139">
        <ele>896.4</ele>
        <time>2025-09-28T06:56:29Z</time>
      </trkpt>
      <trkpt lat="45.71995" lon="3.0139">
        <ele>896.4</ele>
        <time>2025-09-28T06:56:30Z</time>
      </trkpt>
      <trkpt lat="45.71995" lon="3.0139">
        <ele>896.4</ele>
        <time>2025-09-28T06:56:31Z</time>
      </trkpt>
      <trkpt lat="45.71995" lon="3.01391">
        <ele>896.4</ele>
        <time>2025-09-28T06:56:32Z</time>
      </trkpt>
      <trkpt lat="45.71995" lon="3.01391">
        <ele>896.4</ele>
        <time>2025-09-28T06:56:33Z</time>
      </trkpt>
      <trkpt lat="45.71995" lon="3.01391">
        <ele>896.4</ele>
        <time>2025-09-28T06:56:34Z</time>
      </trkpt>
      <trkpt lat="45.71995" lon="3.01391">
        <ele>896.4</ele>
        <time>2025-09-28T06:56:35Z</time>
      </trkpt>
      <trkpt lat="45.71995" lon="3.01391">
        <ele>896.4</ele>
        <time>2025-09-28T06:56:36Z</time>
      </trkpt>
      <trkpt lat="45.71995" lon="3.01391">
        <ele>896.4</ele>
        <time>2025-09-28T06:56:37Z</time>
      </trkpt>
      <trkpt lat="45.71995" lon="3.01391">
        <ele>896.4</ele>
        <time>2025-09-28T06:56:38Z</time>
      </trkpt>
      <trkpt lat="45.71995" lon="3.01391">
        <ele>896.4</ele>
        <time>2025-09-28T06:56:39Z</time>
      </trkpt>
      <trkpt lat="45.71995" lon="3.01391">
        <ele>896.4</ele>
        <time>2025-09-28T06:56:40Z</time>
      </trkpt>
      <trkpt lat="45.71995" lon="3.01391">
        <ele>896.4</ele>
        <time>2025-09-28T06:56:41Z</time>
      </trkpt>
      <trkpt lat="45.71995" lon="3.01391">
        <ele>896.4</ele>
        <time>2025-09-28T06:56:42Z</time>
      </trkpt>
      <trkpt lat="45.71995" lon="3.01391">
        <ele>896.4</ele>
        <time>2025-09-28T06:56:43Z</time>
      </trkpt>
      <trkpt lat="45.71995" lon="3.01391">
        <ele>896.4</ele>
        <time>2025-09-28T06:56:44Z</time>
      </trkpt>
      <trkpt lat="45.71995" lon="3.01391">
        <ele>896.4</ele>
        <time>2025-09-28T06:56:45Z</time>
      </trkpt>
      <trkpt lat="45.71995" lon="3.01391">
        <ele>896.4</ele>
        <time>2025-09-28T06:56:46Z</time>
      </trkpt>
      <trkpt lat="45.71995" lon="3.01391">
        <ele>896.4</ele>
        <time>2025-09-28T06:56:47Z</time>
      </trkpt>
      <trkpt lat="45.71995" lon="3.01391">
        <ele>896.4</ele>
        <time>2025-09-28T06:56:48Z</time>
      </trkpt>
      <trkpt lat="45.71995" lon="3.01391">
        <ele>896.4</ele>
        <time>2025-09-28T06:56:49Z</time>
      </trkpt>
      <trkpt lat="45.71995" lon="3.01391">
        <ele>896.4</ele>
        <time>2025-09-28T06:56:50Z</time>
      </trkpt>
      <trkpt lat="45.71995" lon="3.01391">
        <ele>896.4</ele>
        <time>2025-09-28T06:56:51Z</time>
      </trkpt>
      <trkpt lat="45.71995" lon="3.01391">
        <ele>896.4</ele>
        <time>2025-09-28T06:56:52Z</time>
      </trkpt>
      <trkpt lat="45.71995" lon="3.01391">
        <ele>896.4</ele>
        <time>2025-09-28T06:56:53Z</time>
      </trkpt>
      <trkpt lat="45.71995" lon="3.01391">
        <ele>896.4</ele>
        <time>2025-09-28T06:56:54Z</time>
      </trkpt>
      <trkpt lat="45.71995" lon="3.01391">
        <ele>896.4</ele>
        <time>2025-09-28T06:56:55Z</time>
      </trkpt>
      <trkpt lat="45.71995" lon="3.01391">
        <ele>896.4</ele>
        <time>2025-09-28T06:56:56Z</time>
      </trkpt>
      <trkpt lat="45.71995" lon="3.01391">
        <ele>896.4</ele>
        <time>2025-09-28T06:56:57Z</time>
      </trkpt>
      <trkpt lat="45.71995" lon="3.01392">
        <ele>896.4</ele>
        <time>2025-09-28T06:56:58Z</time>
      </trkpt>
      <trkpt lat="45.71995" lon="3.01392">
        <ele>896.4</ele>
        <time>2025-09-28T06:56:59Z</time>
      </trkpt>
      <trkpt lat="45.71995" lon="3.01392">
        <ele>896.4</ele>
        <time>2025-09-28T06:57:00Z</time>
      </trkpt>
      <trkpt lat="45.71995" lon="3.01392">
        <ele>896.4</ele>
        <time>2025-09-28T06:57:01Z</time>
      </trkpt>
      <trkpt lat="45.71995" lon="3.01392">
        <ele>896.4</ele>
        <time>2025-09-28T06:57:02Z</time>
      </trkpt>
      <trkpt lat="45.71995" lon="3.01392">
        <ele>896.4</ele>
        <time>2025-09-28T06:57:03Z</time>
      </trkpt>
      <trkpt lat="45.71995" lon="3.01392">
        <ele>896.4</ele>
        <time>2025-09-28T06:57:04Z</time>
      </trkpt>
      <trkpt lat="45.71995" lon="3.01392">
        <ele>896.4</ele>
        <time>2025-09-28T06:57:05Z</time>
      </trkpt>
      <trkpt lat="45.71995" lon="3.01392">
        <ele>896.4</ele>
        <time>2025-09-28T06:57:06Z</time>
      </trkpt>
      <trkpt lat="45.71995" lon="3.01392">
        <ele>896.4</ele>
        <time>2025-09-28T06:57:07Z</time>
      </trkpt>
      <trkpt lat="45.71994" lon="3.01392">
        <ele>896.4</ele>
        <time>2025-09-28T06:57:08Z</time>
      </trkpt>
      <trkpt lat="45.71994" lon="3.01392">
        <ele>896.4</ele>
        <time>2025-09-28T06:57:09Z</time>
      </trkpt>
      <trkpt lat="45.71994" lon="3.01392">
        <ele>896.4</ele>
        <time>2025-09-28T06:57:10Z</time>
      </trkpt>
      <trkpt lat="45.71994" lon="3.01392">
        <ele>896.4</ele>
        <time>2025-09-28T06:57:11Z</time>
      </trkpt>
      <trkpt lat="45.71994" lon="3.01392">
        <ele>896.4</ele>
        <time>2025-09-28T06:57:12Z</time>
      </trkpt>
      <trkpt lat="45.71994" lon="3.01392">
        <ele>896.4</ele>
        <time>2025-09-28T06:57:13Z</time>
      </trkpt>
      <trkpt lat="45.71994" lon="3.01392">
        <ele>896.4</ele>
        <time>2025-09-28T06:57:14Z</time>
      </trkpt>
      <trkpt lat="45.71994" lon="3.01392">
        <ele>896.4</ele>
        <time>2025-09-28T06:57:15Z</time>
      </trkpt>
      <trkpt lat="45.71994" lon="3.01392">
        <ele>896.4</ele>
        <time>2025-09-28T06:57:16Z</time>
      </trkpt>
      <trkpt lat="45.71994" lon="3.01392">
        <ele>896.4</ele>
        <time>2025-09-28T06:57:17Z</time>
      </trkpt>
      <trkpt lat="45.71994" lon="3.01392">
        <ele>896.4</ele>
        <time>2025-09-28T06:57:18Z</time>
      </trkpt>
      <trkpt lat="45.71994" lon="3.01392">
        <ele>896.4</ele>
        <time>2025-09-28T06:57:19Z</time>
      </trkpt>
      <trkpt lat="45.71994" lon="3.01392">
        <ele>896.4</ele>
        <time>2025-09-28T06:57:20Z</time>
      </trkpt>
      <trkpt lat="45.71994" lon="3.01392">
        <ele>896.4</ele>
        <time>2025-09-28T06:57:21Z</time>
      </trkpt>
      <trkpt lat="45.71994" lon="3.01391">
        <ele>896.4</ele>
        <time>2025-09-28T06:57:22Z</time>
      </trkpt>
      <trkpt lat="45.71994" lon="3.01391">
        <ele>896.4</ele>
        <time>2025-09-28T06:57:23Z</time>
      </trkpt>
      <trkpt lat="45.71994" lon="3.01391">
        <ele>896.4</ele>
        <time>2025-09-28T06:57:24Z</time>
      </trkpt>
      <trkpt lat="45.71994" lon="3.01391">
        <ele>896.4</ele>
        <time>2025-09-28T06:57:25Z</time>
      </trkpt>
      <trkpt lat="45.71994" lon="3.01391">
        <ele>896.4</ele>
        <time>2025-09-28T06:57:26Z</time>
      </trkpt>
      <trkpt lat="45.71994" lon="3.01391">
        <ele>896.4</ele>
        <time>2025-09-28T06:57:27Z</time>
      </trkpt>
      <trkpt lat="45.71994" lon="3.01391">
        <ele>896.4</ele>
        <time>2025-09-28T06:57:28Z</time>
      </trkpt>
      <trkpt lat="45.71994" lon="3.01391">
        <ele>896.4</ele>
        <time>2025-09-28T06:57:29Z</time>
      </trkpt>
      <trkpt lat="45.71994" lon="3.01391">
        <ele>896.4</ele>
        <time>2025-09-28T06:57:30Z</time>
      </trkpt>
      <trkpt lat="45.71994" lon="3.01391">
        <ele>896.4</ele>
        <time>2025-09-28T06:57:31Z</time>
      </trkpt>
      <trkpt lat="45.71994" lon="3.01391">
        <ele>896.4</ele>
        <time>2025-09-28T06:57:32Z</time>
      </trkpt>
      <trkpt lat="45.71994" lon="3.01391">
        <ele>896.4</ele>
        <time>2025-09-28T06:57:33Z</time>
      </trkpt>
      <trkpt lat="45.71994" lon="3.01391">
        <ele>896.4</ele>
        <time>2025-09-28T06:57:34Z</time>
      </trkpt>
      <trkpt lat="45.71994" lon="3.0139">
        <ele>896.4</ele>
        <time>2025-09-28T06:57:35Z</time>
      </trkpt>
      <trkpt lat="45.71994" lon="3.0139">
        <ele>896.4</ele>
        <time>2025-09-28T06:57:36Z</time>
      </trkpt>
      <trkpt lat="45.71994" lon="3.0139">
        <ele>896.4</ele>
        <time>2025-09-28T06:57:37Z</time>
      </trkpt>
      <trkpt lat="45.71994" lon="3.0139">
        <ele>896.4</ele>
        <time>2025-09-28T06:57:38Z</time>
      </trkpt>
      <trkpt lat="45.71994" lon="3.0139">
        <ele>896.4</ele>
        <time>2025-09-28T06:57:39Z</time>
      </trkpt>
      <trkpt lat="45.71994" lon="3.0139">
        <ele>896.4</ele>
        <time>2025-09-28T06:57:40Z</time>
      </trkpt>
      <trkpt lat="45.71994" lon="3.0139">
        <ele>896.4</ele>
        <time>2025-09-28T06:57:41Z</time>
      </trkpt>
      <trkpt lat="45.71994" lon="3.0139">
        <ele>896.4</ele>
        <time>2025-09-28T06:57:42Z</time>
      </trkpt>
      <trkpt lat="45.71994" lon="3.0139">
        <ele>896.4</ele>
        <time>2025-09-28T06:57:43Z</time>
      </trkpt>
      <trkpt lat="45.71994" lon="3.0139">
        <ele>896.4</ele>
        <time>2025-09-28T06:57:44Z</time>
      </trkpt>
      <trkpt lat="45.71994" lon="3.0139">
        <ele>896.4</ele>
        <time>2025-09-28T06:57:45Z</time>
      </trkpt>
      <trkpt lat="45.71994" lon="3.0139">
        <ele>896.4</ele>
        <time>2025-09-28T06:57:46Z</time>
      </trkpt>
      <trkpt lat="45.71994" lon="3.0139">
        <ele>896.4</ele>
        <time>2025-09-28T06:57:47Z</time>
      </trkpt>
      <trkpt lat="45.71994" lon="3.0139">
        <ele>896.4</ele>
        <time>2025-09-28T06:57:48Z</time>
      </trkpt>
      <trkpt lat="45.71994" lon="3.0139">
        <ele>896.4</ele>
        <time>2025-09-28T06:57:49Z</time>
      </trkpt>
      <trkpt lat="45.71994" lon="3.0139">
        <ele>896.4</ele>
        <time>2025-09-28T06:57:50Z</time>
      </trkpt>
      <trkpt lat="45.71994" lon="3.0139">
        <ele>896.4</ele>
        <time>2025-09-28T06:57:51Z</time>
      </trkpt>
      <trkpt lat="45.71994" lon="3.0139">
        <ele>896.4</ele>
        <time>2025-09-28T06:57:52Z</time>
      </trkpt>
      <trkpt lat="45.71994" lon="3.0139">
        <ele>896.4</ele>
        <time>2025-09-28T06:57:53Z</time>
      </trkpt>
      <trkpt lat="45.71994" lon="3.0139">
        <ele>896.4</ele>
        <time>2025-09-28T06:57:54Z</time>
      </trkpt>
      <trkpt lat="45.71994" lon="3.0139">
        <ele>896.4</ele>
        <time>2025-09-28T06:57:55Z</time>
      </trkpt>
      <trkpt lat="45.71994" lon="3.0139">
        <ele>896.4</ele>
        <time>2025-09-28T06:57:56Z</time>
      </trkpt>
      <trkpt lat="45.71994" lon="3.0139">
        <ele>896.4</ele>
        <time>2025-09-28T06:57:57Z</time>
      </trkpt>
      <trkpt lat="45.71994" lon="3.0139">
        <ele>896.4</ele>
        <time>2025-09-28T06:57:58Z</time>
      </trkpt>
      <trkpt lat="45.71994" lon="3.0139">
        <ele>896.4</ele>
        <time>2025-09-28T06:57:59Z</time>
      </trkpt>
      <trkpt lat="45.71994" lon="3.0139">
        <ele>896.4</ele>
        <time>2025-09-28T06:58:00Z</time>
      </trkpt>
      <trkpt lat="45.71994" lon="3.0139">
        <ele>896.4</ele>
        <time>2025-09-28T06:58:01Z</time>
      </trkpt>
      <trkpt lat="45.71994" lon="3.0139">
        <ele>896.4</ele>
        <time>2025-09-28T06:58:02Z</time>
      </trkpt>
      <trkpt lat="45.71994" lon="3.0139">
        <ele>896.4</ele>
        <time>2025-09-28T06:58:03Z</time>
      </trkpt>
      <trkpt lat="45.71994" lon="3.0139">
        <ele>896.4</ele>
        <time>2025-09-28T06:58:04Z</time>
      </trkpt>
      <trkpt lat="45.71994" lon="3.0139">
        <ele>896.4</ele>
        <time>2025-09-28T06:58:05Z</time>
      </trkpt>
      <trkpt lat="45.71994" lon="3.0139">
        <ele>896.4</ele>
        <time>2025-09-28T06:58:06Z</time>
      </trkpt>
      <trkpt lat="45.71994" lon="3.0139">
        <ele>896.4</ele>
        <time>2025-09-28T06:58:07Z</time>
      </trkpt>
      <trkpt lat="45.71994" lon="3.0139">
        <ele>896.4</ele>
        <time>2025-09-28T06:58:08Z</time>
      </trkpt>
      <trkpt lat="45.71994" lon="3.0139">
        <ele>896.4</ele>
        <time>2025-09-28T06:58:09Z</time>
      </trkpt>
      <trkpt lat="45.71994" lon="3.0139">
        <ele>896.4</ele>
        <time>2025-09-28T06:58:10Z</time>
      </trkpt>
      <trkpt lat="45.71994" lon="3.0139">
        <ele>896.4</ele>
        <time>2025-09-28T06:58:11Z</time>
      </trkpt>
      <trkpt lat="45.71994" lon="3.0139">
        <ele>896.4</ele>
        <time>2025-09-28T06:58:12Z</time>
      </trkpt>
      <trkpt lat="45.71994" lon="3.0139">
        <ele>896.4</ele>
        <time>2025-09-28T06:58:13Z</time>
      </trkpt>
      <trkpt lat="45.71994" lon="3.0139">
        <ele>896.4</ele>
        <time>2025-09-28T06:58:14Z</time>
      </trkpt>
      <trkpt lat="45.71994" lon="3.0139">
        <ele>896.4</ele>
        <time>2025-09-28T06:58:15Z</time>
      </trkpt>
      <trkpt lat="45.71994" lon="3.0139">
        <ele>896.4</ele>
        <time>2025-09-28T06:58:16Z</time>
      </trkpt>
      <trkpt lat="45.71994" lon="3.0139">
        <ele>896.4</ele>
        <time>2025-09-28T06:58:17Z</time>
      </trkpt>
      <trkpt lat="45.71994" lon="3.0139">
        <ele>896.4</ele>
        <time>2025-09-28T06:58:18Z</time>
      </trkpt>
      <trkpt lat="45.71994" lon="3.0139">
        <ele>896.4</ele>
        <time>2025-09-28T06:58:19Z</time>
      </trkpt>
      <trkpt lat="45.71994" lon="3.0139">
        <ele>896.4</ele>
        <time>2025-09-28T06:58:20Z</time>
      </trkpt>
      <trkpt lat="45.71994" lon="3.0139">
        <ele>896.4</ele>
        <time>2025-09-28T06:58:21Z</time>
      </trkpt>
      <trkpt lat="45.71994" lon="3.0139">
        <ele>896.4</ele>
        <time>2025-09-28T06:58:22Z</time>
      </trkpt>
      <trkpt lat="45.71994" lon="3.0139">
        <ele>896.4</ele>
        <time>2025-09-28T06:58:23Z</time>
      </trkpt>
      <trkpt lat="45.71994" lon="3.0139">
        <ele>896.4</ele>
        <time>2025-09-28T06:58:24Z</time>
      </trkpt>
      <trkpt lat="45.71994" lon="3.0139">
        <ele>896.4</ele>
        <time>2025-09-28T06:58:25Z</time>
      </trkpt>
      <trkpt lat="45.71994" lon="3.0139">
        <ele>896.4</ele>
        <time>2025-09-28T06:58:26Z</time>
      </trkpt>
      <trkpt lat="45.71994" lon="3.0139">
        <ele>896.4</ele>
        <time>2025-09-28T06:58:27Z</time>
      </trkpt>
      <trkpt lat="45.71994" lon="3.0139">
        <ele>896.4</ele>
        <time>2025-09-28T06:58:28Z</time>
      </trkpt>
      <trkpt lat="45.71994" lon="3.0139">
        <ele>896.4</ele>
        <time>2025-09-28T06:58:29Z</time>
      </trkpt>
      <trkpt lat="45.71994" lon="3.0139">
        <ele>896.4</ele>
        <time>2025-09-28T06:58:30Z</time>
      </trkpt>
      <trkpt lat="45.71994" lon="3.0139">
        <ele>896.4</ele>
        <time>2025-09-28T06:58:31Z</time>
      </trkpt>
      <trkpt lat="45.71994" lon="3.0139">
        <ele>896.4</ele>
        <time>2025-09-28T06:58:32Z</time>
      </trkpt>
      <trkpt lat="45.71994" lon="3.0139">
        <ele>896.4</ele>
        <time>2025-09-28T06:58:33Z</time>
      </trkpt>
      <trkpt lat="45.71994" lon="3.0139">
        <ele>896.4</ele>
        <time>2025-09-28T06:58:34Z</time>
      </trkpt>
      <trkpt lat="45.71994" lon="3.0139">
        <ele>896.4</ele>
        <time>2025-09-28T06:58:35Z</time>
      </trkpt>
      <trkpt lat="45.71994" lon="3.0139">
        <ele>896.4</ele>
        <time>2025-09-28T06:58:36Z</time>
      </trkpt>
      <trkpt lat="45.71994" lon="3.0139">
        <ele>896.4</ele>
        <time>2025-09-28T06:58:37Z</time>
      </trkpt>
      <trkpt lat="45.71994" lon="3.0139">
        <ele>896.4</ele>
        <time>2025-09-28T06:58:38Z</time>
      </trkpt>
      <trkpt lat="45.71994" lon="3.0139">
        <ele>896.4</ele>
        <time>2025-09-28T06:58:39Z</time>
      </trkpt>
      <trkpt lat="45.71994" lon="3.0139">
        <ele>896.4</ele>
        <time>2025-09-28T06:58:40Z</time>
      </trkpt>
      <trkpt lat="45.71994" lon="3.0139">
        <ele>896.4</ele>
        <time>2025-09-28T06:58:41Z</time>
      </trkpt>
      <trkpt lat="45.71994" lon="3.0139">
        <ele>896.4</ele>
        <time>2025-09-28T06:58:42Z</time>
      </trkpt>
      <trkpt lat="45.71994" lon="3.0139">
        <ele>896.4</ele>
        <time>2025-09-28T06:58:43Z</time>
      </trkpt>
      <trkpt lat="45.71994" lon="3.0139">
        <ele>896.4</ele>
        <time>2025-09-28T06:58:44Z</time>
      </trkpt>
      <trkpt lat="45.71994" lon="3.0139">
        <ele>896.4</ele>
        <time>2025-09-28T06:58:45Z</time>
      </trkpt>
      <trkpt lat="45.71994" lon="3.0139">
        <ele>896.4</ele>
        <time>2025-09-28T06:58:46Z</time>
      </trkpt>
      <trkpt lat="45.71994" lon="3.0139">
        <ele>896.4</ele>
        <time>2025-09-28T06:58:47Z</time>
      </trkpt>
      <trkpt lat="45.71994" lon="3.0139">
        <ele>896.4</ele>
        <time>2025-09-28T06:58:48Z</time>
      </trkpt>
      <trkpt lat="45.71994" lon="3.0139">
        <ele>896.4</ele>
        <time>2025-09-28T06:58:49Z</time>
      </trkpt>
      <trkpt lat="45.71994" lon="3.0139">
        <ele>896.4</ele>
        <time>2025-09-28T06:58:50Z</time>
      </trkpt>
      <trkpt lat="45.71994" lon="3.0139">
        <ele>896.4</ele>
        <time>2025-09-28T06:58:51Z</time>
      </trkpt>
      <trkpt lat="45.71994" lon="3.0139">
        <ele>896.4</ele>
        <time>2025-09-28T06:58:52Z</time>
      </trkpt>
      <trkpt lat="45.71994" lon="3.0139">
        <ele>896.4</ele>
        <time>2025-09-28T06:58:53Z</time>
      </trkpt>
      <trkpt lat="45.71994" lon="3.0139">
        <ele>896.4</ele>
        <time>2025-09-28T06:58:54Z</time>
      </trkpt>
      <trkpt lat="45.71994" lon="3.0139">
        <ele>896.4</ele>
        <time>2025-09-28T06:58:55Z</time>
      </trkpt>
      <trkpt lat="45.71994" lon="3.0139">
        <ele>896.4</ele>
        <time>2025-09-28T06:58:56Z</time>
      </trkpt>
      <trkpt lat="45.71994" lon="3.0139">
        <ele>896.4</ele>
        <time>2025-09-28T06:58:57Z</time>
      </trkpt>
      <trkpt lat="45.71994" lon="3.0139">
        <ele>896.4</ele>
        <time>2025-09-28T06:58:58Z</time>
      </trkpt>
      <trkpt lat="45.71994" lon="3.0139">
        <ele>896.4</ele>
        <time>2025-09-28T06:58:59Z</time>
      </trkpt>
      <trkpt lat="45.71994" lon="3.0139">
        <ele>896.4</ele>
        <time>2025-09-28T06:59:00Z</time>
      </trkpt>
      <trkpt lat="45.71994" lon="3.0139">
        <ele>896.4</ele>
        <time>2025-09-28T06:59:01Z</time>
      </trkpt>
      <trkpt lat="45.71994" lon="3.0139">
        <ele>896.4</ele>
        <time>2025-09-28T06:59:02Z</time>
      </trkpt>
      <trkpt lat="45.71994" lon="3.0139">
        <ele>896.4</ele>
        <time>2025-09-28T06:59:03Z</time>
      </trkpt>
      <trkpt lat="45.71994" lon="3.0139">
        <ele>896.4</ele>
        <time>2025-09-28T06:59:04Z</time>
      </trkpt>
      <trkpt lat="45.71994" lon="3.0139">
        <ele>896.4</ele>
        <time>2025-09-28T06:59:05Z</time>
      </trkpt>
      <trkpt lat="45.71994" lon="3.0139">
        <ele>896.4</ele>
        <time>2025-09-28T06:59:06Z</time>
      </trkpt>
      <trkpt lat="45.71994" lon="3.0139">
        <ele>896.4</ele>
        <time>2025-09-28T06:59:07Z</time>
      </trkpt>
      <trkpt lat="45.71994" lon="3.0139">
        <ele>896.4</ele>
        <time>2025-09-28T06:59:08Z</time>
      </trkpt>
      <trkpt lat="45.71994" lon="3.0139">
        <ele>896.4</ele>
        <time>2025-09-28T06:59:09Z</time>
      </trkpt>
      <trkpt lat="45.71994" lon="3.0139">
        <ele>896.4</ele>
        <time>2025-09-28T06:59:10Z</time>
      </trkpt>
      <trkpt lat="45.71994" lon="3.0139">
        <ele>896.4</ele>
        <time>2025-09-28T06:59:11Z</time>
      </trkpt>
      <trkpt lat="45.71994" lon="3.0139">
        <ele>896.4</ele>
        <time>2025-09-28T06:59:12Z</time>
      </trkpt>
      <trkpt lat="45.71993" lon="3.01389">
        <ele>896.4</ele>
        <time>2025-09-28T06:59:13Z</time>
      </trkpt>
      <trkpt lat="45.71991" lon="3.01388">
        <ele>896.4</ele>
        <time>2025-09-28T06:59:14Z</time>
      </trkpt>
      <trkpt lat="45.71989" lon="3.01387">
        <ele>896.4</ele>
        <time>2025-09-28T06:59:15Z</time>
      </trkpt>
      <trkpt lat="45.71987" lon="3.01385">
        <ele>896.4</ele>
        <time>2025-09-28T06:59:16Z</time>
      </trkpt>
      <trkpt lat="45.71985" lon="3.01384">
        <ele>896.4</ele>
        <time>2025-09-28T06:59:17Z</time>
      </trkpt>
      <trkpt lat="45.71985" lon="3.01382">
        <ele>896.4</ele>
        <time>2025-09-28T06:59:18Z</time>
      </trkpt>
      <trkpt lat="45.71985" lon="3.01379">
        <ele>896.4</ele>
        <time>2025-09-28T06:59:19Z</time>
      </trkpt>
      <trkpt lat="45.71986" lon="3.01376">
        <ele>896.6</ele>
        <time>2025-09-28T06:59:20Z</time>
      </trkpt>
      <trkpt lat="45.71987" lon="3.01373">
        <ele>896.6</ele>
        <time>2025-09-28T06:59:21Z</time>
      </trkpt>
      <trkpt lat="45.71988" lon="3.0137">
        <ele>896.6</ele>
        <time>2025-09-28T06:59:22Z</time>
      </trkpt>
      <trkpt lat="45.71989" lon="3.01367">
        <ele>896.6</ele>
        <time>2025-09-28T06:59:23Z</time>
      </trkpt>
      <trkpt lat="45.71991" lon="3.01364">
        <ele>896.8</ele>
        <time>2025-09-28T06:59:24Z</time>
      </trkpt>
      <trkpt lat="45.71993" lon="3.0136">
        <ele>896.8</ele>
        <time>2025-09-28T06:59:25Z</time>
      </trkpt>
      <trkpt lat="45.71995" lon="3.01356">
        <ele>897</ele>
        <time>2025-09-28T06:59:26Z</time>
      </trkpt>
      <trkpt lat="45.71997" lon="3.01352">
        <ele>897</ele>
        <time>2025-09-28T06:59:27Z</time>
      </trkpt>
      <trkpt lat="45.71999" lon="3.01348">
        <ele>897.2</ele>
        <time>2025-09-28T06:59:28Z</time>
      </trkpt>
      <trkpt lat="45.72" lon="3.01345">
        <ele>897.2</ele>
        <time>2025-09-28T06:59:29Z</time>
      </trkpt>
      <trkpt lat="45.72002" lon="3.01341">
        <ele>897.4</ele>
        <time>2025-09-28T06:59:30Z</time>
      </trkpt>
      <trkpt lat="45.72002" lon="3.01336">
        <ele>897.4</ele>
        <time>2025-09-28T06:59:31Z</time>
      </trkpt>
      <trkpt lat="45.72002" lon="3.01331">
        <ele>897.4</ele>
        <time>2025-09-28T06:59:32Z</time>
      </trkpt>
      <trkpt lat="45.72003" lon="3.01326">
        <ele>897.6</ele>
        <time>2025-09-28T06:59:33Z</time>
      </trkpt>
      <trkpt lat="45.72004" lon="3.01321">
        <ele>897.6</ele>
        <time>2025-09-28T06:59:34Z</time>
      </trkpt>
      <trkpt lat="45.72006" lon="3.01316">
        <ele>897.8</ele>
        <time>2025-09-28T06:59:35Z</time>
      </trkpt>
      <trkpt lat="45.72008" lon="3.01311">
        <ele>897.8</ele>
        <time>2025-09-28T06:59:36Z</time>
      </trkpt>
      <trkpt lat="45.72011" lon="3.01305">
        <ele>898</ele>
        <time>2025-09-28T06:59:37Z</time>
      </trkpt>
      <trkpt lat="45.72013" lon="3.013">
        <ele>898</ele>
        <time>2025-09-28T06:59:38Z</time>
      </trkpt>
      <trkpt lat="45.72015" lon="3.01294">
        <ele>898.2</ele>
        <time>2025-09-28T06:59:39Z</time>
      </trkpt>
      <trkpt lat="45.72017" lon="3.01289">
        <ele>898.2</ele>
        <time>2025-09-28T06:59:40Z</time>
      </trkpt>
      <trkpt lat="45.72018" lon="3.01283">
        <ele>898.4</ele>
        <time>2025-09-28T06:59:41Z</time>
      </trkpt>
      <trkpt lat="45.7202" lon="3.01278">
        <ele>898.6</ele>
        <time>2025-09-28T06:59:42Z</time>
      </trkpt>
      <trkpt lat="45.72021" lon="3.01273">
        <ele>898.6</ele>
        <time>2025-09-28T06:59:43Z</time>
      </trkpt>
      <trkpt lat="45.72023" lon="3.01268">
        <ele>898.6</ele>
        <time>2025-09-28T06:59:44Z</time>
      </trkpt>
      <trkpt lat="45.72025" lon="3.01263">
        <ele>898.8</ele>
        <time>2025-09-28T06:59:45Z</time>
      </trkpt>
      <trkpt lat="45.72026" lon="3.01257">
        <ele>898.8</ele>
        <time>2025-09-28T06:59:46Z</time>
      </trkpt>
      <trkpt lat="45.72027" lon="3.01252">
        <ele>899</ele>
        <time>2025-09-28T06:59:47Z</time>
      </trkpt>
      <trkpt lat="45.72029" lon="3.01246">
        <ele>899.2</ele>
        <time>2025-09-28T06:59:48Z</time>
      </trkpt>
      <trkpt lat="45.7203" lon="3.0124">
        <ele>899.2</ele>
        <time>2025-09-28T06:59:49Z</time>
      </trkpt>
      <trkpt lat="45.72031" lon="3.01235">
        <ele>899.4</ele>
        <time>2025-09-28T06:59:50Z</time>
      </trkpt>
      <trkpt lat="45.72032" lon="3.01229">
        <ele>899.6</ele>
        <time>2025-09-28T06:59:51Z</time>
      </trkpt>
      <trkpt lat="45.72032" lon="3.01224">
        <ele>899.6</ele>
        <time>2025-09-28T06:59:52Z</time>
      </trkpt>
      <trkpt lat="45.72032" lon="3.01219">
        <ele>899.8</ele>
        <time>2025-09-28T06:59:53Z</time>
      </trkpt>
      <trkpt lat="45.72033" lon="3.01213">
        <ele>899.8</ele>
        <time>2025-09-28T06:59:54Z</time>
      </trkpt>
      <trkpt lat="45.72033" lon="3.01208">
        <ele>900</ele>
        <time>2025-09-28T06:59:55Z</time>
      </trkpt>
      <trkpt lat="45.72033" lon="3.01203">
        <ele>900</ele>
        <time>2025-09-28T06:59:56Z</time>
      </trkpt>
      <trkpt lat="45.72033" lon="3.01198">
        <ele>900.2</ele>
        <time>2025-09-28T06:59:57Z</time>
      </trkpt>
      <trkpt lat="45.72033" lon="3.01193">
        <ele>900.2</ele>
        <time>2025-09-28T06:59:58Z</time>
      </trkpt>
      <trkpt lat="45.72033" lon="3.01188">
        <ele>900.4</ele>
        <time>2025-09-28T06:59:59Z</time>
      </trkpt>
      <trkpt lat="45.72032" lon="3.01184">
        <ele>900.6</ele>
        <time>2025-09-28T07:00:00Z</time>
      </trkpt>
      <trkpt lat="45.72032" lon="3.01179">
        <ele>900.8</ele>
        <time>2025-09-28T07:00:01Z</time>
      </trkpt>
      <trkpt lat="45.72032" lon="3.01174">
        <ele>900.8</ele>
        <time>2025-09-28T07:00:02Z</time>
      </trkpt>
      <trkpt lat="45.72032" lon="3.01168">
        <ele>901</ele>
        <time>2025-09-28T07:00:03Z</time>
      </trkpt>
      <trkpt lat="45.72031" lon="3.01163">
        <ele>901.2</ele>
        <time>2025-09-28T07:00:04Z</time>
      </trkpt>
      <trkpt lat="45.72032" lon="3.01158">
        <ele>901.4</ele>
        <time>2025-09-28T07:00:05Z</time>
      </trkpt>
      <trkpt lat="45.72032" lon="3.01153">
        <ele>901.6</ele>
        <time>2025-09-28T07:00:06Z</time>
      </trkpt>
      <trkpt lat="45.72032" lon="3.01148">
        <ele>901.8</ele>
        <time>2025-09-28T07:00:07Z</time>
      </trkpt>
      <trkpt lat="45.72032" lon="3.01142">
        <ele>901.8</ele>
        <time>2025-09-28T07:00:08Z</time>
      </trkpt>
      <trkpt lat="45.72033" lon="3.01136">
        <ele>902</ele>
        <time>2025-09-28T07:00:09Z</time>
      </trkpt>
      <trkpt lat="45.72033" lon="3.01131">
        <ele>902</ele>
        <time>2025-09-28T07:00:10Z</time>
      </trkpt>
      <trkpt lat="45.72034" lon="3.01126">
        <ele>902.2</ele>
        <time>2025-09-28T07:00:11Z</time>
      </trkpt>
      <trkpt lat="45.72035" lon="3.01121">
        <ele>902.2</ele>
        <time>2025-09-28T07:00:12Z</time>
      </trkpt>
      <trkpt lat="45.72037" lon="3.01116">
        <ele>902.2</ele>
        <time>2025-09-28T07:00:13Z</time>
      </trkpt>
      <trkpt lat="45.72039" lon="3.01112">
        <ele>902.2</ele>
        <time>2025-09-28T07:00:14Z</time>
      </trkpt>
      <trkpt lat="45.72041" lon="3.01109">
        <ele>902</ele>
        <time>2025-09-28T07:00:15Z</time>
      </trkpt>
      <trkpt lat="45.72044" lon="3.01107">
        <ele>902</ele>
        <time>2025-09-28T07:00:16Z</time>
      </trkpt>
      <trkpt lat="45.72049" lon="3.01105">
        <ele>902</ele>
        <time>2025-09-28T07:00:17Z</time>
      </trkpt>
      <trkpt lat="45.72053" lon="3.01103">
        <ele>901.8</ele>
        <time>2025-09-28T07:00:18Z</time>
      </trkpt>
      <trkpt lat="45.72057" lon="3.011">
        <ele>901.8</ele>
        <time>2025-09-28T07:00:19Z</time>
      </trkpt>
      <trkpt lat="45.7206" lon="3.01096">
        <ele>901.8</ele>
        <time>2025-09-28T07:00:20Z</time>
      </trkpt>
      <trkpt lat="45.72063" lon="3.01092">
        <ele>901.6</ele>
        <time>2025-09-28T07:00:21Z</time>
      </trkpt>
      <trkpt lat="45.72066" lon="3.01088">
        <ele>901.6</ele>
        <time>2025-09-28T07:00:22Z</time>
      </trkpt>
      <trkpt lat="45.72069" lon="3.01083">
        <ele>901.6</ele>
        <time>2025-09-28T07:00:23Z</time>
      </trkpt>
      <trkpt lat="45.72071" lon="3.01079">
        <ele>901.6</ele>
        <time>2025-09-28T07:00:24Z</time>
      </trkpt>
      <trkpt lat="45.72073" lon="3.01075">
        <ele>901.6</ele>
        <time>2025-09-28T07:00:25Z</time>
      </trkpt>
      <trkpt lat="45.72076" lon="3.01071">
        <ele>901.6</ele>
        <time>2025-09-28T07:00:26Z</time>
      </trkpt>
      <trkpt lat="45.72079" lon="3.01066">
        <ele>901.6</ele>
        <time>2025-09-28T07:00:27Z</time>
      </trkpt>
      <trkpt lat="45.72082" lon="3.0106">
        <ele>901.8</ele>
        <time>2025-09-28T07:00:28Z</time>
      </trkpt>
      <trkpt lat="45.72085" lon="3.01055">
        <ele>901.8</ele>
        <time>2025-09-28T07:00:29Z</time>
      </trkpt>
      <trkpt lat="45.72088" lon="3.0105">
        <ele>902</ele>
        <time>2025-09-28T07:00:30Z</time>
      </trkpt>
      <trkpt lat="45.7209" lon="3.01045">
        <ele>902</ele>
        <time>2025-09-28T07:00:31Z</time>
      </trkpt>
      <trkpt lat="45.72093" lon="3.01041">
        <ele>902.2</ele>
        <time>2025-09-28T07:00:32Z</time>
      </trkpt>
      <trkpt lat="45.72096" lon="3.01037">
        <ele>902.2</ele>
        <time>2025-09-28T07:00:33Z</time>
      </trkpt>
      <trkpt lat="45.721" lon="3.01033">
        <ele>902.4</ele>
        <time>2025-09-28T07:00:34Z</time>
      </trkpt>
      <trkpt lat="45.72104" lon="3.01029">
        <ele>902.4</ele>
        <time>2025-09-28T07:00:35Z</time>
      </trkpt>
      <trkpt lat="45.72108" lon="3.01024">
        <ele>902.4</ele>
        <time>2025-09-28T07:00:36Z</time>
      </trkpt>
      <trkpt lat="45.7211" lon="3.0102">
        <ele>902.6</ele>
        <time>2025-09-28T07:00:37Z</time>
      </trkpt>
      <trkpt lat="45.72113" lon="3.01015">
        <ele>902.6</ele>
        <time>2025-09-28T07:00:38Z</time>
      </trkpt>
      <trkpt lat="45.72116" lon="3.01008">
        <ele>902.8</ele>
        <time>2025-09-28T07:00:39Z</time>
      </trkpt>
      <trkpt lat="45.72119" lon="3.01002">
        <ele>902.8</ele>
        <time>2025-09-28T07:00:40Z</time>
      </trkpt>
      <trkpt lat="45.72122" lon="3.00997">
        <ele>903</ele>
        <time>2025-09-28T07:00:41Z</time>
      </trkpt>
      <trkpt lat="45.72125" lon="3.00992">
        <ele>903.2</ele>
        <time>2025-09-28T07:00:42Z</time>
      </trkpt>
      <trkpt lat="45.72127" lon="3.00987">
        <ele>903.4</ele>
        <time>2025-09-28T07:00:43Z</time>
      </trkpt>
      <trkpt lat="45.72129" lon="3.00981">
        <ele>903.6</ele>
        <time>2025-09-28T07:00:44Z</time>
      </trkpt>
      <trkpt lat="45.7213" lon="3.00977">
        <ele>903.8</ele>
        <time>2025-09-28T07:00:45Z</time>
      </trkpt>
      <trkpt lat="45.7213" lon="3.00972">
        <ele>904.2</ele>
        <time>2025-09-28T07:00:46Z</time>
      </trkpt>
      <trkpt lat="45.72131" lon="3.00968">
        <ele>904.4</ele>
        <time>2025-09-28T07:00:47Z</time>
      </trkpt>
      <trkpt lat="45.72132" lon="3.00964">
        <ele>904.8</ele>
        <time>2025-09-28T07:00:48Z</time>
      </trkpt>
      <trkpt lat="45.72133" lon="3.0096">
        <ele>905.2</ele>
        <time>2025-09-28T07:00:49Z</time>
      </trkpt>
      <trkpt lat="45.72134" lon="3.00957">
        <ele>905.4</ele>
        <time>2025-09-28T07:00:50Z</time>
      </trkpt>
      <trkpt lat="45.72135" lon="3.00953">
        <ele>905.8</ele>
        <time>2025-09-28T07:00:51Z</time>
      </trkpt>
      <trkpt lat="45.72136" lon="3.0095">
        <ele>906.2</ele>
        <time>2025-09-28T07:00:52Z</time>
      </trkpt>
      <trkpt lat="45.72136" lon="3.00947">
        <ele>906.4</ele>
        <time>2025-09-28T07:00:53Z</time>
      </trkpt>
      <trkpt lat="45.72137" lon="3.00944">
        <ele>906.6</ele>
        <time>2025-09-28T07:00:54Z</time>
      </trkpt>
      <trkpt lat="45.72138" lon="3.00941">
        <ele>907</ele>
        <time>2025-09-28T07:00:55Z</time>
      </trkpt>
      <trkpt lat="45.72139" lon="3.00937">
        <ele>907.2</ele>
        <time>2025-09-28T07:00:56Z</time>
      </trkpt>
      <trkpt lat="45.7214" lon="3.00934">
        <ele>907.6</ele>
        <time>2025-09-28T07:00:57Z</time>
      </trkpt>
      <trkpt lat="45.72141" lon="3.00931">
        <ele>907.8</ele>
        <time>2025-09-28T07:00:58Z</time>
      </trkpt>
      <trkpt lat="45.72141" lon="3.00929">
        <ele>908</ele>
        <time>2025-09-28T07:00:59Z</time>
      </trkpt>
      <trkpt lat="45.72141" lon="3.00927">
        <ele>908.2</ele>
        <time>2025-09-28T07:01:00Z</time>
      </trkpt>
      <trkpt lat="45.72142" lon="3.00924">
        <ele>908.4</ele>
        <time>2025-09-28T07:01:01Z</time>
      </trkpt>
      <trkpt lat="45.72142" lon="3.00922">
        <ele>908.6</ele>
        <time>2025-09-28T07:01:02Z</time>
      </trkpt>
      <trkpt lat="45.72142" lon="3.00919">
        <ele>908.8</ele>
        <time>2025-09-28T07:01:03Z</time>
      </trkpt>
      <trkpt lat="45.72143" lon="3.00916">
        <ele>909</ele>
        <time>2025-09-28T07:01:04Z</time>
      </trkpt>
      <trkpt lat="45.72144" lon="3.00913">
        <ele>909.2</ele>
        <time>2025-09-28T07:01:05Z</time>
      </trkpt>
      <trkpt lat="45.72144" lon="3.00909">
        <ele>909.4</ele>
        <time>2025-09-28T07:01:06Z</time>
      </trkpt>
      <trkpt lat="45.72145" lon="3.00904">
        <ele>909.6</ele>
        <time>2025-09-28T07:01:07Z</time>
      </trkpt>
      <trkpt lat="45.72145" lon="3.00901">
        <ele>909.8</ele>
        <time>2025-09-28T07:01:08Z</time>
      </trkpt>
      <trkpt lat="45.72145" lon="3.00897">
        <ele>910</ele>
        <time>2025-09-28T07:01:09Z</time>
      </trkpt>
      <trkpt lat="45.72146" lon="3.00894">
        <ele>910.2</ele>
        <time>2025-09-28T07:01:10Z</time>
      </trkpt>
      <trkpt lat="45.72146" lon="3.0089">
        <ele>910.4</ele>
        <time>2025-09-28T07:01:11Z</time>
      </trkpt>
      <trkpt lat="45.72146" lon="3.00886">
        <ele>910.4</ele>
        <time>2025-09-28T07:01:12Z</time>
      </trkpt>
      <trkpt lat="45.72147" lon="3.00882">
        <ele>910.6</ele>
        <time>2025-09-28T07:01:13Z</time>
      </trkpt>
      <trkpt lat="45.72148" lon="3.00877">
        <ele>910.8</ele>
        <time>2025-09-28T07:01:14Z</time>
      </trkpt>
      <trkpt lat="45.72149" lon="3.00873">
        <ele>910.8</ele>
        <time>2025-09-28T07:01:15Z</time>
      </trkpt>
      <trkpt lat="45.7215" lon="3.00869">
        <ele>911</ele>
        <time>2025-09-28T07:01:16Z</time>
      </trkpt>
      <trkpt lat="45.72151" lon="3.00865">
        <ele>911</ele>
        <time>2025-09-28T07:01:17Z</time>
      </trkpt>
      <trkpt lat="45.72153" lon="3.0086">
        <ele>911.2</ele>
        <time>2025-09-28T07:01:18Z</time>
      </trkpt>
      <trkpt lat="45.72155" lon="3.00855">
        <ele>911.2</ele>
        <time>2025-09-28T07:01:19Z</time>
      </trkpt>
      <trkpt lat="45.72157" lon="3.00849">
        <ele>911.4</ele>
        <time>2025-09-28T07:01:20Z</time>
      </trkpt>
      <trkpt lat="45.72159" lon="3.00844">
        <ele>911.4</ele>
        <time>2025-09-28T07:01:21Z</time>
      </trkpt>
      <trkpt lat="45.72162" lon="3.0084">
        <ele>911.6</ele>
        <time>2025-09-28T07:01:22Z</time>
      </trkpt>
      <trkpt lat="45.72164" lon="3.00834">
        <ele>911.6</ele>
        <time>2025-09-28T07:01:23Z</time>
      </trkpt>
      <trkpt lat="45.72166" lon="3.00829">
        <ele>911.8</ele>
        <time>2025-09-28T07:01:24Z</time>
      </trkpt>
      <trkpt lat="45.72169" lon="3.00823">
        <ele>911.8</ele>
        <time>2025-09-28T07:01:25Z</time>
      </trkpt>
      <trkpt lat="45.72172" lon="3.00817">
        <ele>912</ele>
        <time>2025-09-28T07:01:26Z</time>
      </trkpt>
      <trkpt lat="45.72174" lon="3.0081">
        <ele>912</ele>
        <time>2025-09-28T07:01:27Z</time>
      </trkpt>
      <trkpt lat="45.72177" lon="3.00803">
        <ele>912.2</ele>
        <time>2025-09-28T07:01:28Z</time>
      </trkpt>
      <trkpt lat="45.7218" lon="3.00798">
        <ele>912.4</ele>
        <time>2025-09-28T07:01:29Z</time>
      </trkpt>
      <trkpt lat="45.72183" lon="3.00793">
        <ele>912.4</ele>
        <time>2025-09-28T07:01:30Z</time>
      </trkpt>
      <trkpt lat="45.72186" lon="3.00788">
        <ele>912.4</ele>
        <time>2025-09-28T07:01:31Z</time>
      </trkpt>
      <trkpt lat="45.72188" lon="3.00783">
        <ele>912.6</ele>
        <time>2025-09-28T07:01:32Z</time>
      </trkpt>
      <trkpt lat="45.7219" lon="3.00777">
        <ele>912.6</ele>
        <time>2025-09-28T07:01:33Z</time>
      </trkpt>
      <trkpt lat="45.72192" lon="3.00771">
        <ele>912.6</ele>
        <time>2025-09-28T07:01:34Z</time>
      </trkpt>
      <trkpt lat="45.72195" lon="3.00765">
        <ele>912.8</ele>
        <time>2025-09-28T07:01:35Z</time>
      </trkpt>
      <trkpt lat="45.72198" lon="3.0076">
        <ele>912.8</ele>
        <time>2025-09-28T07:01:36Z</time>
      </trkpt>
      <trkpt lat="45.722" lon="3.00755">
        <ele>913</ele>
        <time>2025-09-28T07:01:37Z</time>
      </trkpt>
      <trkpt lat="45.72202" lon="3.00749">
        <ele>913</ele>
        <time>2025-09-28T07:01:38Z</time>
      </trkpt>
      <trkpt lat="45.72204" lon="3.00744">
        <ele>913.2</ele>
        <time>2025-09-28T07:01:39Z</time>
      </trkpt>
      <trkpt lat="45.72205" lon="3.00739">
        <ele>913.4</ele>
        <time>2025-09-28T07:01:40Z</time>
      </trkpt>
      <trkpt lat="45.72207" lon="3.00734">
        <ele>913.4</ele>
        <time>2025-09-28T07:01:41Z</time>
      </trkpt>
      <trkpt lat="45.72208" lon="3.0073">
        <ele>913.6</ele>
        <time>2025-09-28T07:01:42Z</time>
      </trkpt>
      <trkpt lat="45.7221" lon="3.00726">
        <ele>913.8</ele>
        <time>2025-09-28T07:01:43Z</time>
      </trkpt>
      <trkpt lat="45.72212" lon="3.00721">
        <ele>914</ele>
        <time>2025-09-28T07:01:44Z</time>
      </trkpt>
      <trkpt lat="45.72214" lon="3.00716">
        <ele>914</ele>
        <time>2025-09-28T07:01:45Z</time>
      </trkpt>
      <trkpt lat="45.72216" lon="3.00712">
        <ele>914.2</ele>
        <time>2025-09-28T07:01:46Z</time>
      </trkpt>
      <trkpt lat="45.72217" lon="3.00708">
        <ele>914.4</ele>
        <time>2025-09-28T07:01:47Z</time>
      </trkpt>
      <trkpt lat="45.72219" lon="3.00703">
        <ele>914.6</ele>
        <time>2025-09-28T07:01:48Z</time>
      </trkpt>
      <trkpt lat="45.7222" lon="3.00699">
        <ele>914.8</ele>
        <time>2025-09-28T07:01:49Z</time>
      </trkpt>
      <trkpt lat="45.72222" lon="3.00695">
        <ele>914.8</ele>
        <time>2025-09-28T07:01:50Z</time>
      </trkpt>
      <trkpt lat="45.72223" lon="3.00691">
        <ele>915</ele>
        <time>2025-09-28T07:01:51Z</time>
      </trkpt>
      <trkpt lat="45.72225" lon="3.00687">
        <ele>915</ele>
        <time>2025-09-28T07:01:52Z</time>
      </trkpt>
      <trkpt lat="45.72227" lon="3.00683">
        <ele>915.2</ele>
        <time>2025-09-28T07:01:53Z</time>
      </trkpt>
      <trkpt lat="45.72229" lon="3.00679">
        <ele>915.4</ele>
        <time>2025-09-28T07:01:54Z</time>
      </trkpt>
      <trkpt lat="45.72231" lon="3.00675">
        <ele>915.4</ele>
        <time>2025-09-28T07:01:55Z</time>
      </trkpt>
      <trkpt lat="45.72233" lon="3.00671">
        <ele>915.6</ele>
        <time>2025-09-28T07:01:56Z</time>
      </trkpt>
      <trkpt lat="45.72234" lon="3.00668">
        <ele>915.8</ele>
        <time>2025-09-28T07:01:57Z</time>
      </trkpt>
      <trkpt lat="45.72235" lon="3.00665">
        <ele>915.8</ele>
        <time>2025-09-28T07:01:58Z</time>
      </trkpt>
      <trkpt lat="45.72236" lon="3.00661">
        <ele>916</ele>
        <time>2025-09-28T07:01:59Z</time>
      </trkpt>
      <trkpt lat="45.72238" lon="3.00656">
        <ele>916.2</ele>
        <time>2025-09-28T07:02:00Z</time>
      </trkpt>
      <trkpt lat="45.7224" lon="3.00652">
        <ele>916.4</ele>
        <time>2025-09-28T07:02:01Z</time>
      </trkpt>
      <trkpt lat="45.72242" lon="3.00647">
        <ele>916.6</ele>
        <time>2025-09-28T07:02:02Z</time>
      </trkpt>
      <trkpt lat="45.72244" lon="3.00642">
        <ele>916.8</ele>
        <time>2025-09-28T07:02:03Z</time>
      </trkpt>
      <trkpt lat="45.72246" lon="3.00637">
        <ele>917</ele>
        <time>2025-09-28T07:02:04Z</time>
      </trkpt>
      <trkpt lat="45.72248" lon="3.00633">
        <ele>917.2</ele>
        <time>2025-09-28T07:02:05Z</time>
      </trkpt>
      <trkpt lat="45.72249" lon="3.00629">
        <ele>917.6</ele>
        <time>2025-09-28T07:02:06Z</time>
      </trkpt>
      <trkpt lat="45.72251" lon="3.00626">
        <ele>917.8</ele>
        <time>2025-09-28T07:02:07Z</time>
      </trkpt>
      <trkpt lat="45.72252" lon="3.00622">
        <ele>918</ele>
        <time>2025-09-28T07:02:08Z</time>
      </trkpt>
      <trkpt lat="45.72253" lon="3.00619">
        <ele>918.2</ele>
        <time>2025-09-28T07:02:09Z</time>
      </trkpt>
      <trkpt lat="45.72254" lon="3.00615">
        <ele>918.4</ele>
        <time>2025-09-28T07:02:10Z</time>
      </trkpt>
      <trkpt lat="45.72254" lon="3.00612">
        <ele>918.6</ele>
        <time>2025-09-28T07:02:11Z</time>
      </trkpt>
      <trkpt lat="45.72255" lon="3.00609">
        <ele>918.8</ele>
        <time>2025-09-28T07:02:12Z</time>
      </trkpt>
      <trkpt lat="45.72256" lon="3.00606">
        <ele>919</ele>
        <time>2025-09-28T07:02:13Z</time>
      </trkpt>
      <trkpt lat="45.72257" lon="3.00603">
        <ele>919.4</ele>
        <time>2025-09-28T07:02:14Z</time>
      </trkpt>
      <trkpt lat="45.72258" lon="3.006">
        <ele>919.6</ele>
        <time>2025-09-28T07:02:15Z</time>
      </trkpt>
      <trkpt lat="45.72259" lon="3.00596">
        <ele>919.8</ele>
        <time>2025-09-28T07:02:16Z</time>
      </trkpt>
      <trkpt lat="45.72261" lon="3.00593">
        <ele>920</ele>
        <time>2025-09-28T07:02:17Z</time>
      </trkpt>
      <trkpt lat="45.72262" lon="3.0059">
        <ele>920</ele>
        <time>2025-09-28T07:02:18Z</time>
      </trkpt>
      <trkpt lat="45.72264" lon="3.00586">
        <ele>920.2</ele>
        <time>2025-09-28T07:02:19Z</time>
      </trkpt>
      <trkpt lat="45.72265" lon="3.00583">
        <ele>920.4</ele>
        <time>2025-09-28T07:02:20Z</time>
      </trkpt>
      <trkpt lat="45.72267" lon="3.00579">
        <ele>920.6</ele>
        <time>2025-09-28T07:02:21Z</time>
      </trkpt>
      <trkpt lat="45.72268" lon="3.00575">
        <ele>920.8</ele>
        <time>2025-09-28T07:02:22Z</time>
      </trkpt>
      <trkpt lat="45.72269" lon="3.00572">
        <ele>921</ele>
        <time>2025-09-28T07:02:23Z</time>
      </trkpt>
      <trkpt lat="45.72271" lon="3.00568">
        <ele>921.2</ele>
        <time>2025-09-28T07:02:24Z</time>
      </trkpt>
      <trkpt lat="45.72272" lon="3.00565">
        <ele>921.4</ele>
        <time>2025-09-28T07:02:25Z</time>
      </trkpt>
      <trkpt lat="45.72273" lon="3.00562">
        <ele>921.4</ele>
        <time>2025-09-28T07:02:26Z</time>
      </trkpt>
      <trkpt lat="45.72275" lon="3.00558">
        <ele>921.6</ele>
        <time>2025-09-28T07:02:27Z</time>
      </trkpt>
      <trkpt lat="45.72276" lon="3.00555">
        <ele>921.8</ele>
        <time>2025-09-28T07:02:28Z</time>
      </trkpt>
      <trkpt lat="45.72277" lon="3.00553">
        <ele>922.2</ele>
        <time>2025-09-28T07:02:29Z</time>
      </trkpt>
      <trkpt lat="45.72278" lon="3.0055">
        <ele>922.4</ele>
        <time>2025-09-28T07:02:30Z</time>
      </trkpt>
      <trkpt lat="45.7228" lon="3.00548">
        <ele>922.6</ele>
        <time>2025-09-28T07:02:31Z</time>
      </trkpt>
      <trkpt lat="45.72281" lon="3.00545">
        <ele>922.8</ele>
        <time>2025-09-28T07:02:32Z</time>
      </trkpt>
      <trkpt lat="45.72282" lon="3.00542">
        <ele>923.2</ele>
        <time>2025-09-28T07:02:33Z</time>
      </trkpt>
      <trkpt lat="45.72283" lon="3.00539">
        <ele>923.4</ele>
        <time>2025-09-28T07:02:34Z</time>
      </trkpt>
      <trkpt lat="45.72284" lon="3.00537">
        <ele>923.6</ele>
        <time>2025-09-28T07:02:35Z</time>
      </trkpt>
      <trkpt lat="45.72285" lon="3.00534">
        <ele>923.8</ele>
        <time>2025-09-28T07:02:36Z</time>
      </trkpt>
      <trkpt lat="45.72286" lon="3.00532">
        <ele>924.2</ele>
        <time>2025-09-28T07:02:37Z</time>
      </trkpt>
      <trkpt lat="45.72287" lon="3.00528">
        <ele>924.4</ele>
        <time>2025-09-28T07:02:38Z</time>
      </trkpt>
      <trkpt lat="45.72288" lon="3.00525">
        <ele>924.6</ele>
        <time>2025-09-28T07:02:39Z</time>
      </trkpt>
      <trkpt lat="45.7229" lon="3.00521">
        <ele>924.8</ele>
        <time>2025-09-28T07:02:40Z</time>
      </trkpt>
      <trkpt lat="45.72291" lon="3.00518">
        <ele>925</ele>
        <time>2025-09-28T07:02:41Z</time>
      </trkpt>
      <trkpt lat="45.72293" lon="3.00516">
        <ele>925.2</ele>
        <time>2025-09-28T07:02:42Z</time>
      </trkpt>
      <trkpt lat="45.72294" lon="3.00514">
        <ele>925.4</ele>
        <time>2025-09-28T07:02:43Z</time>
      </trkpt>
      <trkpt lat="45.72295" lon="3.00513">
        <ele>925.6</ele>
        <time>2025-09-28T07:02:44Z</time>
      </trkpt>
      <trkpt lat="45.72297" lon="3.00511">
        <ele>926</ele>
        <time>2025-09-28T07:02:45Z</time>
      </trkpt>
      <trkpt lat="45.72299" lon="3.0051">
        <ele>926.2</ele>
        <time>2025-09-28T07:02:46Z</time>
      </trkpt>
      <trkpt lat="45.72301" lon="3.00508">
        <ele>926.4</ele>
        <time>2025-09-28T07:02:47Z</time>
      </trkpt>
      <trkpt lat="45.72302" lon="3.00505">
        <ele>926.6</ele>
        <time>2025-09-28T07:02:48Z</time>
      </trkpt>
      <trkpt lat="45.72303" lon="3.00503">
        <ele>927</ele>
        <time>2025-09-28T07:02:49Z</time>
      </trkpt>
      <trkpt lat="45.72304" lon="3.00502">
        <ele>927.2</ele>
        <time>2025-09-28T07:02:50Z</time>
      </trkpt>
      <trkpt lat="45.72305" lon="3.00499">
        <ele>927.4</ele>
        <time>2025-09-28T07:02:51Z</time>
      </trkpt>
      <trkpt lat="45.72306" lon="3.00497">
        <ele>927.6</ele>
        <time>2025-09-28T07:02:52Z</time>
      </trkpt>
      <trkpt lat="45.72307" lon="3.00495">
        <ele>927.8</ele>
        <time>2025-09-28T07:02:53Z</time>
      </trkpt>
      <trkpt lat="45.72308" lon="3.00493">
        <ele>928</ele>
        <time>2025-09-28T07:02:54Z</time>
      </trkpt>
      <trkpt lat="45.72309" lon="3.00491">
        <ele>928.4</ele>
        <time>2025-09-28T07:02:55Z</time>
      </trkpt>
      <trkpt lat="45.7231" lon="3.00489">
        <ele>928.6</ele>
        <time>2025-09-28T07:02:56Z</time>
      </trkpt>
      <trkpt lat="45.72312" lon="3.00488">
        <ele>928.8</ele>
        <time>2025-09-28T07:02:57Z</time>
      </trkpt>
      <trkpt lat="45.72313" lon="3.00486">
        <ele>929.2</ele>
        <time>2025-09-28T07:02:58Z</time>
      </trkpt>
      <trkpt lat="45.72314" lon="3.00484">
        <ele>929.4</ele>
        <time>2025-09-28T07:02:59Z</time>
      </trkpt>
      <trkpt lat="45.72316" lon="3.00482">
        <ele>929.6</ele>
        <time>2025-09-28T07:03:00Z</time>
      </trkpt>
      <trkpt lat="45.72318" lon="3.00479">
        <ele>929.8</ele>
        <time>2025-09-28T07:03:01Z</time>
      </trkpt>
      <trkpt lat="45.72321" lon="3.00476">
        <ele>930.2</ele>
        <time>2025-09-28T07:03:02Z</time>
      </trkpt>
      <trkpt lat="45.72323" lon="3.00473">
        <ele>930.4</ele>
        <time>2025-09-28T07:03:03Z</time>
      </trkpt>
      <trkpt lat="45.72325" lon="3.00471">
        <ele>930.6</ele>
        <time>2025-09-28T07:03:04Z</time>
      </trkpt>
      <trkpt lat="45.72328" lon="3.0047">
        <ele>930.8</ele>
        <time>2025-09-28T07:03:05Z</time>
      </trkpt>
      <trkpt lat="45.7233" lon="3.00468">
        <ele>931</ele>
        <time>2025-09-28T07:03:06Z</time>
      </trkpt>
      <trkpt lat="45.72332" lon="3.00466">
        <ele>931.2</ele>
        <time>2025-09-28T07:03:07Z</time>
      </trkpt>
      <trkpt lat="45.72334" lon="3.00464">
        <ele>931.4</ele>
        <time>2025-09-28T07:03:08Z</time>
      </trkpt>
      <trkpt lat="45.72336" lon="3.00462">
        <ele>931.8</ele>
        <time>2025-09-28T07:03:09Z</time>
      </trkpt>
      <trkpt lat="45.72338" lon="3.00461">
        <ele>932</ele>
        <time>2025-09-28T07:03:10Z</time>
      </trkpt>
      <trkpt lat="45.7234" lon="3.00461">
        <ele>932.2</ele>
        <time>2025-09-28T07:03:11Z</time>
      </trkpt>
      <trkpt lat="45.72342" lon="3.00461">
        <ele>932.4</ele>
        <time>2025-09-28T07:03:12Z</time>
      </trkpt>
      <trkpt lat="45.72345" lon="3.0046">
        <ele>932.6</ele>
        <time>2025-09-28T07:03:13Z</time>
      </trkpt>
      <trkpt lat="45.72347" lon="3.00457">
        <ele>932.8</ele>
        <time>2025-09-28T07:03:14Z</time>
      </trkpt>
      <trkpt lat="45.72349" lon="3.00455">
        <ele>933</ele>
        <time>2025-09-28T07:03:15Z</time>
      </trkpt>
      <trkpt lat="45.72351" lon="3.00453">
        <ele>933.2</ele>
        <time>2025-09-28T07:03:16Z</time>
      </trkpt>
      <trkpt lat="45.72353" lon="3.00452">
        <ele>933.6</ele>
        <time>2025-09-28T07:03:17Z</time>
      </trkpt>
      <trkpt lat="45.72356" lon="3.00452">
        <ele>933.8</ele>
        <time>2025-09-28T07:03:18Z</time>
      </trkpt>
      <trkpt lat="45.72359" lon="3.00451">
        <ele>934</ele>
        <time>2025-09-28T07:03:19Z</time>
      </trkpt>
      <trkpt lat="45.72361" lon="3.00451">
        <ele>934.2</ele>
        <time>2025-09-28T07:03:20Z</time>
      </trkpt>
      <trkpt lat="45.72362" lon="3.0045">
        <ele>934.4</ele>
        <time>2025-09-28T07:03:21Z</time>
      </trkpt>
      <trkpt lat="45.72364" lon="3.00449">
        <ele>934.6</ele>
        <time>2025-09-28T07:03:22Z</time>
      </trkpt>
      <trkpt lat="45.72366" lon="3.00448">
        <ele>934.6</ele>
        <time>2025-09-28T07:03:23Z</time>
      </trkpt>
      <trkpt lat="45.72368" lon="3.00446">
        <ele>934.8</ele>
        <time>2025-09-28T07:03:24Z</time>
      </trkpt>
      <trkpt lat="45.72369" lon="3.00444">
        <ele>935</ele>
        <time>2025-09-28T07:03:25Z</time>
      </trkpt>
      <trkpt lat="45.72371" lon="3.00442">
        <ele>935.2</ele>
        <time>2025-09-28T07:03:26Z</time>
      </trkpt>
      <trkpt lat="45.72374" lon="3.0044">
        <ele>935.6</ele>
        <time>2025-09-28T07:03:27Z</time>
      </trkpt>
      <trkpt lat="45.72375" lon="3.00437">
        <ele>935.8</ele>
        <time>2025-09-28T07:03:28Z</time>
      </trkpt>
      <trkpt lat="45.72377" lon="3.00434">
        <ele>936</ele>
        <time>2025-09-28T07:03:29Z</time>
      </trkpt>
      <trkpt lat="45.72378" lon="3.00432">
        <ele>936.2</ele>
        <time>2025-09-28T07:03:30Z</time>
      </trkpt>
      <trkpt lat="45.72381" lon="3.00431">
        <ele>936.6</ele>
        <time>2025-09-28T07:03:31Z</time>
      </trkpt>
      <trkpt lat="45.72382" lon="3.0043">
        <ele>937</ele>
        <time>2025-09-28T07:03:32Z</time>
      </trkpt>
      <trkpt lat="45.72384" lon="3.0043">
        <ele>937.2</ele>
        <time>2025-09-28T07:03:33Z</time>
      </trkpt>
      <trkpt lat="45.72387" lon="3.00429">
        <ele>937.4</ele>
        <time>2025-09-28T07:03:34Z</time>
      </trkpt>
      <trkpt lat="45.72389" lon="3.00429">
        <ele>937.8</ele>
        <time>2025-09-28T07:03:35Z</time>
      </trkpt>
      <trkpt lat="45.72392" lon="3.0043">
        <ele>938</ele>
        <time>2025-09-28T07:03:36Z</time>
      </trkpt>
      <trkpt lat="45.72395" lon="3.0043">
        <ele>938.2</ele>
        <time>2025-09-28T07:03:37Z</time>
      </trkpt>
      <trkpt lat="45.72397" lon="3.0043">
        <ele>938.6</ele>
        <time>2025-09-28T07:03:38Z</time>
      </trkpt>
      <trkpt lat="45.72399" lon="3.00427">
        <ele>938.8</ele>
        <time>2025-09-28T07:03:39Z</time>
      </trkpt>
      <trkpt lat="45.724" lon="3.00424">
        <ele>939</ele>
        <time>2025-09-28T07:03:40Z</time>
      </trkpt>
      <trkpt lat="45.72402" lon="3.00421">
        <ele>939.4</ele>
        <time>2025-09-28T07:03:41Z</time>
      </trkpt>
      <trkpt lat="45.72402" lon="3.00419">
        <ele>939.6</ele>
        <time>2025-09-28T07:03:42Z</time>
      </trkpt>
      <trkpt lat="45.72404" lon="3.00417">
        <ele>939.8</ele>
        <time>2025-09-28T07:03:43Z</time>
      </trkpt>
      <trkpt lat="45.72405" lon="3.00415">
        <ele>940</ele>
        <time>2025-09-28T07:03:44Z</time>
      </trkpt>
      <trkpt lat="45.72407" lon="3.00414">
        <ele>940.2</ele>
        <time>2025-09-28T07:03:45Z</time>
      </trkpt>
      <trkpt lat="45.72409" lon="3.00414">
        <ele>940.2</ele>
        <time>2025-09-28T07:03:46Z</time>
      </trkpt>
      <trkpt lat="45.72411" lon="3.00414">
        <ele>940.4</ele>
        <time>2025-09-28T07:03:47Z</time>
      </trkpt>
      <trkpt lat="45.72414" lon="3.00413">
        <ele>940.6</ele>
        <time>2025-09-28T07:03:48Z</time>
      </trkpt>
      <trkpt lat="45.72415" lon="3.00412">
        <ele>940.8</ele>
        <time>2025-09-28T07:03:49Z</time>
      </trkpt>
      <trkpt lat="45.72415" lon="3.00412">
        <ele>941</ele>
        <time>2025-09-28T07:03:50Z</time>
      </trkpt>
      <trkpt lat="45.72416" lon="3.00412">
        <ele>941</ele>
        <time>2025-09-28T07:03:51Z</time>
      </trkpt>
      <trkpt lat="45.72419" lon="3.0041">
        <ele>941.2</ele>
        <time>2025-09-28T07:03:52Z</time>
      </trkpt>
      <trkpt lat="45.72422" lon="3.00407">
        <ele>941.4</ele>
        <time>2025-09-28T07:03:53Z</time>
      </trkpt>
      <trkpt lat="45.72424" lon="3.00404">
        <ele>941.6</ele>
        <time>2025-09-28T07:03:54Z</time>
      </trkpt>
      <trkpt lat="45.72427" lon="3.00402">
        <ele>941.8</ele>
        <time>2025-09-28T07:03:55Z</time>
      </trkpt>
      <trkpt lat="45.72429" lon="3.004">
        <ele>942</ele>
        <time>2025-09-28T07:03:56Z</time>
      </trkpt>
      <trkpt lat="45.72431" lon="3.00399">
        <ele>942.4</ele>
        <time>2025-09-28T07:03:57Z</time>
      </trkpt>
      <trkpt lat="45.72433" lon="3.00398">
        <ele>942.6</ele>
        <time>2025-09-28T07:03:58Z</time>
      </trkpt>
      <trkpt lat="45.72434" lon="3.00398">
        <ele>942.8</ele>
        <time>2025-09-28T07:03:59Z</time>
      </trkpt>
      <trkpt lat="45.72436" lon="3.00397">
        <ele>943</ele>
        <time>2025-09-28T07:04:00Z</time>
      </trkpt>
      <trkpt lat="45.72437" lon="3.00395">
        <ele>943.4</ele>
        <time>2025-09-28T07:04:01Z</time>
      </trkpt>
      <trkpt lat="45.72439" lon="3.00392">
        <ele>943.6</ele>
        <time>2025-09-28T07:04:02Z</time>
      </trkpt>
      <trkpt lat="45.7244" lon="3.0039">
        <ele>943.8</ele>
        <time>2025-09-28T07:04:03Z</time>
      </trkpt>
      <trkpt lat="45.72441" lon="3.00387">
        <ele>944.2</ele>
        <time>2025-09-28T07:04:04Z</time>
      </trkpt>
      <trkpt lat="45.72441" lon="3.00384">
        <ele>944.4</ele>
        <time>2025-09-28T07:04:05Z</time>
      </trkpt>
      <trkpt lat="45.72442" lon="3.00382">
        <ele>944.6</ele>
        <time>2025-09-28T07:04:06Z</time>
      </trkpt>
      <trkpt lat="45.72443" lon="3.00379">
        <ele>944.8</ele>
        <time>2025-09-28T07:04:07Z</time>
      </trkpt>
      <trkpt lat="45.72443" lon="3.00376">
        <ele>945.2</ele>
        <time>2025-09-28T07:04:08Z</time>
      </trkpt>
      <trkpt lat="45.72443" lon="3.00373">
        <ele>945.4</ele>
        <time>2025-09-28T07:04:09Z</time>
      </trkpt>
      <trkpt lat="45.72444" lon="3.00371">
        <ele>945.8</ele>
        <time>2025-09-28T07:04:10Z</time>
      </trkpt>
      <trkpt lat="45.72444" lon="3.00369">
        <ele>946</ele>
        <time>2025-09-28T07:04:11Z</time>
      </trkpt>
      <trkpt lat="45.72444" lon="3.00366">
        <ele>946.4</ele>
        <time>2025-09-28T07:04:12Z</time>
      </trkpt>
      <trkpt lat="45.72444" lon="3.00363">
        <ele>946.6</ele>
        <time>2025-09-28T07:04:13Z</time>
      </trkpt>
      <trkpt lat="45.72444" lon="3.00359">
        <ele>946.8</ele>
        <time>2025-09-28T07:04:14Z</time>
      </trkpt>
      <trkpt lat="45.72445" lon="3.00356">
        <ele>947</ele>
        <time>2025-09-28T07:04:15Z</time>
      </trkpt>
      <trkpt lat="45.72445" lon="3.00352">
        <ele>947.2</ele>
        <time>2025-09-28T07:04:16Z</time>
      </trkpt>
      <trkpt lat="45.72445" lon="3.00349">
        <ele>947.6</ele>
        <time>2025-09-28T07:04:17Z</time>
      </trkpt>
      <trkpt lat="45.72446" lon="3.00346">
        <ele>947.8</ele>
        <time>2025-09-28T07:04:18Z</time>
      </trkpt>
      <trkpt lat="45.72447" lon="3.00344">
        <ele>948</ele>
        <time>2025-09-28T07:04:19Z</time>
      </trkpt>
      <trkpt lat="45.72448" lon="3.00342">
        <ele>948.2</ele>
        <time>2025-09-28T07:04:20Z</time>
      </trkpt>
      <trkpt lat="45.72449" lon="3.00341">
        <ele>948.4</ele>
        <time>2025-09-28T07:04:21Z</time>
      </trkpt>
      <trkpt lat="45.7245" lon="3.0034">
        <ele>948.6</ele>
        <time>2025-09-28T07:04:22Z</time>
      </trkpt>
      <trkpt lat="45.72452" lon="3.00337">
        <ele>948.8</ele>
        <time>2025-09-28T07:04:23Z</time>
      </trkpt>
      <trkpt lat="45.72453" lon="3.00335">
        <ele>948.8</ele>
        <time>2025-09-28T07:04:24Z</time>
      </trkpt>
      <trkpt lat="45.72455" lon="3.00332">
        <ele>949</ele>
        <time>2025-09-28T07:04:25Z</time>
      </trkpt>
      <trkpt lat="45.72457" lon="3.00329">
        <ele>949.2</ele>
        <time>2025-09-28T07:04:26Z</time>
      </trkpt>
      <trkpt lat="45.72459" lon="3.00327">
        <ele>949.4</ele>
        <time>2025-09-28T07:04:27Z</time>
      </trkpt>
      <trkpt lat="45.72461" lon="3.00325">
        <ele>949.4</ele>
        <time>2025-09-28T07:04:28Z</time>
      </trkpt>
      <trkpt lat="45.72463" lon="3.00324">
        <ele>949.6</ele>
        <time>2025-09-28T07:04:29Z</time>
      </trkpt>
      <trkpt lat="45.72465" lon="3.00322">
        <ele>949.8</ele>
        <time>2025-09-28T07:04:30Z</time>
      </trkpt>
      <trkpt lat="45.72467" lon="3.00321">
        <ele>949.8</ele>
        <time>2025-09-28T07:04:31Z</time>
      </trkpt>
      <trkpt lat="45.7247" lon="3.00319">
        <ele>950</ele>
        <time>2025-09-28T07:04:32Z</time>
      </trkpt>
      <trkpt lat="45.72472" lon="3.00316">
        <ele>950.2</ele>
        <time>2025-09-28T07:04:33Z</time>
      </trkpt>
      <trkpt lat="45.72474" lon="3.00313">
        <ele>950.2</ele>
        <time>2025-09-28T07:04:34Z</time>
      </trkpt>
      <trkpt lat="45.72476" lon="3.00311">
        <ele>950.4</ele>
        <time>2025-09-28T07:04:35Z</time>
      </trkpt>
      <trkpt lat="45.72478" lon="3.00308">
        <ele>950.6</ele>
        <time>2025-09-28T07:04:36Z</time>
      </trkpt>
      <trkpt lat="45.7248" lon="3.00304">
        <ele>950.8</ele>
        <time>2025-09-28T07:04:37Z</time>
      </trkpt>
      <trkpt lat="45.72481" lon="3.003">
        <ele>951</ele>
        <time>2025-09-28T07:04:38Z</time>
      </trkpt>
      <trkpt lat="45.72482" lon="3.00296">
        <ele>951.2</ele>
        <time>2025-09-28T07:04:39Z</time>
      </trkpt>
      <trkpt lat="45.72483" lon="3.00293">
        <ele>951.4</ele>
        <time>2025-09-28T07:04:40Z</time>
      </trkpt>
      <trkpt lat="45.72484" lon="3.00291">
        <ele>951.6</ele>
        <time>2025-09-28T07:04:41Z</time>
      </trkpt>
      <trkpt lat="45.72485" lon="3.00288">
        <ele>951.8</ele>
        <time>2025-09-28T07:04:42Z</time>
      </trkpt>
      <trkpt lat="45.72485" lon="3.00286">
        <ele>952</ele>
        <time>2025-09-28T07:04:43Z</time>
      </trkpt>
      <trkpt lat="45.72486" lon="3.00283">
        <ele>952.2</ele>
        <time>2025-09-28T07:04:44Z</time>
      </trkpt>
      <trkpt lat="45.72488" lon="3.0028">
        <ele>952.4</ele>
        <time>2025-09-28T07:04:45Z</time>
      </trkpt>
      <trkpt lat="45.72489" lon="3.00277">
        <ele>952.6</ele>
        <time>2025-09-28T07:04:46Z</time>
      </trkpt>
      <trkpt lat="45.7249" lon="3.00274">
        <ele>952.8</ele>
        <time>2025-09-28T07:04:47Z</time>
      </trkpt>
      <trkpt lat="45.72492" lon="3.00271">
        <ele>952.8</ele>
        <time>2025-09-28T07:04:48Z</time>
      </trkpt>
      <trkpt lat="45.72493" lon="3.00267">
        <ele>953</ele>
        <time>2025-09-28T07:04:49Z</time>
      </trkpt>
      <trkpt lat="45.72494" lon="3.00264">
        <ele>953.2</ele>
        <time>2025-09-28T07:04:50Z</time>
      </trkpt>
      <trkpt lat="45.72494" lon="3.00261">
        <ele>953.4</ele>
        <time>2025-09-28T07:04:51Z</time>
      </trkpt>
      <trkpt lat="45.72495" lon="3.00258">
        <ele>953.6</ele>
        <time>2025-09-28T07:04:52Z</time>
      </trkpt>
      <trkpt lat="45.72496" lon="3.00256">
        <ele>953.8</ele>
        <time>2025-09-28T07:04:53Z</time>
      </trkpt>
      <trkpt lat="45.72498" lon="3.00253">
        <ele>954</ele>
        <time>2025-09-28T07:04:54Z</time>
      </trkpt>
      <trkpt lat="45.725" lon="3.0025">
        <ele>954.2</ele>
        <time>2025-09-28T07:04:55Z</time>
      </trkpt>
      <trkpt lat="45.72502" lon="3.00246">
        <ele>954.4</ele>
        <time>2025-09-28T07:04:56Z</time>
      </trkpt>
      <trkpt lat="45.72503" lon="3.00242">
        <ele>954.6</ele>
        <time>2025-09-28T07:04:57Z</time>
      </trkpt>
      <trkpt lat="45.72504" lon="3.00238">
        <ele>954.8</ele>
        <time>2025-09-28T07:04:58Z</time>
      </trkpt>
      <trkpt lat="45.72506" lon="3.00233">
        <ele>955</ele>
        <time>2025-09-28T07:04:59Z</time>
      </trkpt>
      <trkpt lat="45.72508" lon="3.0023">
        <ele>955.2</ele>
        <time>2025-09-28T07:05:00Z</time>
      </trkpt>
      <trkpt lat="45.7251" lon="3.00227">
        <ele>955.6</ele>
        <time>2025-09-28T07:05:01Z</time>
      </trkpt>
      <trkpt lat="45.72509" lon="3.00224">
        <ele>955.8</ele>
        <time>2025-09-28T07:05:02Z</time>
      </trkpt>
      <trkpt lat="45.72509" lon="3.0022">
        <ele>956</ele>
        <time>2025-09-28T07:05:03Z</time>
      </trkpt>
      <trkpt lat="45.7251" lon="3.00217">
        <ele>956.2</ele>
        <time>2025-09-28T07:05:04Z</time>
      </trkpt>
      <trkpt lat="45.7251" lon="3.00214">
        <ele>956.6</ele>
        <time>2025-09-28T07:05:05Z</time>
      </trkpt>
      <trkpt lat="45.72511" lon="3.00212">
        <ele>956.8</ele>
        <time>2025-09-28T07:05:06Z</time>
      </trkpt>
      <trkpt lat="45.72512" lon="3.0021">
        <ele>957</ele>
        <time>2025-09-28T07:05:07Z</time>
      </trkpt>
      <trkpt lat="45.72512" lon="3.00208">
        <ele>957.2</ele>
        <time>2025-09-28T07:05:08Z</time>
      </trkpt>
      <trkpt lat="45.72513" lon="3.00206">
        <ele>957.4</ele>
        <time>2025-09-28T07:05:09Z</time>
      </trkpt>
      <trkpt lat="45.72514" lon="3.00204">
        <ele>957.6</ele>
        <time>2025-09-28T07:05:10Z</time>
      </trkpt>
      <trkpt lat="45.72515" lon="3.00202">
        <ele>957.8</ele>
        <time>2025-09-28T07:05:11Z</time>
      </trkpt>
      <trkpt lat="45.72516" lon="3.00199">
        <ele>958</ele>
        <time>2025-09-28T07:05:12Z</time>
      </trkpt>
      <trkpt lat="45.72517" lon="3.00196">
        <ele>958.2</ele>
        <time>2025-09-28T07:05:13Z</time>
      </trkpt>
      <trkpt lat="45.72518" lon="3.00192">
        <ele>958.4</ele>
        <time>2025-09-28T07:05:14Z</time>
      </trkpt>
      <trkpt lat="45.7252" lon="3.00189">
        <ele>958.6</ele>
        <time>2025-09-28T07:05:15Z</time>
      </trkpt>
      <trkpt lat="45.72521" lon="3.00187">
        <ele>958.8</ele>
        <time>2025-09-28T07:05:16Z</time>
      </trkpt>
      <trkpt lat="45.72522" lon="3.00185">
        <ele>959</ele>
        <time>2025-09-28T07:05:17Z</time>
      </trkpt>
      <trkpt lat="45.72524" lon="3.00183">
        <ele>959.2</ele>
        <time>2025-09-28T07:05:18Z</time>
      </trkpt>
      <trkpt lat="45.72525" lon="3.00181">
        <ele>959.6</ele>
        <time>2025-09-28T07:05:19Z</time>
      </trkpt>
      <trkpt lat="45.72526" lon="3.00179">
        <ele>959.8</ele>
        <time>2025-09-28T07:05:20Z</time>
      </trkpt>
      <trkpt lat="45.72528" lon="3.00177">
        <ele>960</ele>
        <time>2025-09-28T07:05:21Z</time>
      </trkpt>
      <trkpt lat="45.72529" lon="3.00175">
        <ele>960.4</ele>
        <time>2025-09-28T07:05:22Z</time>
      </trkpt>
      <trkpt lat="45.7253" lon="3.00173">
        <ele>960.6</ele>
        <time>2025-09-28T07:05:23Z</time>
      </trkpt>
      <trkpt lat="45.72533" lon="3.00171">
        <ele>961</ele>
        <time>2025-09-28T07:05:24Z</time>
      </trkpt>
      <trkpt lat="45.72534" lon="3.00169">
        <ele>961.2</ele>
        <time>2025-09-28T07:05:25Z</time>
      </trkpt>
      <trkpt lat="45.72536" lon="3.00168">
        <ele>961.6</ele>
        <time>2025-09-28T07:05:26Z</time>
      </trkpt>
      <trkpt lat="45.72537" lon="3.00167">
        <ele>962</ele>
        <time>2025-09-28T07:05:27Z</time>
      </trkpt>
      <trkpt lat="45.72539" lon="3.00164">
        <ele>962.2</ele>
        <time>2025-09-28T07:05:28Z</time>
      </trkpt>
      <trkpt lat="45.72541" lon="3.00161">
        <ele>962.6</ele>
        <time>2025-09-28T07:05:29Z</time>
      </trkpt>
      <trkpt lat="45.72543" lon="3.00159">
        <ele>962.8</ele>
        <time>2025-09-28T07:05:30Z</time>
      </trkpt>
      <trkpt lat="45.72545" lon="3.00157">
        <ele>963.2</ele>
        <time>2025-09-28T07:05:31Z</time>
      </trkpt>
      <trkpt lat="45.72546" lon="3.00155">
        <ele>963.4</ele>
        <time>2025-09-28T07:05:32Z</time>
      </trkpt>
      <trkpt lat="45.72548" lon="3.00152">
        <ele>963.6</ele>
        <time>2025-09-28T07:05:33Z</time>
      </trkpt>
      <trkpt lat="45.7255" lon="3.00149">
        <ele>964</ele>
        <time>2025-09-28T07:05:34Z</time>
      </trkpt>
      <trkpt lat="45.72552" lon="3.00147">
        <ele>964.2</ele>
        <time>2025-09-28T07:05:35Z</time>
      </trkpt>
      <trkpt lat="45.72555" lon="3.00145">
        <ele>964.4</ele>
        <time>2025-09-28T07:05:36Z</time>
      </trkpt>
      <trkpt lat="45.72558" lon="3.00144">
        <ele>964.6</ele>
        <time>2025-09-28T07:05:37Z</time>
      </trkpt>
      <trkpt lat="45.72561" lon="3.00142">
        <ele>965</ele>
        <time>2025-09-28T07:05:38Z</time>
      </trkpt>
      <trkpt lat="45.72564" lon="3.0014">
        <ele>965.2</ele>
        <time>2025-09-28T07:05:39Z</time>
      </trkpt>
      <trkpt lat="45.72566" lon="3.00139">
        <ele>965.4</ele>
        <time>2025-09-28T07:05:40Z</time>
      </trkpt>
      <trkpt lat="45.72567" lon="3.00138">
        <ele>965.6</ele>
        <time>2025-09-28T07:05:41Z</time>
      </trkpt>
      <trkpt lat="45.72569" lon="3.00138">
        <ele>966</ele>
        <time>2025-09-28T07:05:42Z</time>
      </trkpt>
      <trkpt lat="45.72571" lon="3.00137">
        <ele>966.2</ele>
        <time>2025-09-28T07:05:43Z</time>
      </trkpt>
      <trkpt lat="45.72572" lon="3.00135">
        <ele>966.4</ele>
        <time>2025-09-28T07:05:44Z</time>
      </trkpt>
      <trkpt lat="45.72573" lon="3.00134">
        <ele>966.6</ele>
        <time>2025-09-28T07:05:45Z</time>
      </trkpt>
      <trkpt lat="45.72575" lon="3.00133">
        <ele>966.8</ele>
        <time>2025-09-28T07:05:46Z</time>
      </trkpt>
      <trkpt lat="45.72577" lon="3.00132">
        <ele>967</ele>
        <time>2025-09-28T07:05:47Z</time>
      </trkpt>
      <trkpt lat="45.72579" lon="3.00132">
        <ele>967.2</ele>
        <time>2025-09-28T07:05:48Z</time>
      </trkpt>
      <trkpt lat="45.7258" lon="3.00133">
        <ele>967.4</ele>
        <time>2025-09-28T07:05:49Z</time>
      </trkpt>
      <trkpt lat="45.72582" lon="3.00135">
        <ele>967.4</ele>
        <time>2025-09-28T07:05:50Z</time>
      </trkpt>
      <trkpt lat="45.72583" lon="3.00139">
        <ele>967.2</ele>
        <time>2025-09-28T07:05:51Z</time>
      </trkpt>
      <trkpt lat="45.72584" lon="3.00145">
        <ele>967</ele>
        <time>2025-09-28T07:05:52Z</time>
      </trkpt>
      <trkpt lat="45.72584" lon="3.00153">
        <ele>966.6</ele>
        <time>2025-09-28T07:05:53Z</time>
      </trkpt>
      <trkpt lat="45.72585" lon="3.00162">
        <ele>966.2</ele>
        <time>2025-09-28T07:05:54Z</time>
      </trkpt>
      <trkpt lat="45.72587" lon="3.00172">
        <ele>965.8</ele>
        <time>2025-09-28T07:05:55Z</time>
      </trkpt>
      <trkpt lat="45.72588" lon="3.00182">
        <ele>965.2</ele>
        <time>2025-09-28T07:05:56Z</time>
      </trkpt>
      <trkpt lat="45.72589" lon="3.00193">
        <ele>964.8</ele>
        <time>2025-09-28T07:05:57Z</time>
      </trkpt>
      <trkpt lat="45.72591" lon="3.00205">
        <ele>964.2</ele>
        <time>2025-09-28T07:05:58Z</time>
      </trkpt>
      <trkpt lat="45.72593" lon="3.00216">
        <ele>963.4</ele>
        <time>2025-09-28T07:05:59Z</time>
      </trkpt>
      <trkpt lat="45.72594" lon="3.00228">
        <ele>962.8</ele>
        <time>2025-09-28T07:06:00Z</time>
      </trkpt>
      <trkpt lat="45.72596" lon="3.00239">
        <ele>962</ele>
        <time>2025-09-28T07:06:01Z</time>
      </trkpt>
      <trkpt lat="45.72597" lon="3.0025">
        <ele>961.2</ele>
        <time>2025-09-28T07:06:02Z</time>
      </trkpt>
      <trkpt lat="45.72599" lon="3.00259">
        <ele>960.6</ele>
        <time>2025-09-28T07:06:03Z</time>
      </trkpt>
      <trkpt lat="45.72601" lon="3.00268">
        <ele>960</ele>
        <time>2025-09-28T07:06:04Z</time>
      </trkpt>
      <trkpt lat="45.72604" lon="3.00277">
        <ele>959.4</ele>
        <time>2025-09-28T07:06:05Z</time>
      </trkpt>
      <trkpt lat="45.72607" lon="3.00285">
        <ele>958.8</ele>
        <time>2025-09-28T07:06:06Z</time>
      </trkpt>
      <trkpt lat="45.72611" lon="3.00294">
        <ele>958.6</ele>
        <time>2025-09-28T07:06:07Z</time>
      </trkpt>
      <trkpt lat="45.72614" lon="3.00302">
        <ele>958.2</ele>
        <time>2025-09-28T07:06:08Z</time>
      </trkpt>
      <trkpt lat="45.72618" lon="3.00308">
        <ele>957.8</ele>
        <time>2025-09-28T07:06:09Z</time>
      </trkpt>
      <trkpt lat="45.72622" lon="3.00313">
        <ele>957.6</ele>
        <time>2025-09-28T07:06:10Z</time>
      </trkpt>
      <trkpt lat="45.72626" lon="3.00318">
        <ele>957.2</ele>
        <time>2025-09-28T07:06:11Z</time>
      </trkpt>
      <trkpt lat="45.72631" lon="3.00323">
        <ele>956.8</ele>
        <time>2025-09-28T07:06:12Z</time>
      </trkpt>
      <trkpt lat="45.72636" lon="3.00328">
        <ele>956.2</ele>
        <time>2025-09-28T07:06:13Z</time>
      </trkpt>
      <trkpt lat="45.72641" lon="3.00335">
        <ele>955.8</ele>
        <time>2025-09-28T07:06:14Z</time>
      </trkpt>
      <trkpt lat="45.72647" lon="3.00342">
        <ele>955.4</ele>
        <time>2025-09-28T07:06:15Z</time>
      </trkpt>
      <trkpt lat="45.72653" lon="3.0035">
        <ele>954.8</ele>
        <time>2025-09-28T07:06:16Z</time>
      </trkpt>
      <trkpt lat="45.72659" lon="3.00358">
        <ele>954.4</ele>
        <time>2025-09-28T07:06:17Z</time>
      </trkpt>
      <trkpt lat="45.72665" lon="3.00366">
        <ele>954</ele>
        <time>2025-09-28T07:06:18Z</time>
      </trkpt>
      <trkpt lat="45.72672" lon="3.00374">
        <ele>953.8</ele>
        <time>2025-09-28T07:06:19Z</time>
      </trkpt>
      <trkpt lat="45.72678" lon="3.00382">
        <ele>953.4</ele>
        <time>2025-09-28T07:06:20Z</time>
      </trkpt>
      <trkpt lat="45.72684" lon="3.00389">
        <ele>953</ele>
        <time>2025-09-28T07:06:21Z</time>
      </trkpt>
      <trkpt lat="45.72689" lon="3.00396">
        <ele>952.8</ele>
        <time>2025-09-28T07:06:22Z</time>
      </trkpt>
      <trkpt lat="45.72695" lon="3.00402">
        <ele>952.4</ele>
        <time>2025-09-28T07:06:23Z</time>
      </trkpt>
      <trkpt lat="45.72701" lon="3.00408">
        <ele>952.2</ele>
        <time>2025-09-28T07:06:24Z</time>
      </trkpt>
      <trkpt lat="45.72709" lon="3.00414">
        <ele>952</ele>
        <time>2025-09-28T07:06:25Z</time>
      </trkpt>
      <trkpt lat="45.72717" lon="3.0042">
        <ele>951.8</ele>
        <time>2025-09-28T07:06:26Z</time>
      </trkpt>
      <trkpt lat="45.72724" lon="3.00426">
        <ele>951.6</ele>
        <time>2025-09-28T07:06:27Z</time>
      </trkpt>
      <trkpt lat="45.72732" lon="3.00432">
        <ele>951.4</ele>
        <time>2025-09-28T07:06:28Z</time>
      </trkpt>
      <trkpt lat="45.7274" lon="3.0044">
        <ele>951.2</ele>
        <time>2025-09-28T07:06:29Z</time>
      </trkpt>
      <trkpt lat="45.72747" lon="3.00446">
        <ele>950.8</ele>
        <time>2025-09-28T07:06:30Z</time>
      </trkpt>
      <trkpt lat="45.72753" lon="3.00452">
        <ele>950.6</ele>
        <time>2025-09-28T07:06:31Z</time>
      </trkpt>
      <trkpt lat="45.7276" lon="3.00457">
        <ele>950.4</ele>
        <time>2025-09-28T07:06:32Z</time>
      </trkpt>
      <trkpt lat="45.72766" lon="3.00462">
        <ele>950.2</ele>
        <time>2025-09-28T07:06:33Z</time>
      </trkpt>
      <trkpt lat="45.72773" lon="3.00467">
        <ele>950</ele>
        <time>2025-09-28T07:06:34Z</time>
      </trkpt>
      <trkpt lat="45.7278" lon="3.00472">
        <ele>949.6</ele>
        <time>2025-09-28T07:06:35Z</time>
      </trkpt>
      <trkpt lat="45.72788" lon="3.00475">
        <ele>949.2</ele>
        <time>2025-09-28T07:06:36Z</time>
      </trkpt>
      <trkpt lat="45.72795" lon="3.00479">
        <ele>948.8</ele>
        <time>2025-09-28T07:06:37Z</time>
      </trkpt>
      <trkpt lat="45.72803" lon="3.00483">
        <ele>948.4</ele>
        <time>2025-09-28T07:06:38Z</time>
      </trkpt>
      <trkpt lat="45.7281" lon="3.00488">
        <ele>947.8</ele>
        <time>2025-09-28T07:06:39Z</time>
      </trkpt>
      <trkpt lat="45.72818" lon="3.00494">
        <ele>947.4</ele>
        <time>2025-09-28T07:06:40Z</time>
      </trkpt>
      <trkpt lat="45.72825" lon="3.00499">
        <ele>946.8</ele>
        <time>2025-09-28T07:06:41Z</time>
      </trkpt>
      <trkpt lat="45.7283" lon="3.00503">
        <ele>946.2</ele>
        <time>2025-09-28T07:06:42Z</time>
      </trkpt>
      <trkpt lat="45.72836" lon="3.00508">
        <ele>945.6</ele>
        <time>2025-09-28T07:06:43Z</time>
      </trkpt>
      <trkpt lat="45.72842" lon="3.00512">
        <ele>945.2</ele>
        <time>2025-09-28T07:06:44Z</time>
      </trkpt>
      <trkpt lat="45.72848" lon="3.00515">
        <ele>944.8</ele>
        <time>2025-09-28T07:06:45Z</time>
      </trkpt>
      <trkpt lat="45.72854" lon="3.00515">
        <ele>944.4</ele>
        <time>2025-09-28T07:06:46Z</time>
      </trkpt>
      <trkpt lat="45.7286" lon="3.00513">
        <ele>944.4</ele>
        <time>2025-09-28T07:06:47Z</time>
      </trkpt>
      <trkpt lat="45.72865" lon="3.0051">
        <ele>944.4</ele>
        <time>2025-09-28T07:06:48Z</time>
      </trkpt>
      <trkpt lat="45.7287" lon="3.00507">
        <ele>944.4</ele>
        <time>2025-09-28T07:06:49Z</time>
      </trkpt>
      <trkpt lat="45.72874" lon="3.00503">
        <ele>944.4</ele>
        <time>2025-09-28T07:06:50Z</time>
      </trkpt>
      <trkpt lat="45.72879" lon="3.005">
        <ele>944.6</ele>
        <time>2025-09-28T07:06:51Z</time>
      </trkpt>
      <trkpt lat="45.72883" lon="3.00496">
        <ele>944.8</ele>
        <time>2025-09-28T07:06:52Z</time>
      </trkpt>
      <trkpt lat="45.72886" lon="3.00493">
        <ele>945</ele>
        <time>2025-09-28T07:06:53Z</time>
      </trkpt>
      <trkpt lat="45.72889" lon="3.00491">
        <ele>945.2</ele>
        <time>2025-09-28T07:06:54Z</time>
      </trkpt>
      <trkpt lat="45.72892" lon="3.00488">
        <ele>945.6</ele>
        <time>2025-09-28T07:06:55Z</time>
      </trkpt>
      <trkpt lat="45.72895" lon="3.00486">
        <ele>945.8</ele>
        <time>2025-09-28T07:06:56Z</time>
      </trkpt>
      <trkpt lat="45.72898" lon="3.00484">
        <ele>946</ele>
        <time>2025-09-28T07:06:57Z</time>
      </trkpt>
      <trkpt lat="45.729" lon="3.00482">
        <ele>946.4</ele>
        <time>2025-09-28T07:06:58Z</time>
      </trkpt>
      <trkpt lat="45.72903" lon="3.0048">
        <ele>946.6</ele>
        <time>2025-09-28T07:06:59Z</time>
      </trkpt>
      <trkpt lat="45.72905" lon="3.00478">
        <ele>946.8</ele>
        <time>2025-09-28T07:07:00Z</time>
      </trkpt>
      <trkpt lat="45.72908" lon="3.00476">
        <ele>947</ele>
        <time>2025-09-28T07:07:01Z</time>
      </trkpt>
      <trkpt lat="45.7291" lon="3.00474">
        <ele>947.2</ele>
        <time>2025-09-28T07:07:02Z</time>
      </trkpt>
      <trkpt lat="45.72911" lon="3.00472">
        <ele>947.4</ele>
        <time>2025-09-28T07:07:03Z</time>
      </trkpt>
      <trkpt lat="45.72913" lon="3.0047">
        <ele>947.6</ele>
        <time>2025-09-28T07:07:04Z</time>
      </trkpt>
      <trkpt lat="45.72915" lon="3.00467">
        <ele>947.8</ele>
        <time>2025-09-28T07:07:05Z</time>
      </trkpt>
      <trkpt lat="45.72916" lon="3.00465">
        <ele>948</ele>
        <time>2025-09-28T07:07:06Z</time>
      </trkpt>
      <trkpt lat="45.72918" lon="3.00463">
        <ele>948.2</ele>
        <time>2025-09-28T07:07:07Z</time>
      </trkpt>
      <trkpt lat="45.72921" lon="3.0046">
        <ele>948.4</ele>
        <time>2025-09-28T07:07:08Z</time>
      </trkpt>
      <trkpt lat="45.72923" lon="3.00457">
        <ele>948.6</ele>
        <time>2025-09-28T07:07:09Z</time>
      </trkpt>
      <trkpt lat="45.72925" lon="3.00454">
        <ele>949</ele>
        <time>2025-09-28T07:07:10Z</time>
      </trkpt>
      <trkpt lat="45.72927" lon="3.00451">
        <ele>949.2</ele>
        <time>2025-09-28T07:07:11Z</time>
      </trkpt>
      <trkpt lat="45.72929" lon="3.00448">
        <ele>949.4</ele>
        <time>2025-09-28T07:07:12Z</time>
      </trkpt>
      <trkpt lat="45.7293" lon="3.00445">
        <ele>949.6</ele>
        <time>2025-09-28T07:07:13Z</time>
      </trkpt>
      <trkpt lat="45.72932" lon="3.00442">
        <ele>950</ele>
        <time>2025-09-28T07:07:14Z</time>
      </trkpt>
      <trkpt lat="45.72933" lon="3.00439">
        <ele>950.2</ele>
        <time>2025-09-28T07:07:15Z</time>
      </trkpt>
      <trkpt lat="45.72935" lon="3.00436">
        <ele>950.4</ele>
        <time>2025-09-28T07:07:16Z</time>
      </trkpt>
      <trkpt lat="45.72936" lon="3.00434">
        <ele>950.6</ele>
        <time>2025-09-28T07:07:17Z</time>
      </trkpt>
      <trkpt lat="45.72937" lon="3.00433">
        <ele>950.8</ele>
        <time>2025-09-28T07:07:18Z</time>
      </trkpt>
      <trkpt lat="45.72938" lon="3.00432">
        <ele>950.8</ele>
        <time>2025-09-28T07:07:19Z</time>
      </trkpt>
      <trkpt lat="45.72938" lon="3.00432">
        <ele>950.8</ele>
        <time>2025-09-28T07:07:20Z</time>
      </trkpt>
      <trkpt lat="45.72938" lon="3.00431">
        <ele>950.8</ele>
        <time>2025-09-28T07:07:35Z</time>
      </trkpt>
      <trkpt lat="45.72938" lon="3.0043">
        <ele>950.8</ele>
        <time>2025-09-28T07:07:36Z</time>
      </trkpt>
      <trkpt lat="45.72938" lon="3.00428">
        <ele>950.8</ele>
        <time>2025-09-28T07:07:37Z</time>
      </trkpt>
      <trkpt lat="45.72938" lon="3.00426">
        <ele>950.8</ele>
        <time>2025-09-28T07:07:38Z</time>
      </trkpt>
      <trkpt lat="45.72938" lon="3.00424">
        <ele>951</ele>
        <time>2025-09-28T07:07:39Z</time>
      </trkpt>
      <trkpt lat="45.72939" lon="3.00421">
        <ele>951</ele>
        <time>2025-09-28T07:07:40Z</time>
      </trkpt>
      <trkpt lat="45.72941" lon="3.0042">
        <ele>951.2</ele>
        <time>2025-09-28T07:07:41Z</time>
      </trkpt>
      <trkpt lat="45.72942" lon="3.00417">
        <ele>951.2</ele>
        <time>2025-09-28T07:07:42Z</time>
      </trkpt>
      <trkpt lat="45.72944" lon="3.00415">
        <ele>951.4</ele>
        <time>2025-09-28T07:07:43Z</time>
      </trkpt>
      <trkpt lat="45.72945" lon="3.00412">
        <ele>951.6</ele>
        <time>2025-09-28T07:07:44Z</time>
      </trkpt>
      <trkpt lat="45.72946" lon="3.00409">
        <ele>951.8</ele>
        <time>2025-09-28T07:07:45Z</time>
      </trkpt>
      <trkpt lat="45.72947" lon="3.00405">
        <ele>952.2</ele>
        <time>2025-09-28T07:07:46Z</time>
      </trkpt>
      <trkpt lat="45.72948" lon="3.00401">
        <ele>952.4</ele>
        <time>2025-09-28T07:07:47Z</time>
      </trkpt>
      <trkpt lat="45.72949" lon="3.00398">
        <ele>952.8</ele>
        <time>2025-09-28T07:07:48Z</time>
      </trkpt>
      <trkpt lat="45.72951" lon="3.00394">
        <ele>953</ele>
        <time>2025-09-28T07:07:49Z</time>
      </trkpt>
      <trkpt lat="45.72952" lon="3.0039">
        <ele>953.4</ele>
        <time>2025-09-28T07:07:50Z</time>
      </trkpt>
      <trkpt lat="45.72953" lon="3.00386">
        <ele>953.6</ele>
        <time>2025-09-28T07:07:51Z</time>
      </trkpt>
      <trkpt lat="45.72955" lon="3.00383">
        <ele>954</ele>
        <time>2025-09-28T07:07:52Z</time>
      </trkpt>
      <trkpt lat="45.72957" lon="3.00379">
        <ele>954.4</ele>
        <time>2025-09-28T07:07:53Z</time>
      </trkpt>
      <trkpt lat="45.72958" lon="3.00376">
        <ele>954.8</ele>
        <time>2025-09-28T07:07:54Z</time>
      </trkpt>
      <trkpt lat="45.72959" lon="3.00372">
        <ele>955</ele>
        <time>2025-09-28T07:07:55Z</time>
      </trkpt>
      <trkpt lat="45.72961" lon="3.00369">
        <ele>955.4</ele>
        <time>2025-09-28T07:07:56Z</time>
      </trkpt>
      <trkpt lat="45.72962" lon="3.00366">
        <ele>955.8</ele>
        <time>2025-09-28T07:07:57Z</time>
      </trkpt>
      <trkpt lat="45.72963" lon="3.00362">
        <ele>956.2</ele>
        <time>2025-09-28T07:07:58Z</time>
      </trkpt>
      <trkpt lat="45.72965" lon="3.00359">
        <ele>956.6</ele>
        <time>2025-09-28T07:07:59Z</time>
      </trkpt>
      <trkpt lat="45.72966" lon="3.00356">
        <ele>957</ele>
        <time>2025-09-28T07:08:00Z</time>
      </trkpt>
      <trkpt lat="45.72968" lon="3.00353">
        <ele>957.2</ele>
        <time>2025-09-28T07:08:01Z</time>
      </trkpt>
      <trkpt lat="45.7297" lon="3.00349">
        <ele>957.6</ele>
        <time>2025-09-28T07:08:02Z</time>
      </trkpt>
      <trkpt lat="45.72972" lon="3.00345">
        <ele>957.8</ele>
        <time>2025-09-28T07:08:03Z</time>
      </trkpt>
      <trkpt lat="45.72974" lon="3.00342">
        <ele>958.2</ele>
        <time>2025-09-28T07:08:04Z</time>
      </trkpt>
      <trkpt lat="45.72976" lon="3.00339">
        <ele>958.6</ele>
        <time>2025-09-28T07:08:05Z</time>
      </trkpt>
      <trkpt lat="45.72977" lon="3.00335">
        <ele>958.8</ele>
        <time>2025-09-28T07:08:06Z</time>
      </trkpt>
      <trkpt lat="45.72978" lon="3.00332">
        <ele>959.2</ele>
        <time>2025-09-28T07:08:07Z</time>
      </trkpt>
      <trkpt lat="45.7298" lon="3.00328">
        <ele>959.4</ele>
        <time>2025-09-28T07:08:08Z</time>
      </trkpt>
      <trkpt lat="45.72982" lon="3.00325">
        <ele>959.8</ele>
        <time>2025-09-28T07:08:09Z</time>
      </trkpt>
      <trkpt lat="45.72984" lon="3.00322">
        <ele>960.2</ele>
        <time>2025-09-28T07:08:10Z</time>
      </trkpt>
      <trkpt lat="45.72986" lon="3.00319">
        <ele>960.4</ele>
        <time>2025-09-28T07:08:11Z</time>
      </trkpt>
      <trkpt lat="45.72987" lon="3.00316">
        <ele>960.8</ele>
        <time>2025-09-28T07:08:12Z</time>
      </trkpt>
      <trkpt lat="45.72989" lon="3.00312">
        <ele>961</ele>
        <time>2025-09-28T07:08:13Z</time>
      </trkpt>
      <trkpt lat="45.7299" lon="3.00309">
        <ele>961.4</ele>
        <time>2025-09-28T07:08:14Z</time>
      </trkpt>
      <trkpt lat="45.72992" lon="3.00306">
        <ele>961.8</ele>
        <time>2025-09-28T07:08:15Z</time>
      </trkpt>
      <trkpt lat="45.72993" lon="3.00303">
        <ele>962</ele>
        <time>2025-09-28T07:08:16Z</time>
      </trkpt>
      <trkpt lat="45.72994" lon="3.00299">
        <ele>962.4</ele>
        <time>2025-09-28T07:08:17Z</time>
      </trkpt>
      <trkpt lat="45.72995" lon="3.00296">
        <ele>962.8</ele>
        <time>2025-09-28T07:08:18Z</time>
      </trkpt>
      <trkpt lat="45.72995" lon="3.00293">
        <ele>963</ele>
        <time>2025-09-28T07:08:19Z</time>
      </trkpt>
      <trkpt lat="45.72997" lon="3.00291">
        <ele>963.4</ele>
        <time>2025-09-28T07:08:20Z</time>
      </trkpt>
      <trkpt lat="45.72998" lon="3.00287">
        <ele>963.6</ele>
        <time>2025-09-28T07:08:21Z</time>
      </trkpt>
      <trkpt lat="45.72998" lon="3.00284">
        <ele>964</ele>
        <time>2025-09-28T07:08:22Z</time>
      </trkpt>
      <trkpt lat="45.72999" lon="3.00282">
        <ele>964.2</ele>
        <time>2025-09-28T07:08:23Z</time>
      </trkpt>
      <trkpt lat="45.73" lon="3.00279">
        <ele>964.4</ele>
        <time>2025-09-28T07:08:24Z</time>
      </trkpt>
      <trkpt lat="45.73001" lon="3.00276">
        <ele>964.6</ele>
        <time>2025-09-28T07:08:25Z</time>
      </trkpt>
      <trkpt lat="45.73002" lon="3.00273">
        <ele>965</ele>
        <time>2025-09-28T07:08:26Z</time>
      </trkpt>
      <trkpt lat="45.73004" lon="3.0027">
        <ele>965.2</ele>
        <time>2025-09-28T07:08:27Z</time>
      </trkpt>
      <trkpt lat="45.73005" lon="3.00267">
        <ele>965.4</ele>
        <time>2025-09-28T07:08:28Z</time>
      </trkpt>
      <trkpt lat="45.73006" lon="3.00264">
        <ele>965.6</ele>
        <time>2025-09-28T07:08:29Z</time>
      </trkpt>
      <trkpt lat="45.73008" lon="3.00262">
        <ele>965.8</ele>
        <time>2025-09-28T07:08:30Z</time>
      </trkpt>
      <trkpt lat="45.73009" lon="3.00259">
        <ele>966</ele>
        <time>2025-09-28T07:08:31Z</time>
      </trkpt>
      <trkpt lat="45.7301" lon="3.00256">
        <ele>966.2</ele>
        <time>2025-09-28T07:08:32Z</time>
      </trkpt>
      <trkpt lat="45.73011" lon="3.00253">
        <ele>966.4</ele>
        <time>2025-09-28T07:08:33Z</time>
      </trkpt>
      <trkpt lat="45.73012" lon="3.00251">
        <ele>966.6</ele>
        <time>2025-09-28T07:08:34Z</time>
      </trkpt>
      <trkpt lat="45.73013" lon="3.00249">
        <ele>966.8</ele>
        <time>2025-09-28T07:08:35Z</time>
      </trkpt>
      <trkpt lat="45.73014" lon="3.00246">
        <ele>967</ele>
        <time>2025-09-28T07:08:36Z</time>
      </trkpt>
      <trkpt lat="45.73015" lon="3.00243">
        <ele>967.2</ele>
        <time>2025-09-28T07:08:37Z</time>
      </trkpt>
      <trkpt lat="45.73016" lon="3.0024">
        <ele>967.4</ele>
        <time>2025-09-28T07:08:38Z</time>
      </trkpt>
      <trkpt lat="45.73017" lon="3.00237">
        <ele>967.8</ele>
        <time>2025-09-28T07:08:39Z</time>
      </trkpt>
      <trkpt lat="45.73018" lon="3.00235">
        <ele>967.8</ele>
        <time>2025-09-28T07:08:40Z</time>
      </trkpt>
      <trkpt lat="45.73019" lon="3.00232">
        <ele>968</ele>
        <time>2025-09-28T07:08:41Z</time>
      </trkpt>
      <trkpt lat="45.7302" lon="3.00229">
        <ele>968.2</ele>
        <time>2025-09-28T07:08:42Z</time>
      </trkpt>
      <trkpt lat="45.73021" lon="3.00226">
        <ele>968.6</ele>
        <time>2025-09-28T07:08:43Z</time>
      </trkpt>
      <trkpt lat="45.73022" lon="3.00223">
        <ele>968.8</ele>
        <time>2025-09-28T07:08:44Z</time>
      </trkpt>
      <trkpt lat="45.73023" lon="3.0022">
        <ele>969</ele>
        <time>2025-09-28T07:08:45Z</time>
      </trkpt>
      <trkpt lat="45.73024" lon="3.00217">
        <ele>969.2</ele>
        <time>2025-09-28T07:08:46Z</time>
      </trkpt>
      <trkpt lat="45.73024" lon="3.00215">
        <ele>969.4</ele>
        <time>2025-09-28T07:08:47Z</time>
      </trkpt>
      <trkpt lat="45.73025" lon="3.00212">
        <ele>969.8</ele>
        <time>2025-09-28T07:08:48Z</time>
      </trkpt>
      <trkpt lat="45.73026" lon="3.00209">
        <ele>970</ele>
        <time>2025-09-28T07:08:49Z</time>
      </trkpt>
      <trkpt lat="45.73026" lon="3.00206">
        <ele>970.2</ele>
        <time>2025-09-28T07:08:50Z</time>
      </trkpt>
      <trkpt lat="45.73027" lon="3.00203">
        <ele>970.4</ele>
        <time>2025-09-28T07:08:51Z</time>
      </trkpt>
      <trkpt lat="45.73028" lon="3.002">
        <ele>970.8</ele>
        <time>2025-09-28T07:08:52Z</time>
      </trkpt>
      <trkpt lat="45.73028" lon="3.00197">
        <ele>971</ele>
        <time>2025-09-28T07:08:53Z</time>
      </trkpt>
      <trkpt lat="45.73029" lon="3.00194">
        <ele>971.2</ele>
        <time>2025-09-28T07:08:54Z</time>
      </trkpt>
      <trkpt lat="45.7303" lon="3.00191">
        <ele>971.4</ele>
        <time>2025-09-28T07:08:55Z</time>
      </trkpt>
      <trkpt lat="45.7303" lon="3.00188">
        <ele>971.8</ele>
        <time>2025-09-28T07:08:56Z</time>
      </trkpt>
      <trkpt lat="45.73031" lon="3.00186">
        <ele>972</ele>
        <time>2025-09-28T07:08:57Z</time>
      </trkpt>
      <trkpt lat="45.73032" lon="3.00183">
        <ele>972.2</ele>
        <time>2025-09-28T07:08:58Z</time>
      </trkpt>
      <trkpt lat="45.73033" lon="3.0018">
        <ele>972.4</ele>
        <time>2025-09-28T07:08:59Z</time>
      </trkpt>
      <trkpt lat="45.73034" lon="3.00177">
        <ele>972.6</ele>
        <time>2025-09-28T07:09:00Z</time>
      </trkpt>
      <trkpt lat="45.73035" lon="3.00174">
        <ele>972.8</ele>
        <time>2025-09-28T07:09:01Z</time>
      </trkpt>
      <trkpt lat="45.73036" lon="3.00171">
        <ele>973</ele>
        <time>2025-09-28T07:09:02Z</time>
      </trkpt>
      <trkpt lat="45.73037" lon="3.00168">
        <ele>973.4</ele>
        <time>2025-09-28T07:09:03Z</time>
      </trkpt>
      <trkpt lat="45.73038" lon="3.00165">
        <ele>973.6</ele>
        <time>2025-09-28T07:09:04Z</time>
      </trkpt>
      <trkpt lat="45.73039" lon="3.00162">
        <ele>973.8</ele>
        <time>2025-09-28T07:09:05Z</time>
      </trkpt>
      <trkpt lat="45.73041" lon="3.0016">
        <ele>974</ele>
        <time>2025-09-28T07:09:06Z</time>
      </trkpt>
      <trkpt lat="45.73041" lon="3.00157">
        <ele>974.4</ele>
        <time>2025-09-28T07:09:07Z</time>
      </trkpt>
      <trkpt lat="45.73042" lon="3.00154">
        <ele>974.6</ele>
        <time>2025-09-28T07:09:08Z</time>
      </trkpt>
      <trkpt lat="45.73043" lon="3.00151">
        <ele>974.8</ele>
        <time>2025-09-28T07:09:09Z</time>
      </trkpt>
      <trkpt lat="45.73044" lon="3.00148">
        <ele>975.2</ele>
        <time>2025-09-28T07:09:10Z</time>
      </trkpt>
      <trkpt lat="45.73045" lon="3.00144">
        <ele>975.4</ele>
        <time>2025-09-28T07:09:11Z</time>
      </trkpt>
      <trkpt lat="45.73045" lon="3.00142">
        <ele>975.6</ele>
        <time>2025-09-28T07:09:12Z</time>
      </trkpt>
      <trkpt lat="45.73046" lon="3.00139">
        <ele>975.8</ele>
        <time>2025-09-28T07:09:13Z</time>
      </trkpt>
      <trkpt lat="45.73046" lon="3.00135">
        <ele>976</ele>
        <time>2025-09-28T07:09:14Z</time>
      </trkpt>
      <trkpt lat="45.73046" lon="3.00132">
        <ele>976.2</ele>
        <time>2025-09-28T07:09:15Z</time>
      </trkpt>
      <trkpt lat="45.73046" lon="3.00129">
        <ele>976.6</ele>
        <time>2025-09-28T07:09:16Z</time>
      </trkpt>
      <trkpt lat="45.73046" lon="3.00125">
        <ele>976.8</ele>
        <time>2025-09-28T07:09:17Z</time>
      </trkpt>
      <trkpt lat="45.73046" lon="3.00122">
        <ele>977</ele>
        <time>2025-09-28T07:09:18Z</time>
      </trkpt>
      <trkpt lat="45.73046" lon="3.00118">
        <ele>977.2</ele>
        <time>2025-09-28T07:09:19Z</time>
      </trkpt>
      <trkpt lat="45.73045" lon="3.00115">
        <ele>977.6</ele>
        <time>2025-09-28T07:09:20Z</time>
      </trkpt>
      <trkpt lat="45.73045" lon="3.00112">
        <ele>977.8</ele>
        <time>2025-09-28T07:09:21Z</time>
      </trkpt>
      <trkpt lat="45.73044" lon="3.00109">
        <ele>978</ele>
        <time>2025-09-28T07:09:22Z</time>
      </trkpt>
      <trkpt lat="45.73043" lon="3.00106">
        <ele>978.4</ele>
        <time>2025-09-28T07:09:23Z</time>
      </trkpt>
      <trkpt lat="45.73042" lon="3.00102">
        <ele>978.6</ele>
        <time>2025-09-28T07:09:24Z</time>
      </trkpt>
      <trkpt lat="45.73041" lon="3.001">
        <ele>978.8</ele>
        <time>2025-09-28T07:09:25Z</time>
      </trkpt>
      <trkpt lat="45.7304" lon="3.00097">
        <ele>979</ele>
        <time>2025-09-28T07:09:26Z</time>
      </trkpt>
      <trkpt lat="45.7304" lon="3.00094">
        <ele>979.4</ele>
        <time>2025-09-28T07:09:27Z</time>
      </trkpt>
      <trkpt lat="45.73039" lon="3.00091">
        <ele>979.6</ele>
        <time>2025-09-28T07:09:28Z</time>
      </trkpt>
      <trkpt lat="45.73038" lon="3.00088">
        <ele>979.8</ele>
        <time>2025-09-28T07:09:29Z</time>
      </trkpt>
      <trkpt lat="45.73038" lon="3.00085">
        <ele>980.2</ele>
        <time>2025-09-28T07:09:30Z</time>
      </trkpt>
      <trkpt lat="45.73038" lon="3.00082">
        <ele>980.4</ele>
        <time>2025-09-28T07:09:31Z</time>
      </trkpt>
      <trkpt lat="45.73037" lon="3.00079">
        <ele>980.6</ele>
        <time>2025-09-28T07:09:32Z</time>
      </trkpt>
      <trkpt lat="45.73037" lon="3.00076">
        <ele>980.8</ele>
        <time>2025-09-28T07:09:33Z</time>
      </trkpt>
      <trkpt lat="45.73036" lon="3.00072">
        <ele>981</ele>
        <time>2025-09-28T07:09:34Z</time>
      </trkpt>
      <trkpt lat="45.73036" lon="3.00069">
        <ele>981.2</ele>
        <time>2025-09-28T07:09:35Z</time>
      </trkpt>
      <trkpt lat="45.73036" lon="3.00066">
        <ele>981.4</ele>
        <time>2025-09-28T07:09:36Z</time>
      </trkpt>
      <trkpt lat="45.73036" lon="3.00062">
        <ele>981.4</ele>
        <time>2025-09-28T07:09:37Z</time>
      </trkpt>
      <trkpt lat="45.73036" lon="3.00058">
        <ele>981.6</ele>
        <time>2025-09-28T07:09:38Z</time>
      </trkpt>
      <trkpt lat="45.73037" lon="3.00054">
        <ele>981.8</ele>
        <time>2025-09-28T07:09:39Z</time>
      </trkpt>
      <trkpt lat="45.73037" lon="3.00051">
        <ele>982</ele>
        <time>2025-09-28T07:09:40Z</time>
      </trkpt>
      <trkpt lat="45.73038" lon="3.00047">
        <ele>982.2</ele>
        <time>2025-09-28T07:09:41Z</time>
      </trkpt>
      <trkpt lat="45.73039" lon="3.00043">
        <ele>982.2</ele>
        <time>2025-09-28T07:09:42Z</time>
      </trkpt>
      <trkpt lat="45.7304" lon="3.00039">
        <ele>982.4</ele>
        <time>2025-09-28T07:09:43Z</time>
      </trkpt>
      <trkpt lat="45.73041" lon="3.00035">
        <ele>982.6</ele>
        <time>2025-09-28T07:09:44Z</time>
      </trkpt>
      <trkpt lat="45.73042" lon="3.00031">
        <ele>982.6</ele>
        <time>2025-09-28T07:09:45Z</time>
      </trkpt>
      <trkpt lat="45.73043" lon="3.00027">
        <ele>982.8</ele>
        <time>2025-09-28T07:09:46Z</time>
      </trkpt>
      <trkpt lat="45.73043" lon="3.00023">
        <ele>983</ele>
        <time>2025-09-28T07:09:47Z</time>
      </trkpt>
      <trkpt lat="45.73045" lon="3.00019">
        <ele>983</ele>
        <time>2025-09-28T07:09:48Z</time>
      </trkpt>
      <trkpt lat="45.73046" lon="3.00015">
        <ele>983.2</ele>
        <time>2025-09-28T07:09:49Z</time>
      </trkpt>
      <trkpt lat="45.73047" lon="3.00011">
        <ele>983.2</ele>
        <time>2025-09-28T07:09:50Z</time>
      </trkpt>
      <trkpt lat="45.73049" lon="3.00006">
        <ele>983.4</ele>
        <time>2025-09-28T07:09:51Z</time>
      </trkpt>
      <trkpt lat="45.7305" lon="3.00002">
        <ele>983.4</ele>
        <time>2025-09-28T07:09:52Z</time>
      </trkpt>
      <trkpt lat="45.73052" lon="2.99998">
        <ele>983.6</ele>
        <time>2025-09-28T07:09:53Z</time>
      </trkpt>
      <trkpt lat="45.73053" lon="2.99993">
        <ele>983.8</ele>
        <time>2025-09-28T07:09:54Z</time>
      </trkpt>
      <trkpt lat="45.73055" lon="2.99989">
        <ele>983.8</ele>
        <time>2025-09-28T07:09:55Z</time>
      </trkpt>
      <trkpt lat="45.73057" lon="2.99985">
        <ele>984</ele>
        <time>2025-09-28T07:09:56Z</time>
      </trkpt>
      <trkpt lat="45.73058" lon="2.9998">
        <ele>984</ele>
        <time>2025-09-28T07:09:57Z</time>
      </trkpt>
      <trkpt lat="45.73059" lon="2.99976">
        <ele>984.2</ele>
        <time>2025-09-28T07:09:58Z</time>
      </trkpt>
      <trkpt lat="45.73061" lon="2.99972">
        <ele>984.4</ele>
        <time>2025-09-28T07:09:59Z</time>
      </trkpt>
      <trkpt lat="45.73063" lon="2.99967">
        <ele>984.4</ele>
        <time>2025-09-28T07:10:00Z</time>
      </trkpt>
      <trkpt lat="45.73064" lon="2.99963">
        <ele>984.6</ele>
        <time>2025-09-28T07:10:01Z</time>
      </trkpt>
      <trkpt lat="45.73065" lon="2.99958">
        <ele>984.8</ele>
        <time>2025-09-28T07:10:02Z</time>
      </trkpt>
      <trkpt lat="45.73067" lon="2.99954">
        <ele>984.8</ele>
        <time>2025-09-28T07:10:03Z</time>
      </trkpt>
      <trkpt lat="45.73069" lon="2.9995">
        <ele>985</ele>
        <time>2025-09-28T07:10:04Z</time>
      </trkpt>
      <trkpt lat="45.73071" lon="2.99945">
        <ele>985</ele>
        <time>2025-09-28T07:10:05Z</time>
      </trkpt>
      <trkpt lat="45.73072" lon="2.99941">
        <ele>985</ele>
        <time>2025-09-28T07:10:06Z</time>
      </trkpt>
      <trkpt lat="45.73074" lon="2.99936">
        <ele>985.2</ele>
        <time>2025-09-28T07:10:07Z</time>
      </trkpt>
      <trkpt lat="45.73074" lon="2.99931">
        <ele>985.2</ele>
        <time>2025-09-28T07:10:08Z</time>
      </trkpt>
      <trkpt lat="45.73076" lon="2.99926">
        <ele>985.4</ele>
        <time>2025-09-28T07:10:09Z</time>
      </trkpt>
      <trkpt lat="45.73077" lon="2.99921">
        <ele>985.4</ele>
        <time>2025-09-28T07:10:10Z</time>
      </trkpt>
      <trkpt lat="45.73078" lon="2.99916">
        <ele>985.4</ele>
        <time>2025-09-28T07:10:11Z</time>
      </trkpt>
      <trkpt lat="45.7308" lon="2.99911">
        <ele>985.6</ele>
        <time>2025-09-28T07:10:12Z</time>
      </trkpt>
      <trkpt lat="45.73081" lon="2.99906">
        <ele>985.6</ele>
        <time>2025-09-28T07:10:13Z</time>
      </trkpt>
      <trkpt lat="45.73083" lon="2.99901">
        <ele>985.6</ele>
        <time>2025-09-28T07:10:14Z</time>
      </trkpt>
      <trkpt lat="45.73084" lon="2.99896">
        <ele>985.8</ele>
        <time>2025-09-28T07:10:15Z</time>
      </trkpt>
      <trkpt lat="45.73086" lon="2.99891">
        <ele>985.8</ele>
        <time>2025-09-28T07:10:16Z</time>
      </trkpt>
      <trkpt lat="45.73088" lon="2.99886">
        <ele>985.8</ele>
        <time>2025-09-28T07:10:17Z</time>
      </trkpt>
      <trkpt lat="45.7309" lon="2.99881">
        <ele>986</ele>
        <time>2025-09-28T07:10:18Z</time>
      </trkpt>
      <trkpt lat="45.73092" lon="2.99876">
        <ele>986</ele>
        <time>2025-09-28T07:10:19Z</time>
      </trkpt>
      <trkpt lat="45.73094" lon="2.99871">
        <ele>986</ele>
        <time>2025-09-28T07:10:20Z</time>
      </trkpt>
      <trkpt lat="45.73096" lon="2.99866">
        <ele>986.2</ele>
        <time>2025-09-28T07:10:21Z</time>
      </trkpt>
      <trkpt lat="45.73097" lon="2.99861">
        <ele>986.2</ele>
        <time>2025-09-28T07:10:22Z</time>
      </trkpt>
      <trkpt lat="45.73098" lon="2.99856">
        <ele>986.2</ele>
        <time>2025-09-28T07:10:23Z</time>
      </trkpt>
      <trkpt lat="45.731" lon="2.99851">
        <ele>986.4</ele>
        <time>2025-09-28T07:10:24Z</time>
      </trkpt>
      <trkpt lat="45.73101" lon="2.99846">
        <ele>986.4</ele>
        <time>2025-09-28T07:10:25Z</time>
      </trkpt>
      <trkpt lat="45.73103" lon="2.99841">
        <ele>986.4</ele>
        <time>2025-09-28T07:10:26Z</time>
      </trkpt>
      <trkpt lat="45.73104" lon="2.99836">
        <ele>986.6</ele>
        <time>2025-09-28T07:10:27Z</time>
      </trkpt>
      <trkpt lat="45.73106" lon="2.99831">
        <ele>986.6</ele>
        <time>2025-09-28T07:10:28Z</time>
      </trkpt>
      <trkpt lat="45.73108" lon="2.99826">
        <ele>986.8</ele>
        <time>2025-09-28T07:10:29Z</time>
      </trkpt>
      <trkpt lat="45.7311" lon="2.99821">
        <ele>986.8</ele>
        <time>2025-09-28T07:10:30Z</time>
      </trkpt>
      <trkpt lat="45.73112" lon="2.99816">
        <ele>987</ele>
        <time>2025-09-28T07:10:31Z</time>
      </trkpt>
      <trkpt lat="45.73114" lon="2.99811">
        <ele>987</ele>
        <time>2025-09-28T07:10:32Z</time>
      </trkpt>
      <trkpt lat="45.73116" lon="2.99806">
        <ele>987</ele>
        <time>2025-09-28T07:10:33Z</time>
      </trkpt>
      <trkpt lat="45.73119" lon="2.99801">
        <ele>987.2</ele>
        <time>2025-09-28T07:10:34Z</time>
      </trkpt>
      <trkpt lat="45.73121" lon="2.99796">
        <ele>987.2</ele>
        <time>2025-09-28T07:10:35Z</time>
      </trkpt>
      <trkpt lat="45.73123" lon="2.99791">
        <ele>987.4</ele>
        <time>2025-09-28T07:10:36Z</time>
      </trkpt>
      <trkpt lat="45.73126" lon="2.99786">
        <ele>987.4</ele>
        <time>2025-09-28T07:10:37Z</time>
      </trkpt>
      <trkpt lat="45.73128" lon="2.99781">
        <ele>987.6</ele>
        <time>2025-09-28T07:10:38Z</time>
      </trkpt>
      <trkpt lat="45.7313" lon="2.99777">
        <ele>987.6</ele>
        <time>2025-09-28T07:10:39Z</time>
      </trkpt>
      <trkpt lat="45.73133" lon="2.99772">
        <ele>987.8</ele>
        <time>2025-09-28T07:10:40Z</time>
      </trkpt>
      <trkpt lat="45.73135" lon="2.99767">
        <ele>987.8</ele>
        <time>2025-09-28T07:10:41Z</time>
      </trkpt>
      <trkpt lat="45.73137" lon="2.99763">
        <ele>988</ele>
        <time>2025-09-28T07:10:42Z</time>
      </trkpt>
      <trkpt lat="45.73139" lon="2.99758">
        <ele>988</ele>
        <time>2025-09-28T07:10:43Z</time>
      </trkpt>
      <trkpt lat="45.73141" lon="2.99753">
        <ele>988.2</ele>
        <time>2025-09-28T07:10:44Z</time>
      </trkpt>
      <trkpt lat="45.73143" lon="2.99748">
        <ele>988.2</ele>
        <time>2025-09-28T07:10:45Z</time>
      </trkpt>
      <trkpt lat="45.73144" lon="2.99743">
        <ele>988.4</ele>
        <time>2025-09-28T07:10:46Z</time>
      </trkpt>
      <trkpt lat="45.73146" lon="2.99738">
        <ele>988.6</ele>
        <time>2025-09-28T07:10:47Z</time>
      </trkpt>
      <trkpt lat="45.73148" lon="2.99734">
        <ele>988.6</ele>
        <time>2025-09-28T07:10:48Z</time>
      </trkpt>
      <trkpt lat="45.7315" lon="2.99729">
        <ele>988.6</ele>
        <time>2025-09-28T07:10:49Z</time>
      </trkpt>
      <trkpt lat="45.73152" lon="2.99725">
        <ele>988.8</ele>
        <time>2025-09-28T07:10:50Z</time>
      </trkpt>
      <trkpt lat="45.73155" lon="2.99722">
        <ele>988.8</ele>
        <time>2025-09-28T07:10:51Z</time>
      </trkpt>
      <trkpt lat="45.73157" lon="2.99718">
        <ele>989</ele>
        <time>2025-09-28T07:10:52Z</time>
      </trkpt>
      <trkpt lat="45.7316" lon="2.99714">
        <ele>989.2</ele>
        <time>2025-09-28T07:10:53Z</time>
      </trkpt>
      <trkpt lat="45.73162" lon="2.99711">
        <ele>989.2</ele>
        <time>2025-09-28T07:10:54Z</time>
      </trkpt>
      <trkpt lat="45.73165" lon="2.99707">
        <ele>989.4</ele>
        <time>2025-09-28T07:10:55Z</time>
      </trkpt>
      <trkpt lat="45.73168" lon="2.99704">
        <ele>989.4</ele>
        <time>2025-09-28T07:10:56Z</time>
      </trkpt>
      <trkpt lat="45.73171" lon="2.997">
        <ele>989.6</ele>
        <time>2025-09-28T07:10:57Z</time>
      </trkpt>
      <trkpt lat="45.73173" lon="2.99697">
        <ele>989.8</ele>
        <time>2025-09-28T07:10:58Z</time>
      </trkpt>
      <trkpt lat="45.73176" lon="2.99693">
        <ele>989.8</ele>
        <time>2025-09-28T07:10:59Z</time>
      </trkpt>
      <trkpt lat="45.73179" lon="2.9969">
        <ele>990</ele>
        <time>2025-09-28T07:11:00Z</time>
      </trkpt>
      <trkpt lat="45.73183" lon="2.99686">
        <ele>990.2</ele>
        <time>2025-09-28T07:11:01Z</time>
      </trkpt>
      <trkpt lat="45.73186" lon="2.99683">
        <ele>990.4</ele>
        <time>2025-09-28T07:11:02Z</time>
      </trkpt>
      <trkpt lat="45.7319" lon="2.9968">
        <ele>990.6</ele>
        <time>2025-09-28T07:11:03Z</time>
      </trkpt>
      <trkpt lat="45.73193" lon="2.99677">
        <ele>990.6</ele>
        <time>2025-09-28T07:11:04Z</time>
      </trkpt>
      <trkpt lat="45.73196" lon="2.99674">
        <ele>990.8</ele>
        <time>2025-09-28T07:11:05Z</time>
      </trkpt>
      <trkpt lat="45.73198" lon="2.99671">
        <ele>991</ele>
        <time>2025-09-28T07:11:06Z</time>
      </trkpt>
      <trkpt lat="45.73201" lon="2.99668">
        <ele>991.2</ele>
        <time>2025-09-28T07:11:07Z</time>
      </trkpt>
      <trkpt lat="45.73203" lon="2.99665">
        <ele>991.2</ele>
        <time>2025-09-28T07:11:08Z</time>
      </trkpt>
      <trkpt lat="45.73206" lon="2.99662">
        <ele>991.4</ele>
        <time>2025-09-28T07:11:09Z</time>
      </trkpt>
      <trkpt lat="45.73208" lon="2.99659">
        <ele>991.6</ele>
        <time>2025-09-28T07:11:10Z</time>
      </trkpt>
      <trkpt lat="45.73211" lon="2.99656">
        <ele>991.8</ele>
        <time>2025-09-28T07:11:11Z</time>
      </trkpt>
      <trkpt lat="45.73214" lon="2.99653">
        <ele>991.8</ele>
        <time>2025-09-28T07:11:12Z</time>
      </trkpt>
      <trkpt lat="45.73217" lon="2.99651">
        <ele>992</ele>
        <time>2025-09-28T07:11:13Z</time>
      </trkpt>
      <trkpt lat="45.73219" lon="2.99648">
        <ele>992.2</ele>
        <time>2025-09-28T07:11:14Z</time>
      </trkpt>
      <trkpt lat="45.73222" lon="2.99644">
        <ele>992.4</ele>
        <time>2025-09-28T07:11:15Z</time>
      </trkpt>
      <trkpt lat="45.73226" lon="2.99642">
        <ele>992.6</ele>
        <time>2025-09-28T07:11:16Z</time>
      </trkpt>
      <trkpt lat="45.73229" lon="2.99639">
        <ele>992.8</ele>
        <time>2025-09-28T07:11:17Z</time>
      </trkpt>
      <trkpt lat="45.73233" lon="2.99636">
        <ele>993</ele>
        <time>2025-09-28T07:11:18Z</time>
      </trkpt>
      <trkpt lat="45.73237" lon="2.99633">
        <ele>993.2</ele>
        <time>2025-09-28T07:11:19Z</time>
      </trkpt>
      <trkpt lat="45.7324" lon="2.9963">
        <ele>993.4</ele>
        <time>2025-09-28T07:11:20Z</time>
      </trkpt>
      <trkpt lat="45.73243" lon="2.99626">
        <ele>993.4</ele>
        <time>2025-09-28T07:11:21Z</time>
      </trkpt>
      <trkpt lat="45.73246" lon="2.99623">
        <ele>993.6</ele>
        <time>2025-09-28T07:11:22Z</time>
      </trkpt>
      <trkpt lat="45.73248" lon="2.99621">
        <ele>993.8</ele>
        <time>2025-09-28T07:11:23Z</time>
      </trkpt>
      <trkpt lat="45.73251" lon="2.99618">
        <ele>994</ele>
        <time>2025-09-28T07:11:24Z</time>
      </trkpt>
      <trkpt lat="45.73253" lon="2.99615">
        <ele>994.2</ele>
        <time>2025-09-28T07:11:25Z</time>
      </trkpt>
      <trkpt lat="45.73255" lon="2.99612">
        <ele>994.2</ele>
        <time>2025-09-28T07:11:26Z</time>
      </trkpt>
      <trkpt lat="45.73258" lon="2.99609">
        <ele>994.4</ele>
        <time>2025-09-28T07:11:27Z</time>
      </trkpt>
      <trkpt lat="45.73259" lon="2.99606">
        <ele>994.6</ele>
        <time>2025-09-28T07:11:28Z</time>
      </trkpt>
      <trkpt lat="45.73261" lon="2.99602">
        <ele>994.8</ele>
        <time>2025-09-28T07:11:29Z</time>
      </trkpt>
      <trkpt lat="45.73263" lon="2.99599">
        <ele>994.8</ele>
        <time>2025-09-28T07:11:30Z</time>
      </trkpt>
      <trkpt lat="45.73264" lon="2.99596">
        <ele>995</ele>
        <time>2025-09-28T07:11:31Z</time>
      </trkpt>
      <trkpt lat="45.73266" lon="2.99593">
        <ele>995</ele>
        <time>2025-09-28T07:11:32Z</time>
      </trkpt>
      <trkpt lat="45.73269" lon="2.9959">
        <ele>995.2</ele>
        <time>2025-09-28T07:11:33Z</time>
      </trkpt>
      <trkpt lat="45.73271" lon="2.99586">
        <ele>995.4</ele>
        <time>2025-09-28T07:11:34Z</time>
      </trkpt>
      <trkpt lat="45.73274" lon="2.99582">
        <ele>995.4</ele>
        <time>2025-09-28T07:11:35Z</time>
      </trkpt>
      <trkpt lat="45.73276" lon="2.99579">
        <ele>995.6</ele>
        <time>2025-09-28T07:11:36Z</time>
      </trkpt>
      <trkpt lat="45.73279" lon="2.99575">
        <ele>995.6</ele>
        <time>2025-09-28T07:11:37Z</time>
      </trkpt>
      <trkpt lat="45.73282" lon="2.99571">
        <ele>995.6</ele>
        <time>2025-09-28T07:11:38Z</time>
      </trkpt>
      <trkpt lat="45.73284" lon="2.99567">
        <ele>995.8</ele>
        <time>2025-09-28T07:11:39Z</time>
      </trkpt>
      <trkpt lat="45.73287" lon="2.99563">
        <ele>995.8</ele>
        <time>2025-09-28T07:11:40Z</time>
      </trkpt>
      <trkpt lat="45.7329" lon="2.9956">
        <ele>996</ele>
        <time>2025-09-28T07:11:41Z</time>
      </trkpt>
      <trkpt lat="45.73293" lon="2.99556">
        <ele>996</ele>
        <time>2025-09-28T07:11:42Z</time>
      </trkpt>
      <trkpt lat="45.73295" lon="2.99552">
        <ele>996.2</ele>
        <time>2025-09-28T07:11:43Z</time>
      </trkpt>
      <trkpt lat="45.73297" lon="2.99548">
        <ele>996.2</ele>
        <time>2025-09-28T07:11:44Z</time>
      </trkpt>
      <trkpt lat="45.733" lon="2.99544">
        <ele>996.2</ele>
        <time>2025-09-28T07:11:45Z</time>
      </trkpt>
      <trkpt lat="45.73301" lon="2.9954">
        <ele>996.2</ele>
        <time>2025-09-28T07:11:46Z</time>
      </trkpt>
      <trkpt lat="45.73302" lon="2.99536">
        <ele>996.4</ele>
        <time>2025-09-28T07:11:47Z</time>
      </trkpt>
      <trkpt lat="45.73302" lon="2.99532">
        <ele>996.2</ele>
        <time>2025-09-28T07:11:48Z</time>
      </trkpt>
      <trkpt lat="45.73302" lon="2.99528">
        <ele>996.2</ele>
        <time>2025-09-28T07:11:49Z</time>
      </trkpt>
      <trkpt lat="45.73301" lon="2.99524">
        <ele>996.2</ele>
        <time>2025-09-28T07:11:50Z</time>
      </trkpt>
      <trkpt lat="45.73301" lon="2.99522">
        <ele>996.2</ele>
        <time>2025-09-28T07:11:51Z</time>
      </trkpt>
      <trkpt lat="45.73299" lon="2.9952">
        <ele>996.2</ele>
        <time>2025-09-28T07:11:52Z</time>
      </trkpt>
      <trkpt lat="45.73298" lon="2.99517">
        <ele>996</ele>
        <time>2025-09-28T07:11:53Z</time>
      </trkpt>
      <trkpt lat="45.73296" lon="2.99515">
        <ele>996</ele>
        <time>2025-09-28T07:11:54Z</time>
      </trkpt>
      <trkpt lat="45.73294" lon="2.99511">
        <ele>995.8</ele>
        <time>2025-09-28T07:11:55Z</time>
      </trkpt>
      <trkpt lat="45.73291" lon="2.99508">
        <ele>995.8</ele>
        <time>2025-09-28T07:11:56Z</time>
      </trkpt>
      <trkpt lat="45.73288" lon="2.99503">
        <ele>995.8</ele>
        <time>2025-09-28T07:11:57Z</time>
      </trkpt>
      <trkpt lat="45.73285" lon="2.99499">
        <ele>995.6</ele>
        <time>2025-09-28T07:11:58Z</time>
      </trkpt>
      <trkpt lat="45.73281" lon="2.99493">
        <ele>995.4</ele>
        <time>2025-09-28T07:11:59Z</time>
      </trkpt>
      <trkpt lat="45.73278" lon="2.99488">
        <ele>995.4</ele>
        <time>2025-09-28T07:12:00Z</time>
      </trkpt>
      <trkpt lat="45.73275" lon="2.99482">
        <ele>995.2</ele>
        <time>2025-09-28T07:12:01Z</time>
      </trkpt>
      <trkpt lat="45.73272" lon="2.99476">
        <ele>995</ele>
        <time>2025-09-28T07:12:02Z</time>
      </trkpt>
      <trkpt lat="45.73269" lon="2.99471">
        <ele>994.6</ele>
        <time>2025-09-28T07:12:03Z</time>
      </trkpt>
      <trkpt lat="45.73266" lon="2.99465">
        <ele>994.4</ele>
        <time>2025-09-28T07:12:04Z</time>
      </trkpt>
      <trkpt lat="45.73263" lon="2.9946">
        <ele>994.4</ele>
        <time>2025-09-28T07:12:05Z</time>
      </trkpt>
      <trkpt lat="45.73262" lon="2.99457">
        <ele>994.2</ele>
        <time>2025-09-28T07:12:06Z</time>
      </trkpt>
      <trkpt lat="45.73261" lon="2.99456">
        <ele>994</ele>
        <time>2025-09-28T07:12:07Z</time>
      </trkpt>
      <trkpt lat="45.7326" lon="2.99455">
        <ele>994</ele>
        <time>2025-09-28T07:12:08Z</time>
      </trkpt>
      <trkpt lat="45.7326" lon="2.99452">
        <ele>993.8</ele>
        <time>2025-09-28T07:12:09Z</time>
      </trkpt>
      <trkpt lat="45.7326" lon="2.99448">
        <ele>993.6</ele>
        <time>2025-09-28T07:12:10Z</time>
      </trkpt>
      <trkpt lat="45.7326" lon="2.99445">
        <ele>993.4</ele>
        <time>2025-09-28T07:12:11Z</time>
      </trkpt>
      <trkpt lat="45.73261" lon="2.99441">
        <ele>993</ele>
        <time>2025-09-28T07:12:12Z</time>
      </trkpt>
      <trkpt lat="45.73262" lon="2.99437">
        <ele>992.8</ele>
        <time>2025-09-28T07:12:13Z</time>
      </trkpt>
      <trkpt lat="45.73265" lon="2.99433">
        <ele>992.6</ele>
        <time>2025-09-28T07:12:14Z</time>
      </trkpt>
      <trkpt lat="45.73267" lon="2.9943">
        <ele>992.4</ele>
        <time>2025-09-28T07:12:15Z</time>
      </trkpt>
      <trkpt lat="45.7327" lon="2.99427">
        <ele>992.2</ele>
        <time>2025-09-28T07:12:16Z</time>
      </trkpt>
      <trkpt lat="45.73272" lon="2.99424">
        <ele>992</ele>
        <time>2025-09-28T07:12:17Z</time>
      </trkpt>
      <trkpt lat="45.73274" lon="2.9942">
        <ele>991.8</ele>
        <time>2025-09-28T07:12:18Z</time>
      </trkpt>
      <trkpt lat="45.73276" lon="2.99415">
        <ele>991.6</ele>
        <time>2025-09-28T07:12:19Z</time>
      </trkpt>
      <trkpt lat="45.73277" lon="2.99409">
        <ele>991.4</ele>
        <time>2025-09-28T07:12:20Z</time>
      </trkpt>
      <trkpt lat="45.73279" lon="2.99403">
        <ele>991.2</ele>
        <time>2025-09-28T07:12:21Z</time>
      </trkpt>
      <trkpt lat="45.73282" lon="2.99398">
        <ele>991.2</ele>
        <time>2025-09-28T07:12:22Z</time>
      </trkpt>
      <trkpt lat="45.73286" lon="2.99391">
        <ele>991</ele>
        <time>2025-09-28T07:12:23Z</time>
      </trkpt>
      <trkpt lat="45.7329" lon="2.99383">
        <ele>991</ele>
        <time>2025-09-28T07:12:24Z</time>
      </trkpt>
      <trkpt lat="45.73293" lon="2.99374">
        <ele>991</ele>
        <time>2025-09-28T07:12:25Z</time>
      </trkpt>
      <trkpt lat="45.73297" lon="2.99365">
        <ele>991</ele>
        <time>2025-09-28T07:12:26Z</time>
      </trkpt>
      <trkpt lat="45.73301" lon="2.99355">
        <ele>991</ele>
        <time>2025-09-28T07:12:27Z</time>
      </trkpt>
      <trkpt lat="45.73305" lon="2.99346">
        <ele>991</ele>
        <time>2025-09-28T07:12:28Z</time>
      </trkpt>
      <trkpt lat="45.73309" lon="2.99337">
        <ele>991</ele>
        <time>2025-09-28T07:12:29Z</time>
      </trkpt>
      <trkpt lat="45.73313" lon="2.9933">
        <ele>991</ele>
        <time>2025-09-28T07:12:30Z</time>
      </trkpt>
      <trkpt lat="45.73317" lon="2.99322">
        <ele>991</ele>
        <time>2025-09-28T07:12:31Z</time>
      </trkpt>
      <trkpt lat="45.7332" lon="2.99314">
        <ele>991.2</ele>
        <time>2025-09-28T07:12:32Z</time>
      </trkpt>
      <trkpt lat="45.73324" lon="2.99307">
        <ele>991.2</ele>
        <time>2025-09-28T07:12:33Z</time>
      </trkpt>
      <trkpt lat="45.73328" lon="2.99299">
        <ele>991.4</ele>
        <time>2025-09-28T07:12:34Z</time>
      </trkpt>
      <trkpt lat="45.73331" lon="2.99292">
        <ele>991.4</ele>
        <time>2025-09-28T07:12:35Z</time>
      </trkpt>
      <trkpt lat="45.73335" lon="2.99284">
        <ele>991.6</ele>
        <time>2025-09-28T07:12:36Z</time>
      </trkpt>
      <trkpt lat="45.73338" lon="2.99278">
        <ele>991.8</ele>
        <time>2025-09-28T07:12:37Z</time>
      </trkpt>
      <trkpt lat="45.73341" lon="2.99271">
        <ele>992</ele>
        <time>2025-09-28T07:12:38Z</time>
      </trkpt>
      <trkpt lat="45.73343" lon="2.99264">
        <ele>992.2</ele>
        <time>2025-09-28T07:12:39Z</time>
      </trkpt>
      <trkpt lat="45.73346" lon="2.99258">
        <ele>992.2</ele>
        <time>2025-09-28T07:12:40Z</time>
      </trkpt>
      <trkpt lat="45.73349" lon="2.99252">
        <ele>992.4</ele>
        <time>2025-09-28T07:12:41Z</time>
      </trkpt>
      <trkpt lat="45.73352" lon="2.99245">
        <ele>992.6</ele>
        <time>2025-09-28T07:12:42Z</time>
      </trkpt>
      <trkpt lat="45.73355" lon="2.99239">
        <ele>992.8</ele>
        <time>2025-09-28T07:12:43Z</time>
      </trkpt>
      <trkpt lat="45.73357" lon="2.99234">
        <ele>992.8</ele>
        <time>2025-09-28T07:12:44Z</time>
      </trkpt>
      <trkpt lat="45.7336" lon="2.99227">
        <ele>993</ele>
        <time>2025-09-28T07:12:45Z</time>
      </trkpt>
      <trkpt lat="45.73363" lon="2.99221">
        <ele>993.2</ele>
        <time>2025-09-28T07:12:46Z</time>
      </trkpt>
      <trkpt lat="45.73365" lon="2.99215">
        <ele>993.2</ele>
        <time>2025-09-28T07:12:47Z</time>
      </trkpt>
      <trkpt lat="45.73365" lon="2.99209">
        <ele>993.4</ele>
        <time>2025-09-28T07:12:48Z</time>
      </trkpt>
      <trkpt lat="45.73365" lon="2.99202">
        <ele>993.6</ele>
        <time>2025-09-28T07:12:49Z</time>
      </trkpt>
      <trkpt lat="45.73365" lon="2.99195">
        <ele>993.6</ele>
        <time>2025-09-28T07:12:50Z</time>
      </trkpt>
      <trkpt lat="45.73367" lon="2.99188">
        <ele>993.6</ele>
        <time>2025-09-28T07:12:51Z</time>
      </trkpt>
      <trkpt lat="45.73368" lon="2.99181">
        <ele>993.8</ele>
        <time>2025-09-28T07:12:52Z</time>
      </trkpt>
      <trkpt lat="45.73369" lon="2.99175">
        <ele>993.8</ele>
        <time>2025-09-28T07:12:53Z</time>
      </trkpt>
      <trkpt lat="45.73371" lon="2.99169">
        <ele>994</ele>
        <time>2025-09-28T07:12:54Z</time>
      </trkpt>
      <trkpt lat="45.73374" lon="2.99165">
        <ele>994</ele>
        <time>2025-09-28T07:12:55Z</time>
      </trkpt>
      <trkpt lat="45.73377" lon="2.9916">
        <ele>994.2</ele>
        <time>2025-09-28T07:12:56Z</time>
      </trkpt>
      <trkpt lat="45.7338" lon="2.99156">
        <ele>994.2</ele>
        <time>2025-09-28T07:12:57Z</time>
      </trkpt>
      <trkpt lat="45.73382" lon="2.99151">
        <ele>994.2</ele>
        <time>2025-09-28T07:12:58Z</time>
      </trkpt>
      <trkpt lat="45.73383" lon="2.99146">
        <ele>994.4</ele>
        <time>2025-09-28T07:12:59Z</time>
      </trkpt>
      <trkpt lat="45.73385" lon="2.99141">
        <ele>994.4</ele>
        <time>2025-09-28T07:13:00Z</time>
      </trkpt>
      <trkpt lat="45.73387" lon="2.99136">
        <ele>994.6</ele>
        <time>2025-09-28T07:13:01Z</time>
      </trkpt>
      <trkpt lat="45.73388" lon="2.99131">
        <ele>994.6</ele>
        <time>2025-09-28T07:13:02Z</time>
      </trkpt>
      <trkpt lat="45.7339" lon="2.99127">
        <ele>994.6</ele>
        <time>2025-09-28T07:13:03Z</time>
      </trkpt>
      <trkpt lat="45.73392" lon="2.99122">
        <ele>994.8</ele>
        <time>2025-09-28T07:13:04Z</time>
      </trkpt>
      <trkpt lat="45.73394" lon="2.99117">
        <ele>994.8</ele>
        <time>2025-09-28T07:13:05Z</time>
      </trkpt>
      <trkpt lat="45.73395" lon="2.99112">
        <ele>994.8</ele>
        <time>2025-09-28T07:13:06Z</time>
      </trkpt>
      <trkpt lat="45.73397" lon="2.99107">
        <ele>995</ele>
        <time>2025-09-28T07:13:07Z</time>
      </trkpt>
      <trkpt lat="45.73398" lon="2.99102">
        <ele>995</ele>
        <time>2025-09-28T07:13:08Z</time>
      </trkpt>
      <trkpt lat="45.73397" lon="2.99097">
        <ele>995.2</ele>
        <time>2025-09-28T07:13:09Z</time>
      </trkpt>
      <trkpt lat="45.73396" lon="2.99092">
        <ele>995.2</ele>
        <time>2025-09-28T07:13:10Z</time>
      </trkpt>
      <trkpt lat="45.73396" lon="2.99087">
        <ele>995.2</ele>
        <time>2025-09-28T07:13:11Z</time>
      </trkpt>
      <trkpt lat="45.73397" lon="2.99082">
        <ele>995.4</ele>
        <time>2025-09-28T07:13:12Z</time>
      </trkpt>
      <trkpt lat="45.73399" lon="2.99077">
        <ele>995.4</ele>
        <time>2025-09-28T07:13:13Z</time>
      </trkpt>
      <trkpt lat="45.73399" lon="2.99072">
        <ele>995.6</ele>
        <time>2025-09-28T07:13:14Z</time>
      </trkpt>
      <trkpt lat="45.73399" lon="2.99066">
        <ele>995.6</ele>
        <time>2025-09-28T07:13:15Z</time>
      </trkpt>
      <trkpt lat="45.73399" lon="2.9906">
        <ele>995.8</ele>
        <time>2025-09-28T07:13:16Z</time>
      </trkpt>
      <trkpt lat="45.734" lon="2.99055">
        <ele>995.8</ele>
        <time>2025-09-28T07:13:17Z</time>
      </trkpt>
      <trkpt lat="45.73401" lon="2.9905">
        <ele>996</ele>
        <time>2025-09-28T07:13:18Z</time>
      </trkpt>
      <trkpt lat="45.73402" lon="2.99044">
        <ele>996</ele>
        <time>2025-09-28T07:13:19Z</time>
      </trkpt>
      <trkpt lat="45.73402" lon="2.99039">
        <ele>996.2</ele>
        <time>2025-09-28T07:13:20Z</time>
      </trkpt>
      <trkpt lat="45.73403" lon="2.99034">
        <ele>996.2</ele>
        <time>2025-09-28T07:13:21Z</time>
      </trkpt>
      <trkpt lat="45.73404" lon="2.99029">
        <ele>996.4</ele>
        <time>2025-09-28T07:13:22Z</time>
      </trkpt>
      <trkpt lat="45.73405" lon="2.99023">
        <ele>996.6</ele>
        <time>2025-09-28T07:13:23Z</time>
      </trkpt>
      <trkpt lat="45.73406" lon="2.99018">
        <ele>996.8</ele>
        <time>2025-09-28T07:13:24Z</time>
      </trkpt>
      <trkpt lat="45.73406" lon="2.99013">
        <ele>996.8</ele>
        <time>2025-09-28T07:13:25Z</time>
      </trkpt>
      <trkpt lat="45.73406" lon="2.99008">
        <ele>997</ele>
        <time>2025-09-28T07:13:26Z</time>
      </trkpt>
      <trkpt lat="45.73406" lon="2.99002">
        <ele>997</ele>
        <time>2025-09-28T07:13:27Z</time>
      </trkpt>
      <trkpt lat="45.73405" lon="2.98997">
        <ele>997.2</ele>
        <time>2025-09-28T07:13:28Z</time>
      </trkpt>
      <trkpt lat="45.73405" lon="2.9899">
        <ele>997.4</ele>
        <time>2025-09-28T07:13:29Z</time>
      </trkpt>
      <trkpt lat="45.73404" lon="2.98983">
        <ele>997.6</ele>
        <time>2025-09-28T07:13:30Z</time>
      </trkpt>
      <trkpt lat="45.73403" lon="2.98977">
        <ele>997.8</ele>
        <time>2025-09-28T07:13:31Z</time>
      </trkpt>
      <trkpt lat="45.73403" lon="2.98972">
        <ele>997.8</ele>
        <time>2025-09-28T07:13:32Z</time>
      </trkpt>
      <trkpt lat="45.73403" lon="2.98967">
        <ele>998</ele>
        <time>2025-09-28T07:13:33Z</time>
      </trkpt>
      <trkpt lat="45.73403" lon="2.98961">
        <ele>998.2</ele>
        <time>2025-09-28T07:13:34Z</time>
      </trkpt>
      <trkpt lat="45.73405" lon="2.98956">
        <ele>998.4</ele>
        <time>2025-09-28T07:13:35Z</time>
      </trkpt>
      <trkpt lat="45.73407" lon="2.98952">
        <ele>998.6</ele>
        <time>2025-09-28T07:13:36Z</time>
      </trkpt>
      <trkpt lat="45.7341" lon="2.98949">
        <ele>998.6</ele>
        <time>2025-09-28T07:13:37Z</time>
      </trkpt>
      <trkpt lat="45.73413" lon="2.98947">
        <ele>998.8</ele>
        <time>2025-09-28T07:13:38Z</time>
      </trkpt>
      <trkpt lat="45.73416" lon="2.98945">
        <ele>999</ele>
        <time>2025-09-28T07:13:39Z</time>
      </trkpt>
      <trkpt lat="45.73419" lon="2.98945">
        <ele>999.2</ele>
        <time>2025-09-28T07:13:40Z</time>
      </trkpt>
      <trkpt lat="45.73421" lon="2.98944">
        <ele>999.4</ele>
        <time>2025-09-28T07:13:41Z</time>
      </trkpt>
      <trkpt lat="45.73423" lon="2.98944">
        <ele>999.6</ele>
        <time>2025-09-28T07:13:42Z</time>
      </trkpt>
      <trkpt lat="45.73425" lon="2.98944">
        <ele>999.6</ele>
        <time>2025-09-28T07:13:43Z</time>
      </trkpt>
      <trkpt lat="45.73427" lon="2.98943">
        <ele>999.8</ele>
        <time>2025-09-28T07:13:44Z</time>
      </trkpt>
      <trkpt lat="45.7343" lon="2.98942">
        <ele>1000</ele>
        <time>2025-09-28T07:13:45Z</time>
      </trkpt>
      <trkpt lat="45.73432" lon="2.98942">
        <ele>1000.2</ele>
        <time>2025-09-28T07:13:46Z</time>
      </trkpt>
      <trkpt lat="45.73436" lon="2.98943">
        <ele>1000.4</ele>
        <time>2025-09-28T07:13:47Z</time>
      </trkpt>
      <trkpt lat="45.73439" lon="2.98946">
        <ele>1000.4</ele>
        <time>2025-09-28T07:13:48Z</time>
      </trkpt>
      <trkpt lat="45.73442" lon="2.98948">
        <ele>1000.6</ele>
        <time>2025-09-28T07:13:49Z</time>
      </trkpt>
      <trkpt lat="45.73444" lon="2.98949">
        <ele>1000.8</ele>
        <time>2025-09-28T07:13:50Z</time>
      </trkpt>
      <trkpt lat="45.73446" lon="2.98948">
        <ele>1001</ele>
        <time>2025-09-28T07:13:51Z</time>
      </trkpt>
      <trkpt lat="45.73447" lon="2.98946">
        <ele>1001.2</ele>
        <time>2025-09-28T07:13:52Z</time>
      </trkpt>
      <trkpt lat="45.73449" lon="2.98945">
        <ele>1001.2</ele>
        <time>2025-09-28T07:13:53Z</time>
      </trkpt>
      <trkpt lat="45.73451" lon="2.98944">
        <ele>1001.4</ele>
        <time>2025-09-28T07:13:54Z</time>
      </trkpt>
      <trkpt lat="45.73454" lon="2.98944">
        <ele>1001.6</ele>
        <time>2025-09-28T07:13:55Z</time>
      </trkpt>
      <trkpt lat="45.73457" lon="2.98944">
        <ele>1001.6</ele>
        <time>2025-09-28T07:13:56Z</time>
      </trkpt>
      <trkpt lat="45.7346" lon="2.98943">
        <ele>1001.8</ele>
        <time>2025-09-28T07:13:57Z</time>
      </trkpt>
      <trkpt lat="45.73463" lon="2.98942">
        <ele>1002</ele>
        <time>2025-09-28T07:13:58Z</time>
      </trkpt>
      <trkpt lat="45.73466" lon="2.9894">
        <ele>1002.2</ele>
        <time>2025-09-28T07:13:59Z</time>
      </trkpt>
      <trkpt lat="45.73469" lon="2.98941">
        <ele>1002.2</ele>
        <time>2025-09-28T07:14:00Z</time>
      </trkpt>
      <trkpt lat="45.73473" lon="2.98942">
        <ele>1002.4</ele>
        <time>2025-09-28T07:14:01Z</time>
      </trkpt>
      <trkpt lat="45.73477" lon="2.98943">
        <ele>1002.6</ele>
        <time>2025-09-28T07:14:02Z</time>
      </trkpt>
      <trkpt lat="45.7348" lon="2.98942">
        <ele>1002.8</ele>
        <time>2025-09-28T07:14:03Z</time>
      </trkpt>
      <trkpt lat="45.73482" lon="2.98942">
        <ele>1003</ele>
        <time>2025-09-28T07:14:04Z</time>
      </trkpt>
      <trkpt lat="45.73485" lon="2.98941">
        <ele>1003.2</ele>
        <time>2025-09-28T07:14:05Z</time>
      </trkpt>
      <trkpt lat="45.73489" lon="2.98939">
        <ele>1003.2</ele>
        <time>2025-09-28T07:14:06Z</time>
      </trkpt>
      <trkpt lat="45.73493" lon="2.98936">
        <ele>1003.4</ele>
        <time>2025-09-28T07:14:07Z</time>
      </trkpt>
      <trkpt lat="45.73496" lon="2.98932">
        <ele>1003.6</ele>
        <time>2025-09-28T07:14:08Z</time>
      </trkpt>
      <trkpt lat="45.735" lon="2.98928">
        <ele>1003.8</ele>
        <time>2025-09-28T07:14:09Z</time>
      </trkpt>
      <trkpt lat="45.73504" lon="2.98923">
        <ele>1004</ele>
        <time>2025-09-28T07:14:10Z</time>
      </trkpt>
      <trkpt lat="45.73507" lon="2.98917">
        <ele>1004.2</ele>
        <time>2025-09-28T07:14:11Z</time>
      </trkpt>
      <trkpt lat="45.7351" lon="2.98911">
        <ele>1004.2</ele>
        <time>2025-09-28T07:14:12Z</time>
      </trkpt>
      <trkpt lat="45.73512" lon="2.98906">
        <ele>1004.4</ele>
        <time>2025-09-28T07:14:13Z</time>
      </trkpt>
      <trkpt lat="45.73514" lon="2.98903">
        <ele>1004.6</ele>
        <time>2025-09-28T07:14:14Z</time>
      </trkpt>
      <trkpt lat="45.73516" lon="2.98902">
        <ele>1004.8</ele>
        <time>2025-09-28T07:14:15Z</time>
      </trkpt>
      <trkpt lat="45.73517" lon="2.98901">
        <ele>1004.8</ele>
        <time>2025-09-28T07:14:16Z</time>
      </trkpt>
      <trkpt lat="45.73517" lon="2.989">
        <ele>1005</ele>
        <time>2025-09-28T07:14:17Z</time>
      </trkpt>
      <trkpt lat="45.73517" lon="2.989">
        <ele>1005.2</ele>
        <time>2025-09-28T07:14:18Z</time>
      </trkpt>
      <trkpt lat="45.73518" lon="2.98899">
        <ele>1005.2</ele>
        <time>2025-09-28T07:14:19Z</time>
      </trkpt>
      <trkpt lat="45.73519" lon="2.98896">
        <ele>1005.4</ele>
        <time>2025-09-28T07:14:20Z</time>
      </trkpt>
      <trkpt lat="45.7352" lon="2.98893">
        <ele>1005.6</ele>
        <time>2025-09-28T07:14:21Z</time>
      </trkpt>
      <trkpt lat="45.73521" lon="2.9889">
        <ele>1005.6</ele>
        <time>2025-09-28T07:14:22Z</time>
      </trkpt>
      <trkpt lat="45.73522" lon="2.98887">
        <ele>1005.8</ele>
        <time>2025-09-28T07:14:23Z</time>
      </trkpt>
      <trkpt lat="45.73523" lon="2.98884">
        <ele>1006</ele>
        <time>2025-09-28T07:14:24Z</time>
      </trkpt>
      <trkpt lat="45.73525" lon="2.98881">
        <ele>1006</ele>
        <time>2025-09-28T07:14:25Z</time>
      </trkpt>
      <trkpt lat="45.73527" lon="2.98878">
        <ele>1006.2</ele>
        <time>2025-09-28T07:14:26Z</time>
      </trkpt>
      <trkpt lat="45.73528" lon="2.98874">
        <ele>1006.2</ele>
        <time>2025-09-28T07:14:27Z</time>
      </trkpt>
      <trkpt lat="45.73529" lon="2.98869">
        <ele>1006.4</ele>
        <time>2025-09-28T07:14:28Z</time>
      </trkpt>
      <trkpt lat="45.73532" lon="2.98862">
        <ele>1006.4</ele>
        <time>2025-09-28T07:14:29Z</time>
      </trkpt>
      <trkpt lat="45.73534" lon="2.98856">
        <ele>1006.6</ele>
        <time>2025-09-28T07:14:30Z</time>
      </trkpt>
      <trkpt lat="45.73537" lon="2.98851">
        <ele>1006.6</ele>
        <time>2025-09-28T07:14:31Z</time>
      </trkpt>
      <trkpt lat="45.7354" lon="2.98847">
        <ele>1006.8</ele>
        <time>2025-09-28T07:14:32Z</time>
      </trkpt>
      <trkpt lat="45.73542" lon="2.98843">
        <ele>1006.8</ele>
        <time>2025-09-28T07:14:33Z</time>
      </trkpt>
      <trkpt lat="45.73545" lon="2.98838">
        <ele>1007</ele>
        <time>2025-09-28T07:14:34Z</time>
      </trkpt>
      <trkpt lat="45.73549" lon="2.98833">
        <ele>1007</ele>
        <time>2025-09-28T07:14:35Z</time>
      </trkpt>
      <trkpt lat="45.7355" lon="2.98826">
        <ele>1007</ele>
        <time>2025-09-28T07:14:36Z</time>
      </trkpt>
      <trkpt lat="45.73552" lon="2.9882">
        <ele>1007.2</ele>
        <time>2025-09-28T07:14:37Z</time>
      </trkpt>
      <trkpt lat="45.73555" lon="2.98814">
        <ele>1007.2</ele>
        <time>2025-09-28T07:14:38Z</time>
      </trkpt>
      <trkpt lat="45.73556" lon="2.9881">
        <ele>1007.2</ele>
        <time>2025-09-28T07:14:39Z</time>
      </trkpt>
      <trkpt lat="45.73557" lon="2.98804">
        <ele>1007.4</ele>
        <time>2025-09-28T07:14:40Z</time>
      </trkpt>
      <trkpt lat="45.73558" lon="2.98798">
        <ele>1007.4</ele>
        <time>2025-09-28T07:14:41Z</time>
      </trkpt>
      <trkpt lat="45.7356" lon="2.98792">
        <ele>1007.4</ele>
        <time>2025-09-28T07:14:42Z</time>
      </trkpt>
      <trkpt lat="45.73563" lon="2.98785">
        <ele>1007.6</ele>
        <time>2025-09-28T07:14:43Z</time>
      </trkpt>
      <trkpt lat="45.73565" lon="2.98778">
        <ele>1007.6</ele>
        <time>2025-09-28T07:14:44Z</time>
      </trkpt>
      <trkpt lat="45.73567" lon="2.98773">
        <ele>1007.8</ele>
        <time>2025-09-28T07:14:45Z</time>
      </trkpt>
      <trkpt lat="45.73568" lon="2.98768">
        <ele>1007.8</ele>
        <time>2025-09-28T07:14:46Z</time>
      </trkpt>
      <trkpt lat="45.73569" lon="2.98763">
        <ele>1008</ele>
        <time>2025-09-28T07:14:47Z</time>
      </trkpt>
      <trkpt lat="45.7357" lon="2.98758">
        <ele>1008</ele>
        <time>2025-09-28T07:14:48Z</time>
      </trkpt>
      <trkpt lat="45.73571" lon="2.98755">
        <ele>1008.2</ele>
        <time>2025-09-28T07:14:49Z</time>
      </trkpt>
      <trkpt lat="45.73572" lon="2.98752">
        <ele>1008.2</ele>
        <time>2025-09-28T07:14:50Z</time>
      </trkpt>
      <trkpt lat="45.73573" lon="2.98748">
        <ele>1008.4</ele>
        <time>2025-09-28T07:14:51Z</time>
      </trkpt>
      <trkpt lat="45.73574" lon="2.98745">
        <ele>1008.4</ele>
        <time>2025-09-28T07:14:52Z</time>
      </trkpt>
      <trkpt lat="45.73575" lon="2.98741">
        <ele>1008.4</ele>
        <time>2025-09-28T07:14:53Z</time>
      </trkpt>
      <trkpt lat="45.73577" lon="2.98737">
        <ele>1008.6</ele>
        <time>2025-09-28T07:14:54Z</time>
      </trkpt>
      <trkpt lat="45.7358" lon="2.98732">
        <ele>1008.6</ele>
        <time>2025-09-28T07:14:55Z</time>
      </trkpt>
      <trkpt lat="45.73582" lon="2.98725">
        <ele>1008.6</ele>
        <time>2025-09-28T07:14:56Z</time>
      </trkpt>
      <trkpt lat="45.73584" lon="2.98718">
        <ele>1008.6</ele>
        <time>2025-09-28T07:14:57Z</time>
      </trkpt>
      <trkpt lat="45.73587" lon="2.9871">
        <ele>1008.6</ele>
        <time>2025-09-28T07:14:58Z</time>
      </trkpt>
      <trkpt lat="45.73589" lon="2.987">
        <ele>1008.6</ele>
        <time>2025-09-28T07:14:59Z</time>
      </trkpt>
      <trkpt lat="45.73591" lon="2.98691">
        <ele>1008.6</ele>
        <time>2025-09-28T07:15:00Z</time>
      </trkpt>
      <trkpt lat="45.73592" lon="2.98686">
        <ele>1008.8</ele>
        <time>2025-09-28T07:15:01Z</time>
      </trkpt>
      <trkpt lat="45.73595" lon="2.9868">
        <ele>1008.8</ele>
        <time>2025-09-28T07:15:02Z</time>
      </trkpt>
      <trkpt lat="45.73597" lon="2.98672">
        <ele>1008.8</ele>
        <time>2025-09-28T07:15:03Z</time>
      </trkpt>
      <trkpt lat="45.736" lon="2.98666">
        <ele>1008.8</ele>
        <time>2025-09-28T07:15:04Z</time>
      </trkpt>
      <trkpt lat="45.73603" lon="2.98661">
        <ele>1009</ele>
        <time>2025-09-28T07:15:05Z</time>
      </trkpt>
      <trkpt lat="45.73605" lon="2.98656">
        <ele>1009</ele>
        <time>2025-09-28T07:15:06Z</time>
      </trkpt>
      <trkpt lat="45.73606" lon="2.9865">
        <ele>1009</ele>
        <time>2025-09-28T07:15:07Z</time>
      </trkpt>
      <trkpt lat="45.73608" lon="2.98646">
        <ele>1009</ele>
        <time>2025-09-28T07:15:08Z</time>
      </trkpt>
      <trkpt lat="45.7361" lon="2.98641">
        <ele>1009.2</ele>
        <time>2025-09-28T07:15:09Z</time>
      </trkpt>
      <trkpt lat="45.73612" lon="2.98637">
        <ele>1009.2</ele>
        <time>2025-09-28T07:15:10Z</time>
      </trkpt>
      <trkpt lat="45.73614" lon="2.98633">
        <ele>1009.4</ele>
        <time>2025-09-28T07:15:11Z</time>
      </trkpt>
      <trkpt lat="45.73616" lon="2.9863">
        <ele>1009.4</ele>
        <time>2025-09-28T07:15:12Z</time>
      </trkpt>
      <trkpt lat="45.73618" lon="2.98626">
        <ele>1009.6</ele>
        <time>2025-09-28T07:15:13Z</time>
      </trkpt>
      <trkpt lat="45.73618" lon="2.98622">
        <ele>1009.8</ele>
        <time>2025-09-28T07:15:14Z</time>
      </trkpt>
      <trkpt lat="45.73618" lon="2.98617">
        <ele>1009.8</ele>
        <time>2025-09-28T07:15:15Z</time>
      </trkpt>
      <trkpt lat="45.73618" lon="2.98612">
        <ele>1010</ele>
        <time>2025-09-28T07:15:16Z</time>
      </trkpt>
      <trkpt lat="45.73617" lon="2.98606">
        <ele>1010</ele>
        <time>2025-09-28T07:15:17Z</time>
      </trkpt>
      <trkpt lat="45.73616" lon="2.986">
        <ele>1010</ele>
        <time>2025-09-28T07:15:18Z</time>
      </trkpt>
      <trkpt lat="45.73615" lon="2.98594">
        <ele>1010</ele>
        <time>2025-09-28T07:15:19Z</time>
      </trkpt>
      <trkpt lat="45.73612" lon="2.98588">
        <ele>1010</ele>
        <time>2025-09-28T07:15:20Z</time>
      </trkpt>
      <trkpt lat="45.73609" lon="2.98582">
        <ele>1010</ele>
        <time>2025-09-28T07:15:21Z</time>
      </trkpt>
      <trkpt lat="45.73606" lon="2.98577">
        <ele>1010</ele>
        <time>2025-09-28T07:15:22Z</time>
      </trkpt>
      <trkpt lat="45.73604" lon="2.9857">
        <ele>1010</ele>
        <time>2025-09-28T07:15:23Z</time>
      </trkpt>
      <trkpt lat="45.73601" lon="2.98563">
        <ele>1009.8</ele>
        <time>2025-09-28T07:15:24Z</time>
      </trkpt>
      <trkpt lat="45.73599" lon="2.98556">
        <ele>1009.8</ele>
        <time>2025-09-28T07:15:25Z</time>
      </trkpt>
      <trkpt lat="45.73597" lon="2.98549">
        <ele>1009.8</ele>
        <time>2025-09-28T07:15:26Z</time>
      </trkpt>
      <trkpt lat="45.73594" lon="2.98542">
        <ele>1009.6</ele>
        <time>2025-09-28T07:15:27Z</time>
      </trkpt>
      <trkpt lat="45.73592" lon="2.98535">
        <ele>1009.6</ele>
        <time>2025-09-28T07:15:28Z</time>
      </trkpt>
      <trkpt lat="45.7359" lon="2.98528">
        <ele>1009.4</ele>
        <time>2025-09-28T07:15:29Z</time>
      </trkpt>
      <trkpt lat="45.73588" lon="2.98521">
        <ele>1009.4</ele>
        <time>2025-09-28T07:15:30Z</time>
      </trkpt>
      <trkpt lat="45.73585" lon="2.98514">
        <ele>1009.4</ele>
        <time>2025-09-28T07:15:31Z</time>
      </trkpt>
      <trkpt lat="45.73583" lon="2.98507">
        <ele>1009.2</ele>
        <time>2025-09-28T07:15:32Z</time>
      </trkpt>
      <trkpt lat="45.73581" lon="2.985">
        <ele>1009.2</ele>
        <time>2025-09-28T07:15:33Z</time>
      </trkpt>
      <trkpt lat="45.73579" lon="2.98493">
        <ele>1009.2</ele>
        <time>2025-09-28T07:15:34Z</time>
      </trkpt>
      <trkpt lat="45.73577" lon="2.98487">
        <ele>1009</ele>
        <time>2025-09-28T07:15:35Z</time>
      </trkpt>
      <trkpt lat="45.73575" lon="2.98479">
        <ele>1009</ele>
        <time>2025-09-28T07:15:36Z</time>
      </trkpt>
      <trkpt lat="45.73573" lon="2.98472">
        <ele>1009</ele>
        <time>2025-09-28T07:15:37Z</time>
      </trkpt>
      <trkpt lat="45.73571" lon="2.98465">
        <ele>1009</ele>
        <time>2025-09-28T07:15:38Z</time>
      </trkpt>
      <trkpt lat="45.73569" lon="2.98458">
        <ele>1009</ele>
        <time>2025-09-28T07:15:39Z</time>
      </trkpt>
      <trkpt lat="45.73567" lon="2.98451">
        <ele>1009</ele>
        <time>2025-09-28T07:15:40Z</time>
      </trkpt>
      <trkpt lat="45.73565" lon="2.98444">
        <ele>1009</ele>
        <time>2025-09-28T07:15:41Z</time>
      </trkpt>
      <trkpt lat="45.73563" lon="2.98436">
        <ele>1009</ele>
        <time>2025-09-28T07:15:42Z</time>
      </trkpt>
      <trkpt lat="45.73561" lon="2.98429">
        <ele>1009</ele>
        <time>2025-09-28T07:15:43Z</time>
      </trkpt>
      <trkpt lat="45.7356" lon="2.98422">
        <ele>1009.2</ele>
        <time>2025-09-28T07:15:44Z</time>
      </trkpt>
      <trkpt lat="45.73558" lon="2.98415">
        <ele>1009.2</ele>
        <time>2025-09-28T07:15:45Z</time>
      </trkpt>
      <trkpt lat="45.73557" lon="2.98409">
        <ele>1009.2</ele>
        <time>2025-09-28T07:15:46Z</time>
      </trkpt>
      <trkpt lat="45.73555" lon="2.98402">
        <ele>1009.4</ele>
        <time>2025-09-28T07:15:47Z</time>
      </trkpt>
      <trkpt lat="45.73554" lon="2.98395">
        <ele>1009.4</ele>
        <time>2025-09-28T07:15:48Z</time>
      </trkpt>
      <trkpt lat="45.73552" lon="2.98389">
        <ele>1009.6</ele>
        <time>2025-09-28T07:15:49Z</time>
      </trkpt>
      <trkpt lat="45.7355" lon="2.98382">
        <ele>1009.6</ele>
        <time>2025-09-28T07:15:50Z</time>
      </trkpt>
      <trkpt lat="45.73548" lon="2.98375">
        <ele>1009.8</ele>
        <time>2025-09-28T07:15:51Z</time>
      </trkpt>
      <trkpt lat="45.73547" lon="2.98369">
        <ele>1009.8</ele>
        <time>2025-09-28T07:15:52Z</time>
      </trkpt>
      <trkpt lat="45.73545" lon="2.98362">
        <ele>1009.8</ele>
        <time>2025-09-28T07:15:53Z</time>
      </trkpt>
      <trkpt lat="45.73543" lon="2.98356">
        <ele>1010</ele>
        <time>2025-09-28T07:15:54Z</time>
      </trkpt>
      <trkpt lat="45.73541" lon="2.9835">
        <ele>1010</ele>
        <time>2025-09-28T07:15:55Z</time>
      </trkpt>
      <trkpt lat="45.73539" lon="2.98344">
        <ele>1010.2</ele>
        <time>2025-09-28T07:15:56Z</time>
      </trkpt>
      <trkpt lat="45.73538" lon="2.98337">
        <ele>1010.2</ele>
        <time>2025-09-28T07:15:57Z</time>
      </trkpt>
      <trkpt lat="45.73536" lon="2.9833">
        <ele>1010.2</ele>
        <time>2025-09-28T07:15:58Z</time>
      </trkpt>
      <trkpt lat="45.73534" lon="2.98324">
        <ele>1010.2</ele>
        <time>2025-09-28T07:15:59Z</time>
      </trkpt>
      <trkpt lat="45.73531" lon="2.98317">
        <ele>1010.2</ele>
        <time>2025-09-28T07:16:00Z</time>
      </trkpt>
      <trkpt lat="45.73529" lon="2.98311">
        <ele>1010.4</ele>
        <time>2025-09-28T07:16:01Z</time>
      </trkpt>
      <trkpt lat="45.73527" lon="2.98304">
        <ele>1010.4</ele>
        <time>2025-09-28T07:16:02Z</time>
      </trkpt>
      <trkpt lat="45.73526" lon="2.98298">
        <ele>1010.4</ele>
        <time>2025-09-28T07:16:03Z</time>
      </trkpt>
      <trkpt lat="45.73524" lon="2.98292">
        <ele>1010.6</ele>
        <time>2025-09-28T07:16:04Z</time>
      </trkpt>
      <trkpt lat="45.73522" lon="2.98286">
        <ele>1010.6</ele>
        <time>2025-09-28T07:16:05Z</time>
      </trkpt>
      <trkpt lat="45.73519" lon="2.98281">
        <ele>1010.6</ele>
        <time>2025-09-28T07:16:06Z</time>
      </trkpt>
      <trkpt lat="45.73518" lon="2.98275">
        <ele>1010.6</ele>
        <time>2025-09-28T07:16:07Z</time>
      </trkpt>
      <trkpt lat="45.73516" lon="2.98269">
        <ele>1010.8</ele>
        <time>2025-09-28T07:16:08Z</time>
      </trkpt>
      <trkpt lat="45.73514" lon="2.98263">
        <ele>1010.8</ele>
        <time>2025-09-28T07:16:09Z</time>
      </trkpt>
      <trkpt lat="45.73512" lon="2.98257">
        <ele>1010.8</ele>
        <time>2025-09-28T07:16:10Z</time>
      </trkpt>
      <trkpt lat="45.7351" lon="2.98251">
        <ele>1010.8</ele>
        <time>2025-09-28T07:16:11Z</time>
      </trkpt>
      <trkpt lat="45.73509" lon="2.98244">
        <ele>1011</ele>
        <time>2025-09-28T07:16:12Z</time>
      </trkpt>
      <trkpt lat="45.73508" lon="2.98237">
        <ele>1011</ele>
        <time>2025-09-28T07:16:13Z</time>
      </trkpt>
      <trkpt lat="45.73507" lon="2.98231">
        <ele>1011</ele>
        <time>2025-09-28T07:16:14Z</time>
      </trkpt>
      <trkpt lat="45.73505" lon="2.98224">
        <ele>1011</ele>
        <time>2025-09-28T07:16:15Z</time>
      </trkpt>
      <trkpt lat="45.73504" lon="2.98218">
        <ele>1011</ele>
        <time>2025-09-28T07:16:16Z</time>
      </trkpt>
      <trkpt lat="45.73502" lon="2.98211">
        <ele>1011.2</ele>
        <time>2025-09-28T07:16:17Z</time>
      </trkpt>
      <trkpt lat="45.735" lon="2.98205">
        <ele>1011.2</ele>
        <time>2025-09-28T07:16:18Z</time>
      </trkpt>
      <trkpt lat="45.73498" lon="2.98197">
        <ele>1011.2</ele>
        <time>2025-09-28T07:16:19Z</time>
      </trkpt>
      <trkpt lat="45.73496" lon="2.9819">
        <ele>1011.4</ele>
        <time>2025-09-28T07:16:20Z</time>
      </trkpt>
      <trkpt lat="45.73494" lon="2.98183">
        <ele>1011.4</ele>
        <time>2025-09-28T07:16:21Z</time>
      </trkpt>
      <trkpt lat="45.73493" lon="2.98176">
        <ele>1011.4</ele>
        <time>2025-09-28T07:16:22Z</time>
      </trkpt>
      <trkpt lat="45.7349" lon="2.98169">
        <ele>1011.4</ele>
        <time>2025-09-28T07:16:23Z</time>
      </trkpt>
      <trkpt lat="45.73488" lon="2.98162">
        <ele>1011.4</ele>
        <time>2025-09-28T07:16:24Z</time>
      </trkpt>
      <trkpt lat="45.73486" lon="2.98155">
        <ele>1011.4</ele>
        <time>2025-09-28T07:16:25Z</time>
      </trkpt>
      <trkpt lat="45.73485" lon="2.98149">
        <ele>1011.4</ele>
        <time>2025-09-28T07:16:26Z</time>
      </trkpt>
      <trkpt lat="45.73482" lon="2.98143">
        <ele>1011.6</ele>
        <time>2025-09-28T07:16:27Z</time>
      </trkpt>
      <trkpt lat="45.7348" lon="2.98136">
        <ele>1011.6</ele>
        <time>2025-09-28T07:16:28Z</time>
      </trkpt>
      <trkpt lat="45.73477" lon="2.98129">
        <ele>1011.6</ele>
        <time>2025-09-28T07:16:29Z</time>
      </trkpt>
      <trkpt lat="45.73475" lon="2.98123">
        <ele>1011.6</ele>
        <time>2025-09-28T07:16:30Z</time>
      </trkpt>
      <trkpt lat="45.73473" lon="2.98116">
        <ele>1011.6</ele>
        <time>2025-09-28T07:16:31Z</time>
      </trkpt>
      <trkpt lat="45.73471" lon="2.9811">
        <ele>1011.6</ele>
        <time>2025-09-28T07:16:32Z</time>
      </trkpt>
      <trkpt lat="45.73468" lon="2.98103">
        <ele>1011.6</ele>
        <time>2025-09-28T07:16:33Z</time>
      </trkpt>
      <trkpt lat="45.73465" lon="2.98098">
        <ele>1011.6</ele>
        <time>2025-09-28T07:16:34Z</time>
      </trkpt>
      <trkpt lat="45.73462" lon="2.98093">
        <ele>1011.4</ele>
        <time>2025-09-28T07:16:35Z</time>
      </trkpt>
      <trkpt lat="45.7346" lon="2.98087">
        <ele>1011.4</ele>
        <time>2025-09-28T07:16:36Z</time>
      </trkpt>
      <trkpt lat="45.73458" lon="2.98079">
        <ele>1011.4</ele>
        <time>2025-09-28T07:16:37Z</time>
      </trkpt>
      <trkpt lat="45.73456" lon="2.9807">
        <ele>1011.4</ele>
        <time>2025-09-28T07:16:38Z</time>
      </trkpt>
      <trkpt lat="45.73455" lon="2.98061">
        <ele>1011.2</ele>
        <time>2025-09-28T07:16:39Z</time>
      </trkpt>
      <trkpt lat="45.73453" lon="2.98053">
        <ele>1011.2</ele>
        <time>2025-09-28T07:16:40Z</time>
      </trkpt>
      <trkpt lat="45.73451" lon="2.98048">
        <ele>1011</ele>
        <time>2025-09-28T07:16:41Z</time>
      </trkpt>
      <trkpt lat="45.73449" lon="2.98043">
        <ele>1011</ele>
        <time>2025-09-28T07:16:42Z</time>
      </trkpt>
      <trkpt lat="45.73448" lon="2.98037">
        <ele>1010.8</ele>
        <time>2025-09-28T07:16:43Z</time>
      </trkpt>
      <trkpt lat="45.73446" lon="2.98029">
        <ele>1010.8</ele>
        <time>2025-09-28T07:16:44Z</time>
      </trkpt>
      <trkpt lat="45.73444" lon="2.98021">
        <ele>1010.6</ele>
        <time>2025-09-28T07:16:45Z</time>
      </trkpt>
      <trkpt lat="45.73443" lon="2.98013">
        <ele>1010.6</ele>
        <time>2025-09-28T07:16:46Z</time>
      </trkpt>
      <trkpt lat="45.73441" lon="2.98006">
        <ele>1010.4</ele>
        <time>2025-09-28T07:16:47Z</time>
      </trkpt>
      <trkpt lat="45.73439" lon="2.97998">
        <ele>1010.2</ele>
        <time>2025-09-28T07:16:48Z</time>
      </trkpt>
      <trkpt lat="45.73437" lon="2.9799">
        <ele>1010.2</ele>
        <time>2025-09-28T07:16:49Z</time>
      </trkpt>
      <trkpt lat="45.73435" lon="2.97983">
        <ele>1010</ele>
        <time>2025-09-28T07:16:50Z</time>
      </trkpt>
      <trkpt lat="45.73434" lon="2.97975">
        <ele>1009.8</ele>
        <time>2025-09-28T07:16:51Z</time>
      </trkpt>
      <trkpt lat="45.73432" lon="2.97968">
        <ele>1009.6</ele>
        <time>2025-09-28T07:16:52Z</time>
      </trkpt>
      <trkpt lat="45.7343" lon="2.97961">
        <ele>1009.6</ele>
        <time>2025-09-28T07:16:53Z</time>
      </trkpt>
      <trkpt lat="45.73429" lon="2.97954">
        <ele>1009.4</ele>
        <time>2025-09-28T07:16:54Z</time>
      </trkpt>
      <trkpt lat="45.73428" lon="2.97948">
        <ele>1009.4</ele>
        <time>2025-09-28T07:16:55Z</time>
      </trkpt>
      <trkpt lat="45.73426" lon="2.97941">
        <ele>1009.2</ele>
        <time>2025-09-28T07:16:56Z</time>
      </trkpt>
      <trkpt lat="45.73425" lon="2.97934">
        <ele>1009.2</ele>
        <time>2025-09-28T07:16:57Z</time>
      </trkpt>
      <trkpt lat="45.73423" lon="2.97927">
        <ele>1009</ele>
        <time>2025-09-28T07:16:58Z</time>
      </trkpt>
      <trkpt lat="45.7342" lon="2.9792">
        <ele>1009</ele>
        <time>2025-09-28T07:16:59Z</time>
      </trkpt>
      <trkpt lat="45.73418" lon="2.97912">
        <ele>1008.8</ele>
        <time>2025-09-28T07:17:00Z</time>
      </trkpt>
      <trkpt lat="45.73417" lon="2.97906">
        <ele>1008.8</ele>
        <time>2025-09-28T07:17:01Z</time>
      </trkpt>
      <trkpt lat="45.73416" lon="2.97899">
        <ele>1008.8</ele>
        <time>2025-09-28T07:17:02Z</time>
      </trkpt>
      <trkpt lat="45.73414" lon="2.97892">
        <ele>1008.6</ele>
        <time>2025-09-28T07:17:03Z</time>
      </trkpt>
      <trkpt lat="45.73413" lon="2.97886">
        <ele>1008.6</ele>
        <time>2025-09-28T07:17:04Z</time>
      </trkpt>
      <trkpt lat="45.73412" lon="2.9788">
        <ele>1008.6</ele>
        <time>2025-09-28T07:17:05Z</time>
      </trkpt>
      <trkpt lat="45.73411" lon="2.97874">
        <ele>1008.4</ele>
        <time>2025-09-28T07:17:06Z</time>
      </trkpt>
      <trkpt lat="45.7341" lon="2.97868">
        <ele>1008.4</ele>
        <time>2025-09-28T07:17:07Z</time>
      </trkpt>
      <trkpt lat="45.73409" lon="2.97862">
        <ele>1008.4</ele>
        <time>2025-09-28T07:17:08Z</time>
      </trkpt>
      <trkpt lat="45.73408" lon="2.97855">
        <ele>1008.2</ele>
        <time>2025-09-28T07:17:09Z</time>
      </trkpt>
      <trkpt lat="45.73407" lon="2.97848">
        <ele>1008.2</ele>
        <time>2025-09-28T07:17:10Z</time>
      </trkpt>
      <trkpt lat="45.73406" lon="2.97841">
        <ele>1008.2</ele>
        <time>2025-09-28T07:17:11Z</time>
      </trkpt>
      <trkpt lat="45.73405" lon="2.97833">
        <ele>1008.2</ele>
        <time>2025-09-28T07:17:12Z</time>
      </trkpt>
      <trkpt lat="45.73402" lon="2.97826">
        <ele>1008.2</ele>
        <time>2025-09-28T07:17:13Z</time>
      </trkpt>
      <trkpt lat="45.734" lon="2.97818">
        <ele>1008.2</ele>
        <time>2025-09-28T07:17:14Z</time>
      </trkpt>
      <trkpt lat="45.73398" lon="2.9781">
        <ele>1008.2</ele>
        <time>2025-09-28T07:17:15Z</time>
      </trkpt>
      <trkpt lat="45.73397" lon="2.97802">
        <ele>1008</ele>
        <time>2025-09-28T07:17:16Z</time>
      </trkpt>
      <trkpt lat="45.73396" lon="2.97795">
        <ele>1008</ele>
        <time>2025-09-28T07:17:17Z</time>
      </trkpt>
      <trkpt lat="45.73394" lon="2.97787">
        <ele>1008</ele>
        <time>2025-09-28T07:17:18Z</time>
      </trkpt>
      <trkpt lat="45.73393" lon="2.9778">
        <ele>1008</ele>
        <time>2025-09-28T07:17:19Z</time>
      </trkpt>
      <trkpt lat="45.73392" lon="2.97773">
        <ele>1008</ele>
        <time>2025-09-28T07:17:20Z</time>
      </trkpt>
      <trkpt lat="45.7339" lon="2.97766">
        <ele>1008</ele>
        <time>2025-09-28T07:17:21Z</time>
      </trkpt>
      <trkpt lat="45.73389" lon="2.97759">
        <ele>1008</ele>
        <time>2025-09-28T07:17:22Z</time>
      </trkpt>
      <trkpt lat="45.73387" lon="2.97752">
        <ele>1007.8</ele>
        <time>2025-09-28T07:17:23Z</time>
      </trkpt>
      <trkpt lat="45.73387" lon="2.97745">
        <ele>1007.8</ele>
        <time>2025-09-28T07:17:24Z</time>
      </trkpt>
      <trkpt lat="45.73386" lon="2.97738">
        <ele>1007.8</ele>
        <time>2025-09-28T07:17:25Z</time>
      </trkpt>
      <trkpt lat="45.73385" lon="2.97731">
        <ele>1007.6</ele>
        <time>2025-09-28T07:17:26Z</time>
      </trkpt>
      <trkpt lat="45.73385" lon="2.97724">
        <ele>1007.6</ele>
        <time>2025-09-28T07:17:27Z</time>
      </trkpt>
      <trkpt lat="45.73384" lon="2.97717">
        <ele>1007.6</ele>
        <time>2025-09-28T07:17:28Z</time>
      </trkpt>
      <trkpt lat="45.73383" lon="2.97711">
        <ele>1007.4</ele>
        <time>2025-09-28T07:17:29Z</time>
      </trkpt>
      <trkpt lat="45.73383" lon="2.97704">
        <ele>1007.4</ele>
        <time>2025-09-28T07:17:30Z</time>
      </trkpt>
      <trkpt lat="45.73382" lon="2.97696">
        <ele>1007.4</ele>
        <time>2025-09-28T07:17:31Z</time>
      </trkpt>
      <trkpt lat="45.73382" lon="2.97689">
        <ele>1007.4</ele>
        <time>2025-09-28T07:17:32Z</time>
      </trkpt>
      <trkpt lat="45.73383" lon="2.97682">
        <ele>1007.2</ele>
        <time>2025-09-28T07:17:33Z</time>
      </trkpt>
      <trkpt lat="45.73383" lon="2.97675">
        <ele>1007.2</ele>
        <time>2025-09-28T07:17:34Z</time>
      </trkpt>
      <trkpt lat="45.73383" lon="2.97669">
        <ele>1007.2</ele>
        <time>2025-09-28T07:17:35Z</time>
      </trkpt>
      <trkpt lat="45.73383" lon="2.97662">
        <ele>1007</ele>
        <time>2025-09-28T07:17:36Z</time>
      </trkpt>
      <trkpt lat="45.73382" lon="2.97655">
        <ele>1007</ele>
        <time>2025-09-28T07:17:37Z</time>
      </trkpt>
      <trkpt lat="45.73382" lon="2.97647">
        <ele>1006.8</ele>
        <time>2025-09-28T07:17:38Z</time>
      </trkpt>
      <trkpt lat="45.73382" lon="2.9764">
        <ele>1006.8</ele>
        <time>2025-09-28T07:17:39Z</time>
      </trkpt>
      <trkpt lat="45.73381" lon="2.97632">
        <ele>1006.6</ele>
        <time>2025-09-28T07:17:40Z</time>
      </trkpt>
      <trkpt lat="45.73381" lon="2.97624">
        <ele>1006.4</ele>
        <time>2025-09-28T07:17:41Z</time>
      </trkpt>
      <trkpt lat="45.73381" lon="2.97617">
        <ele>1006.4</ele>
        <time>2025-09-28T07:17:42Z</time>
      </trkpt>
      <trkpt lat="45.73381" lon="2.97611">
        <ele>1006.2</ele>
        <time>2025-09-28T07:17:43Z</time>
      </trkpt>
      <trkpt lat="45.7338" lon="2.97604">
        <ele>1006</ele>
        <time>2025-09-28T07:17:44Z</time>
      </trkpt>
      <trkpt lat="45.73379" lon="2.97597">
        <ele>1005.8</ele>
        <time>2025-09-28T07:17:45Z</time>
      </trkpt>
      <trkpt lat="45.73378" lon="2.97589">
        <ele>1005.8</ele>
        <time>2025-09-28T07:17:46Z</time>
      </trkpt>
      <trkpt lat="45.73378" lon="2.97582">
        <ele>1005.6</ele>
        <time>2025-09-28T07:17:47Z</time>
      </trkpt>
      <trkpt lat="45.73378" lon="2.97574">
        <ele>1005.4</ele>
        <time>2025-09-28T07:17:48Z</time>
      </trkpt>
      <trkpt lat="45.73377" lon="2.97567">
        <ele>1005.2</ele>
        <time>2025-09-28T07:17:49Z</time>
      </trkpt>
      <trkpt lat="45.73376" lon="2.9756">
        <ele>1005.2</ele>
        <time>2025-09-28T07:17:50Z</time>
      </trkpt>
      <trkpt lat="45.73375" lon="2.97553">
        <ele>1005</ele>
        <time>2025-09-28T07:17:51Z</time>
      </trkpt>
      <trkpt lat="45.73374" lon="2.97546">
        <ele>1004.8</ele>
        <time>2025-09-28T07:17:52Z</time>
      </trkpt>
      <trkpt lat="45.73373" lon="2.97539">
        <ele>1004.6</ele>
        <time>2025-09-28T07:17:53Z</time>
      </trkpt>
      <trkpt lat="45.73372" lon="2.97531">
        <ele>1004.4</ele>
        <time>2025-09-28T07:17:54Z</time>
      </trkpt>
      <trkpt lat="45.73371" lon="2.97524">
        <ele>1004.2</ele>
        <time>2025-09-28T07:17:55Z</time>
      </trkpt>
      <trkpt lat="45.73369" lon="2.97516">
        <ele>1003.8</ele>
        <time>2025-09-28T07:17:56Z</time>
      </trkpt>
      <trkpt lat="45.73368" lon="2.97509">
        <ele>1003.4</ele>
        <time>2025-09-28T07:17:57Z</time>
      </trkpt>
      <trkpt lat="45.73366" lon="2.97501">
        <ele>1003</ele>
        <time>2025-09-28T07:17:58Z</time>
      </trkpt>
      <trkpt lat="45.73364" lon="2.97493">
        <ele>1002.4</ele>
        <time>2025-09-28T07:17:59Z</time>
      </trkpt>
      <trkpt lat="45.73361" lon="2.97485">
        <ele>1002</ele>
        <time>2025-09-28T07:18:00Z</time>
      </trkpt>
      <trkpt lat="45.73359" lon="2.97478">
        <ele>1001.6</ele>
        <time>2025-09-28T07:18:01Z</time>
      </trkpt>
      <trkpt lat="45.73357" lon="2.9747">
        <ele>1001</ele>
        <time>2025-09-28T07:18:02Z</time>
      </trkpt>
      <trkpt lat="45.73354" lon="2.97462">
        <ele>1000.4</ele>
        <time>2025-09-28T07:18:03Z</time>
      </trkpt>
      <trkpt lat="45.7335" lon="2.97453">
        <ele>1000</ele>
        <time>2025-09-28T07:18:04Z</time>
      </trkpt>
      <trkpt lat="45.73346" lon="2.97445">
        <ele>999.4</ele>
        <time>2025-09-28T07:18:05Z</time>
      </trkpt>
      <trkpt lat="45.73341" lon="2.97436">
        <ele>998.6</ele>
        <time>2025-09-28T07:18:06Z</time>
      </trkpt>
      <trkpt lat="45.73337" lon="2.97427">
        <ele>998</ele>
        <time>2025-09-28T07:18:07Z</time>
      </trkpt>
      <trkpt lat="45.73332" lon="2.97417">
        <ele>997.2</ele>
        <time>2025-09-28T07:18:08Z</time>
      </trkpt>
      <trkpt lat="45.73327" lon="2.97406">
        <ele>996.4</ele>
        <time>2025-09-28T07:18:09Z</time>
      </trkpt>
      <trkpt lat="45.73321" lon="2.97395">
        <ele>995.6</ele>
        <time>2025-09-28T07:18:10Z</time>
      </trkpt>
      <trkpt lat="45.73316" lon="2.97383">
        <ele>994.8</ele>
        <time>2025-09-28T07:18:11Z</time>
      </trkpt>
      <trkpt lat="45.73312" lon="2.97372">
        <ele>994</ele>
        <time>2025-09-28T07:18:12Z</time>
      </trkpt>
      <trkpt lat="45.73307" lon="2.9736">
        <ele>993.4</ele>
        <time>2025-09-28T07:18:13Z</time>
      </trkpt>
      <trkpt lat="45.73304" lon="2.97348">
        <ele>992.8</ele>
        <time>2025-09-28T07:18:14Z</time>
      </trkpt>
      <trkpt lat="45.733" lon="2.97337">
        <ele>992</ele>
        <time>2025-09-28T07:18:15Z</time>
      </trkpt>
      <trkpt lat="45.73298" lon="2.97325">
        <ele>991.4</ele>
        <time>2025-09-28T07:18:16Z</time>
      </trkpt>
      <trkpt lat="45.73296" lon="2.97314">
        <ele>990.8</ele>
        <time>2025-09-28T07:18:17Z</time>
      </trkpt>
      <trkpt lat="45.73293" lon="2.97302">
        <ele>990.2</ele>
        <time>2025-09-28T07:18:18Z</time>
      </trkpt>
      <trkpt lat="45.73291" lon="2.97291">
        <ele>989.6</ele>
        <time>2025-09-28T07:18:19Z</time>
      </trkpt>
      <trkpt lat="45.73288" lon="2.9728">
        <ele>989</ele>
        <time>2025-09-28T07:18:20Z</time>
      </trkpt>
      <trkpt lat="45.73285" lon="2.97269">
        <ele>988.6</ele>
        <time>2025-09-28T07:18:21Z</time>
      </trkpt>
      <trkpt lat="45.73283" lon="2.97258">
        <ele>988.2</ele>
        <time>2025-09-28T07:18:22Z</time>
      </trkpt>
      <trkpt lat="45.7328" lon="2.97248">
        <ele>987.8</ele>
        <time>2025-09-28T07:18:23Z</time>
      </trkpt>
      <trkpt lat="45.73278" lon="2.97238">
        <ele>987.4</ele>
        <time>2025-09-28T07:18:24Z</time>
      </trkpt>
      <trkpt lat="45.73276" lon="2.97229">
        <ele>987.2</ele>
        <time>2025-09-28T07:18:25Z</time>
      </trkpt>
      <trkpt lat="45.73273" lon="2.97221">
        <ele>986.8</ele>
        <time>2025-09-28T07:18:26Z</time>
      </trkpt>
      <trkpt lat="45.73271" lon="2.97213">
        <ele>986.6</ele>
        <time>2025-09-28T07:18:27Z</time>
      </trkpt>
      <trkpt lat="45.73269" lon="2.97207">
        <ele>986.4</ele>
        <time>2025-09-28T07:18:28Z</time>
      </trkpt>
      <trkpt lat="45.73267" lon="2.972">
        <ele>986.4</ele>
        <time>2025-09-28T07:18:29Z</time>
      </trkpt>
      <trkpt lat="45.73265" lon="2.97193">
        <ele>986.2</ele>
        <time>2025-09-28T07:18:30Z</time>
      </trkpt>
      <trkpt lat="45.73263" lon="2.97186">
        <ele>986.2</ele>
        <time>2025-09-28T07:18:31Z</time>
      </trkpt>
      <trkpt lat="45.73261" lon="2.97179">
        <ele>986.2</ele>
        <time>2025-09-28T07:18:32Z</time>
      </trkpt>
      <trkpt lat="45.73258" lon="2.97172">
        <ele>986.2</ele>
        <time>2025-09-28T07:18:33Z</time>
      </trkpt>
      <trkpt lat="45.73256" lon="2.97166">
        <ele>986</ele>
        <time>2025-09-28T07:18:34Z</time>
      </trkpt>
      <trkpt lat="45.73254" lon="2.97159">
        <ele>986</ele>
        <time>2025-09-28T07:18:35Z</time>
      </trkpt>
      <trkpt lat="45.73251" lon="2.97154">
        <ele>986</ele>
        <time>2025-09-28T07:18:36Z</time>
      </trkpt>
      <trkpt lat="45.73248" lon="2.97148">
        <ele>986</ele>
        <time>2025-09-28T07:18:37Z</time>
      </trkpt>
      <trkpt lat="45.73245" lon="2.97143">
        <ele>986</ele>
        <time>2025-09-28T07:18:38Z</time>
      </trkpt>
      <trkpt lat="45.73242" lon="2.97138">
        <ele>986</ele>
        <time>2025-09-28T07:18:39Z</time>
      </trkpt>
      <trkpt lat="45.73238" lon="2.97135">
        <ele>985.8</ele>
        <time>2025-09-28T07:18:40Z</time>
      </trkpt>
      <trkpt lat="45.73234" lon="2.97132">
        <ele>985.8</ele>
        <time>2025-09-28T07:18:41Z</time>
      </trkpt>
      <trkpt lat="45.73229" lon="2.9713">
        <ele>985.8</ele>
        <time>2025-09-28T07:18:42Z</time>
      </trkpt>
      <trkpt lat="45.73224" lon="2.97129">
        <ele>985.8</ele>
        <time>2025-09-28T07:18:43Z</time>
      </trkpt>
      <trkpt lat="45.73219" lon="2.97127">
        <ele>985.8</ele>
        <time>2025-09-28T07:18:44Z</time>
      </trkpt>
      <trkpt lat="45.73213" lon="2.97125">
        <ele>985.6</ele>
        <time>2025-09-28T07:18:45Z</time>
      </trkpt>
      <trkpt lat="45.73207" lon="2.97122">
        <ele>985.6</ele>
        <time>2025-09-28T07:18:46Z</time>
      </trkpt>
      <trkpt lat="45.732" lon="2.97119">
        <ele>985.6</ele>
        <time>2025-09-28T07:18:47Z</time>
      </trkpt>
      <trkpt lat="45.73194" lon="2.97117">
        <ele>985.4</ele>
        <time>2025-09-28T07:18:48Z</time>
      </trkpt>
      <trkpt lat="45.73188" lon="2.97114">
        <ele>985.4</ele>
        <time>2025-09-28T07:18:49Z</time>
      </trkpt>
      <trkpt lat="45.73182" lon="2.97111">
        <ele>985.2</ele>
        <time>2025-09-28T07:18:50Z</time>
      </trkpt>
      <trkpt lat="45.73176" lon="2.97108">
        <ele>985.2</ele>
        <time>2025-09-28T07:18:51Z</time>
      </trkpt>
      <trkpt lat="45.73169" lon="2.97105">
        <ele>985</ele>
        <time>2025-09-28T07:18:52Z</time>
      </trkpt>
      <trkpt lat="45.73163" lon="2.97102">
        <ele>985</ele>
        <time>2025-09-28T07:18:53Z</time>
      </trkpt>
      <trkpt lat="45.73157" lon="2.97099">
        <ele>985</ele>
        <time>2025-09-28T07:18:54Z</time>
      </trkpt>
      <trkpt lat="45.73151" lon="2.97095">
        <ele>984.8</ele>
        <time>2025-09-28T07:18:55Z</time>
      </trkpt>
      <trkpt lat="45.73145" lon="2.97091">
        <ele>984.8</ele>
        <time>2025-09-28T07:18:56Z</time>
      </trkpt>
      <trkpt lat="45.73139" lon="2.97086">
        <ele>984.8</ele>
        <time>2025-09-28T07:18:57Z</time>
      </trkpt>
      <trkpt lat="45.73134" lon="2.97082">
        <ele>984.6</ele>
        <time>2025-09-28T07:18:58Z</time>
      </trkpt>
      <trkpt lat="45.73128" lon="2.97077">
        <ele>984.6</ele>
        <time>2025-09-28T07:18:59Z</time>
      </trkpt>
      <trkpt lat="45.73123" lon="2.97072">
        <ele>984.4</ele>
        <time>2025-09-28T07:19:00Z</time>
      </trkpt>
      <trkpt lat="45.73118" lon="2.97066">
        <ele>984.4</ele>
        <time>2025-09-28T07:19:01Z</time>
      </trkpt>
      <trkpt lat="45.73112" lon="2.97061">
        <ele>984.2</ele>
        <time>2025-09-28T07:19:02Z</time>
      </trkpt>
      <trkpt lat="45.73106" lon="2.97057">
        <ele>984.2</ele>
        <time>2025-09-28T07:19:03Z</time>
      </trkpt>
      <trkpt lat="45.731" lon="2.97053">
        <ele>984</ele>
        <time>2025-09-28T07:19:04Z</time>
      </trkpt>
      <trkpt lat="45.73094" lon="2.97049">
        <ele>983.8</ele>
        <time>2025-09-28T07:19:05Z</time>
      </trkpt>
      <trkpt lat="45.73088" lon="2.97045">
        <ele>983.8</ele>
        <time>2025-09-28T07:19:06Z</time>
      </trkpt>
      <trkpt lat="45.73082" lon="2.97041">
        <ele>983.6</ele>
        <time>2025-09-28T07:19:07Z</time>
      </trkpt>
      <trkpt lat="45.73076" lon="2.97037">
        <ele>983.4</ele>
        <time>2025-09-28T07:19:08Z</time>
      </trkpt>
      <trkpt lat="45.7307" lon="2.97034">
        <ele>983.2</ele>
        <time>2025-09-28T07:19:09Z</time>
      </trkpt>
      <trkpt lat="45.73063" lon="2.97031">
        <ele>983.2</ele>
        <time>2025-09-28T07:19:10Z</time>
      </trkpt>
      <trkpt lat="45.73057" lon="2.97029">
        <ele>983</ele>
        <time>2025-09-28T07:19:11Z</time>
      </trkpt>
      <trkpt lat="45.73051" lon="2.97027">
        <ele>983</ele>
        <time>2025-09-28T07:19:12Z</time>
      </trkpt>
      <trkpt lat="45.73045" lon="2.97026">
        <ele>983</ele>
        <time>2025-09-28T07:19:13Z</time>
      </trkpt>
      <trkpt lat="45.7304" lon="2.97024">
        <ele>982.8</ele>
        <time>2025-09-28T07:19:14Z</time>
      </trkpt>
      <trkpt lat="45.73034" lon="2.97023">
        <ele>982.8</ele>
        <time>2025-09-28T07:19:15Z</time>
      </trkpt>
      <trkpt lat="45.73028" lon="2.97022">
        <ele>982.6</ele>
        <time>2025-09-28T07:19:16Z</time>
      </trkpt>
      <trkpt lat="45.73022" lon="2.97022">
        <ele>982.6</ele>
        <time>2025-09-28T07:19:17Z</time>
      </trkpt>
      <trkpt lat="45.73017" lon="2.97022">
        <ele>982.6</ele>
        <time>2025-09-28T07:19:18Z</time>
      </trkpt>
      <trkpt lat="45.73012" lon="2.97023">
        <ele>982.6</ele>
        <time>2025-09-28T07:19:19Z</time>
      </trkpt>
      <trkpt lat="45.73007" lon="2.97026">
        <ele>982.6</ele>
        <time>2025-09-28T07:19:20Z</time>
      </trkpt>
      <trkpt lat="45.73002" lon="2.97028">
        <ele>982.6</ele>
        <time>2025-09-28T07:19:21Z</time>
      </trkpt>
      <trkpt lat="45.72997" lon="2.97032">
        <ele>982.6</ele>
        <time>2025-09-28T07:19:22Z</time>
      </trkpt>
      <trkpt lat="45.72992" lon="2.97037">
        <ele>982.6</ele>
        <time>2025-09-28T07:19:23Z</time>
      </trkpt>
      <trkpt lat="45.72988" lon="2.97041">
        <ele>982.6</ele>
        <time>2025-09-28T07:19:24Z</time>
      </trkpt>
      <trkpt lat="45.72985" lon="2.97045">
        <ele>982.6</ele>
        <time>2025-09-28T07:19:25Z</time>
      </trkpt>
      <trkpt lat="45.72981" lon="2.9705">
        <ele>982.8</ele>
        <time>2025-09-28T07:19:26Z</time>
      </trkpt>
      <trkpt lat="45.72977" lon="2.97054">
        <ele>982.8</ele>
        <time>2025-09-28T07:19:27Z</time>
      </trkpt>
      <trkpt lat="45.72973" lon="2.97059">
        <ele>982.8</ele>
        <time>2025-09-28T07:19:28Z</time>
      </trkpt>
      <trkpt lat="45.72969" lon="2.97063">
        <ele>983</ele>
        <time>2025-09-28T07:19:29Z</time>
      </trkpt>
      <trkpt lat="45.72965" lon="2.97068">
        <ele>983</ele>
        <time>2025-09-28T07:19:30Z</time>
      </trkpt>
      <trkpt lat="45.7296" lon="2.97072">
        <ele>983</ele>
        <time>2025-09-28T07:19:31Z</time>
      </trkpt>
      <trkpt lat="45.72955" lon="2.97076">
        <ele>983.2</ele>
        <time>2025-09-28T07:19:32Z</time>
      </trkpt>
      <trkpt lat="45.72951" lon="2.97079">
        <ele>983.2</ele>
        <time>2025-09-28T07:19:33Z</time>
      </trkpt>
      <trkpt lat="45.72946" lon="2.97082">
        <ele>983.2</ele>
        <time>2025-09-28T07:19:34Z</time>
      </trkpt>
      <trkpt lat="45.72942" lon="2.97085">
        <ele>983.2</ele>
        <time>2025-09-28T07:19:35Z</time>
      </trkpt>
      <trkpt lat="45.72937" lon="2.97088">
        <ele>983.2</ele>
        <time>2025-09-28T07:19:36Z</time>
      </trkpt>
      <trkpt lat="45.72933" lon="2.9709">
        <ele>983.2</ele>
        <time>2025-09-28T07:19:37Z</time>
      </trkpt>
      <trkpt lat="45.72928" lon="2.97091">
        <ele>983.2</ele>
        <time>2025-09-28T07:19:38Z</time>
      </trkpt>
      <trkpt lat="45.72922" lon="2.97092">
        <ele>983.2</ele>
        <time>2025-09-28T07:19:39Z</time>
      </trkpt>
      <trkpt lat="45.72917" lon="2.97091">
        <ele>983</ele>
        <time>2025-09-28T07:19:40Z</time>
      </trkpt>
      <trkpt lat="45.7291" lon="2.97091">
        <ele>982.8</ele>
        <time>2025-09-28T07:19:41Z</time>
      </trkpt>
      <trkpt lat="45.72904" lon="2.97091">
        <ele>982.6</ele>
        <time>2025-09-28T07:19:42Z</time>
      </trkpt>
      <trkpt lat="45.72898" lon="2.9709">
        <ele>982.6</ele>
        <time>2025-09-28T07:19:43Z</time>
      </trkpt>
      <trkpt lat="45.72892" lon="2.97089">
        <ele>982.4</ele>
        <time>2025-09-28T07:19:44Z</time>
      </trkpt>
      <trkpt lat="45.72886" lon="2.97088">
        <ele>982.2</ele>
        <time>2025-09-28T07:19:45Z</time>
      </trkpt>
      <trkpt lat="45.7288" lon="2.97086">
        <ele>982.2</ele>
        <time>2025-09-28T07:19:46Z</time>
      </trkpt>
      <trkpt lat="45.72874" lon="2.97085">
        <ele>982</ele>
        <time>2025-09-28T07:19:47Z</time>
      </trkpt>
      <trkpt lat="45.72868" lon="2.97083">
        <ele>981.8</ele>
        <time>2025-09-28T07:19:48Z</time>
      </trkpt>
      <trkpt lat="45.72862" lon="2.97083">
        <ele>981.8</ele>
        <time>2025-09-28T07:19:49Z</time>
      </trkpt>
      <trkpt lat="45.72856" lon="2.97082">
        <ele>981.6</ele>
        <time>2025-09-28T07:19:50Z</time>
      </trkpt>
      <trkpt lat="45.7285" lon="2.97082">
        <ele>981.6</ele>
        <time>2025-09-28T07:19:51Z</time>
      </trkpt>
      <trkpt lat="45.72844" lon="2.97082">
        <ele>981.4</ele>
        <time>2025-09-28T07:19:52Z</time>
      </trkpt>
      <trkpt lat="45.72838" lon="2.97081">
        <ele>981.2</ele>
        <time>2025-09-28T07:19:53Z</time>
      </trkpt>
      <trkpt lat="45.72832" lon="2.9708">
        <ele>981.2</ele>
        <time>2025-09-28T07:19:54Z</time>
      </trkpt>
      <trkpt lat="45.72825" lon="2.9708">
        <ele>981</ele>
        <time>2025-09-28T07:19:55Z</time>
      </trkpt>
      <trkpt lat="45.72818" lon="2.97079">
        <ele>981</ele>
        <time>2025-09-28T07:19:56Z</time>
      </trkpt>
      <trkpt lat="45.72811" lon="2.9708">
        <ele>980.8</ele>
        <time>2025-09-28T07:19:57Z</time>
      </trkpt>
      <trkpt lat="45.72805" lon="2.97082">
        <ele>980.8</ele>
        <time>2025-09-28T07:19:58Z</time>
      </trkpt>
      <trkpt lat="45.728" lon="2.97084">
        <ele>980.6</ele>
        <time>2025-09-28T07:19:59Z</time>
      </trkpt>
      <trkpt lat="45.72794" lon="2.97088">
        <ele>980.4</ele>
        <time>2025-09-28T07:20:00Z</time>
      </trkpt>
      <trkpt lat="45.72788" lon="2.97091">
        <ele>980.4</ele>
        <time>2025-09-28T07:20:01Z</time>
      </trkpt>
      <trkpt lat="45.72783" lon="2.97094">
        <ele>980.2</ele>
        <time>2025-09-28T07:20:02Z</time>
      </trkpt>
      <trkpt lat="45.72778" lon="2.97098">
        <ele>980</ele>
        <time>2025-09-28T07:20:03Z</time>
      </trkpt>
      <trkpt lat="45.72773" lon="2.97101">
        <ele>980</ele>
        <time>2025-09-28T07:20:04Z</time>
      </trkpt>
      <trkpt lat="45.72767" lon="2.97104">
        <ele>979.8</ele>
        <time>2025-09-28T07:20:05Z</time>
      </trkpt>
      <trkpt lat="45.72762" lon="2.97109">
        <ele>979.6</ele>
        <time>2025-09-28T07:20:06Z</time>
      </trkpt>
      <trkpt lat="45.72756" lon="2.97114">
        <ele>979.4</ele>
        <time>2025-09-28T07:20:07Z</time>
      </trkpt>
      <trkpt lat="45.7275" lon="2.97119">
        <ele>979.2</ele>
        <time>2025-09-28T07:20:08Z</time>
      </trkpt>
      <trkpt lat="45.72743" lon="2.97124">
        <ele>979.2</ele>
        <time>2025-09-28T07:20:09Z</time>
      </trkpt>
      <trkpt lat="45.72736" lon="2.97127">
        <ele>979</ele>
        <time>2025-09-28T07:20:10Z</time>
      </trkpt>
      <trkpt lat="45.72729" lon="2.9713">
        <ele>979</ele>
        <time>2025-09-28T07:20:11Z</time>
      </trkpt>
      <trkpt lat="45.72722" lon="2.97133">
        <ele>978.8</ele>
        <time>2025-09-28T07:20:12Z</time>
      </trkpt>
      <trkpt lat="45.72716" lon="2.97136">
        <ele>978.6</ele>
        <time>2025-09-28T07:20:13Z</time>
      </trkpt>
      <trkpt lat="45.72708" lon="2.97141">
        <ele>978.6</ele>
        <time>2025-09-28T07:20:14Z</time>
      </trkpt>
      <trkpt lat="45.72701" lon="2.97144">
        <ele>978.4</ele>
        <time>2025-09-28T07:20:15Z</time>
      </trkpt>
      <trkpt lat="45.72695" lon="2.97147">
        <ele>978.2</ele>
        <time>2025-09-28T07:20:16Z</time>
      </trkpt>
      <trkpt lat="45.7269" lon="2.97148">
        <ele>978.2</ele>
        <time>2025-09-28T07:20:17Z</time>
      </trkpt>
      <trkpt lat="45.72684" lon="2.9715">
        <ele>978</ele>
        <time>2025-09-28T07:20:18Z</time>
      </trkpt>
      <trkpt lat="45.72679" lon="2.97152">
        <ele>977.8</ele>
        <time>2025-09-28T07:20:19Z</time>
      </trkpt>
      <trkpt lat="45.72675" lon="2.97154">
        <ele>977.8</ele>
        <time>2025-09-28T07:20:20Z</time>
      </trkpt>
      <trkpt lat="45.7267" lon="2.97158">
        <ele>977.6</ele>
        <time>2025-09-28T07:20:21Z</time>
      </trkpt>
      <trkpt lat="45.72665" lon="2.97161">
        <ele>977.6</ele>
        <time>2025-09-28T07:20:22Z</time>
      </trkpt>
      <trkpt lat="45.7266" lon="2.97164">
        <ele>977.6</ele>
        <time>2025-09-28T07:20:23Z</time>
      </trkpt>
      <trkpt lat="45.72655" lon="2.97165">
        <ele>977.6</ele>
        <time>2025-09-28T07:20:24Z</time>
      </trkpt>
      <trkpt lat="45.7265" lon="2.97165">
        <ele>977.4</ele>
        <time>2025-09-28T07:20:25Z</time>
      </trkpt>
      <trkpt lat="45.72645" lon="2.97164">
        <ele>977.4</ele>
        <time>2025-09-28T07:20:26Z</time>
      </trkpt>
      <trkpt lat="45.7264" lon="2.97163">
        <ele>977.2</ele>
        <time>2025-09-28T07:20:27Z</time>
      </trkpt>
      <trkpt lat="45.72635" lon="2.97161">
        <ele>977.2</ele>
        <time>2025-09-28T07:20:28Z</time>
      </trkpt>
      <trkpt lat="45.72629" lon="2.9716">
        <ele>977.2</ele>
        <time>2025-09-28T07:20:29Z</time>
      </trkpt>
      <trkpt lat="45.72624" lon="2.9716">
        <ele>977</ele>
        <time>2025-09-28T07:20:30Z</time>
      </trkpt>
      <trkpt lat="45.72618" lon="2.9716">
        <ele>976.8</ele>
        <time>2025-09-28T07:20:31Z</time>
      </trkpt>
      <trkpt lat="45.72612" lon="2.97159">
        <ele>976.6</ele>
        <time>2025-09-28T07:20:32Z</time>
      </trkpt>
      <trkpt lat="45.72605" lon="2.97159">
        <ele>976.4</ele>
        <time>2025-09-28T07:20:33Z</time>
      </trkpt>
      <trkpt lat="45.72599" lon="2.97159">
        <ele>976.2</ele>
        <time>2025-09-28T07:20:34Z</time>
      </trkpt>
      <trkpt lat="45.72593" lon="2.9716">
        <ele>976</ele>
        <time>2025-09-28T07:20:35Z</time>
      </trkpt>
      <trkpt lat="45.72587" lon="2.9716">
        <ele>975.8</ele>
        <time>2025-09-28T07:20:36Z</time>
      </trkpt>
      <trkpt lat="45.7258" lon="2.97159">
        <ele>975.4</ele>
        <time>2025-09-28T07:20:37Z</time>
      </trkpt>
      <trkpt lat="45.72573" lon="2.97158">
        <ele>975.2</ele>
        <time>2025-09-28T07:20:38Z</time>
      </trkpt>
      <trkpt lat="45.72567" lon="2.97161">
        <ele>975</ele>
        <time>2025-09-28T07:20:39Z</time>
      </trkpt>
      <trkpt lat="45.72561" lon="2.97166">
        <ele>974.8</ele>
        <time>2025-09-28T07:20:40Z</time>
      </trkpt>
      <trkpt lat="45.72555" lon="2.97173">
        <ele>974.4</ele>
        <time>2025-09-28T07:20:41Z</time>
      </trkpt>
      <trkpt lat="45.72549" lon="2.9718">
        <ele>974.4</ele>
        <time>2025-09-28T07:20:42Z</time>
      </trkpt>
      <trkpt lat="45.72544" lon="2.97185">
        <ele>974.2</ele>
        <time>2025-09-28T07:20:43Z</time>
      </trkpt>
      <trkpt lat="45.72538" lon="2.97191">
        <ele>974</ele>
        <time>2025-09-28T07:20:44Z</time>
      </trkpt>
      <trkpt lat="45.72532" lon="2.97195">
        <ele>973.8</ele>
        <time>2025-09-28T07:20:45Z</time>
      </trkpt>
      <trkpt lat="45.72527" lon="2.97198">
        <ele>973.8</ele>
        <time>2025-09-28T07:20:46Z</time>
      </trkpt>
      <trkpt lat="45.72521" lon="2.97201">
        <ele>973.6</ele>
        <time>2025-09-28T07:20:47Z</time>
      </trkpt>
      <trkpt lat="45.72516" lon="2.97203">
        <ele>973.4</ele>
        <time>2025-09-28T07:20:48Z</time>
      </trkpt>
      <trkpt lat="45.72511" lon="2.97203">
        <ele>973.4</ele>
        <time>2025-09-28T07:20:49Z</time>
      </trkpt>
      <trkpt lat="45.72506" lon="2.97203">
        <ele>973.2</ele>
        <time>2025-09-28T07:20:50Z</time>
      </trkpt>
      <trkpt lat="45.725" lon="2.97202">
        <ele>973</ele>
        <time>2025-09-28T07:20:51Z</time>
      </trkpt>
      <trkpt lat="45.72495" lon="2.97203">
        <ele>972.8</ele>
        <time>2025-09-28T07:20:52Z</time>
      </trkpt>
      <trkpt lat="45.72489" lon="2.97203">
        <ele>972.8</ele>
        <time>2025-09-28T07:20:53Z</time>
      </trkpt>
      <trkpt lat="45.72483" lon="2.97203">
        <ele>972.6</ele>
        <time>2025-09-28T07:20:54Z</time>
      </trkpt>
      <trkpt lat="45.72477" lon="2.97204">
        <ele>972.6</ele>
        <time>2025-09-28T07:20:55Z</time>
      </trkpt>
      <trkpt lat="45.72471" lon="2.97205">
        <ele>972.4</ele>
        <time>2025-09-28T07:20:56Z</time>
      </trkpt>
      <trkpt lat="45.72465" lon="2.97205">
        <ele>972.4</ele>
        <time>2025-09-28T07:20:57Z</time>
      </trkpt>
      <trkpt lat="45.72458" lon="2.97205">
        <ele>972.2</ele>
        <time>2025-09-28T07:20:58Z</time>
      </trkpt>
      <trkpt lat="45.72452" lon="2.97206">
        <ele>972</ele>
        <time>2025-09-28T07:20:59Z</time>
      </trkpt>
      <trkpt lat="45.72445" lon="2.97206">
        <ele>971.8</ele>
        <time>2025-09-28T07:21:00Z</time>
      </trkpt>
      <trkpt lat="45.72439" lon="2.97205">
        <ele>971.8</ele>
        <time>2025-09-28T07:21:01Z</time>
      </trkpt>
      <trkpt lat="45.72434" lon="2.97204">
        <ele>971.6</ele>
        <time>2025-09-28T07:21:02Z</time>
      </trkpt>
      <trkpt lat="45.72428" lon="2.97203">
        <ele>971.6</ele>
        <time>2025-09-28T07:21:03Z</time>
      </trkpt>
      <trkpt lat="45.72422" lon="2.97201">
        <ele>971.4</ele>
        <time>2025-09-28T07:21:04Z</time>
      </trkpt>
      <trkpt lat="45.72416" lon="2.97199">
        <ele>971.2</ele>
        <time>2025-09-28T07:21:05Z</time>
      </trkpt>
      <trkpt lat="45.7241" lon="2.97197">
        <ele>971.2</ele>
        <time>2025-09-28T07:21:06Z</time>
      </trkpt>
      <trkpt lat="45.72403" lon="2.97195">
        <ele>971</ele>
        <time>2025-09-28T07:21:07Z</time>
      </trkpt>
      <trkpt lat="45.72397" lon="2.97194">
        <ele>970.8</ele>
        <time>2025-09-28T07:21:08Z</time>
      </trkpt>
      <trkpt lat="45.7239" lon="2.97192">
        <ele>970.8</ele>
        <time>2025-09-28T07:21:09Z</time>
      </trkpt>
      <trkpt lat="45.72384" lon="2.97189">
        <ele>970.6</ele>
        <time>2025-09-28T07:21:10Z</time>
      </trkpt>
      <trkpt lat="45.72378" lon="2.97185">
        <ele>970.6</ele>
        <time>2025-09-28T07:21:11Z</time>
      </trkpt>
      <trkpt lat="45.72372" lon="2.97181">
        <ele>970.4</ele>
        <time>2025-09-28T07:21:12Z</time>
      </trkpt>
      <trkpt lat="45.72367" lon="2.97178">
        <ele>970.2</ele>
        <time>2025-09-28T07:21:13Z</time>
      </trkpt>
      <trkpt lat="45.72361" lon="2.97175">
        <ele>970.2</ele>
        <time>2025-09-28T07:21:14Z</time>
      </trkpt>
      <trkpt lat="45.72354" lon="2.97173">
        <ele>970</ele>
        <time>2025-09-28T07:21:15Z</time>
      </trkpt>
      <trkpt lat="45.72347" lon="2.9717">
        <ele>969.8</ele>
        <time>2025-09-28T07:21:16Z</time>
      </trkpt>
      <trkpt lat="45.72339" lon="2.97168">
        <ele>969.6</ele>
        <time>2025-09-28T07:21:17Z</time>
      </trkpt>
      <trkpt lat="45.72332" lon="2.97168">
        <ele>969.4</ele>
        <time>2025-09-28T07:21:18Z</time>
      </trkpt>
      <trkpt lat="45.72325" lon="2.97167">
        <ele>969.2</ele>
        <time>2025-09-28T07:21:19Z</time>
      </trkpt>
      <trkpt lat="45.72317" lon="2.97165">
        <ele>968.8</ele>
        <time>2025-09-28T07:21:20Z</time>
      </trkpt>
      <trkpt lat="45.7231" lon="2.97163">
        <ele>968.6</ele>
        <time>2025-09-28T07:21:21Z</time>
      </trkpt>
      <trkpt lat="45.72303" lon="2.97161">
        <ele>968.2</ele>
        <time>2025-09-28T07:21:22Z</time>
      </trkpt>
      <trkpt lat="45.72297" lon="2.97159">
        <ele>967.8</ele>
        <time>2025-09-28T07:21:23Z</time>
      </trkpt>
      <trkpt lat="45.7229" lon="2.97158">
        <ele>967.6</ele>
        <time>2025-09-28T07:21:24Z</time>
      </trkpt>
      <trkpt lat="45.72283" lon="2.97157">
        <ele>967.4</ele>
        <time>2025-09-28T07:21:25Z</time>
      </trkpt>
      <trkpt lat="45.72276" lon="2.97157">
        <ele>967</ele>
        <time>2025-09-28T07:21:26Z</time>
      </trkpt>
      <trkpt lat="45.72268" lon="2.97155">
        <ele>966.6</ele>
        <time>2025-09-28T07:21:27Z</time>
      </trkpt>
      <trkpt lat="45.7226" lon="2.97151">
        <ele>966.2</ele>
        <time>2025-09-28T07:21:28Z</time>
      </trkpt>
      <trkpt lat="45.72253" lon="2.97147">
        <ele>966</ele>
        <time>2025-09-28T07:21:29Z</time>
      </trkpt>
      <trkpt lat="45.72245" lon="2.97144">
        <ele>965.6</ele>
        <time>2025-09-28T07:21:30Z</time>
      </trkpt>
      <trkpt lat="45.72238" lon="2.97141">
        <ele>965.2</ele>
        <time>2025-09-28T07:21:31Z</time>
      </trkpt>
      <trkpt lat="45.7223" lon="2.97138">
        <ele>964.8</ele>
        <time>2025-09-28T07:21:32Z</time>
      </trkpt>
      <trkpt lat="45.72223" lon="2.97136">
        <ele>964.4</ele>
        <time>2025-09-28T07:21:33Z</time>
      </trkpt>
      <trkpt lat="45.72215" lon="2.97134">
        <ele>964.2</ele>
        <time>2025-09-28T07:21:34Z</time>
      </trkpt>
      <trkpt lat="45.72207" lon="2.97133">
        <ele>963.8</ele>
        <time>2025-09-28T07:21:35Z</time>
      </trkpt>
      <trkpt lat="45.722" lon="2.97132">
        <ele>963.6</ele>
        <time>2025-09-28T07:21:36Z</time>
      </trkpt>
      <trkpt lat="45.72192" lon="2.97132">
        <ele>963.4</ele>
        <time>2025-09-28T07:21:37Z</time>
      </trkpt>
      <trkpt lat="45.72184" lon="2.97132">
        <ele>963.2</ele>
        <time>2025-09-28T07:21:38Z</time>
      </trkpt>
      <trkpt lat="45.72176" lon="2.97132">
        <ele>963</ele>
        <time>2025-09-28T07:21:39Z</time>
      </trkpt>
      <trkpt lat="45.72169" lon="2.97131">
        <ele>962.8</ele>
        <time>2025-09-28T07:21:40Z</time>
      </trkpt>
      <trkpt lat="45.72161" lon="2.97128">
        <ele>962.6</ele>
        <time>2025-09-28T07:21:41Z</time>
      </trkpt>
      <trkpt lat="45.72154" lon="2.97126">
        <ele>962.4</ele>
        <time>2025-09-28T07:21:42Z</time>
      </trkpt>
      <trkpt lat="45.72147" lon="2.97123">
        <ele>962</ele>
        <time>2025-09-28T07:21:43Z</time>
      </trkpt>
      <trkpt lat="45.7214" lon="2.9712">
        <ele>961.8</ele>
        <time>2025-09-28T07:21:44Z</time>
      </trkpt>
      <trkpt lat="45.72133" lon="2.97118">
        <ele>961.4</ele>
        <time>2025-09-28T07:21:45Z</time>
      </trkpt>
      <trkpt lat="45.72126" lon="2.97116">
        <ele>961.2</ele>
        <time>2025-09-28T07:21:46Z</time>
      </trkpt>
      <trkpt lat="45.72119" lon="2.97113">
        <ele>960.8</ele>
        <time>2025-09-28T07:21:47Z</time>
      </trkpt>
      <trkpt lat="45.72112" lon="2.97111">
        <ele>960.6</ele>
        <time>2025-09-28T07:21:48Z</time>
      </trkpt>
      <trkpt lat="45.72105" lon="2.97109">
        <ele>960.4</ele>
        <time>2025-09-28T07:21:49Z</time>
      </trkpt>
      <trkpt lat="45.72098" lon="2.97106">
        <ele>960</ele>
        <time>2025-09-28T07:21:50Z</time>
      </trkpt>
      <trkpt lat="45.72091" lon="2.97104">
        <ele>959.8</ele>
        <time>2025-09-28T07:21:51Z</time>
      </trkpt>
      <trkpt lat="45.72085" lon="2.97103">
        <ele>959.6</ele>
        <time>2025-09-28T07:21:52Z</time>
      </trkpt>
      <trkpt lat="45.72078" lon="2.97101">
        <ele>959.4</ele>
        <time>2025-09-28T07:21:53Z</time>
      </trkpt>
      <trkpt lat="45.72072" lon="2.971">
        <ele>959.4</ele>
        <time>2025-09-28T07:21:54Z</time>
      </trkpt>
      <trkpt lat="45.72065" lon="2.97098">
        <ele>959.2</ele>
        <time>2025-09-28T07:21:55Z</time>
      </trkpt>
      <trkpt lat="45.72059" lon="2.97096">
        <ele>959</ele>
        <time>2025-09-28T07:21:56Z</time>
      </trkpt>
      <trkpt lat="45.72052" lon="2.97093">
        <ele>958.8</ele>
        <time>2025-09-28T07:21:57Z</time>
      </trkpt>
      <trkpt lat="45.72046" lon="2.97091">
        <ele>958.4</ele>
        <time>2025-09-28T07:21:58Z</time>
      </trkpt>
      <trkpt lat="45.7204" lon="2.97089">
        <ele>958.4</ele>
        <time>2025-09-28T07:21:59Z</time>
      </trkpt>
      <trkpt lat="45.72034" lon="2.97087">
        <ele>958.2</ele>
        <time>2025-09-28T07:22:00Z</time>
      </trkpt>
      <trkpt lat="45.72028" lon="2.97086">
        <ele>957.8</ele>
        <time>2025-09-28T07:22:01Z</time>
      </trkpt>
      <trkpt lat="45.72022" lon="2.97084">
        <ele>957.6</ele>
        <time>2025-09-28T07:22:02Z</time>
      </trkpt>
      <trkpt lat="45.72016" lon="2.97082">
        <ele>957</ele>
        <time>2025-09-28T07:22:03Z</time>
      </trkpt>
      <trkpt lat="45.72011" lon="2.97079">
        <ele>956.8</ele>
        <time>2025-09-28T07:22:04Z</time>
      </trkpt>
      <trkpt lat="45.72004" lon="2.97075">
        <ele>956.4</ele>
        <time>2025-09-28T07:22:05Z</time>
      </trkpt>
      <trkpt lat="45.71998" lon="2.97071">
        <ele>956</ele>
        <time>2025-09-28T07:22:06Z</time>
      </trkpt>
      <trkpt lat="45.71992" lon="2.97067">
        <ele>955.6</ele>
        <time>2025-09-28T07:22:07Z</time>
      </trkpt>
      <trkpt lat="45.71986" lon="2.97062">
        <ele>955.2</ele>
        <time>2025-09-28T07:22:08Z</time>
      </trkpt>
      <trkpt lat="45.71979" lon="2.97058">
        <ele>954.8</ele>
        <time>2025-09-28T07:22:09Z</time>
      </trkpt>
      <trkpt lat="45.71971" lon="2.97055">
        <ele>954.4</ele>
        <time>2025-09-28T07:22:10Z</time>
      </trkpt>
      <trkpt lat="45.71964" lon="2.97053">
        <ele>954</ele>
        <time>2025-09-28T07:22:11Z</time>
      </trkpt>
      <trkpt lat="45.71958" lon="2.97051">
        <ele>953.6</ele>
        <time>2025-09-28T07:22:12Z</time>
      </trkpt>
      <trkpt lat="45.71951" lon="2.9705">
        <ele>953.4</ele>
        <time>2025-09-28T07:22:13Z</time>
      </trkpt>
      <trkpt lat="45.71944" lon="2.97048">
        <ele>953</ele>
        <time>2025-09-28T07:22:14Z</time>
      </trkpt>
      <trkpt lat="45.71936" lon="2.97046">
        <ele>952.8</ele>
        <time>2025-09-28T07:22:15Z</time>
      </trkpt>
      <trkpt lat="45.71929" lon="2.97044">
        <ele>952.6</ele>
        <time>2025-09-28T07:22:16Z</time>
      </trkpt>
      <trkpt lat="45.71923" lon="2.97043">
        <ele>952.4</ele>
        <time>2025-09-28T07:22:17Z</time>
      </trkpt>
      <trkpt lat="45.71916" lon="2.97041">
        <ele>952.2</ele>
        <time>2025-09-28T07:22:18Z</time>
      </trkpt>
      <trkpt lat="45.71909" lon="2.97039">
        <ele>952</ele>
        <time>2025-09-28T07:22:19Z</time>
      </trkpt>
      <trkpt lat="45.71901" lon="2.97036">
        <ele>951.8</ele>
        <time>2025-09-28T07:22:20Z</time>
      </trkpt>
      <trkpt lat="45.71894" lon="2.97033">
        <ele>951.8</ele>
        <time>2025-09-28T07:22:21Z</time>
      </trkpt>
      <trkpt lat="45.71887" lon="2.9703">
        <ele>951.6</ele>
        <time>2025-09-28T07:22:22Z</time>
      </trkpt>
      <trkpt lat="45.7188" lon="2.97026">
        <ele>951.4</ele>
        <time>2025-09-28T07:22:23Z</time>
      </trkpt>
      <trkpt lat="45.71873" lon="2.97021">
        <ele>951.2</ele>
        <time>2025-09-28T07:22:24Z</time>
      </trkpt>
      <trkpt lat="45.71865" lon="2.97016">
        <ele>951.2</ele>
        <time>2025-09-28T07:22:25Z</time>
      </trkpt>
      <trkpt lat="45.71858" lon="2.97015">
        <ele>951</ele>
        <time>2025-09-28T07:22:26Z</time>
      </trkpt>
      <trkpt lat="45.71851" lon="2.97016">
        <ele>951</ele>
        <time>2025-09-28T07:22:27Z</time>
      </trkpt>
      <trkpt lat="45.71844" lon="2.97016">
        <ele>950.8</ele>
        <time>2025-09-28T07:22:28Z</time>
      </trkpt>
      <trkpt lat="45.71838" lon="2.97017">
        <ele>950.8</ele>
        <time>2025-09-28T07:22:29Z</time>
      </trkpt>
      <trkpt lat="45.71831" lon="2.97016">
        <ele>950.8</ele>
        <time>2025-09-28T07:22:30Z</time>
      </trkpt>
      <trkpt lat="45.71825" lon="2.97015">
        <ele>950.6</ele>
        <time>2025-09-28T07:22:31Z</time>
      </trkpt>
      <trkpt lat="45.71818" lon="2.97014">
        <ele>950.6</ele>
        <time>2025-09-28T07:22:32Z</time>
      </trkpt>
      <trkpt lat="45.71812" lon="2.97013">
        <ele>950.4</ele>
        <time>2025-09-28T07:22:33Z</time>
      </trkpt>
      <trkpt lat="45.71805" lon="2.97011">
        <ele>950.4</ele>
        <time>2025-09-28T07:22:34Z</time>
      </trkpt>
      <trkpt lat="45.71798" lon="2.97009">
        <ele>950.2</ele>
        <time>2025-09-28T07:22:35Z</time>
      </trkpt>
      <trkpt lat="45.71791" lon="2.97008">
        <ele>950.2</ele>
        <time>2025-09-28T07:22:36Z</time>
      </trkpt>
      <trkpt lat="45.71785" lon="2.97007">
        <ele>950.2</ele>
        <time>2025-09-28T07:22:37Z</time>
      </trkpt>
      <trkpt lat="45.71778" lon="2.97006">
        <ele>950.2</ele>
        <time>2025-09-28T07:22:38Z</time>
      </trkpt>
      <trkpt lat="45.71771" lon="2.97005">
        <ele>950</ele>
        <time>2025-09-28T07:22:39Z</time>
      </trkpt>
      <trkpt lat="45.71764" lon="2.97005">
        <ele>950</ele>
        <time>2025-09-28T07:22:40Z</time>
      </trkpt>
      <trkpt lat="45.71758" lon="2.97004">
        <ele>949.8</ele>
        <time>2025-09-28T07:22:41Z</time>
      </trkpt>
      <trkpt lat="45.71751" lon="2.97004">
        <ele>949.8</ele>
        <time>2025-09-28T07:22:42Z</time>
      </trkpt>
      <trkpt lat="45.71744" lon="2.97004">
        <ele>949.8</ele>
        <time>2025-09-28T07:22:43Z</time>
      </trkpt>
      <trkpt lat="45.71738" lon="2.97004">
        <ele>949.8</ele>
        <time>2025-09-28T07:22:44Z</time>
      </trkpt>
      <trkpt lat="45.71732" lon="2.97004">
        <ele>949.8</ele>
        <time>2025-09-28T07:22:45Z</time>
      </trkpt>
      <trkpt lat="45.71725" lon="2.97004">
        <ele>949.8</ele>
        <time>2025-09-28T07:22:46Z</time>
      </trkpt>
      <trkpt lat="45.71719" lon="2.97004">
        <ele>949.8</ele>
        <time>2025-09-28T07:22:47Z</time>
      </trkpt>
      <trkpt lat="45.71712" lon="2.97004">
        <ele>949.8</ele>
        <time>2025-09-28T07:22:48Z</time>
      </trkpt>
      <trkpt lat="45.71706" lon="2.97004">
        <ele>949.8</ele>
        <time>2025-09-28T07:22:49Z</time>
      </trkpt>
      <trkpt lat="45.717" lon="2.97003">
        <ele>949.8</ele>
        <time>2025-09-28T07:22:50Z</time>
      </trkpt>
      <trkpt lat="45.71694" lon="2.97003">
        <ele>949.6</ele>
        <time>2025-09-28T07:22:51Z</time>
      </trkpt>
      <trkpt lat="45.71688" lon="2.97004">
        <ele>949.6</ele>
        <time>2025-09-28T07:22:52Z</time>
      </trkpt>
      <trkpt lat="45.71682" lon="2.97004">
        <ele>949.6</ele>
        <time>2025-09-28T07:22:53Z</time>
      </trkpt>
      <trkpt lat="45.71675" lon="2.97005">
        <ele>949.6</ele>
        <time>2025-09-28T07:22:54Z</time>
      </trkpt>
      <trkpt lat="45.71669" lon="2.97006">
        <ele>949.6</ele>
        <time>2025-09-28T07:22:55Z</time>
      </trkpt>
      <trkpt lat="45.71662" lon="2.97006">
        <ele>949.4</ele>
        <time>2025-09-28T07:22:56Z</time>
      </trkpt>
      <trkpt lat="45.71655" lon="2.97006">
        <ele>949.4</ele>
        <time>2025-09-28T07:22:57Z</time>
      </trkpt>
      <trkpt lat="45.71649" lon="2.97007">
        <ele>949.4</ele>
        <time>2025-09-28T07:22:58Z</time>
      </trkpt>
      <trkpt lat="45.71642" lon="2.97008">
        <ele>949.4</ele>
        <time>2025-09-28T07:22:59Z</time>
      </trkpt>
      <trkpt lat="45.71636" lon="2.97009">
        <ele>949.4</ele>
        <time>2025-09-28T07:23:00Z</time>
      </trkpt>
      <trkpt lat="45.7163" lon="2.97011">
        <ele>949.4</ele>
        <time>2025-09-28T07:23:01Z</time>
      </trkpt>
      <trkpt lat="45.71625" lon="2.97012">
        <ele>949.2</ele>
        <time>2025-09-28T07:23:02Z</time>
      </trkpt>
      <trkpt lat="45.71619" lon="2.97013">
        <ele>949.2</ele>
        <time>2025-09-28T07:23:03Z</time>
      </trkpt>
      <trkpt lat="45.71614" lon="2.97014">
        <ele>949.2</ele>
        <time>2025-09-28T07:23:04Z</time>
      </trkpt>
      <trkpt lat="45.71609" lon="2.97016">
        <ele>949.2</ele>
        <time>2025-09-28T07:23:05Z</time>
      </trkpt>
      <trkpt lat="45.71603" lon="2.97019">
        <ele>949.2</ele>
        <time>2025-09-28T07:23:06Z</time>
      </trkpt>
      <trkpt lat="45.71598" lon="2.97022">
        <ele>949.2</ele>
        <time>2025-09-28T07:23:07Z</time>
      </trkpt>
      <trkpt lat="45.71594" lon="2.97027">
        <ele>949.4</ele>
        <time>2025-09-28T07:23:08Z</time>
      </trkpt>
      <trkpt lat="45.7159" lon="2.97032">
        <ele>949.4</ele>
        <time>2025-09-28T07:23:09Z</time>
      </trkpt>
      <trkpt lat="45.71586" lon="2.97037">
        <ele>949.4</ele>
        <time>2025-09-28T07:23:10Z</time>
      </trkpt>
      <trkpt lat="45.71583" lon="2.97043">
        <ele>949.6</ele>
        <time>2025-09-28T07:23:11Z</time>
      </trkpt>
      <trkpt lat="45.7158" lon="2.97049">
        <ele>949.8</ele>
        <time>2025-09-28T07:23:12Z</time>
      </trkpt>
      <trkpt lat="45.71577" lon="2.97056">
        <ele>950</ele>
        <time>2025-09-28T07:23:13Z</time>
      </trkpt>
      <trkpt lat="45.71575" lon="2.97062">
        <ele>950.2</ele>
        <time>2025-09-28T07:23:14Z</time>
      </trkpt>
      <trkpt lat="45.71573" lon="2.97069">
        <ele>950.4</ele>
        <time>2025-09-28T07:23:15Z</time>
      </trkpt>
      <trkpt lat="45.71573" lon="2.97075">
        <ele>950.6</ele>
        <time>2025-09-28T07:23:16Z</time>
      </trkpt>
      <trkpt lat="45.71573" lon="2.97081">
        <ele>950.8</ele>
        <time>2025-09-28T07:23:17Z</time>
      </trkpt>
      <trkpt lat="45.71573" lon="2.97086">
        <ele>951</ele>
        <time>2025-09-28T07:23:18Z</time>
      </trkpt>
      <trkpt lat="45.71574" lon="2.97091">
        <ele>951.2</ele>
        <time>2025-09-28T07:23:19Z</time>
      </trkpt>
      <trkpt lat="45.71574" lon="2.97096">
        <ele>951.4</ele>
        <time>2025-09-28T07:23:20Z</time>
      </trkpt>
      <trkpt lat="45.71574" lon="2.971">
        <ele>951.8</ele>
        <time>2025-09-28T07:23:21Z</time>
      </trkpt>
      <trkpt lat="45.71574" lon="2.97104">
        <ele>952</ele>
        <time>2025-09-28T07:23:22Z</time>
      </trkpt>
      <trkpt lat="45.71573" lon="2.97108">
        <ele>952.2</ele>
        <time>2025-09-28T07:23:23Z</time>
      </trkpt>
      <trkpt lat="45.71572" lon="2.97111">
        <ele>952.4</ele>
        <time>2025-09-28T07:23:24Z</time>
      </trkpt>
      <trkpt lat="45.71569" lon="2.97112">
        <ele>952.6</ele>
        <time>2025-09-28T07:23:25Z</time>
      </trkpt>
      <trkpt lat="45.71566" lon="2.97113">
        <ele>952.8</ele>
        <time>2025-09-28T07:23:26Z</time>
      </trkpt>
      <trkpt lat="45.71562" lon="2.97114">
        <ele>953</ele>
        <time>2025-09-28T07:23:27Z</time>
      </trkpt>
      <trkpt lat="45.71558" lon="2.97115">
        <ele>953.2</ele>
        <time>2025-09-28T07:23:28Z</time>
      </trkpt>
      <trkpt lat="45.71554" lon="2.97116">
        <ele>953.6</ele>
        <time>2025-09-28T07:23:29Z</time>
      </trkpt>
      <trkpt lat="45.7155" lon="2.97116">
        <ele>953.8</ele>
        <time>2025-09-28T07:23:30Z</time>
      </trkpt>
      <trkpt lat="45.71547" lon="2.97115">
        <ele>954</ele>
        <time>2025-09-28T07:23:31Z</time>
      </trkpt>
      <trkpt lat="45.71544" lon="2.97114">
        <ele>954.2</ele>
        <time>2025-09-28T07:23:32Z</time>
      </trkpt>
      <trkpt lat="45.7154" lon="2.97112">
        <ele>954.4</ele>
        <time>2025-09-28T07:23:33Z</time>
      </trkpt>
      <trkpt lat="45.71536" lon="2.9711">
        <ele>954.6</ele>
        <time>2025-09-28T07:23:34Z</time>
      </trkpt>
      <trkpt lat="45.71532" lon="2.97109">
        <ele>955</ele>
        <time>2025-09-28T07:23:35Z</time>
      </trkpt>
      <trkpt lat="45.71528" lon="2.97107">
        <ele>955.2</ele>
        <time>2025-09-28T07:23:36Z</time>
      </trkpt>
      <trkpt lat="45.71525" lon="2.97105">
        <ele>955.6</ele>
        <time>2025-09-28T07:23:37Z</time>
      </trkpt>
      <trkpt lat="45.71522" lon="2.97104">
        <ele>955.8</ele>
        <time>2025-09-28T07:23:38Z</time>
      </trkpt>
      <trkpt lat="45.7152" lon="2.97101">
        <ele>956.2</ele>
        <time>2025-09-28T07:23:39Z</time>
      </trkpt>
      <trkpt lat="45.71518" lon="2.97099">
        <ele>956.4</ele>
        <time>2025-09-28T07:23:40Z</time>
      </trkpt>
      <trkpt lat="45.71515" lon="2.97097">
        <ele>956.6</ele>
        <time>2025-09-28T07:23:41Z</time>
      </trkpt>
      <trkpt lat="45.71511" lon="2.97096">
        <ele>957</ele>
        <time>2025-09-28T07:23:42Z</time>
      </trkpt>
      <trkpt lat="45.71507" lon="2.97096">
        <ele>957.2</ele>
        <time>2025-09-28T07:23:43Z</time>
      </trkpt>
      <trkpt lat="45.71502" lon="2.97097">
        <ele>957.4</ele>
        <time>2025-09-28T07:23:44Z</time>
      </trkpt>
      <trkpt lat="45.71498" lon="2.97099">
        <ele>957.8</ele>
        <time>2025-09-28T07:23:45Z</time>
      </trkpt>
      <trkpt lat="45.71494" lon="2.97101">
        <ele>958</ele>
        <time>2025-09-28T07:23:46Z</time>
      </trkpt>
      <trkpt lat="45.7149" lon="2.97104">
        <ele>958.4</ele>
        <time>2025-09-28T07:23:47Z</time>
      </trkpt>
      <trkpt lat="45.71487" lon="2.97106">
        <ele>958.6</ele>
        <time>2025-09-28T07:23:48Z</time>
      </trkpt>
      <trkpt lat="45.71483" lon="2.97108">
        <ele>958.8</ele>
        <time>2025-09-28T07:23:49Z</time>
      </trkpt>
      <trkpt lat="45.71479" lon="2.97111">
        <ele>959.2</ele>
        <time>2025-09-28T07:23:50Z</time>
      </trkpt>
      <trkpt lat="45.71475" lon="2.97116">
        <ele>959.4</ele>
        <time>2025-09-28T07:23:51Z</time>
      </trkpt>
      <trkpt lat="45.71471" lon="2.9712">
        <ele>959.6</ele>
        <time>2025-09-28T07:23:52Z</time>
      </trkpt>
      <trkpt lat="45.71466" lon="2.97123">
        <ele>959.8</ele>
        <time>2025-09-28T07:23:53Z</time>
      </trkpt>
      <trkpt lat="45.71462" lon="2.97124">
        <ele>960.2</ele>
        <time>2025-09-28T07:23:54Z</time>
      </trkpt>
      <trkpt lat="45.71459" lon="2.97124">
        <ele>960.4</ele>
        <time>2025-09-28T07:23:55Z</time>
      </trkpt>
      <trkpt lat="45.71457" lon="2.97125">
        <ele>960.6</ele>
        <time>2025-09-28T07:23:56Z</time>
      </trkpt>
      <trkpt lat="45.71455" lon="2.97126">
        <ele>961</ele>
        <time>2025-09-28T07:23:57Z</time>
      </trkpt>
      <trkpt lat="45.71452" lon="2.97126">
        <ele>961.2</ele>
        <time>2025-09-28T07:23:58Z</time>
      </trkpt>
      <trkpt lat="45.71449" lon="2.97127">
        <ele>961.6</ele>
        <time>2025-09-28T07:23:59Z</time>
      </trkpt>
      <trkpt lat="45.71446" lon="2.9713">
        <ele>961.8</ele>
        <time>2025-09-28T07:24:00Z</time>
      </trkpt>
      <trkpt lat="45.71442" lon="2.97133">
        <ele>962</ele>
        <time>2025-09-28T07:24:01Z</time>
      </trkpt>
      <trkpt lat="45.71439" lon="2.97135">
        <ele>962.4</ele>
        <time>2025-09-28T07:24:02Z</time>
      </trkpt>
      <trkpt lat="45.71435" lon="2.97135">
        <ele>962.6</ele>
        <time>2025-09-28T07:24:03Z</time>
      </trkpt>
      <trkpt lat="45.71432" lon="2.97136">
        <ele>962.8</ele>
        <time>2025-09-28T07:24:04Z</time>
      </trkpt>
      <trkpt lat="45.71429" lon="2.97136">
        <ele>963.2</ele>
        <time>2025-09-28T07:24:05Z</time>
      </trkpt>
      <trkpt lat="45.71427" lon="2.97135">
        <ele>963.4</ele>
        <time>2025-09-28T07:24:06Z</time>
      </trkpt>
      <trkpt lat="45.71424" lon="2.97135">
        <ele>963.6</ele>
        <time>2025-09-28T07:24:07Z</time>
      </trkpt>
      <trkpt lat="45.71421" lon="2.97135">
        <ele>964</ele>
        <time>2025-09-28T07:24:08Z</time>
      </trkpt>
      <trkpt lat="45.71417" lon="2.97134">
        <ele>964.2</ele>
        <time>2025-09-28T07:24:09Z</time>
      </trkpt>
      <trkpt lat="45.71414" lon="2.97133">
        <ele>964.4</ele>
        <time>2025-09-28T07:24:10Z</time>
      </trkpt>
      <trkpt lat="45.71411" lon="2.97131">
        <ele>964.6</ele>
        <time>2025-09-28T07:24:11Z</time>
      </trkpt>
      <trkpt lat="45.71407" lon="2.97129">
        <ele>965</ele>
        <time>2025-09-28T07:24:12Z</time>
      </trkpt>
      <trkpt lat="45.71404" lon="2.97127">
        <ele>965.2</ele>
        <time>2025-09-28T07:24:13Z</time>
      </trkpt>
      <trkpt lat="45.71401" lon="2.97125">
        <ele>965.4</ele>
        <time>2025-09-28T07:24:14Z</time>
      </trkpt>
      <trkpt lat="45.71399" lon="2.97123">
        <ele>965.6</ele>
        <time>2025-09-28T07:24:15Z</time>
      </trkpt>
      <trkpt lat="45.71395" lon="2.97121">
        <ele>965.8</ele>
        <time>2025-09-28T07:24:16Z</time>
      </trkpt>
      <trkpt lat="45.71392" lon="2.97118">
        <ele>966</ele>
        <time>2025-09-28T07:24:17Z</time>
      </trkpt>
      <trkpt lat="45.71389" lon="2.97115">
        <ele>966.2</ele>
        <time>2025-09-28T07:24:18Z</time>
      </trkpt>
      <trkpt lat="45.71386" lon="2.97113">
        <ele>966.4</ele>
        <time>2025-09-28T07:24:19Z</time>
      </trkpt>
      <trkpt lat="45.71384" lon="2.97112">
        <ele>966.6</ele>
        <time>2025-09-28T07:24:20Z</time>
      </trkpt>
      <trkpt lat="45.71383" lon="2.97111">
        <ele>966.8</ele>
        <time>2025-09-28T07:24:21Z</time>
      </trkpt>
      <trkpt lat="45.71383" lon="2.97111">
        <ele>967.2</ele>
        <time>2025-09-28T07:24:22Z</time>
      </trkpt>
      <trkpt lat="45.71382" lon="2.97111">
        <ele>967.4</ele>
        <time>2025-09-28T07:24:23Z</time>
      </trkpt>
      <trkpt lat="45.7138" lon="2.9711">
        <ele>967.6</ele>
        <time>2025-09-28T07:24:24Z</time>
      </trkpt>
      <trkpt lat="45.71378" lon="2.9711">
        <ele>967.8</ele>
        <time>2025-09-28T07:24:25Z</time>
      </trkpt>
      <trkpt lat="45.71375" lon="2.9711">
        <ele>968</ele>
        <time>2025-09-28T07:24:26Z</time>
      </trkpt>
      <trkpt lat="45.71373" lon="2.9711">
        <ele>968.2</ele>
        <time>2025-09-28T07:24:27Z</time>
      </trkpt>
      <trkpt lat="45.71371" lon="2.9711">
        <ele>968.4</ele>
        <time>2025-09-28T07:24:28Z</time>
      </trkpt>
      <trkpt lat="45.71369" lon="2.97109">
        <ele>968.6</ele>
        <time>2025-09-28T07:24:29Z</time>
      </trkpt>
      <trkpt lat="45.71366" lon="2.97108">
        <ele>968.8</ele>
        <time>2025-09-28T07:24:30Z</time>
      </trkpt>
      <trkpt lat="45.71362" lon="2.97109">
        <ele>969</ele>
        <time>2025-09-28T07:24:31Z</time>
      </trkpt>
      <trkpt lat="45.71359" lon="2.97109">
        <ele>969.2</ele>
        <time>2025-09-28T07:24:32Z</time>
      </trkpt>
      <trkpt lat="45.71356" lon="2.9711">
        <ele>969.4</ele>
        <time>2025-09-28T07:24:33Z</time>
      </trkpt>
      <trkpt lat="45.71354" lon="2.97111">
        <ele>969.6</ele>
        <time>2025-09-28T07:24:34Z</time>
      </trkpt>
      <trkpt lat="45.71352" lon="2.97111">
        <ele>969.8</ele>
        <time>2025-09-28T07:24:35Z</time>
      </trkpt>
      <trkpt lat="45.71349" lon="2.97112">
        <ele>970</ele>
        <time>2025-09-28T07:24:36Z</time>
      </trkpt>
      <trkpt lat="45.71347" lon="2.97113">
        <ele>970</ele>
        <time>2025-09-28T07:24:37Z</time>
      </trkpt>
      <trkpt lat="45.71343" lon="2.97114">
        <ele>970</ele>
        <time>2025-09-28T07:24:38Z</time>
      </trkpt>
      <trkpt lat="45.7134" lon="2.97115">
        <ele>970</ele>
        <time>2025-09-28T07:24:39Z</time>
      </trkpt>
      <trkpt lat="45.71335" lon="2.97118">
        <ele>970</ele>
        <time>2025-09-28T07:24:40Z</time>
      </trkpt>
      <trkpt lat="45.71331" lon="2.97121">
        <ele>970</ele>
        <time>2025-09-28T07:24:41Z</time>
      </trkpt>
      <trkpt lat="45.71326" lon="2.97125">
        <ele>969.8</ele>
        <time>2025-09-28T07:24:42Z</time>
      </trkpt>
      <trkpt lat="45.7132" lon="2.97127">
        <ele>969.8</ele>
        <time>2025-09-28T07:24:43Z</time>
      </trkpt>
      <trkpt lat="45.71313" lon="2.97129">
        <ele>969.6</ele>
        <time>2025-09-28T07:24:44Z</time>
      </trkpt>
      <trkpt lat="45.71306" lon="2.97132">
        <ele>969.6</ele>
        <time>2025-09-28T07:24:45Z</time>
      </trkpt>
      <trkpt lat="45.713" lon="2.97134">
        <ele>969.4</ele>
        <time>2025-09-28T07:24:46Z</time>
      </trkpt>
      <trkpt lat="45.71293" lon="2.97137">
        <ele>969.4</ele>
        <time>2025-09-28T07:24:47Z</time>
      </trkpt>
      <trkpt lat="45.71286" lon="2.97141">
        <ele>969.2</ele>
        <time>2025-09-28T07:24:48Z</time>
      </trkpt>
      <trkpt lat="45.71279" lon="2.97141">
        <ele>969.2</ele>
        <time>2025-09-28T07:24:49Z</time>
      </trkpt>
      <trkpt lat="45.71272" lon="2.97142">
        <ele>969</ele>
        <time>2025-09-28T07:24:50Z</time>
      </trkpt>
      <trkpt lat="45.71265" lon="2.97145">
        <ele>969</ele>
        <time>2025-09-28T07:24:51Z</time>
      </trkpt>
      <trkpt lat="45.71258" lon="2.97147">
        <ele>968.8</ele>
        <time>2025-09-28T07:24:52Z</time>
      </trkpt>
      <trkpt lat="45.71252" lon="2.9715">
        <ele>968.8</ele>
        <time>2025-09-28T07:24:53Z</time>
      </trkpt>
      <trkpt lat="45.71246" lon="2.97153">
        <ele>968.8</ele>
        <time>2025-09-28T07:24:54Z</time>
      </trkpt>
      <trkpt lat="45.7124" lon="2.97158">
        <ele>968.6</ele>
        <time>2025-09-28T07:24:55Z</time>
      </trkpt>
      <trkpt lat="45.71234" lon="2.97162">
        <ele>968.6</ele>
        <time>2025-09-28T07:24:56Z</time>
      </trkpt>
      <trkpt lat="45.71229" lon="2.97166">
        <ele>968.4</ele>
        <time>2025-09-28T07:24:57Z</time>
      </trkpt>
      <trkpt lat="45.71223" lon="2.97172">
        <ele>968.4</ele>
        <time>2025-09-28T07:24:58Z</time>
      </trkpt>
      <trkpt lat="45.71218" lon="2.97178">
        <ele>968.4</ele>
        <time>2025-09-28T07:24:59Z</time>
      </trkpt>
      <trkpt lat="45.71214" lon="2.97183">
        <ele>968.4</ele>
        <time>2025-09-28T07:25:00Z</time>
      </trkpt>
      <trkpt lat="45.7121" lon="2.9719">
        <ele>968.2</ele>
        <time>2025-09-28T07:25:01Z</time>
      </trkpt>
      <trkpt lat="45.71204" lon="2.97198">
        <ele>968.2</ele>
        <time>2025-09-28T07:25:02Z</time>
      </trkpt>
      <trkpt lat="45.71199" lon="2.97206">
        <ele>968.2</ele>
        <time>2025-09-28T07:25:03Z</time>
      </trkpt>
      <trkpt lat="45.71194" lon="2.97212">
        <ele>968</ele>
        <time>2025-09-28T07:25:04Z</time>
      </trkpt>
      <trkpt lat="45.71191" lon="2.97217">
        <ele>968</ele>
        <time>2025-09-28T07:25:05Z</time>
      </trkpt>
      <trkpt lat="45.71188" lon="2.97222">
        <ele>968</ele>
        <time>2025-09-28T07:25:06Z</time>
      </trkpt>
      <trkpt lat="45.71184" lon="2.97227">
        <ele>968</ele>
        <time>2025-09-28T07:25:07Z</time>
      </trkpt>
      <trkpt lat="45.71179" lon="2.97231">
        <ele>968</ele>
        <time>2025-09-28T07:25:08Z</time>
      </trkpt>
      <trkpt lat="45.71174" lon="2.97232">
        <ele>968</ele>
        <time>2025-09-28T07:25:09Z</time>
      </trkpt>
      <trkpt lat="45.71168" lon="2.97231">
        <ele>968</ele>
        <time>2025-09-28T07:25:10Z</time>
      </trkpt>
      <trkpt lat="45.71162" lon="2.97232">
        <ele>967.8</ele>
        <time>2025-09-28T07:25:11Z</time>
      </trkpt>
      <trkpt lat="45.71156" lon="2.97233">
        <ele>968</ele>
        <time>2025-09-28T07:25:12Z</time>
      </trkpt>
      <trkpt lat="45.7115" lon="2.97234">
        <ele>968</ele>
        <time>2025-09-28T07:25:13Z</time>
      </trkpt>
      <trkpt lat="45.71145" lon="2.97235">
        <ele>968</ele>
        <time>2025-09-28T07:25:14Z</time>
      </trkpt>
      <trkpt lat="45.71141" lon="2.97236">
        <ele>968.2</ele>
        <time>2025-09-28T07:25:15Z</time>
      </trkpt>
      <trkpt lat="45.71137" lon="2.97237">
        <ele>968.4</ele>
        <time>2025-09-28T07:25:16Z</time>
      </trkpt>
      <trkpt lat="45.71133" lon="2.97238">
        <ele>968.6</ele>
        <time>2025-09-28T07:25:17Z</time>
      </trkpt>
      <trkpt lat="45.71129" lon="2.97239">
        <ele>968.8</ele>
        <time>2025-09-28T07:25:18Z</time>
      </trkpt>
      <trkpt lat="45.71125" lon="2.97241">
        <ele>969</ele>
        <time>2025-09-28T07:25:19Z</time>
      </trkpt>
      <trkpt lat="45.71121" lon="2.97242">
        <ele>969.2</ele>
        <time>2025-09-28T07:25:20Z</time>
      </trkpt>
      <trkpt lat="45.71116" lon="2.97243">
        <ele>969</ele>
        <time>2025-09-28T07:25:21Z</time>
      </trkpt>
      <trkpt lat="45.71111" lon="2.97243">
        <ele>969</ele>
        <time>2025-09-28T07:25:22Z</time>
      </trkpt>
      <trkpt lat="45.71107" lon="2.97242">
        <ele>968.8</ele>
        <time>2025-09-28T07:25:23Z</time>
      </trkpt>
      <trkpt lat="45.71101" lon="2.97241">
        <ele>968.4</ele>
        <time>2025-09-28T07:25:24Z</time>
      </trkpt>
      <trkpt lat="45.71095" lon="2.9724">
        <ele>968.2</ele>
        <time>2025-09-28T07:25:25Z</time>
      </trkpt>
      <trkpt lat="45.71088" lon="2.97239">
        <ele>967.8</ele>
        <time>2025-09-28T07:25:26Z</time>
      </trkpt>
      <trkpt lat="45.7108" lon="2.97237">
        <ele>967.6</ele>
        <time>2025-09-28T07:25:27Z</time>
      </trkpt>
      <trkpt lat="45.71074" lon="2.97234">
        <ele>967.2</ele>
        <time>2025-09-28T07:25:28Z</time>
      </trkpt>
      <trkpt lat="45.71069" lon="2.97232">
        <ele>967</ele>
        <time>2025-09-28T07:25:29Z</time>
      </trkpt>
      <trkpt lat="45.71062" lon="2.97232">
        <ele>966.8</ele>
        <time>2025-09-28T07:25:30Z</time>
      </trkpt>
      <trkpt lat="45.71056" lon="2.97234">
        <ele>966.6</ele>
        <time>2025-09-28T07:25:31Z</time>
      </trkpt>
      <trkpt lat="45.71048" lon="2.97234">
        <ele>966.4</ele>
        <time>2025-09-28T07:25:32Z</time>
      </trkpt>
      <trkpt lat="45.7104" lon="2.97232">
        <ele>966.2</ele>
        <time>2025-09-28T07:25:33Z</time>
      </trkpt>
      <trkpt lat="45.71032" lon="2.9723">
        <ele>966.2</ele>
        <time>2025-09-28T07:25:34Z</time>
      </trkpt>
      <trkpt lat="45.71026" lon="2.97227">
        <ele>966</ele>
        <time>2025-09-28T07:25:35Z</time>
      </trkpt>
      <trkpt lat="45.7102" lon="2.97225">
        <ele>966</ele>
        <time>2025-09-28T07:25:36Z</time>
      </trkpt>
      <trkpt lat="45.71013" lon="2.97223">
        <ele>966</ele>
        <time>2025-09-28T07:25:37Z</time>
      </trkpt>
      <trkpt lat="45.71005" lon="2.97221">
        <ele>966</ele>
        <time>2025-09-28T07:25:38Z</time>
      </trkpt>
      <trkpt lat="45.70997" lon="2.97221">
        <ele>965.8</ele>
        <time>2025-09-28T07:25:39Z</time>
      </trkpt>
      <trkpt lat="45.7099" lon="2.97222">
        <ele>965.8</ele>
        <time>2025-09-28T07:25:40Z</time>
      </trkpt>
      <trkpt lat="45.70983" lon="2.97222">
        <ele>966</ele>
        <time>2025-09-28T07:25:41Z</time>
      </trkpt>
      <trkpt lat="45.70978" lon="2.97221">
        <ele>966</ele>
        <time>2025-09-28T07:25:42Z</time>
      </trkpt>
      <trkpt lat="45.70973" lon="2.97222">
        <ele>966</ele>
        <time>2025-09-28T07:25:43Z</time>
      </trkpt>
      <trkpt lat="45.70966" lon="2.97223">
        <ele>966.2</ele>
        <time>2025-09-28T07:25:44Z</time>
      </trkpt>
      <trkpt lat="45.70959" lon="2.97222">
        <ele>966.4</ele>
        <time>2025-09-28T07:25:45Z</time>
      </trkpt>
      <trkpt lat="45.70953" lon="2.9722">
        <ele>966.6</ele>
        <time>2025-09-28T07:25:46Z</time>
      </trkpt>
      <trkpt lat="45.70947" lon="2.97217">
        <ele>966.8</ele>
        <time>2025-09-28T07:25:47Z</time>
      </trkpt>
      <trkpt lat="45.70941" lon="2.97216">
        <ele>967</ele>
        <time>2025-09-28T07:25:48Z</time>
      </trkpt>
      <trkpt lat="45.70937" lon="2.97215">
        <ele>967.2</ele>
        <time>2025-09-28T07:25:49Z</time>
      </trkpt>
      <trkpt lat="45.70933" lon="2.97215">
        <ele>967.6</ele>
        <time>2025-09-28T07:25:50Z</time>
      </trkpt>
      <trkpt lat="45.70928" lon="2.97216">
        <ele>967.8</ele>
        <time>2025-09-28T07:25:51Z</time>
      </trkpt>
      <trkpt lat="45.70922" lon="2.97216">
        <ele>968.2</ele>
        <time>2025-09-28T07:25:52Z</time>
      </trkpt>
      <trkpt lat="45.70916" lon="2.97215">
        <ele>968.4</ele>
        <time>2025-09-28T07:25:53Z</time>
      </trkpt>
      <trkpt lat="45.7091" lon="2.97212">
        <ele>968.8</ele>
        <time>2025-09-28T07:25:54Z</time>
      </trkpt>
      <trkpt lat="45.70903" lon="2.97209">
        <ele>969</ele>
        <time>2025-09-28T07:25:55Z</time>
      </trkpt>
      <trkpt lat="45.70899" lon="2.97206">
        <ele>969.4</ele>
        <time>2025-09-28T07:25:56Z</time>
      </trkpt>
      <trkpt lat="45.70895" lon="2.97203">
        <ele>969.6</ele>
        <time>2025-09-28T07:25:57Z</time>
      </trkpt>
      <trkpt lat="45.70891" lon="2.97201">
        <ele>970</ele>
        <time>2025-09-28T07:25:58Z</time>
      </trkpt>
      <trkpt lat="45.70888" lon="2.97199">
        <ele>970.2</ele>
        <time>2025-09-28T07:25:59Z</time>
      </trkpt>
      <trkpt lat="45.70885" lon="2.97198">
        <ele>970.2</ele>
        <time>2025-09-28T07:26:00Z</time>
      </trkpt>
      <trkpt lat="45.70881" lon="2.97195">
        <ele>970.4</ele>
        <time>2025-09-28T07:26:01Z</time>
      </trkpt>
      <trkpt lat="45.70877" lon="2.97191">
        <ele>970.4</ele>
        <time>2025-09-28T07:26:02Z</time>
      </trkpt>
      <trkpt lat="45.70873" lon="2.97188">
        <ele>970.4</ele>
        <time>2025-09-28T07:26:03Z</time>
      </trkpt>
      <trkpt lat="45.70869" lon="2.97185">
        <ele>970.2</ele>
        <time>2025-09-28T07:26:04Z</time>
      </trkpt>
      <trkpt lat="45.70866" lon="2.97182">
        <ele>970.2</ele>
        <time>2025-09-28T07:26:05Z</time>
      </trkpt>
      <trkpt lat="45.70862" lon="2.97181">
        <ele>970.2</ele>
        <time>2025-09-28T07:26:06Z</time>
      </trkpt>
      <trkpt lat="45.70858" lon="2.97179">
        <ele>970.2</ele>
        <time>2025-09-28T07:26:07Z</time>
      </trkpt>
      <trkpt lat="45.70853" lon="2.97176">
        <ele>970.2</ele>
        <time>2025-09-28T07:26:08Z</time>
      </trkpt>
      <trkpt lat="45.70849" lon="2.97172">
        <ele>970.2</ele>
        <time>2025-09-28T07:26:09Z</time>
      </trkpt>
      <trkpt lat="45.70844" lon="2.97168">
        <ele>970</ele>
        <time>2025-09-28T07:26:10Z</time>
      </trkpt>
      <trkpt lat="45.7084" lon="2.97162">
        <ele>970</ele>
        <time>2025-09-28T07:26:11Z</time>
      </trkpt>
      <trkpt lat="45.70836" lon="2.97157">
        <ele>969.8</ele>
        <time>2025-09-28T07:26:12Z</time>
      </trkpt>
      <trkpt lat="45.70832" lon="2.97152">
        <ele>969.8</ele>
        <time>2025-09-28T07:26:13Z</time>
      </trkpt>
      <trkpt lat="45.70827" lon="2.97148">
        <ele>969.6</ele>
        <time>2025-09-28T07:26:14Z</time>
      </trkpt>
      <trkpt lat="45.70823" lon="2.97142">
        <ele>969.4</ele>
        <time>2025-09-28T07:26:15Z</time>
      </trkpt>
      <trkpt lat="45.7082" lon="2.97137">
        <ele>969.4</ele>
        <time>2025-09-28T07:26:16Z</time>
      </trkpt>
      <trkpt lat="45.70816" lon="2.97131">
        <ele>969.2</ele>
        <time>2025-09-28T07:26:17Z</time>
      </trkpt>
      <trkpt lat="45.70811" lon="2.97126">
        <ele>969</ele>
        <time>2025-09-28T07:26:18Z</time>
      </trkpt>
      <trkpt lat="45.70806" lon="2.9712">
        <ele>968.8</ele>
        <time>2025-09-28T07:26:19Z</time>
      </trkpt>
      <trkpt lat="45.70802" lon="2.97114">
        <ele>968.8</ele>
        <time>2025-09-28T07:26:20Z</time>
      </trkpt>
      <trkpt lat="45.70797" lon="2.97109">
        <ele>968.6</ele>
        <time>2025-09-28T07:26:21Z</time>
      </trkpt>
      <trkpt lat="45.70793" lon="2.97105">
        <ele>968.4</ele>
        <time>2025-09-28T07:26:22Z</time>
      </trkpt>
      <trkpt lat="45.70788" lon="2.971">
        <ele>968.4</ele>
        <time>2025-09-28T07:26:23Z</time>
      </trkpt>
      <trkpt lat="45.70784" lon="2.97095">
        <ele>968.4</ele>
        <time>2025-09-28T07:26:24Z</time>
      </trkpt>
      <trkpt lat="45.70779" lon="2.9709">
        <ele>968.2</ele>
        <time>2025-09-28T07:26:25Z</time>
      </trkpt>
      <trkpt lat="45.70775" lon="2.97085">
        <ele>968.2</ele>
        <time>2025-09-28T07:26:26Z</time>
      </trkpt>
      <trkpt lat="45.7077" lon="2.9708">
        <ele>968.2</ele>
        <time>2025-09-28T07:26:27Z</time>
      </trkpt>
      <trkpt lat="45.70766" lon="2.97076">
        <ele>968.2</ele>
        <time>2025-09-28T07:26:28Z</time>
      </trkpt>
      <trkpt lat="45.70761" lon="2.97073">
        <ele>968.2</ele>
        <time>2025-09-28T07:26:29Z</time>
      </trkpt>
      <trkpt lat="45.70756" lon="2.97069">
        <ele>968.4</ele>
        <time>2025-09-28T07:26:30Z</time>
      </trkpt>
      <trkpt lat="45.70752" lon="2.97066">
        <ele>968.4</ele>
        <time>2025-09-28T07:26:31Z</time>
      </trkpt>
      <trkpt lat="45.70748" lon="2.97063">
        <ele>968.6</ele>
        <time>2025-09-28T07:26:32Z</time>
      </trkpt>
      <trkpt lat="45.70743" lon="2.9706">
        <ele>968.6</ele>
        <time>2025-09-28T07:26:33Z</time>
      </trkpt>
      <trkpt lat="45.70738" lon="2.97057">
        <ele>968.8</ele>
        <time>2025-09-28T07:26:34Z</time>
      </trkpt>
      <trkpt lat="45.70734" lon="2.97055">
        <ele>968.8</ele>
        <time>2025-09-28T07:26:35Z</time>
      </trkpt>
      <trkpt lat="45.7073" lon="2.97054">
        <ele>969</ele>
        <time>2025-09-28T07:26:36Z</time>
      </trkpt>
      <trkpt lat="45.70726" lon="2.97053">
        <ele>969</ele>
        <time>2025-09-28T07:26:37Z</time>
      </trkpt>
      <trkpt lat="45.70722" lon="2.97053">
        <ele>969.2</ele>
        <time>2025-09-28T07:26:38Z</time>
      </trkpt>
      <trkpt lat="45.70718" lon="2.97052">
        <ele>969.4</ele>
        <time>2025-09-28T07:26:39Z</time>
      </trkpt>
      <trkpt lat="45.70713" lon="2.97053">
        <ele>969.4</ele>
        <time>2025-09-28T07:26:40Z</time>
      </trkpt>
      <trkpt lat="45.70708" lon="2.97053">
        <ele>969.6</ele>
        <time>2025-09-28T07:26:41Z</time>
      </trkpt>
      <trkpt lat="45.70704" lon="2.97054">
        <ele>969.8</ele>
        <time>2025-09-28T07:26:42Z</time>
      </trkpt>
      <trkpt lat="45.70699" lon="2.97055">
        <ele>970</ele>
        <time>2025-09-28T07:26:43Z</time>
      </trkpt>
      <trkpt lat="45.70695" lon="2.97057">
        <ele>970</ele>
        <time>2025-09-28T07:26:44Z</time>
      </trkpt>
      <trkpt lat="45.70691" lon="2.97059">
        <ele>970.2</ele>
        <time>2025-09-28T07:26:45Z</time>
      </trkpt>
      <trkpt lat="45.70687" lon="2.97061">
        <ele>970.4</ele>
        <time>2025-09-28T07:26:46Z</time>
      </trkpt>
      <trkpt lat="45.70683" lon="2.97063">
        <ele>970.6</ele>
        <time>2025-09-28T07:26:47Z</time>
      </trkpt>
      <trkpt lat="45.7068" lon="2.97065">
        <ele>970.6</ele>
        <time>2025-09-28T07:26:48Z</time>
      </trkpt>
      <trkpt lat="45.70676" lon="2.97067">
        <ele>970.8</ele>
        <time>2025-09-28T07:26:49Z</time>
      </trkpt>
      <trkpt lat="45.70673" lon="2.97069">
        <ele>971</ele>
        <time>2025-09-28T07:26:50Z</time>
      </trkpt>
      <trkpt lat="45.70668" lon="2.9707">
        <ele>971.2</ele>
        <time>2025-09-28T07:26:51Z</time>
      </trkpt>
      <trkpt lat="45.70664" lon="2.97071">
        <ele>971.4</ele>
        <time>2025-09-28T07:26:52Z</time>
      </trkpt>
      <trkpt lat="45.70659" lon="2.97071">
        <ele>971.6</ele>
        <time>2025-09-28T07:26:53Z</time>
      </trkpt>
      <trkpt lat="45.70656" lon="2.97071">
        <ele>972</ele>
        <time>2025-09-28T07:26:54Z</time>
      </trkpt>
      <trkpt lat="45.70652" lon="2.97071">
        <ele>972.2</ele>
        <time>2025-09-28T07:26:55Z</time>
      </trkpt>
      <trkpt lat="45.70648" lon="2.97071">
        <ele>972.4</ele>
        <time>2025-09-28T07:26:56Z</time>
      </trkpt>
      <trkpt lat="45.70644" lon="2.97071">
        <ele>972.4</ele>
        <time>2025-09-28T07:26:57Z</time>
      </trkpt>
      <trkpt lat="45.70639" lon="2.9707">
        <ele>972.6</ele>
        <time>2025-09-28T07:26:58Z</time>
      </trkpt>
      <trkpt lat="45.70634" lon="2.97069">
        <ele>972.8</ele>
        <time>2025-09-28T07:26:59Z</time>
      </trkpt>
      <trkpt lat="45.70629" lon="2.97067">
        <ele>973</ele>
        <time>2025-09-28T07:27:00Z</time>
      </trkpt>
      <trkpt lat="45.70625" lon="2.97064">
        <ele>973</ele>
        <time>2025-09-28T07:27:01Z</time>
      </trkpt>
      <trkpt lat="45.70621" lon="2.97062">
        <ele>973.2</ele>
        <time>2025-09-28T07:27:02Z</time>
      </trkpt>
      <trkpt lat="45.70618" lon="2.97059">
        <ele>973.4</ele>
        <time>2025-09-28T07:27:03Z</time>
      </trkpt>
      <trkpt lat="45.70614" lon="2.97056">
        <ele>973.6</ele>
        <time>2025-09-28T07:27:04Z</time>
      </trkpt>
      <trkpt lat="45.7061" lon="2.97054">
        <ele>973.6</ele>
        <time>2025-09-28T07:27:05Z</time>
      </trkpt>
      <trkpt lat="45.70606" lon="2.97051">
        <ele>973.8</ele>
        <time>2025-09-28T07:27:06Z</time>
      </trkpt>
      <trkpt lat="45.70601" lon="2.97048">
        <ele>974</ele>
        <time>2025-09-28T07:27:07Z</time>
      </trkpt>
      <trkpt lat="45.70597" lon="2.97045">
        <ele>974.2</ele>
        <time>2025-09-28T07:27:08Z</time>
      </trkpt>
      <trkpt lat="45.70594" lon="2.97042">
        <ele>974.4</ele>
        <time>2025-09-28T07:27:09Z</time>
      </trkpt>
      <trkpt lat="45.70591" lon="2.97039">
        <ele>974.6</ele>
        <time>2025-09-28T07:27:10Z</time>
      </trkpt>
      <trkpt lat="45.70588" lon="2.97036">
        <ele>974.8</ele>
        <time>2025-09-28T07:27:11Z</time>
      </trkpt>
      <trkpt lat="45.70585" lon="2.97034">
        <ele>975</ele>
        <time>2025-09-28T07:27:12Z</time>
      </trkpt>
      <trkpt lat="45.70583" lon="2.97031">
        <ele>975.2</ele>
        <time>2025-09-28T07:27:13Z</time>
      </trkpt>
      <trkpt lat="45.7058" lon="2.97028">
        <ele>975.4</ele>
        <time>2025-09-28T07:27:14Z</time>
      </trkpt>
      <trkpt lat="45.70577" lon="2.97025">
        <ele>975.6</ele>
        <time>2025-09-28T07:27:15Z</time>
      </trkpt>
      <trkpt lat="45.70575" lon="2.97023">
        <ele>975.8</ele>
        <time>2025-09-28T07:27:16Z</time>
      </trkpt>
      <trkpt lat="45.70573" lon="2.9702">
        <ele>976.2</ele>
        <time>2025-09-28T07:27:17Z</time>
      </trkpt>
      <trkpt lat="45.70571" lon="2.97018">
        <ele>976.4</ele>
        <time>2025-09-28T07:27:18Z</time>
      </trkpt>
      <trkpt lat="45.70569" lon="2.97015">
        <ele>976.6</ele>
        <time>2025-09-28T07:27:19Z</time>
      </trkpt>
      <trkpt lat="45.70567" lon="2.97013">
        <ele>976.8</ele>
        <time>2025-09-28T07:27:20Z</time>
      </trkpt>
      <trkpt lat="45.70564" lon="2.9701">
        <ele>976.8</ele>
        <time>2025-09-28T07:27:21Z</time>
      </trkpt>
      <trkpt lat="45.70561" lon="2.97007">
        <ele>977</ele>
        <time>2025-09-28T07:27:22Z</time>
      </trkpt>
      <trkpt lat="45.70558" lon="2.97003">
        <ele>977.2</ele>
        <time>2025-09-28T07:27:23Z</time>
      </trkpt>
      <trkpt lat="45.70555" lon="2.97">
        <ele>977.4</ele>
        <time>2025-09-28T07:27:24Z</time>
      </trkpt>
      <trkpt lat="45.70552" lon="2.96997">
        <ele>977.6</ele>
        <time>2025-09-28T07:27:25Z</time>
      </trkpt>
      <trkpt lat="45.7055" lon="2.96994">
        <ele>977.8</ele>
        <time>2025-09-28T07:27:26Z</time>
      </trkpt>
      <trkpt lat="45.70547" lon="2.96991">
        <ele>978</ele>
        <time>2025-09-28T07:27:27Z</time>
      </trkpt>
      <trkpt lat="45.70545" lon="2.96988">
        <ele>978.2</ele>
        <time>2025-09-28T07:27:28Z</time>
      </trkpt>
      <trkpt lat="45.70542" lon="2.96985">
        <ele>978.4</ele>
        <time>2025-09-28T07:27:29Z</time>
      </trkpt>
      <trkpt lat="45.70539" lon="2.96982">
        <ele>978.6</ele>
        <time>2025-09-28T07:27:30Z</time>
      </trkpt>
      <trkpt lat="45.70536" lon="2.9698">
        <ele>978.8</ele>
        <time>2025-09-28T07:27:31Z</time>
      </trkpt>
      <trkpt lat="45.70533" lon="2.96978">
        <ele>979.2</ele>
        <time>2025-09-28T07:27:32Z</time>
      </trkpt>
      <trkpt lat="45.7053" lon="2.96975">
        <ele>979.4</ele>
        <time>2025-09-28T07:27:33Z</time>
      </trkpt>
      <trkpt lat="45.70527" lon="2.96972">
        <ele>979.6</ele>
        <time>2025-09-28T07:27:34Z</time>
      </trkpt>
      <trkpt lat="45.70524" lon="2.96969">
        <ele>979.8</ele>
        <time>2025-09-28T07:27:35Z</time>
      </trkpt>
      <trkpt lat="45.70521" lon="2.96966">
        <ele>980</ele>
        <time>2025-09-28T07:27:36Z</time>
      </trkpt>
      <trkpt lat="45.70518" lon="2.96963">
        <ele>980.2</ele>
        <time>2025-09-28T07:27:37Z</time>
      </trkpt>
      <trkpt lat="45.70515" lon="2.96959">
        <ele>980.4</ele>
        <time>2025-09-28T07:27:38Z</time>
      </trkpt>
      <trkpt lat="45.70512" lon="2.96956">
        <ele>980.6</ele>
        <time>2025-09-28T07:27:39Z</time>
      </trkpt>
      <trkpt lat="45.70508" lon="2.96952">
        <ele>981</ele>
        <time>2025-09-28T07:27:40Z</time>
      </trkpt>
      <trkpt lat="45.70503" lon="2.96947">
        <ele>981.2</ele>
        <time>2025-09-28T07:27:41Z</time>
      </trkpt>
      <trkpt lat="45.705" lon="2.96945">
        <ele>981.4</ele>
        <time>2025-09-28T07:27:42Z</time>
      </trkpt>
      <trkpt lat="45.70497" lon="2.96943">
        <ele>981.8</ele>
        <time>2025-09-28T07:27:43Z</time>
      </trkpt>
      <trkpt lat="45.70495" lon="2.96941">
        <ele>982</ele>
        <time>2025-09-28T07:27:44Z</time>
      </trkpt>
      <trkpt lat="45.70493" lon="2.96939">
        <ele>982.2</ele>
        <time>2025-09-28T07:27:45Z</time>
      </trkpt>
      <trkpt lat="45.70491" lon="2.96936">
        <ele>982.4</ele>
        <time>2025-09-28T07:27:46Z</time>
      </trkpt>
      <trkpt lat="45.70489" lon="2.96933">
        <ele>982.6</ele>
        <time>2025-09-28T07:27:47Z</time>
      </trkpt>
      <trkpt lat="45.70485" lon="2.9693">
        <ele>982.8</ele>
        <time>2025-09-28T07:27:48Z</time>
      </trkpt>
      <trkpt lat="45.70482" lon="2.96926">
        <ele>983</ele>
        <time>2025-09-28T07:27:49Z</time>
      </trkpt>
      <trkpt lat="45.7048" lon="2.96923">
        <ele>983.2</ele>
        <time>2025-09-28T07:27:50Z</time>
      </trkpt>
      <trkpt lat="45.70477" lon="2.9692">
        <ele>983.4</ele>
        <time>2025-09-28T07:27:51Z</time>
      </trkpt>
      <trkpt lat="45.70474" lon="2.96916">
        <ele>983.6</ele>
        <time>2025-09-28T07:27:52Z</time>
      </trkpt>
      <trkpt lat="45.70471" lon="2.96914">
        <ele>983.8</ele>
        <time>2025-09-28T07:27:53Z</time>
      </trkpt>
      <trkpt lat="45.70468" lon="2.96911">
        <ele>984.2</ele>
        <time>2025-09-28T07:27:54Z</time>
      </trkpt>
      <trkpt lat="45.70465" lon="2.96908">
        <ele>984.4</ele>
        <time>2025-09-28T07:27:55Z</time>
      </trkpt>
      <trkpt lat="45.70462" lon="2.96905">
        <ele>984.6</ele>
        <time>2025-09-28T07:27:56Z</time>
      </trkpt>
      <trkpt lat="45.70459" lon="2.96903">
        <ele>984.8</ele>
        <time>2025-09-28T07:27:57Z</time>
      </trkpt>
      <trkpt lat="45.70456" lon="2.969">
        <ele>985</ele>
        <time>2025-09-28T07:27:58Z</time>
      </trkpt>
      <trkpt lat="45.70453" lon="2.96897">
        <ele>985.2</ele>
        <time>2025-09-28T07:27:59Z</time>
      </trkpt>
      <trkpt lat="45.70451" lon="2.96895">
        <ele>985.4</ele>
        <time>2025-09-28T07:28:00Z</time>
      </trkpt>
      <trkpt lat="45.70448" lon="2.96893">
        <ele>985.6</ele>
        <time>2025-09-28T07:28:01Z</time>
      </trkpt>
      <trkpt lat="45.70445" lon="2.96891">
        <ele>986</ele>
        <time>2025-09-28T07:28:02Z</time>
      </trkpt>
      <trkpt lat="45.70442" lon="2.9689">
        <ele>986.2</ele>
        <time>2025-09-28T07:28:03Z</time>
      </trkpt>
      <trkpt lat="45.7044" lon="2.96887">
        <ele>986.6</ele>
        <time>2025-09-28T07:28:04Z</time>
      </trkpt>
      <trkpt lat="45.70438" lon="2.96885">
        <ele>986.8</ele>
        <time>2025-09-28T07:28:05Z</time>
      </trkpt>
      <trkpt lat="45.70435" lon="2.96883">
        <ele>987</ele>
        <time>2025-09-28T07:28:06Z</time>
      </trkpt>
      <trkpt lat="45.70433" lon="2.9688">
        <ele>987.2</ele>
        <time>2025-09-28T07:28:07Z</time>
      </trkpt>
      <trkpt lat="45.7043" lon="2.96878">
        <ele>987.4</ele>
        <time>2025-09-28T07:28:08Z</time>
      </trkpt>
      <trkpt lat="45.70428" lon="2.96876">
        <ele>987.8</ele>
        <time>2025-09-28T07:28:09Z</time>
      </trkpt>
      <trkpt lat="45.70426" lon="2.96874">
        <ele>988</ele>
        <time>2025-09-28T07:28:10Z</time>
      </trkpt>
      <trkpt lat="45.70425" lon="2.96873">
        <ele>988.2</ele>
        <time>2025-09-28T07:28:11Z</time>
      </trkpt>
      <trkpt lat="45.70423" lon="2.96871">
        <ele>988.4</ele>
        <time>2025-09-28T07:28:12Z</time>
      </trkpt>
      <trkpt lat="45.70421" lon="2.9687">
        <ele>988.6</ele>
        <time>2025-09-28T07:28:13Z</time>
      </trkpt>
      <trkpt lat="45.70418" lon="2.96868">
        <ele>988.8</ele>
        <time>2025-09-28T07:28:14Z</time>
      </trkpt>
      <trkpt lat="45.70415" lon="2.96867">
        <ele>988.8</ele>
        <time>2025-09-28T07:28:15Z</time>
      </trkpt>
      <trkpt lat="45.70412" lon="2.96865">
        <ele>989</ele>
        <time>2025-09-28T07:28:16Z</time>
      </trkpt>
      <trkpt lat="45.70409" lon="2.96864">
        <ele>989.2</ele>
        <time>2025-09-28T07:28:17Z</time>
      </trkpt>
      <trkpt lat="45.70407" lon="2.96862">
        <ele>989.2</ele>
        <time>2025-09-28T07:28:18Z</time>
      </trkpt>
      <trkpt lat="45.70404" lon="2.96861">
        <ele>989.4</ele>
        <time>2025-09-28T07:28:19Z</time>
      </trkpt>
      <trkpt lat="45.70401" lon="2.9686">
        <ele>989.4</ele>
        <time>2025-09-28T07:28:20Z</time>
      </trkpt>
      <trkpt lat="45.70397" lon="2.96859">
        <ele>989.4</ele>
        <time>2025-09-28T07:28:21Z</time>
      </trkpt>
      <trkpt lat="45.70393" lon="2.96857">
        <ele>989.6</ele>
        <time>2025-09-28T07:28:22Z</time>
      </trkpt>
      <trkpt lat="45.70389" lon="2.96855">
        <ele>989.8</ele>
        <time>2025-09-28T07:28:23Z</time>
      </trkpt>
      <trkpt lat="45.70386" lon="2.96854">
        <ele>990</ele>
        <time>2025-09-28T07:28:24Z</time>
      </trkpt>
      <trkpt lat="45.70384" lon="2.96853">
        <ele>990.2</ele>
        <time>2025-09-28T07:28:25Z</time>
      </trkpt>
      <trkpt lat="45.70383" lon="2.96852">
        <ele>990.2</ele>
        <time>2025-09-28T07:28:26Z</time>
      </trkpt>
      <trkpt lat="45.70381" lon="2.96852">
        <ele>990.4</ele>
        <time>2025-09-28T07:28:27Z</time>
      </trkpt>
      <trkpt lat="45.70379" lon="2.96851">
        <ele>990.4</ele>
        <time>2025-09-28T07:28:28Z</time>
      </trkpt>
      <trkpt lat="45.70376" lon="2.9685">
        <ele>990.6</ele>
        <time>2025-09-28T07:28:29Z</time>
      </trkpt>
      <trkpt lat="45.70372" lon="2.96849">
        <ele>990.8</ele>
        <time>2025-09-28T07:28:30Z</time>
      </trkpt>
      <trkpt lat="45.70368" lon="2.96848">
        <ele>991</ele>
        <time>2025-09-28T07:28:31Z</time>
      </trkpt>
      <trkpt lat="45.70365" lon="2.96847">
        <ele>991.2</ele>
        <time>2025-09-28T07:28:32Z</time>
      </trkpt>
      <trkpt lat="45.70362" lon="2.96846">
        <ele>991.4</ele>
        <time>2025-09-28T07:28:33Z</time>
      </trkpt>
      <trkpt lat="45.70359" lon="2.96845">
        <ele>991.6</ele>
        <time>2025-09-28T07:28:34Z</time>
      </trkpt>
      <trkpt lat="45.70356" lon="2.96844">
        <ele>991.8</ele>
        <time>2025-09-28T07:28:35Z</time>
      </trkpt>
      <trkpt lat="45.70351" lon="2.96841">
        <ele>992</ele>
        <time>2025-09-28T07:28:36Z</time>
      </trkpt>
      <trkpt lat="45.70346" lon="2.96837">
        <ele>992</ele>
        <time>2025-09-28T07:28:37Z</time>
      </trkpt>
      <trkpt lat="45.7034" lon="2.96833">
        <ele>992</ele>
        <time>2025-09-28T07:28:38Z</time>
      </trkpt>
      <trkpt lat="45.70336" lon="2.9683">
        <ele>992.2</ele>
        <time>2025-09-28T07:28:39Z</time>
      </trkpt>
      <trkpt lat="45.70332" lon="2.96828">
        <ele>992.2</ele>
        <time>2025-09-28T07:28:40Z</time>
      </trkpt>
      <trkpt lat="45.70327" lon="2.96824">
        <ele>992.2</ele>
        <time>2025-09-28T07:28:41Z</time>
      </trkpt>
      <trkpt lat="45.70322" lon="2.96822">
        <ele>992.2</ele>
        <time>2025-09-28T07:28:42Z</time>
      </trkpt>
      <trkpt lat="45.70318" lon="2.96819">
        <ele>992.2</ele>
        <time>2025-09-28T07:28:43Z</time>
      </trkpt>
      <trkpt lat="45.70312" lon="2.96815">
        <ele>992</ele>
        <time>2025-09-28T07:28:44Z</time>
      </trkpt>
      <trkpt lat="45.70306" lon="2.9681">
        <ele>992</ele>
        <time>2025-09-28T07:28:45Z</time>
      </trkpt>
      <trkpt lat="45.703" lon="2.96805">
        <ele>992</ele>
        <time>2025-09-28T07:28:46Z</time>
      </trkpt>
      <trkpt lat="45.70295" lon="2.96801">
        <ele>991.8</ele>
        <time>2025-09-28T07:28:47Z</time>
      </trkpt>
      <trkpt lat="45.7029" lon="2.96798">
        <ele>991.6</ele>
        <time>2025-09-28T07:28:48Z</time>
      </trkpt>
      <trkpt lat="45.70284" lon="2.96794">
        <ele>991.4</ele>
        <time>2025-09-28T07:28:49Z</time>
      </trkpt>
      <trkpt lat="45.70278" lon="2.9679">
        <ele>991.2</ele>
        <time>2025-09-28T07:28:50Z</time>
      </trkpt>
      <trkpt lat="45.70273" lon="2.96786">
        <ele>991.2</ele>
        <time>2025-09-28T07:28:51Z</time>
      </trkpt>
      <trkpt lat="45.70269" lon="2.96784">
        <ele>991</ele>
        <time>2025-09-28T07:28:52Z</time>
      </trkpt>
      <trkpt lat="45.70265" lon="2.96782">
        <ele>991</ele>
        <time>2025-09-28T07:28:53Z</time>
      </trkpt>
      <trkpt lat="45.7026" lon="2.9678">
        <ele>990.8</ele>
        <time>2025-09-28T07:28:54Z</time>
      </trkpt>
      <trkpt lat="45.70254" lon="2.96776">
        <ele>990.8</ele>
        <time>2025-09-28T07:28:55Z</time>
      </trkpt>
      <trkpt lat="45.70248" lon="2.96772">
        <ele>990.6</ele>
        <time>2025-09-28T07:28:56Z</time>
      </trkpt>
      <trkpt lat="45.70242" lon="2.9677">
        <ele>990.4</ele>
        <time>2025-09-28T07:28:57Z</time>
      </trkpt>
      <trkpt lat="45.70236" lon="2.96769">
        <ele>990.2</ele>
        <time>2025-09-28T07:28:58Z</time>
      </trkpt>
      <trkpt lat="45.7023" lon="2.96767">
        <ele>989.8</ele>
        <time>2025-09-28T07:28:59Z</time>
      </trkpt>
      <trkpt lat="45.70224" lon="2.96764">
        <ele>989.4</ele>
        <time>2025-09-28T07:29:00Z</time>
      </trkpt>
      <trkpt lat="45.70218" lon="2.96762">
        <ele>989</ele>
        <time>2025-09-28T07:29:01Z</time>
      </trkpt>
      <trkpt lat="45.7021" lon="2.96759">
        <ele>988.6</ele>
        <time>2025-09-28T07:29:02Z</time>
      </trkpt>
      <trkpt lat="45.70202" lon="2.96755">
        <ele>988.2</ele>
        <time>2025-09-28T07:29:03Z</time>
      </trkpt>
      <trkpt lat="45.70194" lon="2.96749">
        <ele>988</ele>
        <time>2025-09-28T07:29:04Z</time>
      </trkpt>
      <trkpt lat="45.70186" lon="2.96743">
        <ele>987.6</ele>
        <time>2025-09-28T07:29:05Z</time>
      </trkpt>
      <trkpt lat="45.70179" lon="2.96738">
        <ele>987.2</ele>
        <time>2025-09-28T07:29:06Z</time>
      </trkpt>
      <trkpt lat="45.70172" lon="2.96732">
        <ele>987</ele>
        <time>2025-09-28T07:29:07Z</time>
      </trkpt>
      <trkpt lat="45.70166" lon="2.96726">
        <ele>986.8</ele>
        <time>2025-09-28T07:29:08Z</time>
      </trkpt>
      <trkpt lat="45.70161" lon="2.9672">
        <ele>986.4</ele>
        <time>2025-09-28T07:29:09Z</time>
      </trkpt>
      <trkpt lat="45.70158" lon="2.96714">
        <ele>986.2</ele>
        <time>2025-09-28T07:29:10Z</time>
      </trkpt>
      <trkpt lat="45.70155" lon="2.96708">
        <ele>986.2</ele>
        <time>2025-09-28T07:29:11Z</time>
      </trkpt>
      <trkpt lat="45.70151" lon="2.96703">
        <ele>986</ele>
        <time>2025-09-28T07:29:12Z</time>
      </trkpt>
      <trkpt lat="45.70146" lon="2.96699">
        <ele>985.8</ele>
        <time>2025-09-28T07:29:13Z</time>
      </trkpt>
      <trkpt lat="45.70141" lon="2.96694">
        <ele>985.8</ele>
        <time>2025-09-28T07:29:14Z</time>
      </trkpt>
      <trkpt lat="45.70136" lon="2.96688">
        <ele>985.8</ele>
        <time>2025-09-28T07:29:15Z</time>
      </trkpt>
      <trkpt lat="45.70132" lon="2.96681">
        <ele>985.8</ele>
        <time>2025-09-28T07:29:16Z</time>
      </trkpt>
      <trkpt lat="45.70129" lon="2.96674">
        <ele>985.8</ele>
        <time>2025-09-28T07:29:17Z</time>
      </trkpt>
      <trkpt lat="45.70126" lon="2.96667">
        <ele>985.8</ele>
        <time>2025-09-28T07:29:18Z</time>
      </trkpt>
      <trkpt lat="45.70124" lon="2.96659">
        <ele>986</ele>
        <time>2025-09-28T07:29:19Z</time>
      </trkpt>
      <trkpt lat="45.70122" lon="2.96652">
        <ele>986</ele>
        <time>2025-09-28T07:29:20Z</time>
      </trkpt>
      <trkpt lat="45.70121" lon="2.96645">
        <ele>986.2</ele>
        <time>2025-09-28T07:29:21Z</time>
      </trkpt>
      <trkpt lat="45.7012" lon="2.96638">
        <ele>986.2</ele>
        <time>2025-09-28T07:29:22Z</time>
      </trkpt>
      <trkpt lat="45.70119" lon="2.96632">
        <ele>986.4</ele>
        <time>2025-09-28T07:29:23Z</time>
      </trkpt>
      <trkpt lat="45.70118" lon="2.96626">
        <ele>986.6</ele>
        <time>2025-09-28T07:29:24Z</time>
      </trkpt>
      <trkpt lat="45.70117" lon="2.96621">
        <ele>986.8</ele>
        <time>2025-09-28T07:29:25Z</time>
      </trkpt>
      <trkpt lat="45.70116" lon="2.96617">
        <ele>987</ele>
        <time>2025-09-28T07:29:26Z</time>
      </trkpt>
      <trkpt lat="45.70115" lon="2.96613">
        <ele>987.2</ele>
        <time>2025-09-28T07:29:27Z</time>
      </trkpt>
      <trkpt lat="45.70113" lon="2.9661">
        <ele>987.4</ele>
        <time>2025-09-28T07:29:28Z</time>
      </trkpt>
      <trkpt lat="45.70112" lon="2.96606">
        <ele>987.6</ele>
        <time>2025-09-28T07:29:29Z</time>
      </trkpt>
      <trkpt lat="45.7011" lon="2.96602">
        <ele>987.8</ele>
        <time>2025-09-28T07:29:30Z</time>
      </trkpt>
      <trkpt lat="45.70108" lon="2.96598">
        <ele>988</ele>
        <time>2025-09-28T07:29:31Z</time>
      </trkpt>
      <trkpt lat="45.70106" lon="2.96595">
        <ele>988.2</ele>
        <time>2025-09-28T07:29:32Z</time>
      </trkpt>
      <trkpt lat="45.70105" lon="2.96592">
        <ele>988.4</ele>
        <time>2025-09-28T07:29:33Z</time>
      </trkpt>
      <trkpt lat="45.70102" lon="2.96589">
        <ele>988.4</ele>
        <time>2025-09-28T07:29:34Z</time>
      </trkpt>
      <trkpt lat="45.701" lon="2.96587">
        <ele>988.6</ele>
        <time>2025-09-28T07:29:35Z</time>
      </trkpt>
      <trkpt lat="45.70097" lon="2.96585">
        <ele>989</ele>
        <time>2025-09-28T07:29:36Z</time>
      </trkpt>
      <trkpt lat="45.70095" lon="2.96582">
        <ele>989</ele>
        <time>2025-09-28T07:29:37Z</time>
      </trkpt>
      <trkpt lat="45.70093" lon="2.96579">
        <ele>989.2</ele>
        <time>2025-09-28T07:29:38Z</time>
      </trkpt>
      <trkpt lat="45.70091" lon="2.96576">
        <ele>989.4</ele>
        <time>2025-09-28T07:29:39Z</time>
      </trkpt>
      <trkpt lat="45.70088" lon="2.96573">
        <ele>989.6</ele>
        <time>2025-09-28T07:29:40Z</time>
      </trkpt>
      <trkpt lat="45.70087" lon="2.96571">
        <ele>989.8</ele>
        <time>2025-09-28T07:29:41Z</time>
      </trkpt>
      <trkpt lat="45.70086" lon="2.96569">
        <ele>990</ele>
        <time>2025-09-28T07:29:42Z</time>
      </trkpt>
      <trkpt lat="45.70084" lon="2.96567">
        <ele>990</ele>
        <time>2025-09-28T07:29:43Z</time>
      </trkpt>
      <trkpt lat="45.70082" lon="2.96563">
        <ele>990.2</ele>
        <time>2025-09-28T07:29:44Z</time>
      </trkpt>
      <trkpt lat="45.7008" lon="2.96559">
        <ele>990.4</ele>
        <time>2025-09-28T07:29:45Z</time>
      </trkpt>
      <trkpt lat="45.70079" lon="2.96554">
        <ele>990.6</ele>
        <time>2025-09-28T07:29:46Z</time>
      </trkpt>
      <trkpt lat="45.70079" lon="2.9655">
        <ele>990.8</ele>
        <time>2025-09-28T07:29:47Z</time>
      </trkpt>
      <trkpt lat="45.70078" lon="2.96546">
        <ele>991.2</ele>
        <time>2025-09-28T07:29:48Z</time>
      </trkpt>
      <trkpt lat="45.70077" lon="2.96541">
        <ele>991.4</ele>
        <time>2025-09-28T07:29:49Z</time>
      </trkpt>
      <trkpt lat="45.70075" lon="2.96536">
        <ele>991.6</ele>
        <time>2025-09-28T07:29:50Z</time>
      </trkpt>
      <trkpt lat="45.70075" lon="2.96531">
        <ele>991.8</ele>
        <time>2025-09-28T07:29:51Z</time>
      </trkpt>
      <trkpt lat="45.70074" lon="2.96526">
        <ele>992</ele>
        <time>2025-09-28T07:29:52Z</time>
      </trkpt>
      <trkpt lat="45.70073" lon="2.96523">
        <ele>992.2</ele>
        <time>2025-09-28T07:29:53Z</time>
      </trkpt>
      <trkpt lat="45.70073" lon="2.96519">
        <ele>992.4</ele>
        <time>2025-09-28T07:29:54Z</time>
      </trkpt>
      <trkpt lat="45.70072" lon="2.96514">
        <ele>992.6</ele>
        <time>2025-09-28T07:29:55Z</time>
      </trkpt>
      <trkpt lat="45.70071" lon="2.9651">
        <ele>992.8</ele>
        <time>2025-09-28T07:29:56Z</time>
      </trkpt>
      <trkpt lat="45.7007" lon="2.96506">
        <ele>993</ele>
        <time>2025-09-28T07:29:57Z</time>
      </trkpt>
      <trkpt lat="45.7007" lon="2.96502">
        <ele>993.2</ele>
        <time>2025-09-28T07:29:58Z</time>
      </trkpt>
      <trkpt lat="45.7007" lon="2.96496">
        <ele>993.4</ele>
        <time>2025-09-28T07:29:59Z</time>
      </trkpt>
      <trkpt lat="45.70071" lon="2.96491">
        <ele>993.8</ele>
        <time>2025-09-28T07:30:00Z</time>
      </trkpt>
      <trkpt lat="45.70068" lon="2.96486">
        <ele>994</ele>
        <time>2025-09-28T07:30:01Z</time>
      </trkpt>
      <trkpt lat="45.70063" lon="2.9648">
        <ele>994.2</ele>
        <time>2025-09-28T07:30:02Z</time>
      </trkpt>
      <trkpt lat="45.70059" lon="2.96474">
        <ele>994.6</ele>
        <time>2025-09-28T07:30:03Z</time>
      </trkpt>
      <trkpt lat="45.70057" lon="2.96469">
        <ele>994.8</ele>
        <time>2025-09-28T07:30:04Z</time>
      </trkpt>
      <trkpt lat="45.70057" lon="2.96466">
        <ele>995</ele>
        <time>2025-09-28T07:30:05Z</time>
      </trkpt>
      <trkpt lat="45.70056" lon="2.96464">
        <ele>995.2</ele>
        <time>2025-09-28T07:30:06Z</time>
      </trkpt>
      <trkpt lat="45.70056" lon="2.9646">
        <ele>995.6</ele>
        <time>2025-09-28T07:30:07Z</time>
      </trkpt>
      <trkpt lat="45.70056" lon="2.96457">
        <ele>995.8</ele>
        <time>2025-09-28T07:30:08Z</time>
      </trkpt>
      <trkpt lat="45.70058" lon="2.96453">
        <ele>996</ele>
        <time>2025-09-28T07:30:09Z</time>
      </trkpt>
      <trkpt lat="45.70058" lon="2.96449">
        <ele>996.2</ele>
        <time>2025-09-28T07:30:10Z</time>
      </trkpt>
      <trkpt lat="45.70059" lon="2.96444">
        <ele>996.4</ele>
        <time>2025-09-28T07:30:11Z</time>
      </trkpt>
      <trkpt lat="45.7006" lon="2.96439">
        <ele>996.6</ele>
        <time>2025-09-28T07:30:12Z</time>
      </trkpt>
      <trkpt lat="45.70061" lon="2.96434">
        <ele>996.8</ele>
        <time>2025-09-28T07:30:13Z</time>
      </trkpt>
      <trkpt lat="45.70063" lon="2.96428">
        <ele>997</ele>
        <time>2025-09-28T07:30:14Z</time>
      </trkpt>
      <trkpt lat="45.70066" lon="2.96423">
        <ele>997.2</ele>
        <time>2025-09-28T07:30:15Z</time>
      </trkpt>
      <trkpt lat="45.70069" lon="2.96417">
        <ele>997.4</ele>
        <time>2025-09-28T07:30:16Z</time>
      </trkpt>
      <trkpt lat="45.70069" lon="2.96411">
        <ele>997.6</ele>
        <time>2025-09-28T07:30:17Z</time>
      </trkpt>
      <trkpt lat="45.70068" lon="2.96406">
        <ele>997.8</ele>
        <time>2025-09-28T07:30:18Z</time>
      </trkpt>
      <trkpt lat="45.70067" lon="2.96402">
        <ele>998</ele>
        <time>2025-09-28T07:30:19Z</time>
      </trkpt>
      <trkpt lat="45.70067" lon="2.96399">
        <ele>998.4</ele>
        <time>2025-09-28T07:30:20Z</time>
      </trkpt>
      <trkpt lat="45.70065" lon="2.96396">
        <ele>998.6</ele>
        <time>2025-09-28T07:30:21Z</time>
      </trkpt>
      <trkpt lat="45.70063" lon="2.96393">
        <ele>998.8</ele>
        <time>2025-09-28T07:30:22Z</time>
      </trkpt>
      <trkpt lat="45.70062" lon="2.96389">
        <ele>999</ele>
        <time>2025-09-28T07:30:23Z</time>
      </trkpt>
      <trkpt lat="45.70062" lon="2.96384">
        <ele>999.2</ele>
        <time>2025-09-28T07:30:24Z</time>
      </trkpt>
      <trkpt lat="45.70062" lon="2.9638">
        <ele>999.4</ele>
        <time>2025-09-28T07:30:25Z</time>
      </trkpt>
      <trkpt lat="45.70062" lon="2.96375">
        <ele>999.6</ele>
        <time>2025-09-28T07:30:26Z</time>
      </trkpt>
      <trkpt lat="45.70062" lon="2.9637">
        <ele>999.8</ele>
        <time>2025-09-28T07:30:27Z</time>
      </trkpt>
      <trkpt lat="45.70062" lon="2.96364">
        <ele>1000</ele>
        <time>2025-09-28T07:30:28Z</time>
      </trkpt>
      <trkpt lat="45.70062" lon="2.96358">
        <ele>1000.2</ele>
        <time>2025-09-28T07:30:29Z</time>
      </trkpt>
      <trkpt lat="45.70062" lon="2.96353">
        <ele>1000.4</ele>
        <time>2025-09-28T07:30:30Z</time>
      </trkpt>
      <trkpt lat="45.70062" lon="2.96348">
        <ele>1000.6</ele>
        <time>2025-09-28T07:30:31Z</time>
      </trkpt>
      <trkpt lat="45.70064" lon="2.96344">
        <ele>1000.8</ele>
        <time>2025-09-28T07:30:32Z</time>
      </trkpt>
      <trkpt lat="45.70065" lon="2.96341">
        <ele>1001</ele>
        <time>2025-09-28T07:30:33Z</time>
      </trkpt>
      <trkpt lat="45.70066" lon="2.96338">
        <ele>1001.4</ele>
        <time>2025-09-28T07:30:34Z</time>
      </trkpt>
      <trkpt lat="45.70067" lon="2.96335">
        <ele>1001.6</ele>
        <time>2025-09-28T07:30:35Z</time>
      </trkpt>
      <trkpt lat="45.70067" lon="2.96331">
        <ele>1001.8</ele>
        <time>2025-09-28T07:30:36Z</time>
      </trkpt>
      <trkpt lat="45.70068" lon="2.96327">
        <ele>1002</ele>
        <time>2025-09-28T07:30:37Z</time>
      </trkpt>
      <trkpt lat="45.70068" lon="2.96325">
        <ele>1002.2</ele>
        <time>2025-09-28T07:30:38Z</time>
      </trkpt>
      <trkpt lat="45.70068" lon="2.96323">
        <ele>1002.4</ele>
        <time>2025-09-28T07:30:39Z</time>
      </trkpt>
      <trkpt lat="45.70069" lon="2.96322">
        <ele>1002.4</ele>
        <time>2025-09-28T07:30:40Z</time>
      </trkpt>
      <trkpt lat="45.70069" lon="2.96322">
        <ele>1002.4</ele>
        <time>2025-09-28T07:30:41Z</time>
      </trkpt>
      <trkpt lat="45.70067" lon="2.96322">
        <ele>1002.6</ele>
        <time>2025-09-28T07:31:37Z</time>
      </trkpt>
      <trkpt lat="45.70068" lon="2.9632">
        <ele>1002.6</ele>
        <time>2025-09-28T07:31:38Z</time>
      </trkpt>
      <trkpt lat="45.70068" lon="2.96319">
        <ele>1002.6</ele>
        <time>2025-09-28T07:31:39Z</time>
      </trkpt>
      <trkpt lat="45.70069" lon="2.96316">
        <ele>1002.6</ele>
        <time>2025-09-28T07:31:40Z</time>
      </trkpt>
      <trkpt lat="45.7007" lon="2.96314">
        <ele>1002.4</ele>
        <time>2025-09-28T07:31:41Z</time>
      </trkpt>
      <trkpt lat="45.70071" lon="2.9631">
        <ele>1002.2</ele>
        <time>2025-09-28T07:31:42Z</time>
      </trkpt>
      <trkpt lat="45.70072" lon="2.96306">
        <ele>1002</ele>
        <time>2025-09-28T07:31:43Z</time>
      </trkpt>
      <trkpt lat="45.70072" lon="2.96302">
        <ele>1001.8</ele>
        <time>2025-09-28T07:31:44Z</time>
      </trkpt>
      <trkpt lat="45.70072" lon="2.96298">
        <ele>1001.6</ele>
        <time>2025-09-28T07:31:45Z</time>
      </trkpt>
      <trkpt lat="45.70073" lon="2.96294">
        <ele>1001.4</ele>
        <time>2025-09-28T07:31:46Z</time>
      </trkpt>
      <trkpt lat="45.70073" lon="2.9629">
        <ele>1001.4</ele>
        <time>2025-09-28T07:31:47Z</time>
      </trkpt>
      <trkpt lat="45.70075" lon="2.96287">
        <ele>1001.2</ele>
        <time>2025-09-28T07:31:48Z</time>
      </trkpt>
      <trkpt lat="45.70077" lon="2.96283">
        <ele>1001</ele>
        <time>2025-09-28T07:31:49Z</time>
      </trkpt>
      <trkpt lat="45.70079" lon="2.96279">
        <ele>1000.8</ele>
        <time>2025-09-28T07:31:50Z</time>
      </trkpt>
      <trkpt lat="45.7008" lon="2.96274">
        <ele>1000.6</ele>
        <time>2025-09-28T07:31:51Z</time>
      </trkpt>
      <trkpt lat="45.70082" lon="2.96268">
        <ele>1000.4</ele>
        <time>2025-09-28T07:31:52Z</time>
      </trkpt>
      <trkpt lat="45.70084" lon="2.96262">
        <ele>1000.2</ele>
        <time>2025-09-28T07:31:53Z</time>
      </trkpt>
      <trkpt lat="45.70086" lon="2.96256">
        <ele>1000</ele>
        <time>2025-09-28T07:31:54Z</time>
      </trkpt>
      <trkpt lat="45.70089" lon="2.96249">
        <ele>999.8</ele>
        <time>2025-09-28T07:31:55Z</time>
      </trkpt>
      <trkpt lat="45.70092" lon="2.96242">
        <ele>999.6</ele>
        <time>2025-09-28T07:31:56Z</time>
      </trkpt>
      <trkpt lat="45.70095" lon="2.96235">
        <ele>999.4</ele>
        <time>2025-09-28T07:31:57Z</time>
      </trkpt>
      <trkpt lat="45.70099" lon="2.96227">
        <ele>999</ele>
        <time>2025-09-28T07:31:58Z</time>
      </trkpt>
      <trkpt lat="45.70102" lon="2.9622">
        <ele>998.8</ele>
        <time>2025-09-28T07:31:59Z</time>
      </trkpt>
      <trkpt lat="45.70105" lon="2.96213">
        <ele>998.6</ele>
        <time>2025-09-28T07:32:00Z</time>
      </trkpt>
      <trkpt lat="45.70108" lon="2.96205">
        <ele>998.4</ele>
        <time>2025-09-28T07:32:01Z</time>
      </trkpt>
      <trkpt lat="45.70112" lon="2.96197">
        <ele>998</ele>
        <time>2025-09-28T07:32:02Z</time>
      </trkpt>
      <trkpt lat="45.70115" lon="2.96189">
        <ele>997.8</ele>
        <time>2025-09-28T07:32:03Z</time>
      </trkpt>
      <trkpt lat="45.70119" lon="2.96182">
        <ele>997.6</ele>
        <time>2025-09-28T07:32:04Z</time>
      </trkpt>
      <trkpt lat="45.70122" lon="2.96175">
        <ele>997.2</ele>
        <time>2025-09-28T07:32:05Z</time>
      </trkpt>
      <trkpt lat="45.70126" lon="2.96169">
        <ele>997</ele>
        <time>2025-09-28T07:32:06Z</time>
      </trkpt>
      <trkpt lat="45.7013" lon="2.96162">
        <ele>996.8</ele>
        <time>2025-09-28T07:32:07Z</time>
      </trkpt>
      <trkpt lat="45.70133" lon="2.96154">
        <ele>996.6</ele>
        <time>2025-09-28T07:32:08Z</time>
      </trkpt>
      <trkpt lat="45.70136" lon="2.96146">
        <ele>996.4</ele>
        <time>2025-09-28T07:32:09Z</time>
      </trkpt>
      <trkpt lat="45.7014" lon="2.96139">
        <ele>996.2</ele>
        <time>2025-09-28T07:32:10Z</time>
      </trkpt>
      <trkpt lat="45.70144" lon="2.96132">
        <ele>996.2</ele>
        <time>2025-09-28T07:32:11Z</time>
      </trkpt>
      <trkpt lat="45.70149" lon="2.96125">
        <ele>996</ele>
        <time>2025-09-28T07:32:12Z</time>
      </trkpt>
      <trkpt lat="45.70153" lon="2.96117">
        <ele>995.8</ele>
        <time>2025-09-28T07:32:13Z</time>
      </trkpt>
      <trkpt lat="45.70157" lon="2.96111">
        <ele>995.6</ele>
        <time>2025-09-28T07:32:14Z</time>
      </trkpt>
      <trkpt lat="45.70161" lon="2.96105">
        <ele>995.6</ele>
        <time>2025-09-28T07:32:15Z</time>
      </trkpt>
      <trkpt lat="45.70164" lon="2.961">
        <ele>995.4</ele>
        <time>2025-09-28T07:32:16Z</time>
      </trkpt>
      <trkpt lat="45.70168" lon="2.96093">
        <ele>995.4</ele>
        <time>2025-09-28T07:32:17Z</time>
      </trkpt>
      <trkpt lat="45.70171" lon="2.96084">
        <ele>995.4</ele>
        <time>2025-09-28T07:32:18Z</time>
      </trkpt>
      <trkpt lat="45.70175" lon="2.96075">
        <ele>995.4</ele>
        <time>2025-09-28T07:32:19Z</time>
      </trkpt>
      <trkpt lat="45.70178" lon="2.96069">
        <ele>995.4</ele>
        <time>2025-09-28T07:32:20Z</time>
      </trkpt>
      <trkpt lat="45.70181" lon="2.96064">
        <ele>995.4</ele>
        <time>2025-09-28T07:32:21Z</time>
      </trkpt>
      <trkpt lat="45.70184" lon="2.9606">
        <ele>995.6</ele>
        <time>2025-09-28T07:32:22Z</time>
      </trkpt>
      <trkpt lat="45.70186" lon="2.96057">
        <ele>995.6</ele>
        <time>2025-09-28T07:32:23Z</time>
      </trkpt>
      <trkpt lat="45.70188" lon="2.96051">
        <ele>995.8</ele>
        <time>2025-09-28T07:32:24Z</time>
      </trkpt>
      <trkpt lat="45.70191" lon="2.96044">
        <ele>996</ele>
        <time>2025-09-28T07:32:25Z</time>
      </trkpt>
      <trkpt lat="45.70195" lon="2.96039">
        <ele>996.2</ele>
        <time>2025-09-28T07:32:26Z</time>
      </trkpt>
      <trkpt lat="45.70199" lon="2.96035">
        <ele>996.2</ele>
        <time>2025-09-28T07:32:27Z</time>
      </trkpt>
      <trkpt lat="45.70203" lon="2.96031">
        <ele>996.4</ele>
        <time>2025-09-28T07:32:28Z</time>
      </trkpt>
      <trkpt lat="45.70206" lon="2.96026">
        <ele>996.6</ele>
        <time>2025-09-28T07:32:29Z</time>
      </trkpt>
      <trkpt lat="45.70209" lon="2.96021">
        <ele>996.6</ele>
        <time>2025-09-28T07:32:30Z</time>
      </trkpt>
      <trkpt lat="45.70212" lon="2.96017">
        <ele>996.6</ele>
        <time>2025-09-28T07:32:31Z</time>
      </trkpt>
      <trkpt lat="45.70216" lon="2.96011">
        <ele>996.8</ele>
        <time>2025-09-28T07:32:32Z</time>
      </trkpt>
      <trkpt lat="45.70218" lon="2.96006">
        <ele>996.8</ele>
        <time>2025-09-28T07:32:33Z</time>
      </trkpt>
      <trkpt lat="45.7022" lon="2.96001">
        <ele>996.8</ele>
        <time>2025-09-28T07:32:34Z</time>
      </trkpt>
      <trkpt lat="45.70221" lon="2.95996">
        <ele>996.8</ele>
        <time>2025-09-28T07:32:35Z</time>
      </trkpt>
      <trkpt lat="45.70221" lon="2.95991">
        <ele>996.8</ele>
        <time>2025-09-28T07:32:36Z</time>
      </trkpt>
      <trkpt lat="45.70222" lon="2.95985">
        <ele>996.8</ele>
        <time>2025-09-28T07:32:37Z</time>
      </trkpt>
      <trkpt lat="45.70225" lon="2.95979">
        <ele>996.8</ele>
        <time>2025-09-28T07:32:38Z</time>
      </trkpt>
      <trkpt lat="45.70227" lon="2.9597">
        <ele>996.8</ele>
        <time>2025-09-28T07:32:39Z</time>
      </trkpt>
      <trkpt lat="45.70229" lon="2.9596">
        <ele>996.8</ele>
        <time>2025-09-28T07:32:40Z</time>
      </trkpt>
      <trkpt lat="45.70229" lon="2.9595">
        <ele>996.6</ele>
        <time>2025-09-28T07:32:41Z</time>
      </trkpt>
      <trkpt lat="45.70228" lon="2.95941">
        <ele>996.4</ele>
        <time>2025-09-28T07:32:42Z</time>
      </trkpt>
      <trkpt lat="45.70228" lon="2.95932">
        <ele>996.4</ele>
        <time>2025-09-28T07:32:43Z</time>
      </trkpt>
      <trkpt lat="45.70228" lon="2.95924">
        <ele>996.2</ele>
        <time>2025-09-28T07:32:44Z</time>
      </trkpt>
      <trkpt lat="45.70229" lon="2.95917">
        <ele>996.2</ele>
        <time>2025-09-28T07:32:45Z</time>
      </trkpt>
      <trkpt lat="45.70229" lon="2.95911">
        <ele>996.2</ele>
        <time>2025-09-28T07:32:46Z</time>
      </trkpt>
      <trkpt lat="45.70227" lon="2.95905">
        <ele>996</ele>
        <time>2025-09-28T07:32:47Z</time>
      </trkpt>
      <trkpt lat="45.70225" lon="2.959">
        <ele>996</ele>
        <time>2025-09-28T07:32:48Z</time>
      </trkpt>
      <trkpt lat="45.70222" lon="2.95895">
        <ele>996</ele>
        <time>2025-09-28T07:32:49Z</time>
      </trkpt>
      <trkpt lat="45.7022" lon="2.95891">
        <ele>995.8</ele>
        <time>2025-09-28T07:32:50Z</time>
      </trkpt>
      <trkpt lat="45.70218" lon="2.95886">
        <ele>995.8</ele>
        <time>2025-09-28T07:32:51Z</time>
      </trkpt>
      <trkpt lat="45.70216" lon="2.95881">
        <ele>995.8</ele>
        <time>2025-09-28T07:32:52Z</time>
      </trkpt>
      <trkpt lat="45.70214" lon="2.95877">
        <ele>995.8</ele>
        <time>2025-09-28T07:32:53Z</time>
      </trkpt>
      <trkpt lat="45.70211" lon="2.95872">
        <ele>995.8</ele>
        <time>2025-09-28T07:32:54Z</time>
      </trkpt>
      <trkpt lat="45.70209" lon="2.95868">
        <ele>996</ele>
        <time>2025-09-28T07:32:55Z</time>
      </trkpt>
      <trkpt lat="45.70207" lon="2.95865">
        <ele>996</ele>
        <time>2025-09-28T07:32:56Z</time>
      </trkpt>
      <trkpt lat="45.70205" lon="2.95861">
        <ele>996</ele>
        <time>2025-09-28T07:32:57Z</time>
      </trkpt>
      <trkpt lat="45.70204" lon="2.95857">
        <ele>996</ele>
        <time>2025-09-28T07:32:58Z</time>
      </trkpt>
      <trkpt lat="45.70203" lon="2.95854">
        <ele>996</ele>
        <time>2025-09-28T07:32:59Z</time>
      </trkpt>
      <trkpt lat="45.70201" lon="2.9585">
        <ele>996.2</ele>
        <time>2025-09-28T07:33:00Z</time>
      </trkpt>
      <trkpt lat="45.70198" lon="2.95844">
        <ele>996.2</ele>
        <time>2025-09-28T07:33:01Z</time>
      </trkpt>
      <trkpt lat="45.70196" lon="2.95838">
        <ele>996.2</ele>
        <time>2025-09-28T07:33:02Z</time>
      </trkpt>
      <trkpt lat="45.70194" lon="2.95832">
        <ele>996.2</ele>
        <time>2025-09-28T07:33:03Z</time>
      </trkpt>
      <trkpt lat="45.70192" lon="2.95826">
        <ele>996.4</ele>
        <time>2025-09-28T07:33:04Z</time>
      </trkpt>
      <trkpt lat="45.7019" lon="2.9582">
        <ele>996.6</ele>
        <time>2025-09-28T07:33:05Z</time>
      </trkpt>
      <trkpt lat="45.70188" lon="2.95815">
        <ele>996.8</ele>
        <time>2025-09-28T07:33:06Z</time>
      </trkpt>
      <trkpt lat="45.70187" lon="2.9581">
        <ele>997</ele>
        <time>2025-09-28T07:33:07Z</time>
      </trkpt>
      <trkpt lat="45.70185" lon="2.95805">
        <ele>997.2</ele>
        <time>2025-09-28T07:33:08Z</time>
      </trkpt>
      <trkpt lat="45.70184" lon="2.95801">
        <ele>997.2</ele>
        <time>2025-09-28T07:33:09Z</time>
      </trkpt>
      <trkpt lat="45.70182" lon="2.95796">
        <ele>997.4</ele>
        <time>2025-09-28T07:33:10Z</time>
      </trkpt>
      <trkpt lat="45.70179" lon="2.95791">
        <ele>997.4</ele>
        <time>2025-09-28T07:33:11Z</time>
      </trkpt>
      <trkpt lat="45.70177" lon="2.95787">
        <ele>997.4</ele>
        <time>2025-09-28T07:33:12Z</time>
      </trkpt>
      <trkpt lat="45.70174" lon="2.95782">
        <ele>997.4</ele>
        <time>2025-09-28T07:33:13Z</time>
      </trkpt>
      <trkpt lat="45.70172" lon="2.95775">
        <ele>997.4</ele>
        <time>2025-09-28T07:33:14Z</time>
      </trkpt>
      <trkpt lat="45.70169" lon="2.95769">
        <ele>997.6</ele>
        <time>2025-09-28T07:33:15Z</time>
      </trkpt>
      <trkpt lat="45.70166" lon="2.95761">
        <ele>997.6</ele>
        <time>2025-09-28T07:33:16Z</time>
      </trkpt>
      <trkpt lat="45.70163" lon="2.95753">
        <ele>997.6</ele>
        <time>2025-09-28T07:33:17Z</time>
      </trkpt>
      <trkpt lat="45.7016" lon="2.95746">
        <ele>997.6</ele>
        <time>2025-09-28T07:33:18Z</time>
      </trkpt>
      <trkpt lat="45.70158" lon="2.95741">
        <ele>997.6</ele>
        <time>2025-09-28T07:33:19Z</time>
      </trkpt>
      <trkpt lat="45.70155" lon="2.95737">
        <ele>997.8</ele>
        <time>2025-09-28T07:33:20Z</time>
      </trkpt>
      <trkpt lat="45.70151" lon="2.95734">
        <ele>997.8</ele>
        <time>2025-09-28T07:33:21Z</time>
      </trkpt>
      <trkpt lat="45.70146" lon="2.95731">
        <ele>997.8</ele>
        <time>2025-09-28T07:33:22Z</time>
      </trkpt>
      <trkpt lat="45.70142" lon="2.95728">
        <ele>997.8</ele>
        <time>2025-09-28T07:33:23Z</time>
      </trkpt>
      <trkpt lat="45.70137" lon="2.95725">
        <ele>998</ele>
        <time>2025-09-28T07:33:24Z</time>
      </trkpt>
      <trkpt lat="45.70131" lon="2.95722">
        <ele>998</ele>
        <time>2025-09-28T07:33:25Z</time>
      </trkpt>
      <trkpt lat="45.70127" lon="2.9572">
        <ele>998.2</ele>
        <time>2025-09-28T07:33:26Z</time>
      </trkpt>
      <trkpt lat="45.70124" lon="2.95718">
        <ele>998.2</ele>
        <time>2025-09-28T07:33:27Z</time>
      </trkpt>
      <trkpt lat="45.70122" lon="2.95716">
        <ele>998.2</ele>
        <time>2025-09-28T07:33:28Z</time>
      </trkpt>
      <trkpt lat="45.70118" lon="2.95713">
        <ele>998.4</ele>
        <time>2025-09-28T07:33:29Z</time>
      </trkpt>
      <trkpt lat="45.70113" lon="2.95711">
        <ele>998.4</ele>
        <time>2025-09-28T07:33:30Z</time>
      </trkpt>
      <trkpt lat="45.70108" lon="2.95709">
        <ele>998.6</ele>
        <time>2025-09-28T07:33:31Z</time>
      </trkpt>
      <trkpt lat="45.70104" lon="2.95708">
        <ele>998.6</ele>
        <time>2025-09-28T07:33:32Z</time>
      </trkpt>
      <trkpt lat="45.70099" lon="2.95707">
        <ele>998.8</ele>
        <time>2025-09-28T07:33:33Z</time>
      </trkpt>
      <trkpt lat="45.70094" lon="2.95707">
        <ele>998.8</ele>
        <time>2025-09-28T07:33:34Z</time>
      </trkpt>
      <trkpt lat="45.7009" lon="2.95708">
        <ele>999</ele>
        <time>2025-09-28T07:33:35Z</time>
      </trkpt>
      <trkpt lat="45.70085" lon="2.95708">
        <ele>999</ele>
        <time>2025-09-28T07:33:36Z</time>
      </trkpt>
      <trkpt lat="45.7008" lon="2.95708">
        <ele>999</ele>
        <time>2025-09-28T07:33:37Z</time>
      </trkpt>
      <trkpt lat="45.70076" lon="2.95707">
        <ele>999.2</ele>
        <time>2025-09-28T07:33:38Z</time>
      </trkpt>
      <trkpt lat="45.70072" lon="2.95706">
        <ele>999.4</ele>
        <time>2025-09-28T07:33:39Z</time>
      </trkpt>
      <trkpt lat="45.70067" lon="2.95705">
        <ele>999.6</ele>
        <time>2025-09-28T07:33:40Z</time>
      </trkpt>
      <trkpt lat="45.70062" lon="2.95703">
        <ele>999.8</ele>
        <time>2025-09-28T07:33:41Z</time>
      </trkpt>
      <trkpt lat="45.70057" lon="2.957">
        <ele>1000</ele>
        <time>2025-09-28T07:33:42Z</time>
      </trkpt>
      <trkpt lat="45.70054" lon="2.95699">
        <ele>1000.2</ele>
        <time>2025-09-28T07:33:43Z</time>
      </trkpt>
      <trkpt lat="45.70051" lon="2.95699">
        <ele>1000.4</ele>
        <time>2025-09-28T07:33:44Z</time>
      </trkpt>
      <trkpt lat="45.70049" lon="2.95699">
        <ele>1000.6</ele>
        <time>2025-09-28T07:33:45Z</time>
      </trkpt>
      <trkpt lat="45.70046" lon="2.95699">
        <ele>1000.8</ele>
        <time>2025-09-28T07:33:46Z</time>
      </trkpt>
      <trkpt lat="45.70042" lon="2.95698">
        <ele>1001</ele>
        <time>2025-09-28T07:33:47Z</time>
      </trkpt>
      <trkpt lat="45.70037" lon="2.95695">
        <ele>1001.2</ele>
        <time>2025-09-28T07:33:48Z</time>
      </trkpt>
      <trkpt lat="45.70033" lon="2.95691">
        <ele>1001.2</ele>
        <time>2025-09-28T07:33:49Z</time>
      </trkpt>
      <trkpt lat="45.70031" lon="2.9569">
        <ele>1001.4</ele>
        <time>2025-09-28T07:33:50Z</time>
      </trkpt>
      <trkpt lat="45.70029" lon="2.95688">
        <ele>1001.6</ele>
        <time>2025-09-28T07:33:51Z</time>
      </trkpt>
      <trkpt lat="45.70027" lon="2.95688">
        <ele>1001.8</ele>
        <time>2025-09-28T07:33:52Z</time>
      </trkpt>
      <trkpt lat="45.70025" lon="2.95687">
        <ele>1002</ele>
        <time>2025-09-28T07:33:53Z</time>
      </trkpt>
      <trkpt lat="45.70023" lon="2.95685">
        <ele>1002.4</ele>
        <time>2025-09-28T07:33:54Z</time>
      </trkpt>
      <trkpt lat="45.7002" lon="2.95682">
        <ele>1002.6</ele>
        <time>2025-09-28T07:33:55Z</time>
      </trkpt>
      <trkpt lat="45.70018" lon="2.95679">
        <ele>1002.8</ele>
        <time>2025-09-28T07:33:56Z</time>
      </trkpt>
      <trkpt lat="45.70017" lon="2.95677">
        <ele>1003</ele>
        <time>2025-09-28T07:33:57Z</time>
      </trkpt>
      <trkpt lat="45.70016" lon="2.95674">
        <ele>1003.2</ele>
        <time>2025-09-28T07:33:58Z</time>
      </trkpt>
      <trkpt lat="45.70015" lon="2.9567">
        <ele>1003.4</ele>
        <time>2025-09-28T07:33:59Z</time>
      </trkpt>
      <trkpt lat="45.70013" lon="2.95665">
        <ele>1003.8</ele>
        <time>2025-09-28T07:34:00Z</time>
      </trkpt>
      <trkpt lat="45.70011" lon="2.95659">
        <ele>1004</ele>
        <time>2025-09-28T07:34:01Z</time>
      </trkpt>
      <trkpt lat="45.70008" lon="2.95654">
        <ele>1004.2</ele>
        <time>2025-09-28T07:34:02Z</time>
      </trkpt>
      <trkpt lat="45.70006" lon="2.95648">
        <ele>1004.4</ele>
        <time>2025-09-28T07:34:03Z</time>
      </trkpt>
      <trkpt lat="45.70005" lon="2.95644">
        <ele>1004.6</ele>
        <time>2025-09-28T07:34:04Z</time>
      </trkpt>
      <trkpt lat="45.70005" lon="2.95639">
        <ele>1005</ele>
        <time>2025-09-28T07:34:05Z</time>
      </trkpt>
      <trkpt lat="45.70005" lon="2.95634">
        <ele>1005.2</ele>
        <time>2025-09-28T07:34:06Z</time>
      </trkpt>
      <trkpt lat="45.70004" lon="2.9563">
        <ele>1005.4</ele>
        <time>2025-09-28T07:34:07Z</time>
      </trkpt>
      <trkpt lat="45.70002" lon="2.95625">
        <ele>1005.8</ele>
        <time>2025-09-28T07:34:08Z</time>
      </trkpt>
      <trkpt lat="45.70003" lon="2.9562">
        <ele>1006</ele>
        <time>2025-09-28T07:34:09Z</time>
      </trkpt>
      <trkpt lat="45.70003" lon="2.95614">
        <ele>1006.4</ele>
        <time>2025-09-28T07:34:10Z</time>
      </trkpt>
      <trkpt lat="45.70004" lon="2.9561">
        <ele>1006.6</ele>
        <time>2025-09-28T07:34:11Z</time>
      </trkpt>
      <trkpt lat="45.70005" lon="2.95607">
        <ele>1006.8</ele>
        <time>2025-09-28T07:34:12Z</time>
      </trkpt>
      <trkpt lat="45.70005" lon="2.95604">
        <ele>1007</ele>
        <time>2025-09-28T07:34:13Z</time>
      </trkpt>
      <trkpt lat="45.70006" lon="2.95601">
        <ele>1007.2</ele>
        <time>2025-09-28T07:34:14Z</time>
      </trkpt>
      <trkpt lat="45.70007" lon="2.95597">
        <ele>1007.6</ele>
        <time>2025-09-28T07:34:15Z</time>
      </trkpt>
      <trkpt lat="45.70007" lon="2.95593">
        <ele>1007.8</ele>
        <time>2025-09-28T07:34:16Z</time>
      </trkpt>
      <trkpt lat="45.70007" lon="2.95588">
        <ele>1008.2</ele>
        <time>2025-09-28T07:34:17Z</time>
      </trkpt>
      <trkpt lat="45.70006" lon="2.95583">
        <ele>1008.4</ele>
        <time>2025-09-28T07:34:18Z</time>
      </trkpt>
      <trkpt lat="45.70004" lon="2.95579">
        <ele>1008.6</ele>
        <time>2025-09-28T07:34:19Z</time>
      </trkpt>
      <trkpt lat="45.70003" lon="2.95573">
        <ele>1009</ele>
        <time>2025-09-28T07:34:20Z</time>
      </trkpt>
      <trkpt lat="45.70003" lon="2.95567">
        <ele>1009.2</ele>
        <time>2025-09-28T07:34:21Z</time>
      </trkpt>
      <trkpt lat="45.70003" lon="2.9556">
        <ele>1009.6</ele>
        <time>2025-09-28T07:34:22Z</time>
      </trkpt>
      <trkpt lat="45.70002" lon="2.95554">
        <ele>1009.8</ele>
        <time>2025-09-28T07:34:23Z</time>
      </trkpt>
      <trkpt lat="45.7" lon="2.95548">
        <ele>1010</ele>
        <time>2025-09-28T07:34:24Z</time>
      </trkpt>
      <trkpt lat="45.69999" lon="2.95544">
        <ele>1010.2</ele>
        <time>2025-09-28T07:34:25Z</time>
      </trkpt>
      <trkpt lat="45.7" lon="2.9554">
        <ele>1010.4</ele>
        <time>2025-09-28T07:34:26Z</time>
      </trkpt>
      <trkpt lat="45.70002" lon="2.95535">
        <ele>1010.8</ele>
        <time>2025-09-28T07:34:27Z</time>
      </trkpt>
      <trkpt lat="45.70003" lon="2.9553">
        <ele>1011</ele>
        <time>2025-09-28T07:34:28Z</time>
      </trkpt>
      <trkpt lat="45.70004" lon="2.95524">
        <ele>1011.2</ele>
        <time>2025-09-28T07:34:29Z</time>
      </trkpt>
      <trkpt lat="45.70004" lon="2.95519">
        <ele>1011.4</ele>
        <time>2025-09-28T07:34:30Z</time>
      </trkpt>
      <trkpt lat="45.70005" lon="2.95514">
        <ele>1011.6</ele>
        <time>2025-09-28T07:34:31Z</time>
      </trkpt>
      <trkpt lat="45.70005" lon="2.95509">
        <ele>1011.8</ele>
        <time>2025-09-28T07:34:32Z</time>
      </trkpt>
      <trkpt lat="45.70004" lon="2.95505">
        <ele>1012</ele>
        <time>2025-09-28T07:34:33Z</time>
      </trkpt>
      <trkpt lat="45.70004" lon="2.955">
        <ele>1012.2</ele>
        <time>2025-09-28T07:34:34Z</time>
      </trkpt>
      <trkpt lat="45.70004" lon="2.95494">
        <ele>1012.4</ele>
        <time>2025-09-28T07:34:35Z</time>
      </trkpt>
      <trkpt lat="45.70005" lon="2.95487">
        <ele>1012.6</ele>
        <time>2025-09-28T07:34:36Z</time>
      </trkpt>
      <trkpt lat="45.70006" lon="2.95481">
        <ele>1012.6</ele>
        <time>2025-09-28T07:34:37Z</time>
      </trkpt>
      <trkpt lat="45.70008" lon="2.95475">
        <ele>1012.4</ele>
        <time>2025-09-28T07:34:38Z</time>
      </trkpt>
      <trkpt lat="45.70009" lon="2.95469">
        <ele>1012.2</ele>
        <time>2025-09-28T07:34:39Z</time>
      </trkpt>
      <trkpt lat="45.70007" lon="2.95462">
        <ele>1011.8</ele>
        <time>2025-09-28T07:34:40Z</time>
      </trkpt>
      <trkpt lat="45.70004" lon="2.95455">
        <ele>1011.4</ele>
        <time>2025-09-28T07:34:41Z</time>
      </trkpt>
      <trkpt lat="45.7" lon="2.95447">
        <ele>1010.8</ele>
        <time>2025-09-28T07:34:42Z</time>
      </trkpt>
      <trkpt lat="45.69996" lon="2.95438">
        <ele>1010.4</ele>
        <time>2025-09-28T07:34:43Z</time>
      </trkpt>
      <trkpt lat="45.69992" lon="2.95429">
        <ele>1009.6</ele>
        <time>2025-09-28T07:34:44Z</time>
      </trkpt>
      <trkpt lat="45.69987" lon="2.95422">
        <ele>1008.8</ele>
        <time>2025-09-28T07:34:45Z</time>
      </trkpt>
      <trkpt lat="45.69981" lon="2.95416">
        <ele>1008</ele>
        <time>2025-09-28T07:34:46Z</time>
      </trkpt>
      <trkpt lat="45.69975" lon="2.95412">
        <ele>1007.2</ele>
        <time>2025-09-28T07:34:47Z</time>
      </trkpt>
      <trkpt lat="45.69969" lon="2.95407">
        <ele>1006.4</ele>
        <time>2025-09-28T07:34:48Z</time>
      </trkpt>
      <trkpt lat="45.69964" lon="2.95403">
        <ele>1005.6</ele>
        <time>2025-09-28T07:34:49Z</time>
      </trkpt>
      <trkpt lat="45.69957" lon="2.95397">
        <ele>1004.6</ele>
        <time>2025-09-28T07:34:50Z</time>
      </trkpt>
      <trkpt lat="45.69951" lon="2.9539">
        <ele>1003.8</ele>
        <time>2025-09-28T07:34:51Z</time>
      </trkpt>
      <trkpt lat="45.69946" lon="2.95382">
        <ele>1002.8</ele>
        <time>2025-09-28T07:34:52Z</time>
      </trkpt>
      <trkpt lat="45.69944" lon="2.95375">
        <ele>1001.8</ele>
        <time>2025-09-28T07:34:53Z</time>
      </trkpt>
      <trkpt lat="45.69943" lon="2.95368">
        <ele>1001</ele>
        <time>2025-09-28T07:34:54Z</time>
      </trkpt>
      <trkpt lat="45.6994" lon="2.95357">
        <ele>1000.2</ele>
        <time>2025-09-28T07:34:55Z</time>
      </trkpt>
      <trkpt lat="45.69938" lon="2.95342">
        <ele>999.4</ele>
        <time>2025-09-28T07:34:56Z</time>
      </trkpt>
      <trkpt lat="45.69936" lon="2.9533">
        <ele>998.6</ele>
        <time>2025-09-28T07:34:57Z</time>
      </trkpt>
      <trkpt lat="45.69935" lon="2.95319">
        <ele>997.8</ele>
        <time>2025-09-28T07:34:58Z</time>
      </trkpt>
      <trkpt lat="45.69934" lon="2.95307">
        <ele>997</ele>
        <time>2025-09-28T07:34:59Z</time>
      </trkpt>
      <trkpt lat="45.69933" lon="2.95296">
        <ele>996.4</ele>
        <time>2025-09-28T07:35:00Z</time>
      </trkpt>
      <trkpt lat="45.69931" lon="2.95284">
        <ele>995.8</ele>
        <time>2025-09-28T07:35:01Z</time>
      </trkpt>
      <trkpt lat="45.69929" lon="2.95272">
        <ele>995.4</ele>
        <time>2025-09-28T07:35:02Z</time>
      </trkpt>
      <trkpt lat="45.69928" lon="2.9526">
        <ele>994.8</ele>
        <time>2025-09-28T07:35:03Z</time>
      </trkpt>
      <trkpt lat="45.69928" lon="2.95251">
        <ele>994.4</ele>
        <time>2025-09-28T07:35:04Z</time>
      </trkpt>
      <trkpt lat="45.69928" lon="2.95241">
        <ele>994.2</ele>
        <time>2025-09-28T07:35:05Z</time>
      </trkpt>
      <trkpt lat="45.69926" lon="2.9523">
        <ele>993.8</ele>
        <time>2025-09-28T07:35:06Z</time>
      </trkpt>
      <trkpt lat="45.69925" lon="2.95222">
        <ele>993.8</ele>
        <time>2025-09-28T07:35:07Z</time>
      </trkpt>
      <trkpt lat="45.69923" lon="2.95214">
        <ele>993.6</ele>
        <time>2025-09-28T07:35:08Z</time>
      </trkpt>
      <trkpt lat="45.69924" lon="2.95207">
        <ele>993.6</ele>
        <time>2025-09-28T07:35:09Z</time>
      </trkpt>
      <trkpt lat="45.69924" lon="2.95202">
        <ele>993.4</ele>
        <time>2025-09-28T07:35:10Z</time>
      </trkpt>
      <trkpt lat="45.69923" lon="2.95195">
        <ele>993.4</ele>
        <time>2025-09-28T07:35:11Z</time>
      </trkpt>
      <trkpt lat="45.69922" lon="2.95187">
        <ele>993.4</ele>
        <time>2025-09-28T07:35:12Z</time>
      </trkpt>
      <trkpt lat="45.6992" lon="2.95178">
        <ele>993.4</ele>
        <time>2025-09-28T07:35:13Z</time>
      </trkpt>
      <trkpt lat="45.69919" lon="2.95169">
        <ele>993.6</ele>
        <time>2025-09-28T07:35:14Z</time>
      </trkpt>
      <trkpt lat="45.69918" lon="2.9516">
        <ele>993.6</ele>
        <time>2025-09-28T07:35:15Z</time>
      </trkpt>
      <trkpt lat="45.69916" lon="2.95152">
        <ele>993.6</ele>
        <time>2025-09-28T07:35:16Z</time>
      </trkpt>
      <trkpt lat="45.69913" lon="2.95146">
        <ele>993.6</ele>
        <time>2025-09-28T07:35:17Z</time>
      </trkpt>
      <trkpt lat="45.6991" lon="2.9514">
        <ele>993.8</ele>
        <time>2025-09-28T07:35:18Z</time>
      </trkpt>
      <trkpt lat="45.69907" lon="2.95132">
        <ele>993.8</ele>
        <time>2025-09-28T07:35:19Z</time>
      </trkpt>
      <trkpt lat="45.69904" lon="2.95122">
        <ele>994</ele>
        <time>2025-09-28T07:35:20Z</time>
      </trkpt>
      <trkpt lat="45.69902" lon="2.95111">
        <ele>994.2</ele>
        <time>2025-09-28T07:35:21Z</time>
      </trkpt>
      <trkpt lat="45.69901" lon="2.951">
        <ele>994.2</ele>
        <time>2025-09-28T07:35:22Z</time>
      </trkpt>
      <trkpt lat="45.69899" lon="2.95091">
        <ele>994.4</ele>
        <time>2025-09-28T07:35:23Z</time>
      </trkpt>
      <trkpt lat="45.69895" lon="2.95082">
        <ele>994.6</ele>
        <time>2025-09-28T07:35:24Z</time>
      </trkpt>
      <trkpt lat="45.69893" lon="2.95075">
        <ele>994.8</ele>
        <time>2025-09-28T07:35:25Z</time>
      </trkpt>
      <trkpt lat="45.69893" lon="2.95068">
        <ele>995</ele>
        <time>2025-09-28T07:35:26Z</time>
      </trkpt>
      <trkpt lat="45.69892" lon="2.95061">
        <ele>995.2</ele>
        <time>2025-09-28T07:35:27Z</time>
      </trkpt>
      <trkpt lat="45.69892" lon="2.95054">
        <ele>995.2</ele>
        <time>2025-09-28T07:35:28Z</time>
      </trkpt>
      <trkpt lat="45.6989" lon="2.95046">
        <ele>995.4</ele>
        <time>2025-09-28T07:35:29Z</time>
      </trkpt>
      <trkpt lat="45.69888" lon="2.95039">
        <ele>995.4</ele>
        <time>2025-09-28T07:35:30Z</time>
      </trkpt>
      <trkpt lat="45.69885" lon="2.95033">
        <ele>995.4</ele>
        <time>2025-09-28T07:35:31Z</time>
      </trkpt>
      <trkpt lat="45.6988" lon="2.95027">
        <ele>995.6</ele>
        <time>2025-09-28T07:35:32Z</time>
      </trkpt>
      <trkpt lat="45.69876" lon="2.95019">
        <ele>995.6</ele>
        <time>2025-09-28T07:35:33Z</time>
      </trkpt>
      <trkpt lat="45.69871" lon="2.95009">
        <ele>995.6</ele>
        <time>2025-09-28T07:35:34Z</time>
      </trkpt>
      <trkpt lat="45.69869" lon="2.95001">
        <ele>995.8</ele>
        <time>2025-09-28T07:35:35Z</time>
      </trkpt>
      <trkpt lat="45.69867" lon="2.94993">
        <ele>995.8</ele>
        <time>2025-09-28T07:35:36Z</time>
      </trkpt>
      <trkpt lat="45.69866" lon="2.94985">
        <ele>996</ele>
        <time>2025-09-28T07:35:37Z</time>
      </trkpt>
      <trkpt lat="45.69863" lon="2.94977">
        <ele>996</ele>
        <time>2025-09-28T07:35:38Z</time>
      </trkpt>
      <trkpt lat="45.69861" lon="2.94971">
        <ele>996.2</ele>
        <time>2025-09-28T07:35:39Z</time>
      </trkpt>
      <trkpt lat="45.69858" lon="2.94967">
        <ele>996.2</ele>
        <time>2025-09-28T07:35:40Z</time>
      </trkpt>
      <trkpt lat="45.69856" lon="2.94963">
        <ele>996.4</ele>
        <time>2025-09-28T07:35:41Z</time>
      </trkpt>
      <trkpt lat="45.69853" lon="2.94957">
        <ele>996.4</ele>
        <time>2025-09-28T07:35:42Z</time>
      </trkpt>
      <trkpt lat="45.69849" lon="2.9495">
        <ele>996.4</ele>
        <time>2025-09-28T07:35:43Z</time>
      </trkpt>
      <trkpt lat="45.69845" lon="2.94944">
        <ele>996.6</ele>
        <time>2025-09-28T07:35:44Z</time>
      </trkpt>
      <trkpt lat="45.69842" lon="2.94938">
        <ele>996.6</ele>
        <time>2025-09-28T07:35:45Z</time>
      </trkpt>
      <trkpt lat="45.69841" lon="2.94933">
        <ele>996.6</ele>
        <time>2025-09-28T07:35:46Z</time>
      </trkpt>
      <trkpt lat="45.6984" lon="2.94928">
        <ele>996.8</ele>
        <time>2025-09-28T07:35:47Z</time>
      </trkpt>
      <trkpt lat="45.69837" lon="2.94923">
        <ele>996.8</ele>
        <time>2025-09-28T07:35:48Z</time>
      </trkpt>
      <trkpt lat="45.69834" lon="2.94916">
        <ele>997</ele>
        <time>2025-09-28T07:35:49Z</time>
      </trkpt>
      <trkpt lat="45.69832" lon="2.9491">
        <ele>997</ele>
        <time>2025-09-28T07:35:50Z</time>
      </trkpt>
      <trkpt lat="45.69831" lon="2.94905">
        <ele>997</ele>
        <time>2025-09-28T07:35:51Z</time>
      </trkpt>
      <trkpt lat="45.6983" lon="2.949">
        <ele>997.2</ele>
        <time>2025-09-28T07:35:52Z</time>
      </trkpt>
      <trkpt lat="45.69829" lon="2.94895">
        <ele>997.2</ele>
        <time>2025-09-28T07:35:53Z</time>
      </trkpt>
      <trkpt lat="45.69828" lon="2.9489">
        <ele>997.4</ele>
        <time>2025-09-28T07:35:54Z</time>
      </trkpt>
      <trkpt lat="45.69825" lon="2.94885">
        <ele>997.4</ele>
        <time>2025-09-28T07:35:55Z</time>
      </trkpt>
      <trkpt lat="45.6982" lon="2.94879">
        <ele>997.4</ele>
        <time>2025-09-28T07:35:56Z</time>
      </trkpt>
      <trkpt lat="45.69817" lon="2.94873">
        <ele>997.6</ele>
        <time>2025-09-28T07:35:57Z</time>
      </trkpt>
      <trkpt lat="45.69816" lon="2.94869">
        <ele>997.6</ele>
        <time>2025-09-28T07:35:58Z</time>
      </trkpt>
      <trkpt lat="45.69816" lon="2.94864">
        <ele>997.6</ele>
        <time>2025-09-28T07:35:59Z</time>
      </trkpt>
      <trkpt lat="45.69814" lon="2.94858">
        <ele>997.8</ele>
        <time>2025-09-28T07:36:00Z</time>
      </trkpt>
      <trkpt lat="45.69811" lon="2.94851">
        <ele>997.8</ele>
        <time>2025-09-28T07:36:01Z</time>
      </trkpt>
      <trkpt lat="45.69808" lon="2.94845">
        <ele>997.8</ele>
        <time>2025-09-28T07:36:02Z</time>
      </trkpt>
      <trkpt lat="45.69806" lon="2.9484">
        <ele>998</ele>
        <time>2025-09-28T07:36:03Z</time>
      </trkpt>
      <trkpt lat="45.69803" lon="2.94833">
        <ele>998.2</ele>
        <time>2025-09-28T07:36:04Z</time>
      </trkpt>
      <trkpt lat="45.69799" lon="2.94826">
        <ele>998.2</ele>
        <time>2025-09-28T07:36:05Z</time>
      </trkpt>
      <trkpt lat="45.69796" lon="2.94821">
        <ele>998.2</ele>
        <time>2025-09-28T07:36:06Z</time>
      </trkpt>
      <trkpt lat="45.69796" lon="2.94816">
        <ele>998.2</ele>
        <time>2025-09-28T07:36:07Z</time>
      </trkpt>
      <trkpt lat="45.69795" lon="2.94812">
        <ele>998.4</ele>
        <time>2025-09-28T07:36:08Z</time>
      </trkpt>
      <trkpt lat="45.69794" lon="2.94807">
        <ele>998.4</ele>
        <time>2025-09-28T07:36:09Z</time>
      </trkpt>
      <trkpt lat="45.69791" lon="2.94801">
        <ele>998.4</ele>
        <time>2025-09-28T07:36:10Z</time>
      </trkpt>
      <trkpt lat="45.69786" lon="2.94794">
        <ele>998.4</ele>
        <time>2025-09-28T07:36:11Z</time>
      </trkpt>
      <trkpt lat="45.69782" lon="2.94787">
        <ele>998.6</ele>
        <time>2025-09-28T07:36:12Z</time>
      </trkpt>
      <trkpt lat="45.69779" lon="2.94782">
        <ele>998.6</ele>
        <time>2025-09-28T07:36:13Z</time>
      </trkpt>
      <trkpt lat="45.69778" lon="2.94778">
        <ele>998.8</ele>
        <time>2025-09-28T07:36:14Z</time>
      </trkpt>
      <trkpt lat="45.69778" lon="2.94774">
        <ele>998.8</ele>
        <time>2025-09-28T07:36:15Z</time>
      </trkpt>
      <trkpt lat="45.69776" lon="2.94769">
        <ele>998.8</ele>
        <time>2025-09-28T07:36:16Z</time>
      </trkpt>
      <trkpt lat="45.69774" lon="2.94764">
        <ele>998.8</ele>
        <time>2025-09-28T07:36:17Z</time>
      </trkpt>
      <trkpt lat="45.69772" lon="2.94759">
        <ele>999</ele>
        <time>2025-09-28T07:36:18Z</time>
      </trkpt>
      <trkpt lat="45.69769" lon="2.94753">
        <ele>999</ele>
        <time>2025-09-28T07:36:19Z</time>
      </trkpt>
      <trkpt lat="45.69766" lon="2.94747">
        <ele>999</ele>
        <time>2025-09-28T07:36:20Z</time>
      </trkpt>
      <trkpt lat="45.69762" lon="2.94743">
        <ele>999.2</ele>
        <time>2025-09-28T07:36:21Z</time>
      </trkpt>
      <trkpt lat="45.69758" lon="2.94739">
        <ele>999.2</ele>
        <time>2025-09-28T07:36:22Z</time>
      </trkpt>
      <trkpt lat="45.69755" lon="2.94737">
        <ele>999.4</ele>
        <time>2025-09-28T07:36:23Z</time>
      </trkpt>
      <trkpt lat="45.6975" lon="2.94738">
        <ele>999.4</ele>
        <time>2025-09-28T07:36:24Z</time>
      </trkpt>
      <trkpt lat="45.69746" lon="2.94741">
        <ele>999.4</ele>
        <time>2025-09-28T07:36:25Z</time>
      </trkpt>
      <trkpt lat="45.69741" lon="2.94747">
        <ele>999.4</ele>
        <time>2025-09-28T07:36:26Z</time>
      </trkpt>
      <trkpt lat="45.69737" lon="2.94753">
        <ele>999.4</ele>
        <time>2025-09-28T07:36:27Z</time>
      </trkpt>
      <trkpt lat="45.69734" lon="2.9476">
        <ele>999.4</ele>
        <time>2025-09-28T07:36:28Z</time>
      </trkpt>
      <trkpt lat="45.69731" lon="2.94766">
        <ele>999.4</ele>
        <time>2025-09-28T07:36:29Z</time>
      </trkpt>
      <trkpt lat="45.69728" lon="2.94771">
        <ele>999.2</ele>
        <time>2025-09-28T07:36:30Z</time>
      </trkpt>
      <trkpt lat="45.69726" lon="2.94776">
        <ele>999.2</ele>
        <time>2025-09-28T07:36:31Z</time>
      </trkpt>
      <trkpt lat="45.69724" lon="2.94783">
        <ele>999</ele>
        <time>2025-09-28T07:36:32Z</time>
      </trkpt>
      <trkpt lat="45.69721" lon="2.94792">
        <ele>999</ele>
        <time>2025-09-28T07:36:33Z</time>
      </trkpt>
      <trkpt lat="45.69718" lon="2.94802">
        <ele>999</ele>
        <time>2025-09-28T07:36:34Z</time>
      </trkpt>
      <trkpt lat="45.69714" lon="2.94811">
        <ele>998.8</ele>
        <time>2025-09-28T07:36:35Z</time>
      </trkpt>
      <trkpt lat="45.6971" lon="2.94819">
        <ele>998.8</ele>
        <time>2025-09-28T07:36:36Z</time>
      </trkpt>
      <trkpt lat="45.69706" lon="2.94825">
        <ele>998.8</ele>
        <time>2025-09-28T07:36:37Z</time>
      </trkpt>
      <trkpt lat="45.69703" lon="2.94832">
        <ele>998.6</ele>
        <time>2025-09-28T07:36:38Z</time>
      </trkpt>
      <trkpt lat="45.69699" lon="2.94838">
        <ele>998.4</ele>
        <time>2025-09-28T07:36:39Z</time>
      </trkpt>
      <trkpt lat="45.69696" lon="2.94845">
        <ele>998.2</ele>
        <time>2025-09-28T07:36:40Z</time>
      </trkpt>
      <trkpt lat="45.69692" lon="2.94853">
        <ele>998</ele>
        <time>2025-09-28T07:36:41Z</time>
      </trkpt>
      <trkpt lat="45.69687" lon="2.94861">
        <ele>997.8</ele>
        <time>2025-09-28T07:36:42Z</time>
      </trkpt>
      <trkpt lat="45.69682" lon="2.94867">
        <ele>997.6</ele>
        <time>2025-09-28T07:36:43Z</time>
      </trkpt>
      <trkpt lat="45.69678" lon="2.94873">
        <ele>997.4</ele>
        <time>2025-09-28T07:36:44Z</time>
      </trkpt>
      <trkpt lat="45.69674" lon="2.94879">
        <ele>997.2</ele>
        <time>2025-09-28T07:36:45Z</time>
      </trkpt>
      <trkpt lat="45.69671" lon="2.94885">
        <ele>997.2</ele>
        <time>2025-09-28T07:36:46Z</time>
      </trkpt>
      <trkpt lat="45.69669" lon="2.94891">
        <ele>997</ele>
        <time>2025-09-28T07:36:47Z</time>
      </trkpt>
      <trkpt lat="45.69667" lon="2.94896">
        <ele>996.8</ele>
        <time>2025-09-28T07:36:48Z</time>
      </trkpt>
      <trkpt lat="45.69664" lon="2.94901">
        <ele>996.8</ele>
        <time>2025-09-28T07:36:49Z</time>
      </trkpt>
      <trkpt lat="45.69662" lon="2.94905">
        <ele>996.6</ele>
        <time>2025-09-28T07:36:50Z</time>
      </trkpt>
      <trkpt lat="45.6966" lon="2.94909">
        <ele>996.4</ele>
        <time>2025-09-28T07:36:51Z</time>
      </trkpt>
      <trkpt lat="45.69657" lon="2.94913">
        <ele>996.2</ele>
        <time>2025-09-28T07:36:52Z</time>
      </trkpt>
      <trkpt lat="45.69655" lon="2.94918">
        <ele>996.2</ele>
        <time>2025-09-28T07:36:53Z</time>
      </trkpt>
      <trkpt lat="45.69652" lon="2.94926">
        <ele>996</ele>
        <time>2025-09-28T07:36:54Z</time>
      </trkpt>
      <trkpt lat="45.69649" lon="2.94935">
        <ele>996</ele>
        <time>2025-09-28T07:36:55Z</time>
      </trkpt>
      <trkpt lat="45.69645" lon="2.94944">
        <ele>995.8</ele>
        <time>2025-09-28T07:36:56Z</time>
      </trkpt>
      <trkpt lat="45.69641" lon="2.94952">
        <ele>995.8</ele>
        <time>2025-09-28T07:36:57Z</time>
      </trkpt>
      <trkpt lat="45.69637" lon="2.9496">
        <ele>995.6</ele>
        <time>2025-09-28T07:36:58Z</time>
      </trkpt>
      <trkpt lat="45.69633" lon="2.94968">
        <ele>995.4</ele>
        <time>2025-09-28T07:36:59Z</time>
      </trkpt>
      <trkpt lat="45.69629" lon="2.94976">
        <ele>995.4</ele>
        <time>2025-09-28T07:37:00Z</time>
      </trkpt>
      <trkpt lat="45.69625" lon="2.94983">
        <ele>995.2</ele>
        <time>2025-09-28T07:37:01Z</time>
      </trkpt>
      <trkpt lat="45.69621" lon="2.94991">
        <ele>994.8</ele>
        <time>2025-09-28T07:37:02Z</time>
      </trkpt>
      <trkpt lat="45.69618" lon="2.95001">
        <ele>994.6</ele>
        <time>2025-09-28T07:37:03Z</time>
      </trkpt>
      <trkpt lat="45.69614" lon="2.9501">
        <ele>994.4</ele>
        <time>2025-09-28T07:37:04Z</time>
      </trkpt>
      <trkpt lat="45.69609" lon="2.95019">
        <ele>994</ele>
        <time>2025-09-28T07:37:05Z</time>
      </trkpt>
      <trkpt lat="45.69604" lon="2.95027">
        <ele>993.6</ele>
        <time>2025-09-28T07:37:06Z</time>
      </trkpt>
      <trkpt lat="45.696" lon="2.95036">
        <ele>993.2</ele>
        <time>2025-09-28T07:37:07Z</time>
      </trkpt>
      <trkpt lat="45.69596" lon="2.95046">
        <ele>992.8</ele>
        <time>2025-09-28T07:37:08Z</time>
      </trkpt>
      <trkpt lat="45.69593" lon="2.95058">
        <ele>992.4</ele>
        <time>2025-09-28T07:37:09Z</time>
      </trkpt>
      <trkpt lat="45.6959" lon="2.95071">
        <ele>992</ele>
        <time>2025-09-28T07:37:10Z</time>
      </trkpt>
      <trkpt lat="45.69588" lon="2.95084">
        <ele>991.4</ele>
        <time>2025-09-28T07:37:11Z</time>
      </trkpt>
      <trkpt lat="45.69586" lon="2.95095">
        <ele>991</ele>
        <time>2025-09-28T07:37:12Z</time>
      </trkpt>
      <trkpt lat="45.69582" lon="2.95107">
        <ele>990.4</ele>
        <time>2025-09-28T07:37:13Z</time>
      </trkpt>
      <trkpt lat="45.69577" lon="2.9512">
        <ele>989.8</ele>
        <time>2025-09-28T07:37:14Z</time>
      </trkpt>
      <trkpt lat="45.6957" lon="2.95131">
        <ele>989</ele>
        <time>2025-09-28T07:37:15Z</time>
      </trkpt>
      <trkpt lat="45.69563" lon="2.95141">
        <ele>988.4</ele>
        <time>2025-09-28T07:37:16Z</time>
      </trkpt>
      <trkpt lat="45.69557" lon="2.95148">
        <ele>987.8</ele>
        <time>2025-09-28T07:37:17Z</time>
      </trkpt>
      <trkpt lat="45.6955" lon="2.95157">
        <ele>987.2</ele>
        <time>2025-09-28T07:37:18Z</time>
      </trkpt>
      <trkpt lat="45.69543" lon="2.95165">
        <ele>986.6</ele>
        <time>2025-09-28T07:37:19Z</time>
      </trkpt>
      <trkpt lat="45.69538" lon="2.95174">
        <ele>986.2</ele>
        <time>2025-09-28T07:37:20Z</time>
      </trkpt>
      <trkpt lat="45.69535" lon="2.95184">
        <ele>985.8</ele>
        <time>2025-09-28T07:37:21Z</time>
      </trkpt>
      <trkpt lat="45.69533" lon="2.95195">
        <ele>985.4</ele>
        <time>2025-09-28T07:37:22Z</time>
      </trkpt>
      <trkpt lat="45.69529" lon="2.95206">
        <ele>985</ele>
        <time>2025-09-28T07:37:23Z</time>
      </trkpt>
      <trkpt lat="45.69525" lon="2.95217">
        <ele>984.4</ele>
        <time>2025-09-28T07:37:24Z</time>
      </trkpt>
      <trkpt lat="45.69521" lon="2.95228">
        <ele>983.8</ele>
        <time>2025-09-28T07:37:25Z</time>
      </trkpt>
      <trkpt lat="45.69517" lon="2.95239">
        <ele>983.2</ele>
        <time>2025-09-28T07:37:26Z</time>
      </trkpt>
      <trkpt lat="45.69513" lon="2.95249">
        <ele>982.8</ele>
        <time>2025-09-28T07:37:27Z</time>
      </trkpt>
      <trkpt lat="45.69509" lon="2.9526">
        <ele>982.2</ele>
        <time>2025-09-28T07:37:28Z</time>
      </trkpt>
      <trkpt lat="45.69505" lon="2.95269">
        <ele>981.8</ele>
        <time>2025-09-28T07:37:29Z</time>
      </trkpt>
      <trkpt lat="45.69501" lon="2.95278">
        <ele>981.4</ele>
        <time>2025-09-28T07:37:30Z</time>
      </trkpt>
      <trkpt lat="45.69496" lon="2.95286">
        <ele>980.8</ele>
        <time>2025-09-28T07:37:31Z</time>
      </trkpt>
      <trkpt lat="45.69492" lon="2.95293">
        <ele>980.4</ele>
        <time>2025-09-28T07:37:32Z</time>
      </trkpt>
      <trkpt lat="45.69489" lon="2.95299">
        <ele>979.8</ele>
        <time>2025-09-28T07:37:33Z</time>
      </trkpt>
      <trkpt lat="45.69486" lon="2.95303">
        <ele>979.4</ele>
        <time>2025-09-28T07:37:34Z</time>
      </trkpt>
      <trkpt lat="45.69483" lon="2.95307">
        <ele>979</ele>
        <time>2025-09-28T07:37:35Z</time>
      </trkpt>
      <trkpt lat="45.69481" lon="2.95311">
        <ele>978.8</ele>
        <time>2025-09-28T07:37:36Z</time>
      </trkpt>
      <trkpt lat="45.6948" lon="2.95314">
        <ele>978.4</ele>
        <time>2025-09-28T07:37:37Z</time>
      </trkpt>
      <trkpt lat="45.69478" lon="2.95318">
        <ele>978.2</ele>
        <time>2025-09-28T07:37:38Z</time>
      </trkpt>
      <trkpt lat="45.69475" lon="2.95323">
        <ele>977.8</ele>
        <time>2025-09-28T07:37:39Z</time>
      </trkpt>
      <trkpt lat="45.69473" lon="2.95329">
        <ele>977.4</ele>
        <time>2025-09-28T07:37:40Z</time>
      </trkpt>
      <trkpt lat="45.69471" lon="2.95333">
        <ele>977.2</ele>
        <time>2025-09-28T07:37:41Z</time>
      </trkpt>
      <trkpt lat="45.69468" lon="2.95336">
        <ele>977</ele>
        <time>2025-09-28T07:37:42Z</time>
      </trkpt>
      <trkpt lat="45.69465" lon="2.95338">
        <ele>976.6</ele>
        <time>2025-09-28T07:37:43Z</time>
      </trkpt>
      <trkpt lat="45.69462" lon="2.95337">
        <ele>976.4</ele>
        <time>2025-09-28T07:37:44Z</time>
      </trkpt>
      <trkpt lat="45.69459" lon="2.95336">
        <ele>976.2</ele>
        <time>2025-09-28T07:37:45Z</time>
      </trkpt>
      <trkpt lat="45.69455" lon="2.95334">
        <ele>976</ele>
        <time>2025-09-28T07:37:46Z</time>
      </trkpt>
      <trkpt lat="45.69452" lon="2.95331">
        <ele>976</ele>
        <time>2025-09-28T07:37:47Z</time>
      </trkpt>
      <trkpt lat="45.69449" lon="2.95327">
        <ele>975.8</ele>
        <time>2025-09-28T07:37:48Z</time>
      </trkpt>
      <trkpt lat="45.69445" lon="2.95322">
        <ele>975.6</ele>
        <time>2025-09-28T07:37:49Z</time>
      </trkpt>
      <trkpt lat="45.6944" lon="2.95316">
        <ele>975.6</ele>
        <time>2025-09-28T07:37:50Z</time>
      </trkpt>
      <trkpt lat="45.69436" lon="2.95311">
        <ele>975.4</ele>
        <time>2025-09-28T07:37:51Z</time>
      </trkpt>
      <trkpt lat="45.69431" lon="2.95305">
        <ele>975.4</ele>
        <time>2025-09-28T07:37:52Z</time>
      </trkpt>
      <trkpt lat="45.69426" lon="2.95299">
        <ele>975.2</ele>
        <time>2025-09-28T07:37:53Z</time>
      </trkpt>
      <trkpt lat="45.69422" lon="2.95293">
        <ele>975</ele>
        <time>2025-09-28T07:37:54Z</time>
      </trkpt>
      <trkpt lat="45.69419" lon="2.95288">
        <ele>975</ele>
        <time>2025-09-28T07:37:55Z</time>
      </trkpt>
      <trkpt lat="45.69415" lon="2.95282">
        <ele>974.8</ele>
        <time>2025-09-28T07:37:56Z</time>
      </trkpt>
      <trkpt lat="45.69412" lon="2.95277">
        <ele>974.6</ele>
        <time>2025-09-28T07:37:57Z</time>
      </trkpt>
      <trkpt lat="45.69408" lon="2.95272">
        <ele>974.6</ele>
        <time>2025-09-28T07:37:58Z</time>
      </trkpt>
      <trkpt lat="45.69405" lon="2.95267">
        <ele>974.4</ele>
        <time>2025-09-28T07:37:59Z</time>
      </trkpt>
      <trkpt lat="45.69401" lon="2.95263">
        <ele>974.4</ele>
        <time>2025-09-28T07:38:00Z</time>
      </trkpt>
      <trkpt lat="45.69398" lon="2.95258">
        <ele>974.4</ele>
        <time>2025-09-28T07:38:01Z</time>
      </trkpt>
      <trkpt lat="45.69394" lon="2.95254">
        <ele>974.2</ele>
        <time>2025-09-28T07:38:02Z</time>
      </trkpt>
      <trkpt lat="45.69391" lon="2.9525">
        <ele>974.2</ele>
        <time>2025-09-28T07:38:03Z</time>
      </trkpt>
      <trkpt lat="45.69388" lon="2.95246">
        <ele>974.2</ele>
        <time>2025-09-28T07:38:04Z</time>
      </trkpt>
      <trkpt lat="45.69385" lon="2.95243">
        <ele>974</ele>
        <time>2025-09-28T07:38:05Z</time>
      </trkpt>
      <trkpt lat="45.69381" lon="2.95241">
        <ele>973.8</ele>
        <time>2025-09-28T07:38:06Z</time>
      </trkpt>
      <trkpt lat="45.69377" lon="2.95238">
        <ele>973.6</ele>
        <time>2025-09-28T07:38:07Z</time>
      </trkpt>
      <trkpt lat="45.69374" lon="2.95234">
        <ele>973.4</ele>
        <time>2025-09-28T07:38:08Z</time>
      </trkpt>
      <trkpt lat="45.69371" lon="2.9523">
        <ele>973.4</ele>
        <time>2025-09-28T07:38:09Z</time>
      </trkpt>
      <trkpt lat="45.69368" lon="2.95225">
        <ele>973.4</ele>
        <time>2025-09-28T07:38:10Z</time>
      </trkpt>
      <trkpt lat="45.69364" lon="2.9522">
        <ele>973.4</ele>
        <time>2025-09-28T07:38:11Z</time>
      </trkpt>
      <trkpt lat="45.69361" lon="2.95215">
        <ele>973.4</ele>
        <time>2025-09-28T07:38:12Z</time>
      </trkpt>
      <trkpt lat="45.69358" lon="2.9521">
        <ele>973.4</ele>
        <time>2025-09-28T07:38:13Z</time>
      </trkpt>
      <trkpt lat="45.69355" lon="2.95206">
        <ele>973.4</ele>
        <time>2025-09-28T07:38:14Z</time>
      </trkpt>
      <trkpt lat="45.69352" lon="2.95202">
        <ele>973.4</ele>
        <time>2025-09-28T07:38:15Z</time>
      </trkpt>
      <trkpt lat="45.69349" lon="2.95198">
        <ele>973.6</ele>
        <time>2025-09-28T07:38:16Z</time>
      </trkpt>
      <trkpt lat="45.69346" lon="2.95194">
        <ele>973.6</ele>
        <time>2025-09-28T07:38:17Z</time>
      </trkpt>
      <trkpt lat="45.69343" lon="2.9519">
        <ele>973.6</ele>
        <time>2025-09-28T07:38:18Z</time>
      </trkpt>
      <trkpt lat="45.6934" lon="2.95185">
        <ele>973.6</ele>
        <time>2025-09-28T07:38:19Z</time>
      </trkpt>
      <trkpt lat="45.69337" lon="2.95181">
        <ele>973.6</ele>
        <time>2025-09-28T07:38:20Z</time>
      </trkpt>
      <trkpt lat="45.69334" lon="2.95176">
        <ele>973.6</ele>
        <time>2025-09-28T07:38:21Z</time>
      </trkpt>
      <trkpt lat="45.69331" lon="2.95172">
        <ele>973.6</ele>
        <time>2025-09-28T07:38:22Z</time>
      </trkpt>
      <trkpt lat="45.69328" lon="2.95168">
        <ele>973.6</ele>
        <time>2025-09-28T07:38:23Z</time>
      </trkpt>
      <trkpt lat="45.69325" lon="2.95163">
        <ele>973.6</ele>
        <time>2025-09-28T07:38:24Z</time>
      </trkpt>
      <trkpt lat="45.69322" lon="2.95159">
        <ele>973.6</ele>
        <time>2025-09-28T07:38:25Z</time>
      </trkpt>
      <trkpt lat="45.69319" lon="2.95155">
        <ele>973.6</ele>
        <time>2025-09-28T07:38:26Z</time>
      </trkpt>
      <trkpt lat="45.69317" lon="2.95151">
        <ele>973.6</ele>
        <time>2025-09-28T07:38:27Z</time>
      </trkpt>
      <trkpt lat="45.69314" lon="2.95147">
        <ele>973.6</ele>
        <time>2025-09-28T07:38:28Z</time>
      </trkpt>
      <trkpt lat="45.69311" lon="2.95143">
        <ele>973.8</ele>
        <time>2025-09-28T07:38:29Z</time>
      </trkpt>
      <trkpt lat="45.69308" lon="2.95139">
        <ele>973.8</ele>
        <time>2025-09-28T07:38:30Z</time>
      </trkpt>
      <trkpt lat="45.69305" lon="2.95136">
        <ele>973.8</ele>
        <time>2025-09-28T07:38:31Z</time>
      </trkpt>
      <trkpt lat="45.69303" lon="2.95132">
        <ele>973.8</ele>
        <time>2025-09-28T07:38:32Z</time>
      </trkpt>
      <trkpt lat="45.693" lon="2.95128">
        <ele>974</ele>
        <time>2025-09-28T07:38:33Z</time>
      </trkpt>
      <trkpt lat="45.69298" lon="2.95124">
        <ele>974</ele>
        <time>2025-09-28T07:38:34Z</time>
      </trkpt>
      <trkpt lat="45.69294" lon="2.9512">
        <ele>974</ele>
        <time>2025-09-28T07:38:35Z</time>
      </trkpt>
      <trkpt lat="45.69291" lon="2.95118">
        <ele>973.8</ele>
        <time>2025-09-28T07:38:36Z</time>
      </trkpt>
      <trkpt lat="45.69287" lon="2.95116">
        <ele>973.6</ele>
        <time>2025-09-28T07:38:37Z</time>
      </trkpt>
      <trkpt lat="45.69283" lon="2.95116">
        <ele>973.4</ele>
        <time>2025-09-28T07:38:38Z</time>
      </trkpt>
      <trkpt lat="45.69278" lon="2.95116">
        <ele>973.2</ele>
        <time>2025-09-28T07:38:39Z</time>
      </trkpt>
      <trkpt lat="45.69272" lon="2.95116">
        <ele>972.8</ele>
        <time>2025-09-28T07:38:40Z</time>
      </trkpt>
      <trkpt lat="45.69267" lon="2.95116">
        <ele>972.6</ele>
        <time>2025-09-28T07:38:41Z</time>
      </trkpt>
      <trkpt lat="45.69261" lon="2.95115">
        <ele>972.2</ele>
        <time>2025-09-28T07:38:42Z</time>
      </trkpt>
      <trkpt lat="45.69256" lon="2.95115">
        <ele>971.8</ele>
        <time>2025-09-28T07:38:43Z</time>
      </trkpt>
      <trkpt lat="45.69251" lon="2.95115">
        <ele>971.6</ele>
        <time>2025-09-28T07:38:44Z</time>
      </trkpt>
      <trkpt lat="45.69246" lon="2.95115">
        <ele>971.4</ele>
        <time>2025-09-28T07:38:45Z</time>
      </trkpt>
      <trkpt lat="45.69241" lon="2.95114">
        <ele>971</ele>
        <time>2025-09-28T07:38:46Z</time>
      </trkpt>
      <trkpt lat="45.69235" lon="2.95112">
        <ele>970.8</ele>
        <time>2025-09-28T07:38:47Z</time>
      </trkpt>
      <trkpt lat="45.6923" lon="2.95112">
        <ele>970.4</ele>
        <time>2025-09-28T07:38:48Z</time>
      </trkpt>
      <trkpt lat="45.69224" lon="2.95111">
        <ele>970</ele>
        <time>2025-09-28T07:38:49Z</time>
      </trkpt>
      <trkpt lat="45.69218" lon="2.95111">
        <ele>969.6</ele>
        <time>2025-09-28T07:38:50Z</time>
      </trkpt>
      <trkpt lat="45.69211" lon="2.9511">
        <ele>969</ele>
        <time>2025-09-28T07:38:51Z</time>
      </trkpt>
      <trkpt lat="45.69204" lon="2.95108">
        <ele>968.4</ele>
        <time>2025-09-28T07:38:52Z</time>
      </trkpt>
      <trkpt lat="45.69196" lon="2.95106">
        <ele>967.8</ele>
        <time>2025-09-28T07:38:53Z</time>
      </trkpt>
      <trkpt lat="45.69188" lon="2.95104">
        <ele>967.4</ele>
        <time>2025-09-28T07:38:54Z</time>
      </trkpt>
      <trkpt lat="45.6918" lon="2.95105">
        <ele>967</ele>
        <time>2025-09-28T07:38:55Z</time>
      </trkpt>
      <trkpt lat="45.69171" lon="2.95107">
        <ele>966.4</ele>
        <time>2025-09-28T07:38:56Z</time>
      </trkpt>
      <trkpt lat="45.69161" lon="2.95109">
        <ele>966.2</ele>
        <time>2025-09-28T07:38:57Z</time>
      </trkpt>
      <trkpt lat="45.69152" lon="2.95111">
        <ele>965.8</ele>
        <time>2025-09-28T07:38:58Z</time>
      </trkpt>
      <trkpt lat="45.69144" lon="2.9511">
        <ele>965.6</ele>
        <time>2025-09-28T07:38:59Z</time>
      </trkpt>
      <trkpt lat="45.69136" lon="2.9511">
        <ele>965.4</ele>
        <time>2025-09-28T07:39:00Z</time>
      </trkpt>
      <trkpt lat="45.69128" lon="2.9511">
        <ele>965.2</ele>
        <time>2025-09-28T07:39:01Z</time>
      </trkpt>
      <trkpt lat="45.69121" lon="2.9511">
        <ele>965</ele>
        <time>2025-09-28T07:39:02Z</time>
      </trkpt>
      <trkpt lat="45.69114" lon="2.95111">
        <ele>964.8</ele>
        <time>2025-09-28T07:39:03Z</time>
      </trkpt>
      <trkpt lat="45.69107" lon="2.95111">
        <ele>964.8</ele>
        <time>2025-09-28T07:39:04Z</time>
      </trkpt>
      <trkpt lat="45.691" lon="2.9511">
        <ele>964.8</ele>
        <time>2025-09-28T07:39:05Z</time>
      </trkpt>
      <trkpt lat="45.69093" lon="2.9511">
        <ele>964.6</ele>
        <time>2025-09-28T07:39:06Z</time>
      </trkpt>
      <trkpt lat="45.69086" lon="2.95109">
        <ele>964.6</ele>
        <time>2025-09-28T07:39:07Z</time>
      </trkpt>
      <trkpt lat="45.69079" lon="2.95108">
        <ele>964.4</ele>
        <time>2025-09-28T07:39:08Z</time>
      </trkpt>
      <trkpt lat="45.69072" lon="2.95107">
        <ele>964.2</ele>
        <time>2025-09-28T07:39:09Z</time>
      </trkpt>
      <trkpt lat="45.69066" lon="2.95105">
        <ele>964.2</ele>
        <time>2025-09-28T07:39:10Z</time>
      </trkpt>
      <trkpt lat="45.6906" lon="2.95105">
        <ele>964</ele>
        <time>2025-09-28T07:39:11Z</time>
      </trkpt>
      <trkpt lat="45.69054" lon="2.95105">
        <ele>963.8</ele>
        <time>2025-09-28T07:39:12Z</time>
      </trkpt>
      <trkpt lat="45.69048" lon="2.95107">
        <ele>963.6</ele>
        <time>2025-09-28T07:39:13Z</time>
      </trkpt>
      <trkpt lat="45.69043" lon="2.95109">
        <ele>963.4</ele>
        <time>2025-09-28T07:39:14Z</time>
      </trkpt>
      <trkpt lat="45.69037" lon="2.95112">
        <ele>963.2</ele>
        <time>2025-09-28T07:39:15Z</time>
      </trkpt>
      <trkpt lat="45.69031" lon="2.95118">
        <ele>962.8</ele>
        <time>2025-09-28T07:39:16Z</time>
      </trkpt>
      <trkpt lat="45.69025" lon="2.95123">
        <ele>962.6</ele>
        <time>2025-09-28T07:39:17Z</time>
      </trkpt>
      <trkpt lat="45.6902" lon="2.95129">
        <ele>962.6</ele>
        <time>2025-09-28T07:39:18Z</time>
      </trkpt>
      <trkpt lat="45.69015" lon="2.95133">
        <ele>962.4</ele>
        <time>2025-09-28T07:39:19Z</time>
      </trkpt>
      <trkpt lat="45.6901" lon="2.95135">
        <ele>962.4</ele>
        <time>2025-09-28T07:39:20Z</time>
      </trkpt>
      <trkpt lat="45.69004" lon="2.95135">
        <ele>962.2</ele>
        <time>2025-09-28T07:39:21Z</time>
      </trkpt>
      <trkpt lat="45.68998" lon="2.95134">
        <ele>962.2</ele>
        <time>2025-09-28T07:39:22Z</time>
      </trkpt>
      <trkpt lat="45.68992" lon="2.95132">
        <ele>962.2</ele>
        <time>2025-09-28T07:39:23Z</time>
      </trkpt>
      <trkpt lat="45.68987" lon="2.95129">
        <ele>962.2</ele>
        <time>2025-09-28T07:39:24Z</time>
      </trkpt>
      <trkpt lat="45.68982" lon="2.95126">
        <ele>962.2</ele>
        <time>2025-09-28T07:39:25Z</time>
      </trkpt>
      <trkpt lat="45.68977" lon="2.95124">
        <ele>962.2</ele>
        <time>2025-09-28T07:39:26Z</time>
      </trkpt>
      <trkpt lat="45.68971" lon="2.95121">
        <ele>962.2</ele>
        <time>2025-09-28T07:39:27Z</time>
      </trkpt>
      <trkpt lat="45.68965" lon="2.9512">
        <ele>962.2</ele>
        <time>2025-09-28T07:39:28Z</time>
      </trkpt>
      <trkpt lat="45.6896" lon="2.95118">
        <ele>962.2</ele>
        <time>2025-09-28T07:39:29Z</time>
      </trkpt>
      <trkpt lat="45.68955" lon="2.95115">
        <ele>962.2</ele>
        <time>2025-09-28T07:39:30Z</time>
      </trkpt>
      <trkpt lat="45.6895" lon="2.95112">
        <ele>962.2</ele>
        <time>2025-09-28T07:39:31Z</time>
      </trkpt>
      <trkpt lat="45.68944" lon="2.95109">
        <ele>962.2</ele>
        <time>2025-09-28T07:39:32Z</time>
      </trkpt>
      <trkpt lat="45.68939" lon="2.95106">
        <ele>962.2</ele>
        <time>2025-09-28T07:39:33Z</time>
      </trkpt>
      <trkpt lat="45.68935" lon="2.95107">
        <ele>962.2</ele>
        <time>2025-09-28T07:39:34Z</time>
      </trkpt>
      <trkpt lat="45.68931" lon="2.95107">
        <ele>962.2</ele>
        <time>2025-09-28T07:39:35Z</time>
      </trkpt>
      <trkpt lat="45.68926" lon="2.95109">
        <ele>962.4</ele>
        <time>2025-09-28T07:39:36Z</time>
      </trkpt>
      <trkpt lat="45.68922" lon="2.95111">
        <ele>962.4</ele>
        <time>2025-09-28T07:39:37Z</time>
      </trkpt>
      <trkpt lat="45.68917" lon="2.95112">
        <ele>962.4</ele>
        <time>2025-09-28T07:39:38Z</time>
      </trkpt>
      <trkpt lat="45.68912" lon="2.95114">
        <ele>962.4</ele>
        <time>2025-09-28T07:39:39Z</time>
      </trkpt>
      <trkpt lat="45.68907" lon="2.95116">
        <ele>962.4</ele>
        <time>2025-09-28T07:39:40Z</time>
      </trkpt>
      <trkpt lat="45.68902" lon="2.95118">
        <ele>962.2</ele>
        <time>2025-09-28T07:39:41Z</time>
      </trkpt>
      <trkpt lat="45.68896" lon="2.9512">
        <ele>962.2</ele>
        <time>2025-09-28T07:39:42Z</time>
      </trkpt>
      <trkpt lat="45.68891" lon="2.95122">
        <ele>962</ele>
        <time>2025-09-28T07:39:43Z</time>
      </trkpt>
      <trkpt lat="45.68884" lon="2.95124">
        <ele>962</ele>
        <time>2025-09-28T07:39:44Z</time>
      </trkpt>
      <trkpt lat="45.68878" lon="2.95125">
        <ele>962</ele>
        <time>2025-09-28T07:39:45Z</time>
      </trkpt>
      <trkpt lat="45.68872" lon="2.95127">
        <ele>961.8</ele>
        <time>2025-09-28T07:39:46Z</time>
      </trkpt>
      <trkpt lat="45.68866" lon="2.95128">
        <ele>961.8</ele>
        <time>2025-09-28T07:39:47Z</time>
      </trkpt>
      <trkpt lat="45.6886" lon="2.95127">
        <ele>961.8</ele>
        <time>2025-09-28T07:39:48Z</time>
      </trkpt>
      <trkpt lat="45.68854" lon="2.95126">
        <ele>961.8</ele>
        <time>2025-09-28T07:39:49Z</time>
      </trkpt>
      <trkpt lat="45.68848" lon="2.95125">
        <ele>961.6</ele>
        <time>2025-09-28T07:39:50Z</time>
      </trkpt>
      <trkpt lat="45.68843" lon="2.95124">
        <ele>961.6</ele>
        <time>2025-09-28T07:39:51Z</time>
      </trkpt>
      <trkpt lat="45.68837" lon="2.95123">
        <ele>961.6</ele>
        <time>2025-09-28T07:39:52Z</time>
      </trkpt>
      <trkpt lat="45.68832" lon="2.95122">
        <ele>961.4</ele>
        <time>2025-09-28T07:39:53Z</time>
      </trkpt>
      <trkpt lat="45.68826" lon="2.95121">
        <ele>961.2</ele>
        <time>2025-09-28T07:39:54Z</time>
      </trkpt>
      <trkpt lat="45.68821" lon="2.95122">
        <ele>961</ele>
        <time>2025-09-28T07:39:55Z</time>
      </trkpt>
      <trkpt lat="45.68815" lon="2.95122">
        <ele>960.8</ele>
        <time>2025-09-28T07:39:56Z</time>
      </trkpt>
      <trkpt lat="45.68809" lon="2.95122">
        <ele>960.8</ele>
        <time>2025-09-28T07:39:57Z</time>
      </trkpt>
      <trkpt lat="45.68803" lon="2.95123">
        <ele>960.6</ele>
        <time>2025-09-28T07:39:58Z</time>
      </trkpt>
      <trkpt lat="45.68797" lon="2.95125">
        <ele>960.4</ele>
        <time>2025-09-28T07:39:59Z</time>
      </trkpt>
      <trkpt lat="45.68792" lon="2.95127">
        <ele>960.2</ele>
        <time>2025-09-28T07:40:00Z</time>
      </trkpt>
      <trkpt lat="45.68786" lon="2.95128">
        <ele>960.2</ele>
        <time>2025-09-28T07:40:01Z</time>
      </trkpt>
      <trkpt lat="45.6878" lon="2.95129">
        <ele>960.2</ele>
        <time>2025-09-28T07:40:02Z</time>
      </trkpt>
      <trkpt lat="45.68774" lon="2.95129">
        <ele>960.2</ele>
        <time>2025-09-28T07:40:03Z</time>
      </trkpt>
      <trkpt lat="45.68769" lon="2.95131">
        <ele>960.2</ele>
        <time>2025-09-28T07:40:04Z</time>
      </trkpt>
      <trkpt lat="45.68765" lon="2.95134">
        <ele>960.2</ele>
        <time>2025-09-28T07:40:05Z</time>
      </trkpt>
      <trkpt lat="45.68762" lon="2.95138">
        <ele>960.2</ele>
        <time>2025-09-28T07:40:06Z</time>
      </trkpt>
      <trkpt lat="45.68759" lon="2.95143">
        <ele>960.2</ele>
        <time>2025-09-28T07:40:07Z</time>
      </trkpt>
      <trkpt lat="45.68756" lon="2.95147">
        <ele>960</ele>
        <time>2025-09-28T07:40:08Z</time>
      </trkpt>
      <trkpt lat="45.68752" lon="2.9515">
        <ele>959.8</ele>
        <time>2025-09-28T07:40:09Z</time>
      </trkpt>
      <trkpt lat="45.68747" lon="2.95151">
        <ele>959.6</ele>
        <time>2025-09-28T07:40:10Z</time>
      </trkpt>
      <trkpt lat="45.68742" lon="2.95151">
        <ele>959.4</ele>
        <time>2025-09-28T07:40:11Z</time>
      </trkpt>
      <trkpt lat="45.68735" lon="2.95151">
        <ele>959.2</ele>
        <time>2025-09-28T07:40:12Z</time>
      </trkpt>
      <trkpt lat="45.68729" lon="2.95152">
        <ele>959</ele>
        <time>2025-09-28T07:40:13Z</time>
      </trkpt>
      <trkpt lat="45.68722" lon="2.95154">
        <ele>958.8</ele>
        <time>2025-09-28T07:40:14Z</time>
      </trkpt>
      <trkpt lat="45.68716" lon="2.95156">
        <ele>958.6</ele>
        <time>2025-09-28T07:40:15Z</time>
      </trkpt>
      <trkpt lat="45.68711" lon="2.95158">
        <ele>958.6</ele>
        <time>2025-09-28T07:40:16Z</time>
      </trkpt>
      <trkpt lat="45.68707" lon="2.95162">
        <ele>958.4</ele>
        <time>2025-09-28T07:40:17Z</time>
      </trkpt>
      <trkpt lat="45.68704" lon="2.95167">
        <ele>958.2</ele>
        <time>2025-09-28T07:40:18Z</time>
      </trkpt>
      <trkpt lat="45.687" lon="2.95172">
        <ele>958</ele>
        <time>2025-09-28T07:40:19Z</time>
      </trkpt>
      <trkpt lat="45.68696" lon="2.95178">
        <ele>957.8</ele>
        <time>2025-09-28T07:40:20Z</time>
      </trkpt>
      <trkpt lat="45.68691" lon="2.95185">
        <ele>957.8</ele>
        <time>2025-09-28T07:40:21Z</time>
      </trkpt>
      <trkpt lat="45.68686" lon="2.9519">
        <ele>957.8</ele>
        <time>2025-09-28T07:40:22Z</time>
      </trkpt>
      <trkpt lat="45.6868" lon="2.95194">
        <ele>957.8</ele>
        <time>2025-09-28T07:40:23Z</time>
      </trkpt>
      <trkpt lat="45.68675" lon="2.95199">
        <ele>957.8</ele>
        <time>2025-09-28T07:40:24Z</time>
      </trkpt>
      <trkpt lat="45.68671" lon="2.95204">
        <ele>957.8</ele>
        <time>2025-09-28T07:40:25Z</time>
      </trkpt>
      <trkpt lat="45.68668" lon="2.9521">
        <ele>957.6</ele>
        <time>2025-09-28T07:40:26Z</time>
      </trkpt>
      <trkpt lat="45.68664" lon="2.95217">
        <ele>957.6</ele>
        <time>2025-09-28T07:40:27Z</time>
      </trkpt>
      <trkpt lat="45.68662" lon="2.95225">
        <ele>957.6</ele>
        <time>2025-09-28T07:40:28Z</time>
      </trkpt>
      <trkpt lat="45.68659" lon="2.95233">
        <ele>957.6</ele>
        <time>2025-09-28T07:40:29Z</time>
      </trkpt>
      <trkpt lat="45.68658" lon="2.95241">
        <ele>957.6</ele>
        <time>2025-09-28T07:40:30Z</time>
      </trkpt>
      <trkpt lat="45.68657" lon="2.95249">
        <ele>957.4</ele>
        <time>2025-09-28T07:40:31Z</time>
      </trkpt>
      <trkpt lat="45.68656" lon="2.95257">
        <ele>957.4</ele>
        <time>2025-09-28T07:40:32Z</time>
      </trkpt>
      <trkpt lat="45.68655" lon="2.95265">
        <ele>957.4</ele>
        <time>2025-09-28T07:40:33Z</time>
      </trkpt>
      <trkpt lat="45.68654" lon="2.95274">
        <ele>957.2</ele>
        <time>2025-09-28T07:40:34Z</time>
      </trkpt>
      <trkpt lat="45.68655" lon="2.95282">
        <ele>957.2</ele>
        <time>2025-09-28T07:40:35Z</time>
      </trkpt>
      <trkpt lat="45.68655" lon="2.95291">
        <ele>957.4</ele>
        <time>2025-09-28T07:40:36Z</time>
      </trkpt>
      <trkpt lat="45.68655" lon="2.95298">
        <ele>957.4</ele>
        <time>2025-09-28T07:40:37Z</time>
      </trkpt>
      <trkpt lat="45.68655" lon="2.95305">
        <ele>957.6</ele>
        <time>2025-09-28T07:40:38Z</time>
      </trkpt>
      <trkpt lat="45.68655" lon="2.95311">
        <ele>957.6</ele>
        <time>2025-09-28T07:40:39Z</time>
      </trkpt>
      <trkpt lat="45.68655" lon="2.95318">
        <ele>957.6</ele>
        <time>2025-09-28T07:40:40Z</time>
      </trkpt>
      <trkpt lat="45.68654" lon="2.95326">
        <ele>957.6</ele>
        <time>2025-09-28T07:40:41Z</time>
      </trkpt>
      <trkpt lat="45.68653" lon="2.95333">
        <ele>957.6</ele>
        <time>2025-09-28T07:40:42Z</time>
      </trkpt>
      <trkpt lat="45.68652" lon="2.9534">
        <ele>957.6</ele>
        <time>2025-09-28T07:40:43Z</time>
      </trkpt>
      <trkpt lat="45.68651" lon="2.95347">
        <ele>957.6</ele>
        <time>2025-09-28T07:40:44Z</time>
      </trkpt>
      <trkpt lat="45.68649" lon="2.95355">
        <ele>957.6</ele>
        <time>2025-09-28T07:40:45Z</time>
      </trkpt>
      <trkpt lat="45.68647" lon="2.95363">
        <ele>957.8</ele>
        <time>2025-09-28T07:40:46Z</time>
      </trkpt>
      <trkpt lat="45.68646" lon="2.9537">
        <ele>957.8</ele>
        <time>2025-09-28T07:40:47Z</time>
      </trkpt>
      <trkpt lat="45.68646" lon="2.95378">
        <ele>957.8</ele>
        <time>2025-09-28T07:40:48Z</time>
      </trkpt>
      <trkpt lat="45.68646" lon="2.95385">
        <ele>957.8</ele>
        <time>2025-09-28T07:40:49Z</time>
      </trkpt>
      <trkpt lat="45.68646" lon="2.95393">
        <ele>957.8</ele>
        <time>2025-09-28T07:40:50Z</time>
      </trkpt>
      <trkpt lat="45.68647" lon="2.95401">
        <ele>957.8</ele>
        <time>2025-09-28T07:40:51Z</time>
      </trkpt>
      <trkpt lat="45.68647" lon="2.95409">
        <ele>957.8</ele>
        <time>2025-09-28T07:40:52Z</time>
      </trkpt>
      <trkpt lat="45.68646" lon="2.95417">
        <ele>957.6</ele>
        <time>2025-09-28T07:40:53Z</time>
      </trkpt>
      <trkpt lat="45.68645" lon="2.95424">
        <ele>957.6</ele>
        <time>2025-09-28T07:40:54Z</time>
      </trkpt>
      <trkpt lat="45.68643" lon="2.95431">
        <ele>957.6</ele>
        <time>2025-09-28T07:40:55Z</time>
      </trkpt>
      <trkpt lat="45.6864" lon="2.95436">
        <ele>957.6</ele>
        <time>2025-09-28T07:40:56Z</time>
      </trkpt>
      <trkpt lat="45.68636" lon="2.95439">
        <ele>957.6</ele>
        <time>2025-09-28T07:40:57Z</time>
      </trkpt>
      <trkpt lat="45.68632" lon="2.9544">
        <ele>957.6</ele>
        <time>2025-09-28T07:40:58Z</time>
      </trkpt>
      <trkpt lat="45.68627" lon="2.95439">
        <ele>957.6</ele>
        <time>2025-09-28T07:40:59Z</time>
      </trkpt>
      <trkpt lat="45.68621" lon="2.95436">
        <ele>957.8</ele>
        <time>2025-09-28T07:41:00Z</time>
      </trkpt>
      <trkpt lat="45.68617" lon="2.95433">
        <ele>958</ele>
        <time>2025-09-28T07:41:01Z</time>
      </trkpt>
      <trkpt lat="45.68613" lon="2.95429">
        <ele>958.2</ele>
        <time>2025-09-28T07:41:02Z</time>
      </trkpt>
      <trkpt lat="45.68609" lon="2.95426">
        <ele>958.4</ele>
        <time>2025-09-28T07:41:03Z</time>
      </trkpt>
      <trkpt lat="45.68605" lon="2.95423">
        <ele>958.8</ele>
        <time>2025-09-28T07:41:04Z</time>
      </trkpt>
      <trkpt lat="45.68601" lon="2.95421">
        <ele>959</ele>
        <time>2025-09-28T07:41:05Z</time>
      </trkpt>
      <trkpt lat="45.68598" lon="2.95419">
        <ele>959.2</ele>
        <time>2025-09-28T07:41:06Z</time>
      </trkpt>
      <trkpt lat="45.68595" lon="2.95416">
        <ele>959.4</ele>
        <time>2025-09-28T07:41:07Z</time>
      </trkpt>
      <trkpt lat="45.68592" lon="2.95413">
        <ele>959.4</ele>
        <time>2025-09-28T07:41:08Z</time>
      </trkpt>
      <trkpt lat="45.68589" lon="2.95409">
        <ele>959.6</ele>
        <time>2025-09-28T07:41:09Z</time>
      </trkpt>
      <trkpt lat="45.68586" lon="2.95406">
        <ele>959.8</ele>
        <time>2025-09-28T07:41:10Z</time>
      </trkpt>
      <trkpt lat="45.68583" lon="2.95403">
        <ele>960</ele>
        <time>2025-09-28T07:41:11Z</time>
      </trkpt>
      <trkpt lat="45.6858" lon="2.954">
        <ele>960.2</ele>
        <time>2025-09-28T07:41:12Z</time>
      </trkpt>
      <trkpt lat="45.68577" lon="2.95399">
        <ele>960.4</ele>
        <time>2025-09-28T07:41:13Z</time>
      </trkpt>
      <trkpt lat="45.68574" lon="2.95399">
        <ele>960.6</ele>
        <time>2025-09-28T07:41:14Z</time>
      </trkpt>
      <trkpt lat="45.68571" lon="2.954">
        <ele>960.8</ele>
        <time>2025-09-28T07:41:15Z</time>
      </trkpt>
      <trkpt lat="45.68568" lon="2.95401">
        <ele>961.2</ele>
        <time>2025-09-28T07:41:16Z</time>
      </trkpt>
      <trkpt lat="45.68565" lon="2.95402">
        <ele>961.4</ele>
        <time>2025-09-28T07:41:17Z</time>
      </trkpt>
      <trkpt lat="45.68562" lon="2.95404">
        <ele>961.6</ele>
        <time>2025-09-28T07:41:18Z</time>
      </trkpt>
      <trkpt lat="45.6856" lon="2.95406">
        <ele>962</ele>
        <time>2025-09-28T07:41:19Z</time>
      </trkpt>
      <trkpt lat="45.68558" lon="2.95408">
        <ele>962.2</ele>
        <time>2025-09-28T07:41:20Z</time>
      </trkpt>
      <trkpt lat="45.68557" lon="2.9541">
        <ele>962.6</ele>
        <time>2025-09-28T07:41:21Z</time>
      </trkpt>
      <trkpt lat="45.68555" lon="2.95413">
        <ele>963</ele>
        <time>2025-09-28T07:41:22Z</time>
      </trkpt>
      <trkpt lat="45.68553" lon="2.95414">
        <ele>963.2</ele>
        <time>2025-09-28T07:41:23Z</time>
      </trkpt>
      <trkpt lat="45.68552" lon="2.95416">
        <ele>963.6</ele>
        <time>2025-09-28T07:41:24Z</time>
      </trkpt>
      <trkpt lat="45.68551" lon="2.95418">
        <ele>964</ele>
        <time>2025-09-28T07:41:25Z</time>
      </trkpt>
      <trkpt lat="45.68549" lon="2.9542">
        <ele>964.2</ele>
        <time>2025-09-28T07:41:26Z</time>
      </trkpt>
      <trkpt lat="45.68548" lon="2.95423">
        <ele>964.6</ele>
        <time>2025-09-28T07:41:27Z</time>
      </trkpt>
      <trkpt lat="45.68547" lon="2.95425">
        <ele>965</ele>
        <time>2025-09-28T07:41:28Z</time>
      </trkpt>
      <trkpt lat="45.68546" lon="2.95427">
        <ele>965.2</ele>
        <time>2025-09-28T07:41:29Z</time>
      </trkpt>
      <trkpt lat="45.68545" lon="2.9543">
        <ele>965.4</ele>
        <time>2025-09-28T07:41:30Z</time>
      </trkpt>
      <trkpt lat="45.68544" lon="2.95432">
        <ele>965.8</ele>
        <time>2025-09-28T07:41:31Z</time>
      </trkpt>
      <trkpt lat="45.68542" lon="2.95433">
        <ele>966.2</ele>
        <time>2025-09-28T07:41:32Z</time>
      </trkpt>
      <trkpt lat="45.6854" lon="2.95435">
        <ele>966.4</ele>
        <time>2025-09-28T07:41:33Z</time>
      </trkpt>
      <trkpt lat="45.68539" lon="2.95437">
        <ele>966.6</ele>
        <time>2025-09-28T07:41:34Z</time>
      </trkpt>
      <trkpt lat="45.68537" lon="2.95438">
        <ele>967</ele>
        <time>2025-09-28T07:41:35Z</time>
      </trkpt>
      <trkpt lat="45.68535" lon="2.9544">
        <ele>967.2</ele>
        <time>2025-09-28T07:41:36Z</time>
      </trkpt>
      <trkpt lat="45.68534" lon="2.95441">
        <ele>967.4</ele>
        <time>2025-09-28T07:41:37Z</time>
      </trkpt>
      <trkpt lat="45.68532" lon="2.95442">
        <ele>967.6</ele>
        <time>2025-09-28T07:41:38Z</time>
      </trkpt>
      <trkpt lat="45.6853" lon="2.95445">
        <ele>967.8</ele>
        <time>2025-09-28T07:41:39Z</time>
      </trkpt>
      <trkpt lat="45.68527" lon="2.95448">
        <ele>968</ele>
        <time>2025-09-28T07:41:40Z</time>
      </trkpt>
      <trkpt lat="45.68524" lon="2.95451">
        <ele>968.2</ele>
        <time>2025-09-28T07:41:41Z</time>
      </trkpt>
      <trkpt lat="45.68521" lon="2.95454">
        <ele>968.4</ele>
        <time>2025-09-28T07:41:42Z</time>
      </trkpt>
      <trkpt lat="45.68518" lon="2.95456">
        <ele>968.6</ele>
        <time>2025-09-28T07:41:43Z</time>
      </trkpt>
      <trkpt lat="45.68515" lon="2.95459">
        <ele>968.8</ele>
        <time>2025-09-28T07:41:44Z</time>
      </trkpt>
      <trkpt lat="45.68512" lon="2.95461">
        <ele>969</ele>
        <time>2025-09-28T07:41:45Z</time>
      </trkpt>
      <trkpt lat="45.68509" lon="2.95463">
        <ele>969.2</ele>
        <time>2025-09-28T07:41:46Z</time>
      </trkpt>
      <trkpt lat="45.68507" lon="2.95465">
        <ele>969.4</ele>
        <time>2025-09-28T07:41:47Z</time>
      </trkpt>
      <trkpt lat="45.68505" lon="2.95466">
        <ele>969.6</ele>
        <time>2025-09-28T07:41:48Z</time>
      </trkpt>
      <trkpt lat="45.68503" lon="2.95468">
        <ele>969.8</ele>
        <time>2025-09-28T07:41:49Z</time>
      </trkpt>
      <trkpt lat="45.68501" lon="2.9547">
        <ele>970</ele>
        <time>2025-09-28T07:41:50Z</time>
      </trkpt>
      <trkpt lat="45.68499" lon="2.95473">
        <ele>970.2</ele>
        <time>2025-09-28T07:41:51Z</time>
      </trkpt>
      <trkpt lat="45.68496" lon="2.95476">
        <ele>970.4</ele>
        <time>2025-09-28T07:41:52Z</time>
      </trkpt>
      <trkpt lat="45.68493" lon="2.9548">
        <ele>970.6</ele>
        <time>2025-09-28T07:41:53Z</time>
      </trkpt>
      <trkpt lat="45.68489" lon="2.95485">
        <ele>970.8</ele>
        <time>2025-09-28T07:41:54Z</time>
      </trkpt>
      <trkpt lat="45.68485" lon="2.9549">
        <ele>970.8</ele>
        <time>2025-09-28T07:41:55Z</time>
      </trkpt>
      <trkpt lat="45.68481" lon="2.95493">
        <ele>971</ele>
        <time>2025-09-28T07:41:56Z</time>
      </trkpt>
      <trkpt lat="45.68478" lon="2.95496">
        <ele>971.2</ele>
        <time>2025-09-28T07:41:57Z</time>
      </trkpt>
      <trkpt lat="45.68475" lon="2.955">
        <ele>971.2</ele>
        <time>2025-09-28T07:41:58Z</time>
      </trkpt>
      <trkpt lat="45.68471" lon="2.95503">
        <ele>971.4</ele>
        <time>2025-09-28T07:41:59Z</time>
      </trkpt>
      <trkpt lat="45.68467" lon="2.95507">
        <ele>971.4</ele>
        <time>2025-09-28T07:42:00Z</time>
      </trkpt>
      <trkpt lat="45.68463" lon="2.95511">
        <ele>971.6</ele>
        <time>2025-09-28T07:42:01Z</time>
      </trkpt>
      <trkpt lat="45.68459" lon="2.95514">
        <ele>971.6</ele>
        <time>2025-09-28T07:42:02Z</time>
      </trkpt>
      <trkpt lat="45.68456" lon="2.95517">
        <ele>971.6</ele>
        <time>2025-09-28T07:42:03Z</time>
      </trkpt>
      <trkpt lat="45.68454" lon="2.95521">
        <ele>971.8</ele>
        <time>2025-09-28T07:42:04Z</time>
      </trkpt>
      <trkpt lat="45.6845" lon="2.95525">
        <ele>971.8</ele>
        <time>2025-09-28T07:42:05Z</time>
      </trkpt>
      <trkpt lat="45.68446" lon="2.95528">
        <ele>971.8</ele>
        <time>2025-09-28T07:42:06Z</time>
      </trkpt>
      <trkpt lat="45.68443" lon="2.9553">
        <ele>972</ele>
        <time>2025-09-28T07:42:07Z</time>
      </trkpt>
      <trkpt lat="45.68439" lon="2.95535">
        <ele>972</ele>
        <time>2025-09-28T07:42:08Z</time>
      </trkpt>
      <trkpt lat="45.68433" lon="2.95542">
        <ele>972</ele>
        <time>2025-09-28T07:42:09Z</time>
      </trkpt>
      <trkpt lat="45.68428" lon="2.95547">
        <ele>972</ele>
        <time>2025-09-28T07:42:10Z</time>
      </trkpt>
      <trkpt lat="45.68424" lon="2.95552">
        <ele>972</ele>
        <time>2025-09-28T07:42:11Z</time>
      </trkpt>
      <trkpt lat="45.68421" lon="2.95557">
        <ele>972</ele>
        <time>2025-09-28T07:42:12Z</time>
      </trkpt>
      <trkpt lat="45.68418" lon="2.95562">
        <ele>972</ele>
        <time>2025-09-28T07:42:13Z</time>
      </trkpt>
      <trkpt lat="45.68416" lon="2.95565">
        <ele>972</ele>
        <time>2025-09-28T07:42:14Z</time>
      </trkpt>
      <trkpt lat="45.68414" lon="2.95569">
        <ele>971.8</ele>
        <time>2025-09-28T07:42:15Z</time>
      </trkpt>
      <trkpt lat="45.68412" lon="2.95576">
        <ele>971.8</ele>
        <time>2025-09-28T07:42:16Z</time>
      </trkpt>
      <trkpt lat="45.68409" lon="2.95582">
        <ele>971.8</ele>
        <time>2025-09-28T07:42:17Z</time>
      </trkpt>
      <trkpt lat="45.68407" lon="2.95588">
        <ele>971.8</ele>
        <time>2025-09-28T07:42:18Z</time>
      </trkpt>
      <trkpt lat="45.68404" lon="2.95594">
        <ele>971.6</ele>
        <time>2025-09-28T07:42:19Z</time>
      </trkpt>
      <trkpt lat="45.68401" lon="2.956">
        <ele>971.4</ele>
        <time>2025-09-28T07:42:20Z</time>
      </trkpt>
      <trkpt lat="45.68399" lon="2.95606">
        <ele>971.2</ele>
        <time>2025-09-28T07:42:21Z</time>
      </trkpt>
      <trkpt lat="45.68396" lon="2.95613">
        <ele>971.2</ele>
        <time>2025-09-28T07:42:22Z</time>
      </trkpt>
      <trkpt lat="45.68393" lon="2.9562">
        <ele>971</ele>
        <time>2025-09-28T07:42:23Z</time>
      </trkpt>
      <trkpt lat="45.68389" lon="2.95628">
        <ele>970.8</ele>
        <time>2025-09-28T07:42:24Z</time>
      </trkpt>
      <trkpt lat="45.68386" lon="2.95636">
        <ele>970.6</ele>
        <time>2025-09-28T07:42:25Z</time>
      </trkpt>
      <trkpt lat="45.68381" lon="2.95644">
        <ele>970.4</ele>
        <time>2025-09-28T07:42:26Z</time>
      </trkpt>
      <trkpt lat="45.68377" lon="2.95654">
        <ele>970.2</ele>
        <time>2025-09-28T07:42:27Z</time>
      </trkpt>
      <trkpt lat="45.68372" lon="2.95665">
        <ele>970</ele>
        <time>2025-09-28T07:42:28Z</time>
      </trkpt>
      <trkpt lat="45.68368" lon="2.95675">
        <ele>969.8</ele>
        <time>2025-09-28T07:42:29Z</time>
      </trkpt>
      <trkpt lat="45.68366" lon="2.95683">
        <ele>969.8</ele>
        <time>2025-09-28T07:42:30Z</time>
      </trkpt>
      <trkpt lat="45.68366" lon="2.95691">
        <ele>969.8</ele>
        <time>2025-09-28T07:42:31Z</time>
      </trkpt>
      <trkpt lat="45.68365" lon="2.95698">
        <ele>969.6</ele>
        <time>2025-09-28T07:42:32Z</time>
      </trkpt>
      <trkpt lat="45.68365" lon="2.95705">
        <ele>969.6</ele>
        <time>2025-09-28T07:42:33Z</time>
      </trkpt>
      <trkpt lat="45.68363" lon="2.95712">
        <ele>969.4</ele>
        <time>2025-09-28T07:42:34Z</time>
      </trkpt>
      <trkpt lat="45.6836" lon="2.95719">
        <ele>969.4</ele>
        <time>2025-09-28T07:42:35Z</time>
      </trkpt>
      <trkpt lat="45.68358" lon="2.95727">
        <ele>969.2</ele>
        <time>2025-09-28T07:42:36Z</time>
      </trkpt>
      <trkpt lat="45.68356" lon="2.95735">
        <ele>969</ele>
        <time>2025-09-28T07:42:37Z</time>
      </trkpt>
      <trkpt lat="45.68354" lon="2.95742">
        <ele>968.8</ele>
        <time>2025-09-28T07:42:38Z</time>
      </trkpt>
      <trkpt lat="45.68352" lon="2.95749">
        <ele>968.6</ele>
        <time>2025-09-28T07:42:39Z</time>
      </trkpt>
      <trkpt lat="45.6835" lon="2.95757">
        <ele>968.4</ele>
        <time>2025-09-28T07:42:40Z</time>
      </trkpt>
      <trkpt lat="45.68347" lon="2.95765">
        <ele>968.2</ele>
        <time>2025-09-28T07:42:41Z</time>
      </trkpt>
      <trkpt lat="45.68344" lon="2.95774">
        <ele>968</ele>
        <time>2025-09-28T07:42:42Z</time>
      </trkpt>
      <trkpt lat="45.68341" lon="2.95784">
        <ele>967.8</ele>
        <time>2025-09-28T07:42:43Z</time>
      </trkpt>
      <trkpt lat="45.68337" lon="2.95794">
        <ele>967.6</ele>
        <time>2025-09-28T07:42:44Z</time>
      </trkpt>
      <trkpt lat="45.68334" lon="2.95805">
        <ele>967.4</ele>
        <time>2025-09-28T07:42:45Z</time>
      </trkpt>
      <trkpt lat="45.68333" lon="2.95816">
        <ele>967.2</ele>
        <time>2025-09-28T07:42:46Z</time>
      </trkpt>
      <trkpt lat="45.68333" lon="2.95826">
        <ele>967</ele>
        <time>2025-09-28T07:42:47Z</time>
      </trkpt>
      <trkpt lat="45.68333" lon="2.95837">
        <ele>967</ele>
        <time>2025-09-28T07:42:48Z</time>
      </trkpt>
      <trkpt lat="45.68332" lon="2.95847">
        <ele>966.8</ele>
        <time>2025-09-28T07:42:49Z</time>
      </trkpt>
      <trkpt lat="45.68332" lon="2.95855">
        <ele>966.8</ele>
        <time>2025-09-28T07:42:50Z</time>
      </trkpt>
      <trkpt lat="45.68331" lon="2.95864">
        <ele>966.8</ele>
        <time>2025-09-28T07:42:51Z</time>
      </trkpt>
      <trkpt lat="45.68331" lon="2.95872">
        <ele>966.8</ele>
        <time>2025-09-28T07:42:52Z</time>
      </trkpt>
      <trkpt lat="45.68331" lon="2.9588">
        <ele>967</ele>
        <time>2025-09-28T07:42:53Z</time>
      </trkpt>
      <trkpt lat="45.68331" lon="2.95887">
        <ele>967</ele>
        <time>2025-09-28T07:42:54Z</time>
      </trkpt>
      <trkpt lat="45.68331" lon="2.95894">
        <ele>967</ele>
        <time>2025-09-28T07:42:55Z</time>
      </trkpt>
      <trkpt lat="45.68332" lon="2.95901">
        <ele>967.2</ele>
        <time>2025-09-28T07:42:56Z</time>
      </trkpt>
      <trkpt lat="45.68332" lon="2.95907">
        <ele>967.2</ele>
        <time>2025-09-28T07:42:57Z</time>
      </trkpt>
      <trkpt lat="45.68332" lon="2.95914">
        <ele>967.2</ele>
        <time>2025-09-28T07:42:58Z</time>
      </trkpt>
      <trkpt lat="45.68332" lon="2.9592">
        <ele>967.2</ele>
        <time>2025-09-28T07:42:59Z</time>
      </trkpt>
      <trkpt lat="45.68332" lon="2.95927">
        <ele>967.4</ele>
        <time>2025-09-28T07:43:00Z</time>
      </trkpt>
      <trkpt lat="45.68333" lon="2.95934">
        <ele>967.4</ele>
        <time>2025-09-28T07:43:01Z</time>
      </trkpt>
      <trkpt lat="45.68334" lon="2.9594">
        <ele>967.6</ele>
        <time>2025-09-28T07:43:02Z</time>
      </trkpt>
      <trkpt lat="45.68334" lon="2.95947">
        <ele>967.6</ele>
        <time>2025-09-28T07:43:03Z</time>
      </trkpt>
      <trkpt lat="45.68334" lon="2.95953">
        <ele>967.6</ele>
        <time>2025-09-28T07:43:04Z</time>
      </trkpt>
      <trkpt lat="45.68334" lon="2.9596">
        <ele>967.6</ele>
        <time>2025-09-28T07:43:05Z</time>
      </trkpt>
      <trkpt lat="45.68335" lon="2.95967">
        <ele>967.8</ele>
        <time>2025-09-28T07:43:06Z</time>
      </trkpt>
      <trkpt lat="45.68336" lon="2.95974">
        <ele>967.8</ele>
        <time>2025-09-28T07:43:07Z</time>
      </trkpt>
      <trkpt lat="45.68336" lon="2.95981">
        <ele>967.8</ele>
        <time>2025-09-28T07:43:08Z</time>
      </trkpt>
      <trkpt lat="45.68336" lon="2.95988">
        <ele>967.8</ele>
        <time>2025-09-28T07:43:09Z</time>
      </trkpt>
      <trkpt lat="45.68337" lon="2.95994">
        <ele>967.8</ele>
        <time>2025-09-28T07:43:10Z</time>
      </trkpt>
      <trkpt lat="45.68337" lon="2.96">
        <ele>967.8</ele>
        <time>2025-09-28T07:43:11Z</time>
      </trkpt>
      <trkpt lat="45.68338" lon="2.96007">
        <ele>967.8</ele>
        <time>2025-09-28T07:43:12Z</time>
      </trkpt>
      <trkpt lat="45.68338" lon="2.96013">
        <ele>968</ele>
        <time>2025-09-28T07:43:13Z</time>
      </trkpt>
      <trkpt lat="45.68338" lon="2.9602">
        <ele>968</ele>
        <time>2025-09-28T07:43:14Z</time>
      </trkpt>
      <trkpt lat="45.68339" lon="2.96028">
        <ele>968</ele>
        <time>2025-09-28T07:43:15Z</time>
      </trkpt>
      <trkpt lat="45.68339" lon="2.96035">
        <ele>968</ele>
        <time>2025-09-28T07:43:16Z</time>
      </trkpt>
      <trkpt lat="45.68339" lon="2.96044">
        <ele>968</ele>
        <time>2025-09-28T07:43:17Z</time>
      </trkpt>
      <trkpt lat="45.6834" lon="2.96052">
        <ele>968</ele>
        <time>2025-09-28T07:43:18Z</time>
      </trkpt>
      <trkpt lat="45.6834" lon="2.9606">
        <ele>967.8</ele>
        <time>2025-09-28T07:43:19Z</time>
      </trkpt>
      <trkpt lat="45.68341" lon="2.96068">
        <ele>967.8</ele>
        <time>2025-09-28T07:43:20Z</time>
      </trkpt>
      <trkpt lat="45.68342" lon="2.96076">
        <ele>967.8</ele>
        <time>2025-09-28T07:43:21Z</time>
      </trkpt>
      <trkpt lat="45.68342" lon="2.96084">
        <ele>967.6</ele>
        <time>2025-09-28T07:43:22Z</time>
      </trkpt>
      <trkpt lat="45.68342" lon="2.96091">
        <ele>967.6</ele>
        <time>2025-09-28T07:43:23Z</time>
      </trkpt>
      <trkpt lat="45.68342" lon="2.96096">
        <ele>967.6</ele>
        <time>2025-09-28T07:43:24Z</time>
      </trkpt>
      <trkpt lat="45.68342" lon="2.96102">
        <ele>967.6</ele>
        <time>2025-09-28T07:43:25Z</time>
      </trkpt>
      <trkpt lat="45.68342" lon="2.96108">
        <ele>967.6</ele>
        <time>2025-09-28T07:43:26Z</time>
      </trkpt>
      <trkpt lat="45.68343" lon="2.96113">
        <ele>967.4</ele>
        <time>2025-09-28T07:43:27Z</time>
      </trkpt>
      <trkpt lat="45.68343" lon="2.96119">
        <ele>967.4</ele>
        <time>2025-09-28T07:43:28Z</time>
      </trkpt>
      <trkpt lat="45.68344" lon="2.96124">
        <ele>967.4</ele>
        <time>2025-09-28T07:43:29Z</time>
      </trkpt>
      <trkpt lat="45.68344" lon="2.96129">
        <ele>967.4</ele>
        <time>2025-09-28T07:43:30Z</time>
      </trkpt>
      <trkpt lat="45.68345" lon="2.96134">
        <ele>967.2</ele>
        <time>2025-09-28T07:43:31Z</time>
      </trkpt>
      <trkpt lat="45.68345" lon="2.96138">
        <ele>967.2</ele>
        <time>2025-09-28T07:43:32Z</time>
      </trkpt>
      <trkpt lat="45.68345" lon="2.96142">
        <ele>967.2</ele>
        <time>2025-09-28T07:43:33Z</time>
      </trkpt>
      <trkpt lat="45.68345" lon="2.96145">
        <ele>967</ele>
        <time>2025-09-28T07:43:34Z</time>
      </trkpt>
      <trkpt lat="45.68343" lon="2.96147">
        <ele>967</ele>
        <time>2025-09-28T07:43:35Z</time>
      </trkpt>
      <trkpt lat="45.68341" lon="2.96148">
        <ele>967</ele>
        <time>2025-09-28T07:43:36Z</time>
      </trkpt>
      <trkpt lat="45.68338" lon="2.96149">
        <ele>967.2</ele>
        <time>2025-09-28T07:43:37Z</time>
      </trkpt>
      <trkpt lat="45.68335" lon="2.9615">
        <ele>967.2</ele>
        <time>2025-09-28T07:43:38Z</time>
      </trkpt>
      <trkpt lat="45.68332" lon="2.9615">
        <ele>967.2</ele>
        <time>2025-09-28T07:43:39Z</time>
      </trkpt>
      <trkpt lat="45.6833" lon="2.96151">
        <ele>967.2</ele>
        <time>2025-09-28T07:43:40Z</time>
      </trkpt>
      <trkpt lat="45.68329" lon="2.9615">
        <ele>967.2</ele>
        <time>2025-09-28T07:43:41Z</time>
      </trkpt>
      <trkpt lat="45.68328" lon="2.96149">
        <ele>967</ele>
        <time>2025-09-28T07:43:42Z</time>
      </trkpt>
      <trkpt lat="45.68327" lon="2.96147">
        <ele>967</ele>
        <time>2025-09-28T07:43:43Z</time>
      </trkpt>
      <trkpt lat="45.68327" lon="2.96145">
        <ele>966.8</ele>
        <time>2025-09-28T07:43:44Z</time>
      </trkpt>
      <trkpt lat="45.68327" lon="2.96141">
        <ele>966.8</ele>
        <time>2025-09-28T07:43:45Z</time>
      </trkpt>
      <trkpt lat="45.68327" lon="2.96137">
        <ele>966.8</ele>
        <time>2025-09-28T07:43:46Z</time>
      </trkpt>
      <trkpt lat="45.68326" lon="2.96132">
        <ele>966.8</ele>
        <time>2025-09-28T07:43:47Z</time>
      </trkpt>
      <trkpt lat="45.68325" lon="2.96127">
        <ele>966.6</ele>
        <time>2025-09-28T07:43:48Z</time>
      </trkpt>
      <trkpt lat="45.68325" lon="2.96122">
        <ele>966.4</ele>
        <time>2025-09-28T07:43:49Z</time>
      </trkpt>
      <trkpt lat="45.68323" lon="2.96116">
        <ele>966</ele>
        <time>2025-09-28T07:43:50Z</time>
      </trkpt>
      <trkpt lat="45.6832" lon="2.96109">
        <ele>965.6</ele>
        <time>2025-09-28T07:43:51Z</time>
      </trkpt>
      <trkpt lat="45.68317" lon="2.96102">
        <ele>965.4</ele>
        <time>2025-09-28T07:43:52Z</time>
      </trkpt>
      <trkpt lat="45.68314" lon="2.96095">
        <ele>965.2</ele>
        <time>2025-09-28T07:43:53Z</time>
      </trkpt>
      <trkpt lat="45.68312" lon="2.96089">
        <ele>965.2</ele>
        <time>2025-09-28T07:43:54Z</time>
      </trkpt>
      <trkpt lat="45.68309" lon="2.96084">
        <ele>965.2</ele>
        <time>2025-09-28T07:43:55Z</time>
      </trkpt>
      <trkpt lat="45.68306" lon="2.96079">
        <ele>965.2</ele>
        <time>2025-09-28T07:43:56Z</time>
      </trkpt>
      <trkpt lat="45.68304" lon="2.96076">
        <ele>965.2</ele>
        <time>2025-09-28T07:43:57Z</time>
      </trkpt>
      <trkpt lat="45.683" lon="2.96073">
        <ele>965.2</ele>
        <time>2025-09-28T07:43:58Z</time>
      </trkpt>
      <trkpt lat="45.68296" lon="2.96072">
        <ele>965.2</ele>
        <time>2025-09-28T07:43:59Z</time>
      </trkpt>
      <trkpt lat="45.68292" lon="2.96074">
        <ele>965</ele>
        <time>2025-09-28T07:44:00Z</time>
      </trkpt>
      <trkpt lat="45.68289" lon="2.96077">
        <ele>965</ele>
        <time>2025-09-28T07:44:01Z</time>
      </trkpt>
      <trkpt lat="45.68285" lon="2.96081">
        <ele>964.8</ele>
        <time>2025-09-28T07:44:02Z</time>
      </trkpt>
      <trkpt lat="45.68282" lon="2.96087">
        <ele>964.6</ele>
        <time>2025-09-28T07:44:03Z</time>
      </trkpt>
      <trkpt lat="45.6828" lon="2.96094">
        <ele>964.4</ele>
        <time>2025-09-28T07:44:04Z</time>
      </trkpt>
      <trkpt lat="45.68278" lon="2.96102">
        <ele>964.2</ele>
        <time>2025-09-28T07:44:05Z</time>
      </trkpt>
      <trkpt lat="45.68277" lon="2.9611">
        <ele>964</ele>
        <time>2025-09-28T07:44:06Z</time>
      </trkpt>
      <trkpt lat="45.68277" lon="2.96118">
        <ele>963.8</ele>
        <time>2025-09-28T07:44:07Z</time>
      </trkpt>
      <trkpt lat="45.68277" lon="2.96125">
        <ele>963.6</ele>
        <time>2025-09-28T07:44:08Z</time>
      </trkpt>
      <trkpt lat="45.68276" lon="2.96131">
        <ele>963.4</ele>
        <time>2025-09-28T07:44:09Z</time>
      </trkpt>
      <trkpt lat="45.68276" lon="2.96137">
        <ele>963.2</ele>
        <time>2025-09-28T07:44:10Z</time>
      </trkpt>
      <trkpt lat="45.68275" lon="2.96143">
        <ele>963</ele>
        <time>2025-09-28T07:44:11Z</time>
      </trkpt>
      <trkpt lat="45.68275" lon="2.96147">
        <ele>963</ele>
        <time>2025-09-28T07:44:12Z</time>
      </trkpt>
      <trkpt lat="45.68275" lon="2.96151">
        <ele>963</ele>
        <time>2025-09-28T07:44:13Z</time>
      </trkpt>
      <trkpt lat="45.68276" lon="2.96154">
        <ele>962.8</ele>
        <time>2025-09-28T07:44:14Z</time>
      </trkpt>
      <trkpt lat="45.68276" lon="2.96157">
        <ele>962.8</ele>
        <time>2025-09-28T07:44:15Z</time>
      </trkpt>
      <trkpt lat="45.68276" lon="2.9616">
        <ele>962.8</ele>
        <time>2025-09-28T07:44:16Z</time>
      </trkpt>
      <trkpt lat="45.68276" lon="2.96163">
        <ele>962.8</ele>
        <time>2025-09-28T07:44:17Z</time>
      </trkpt>
      <trkpt lat="45.68276" lon="2.96166">
        <ele>962.4</ele>
        <time>2025-09-28T07:44:18Z</time>
      </trkpt>
      <trkpt lat="45.68275" lon="2.96169">
        <ele>962</ele>
        <time>2025-09-28T07:44:19Z</time>
      </trkpt>
      <trkpt lat="45.68274" lon="2.96174">
        <ele>961.6</ele>
        <time>2025-09-28T07:44:20Z</time>
      </trkpt>
      <trkpt lat="45.68273" lon="2.96179">
        <ele>961.2</ele>
        <time>2025-09-28T07:44:21Z</time>
      </trkpt>
      <trkpt lat="45.68273" lon="2.96184">
        <ele>961</ele>
        <time>2025-09-28T07:44:22Z</time>
      </trkpt>
      <trkpt lat="45.68273" lon="2.96189">
        <ele>961</ele>
        <time>2025-09-28T07:44:23Z</time>
      </trkpt>
      <trkpt lat="45.68273" lon="2.96195">
        <ele>960.8</ele>
        <time>2025-09-28T07:44:24Z</time>
      </trkpt>
      <trkpt lat="45.68271" lon="2.962">
        <ele>960.8</ele>
        <time>2025-09-28T07:44:25Z</time>
      </trkpt>
      <trkpt lat="45.68269" lon="2.96206">
        <ele>960.8</ele>
        <time>2025-09-28T07:44:26Z</time>
      </trkpt>
      <trkpt lat="45.68267" lon="2.96213">
        <ele>960.6</ele>
        <time>2025-09-28T07:44:27Z</time>
      </trkpt>
      <trkpt lat="45.68266" lon="2.96219">
        <ele>960.6</ele>
        <time>2025-09-28T07:44:28Z</time>
      </trkpt>
      <trkpt lat="45.68266" lon="2.96226">
        <ele>960.6</ele>
        <time>2025-09-28T07:44:29Z</time>
      </trkpt>
      <trkpt lat="45.68267" lon="2.96232">
        <ele>960.6</ele>
        <time>2025-09-28T07:44:30Z</time>
      </trkpt>
      <trkpt lat="45.68268" lon="2.96238">
        <ele>960.6</ele>
        <time>2025-09-28T07:44:31Z</time>
      </trkpt>
      <trkpt lat="45.68269" lon="2.96243">
        <ele>960.6</ele>
        <time>2025-09-28T07:44:32Z</time>
      </trkpt>
      <trkpt lat="45.68269" lon="2.96248">
        <ele>960.6</ele>
        <time>2025-09-28T07:44:33Z</time>
      </trkpt>
      <trkpt lat="45.68269" lon="2.96253">
        <ele>960.6</ele>
        <time>2025-09-28T07:44:34Z</time>
      </trkpt>
      <trkpt lat="45.68267" lon="2.96259">
        <ele>960.6</ele>
        <time>2025-09-28T07:44:35Z</time>
      </trkpt>
      <trkpt lat="45.68264" lon="2.96267">
        <ele>960.6</ele>
        <time>2025-09-28T07:44:36Z</time>
      </trkpt>
      <trkpt lat="45.6826" lon="2.96273">
        <ele>960.6</ele>
        <time>2025-09-28T07:44:37Z</time>
      </trkpt>
      <trkpt lat="45.68259" lon="2.9628">
        <ele>960.6</ele>
        <time>2025-09-28T07:44:38Z</time>
      </trkpt>
      <trkpt lat="45.6826" lon="2.96285">
        <ele>960.6</ele>
        <time>2025-09-28T07:44:39Z</time>
      </trkpt>
      <trkpt lat="45.6826" lon="2.9629">
        <ele>960.6</ele>
        <time>2025-09-28T07:44:40Z</time>
      </trkpt>
      <trkpt lat="45.6826" lon="2.96297">
        <ele>960.8</ele>
        <time>2025-09-28T07:44:41Z</time>
      </trkpt>
      <trkpt lat="45.6826" lon="2.96303">
        <ele>960.8</ele>
        <time>2025-09-28T07:44:42Z</time>
      </trkpt>
      <trkpt lat="45.68261" lon="2.96308">
        <ele>960.8</ele>
        <time>2025-09-28T07:44:43Z</time>
      </trkpt>
      <trkpt lat="45.68261" lon="2.96312">
        <ele>960.8</ele>
        <time>2025-09-28T07:44:44Z</time>
      </trkpt>
      <trkpt lat="45.68261" lon="2.96316">
        <ele>960.8</ele>
        <time>2025-09-28T07:44:45Z</time>
      </trkpt>
      <trkpt lat="45.68259" lon="2.96321">
        <ele>961</ele>
        <time>2025-09-28T07:44:46Z</time>
      </trkpt>
      <trkpt lat="45.68258" lon="2.96326">
        <ele>961</ele>
        <time>2025-09-28T07:44:47Z</time>
      </trkpt>
      <trkpt lat="45.68256" lon="2.96332">
        <ele>961.2</ele>
        <time>2025-09-28T07:44:48Z</time>
      </trkpt>
      <trkpt lat="45.68253" lon="2.96339">
        <ele>961.2</ele>
        <time>2025-09-28T07:44:49Z</time>
      </trkpt>
      <trkpt lat="45.6825" lon="2.96347">
        <ele>961.4</ele>
        <time>2025-09-28T07:44:50Z</time>
      </trkpt>
      <trkpt lat="45.68247" lon="2.96355">
        <ele>961.4</ele>
        <time>2025-09-28T07:44:51Z</time>
      </trkpt>
      <trkpt lat="45.68247" lon="2.96362">
        <ele>961.4</ele>
        <time>2025-09-28T07:44:52Z</time>
      </trkpt>
      <trkpt lat="45.68248" lon="2.96368">
        <ele>961.6</ele>
        <time>2025-09-28T07:44:53Z</time>
      </trkpt>
      <trkpt lat="45.68247" lon="2.96374">
        <ele>961.6</ele>
        <time>2025-09-28T07:44:54Z</time>
      </trkpt>
      <trkpt lat="45.68246" lon="2.96381">
        <ele>961.8</ele>
        <time>2025-09-28T07:44:55Z</time>
      </trkpt>
      <trkpt lat="45.68246" lon="2.96388">
        <ele>961.8</ele>
        <time>2025-09-28T07:44:56Z</time>
      </trkpt>
      <trkpt lat="45.68246" lon="2.96396">
        <ele>962</ele>
        <time>2025-09-28T07:44:57Z</time>
      </trkpt>
      <trkpt lat="45.68247" lon="2.96404">
        <ele>962</ele>
        <time>2025-09-28T07:44:58Z</time>
      </trkpt>
      <trkpt lat="45.68247" lon="2.96411">
        <ele>962</ele>
        <time>2025-09-28T07:44:59Z</time>
      </trkpt>
      <trkpt lat="45.68247" lon="2.96417">
        <ele>962.2</ele>
        <time>2025-09-28T07:45:00Z</time>
      </trkpt>
      <trkpt lat="45.68246" lon="2.96422">
        <ele>962.2</ele>
        <time>2025-09-28T07:45:01Z</time>
      </trkpt>
      <trkpt lat="45.68245" lon="2.96428">
        <ele>962.4</ele>
        <time>2025-09-28T07:45:02Z</time>
      </trkpt>
      <trkpt lat="45.68244" lon="2.96433">
        <ele>962.6</ele>
        <time>2025-09-28T07:45:03Z</time>
      </trkpt>
      <trkpt lat="45.68243" lon="2.96438">
        <ele>962.6</ele>
        <time>2025-09-28T07:45:04Z</time>
      </trkpt>
      <trkpt lat="45.68243" lon="2.96443">
        <ele>962.8</ele>
        <time>2025-09-28T07:45:05Z</time>
      </trkpt>
      <trkpt lat="45.68242" lon="2.96449">
        <ele>963</ele>
        <time>2025-09-28T07:45:06Z</time>
      </trkpt>
      <trkpt lat="45.68242" lon="2.96455">
        <ele>963</ele>
        <time>2025-09-28T07:45:07Z</time>
      </trkpt>
      <trkpt lat="45.68241" lon="2.96459">
        <ele>963.2</ele>
        <time>2025-09-28T07:45:08Z</time>
      </trkpt>
      <trkpt lat="45.6824" lon="2.96464">
        <ele>963.4</ele>
        <time>2025-09-28T07:45:09Z</time>
      </trkpt>
      <trkpt lat="45.68239" lon="2.96467">
        <ele>963.6</ele>
        <time>2025-09-28T07:45:10Z</time>
      </trkpt>
      <trkpt lat="45.68239" lon="2.96471">
        <ele>963.8</ele>
        <time>2025-09-28T07:45:11Z</time>
      </trkpt>
      <trkpt lat="45.68239" lon="2.96474">
        <ele>964</ele>
        <time>2025-09-28T07:45:12Z</time>
      </trkpt>
      <trkpt lat="45.68238" lon="2.96477">
        <ele>964.2</ele>
        <time>2025-09-28T07:45:13Z</time>
      </trkpt>
      <trkpt lat="45.68238" lon="2.96482">
        <ele>964.2</ele>
        <time>2025-09-28T07:45:14Z</time>
      </trkpt>
      <trkpt lat="45.68238" lon="2.96486">
        <ele>964.6</ele>
        <time>2025-09-28T07:45:15Z</time>
      </trkpt>
      <trkpt lat="45.68238" lon="2.96489">
        <ele>964.8</ele>
        <time>2025-09-28T07:45:16Z</time>
      </trkpt>
      <trkpt lat="45.68239" lon="2.96491">
        <ele>965</ele>
        <time>2025-09-28T07:45:17Z</time>
      </trkpt>
      <trkpt lat="45.6824" lon="2.96492">
        <ele>965.2</ele>
        <time>2025-09-28T07:45:18Z</time>
      </trkpt>
      <trkpt lat="45.6824" lon="2.96495">
        <ele>965.4</ele>
        <time>2025-09-28T07:45:19Z</time>
      </trkpt>
      <trkpt lat="45.68239" lon="2.96498">
        <ele>965.6</ele>
        <time>2025-09-28T07:45:20Z</time>
      </trkpt>
      <trkpt lat="45.68238" lon="2.96501">
        <ele>965.8</ele>
        <time>2025-09-28T07:45:21Z</time>
      </trkpt>
      <trkpt lat="45.68237" lon="2.96504">
        <ele>966</ele>
        <time>2025-09-28T07:45:22Z</time>
      </trkpt>
      <trkpt lat="45.68236" lon="2.96507">
        <ele>966.2</ele>
        <time>2025-09-28T07:45:23Z</time>
      </trkpt>
      <trkpt lat="45.68234" lon="2.96511">
        <ele>966.4</ele>
        <time>2025-09-28T07:45:24Z</time>
      </trkpt>
      <trkpt lat="45.68233" lon="2.96514">
        <ele>966.6</ele>
        <time>2025-09-28T07:45:25Z</time>
      </trkpt>
      <trkpt lat="45.68232" lon="2.96516">
        <ele>967</ele>
        <time>2025-09-28T07:45:26Z</time>
      </trkpt>
      <trkpt lat="45.68231" lon="2.96517">
        <ele>967.2</ele>
        <time>2025-09-28T07:45:27Z</time>
      </trkpt>
      <trkpt lat="45.68231" lon="2.96519">
        <ele>967.4</ele>
        <time>2025-09-28T07:45:28Z</time>
      </trkpt>
      <trkpt lat="45.6823" lon="2.96521">
        <ele>967.6</ele>
        <time>2025-09-28T07:45:29Z</time>
      </trkpt>
      <trkpt lat="45.68229" lon="2.96522">
        <ele>967.8</ele>
        <time>2025-09-28T07:45:30Z</time>
      </trkpt>
      <trkpt lat="45.68227" lon="2.96525">
        <ele>968</ele>
        <time>2025-09-28T07:45:31Z</time>
      </trkpt>
      <trkpt lat="45.68225" lon="2.9653">
        <ele>968.2</ele>
        <time>2025-09-28T07:45:32Z</time>
      </trkpt>
      <trkpt lat="45.68223" lon="2.96535">
        <ele>968.4</ele>
        <time>2025-09-28T07:45:33Z</time>
      </trkpt>
      <trkpt lat="45.68221" lon="2.9654">
        <ele>968.6</ele>
        <time>2025-09-28T07:45:34Z</time>
      </trkpt>
      <trkpt lat="45.68219" lon="2.96544">
        <ele>968.8</ele>
        <time>2025-09-28T07:45:35Z</time>
      </trkpt>
      <trkpt lat="45.68217" lon="2.96549">
        <ele>969</ele>
        <time>2025-09-28T07:45:36Z</time>
      </trkpt>
      <trkpt lat="45.68216" lon="2.96554">
        <ele>969.2</ele>
        <time>2025-09-28T07:45:37Z</time>
      </trkpt>
      <trkpt lat="45.68215" lon="2.96559">
        <ele>969.4</ele>
        <time>2025-09-28T07:45:38Z</time>
      </trkpt>
      <trkpt lat="45.68214" lon="2.96563">
        <ele>969.4</ele>
        <time>2025-09-28T07:45:39Z</time>
      </trkpt>
      <trkpt lat="45.68213" lon="2.96567">
        <ele>969.6</ele>
        <time>2025-09-28T07:45:40Z</time>
      </trkpt>
      <trkpt lat="45.68211" lon="2.96571">
        <ele>969.8</ele>
        <time>2025-09-28T07:45:41Z</time>
      </trkpt>
      <trkpt lat="45.68209" lon="2.96576">
        <ele>969.8</ele>
        <time>2025-09-28T07:45:42Z</time>
      </trkpt>
      <trkpt lat="45.68207" lon="2.96579">
        <ele>970</ele>
        <time>2025-09-28T07:45:43Z</time>
      </trkpt>
      <trkpt lat="45.68204" lon="2.96582">
        <ele>970.2</ele>
        <time>2025-09-28T07:45:44Z</time>
      </trkpt>
      <trkpt lat="45.68202" lon="2.96585">
        <ele>970.4</ele>
        <time>2025-09-28T07:45:45Z</time>
      </trkpt>
      <trkpt lat="45.68199" lon="2.96588">
        <ele>970.6</ele>
        <time>2025-09-28T07:45:46Z</time>
      </trkpt>
      <trkpt lat="45.68196" lon="2.96592">
        <ele>970.8</ele>
        <time>2025-09-28T07:45:47Z</time>
      </trkpt>
      <trkpt lat="45.68194" lon="2.96596">
        <ele>971</ele>
        <time>2025-09-28T07:45:48Z</time>
      </trkpt>
      <trkpt lat="45.68192" lon="2.966">
        <ele>971.2</ele>
        <time>2025-09-28T07:45:49Z</time>
      </trkpt>
      <trkpt lat="45.6819" lon="2.96605">
        <ele>971.4</ele>
        <time>2025-09-28T07:45:50Z</time>
      </trkpt>
      <trkpt lat="45.68189" lon="2.96609">
        <ele>971.6</ele>
        <time>2025-09-28T07:45:51Z</time>
      </trkpt>
      <trkpt lat="45.68187" lon="2.96614">
        <ele>972</ele>
        <time>2025-09-28T07:45:52Z</time>
      </trkpt>
      <trkpt lat="45.68186" lon="2.96618">
        <ele>972.2</ele>
        <time>2025-09-28T07:45:53Z</time>
      </trkpt>
      <trkpt lat="45.68185" lon="2.96622">
        <ele>972.2</ele>
        <time>2025-09-28T07:45:54Z</time>
      </trkpt>
      <trkpt lat="45.68182" lon="2.96626">
        <ele>972.4</ele>
        <time>2025-09-28T07:45:55Z</time>
      </trkpt>
      <trkpt lat="45.6818" lon="2.96629">
        <ele>972.6</ele>
        <time>2025-09-28T07:45:56Z</time>
      </trkpt>
      <trkpt lat="45.68177" lon="2.96632">
        <ele>972.8</ele>
        <time>2025-09-28T07:45:57Z</time>
      </trkpt>
      <trkpt lat="45.68174" lon="2.96634">
        <ele>972.8</ele>
        <time>2025-09-28T07:45:58Z</time>
      </trkpt>
      <trkpt lat="45.68172" lon="2.96637">
        <ele>973</ele>
        <time>2025-09-28T07:45:59Z</time>
      </trkpt>
      <trkpt lat="45.68169" lon="2.96638">
        <ele>973.2</ele>
        <time>2025-09-28T07:46:00Z</time>
      </trkpt>
      <trkpt lat="45.68166" lon="2.9664">
        <ele>973.4</ele>
        <time>2025-09-28T07:46:01Z</time>
      </trkpt>
      <trkpt lat="45.68163" lon="2.96642">
        <ele>973.4</ele>
        <time>2025-09-28T07:46:02Z</time>
      </trkpt>
      <trkpt lat="45.6816" lon="2.96644">
        <ele>973.6</ele>
        <time>2025-09-28T07:46:03Z</time>
      </trkpt>
      <trkpt lat="45.68157" lon="2.96645">
        <ele>973.6</ele>
        <time>2025-09-28T07:46:04Z</time>
      </trkpt>
      <trkpt lat="45.68154" lon="2.96646">
        <ele>973.8</ele>
        <time>2025-09-28T07:46:05Z</time>
      </trkpt>
      <trkpt lat="45.68151" lon="2.96648">
        <ele>973.8</ele>
        <time>2025-09-28T07:46:06Z</time>
      </trkpt>
      <trkpt lat="45.68148" lon="2.96649">
        <ele>974</ele>
        <time>2025-09-28T07:46:07Z</time>
      </trkpt>
      <trkpt lat="45.68145" lon="2.96651">
        <ele>974</ele>
        <time>2025-09-28T07:46:08Z</time>
      </trkpt>
      <trkpt lat="45.68142" lon="2.96652">
        <ele>974</ele>
        <time>2025-09-28T07:46:09Z</time>
      </trkpt>
      <trkpt lat="45.68139" lon="2.96654">
        <ele>974</ele>
        <time>2025-09-28T07:46:10Z</time>
      </trkpt>
      <trkpt lat="45.68136" lon="2.96656">
        <ele>974</ele>
        <time>2025-09-28T07:46:11Z</time>
      </trkpt>
      <trkpt lat="45.68132" lon="2.96658">
        <ele>974</ele>
        <time>2025-09-28T07:46:12Z</time>
      </trkpt>
      <trkpt lat="45.68129" lon="2.9666">
        <ele>973.8</ele>
        <time>2025-09-28T07:46:13Z</time>
      </trkpt>
      <trkpt lat="45.68125" lon="2.96662">
        <ele>973.8</ele>
        <time>2025-09-28T07:46:14Z</time>
      </trkpt>
      <trkpt lat="45.68122" lon="2.96664">
        <ele>973.8</ele>
        <time>2025-09-28T07:46:15Z</time>
      </trkpt>
      <trkpt lat="45.68118" lon="2.96664">
        <ele>973.6</ele>
        <time>2025-09-28T07:46:16Z</time>
      </trkpt>
      <trkpt lat="45.68114" lon="2.96665">
        <ele>973.6</ele>
        <time>2025-09-28T07:46:17Z</time>
      </trkpt>
      <trkpt lat="45.6811" lon="2.96666">
        <ele>973.4</ele>
        <time>2025-09-28T07:46:18Z</time>
      </trkpt>
      <trkpt lat="45.68106" lon="2.96668">
        <ele>973.2</ele>
        <time>2025-09-28T07:46:19Z</time>
      </trkpt>
      <trkpt lat="45.68102" lon="2.9667">
        <ele>973</ele>
        <time>2025-09-28T07:46:20Z</time>
      </trkpt>
      <trkpt lat="45.68097" lon="2.96673">
        <ele>972.8</ele>
        <time>2025-09-28T07:46:21Z</time>
      </trkpt>
      <trkpt lat="45.68094" lon="2.96676">
        <ele>972.6</ele>
        <time>2025-09-28T07:46:22Z</time>
      </trkpt>
      <trkpt lat="45.6809" lon="2.96678">
        <ele>972.4</ele>
        <time>2025-09-28T07:46:23Z</time>
      </trkpt>
      <trkpt lat="45.68087" lon="2.96681">
        <ele>972.2</ele>
        <time>2025-09-28T07:46:24Z</time>
      </trkpt>
      <trkpt lat="45.68084" lon="2.96684">
        <ele>972</ele>
        <time>2025-09-28T07:46:25Z</time>
      </trkpt>
      <trkpt lat="45.6808" lon="2.96686">
        <ele>972</ele>
        <time>2025-09-28T07:46:26Z</time>
      </trkpt>
      <trkpt lat="45.68077" lon="2.96688">
        <ele>971.8</ele>
        <time>2025-09-28T07:46:27Z</time>
      </trkpt>
      <trkpt lat="45.68073" lon="2.96689">
        <ele>971.8</ele>
        <time>2025-09-28T07:46:28Z</time>
      </trkpt>
      <trkpt lat="45.68069" lon="2.96691">
        <ele>971.6</ele>
        <time>2025-09-28T07:46:29Z</time>
      </trkpt>
      <trkpt lat="45.68065" lon="2.96694">
        <ele>971.6</ele>
        <time>2025-09-28T07:46:30Z</time>
      </trkpt>
      <trkpt lat="45.68061" lon="2.96697">
        <ele>971.4</ele>
        <time>2025-09-28T07:46:31Z</time>
      </trkpt>
      <trkpt lat="45.68057" lon="2.96699">
        <ele>971.4</ele>
        <time>2025-09-28T07:46:32Z</time>
      </trkpt>
      <trkpt lat="45.68053" lon="2.96702">
        <ele>971.4</ele>
        <time>2025-09-28T07:46:33Z</time>
      </trkpt>
      <trkpt lat="45.68048" lon="2.96705">
        <ele>971.2</ele>
        <time>2025-09-28T07:46:34Z</time>
      </trkpt>
      <trkpt lat="45.68044" lon="2.96708">
        <ele>971</ele>
        <time>2025-09-28T07:46:35Z</time>
      </trkpt>
      <trkpt lat="45.68039" lon="2.96712">
        <ele>970.8</ele>
        <time>2025-09-28T07:46:36Z</time>
      </trkpt>
      <trkpt lat="45.68033" lon="2.96717">
        <ele>970.4</ele>
        <time>2025-09-28T07:46:37Z</time>
      </trkpt>
      <trkpt lat="45.68028" lon="2.96723">
        <ele>970</ele>
        <time>2025-09-28T07:46:38Z</time>
      </trkpt>
      <trkpt lat="45.68022" lon="2.96729">
        <ele>969.8</ele>
        <time>2025-09-28T07:46:39Z</time>
      </trkpt>
      <trkpt lat="45.68016" lon="2.96735">
        <ele>969.4</ele>
        <time>2025-09-28T07:46:40Z</time>
      </trkpt>
      <trkpt lat="45.68012" lon="2.9674">
        <ele>969</ele>
        <time>2025-09-28T07:46:41Z</time>
      </trkpt>
      <trkpt lat="45.68008" lon="2.96744">
        <ele>968.6</ele>
        <time>2025-09-28T07:46:42Z</time>
      </trkpt>
      <trkpt lat="45.68005" lon="2.96748">
        <ele>967.8</ele>
        <time>2025-09-28T07:46:43Z</time>
      </trkpt>
      <trkpt lat="45.68003" lon="2.96753">
        <ele>967</ele>
        <time>2025-09-28T07:46:44Z</time>
      </trkpt>
      <trkpt lat="45.68002" lon="2.96759">
        <ele>966.2</ele>
        <time>2025-09-28T07:46:45Z</time>
      </trkpt>
      <trkpt lat="45.68" lon="2.96765">
        <ele>965.4</ele>
        <time>2025-09-28T07:46:46Z</time>
      </trkpt>
      <trkpt lat="45.67997" lon="2.96773">
        <ele>964.8</ele>
        <time>2025-09-28T07:46:47Z</time>
      </trkpt>
      <trkpt lat="45.67992" lon="2.96782">
        <ele>964.2</ele>
        <time>2025-09-28T07:46:48Z</time>
      </trkpt>
      <trkpt lat="45.67985" lon="2.96788">
        <ele>963.8</ele>
        <time>2025-09-28T07:46:49Z</time>
      </trkpt>
      <trkpt lat="45.67979" lon="2.96791">
        <ele>963.6</ele>
        <time>2025-09-28T07:46:50Z</time>
      </trkpt>
      <trkpt lat="45.67972" lon="2.96794">
        <ele>963.4</ele>
        <time>2025-09-28T07:46:51Z</time>
      </trkpt>
      <trkpt lat="45.67966" lon="2.96797">
        <ele>963.4</ele>
        <time>2025-09-28T07:46:52Z</time>
      </trkpt>
      <trkpt lat="45.67959" lon="2.968">
        <ele>963.4</ele>
        <time>2025-09-28T07:46:53Z</time>
      </trkpt>
      <trkpt lat="45.67952" lon="2.96803">
        <ele>963.4</ele>
        <time>2025-09-28T07:46:54Z</time>
      </trkpt>
      <trkpt lat="45.67947" lon="2.96807">
        <ele>963.4</ele>
        <time>2025-09-28T07:46:55Z</time>
      </trkpt>
      <trkpt lat="45.67941" lon="2.96811">
        <ele>963.6</ele>
        <time>2025-09-28T07:46:56Z</time>
      </trkpt>
      <trkpt lat="45.67936" lon="2.96815">
        <ele>963.6</ele>
        <time>2025-09-28T07:46:57Z</time>
      </trkpt>
      <trkpt lat="45.6793" lon="2.96818">
        <ele>963.6</ele>
        <time>2025-09-28T07:46:58Z</time>
      </trkpt>
      <trkpt lat="45.67924" lon="2.96821">
        <ele>963.6</ele>
        <time>2025-09-28T07:46:59Z</time>
      </trkpt>
      <trkpt lat="45.67919" lon="2.96824">
        <ele>963.8</ele>
        <time>2025-09-28T07:47:00Z</time>
      </trkpt>
      <trkpt lat="45.67915" lon="2.96827">
        <ele>963.8</ele>
        <time>2025-09-28T07:47:01Z</time>
      </trkpt>
      <trkpt lat="45.6791" lon="2.96829">
        <ele>964</ele>
        <time>2025-09-28T07:47:02Z</time>
      </trkpt>
      <trkpt lat="45.67906" lon="2.96832">
        <ele>964</ele>
        <time>2025-09-28T07:47:03Z</time>
      </trkpt>
      <trkpt lat="45.67901" lon="2.96834">
        <ele>964.2</ele>
        <time>2025-09-28T07:47:04Z</time>
      </trkpt>
      <trkpt lat="45.67897" lon="2.96835">
        <ele>964.2</ele>
        <time>2025-09-28T07:47:05Z</time>
      </trkpt>
      <trkpt lat="45.67892" lon="2.96836">
        <ele>964.4</ele>
        <time>2025-09-28T07:47:06Z</time>
      </trkpt>
      <trkpt lat="45.67888" lon="2.96838">
        <ele>964.4</ele>
        <time>2025-09-28T07:47:07Z</time>
      </trkpt>
      <trkpt lat="45.67884" lon="2.96839">
        <ele>964.4</ele>
        <time>2025-09-28T07:47:08Z</time>
      </trkpt>
      <trkpt lat="45.67879" lon="2.9684">
        <ele>964.6</ele>
        <time>2025-09-28T07:47:09Z</time>
      </trkpt>
      <trkpt lat="45.67875" lon="2.96841">
        <ele>964.6</ele>
        <time>2025-09-28T07:47:10Z</time>
      </trkpt>
      <trkpt lat="45.67871" lon="2.96843">
        <ele>964.6</ele>
        <time>2025-09-28T07:47:11Z</time>
      </trkpt>
      <trkpt lat="45.67867" lon="2.96844">
        <ele>964.6</ele>
        <time>2025-09-28T07:47:12Z</time>
      </trkpt>
      <trkpt lat="45.67862" lon="2.96846">
        <ele>964.8</ele>
        <time>2025-09-28T07:47:13Z</time>
      </trkpt>
      <trkpt lat="45.67858" lon="2.96847">
        <ele>964.8</ele>
        <time>2025-09-28T07:47:14Z</time>
      </trkpt>
      <trkpt lat="45.67853" lon="2.96848">
        <ele>964.8</ele>
        <time>2025-09-28T07:47:15Z</time>
      </trkpt>
      <trkpt lat="45.67847" lon="2.96849">
        <ele>964.8</ele>
        <time>2025-09-28T07:47:16Z</time>
      </trkpt>
      <trkpt lat="45.67842" lon="2.9685">
        <ele>964.8</ele>
        <time>2025-09-28T07:47:17Z</time>
      </trkpt>
      <trkpt lat="45.67836" lon="2.96851">
        <ele>964.6</ele>
        <time>2025-09-28T07:47:18Z</time>
      </trkpt>
      <trkpt lat="45.67831" lon="2.96851">
        <ele>964.6</ele>
        <time>2025-09-28T07:47:19Z</time>
      </trkpt>
      <trkpt lat="45.67825" lon="2.96851">
        <ele>964.6</ele>
        <time>2025-09-28T07:47:20Z</time>
      </trkpt>
      <trkpt lat="45.67819" lon="2.96852">
        <ele>964.6</ele>
        <time>2025-09-28T07:47:21Z</time>
      </trkpt>
      <trkpt lat="45.67813" lon="2.96852">
        <ele>964.6</ele>
        <time>2025-09-28T07:47:22Z</time>
      </trkpt>
      <trkpt lat="45.67808" lon="2.96853">
        <ele>964.4</ele>
        <time>2025-09-28T07:47:23Z</time>
      </trkpt>
      <trkpt lat="45.67802" lon="2.96853">
        <ele>964.4</ele>
        <time>2025-09-28T07:47:24Z</time>
      </trkpt>
      <trkpt lat="45.67796" lon="2.96854">
        <ele>964.4</ele>
        <time>2025-09-28T07:47:25Z</time>
      </trkpt>
      <trkpt lat="45.67791" lon="2.96854">
        <ele>964.4</ele>
        <time>2025-09-28T07:47:26Z</time>
      </trkpt>
      <trkpt lat="45.67786" lon="2.96854">
        <ele>964.2</ele>
        <time>2025-09-28T07:47:27Z</time>
      </trkpt>
      <trkpt lat="45.6778" lon="2.96854">
        <ele>964.4</ele>
        <time>2025-09-28T07:47:28Z</time>
      </trkpt>
      <trkpt lat="45.67775" lon="2.96853">
        <ele>964.4</ele>
        <time>2025-09-28T07:47:29Z</time>
      </trkpt>
      <trkpt lat="45.6777" lon="2.96852">
        <ele>964.4</ele>
        <time>2025-09-28T07:47:30Z</time>
      </trkpt>
      <trkpt lat="45.67764" lon="2.9685">
        <ele>964.4</ele>
        <time>2025-09-28T07:47:31Z</time>
      </trkpt>
      <trkpt lat="45.67758" lon="2.96848">
        <ele>964.4</ele>
        <time>2025-09-28T07:47:32Z</time>
      </trkpt>
      <trkpt lat="45.67753" lon="2.96846">
        <ele>964.6</ele>
        <time>2025-09-28T07:47:33Z</time>
      </trkpt>
      <trkpt lat="45.67748" lon="2.96845">
        <ele>964.6</ele>
        <time>2025-09-28T07:47:34Z</time>
      </trkpt>
      <trkpt lat="45.67743" lon="2.96844">
        <ele>964.6</ele>
        <time>2025-09-28T07:47:35Z</time>
      </trkpt>
      <trkpt lat="45.67738" lon="2.96843">
        <ele>964.8</ele>
        <time>2025-09-28T07:47:36Z</time>
      </trkpt>
      <trkpt lat="45.67733" lon="2.96842">
        <ele>964.8</ele>
        <time>2025-09-28T07:47:37Z</time>
      </trkpt>
      <trkpt lat="45.67728" lon="2.96841">
        <ele>964.8</ele>
        <time>2025-09-28T07:47:38Z</time>
      </trkpt>
      <trkpt lat="45.67724" lon="2.96839">
        <ele>964.8</ele>
        <time>2025-09-28T07:47:39Z</time>
      </trkpt>
      <trkpt lat="45.67718" lon="2.96838">
        <ele>964.8</ele>
        <time>2025-09-28T07:47:40Z</time>
      </trkpt>
      <trkpt lat="45.67713" lon="2.96836">
        <ele>964.8</ele>
        <time>2025-09-28T07:47:41Z</time>
      </trkpt>
      <trkpt lat="45.67707" lon="2.96834">
        <ele>964.8</ele>
        <time>2025-09-28T07:47:42Z</time>
      </trkpt>
      <trkpt lat="45.67701" lon="2.96832">
        <ele>964.8</ele>
        <time>2025-09-28T07:47:43Z</time>
      </trkpt>
      <trkpt lat="45.67695" lon="2.9683">
        <ele>964.8</ele>
        <time>2025-09-28T07:47:44Z</time>
      </trkpt>
      <trkpt lat="45.6769" lon="2.96828">
        <ele>964.8</ele>
        <time>2025-09-28T07:47:45Z</time>
      </trkpt>
      <trkpt lat="45.67684" lon="2.96827">
        <ele>964.8</ele>
        <time>2025-09-28T07:47:46Z</time>
      </trkpt>
      <trkpt lat="45.67678" lon="2.96826">
        <ele>965</ele>
        <time>2025-09-28T07:47:47Z</time>
      </trkpt>
      <trkpt lat="45.67673" lon="2.96824">
        <ele>965</ele>
        <time>2025-09-28T07:47:48Z</time>
      </trkpt>
      <trkpt lat="45.67667" lon="2.96822">
        <ele>965</ele>
        <time>2025-09-28T07:47:49Z</time>
      </trkpt>
      <trkpt lat="45.67662" lon="2.9682">
        <ele>965</ele>
        <time>2025-09-28T07:47:50Z</time>
      </trkpt>
      <trkpt lat="45.67657" lon="2.96818">
        <ele>965</ele>
        <time>2025-09-28T07:47:51Z</time>
      </trkpt>
      <trkpt lat="45.67652" lon="2.96817">
        <ele>965.2</ele>
        <time>2025-09-28T07:47:52Z</time>
      </trkpt>
      <trkpt lat="45.67648" lon="2.96816">
        <ele>965</ele>
        <time>2025-09-28T07:47:53Z</time>
      </trkpt>
      <trkpt lat="45.67643" lon="2.96815">
        <ele>965</ele>
        <time>2025-09-28T07:47:54Z</time>
      </trkpt>
      <trkpt lat="45.67638" lon="2.96815">
        <ele>964.8</ele>
        <time>2025-09-28T07:47:55Z</time>
      </trkpt>
      <trkpt lat="45.67633" lon="2.96814">
        <ele>964.6</ele>
        <time>2025-09-28T07:47:56Z</time>
      </trkpt>
      <trkpt lat="45.67628" lon="2.96813">
        <ele>964.6</ele>
        <time>2025-09-28T07:47:57Z</time>
      </trkpt>
      <trkpt lat="45.67623" lon="2.96812">
        <ele>964.4</ele>
        <time>2025-09-28T07:47:58Z</time>
      </trkpt>
      <trkpt lat="45.67618" lon="2.9681">
        <ele>964.2</ele>
        <time>2025-09-28T07:47:59Z</time>
      </trkpt>
      <trkpt lat="45.67613" lon="2.96808">
        <ele>964</ele>
        <time>2025-09-28T07:48:00Z</time>
      </trkpt>
      <trkpt lat="45.67607" lon="2.96807">
        <ele>963.8</ele>
        <time>2025-09-28T07:48:01Z</time>
      </trkpt>
      <trkpt lat="45.67601" lon="2.96805">
        <ele>963.6</ele>
        <time>2025-09-28T07:48:02Z</time>
      </trkpt>
      <trkpt lat="45.67595" lon="2.96804">
        <ele>963.4</ele>
        <time>2025-09-28T07:48:03Z</time>
      </trkpt>
      <trkpt lat="45.67589" lon="2.96803">
        <ele>963.2</ele>
        <time>2025-09-28T07:48:04Z</time>
      </trkpt>
      <trkpt lat="45.67584" lon="2.96803">
        <ele>963</ele>
        <time>2025-09-28T07:48:05Z</time>
      </trkpt>
      <trkpt lat="45.67578" lon="2.96802">
        <ele>962.6</ele>
        <time>2025-09-28T07:48:06Z</time>
      </trkpt>
      <trkpt lat="45.67572" lon="2.96802">
        <ele>962.4</ele>
        <time>2025-09-28T07:48:07Z</time>
      </trkpt>
      <trkpt lat="45.67566" lon="2.96802">
        <ele>962.2</ele>
        <time>2025-09-28T07:48:08Z</time>
      </trkpt>
      <trkpt lat="45.67561" lon="2.96802">
        <ele>961.8</ele>
        <time>2025-09-28T07:48:09Z</time>
      </trkpt>
      <trkpt lat="45.67555" lon="2.96801">
        <ele>961.8</ele>
        <time>2025-09-28T07:48:10Z</time>
      </trkpt>
      <trkpt lat="45.67549" lon="2.968">
        <ele>961.4</ele>
        <time>2025-09-28T07:48:11Z</time>
      </trkpt>
      <trkpt lat="45.67542" lon="2.96799">
        <ele>961.2</ele>
        <time>2025-09-28T07:48:12Z</time>
      </trkpt>
      <trkpt lat="45.67535" lon="2.96798">
        <ele>960.8</ele>
        <time>2025-09-28T07:48:13Z</time>
      </trkpt>
      <trkpt lat="45.67528" lon="2.96796">
        <ele>960.6</ele>
        <time>2025-09-28T07:48:14Z</time>
      </trkpt>
      <trkpt lat="45.67521" lon="2.96793">
        <ele>960.2</ele>
        <time>2025-09-28T07:48:15Z</time>
      </trkpt>
      <trkpt lat="45.67514" lon="2.9679">
        <ele>959.8</ele>
        <time>2025-09-28T07:48:16Z</time>
      </trkpt>
      <trkpt lat="45.67507" lon="2.96786">
        <ele>959.6</ele>
        <time>2025-09-28T07:48:17Z</time>
      </trkpt>
      <trkpt lat="45.675" lon="2.96783">
        <ele>959.2</ele>
        <time>2025-09-28T07:48:18Z</time>
      </trkpt>
      <trkpt lat="45.67492" lon="2.96779">
        <ele>958.8</ele>
        <time>2025-09-28T07:48:19Z</time>
      </trkpt>
      <trkpt lat="45.67485" lon="2.96776">
        <ele>958.4</ele>
        <time>2025-09-28T07:48:20Z</time>
      </trkpt>
      <trkpt lat="45.67477" lon="2.96772">
        <ele>958</ele>
        <time>2025-09-28T07:48:21Z</time>
      </trkpt>
      <trkpt lat="45.6747" lon="2.96768">
        <ele>957.6</ele>
        <time>2025-09-28T07:48:22Z</time>
      </trkpt>
      <trkpt lat="45.67462" lon="2.96765">
        <ele>957</ele>
        <time>2025-09-28T07:48:23Z</time>
      </trkpt>
      <trkpt lat="45.67455" lon="2.96762">
        <ele>956.6</ele>
        <time>2025-09-28T07:48:24Z</time>
      </trkpt>
      <trkpt lat="45.67447" lon="2.96759">
        <ele>956.2</ele>
        <time>2025-09-28T07:48:25Z</time>
      </trkpt>
      <trkpt lat="45.6744" lon="2.96756">
        <ele>956</ele>
        <time>2025-09-28T07:48:26Z</time>
      </trkpt>
      <trkpt lat="45.67432" lon="2.96752">
        <ele>955.8</ele>
        <time>2025-09-28T07:48:27Z</time>
      </trkpt>
      <trkpt lat="45.67425" lon="2.96749">
        <ele>955.6</ele>
        <time>2025-09-28T07:48:28Z</time>
      </trkpt>
      <trkpt lat="45.67418" lon="2.96748">
        <ele>955.4</ele>
        <time>2025-09-28T07:48:29Z</time>
      </trkpt>
      <trkpt lat="45.67411" lon="2.96747">
        <ele>955.4</ele>
        <time>2025-09-28T07:48:30Z</time>
      </trkpt>
      <trkpt lat="45.67404" lon="2.96746">
        <ele>955.6</ele>
        <time>2025-09-28T07:48:31Z</time>
      </trkpt>
      <trkpt lat="45.67399" lon="2.96744">
        <ele>955.6</ele>
        <time>2025-09-28T07:48:32Z</time>
      </trkpt>
      <trkpt lat="45.67394" lon="2.96743">
        <ele>955.4</ele>
        <time>2025-09-28T07:48:33Z</time>
      </trkpt>
      <trkpt lat="45.67388" lon="2.96741">
        <ele>955.4</ele>
        <time>2025-09-28T07:48:34Z</time>
      </trkpt>
      <trkpt lat="45.67381" lon="2.96739">
        <ele>955.2</ele>
        <time>2025-09-28T07:48:35Z</time>
      </trkpt>
      <trkpt lat="45.67375" lon="2.96738">
        <ele>955</ele>
        <time>2025-09-28T07:48:36Z</time>
      </trkpt>
      <trkpt lat="45.67368" lon="2.96737">
        <ele>954.8</ele>
        <time>2025-09-28T07:48:37Z</time>
      </trkpt>
      <trkpt lat="45.67362" lon="2.96737">
        <ele>954.6</ele>
        <time>2025-09-28T07:48:38Z</time>
      </trkpt>
      <trkpt lat="45.67355" lon="2.96738">
        <ele>954.4</ele>
        <time>2025-09-28T07:48:39Z</time>
      </trkpt>
      <trkpt lat="45.67348" lon="2.96739">
        <ele>954.2</ele>
        <time>2025-09-28T07:48:40Z</time>
      </trkpt>
      <trkpt lat="45.67342" lon="2.9674">
        <ele>954</ele>
        <time>2025-09-28T07:48:41Z</time>
      </trkpt>
      <trkpt lat="45.67336" lon="2.96742">
        <ele>954</ele>
        <time>2025-09-28T07:48:42Z</time>
      </trkpt>
      <trkpt lat="45.6733" lon="2.96743">
        <ele>953.8</ele>
        <time>2025-09-28T07:48:43Z</time>
      </trkpt>
      <trkpt lat="45.67324" lon="2.96744">
        <ele>953.6</ele>
        <time>2025-09-28T07:48:44Z</time>
      </trkpt>
      <trkpt lat="45.67317" lon="2.96746">
        <ele>953.6</ele>
        <time>2025-09-28T07:48:45Z</time>
      </trkpt>
      <trkpt lat="45.67312" lon="2.96748">
        <ele>953.4</ele>
        <time>2025-09-28T07:48:46Z</time>
      </trkpt>
      <trkpt lat="45.67306" lon="2.96749">
        <ele>953.4</ele>
        <time>2025-09-28T07:48:47Z</time>
      </trkpt>
      <trkpt lat="45.673" lon="2.96751">
        <ele>953.4</ele>
        <time>2025-09-28T07:48:48Z</time>
      </trkpt>
      <trkpt lat="45.67294" lon="2.96753">
        <ele>953.2</ele>
        <time>2025-09-28T07:48:49Z</time>
      </trkpt>
      <trkpt lat="45.67288" lon="2.96755">
        <ele>953.2</ele>
        <time>2025-09-28T07:48:50Z</time>
      </trkpt>
      <trkpt lat="45.67282" lon="2.96756">
        <ele>953.2</ele>
        <time>2025-09-28T07:48:51Z</time>
      </trkpt>
      <trkpt lat="45.67276" lon="2.96758">
        <ele>953</ele>
        <time>2025-09-28T07:48:52Z</time>
      </trkpt>
      <trkpt lat="45.67271" lon="2.96759">
        <ele>953</ele>
        <time>2025-09-28T07:48:53Z</time>
      </trkpt>
      <trkpt lat="45.67265" lon="2.96761">
        <ele>953</ele>
        <time>2025-09-28T07:48:54Z</time>
      </trkpt>
      <trkpt lat="45.67259" lon="2.96763">
        <ele>953</ele>
        <time>2025-09-28T07:48:55Z</time>
      </trkpt>
      <trkpt lat="45.67253" lon="2.96765">
        <ele>952.8</ele>
        <time>2025-09-28T07:48:56Z</time>
      </trkpt>
      <trkpt lat="45.67247" lon="2.96767">
        <ele>952.8</ele>
        <time>2025-09-28T07:48:57Z</time>
      </trkpt>
      <trkpt lat="45.67241" lon="2.96768">
        <ele>952.6</ele>
        <time>2025-09-28T07:48:58Z</time>
      </trkpt>
      <trkpt lat="45.67235" lon="2.96769">
        <ele>952.2</ele>
        <time>2025-09-28T07:48:59Z</time>
      </trkpt>
      <trkpt lat="45.67228" lon="2.9677">
        <ele>952</ele>
        <time>2025-09-28T07:49:00Z</time>
      </trkpt>
      <trkpt lat="45.67222" lon="2.96771">
        <ele>951.8</ele>
        <time>2025-09-28T07:49:01Z</time>
      </trkpt>
      <trkpt lat="45.67215" lon="2.96772">
        <ele>951.6</ele>
        <time>2025-09-28T07:49:02Z</time>
      </trkpt>
      <trkpt lat="45.67209" lon="2.96774">
        <ele>951.4</ele>
        <time>2025-09-28T07:49:03Z</time>
      </trkpt>
      <trkpt lat="45.67203" lon="2.96774">
        <ele>951.2</ele>
        <time>2025-09-28T07:49:04Z</time>
      </trkpt>
      <trkpt lat="45.67197" lon="2.96775">
        <ele>951</ele>
        <time>2025-09-28T07:49:05Z</time>
      </trkpt>
      <trkpt lat="45.6719" lon="2.96777">
        <ele>951</ele>
        <time>2025-09-28T07:49:06Z</time>
      </trkpt>
      <trkpt lat="45.67184" lon="2.96778">
        <ele>951</ele>
        <time>2025-09-28T07:49:07Z</time>
      </trkpt>
      <trkpt lat="45.67177" lon="2.9678">
        <ele>950.8</ele>
        <time>2025-09-28T07:49:08Z</time>
      </trkpt>
      <trkpt lat="45.6717" lon="2.96782">
        <ele>950.8</ele>
        <time>2025-09-28T07:49:09Z</time>
      </trkpt>
      <trkpt lat="45.67164" lon="2.96783">
        <ele>950.8</ele>
        <time>2025-09-28T07:49:10Z</time>
      </trkpt>
      <trkpt lat="45.67157" lon="2.96785">
        <ele>950.8</ele>
        <time>2025-09-28T07:49:11Z</time>
      </trkpt>
      <trkpt lat="45.6715" lon="2.96787">
        <ele>950.8</ele>
        <time>2025-09-28T07:49:12Z</time>
      </trkpt>
      <trkpt lat="45.67144" lon="2.96789">
        <ele>951</ele>
        <time>2025-09-28T07:49:13Z</time>
      </trkpt>
      <trkpt lat="45.67138" lon="2.96791">
        <ele>951</ele>
        <time>2025-09-28T07:49:14Z</time>
      </trkpt>
      <trkpt lat="45.67132" lon="2.96792">
        <ele>951.2</ele>
        <time>2025-09-28T07:49:15Z</time>
      </trkpt>
      <trkpt lat="45.67127" lon="2.96793">
        <ele>951.4</ele>
        <time>2025-09-28T07:49:16Z</time>
      </trkpt>
      <trkpt lat="45.67122" lon="2.96794">
        <ele>951.6</ele>
        <time>2025-09-28T07:49:17Z</time>
      </trkpt>
      <trkpt lat="45.67117" lon="2.96795">
        <ele>951.6</ele>
        <time>2025-09-28T07:49:18Z</time>
      </trkpt>
      <trkpt lat="45.67112" lon="2.96795">
        <ele>951.8</ele>
        <time>2025-09-28T07:49:19Z</time>
      </trkpt>
      <trkpt lat="45.67107" lon="2.96796">
        <ele>952</ele>
        <time>2025-09-28T07:49:20Z</time>
      </trkpt>
      <trkpt lat="45.67102" lon="2.96796">
        <ele>952.2</ele>
        <time>2025-09-28T07:49:21Z</time>
      </trkpt>
      <trkpt lat="45.67098" lon="2.96796">
        <ele>952.2</ele>
        <time>2025-09-28T07:49:22Z</time>
      </trkpt>
      <trkpt lat="45.67093" lon="2.96796">
        <ele>952.4</ele>
        <time>2025-09-28T07:49:23Z</time>
      </trkpt>
      <trkpt lat="45.67089" lon="2.96795">
        <ele>952.6</ele>
        <time>2025-09-28T07:49:24Z</time>
      </trkpt>
      <trkpt lat="45.67085" lon="2.96795">
        <ele>952.8</ele>
        <time>2025-09-28T07:49:25Z</time>
      </trkpt>
      <trkpt lat="45.6708" lon="2.96795">
        <ele>952.8</ele>
        <time>2025-09-28T07:49:26Z</time>
      </trkpt>
      <trkpt lat="45.67076" lon="2.96794">
        <ele>953</ele>
        <time>2025-09-28T07:49:27Z</time>
      </trkpt>
      <trkpt lat="45.67072" lon="2.96792">
        <ele>953</ele>
        <time>2025-09-28T07:49:28Z</time>
      </trkpt>
      <trkpt lat="45.67067" lon="2.9679">
        <ele>953.2</ele>
        <time>2025-09-28T07:49:29Z</time>
      </trkpt>
      <trkpt lat="45.67063" lon="2.96788">
        <ele>953.2</ele>
        <time>2025-09-28T07:49:30Z</time>
      </trkpt>
      <trkpt lat="45.67059" lon="2.96784">
        <ele>953</ele>
        <time>2025-09-28T07:49:31Z</time>
      </trkpt>
      <trkpt lat="45.67055" lon="2.96781">
        <ele>953</ele>
        <time>2025-09-28T07:49:32Z</time>
      </trkpt>
      <trkpt lat="45.6705" lon="2.96776">
        <ele>952.6</ele>
        <time>2025-09-28T07:49:33Z</time>
      </trkpt>
      <trkpt lat="45.67045" lon="2.96772">
        <ele>952.4</ele>
        <time>2025-09-28T07:49:34Z</time>
      </trkpt>
      <trkpt lat="45.6704" lon="2.96767">
        <ele>952</ele>
        <time>2025-09-28T07:49:35Z</time>
      </trkpt>
      <trkpt lat="45.67035" lon="2.96762">
        <ele>951.6</ele>
        <time>2025-09-28T07:49:36Z</time>
      </trkpt>
      <trkpt lat="45.67029" lon="2.96756">
        <ele>951.2</ele>
        <time>2025-09-28T07:49:37Z</time>
      </trkpt>
      <trkpt lat="45.67024" lon="2.9675">
        <ele>951</ele>
        <time>2025-09-28T07:49:38Z</time>
      </trkpt>
      <trkpt lat="45.67019" lon="2.96743">
        <ele>950.8</ele>
        <time>2025-09-28T07:49:39Z</time>
      </trkpt>
      <trkpt lat="45.67013" lon="2.96736">
        <ele>950.6</ele>
        <time>2025-09-28T07:49:40Z</time>
      </trkpt>
      <trkpt lat="45.67008" lon="2.96729">
        <ele>950.4</ele>
        <time>2025-09-28T07:49:41Z</time>
      </trkpt>
      <trkpt lat="45.67002" lon="2.96722">
        <ele>950.2</ele>
        <time>2025-09-28T07:49:42Z</time>
      </trkpt>
      <trkpt lat="45.66997" lon="2.96716">
        <ele>950</ele>
        <time>2025-09-28T07:49:43Z</time>
      </trkpt>
      <trkpt lat="45.66992" lon="2.9671">
        <ele>949.8</ele>
        <time>2025-09-28T07:49:44Z</time>
      </trkpt>
      <trkpt lat="45.66987" lon="2.96704">
        <ele>949.8</ele>
        <time>2025-09-28T07:49:45Z</time>
      </trkpt>
      <trkpt lat="45.66981" lon="2.96698">
        <ele>949.6</ele>
        <time>2025-09-28T07:49:46Z</time>
      </trkpt>
      <trkpt lat="45.66975" lon="2.96693">
        <ele>949.6</ele>
        <time>2025-09-28T07:49:47Z</time>
      </trkpt>
      <trkpt lat="45.66969" lon="2.96689">
        <ele>949.4</ele>
        <time>2025-09-28T07:49:48Z</time>
      </trkpt>
      <trkpt lat="45.66963" lon="2.96685">
        <ele>949.2</ele>
        <time>2025-09-28T07:49:49Z</time>
      </trkpt>
      <trkpt lat="45.66957" lon="2.96681">
        <ele>949</ele>
        <time>2025-09-28T07:49:50Z</time>
      </trkpt>
      <trkpt lat="45.6695" lon="2.96677">
        <ele>948.6</ele>
        <time>2025-09-28T07:49:51Z</time>
      </trkpt>
      <trkpt lat="45.66944" lon="2.96671">
        <ele>948.2</ele>
        <time>2025-09-28T07:49:52Z</time>
      </trkpt>
      <trkpt lat="45.66937" lon="2.96665">
        <ele>947.8</ele>
        <time>2025-09-28T07:49:53Z</time>
      </trkpt>
      <trkpt lat="45.66929" lon="2.96659">
        <ele>947.2</ele>
        <time>2025-09-28T07:49:54Z</time>
      </trkpt>
      <trkpt lat="45.66921" lon="2.96655">
        <ele>946.8</ele>
        <time>2025-09-28T07:49:55Z</time>
      </trkpt>
      <trkpt lat="45.66913" lon="2.96652">
        <ele>946.2</ele>
        <time>2025-09-28T07:49:56Z</time>
      </trkpt>
      <trkpt lat="45.66904" lon="2.96649">
        <ele>945.8</ele>
        <time>2025-09-28T07:49:57Z</time>
      </trkpt>
      <trkpt lat="45.66896" lon="2.96644">
        <ele>945.2</ele>
        <time>2025-09-28T07:49:58Z</time>
      </trkpt>
      <trkpt lat="45.66889" lon="2.9664">
        <ele>944.8</ele>
        <time>2025-09-28T07:49:59Z</time>
      </trkpt>
      <trkpt lat="45.66882" lon="2.96635">
        <ele>944.2</ele>
        <time>2025-09-28T07:50:00Z</time>
      </trkpt>
      <trkpt lat="45.66876" lon="2.9663">
        <ele>943.8</ele>
        <time>2025-09-28T07:50:01Z</time>
      </trkpt>
      <trkpt lat="45.6687" lon="2.96625">
        <ele>943.4</ele>
        <time>2025-09-28T07:50:02Z</time>
      </trkpt>
      <trkpt lat="45.66865" lon="2.96619">
        <ele>943.2</ele>
        <time>2025-09-28T07:50:03Z</time>
      </trkpt>
      <trkpt lat="45.66861" lon="2.96613">
        <ele>943</ele>
        <time>2025-09-28T07:50:04Z</time>
      </trkpt>
      <trkpt lat="45.66856" lon="2.96606">
        <ele>943</ele>
        <time>2025-09-28T07:50:05Z</time>
      </trkpt>
      <trkpt lat="45.66852" lon="2.96599">
        <ele>943</ele>
        <time>2025-09-28T07:50:06Z</time>
      </trkpt>
      <trkpt lat="45.66848" lon="2.96593">
        <ele>943</ele>
        <time>2025-09-28T07:50:07Z</time>
      </trkpt>
      <trkpt lat="45.66844" lon="2.96587">
        <ele>943.2</ele>
        <time>2025-09-28T07:50:08Z</time>
      </trkpt>
      <trkpt lat="45.6684" lon="2.96582">
        <ele>943.2</ele>
        <time>2025-09-28T07:50:09Z</time>
      </trkpt>
      <trkpt lat="45.66835" lon="2.96576">
        <ele>943.4</ele>
        <time>2025-09-28T07:50:10Z</time>
      </trkpt>
      <trkpt lat="45.6683" lon="2.96571">
        <ele>943.4</ele>
        <time>2025-09-28T07:50:11Z</time>
      </trkpt>
      <trkpt lat="45.66826" lon="2.96566">
        <ele>943.6</ele>
        <time>2025-09-28T07:50:12Z</time>
      </trkpt>
      <trkpt lat="45.66822" lon="2.96561">
        <ele>943.6</ele>
        <time>2025-09-28T07:50:13Z</time>
      </trkpt>
      <trkpt lat="45.66818" lon="2.96556">
        <ele>943.8</ele>
        <time>2025-09-28T07:50:14Z</time>
      </trkpt>
      <trkpt lat="45.66814" lon="2.96552">
        <ele>943.8</ele>
        <time>2025-09-28T07:50:15Z</time>
      </trkpt>
      <trkpt lat="45.66811" lon="2.96547">
        <ele>944</ele>
        <time>2025-09-28T07:50:16Z</time>
      </trkpt>
      <trkpt lat="45.66807" lon="2.96543">
        <ele>944.2</ele>
        <time>2025-09-28T07:50:17Z</time>
      </trkpt>
      <trkpt lat="45.66804" lon="2.96539">
        <ele>944.2</ele>
        <time>2025-09-28T07:50:18Z</time>
      </trkpt>
      <trkpt lat="45.66802" lon="2.96535">
        <ele>944.4</ele>
        <time>2025-09-28T07:50:19Z</time>
      </trkpt>
      <trkpt lat="45.66799" lon="2.96531">
        <ele>944.6</ele>
        <time>2025-09-28T07:50:20Z</time>
      </trkpt>
      <trkpt lat="45.66797" lon="2.96528">
        <ele>944.6</ele>
        <time>2025-09-28T07:50:21Z</time>
      </trkpt>
      <trkpt lat="45.66794" lon="2.96525">
        <ele>944.6</ele>
        <time>2025-09-28T07:50:22Z</time>
      </trkpt>
      <trkpt lat="45.66791" lon="2.96522">
        <ele>944.6</ele>
        <time>2025-09-28T07:50:23Z</time>
      </trkpt>
      <trkpt lat="45.66787" lon="2.9652">
        <ele>944.6</ele>
        <time>2025-09-28T07:50:24Z</time>
      </trkpt>
      <trkpt lat="45.66784" lon="2.96517">
        <ele>944.6</ele>
        <time>2025-09-28T07:50:25Z</time>
      </trkpt>
      <trkpt lat="45.66781" lon="2.96515">
        <ele>944.6</ele>
        <time>2025-09-28T07:50:26Z</time>
      </trkpt>
      <trkpt lat="45.66778" lon="2.96512">
        <ele>944.4</ele>
        <time>2025-09-28T07:50:27Z</time>
      </trkpt>
      <trkpt lat="45.66774" lon="2.9651">
        <ele>944.4</ele>
        <time>2025-09-28T07:50:28Z</time>
      </trkpt>
      <trkpt lat="45.6677" lon="2.96507">
        <ele>944.4</ele>
        <time>2025-09-28T07:50:29Z</time>
      </trkpt>
      <trkpt lat="45.66766" lon="2.96503">
        <ele>944.4</ele>
        <time>2025-09-28T07:50:30Z</time>
      </trkpt>
      <trkpt lat="45.66762" lon="2.965">
        <ele>944.4</ele>
        <time>2025-09-28T07:50:31Z</time>
      </trkpt>
      <trkpt lat="45.66757" lon="2.96496">
        <ele>944.4</ele>
        <time>2025-09-28T07:50:32Z</time>
      </trkpt>
      <trkpt lat="45.66751" lon="2.96492">
        <ele>944.2</ele>
        <time>2025-09-28T07:50:33Z</time>
      </trkpt>
      <trkpt lat="45.66745" lon="2.96489">
        <ele>944.2</ele>
        <time>2025-09-28T07:50:34Z</time>
      </trkpt>
      <trkpt lat="45.66739" lon="2.96486">
        <ele>944.2</ele>
        <time>2025-09-28T07:50:35Z</time>
      </trkpt>
      <trkpt lat="45.66733" lon="2.96484">
        <ele>944.2</ele>
        <time>2025-09-28T07:50:36Z</time>
      </trkpt>
      <trkpt lat="45.66727" lon="2.96483">
        <ele>944.2</ele>
        <time>2025-09-28T07:50:37Z</time>
      </trkpt>
      <trkpt lat="45.66721" lon="2.96485">
        <ele>944.2</ele>
        <time>2025-09-28T07:50:38Z</time>
      </trkpt>
      <trkpt lat="45.66716" lon="2.96489">
        <ele>944.2</ele>
        <time>2025-09-28T07:50:39Z</time>
      </trkpt>
      <trkpt lat="45.66711" lon="2.96494">
        <ele>944.2</ele>
        <time>2025-09-28T07:50:40Z</time>
      </trkpt>
      <trkpt lat="45.66707" lon="2.965">
        <ele>944</ele>
        <time>2025-09-28T07:50:41Z</time>
      </trkpt>
      <trkpt lat="45.66703" lon="2.96508">
        <ele>944</ele>
        <time>2025-09-28T07:50:42Z</time>
      </trkpt>
      <trkpt lat="45.66699" lon="2.96515">
        <ele>943.8</ele>
        <time>2025-09-28T07:50:43Z</time>
      </trkpt>
      <trkpt lat="45.66696" lon="2.96523">
        <ele>943.6</ele>
        <time>2025-09-28T07:50:44Z</time>
      </trkpt>
      <trkpt lat="45.66694" lon="2.96532">
        <ele>943.6</ele>
        <time>2025-09-28T07:50:45Z</time>
      </trkpt>
      <trkpt lat="45.66692" lon="2.96542">
        <ele>943.4</ele>
        <time>2025-09-28T07:50:46Z</time>
      </trkpt>
      <trkpt lat="45.66692" lon="2.96551">
        <ele>943.2</ele>
        <time>2025-09-28T07:50:47Z</time>
      </trkpt>
      <trkpt lat="45.66692" lon="2.9656">
        <ele>943</ele>
        <time>2025-09-28T07:50:48Z</time>
      </trkpt>
      <trkpt lat="45.66693" lon="2.96569">
        <ele>942.8</ele>
        <time>2025-09-28T07:50:49Z</time>
      </trkpt>
      <trkpt lat="45.66696" lon="2.96578">
        <ele>942.4</ele>
        <time>2025-09-28T07:50:50Z</time>
      </trkpt>
      <trkpt lat="45.667" lon="2.96585">
        <ele>942</ele>
        <time>2025-09-28T07:50:51Z</time>
      </trkpt>
      <trkpt lat="45.66706" lon="2.96592">
        <ele>941.4</ele>
        <time>2025-09-28T07:50:52Z</time>
      </trkpt>
      <trkpt lat="45.66712" lon="2.96598">
        <ele>940.8</ele>
        <time>2025-09-28T07:50:53Z</time>
      </trkpt>
      <trkpt lat="45.66718" lon="2.96605">
        <ele>940.2</ele>
        <time>2025-09-28T07:50:54Z</time>
      </trkpt>
      <trkpt lat="45.66724" lon="2.96612">
        <ele>939.6</ele>
        <time>2025-09-28T07:50:55Z</time>
      </trkpt>
      <trkpt lat="45.6673" lon="2.9662">
        <ele>939</ele>
        <time>2025-09-28T07:50:56Z</time>
      </trkpt>
      <trkpt lat="45.66735" lon="2.96629">
        <ele>938.4</ele>
        <time>2025-09-28T07:50:57Z</time>
      </trkpt>
      <trkpt lat="45.66739" lon="2.96639">
        <ele>937.6</ele>
        <time>2025-09-28T07:50:58Z</time>
      </trkpt>
      <trkpt lat="45.66742" lon="2.96651">
        <ele>937</ele>
        <time>2025-09-28T07:50:59Z</time>
      </trkpt>
      <trkpt lat="45.66744" lon="2.96662">
        <ele>936.4</ele>
        <time>2025-09-28T07:51:00Z</time>
      </trkpt>
      <trkpt lat="45.66747" lon="2.96672">
        <ele>935.8</ele>
        <time>2025-09-28T07:51:01Z</time>
      </trkpt>
      <trkpt lat="45.66752" lon="2.96679">
        <ele>935.4</ele>
        <time>2025-09-28T07:51:02Z</time>
      </trkpt>
      <trkpt lat="45.66756" lon="2.96684">
        <ele>935</ele>
        <time>2025-09-28T07:51:03Z</time>
      </trkpt>
      <trkpt lat="45.66761" lon="2.96687">
        <ele>934.8</ele>
        <time>2025-09-28T07:51:04Z</time>
      </trkpt>
      <trkpt lat="45.66767" lon="2.96688">
        <ele>934.8</ele>
        <time>2025-09-28T07:51:05Z</time>
      </trkpt>
      <trkpt lat="45.66773" lon="2.96686">
        <ele>934.6</ele>
        <time>2025-09-28T07:51:06Z</time>
      </trkpt>
      <trkpt lat="45.66779" lon="2.96683">
        <ele>934.8</ele>
        <time>2025-09-28T07:51:07Z</time>
      </trkpt>
      <trkpt lat="45.66785" lon="2.9668">
        <ele>935</ele>
        <time>2025-09-28T07:51:08Z</time>
      </trkpt>
      <trkpt lat="45.66791" lon="2.96678">
        <ele>935.2</ele>
        <time>2025-09-28T07:51:09Z</time>
      </trkpt>
      <trkpt lat="45.66798" lon="2.96678">
        <ele>935.4</ele>
        <time>2025-09-28T07:51:10Z</time>
      </trkpt>
      <trkpt lat="45.66804" lon="2.9668">
        <ele>935.4</ele>
        <time>2025-09-28T07:51:11Z</time>
      </trkpt>
      <trkpt lat="45.66809" lon="2.96684">
        <ele>935.6</ele>
        <time>2025-09-28T07:51:12Z</time>
      </trkpt>
      <trkpt lat="45.6681" lon="2.9669">
        <ele>935.6</ele>
        <time>2025-09-28T07:51:13Z</time>
      </trkpt>
      <trkpt lat="45.6681" lon="2.96697">
        <ele>935.6</ele>
        <time>2025-09-28T07:51:14Z</time>
      </trkpt>
      <trkpt lat="45.66808" lon="2.96704">
        <ele>935.6</ele>
        <time>2025-09-28T07:51:15Z</time>
      </trkpt>
      <trkpt lat="45.66806" lon="2.9671">
        <ele>935.4</ele>
        <time>2025-09-28T07:51:16Z</time>
      </trkpt>
      <trkpt lat="45.66805" lon="2.96716">
        <ele>935.4</ele>
        <time>2025-09-28T07:51:17Z</time>
      </trkpt>
      <trkpt lat="45.66803" lon="2.96721">
        <ele>935.4</ele>
        <time>2025-09-28T07:51:18Z</time>
      </trkpt>
      <trkpt lat="45.66801" lon="2.96726">
        <ele>935.4</ele>
        <time>2025-09-28T07:51:19Z</time>
      </trkpt>
      <trkpt lat="45.66799" lon="2.96731">
        <ele>935.6</ele>
        <time>2025-09-28T07:51:20Z</time>
      </trkpt>
      <trkpt lat="45.66797" lon="2.96738">
        <ele>935.6</ele>
        <time>2025-09-28T07:51:21Z</time>
      </trkpt>
      <trkpt lat="45.66796" lon="2.96744">
        <ele>935.4</ele>
        <time>2025-09-28T07:51:22Z</time>
      </trkpt>
      <trkpt lat="45.66795" lon="2.96752">
        <ele>935.4</ele>
        <time>2025-09-28T07:51:23Z</time>
      </trkpt>
      <trkpt lat="45.66793" lon="2.9676">
        <ele>935.2</ele>
        <time>2025-09-28T07:51:24Z</time>
      </trkpt>
      <trkpt lat="45.66792" lon="2.96768">
        <ele>935</ele>
        <time>2025-09-28T07:51:25Z</time>
      </trkpt>
      <trkpt lat="45.66791" lon="2.96776">
        <ele>934.8</ele>
        <time>2025-09-28T07:51:26Z</time>
      </trkpt>
      <trkpt lat="45.66791" lon="2.96784">
        <ele>934.6</ele>
        <time>2025-09-28T07:51:27Z</time>
      </trkpt>
      <trkpt lat="45.66792" lon="2.96792">
        <ele>934.4</ele>
        <time>2025-09-28T07:51:28Z</time>
      </trkpt>
      <trkpt lat="45.66793" lon="2.968">
        <ele>934</ele>
        <time>2025-09-28T07:51:29Z</time>
      </trkpt>
      <trkpt lat="45.66794" lon="2.96809">
        <ele>933.6</ele>
        <time>2025-09-28T07:51:30Z</time>
      </trkpt>
      <trkpt lat="45.66795" lon="2.96819">
        <ele>933</ele>
        <time>2025-09-28T07:51:31Z</time>
      </trkpt>
      <trkpt lat="45.66797" lon="2.96829">
        <ele>932.6</ele>
        <time>2025-09-28T07:51:32Z</time>
      </trkpt>
      <trkpt lat="45.66799" lon="2.9684">
        <ele>932</ele>
        <time>2025-09-28T07:51:33Z</time>
      </trkpt>
      <trkpt lat="45.66801" lon="2.96851">
        <ele>931.6</ele>
        <time>2025-09-28T07:51:34Z</time>
      </trkpt>
      <trkpt lat="45.66802" lon="2.96862">
        <ele>931</ele>
        <time>2025-09-28T07:51:35Z</time>
      </trkpt>
      <trkpt lat="45.66803" lon="2.96873">
        <ele>930.4</ele>
        <time>2025-09-28T07:51:36Z</time>
      </trkpt>
      <trkpt lat="45.66804" lon="2.96885">
        <ele>929.8</ele>
        <time>2025-09-28T07:51:37Z</time>
      </trkpt>
      <trkpt lat="45.66804" lon="2.96899">
        <ele>929</ele>
        <time>2025-09-28T07:51:38Z</time>
      </trkpt>
      <trkpt lat="45.66803" lon="2.96911">
        <ele>928.4</ele>
        <time>2025-09-28T07:51:39Z</time>
      </trkpt>
      <trkpt lat="45.66803" lon="2.96924">
        <ele>927.8</ele>
        <time>2025-09-28T07:51:40Z</time>
      </trkpt>
      <trkpt lat="45.66802" lon="2.96935">
        <ele>927.4</ele>
        <time>2025-09-28T07:51:41Z</time>
      </trkpt>
      <trkpt lat="45.66801" lon="2.96947">
        <ele>927</ele>
        <time>2025-09-28T07:51:42Z</time>
      </trkpt>
      <trkpt lat="45.668" lon="2.96958">
        <ele>926.8</ele>
        <time>2025-09-28T07:51:43Z</time>
      </trkpt>
      <trkpt lat="45.66799" lon="2.96968">
        <ele>926.6</ele>
        <time>2025-09-28T07:51:44Z</time>
      </trkpt>
      <trkpt lat="45.66798" lon="2.96978">
        <ele>926.6</ele>
        <time>2025-09-28T07:51:45Z</time>
      </trkpt>
      <trkpt lat="45.66796" lon="2.96987">
        <ele>926.6</ele>
        <time>2025-09-28T07:51:46Z</time>
      </trkpt>
      <trkpt lat="45.66793" lon="2.96995">
        <ele>926.6</ele>
        <time>2025-09-28T07:51:47Z</time>
      </trkpt>
      <trkpt lat="45.6679" lon="2.97003">
        <ele>926.8</ele>
        <time>2025-09-28T07:51:48Z</time>
      </trkpt>
      <trkpt lat="45.66786" lon="2.9701">
        <ele>926.8</ele>
        <time>2025-09-28T07:51:49Z</time>
      </trkpt>
      <trkpt lat="45.66783" lon="2.97018">
        <ele>926.6</ele>
        <time>2025-09-28T07:51:50Z</time>
      </trkpt>
      <trkpt lat="45.6678" lon="2.97026">
        <ele>926.6</ele>
        <time>2025-09-28T07:51:51Z</time>
      </trkpt>
      <trkpt lat="45.66776" lon="2.97034">
        <ele>926.4</ele>
        <time>2025-09-28T07:51:52Z</time>
      </trkpt>
      <trkpt lat="45.66772" lon="2.97042">
        <ele>926.2</ele>
        <time>2025-09-28T07:51:53Z</time>
      </trkpt>
      <trkpt lat="45.66768" lon="2.97051">
        <ele>925.8</ele>
        <time>2025-09-28T07:51:54Z</time>
      </trkpt>
      <trkpt lat="45.66765" lon="2.97059">
        <ele>925.4</ele>
        <time>2025-09-28T07:51:55Z</time>
      </trkpt>
      <trkpt lat="45.66763" lon="2.97067">
        <ele>925</ele>
        <time>2025-09-28T07:51:56Z</time>
      </trkpt>
      <trkpt lat="45.66763" lon="2.97075">
        <ele>924.6</ele>
        <time>2025-09-28T07:51:57Z</time>
      </trkpt>
      <trkpt lat="45.66765" lon="2.97082">
        <ele>924.4</ele>
        <time>2025-09-28T07:51:58Z</time>
      </trkpt>
      <trkpt lat="45.66767" lon="2.97089">
        <ele>924.4</ele>
        <time>2025-09-28T07:51:59Z</time>
      </trkpt>
      <trkpt lat="45.6677" lon="2.97096">
        <ele>924.6</ele>
        <time>2025-09-28T07:52:00Z</time>
      </trkpt>
      <trkpt lat="45.66773" lon="2.97101">
        <ele>924.8</ele>
        <time>2025-09-28T07:52:01Z</time>
      </trkpt>
      <trkpt lat="45.66776" lon="2.97107">
        <ele>925</ele>
        <time>2025-09-28T07:52:02Z</time>
      </trkpt>
      <trkpt lat="45.66779" lon="2.97112">
        <ele>925.2</ele>
        <time>2025-09-28T07:52:03Z</time>
      </trkpt>
      <trkpt lat="45.66782" lon="2.97117">
        <ele>925.6</ele>
        <time>2025-09-28T07:52:04Z</time>
      </trkpt>
      <trkpt lat="45.66785" lon="2.97122">
        <ele>925.8</ele>
        <time>2025-09-28T07:52:05Z</time>
      </trkpt>
      <trkpt lat="45.66788" lon="2.97126">
        <ele>926.2</ele>
        <time>2025-09-28T07:52:06Z</time>
      </trkpt>
      <trkpt lat="45.6679" lon="2.97131">
        <ele>926.4</ele>
        <time>2025-09-28T07:52:07Z</time>
      </trkpt>
      <trkpt lat="45.66794" lon="2.97135">
        <ele>926.8</ele>
        <time>2025-09-28T07:52:08Z</time>
      </trkpt>
      <trkpt lat="45.66797" lon="2.97139">
        <ele>927.2</ele>
        <time>2025-09-28T07:52:09Z</time>
      </trkpt>
      <trkpt lat="45.66801" lon="2.97142">
        <ele>927.6</ele>
        <time>2025-09-28T07:52:10Z</time>
      </trkpt>
      <trkpt lat="45.66804" lon="2.97146">
        <ele>928</ele>
        <time>2025-09-28T07:52:11Z</time>
      </trkpt>
      <trkpt lat="45.66808" lon="2.97149">
        <ele>928.4</ele>
        <time>2025-09-28T07:52:12Z</time>
      </trkpt>
      <trkpt lat="45.66811" lon="2.97149">
        <ele>928.8</ele>
        <time>2025-09-28T07:52:13Z</time>
      </trkpt>
      <trkpt lat="45.66814" lon="2.97149">
        <ele>929.2</ele>
        <time>2025-09-28T07:52:14Z</time>
      </trkpt>
      <trkpt lat="45.66818" lon="2.9715">
        <ele>929.6</ele>
        <time>2025-09-28T07:52:15Z</time>
      </trkpt>
      <trkpt lat="45.66821" lon="2.97151">
        <ele>930</ele>
        <time>2025-09-28T07:52:16Z</time>
      </trkpt>
      <trkpt lat="45.66823" lon="2.97152">
        <ele>930.4</ele>
        <time>2025-09-28T07:52:17Z</time>
      </trkpt>
      <trkpt lat="45.66827" lon="2.97154">
        <ele>930.6</ele>
        <time>2025-09-28T07:52:18Z</time>
      </trkpt>
      <trkpt lat="45.6683" lon="2.97156">
        <ele>930.8</ele>
        <time>2025-09-28T07:52:19Z</time>
      </trkpt>
      <trkpt lat="45.66833" lon="2.97158">
        <ele>931.2</ele>
        <time>2025-09-28T07:52:20Z</time>
      </trkpt>
      <trkpt lat="45.66836" lon="2.9716">
        <ele>931.4</ele>
        <time>2025-09-28T07:52:21Z</time>
      </trkpt>
      <trkpt lat="45.66839" lon="2.97163">
        <ele>931.6</ele>
        <time>2025-09-28T07:52:22Z</time>
      </trkpt>
      <trkpt lat="45.66842" lon="2.97164">
        <ele>931.8</ele>
        <time>2025-09-28T07:52:23Z</time>
      </trkpt>
      <trkpt lat="45.66845" lon="2.97166">
        <ele>932</ele>
        <time>2025-09-28T07:52:24Z</time>
      </trkpt>
      <trkpt lat="45.66849" lon="2.97168">
        <ele>932.4</ele>
        <time>2025-09-28T07:52:25Z</time>
      </trkpt>
      <trkpt lat="45.66852" lon="2.9717">
        <ele>932.6</ele>
        <time>2025-09-28T07:52:26Z</time>
      </trkpt>
      <trkpt lat="45.66856" lon="2.97172">
        <ele>932.6</ele>
        <time>2025-09-28T07:52:27Z</time>
      </trkpt>
      <trkpt lat="45.6686" lon="2.97174">
        <ele>932.8</ele>
        <time>2025-09-28T07:52:28Z</time>
      </trkpt>
      <trkpt lat="45.66865" lon="2.97176">
        <ele>932.8</ele>
        <time>2025-09-28T07:52:29Z</time>
      </trkpt>
      <trkpt lat="45.66869" lon="2.97177">
        <ele>933</ele>
        <time>2025-09-28T07:52:30Z</time>
      </trkpt>
      <trkpt lat="45.66873" lon="2.97179">
        <ele>933</ele>
        <time>2025-09-28T07:52:31Z</time>
      </trkpt>
      <trkpt lat="45.66877" lon="2.97181">
        <ele>933.2</ele>
        <time>2025-09-28T07:52:32Z</time>
      </trkpt>
      <trkpt lat="45.66882" lon="2.97183">
        <ele>933.2</ele>
        <time>2025-09-28T07:52:33Z</time>
      </trkpt>
      <trkpt lat="45.66886" lon="2.97184">
        <ele>933.2</ele>
        <time>2025-09-28T07:52:34Z</time>
      </trkpt>
      <trkpt lat="45.6689" lon="2.97185">
        <ele>933.2</ele>
        <time>2025-09-28T07:52:35Z</time>
      </trkpt>
      <trkpt lat="45.66894" lon="2.97186">
        <ele>933.2</ele>
        <time>2025-09-28T07:52:36Z</time>
      </trkpt>
      <trkpt lat="45.66898" lon="2.97188">
        <ele>933.2</ele>
        <time>2025-09-28T07:52:37Z</time>
      </trkpt>
      <trkpt lat="45.66903" lon="2.97189">
        <ele>933.2</ele>
        <time>2025-09-28T07:52:38Z</time>
      </trkpt>
      <trkpt lat="45.66907" lon="2.9719">
        <ele>933.4</ele>
        <time>2025-09-28T07:52:39Z</time>
      </trkpt>
      <trkpt lat="45.66911" lon="2.97192">
        <ele>933.4</ele>
        <time>2025-09-28T07:52:40Z</time>
      </trkpt>
      <trkpt lat="45.66915" lon="2.97192">
        <ele>933.4</ele>
        <time>2025-09-28T07:52:41Z</time>
      </trkpt>
      <trkpt lat="45.66919" lon="2.97193">
        <ele>933.4</ele>
        <time>2025-09-28T07:52:42Z</time>
      </trkpt>
      <trkpt lat="45.66923" lon="2.97193">
        <ele>933.4</ele>
        <time>2025-09-28T07:52:43Z</time>
      </trkpt>
      <trkpt lat="45.66926" lon="2.97193">
        <ele>933.6</ele>
        <time>2025-09-28T07:52:44Z</time>
      </trkpt>
      <trkpt lat="45.66929" lon="2.97192">
        <ele>933.6</ele>
        <time>2025-09-28T07:52:45Z</time>
      </trkpt>
      <trkpt lat="45.66933" lon="2.97192">
        <ele>933.8</ele>
        <time>2025-09-28T07:52:46Z</time>
      </trkpt>
      <trkpt lat="45.66935" lon="2.97192">
        <ele>933.8</ele>
        <time>2025-09-28T07:52:47Z</time>
      </trkpt>
      <trkpt lat="45.66938" lon="2.97193">
        <ele>934</ele>
        <time>2025-09-28T07:52:48Z</time>
      </trkpt>
      <trkpt lat="45.6694" lon="2.97195">
        <ele>934</ele>
        <time>2025-09-28T07:52:49Z</time>
      </trkpt>
      <trkpt lat="45.66942" lon="2.97198">
        <ele>934</ele>
        <time>2025-09-28T07:52:50Z</time>
      </trkpt>
      <trkpt lat="45.66943" lon="2.97201">
        <ele>933.8</ele>
        <time>2025-09-28T07:52:51Z</time>
      </trkpt>
      <trkpt lat="45.66943" lon="2.97206">
        <ele>933.6</ele>
        <time>2025-09-28T07:52:52Z</time>
      </trkpt>
      <trkpt lat="45.66944" lon="2.97212">
        <ele>933.2</ele>
        <time>2025-09-28T07:52:53Z</time>
      </trkpt>
      <trkpt lat="45.66945" lon="2.9722">
        <ele>932.8</ele>
        <time>2025-09-28T07:52:54Z</time>
      </trkpt>
      <trkpt lat="45.66946" lon="2.97228">
        <ele>932.4</ele>
        <time>2025-09-28T07:52:55Z</time>
      </trkpt>
      <trkpt lat="45.66947" lon="2.97237">
        <ele>931.8</ele>
        <time>2025-09-28T07:52:56Z</time>
      </trkpt>
      <trkpt lat="45.66948" lon="2.97246">
        <ele>931.4</ele>
        <time>2025-09-28T07:52:57Z</time>
      </trkpt>
      <trkpt lat="45.66948" lon="2.97256">
        <ele>930.6</ele>
        <time>2025-09-28T07:52:58Z</time>
      </trkpt>
      <trkpt lat="45.66948" lon="2.97269">
        <ele>929.8</ele>
        <time>2025-09-28T07:52:59Z</time>
      </trkpt>
      <trkpt lat="45.66948" lon="2.97281">
        <ele>928.8</ele>
        <time>2025-09-28T07:53:00Z</time>
      </trkpt>
      <trkpt lat="45.66949" lon="2.97295">
        <ele>927.8</ele>
        <time>2025-09-28T07:53:01Z</time>
      </trkpt>
      <trkpt lat="45.6695" lon="2.97307">
        <ele>926.6</ele>
        <time>2025-09-28T07:53:02Z</time>
      </trkpt>
      <trkpt lat="45.66951" lon="2.97321">
        <ele>925.8</ele>
        <time>2025-09-28T07:53:03Z</time>
      </trkpt>
      <trkpt lat="45.66952" lon="2.97337">
        <ele>925</ele>
        <time>2025-09-28T07:53:04Z</time>
      </trkpt>
      <trkpt lat="45.66953" lon="2.97352">
        <ele>924.2</ele>
        <time>2025-09-28T07:53:05Z</time>
      </trkpt>
      <trkpt lat="45.66954" lon="2.97367">
        <ele>923.4</ele>
        <time>2025-09-28T07:53:06Z</time>
      </trkpt>
      <trkpt lat="45.66956" lon="2.97382">
        <ele>922.4</ele>
        <time>2025-09-28T07:53:07Z</time>
      </trkpt>
      <trkpt lat="45.66957" lon="2.97396">
        <ele>921.8</ele>
        <time>2025-09-28T07:53:08Z</time>
      </trkpt>
      <trkpt lat="45.66959" lon="2.9741">
        <ele>921</ele>
        <time>2025-09-28T07:53:09Z</time>
      </trkpt>
      <trkpt lat="45.6696" lon="2.97424">
        <ele>920.2</ele>
        <time>2025-09-28T07:53:10Z</time>
      </trkpt>
      <trkpt lat="45.66962" lon="2.97437">
        <ele>919.4</ele>
        <time>2025-09-28T07:53:11Z</time>
      </trkpt>
      <trkpt lat="45.66963" lon="2.9745">
        <ele>918.6</ele>
        <time>2025-09-28T07:53:12Z</time>
      </trkpt>
      <trkpt lat="45.66964" lon="2.97461">
        <ele>917.8</ele>
        <time>2025-09-28T07:53:13Z</time>
      </trkpt>
      <trkpt lat="45.66965" lon="2.97471">
        <ele>917.2</ele>
        <time>2025-09-28T07:53:14Z</time>
      </trkpt>
      <trkpt lat="45.66967" lon="2.97479">
        <ele>916.6</ele>
        <time>2025-09-28T07:53:15Z</time>
      </trkpt>
      <trkpt lat="45.66967" lon="2.97486">
        <ele>916</ele>
        <time>2025-09-28T07:53:16Z</time>
      </trkpt>
      <trkpt lat="45.66967" lon="2.97491">
        <ele>915.6</ele>
        <time>2025-09-28T07:53:17Z</time>
      </trkpt>
      <trkpt lat="45.66964" lon="2.97494">
        <ele>915.2</ele>
        <time>2025-09-28T07:53:18Z</time>
      </trkpt>
      <trkpt lat="45.66959" lon="2.97497">
        <ele>914.8</ele>
        <time>2025-09-28T07:53:19Z</time>
      </trkpt>
      <trkpt lat="45.66953" lon="2.97497">
        <ele>914.4</ele>
        <time>2025-09-28T07:53:20Z</time>
      </trkpt>
      <trkpt lat="45.66947" lon="2.97495">
        <ele>914.2</ele>
        <time>2025-09-28T07:53:21Z</time>
      </trkpt>
      <trkpt lat="45.66939" lon="2.97494">
        <ele>914</ele>
        <time>2025-09-28T07:53:22Z</time>
      </trkpt>
      <trkpt lat="45.66932" lon="2.97493">
        <ele>913.6</ele>
        <time>2025-09-28T07:53:23Z</time>
      </trkpt>
      <trkpt lat="45.66925" lon="2.97492">
        <ele>913.4</ele>
        <time>2025-09-28T07:53:24Z</time>
      </trkpt>
      <trkpt lat="45.66918" lon="2.97491">
        <ele>913.2</ele>
        <time>2025-09-28T07:53:25Z</time>
      </trkpt>
      <trkpt lat="45.66912" lon="2.97489">
        <ele>913</ele>
        <time>2025-09-28T07:53:26Z</time>
      </trkpt>
      <trkpt lat="45.66907" lon="2.97485">
        <ele>912.8</ele>
        <time>2025-09-28T07:53:27Z</time>
      </trkpt>
      <trkpt lat="45.66901" lon="2.97482">
        <ele>912.6</ele>
        <time>2025-09-28T07:53:28Z</time>
      </trkpt>
      <trkpt lat="45.66896" lon="2.97478">
        <ele>912.4</ele>
        <time>2025-09-28T07:53:29Z</time>
      </trkpt>
      <trkpt lat="45.66892" lon="2.97473">
        <ele>912.2</ele>
        <time>2025-09-28T07:53:30Z</time>
      </trkpt>
      <trkpt lat="45.66888" lon="2.97468">
        <ele>911.8</ele>
        <time>2025-09-28T07:53:31Z</time>
      </trkpt>
      <trkpt lat="45.66884" lon="2.97464">
        <ele>911.6</ele>
        <time>2025-09-28T07:53:32Z</time>
      </trkpt>
      <trkpt lat="45.66879" lon="2.97459">
        <ele>911.2</ele>
        <time>2025-09-28T07:53:33Z</time>
      </trkpt>
      <trkpt lat="45.66875" lon="2.97454">
        <ele>911</ele>
        <time>2025-09-28T07:53:34Z</time>
      </trkpt>
      <trkpt lat="45.66871" lon="2.97448">
        <ele>910.6</ele>
        <time>2025-09-28T07:53:35Z</time>
      </trkpt>
      <trkpt lat="45.66866" lon="2.97443">
        <ele>910.4</ele>
        <time>2025-09-28T07:53:36Z</time>
      </trkpt>
      <trkpt lat="45.66861" lon="2.97439">
        <ele>909.8</ele>
        <time>2025-09-28T07:53:37Z</time>
      </trkpt>
      <trkpt lat="45.66856" lon="2.97436">
        <ele>909.4</ele>
        <time>2025-09-28T07:53:38Z</time>
      </trkpt>
      <trkpt lat="45.66851" lon="2.97435">
        <ele>909</ele>
        <time>2025-09-28T07:53:39Z</time>
      </trkpt>
      <trkpt lat="45.66846" lon="2.97434">
        <ele>908.8</ele>
        <time>2025-09-28T07:53:40Z</time>
      </trkpt>
      <trkpt lat="45.66841" lon="2.97434">
        <ele>908.6</ele>
        <time>2025-09-28T07:53:41Z</time>
      </trkpt>
      <trkpt lat="45.66836" lon="2.97434">
        <ele>908.2</ele>
        <time>2025-09-28T07:53:42Z</time>
      </trkpt>
      <trkpt lat="45.66831" lon="2.97436">
        <ele>908.2</ele>
        <time>2025-09-28T07:53:43Z</time>
      </trkpt>
      <trkpt lat="45.66826" lon="2.97438">
        <ele>908</ele>
        <time>2025-09-28T07:53:44Z</time>
      </trkpt>
      <trkpt lat="45.6682" lon="2.97442">
        <ele>908</ele>
        <time>2025-09-28T07:53:45Z</time>
      </trkpt>
      <trkpt lat="45.66814" lon="2.97446">
        <ele>908</ele>
        <time>2025-09-28T07:53:46Z</time>
      </trkpt>
      <trkpt lat="45.66808" lon="2.9745">
        <ele>908.2</ele>
        <time>2025-09-28T07:53:47Z</time>
      </trkpt>
      <trkpt lat="45.66801" lon="2.97453">
        <ele>908.2</ele>
        <time>2025-09-28T07:53:48Z</time>
      </trkpt>
      <trkpt lat="45.66795" lon="2.97456">
        <ele>908.4</ele>
        <time>2025-09-28T07:53:49Z</time>
      </trkpt>
      <trkpt lat="45.66789" lon="2.97457">
        <ele>908.8</ele>
        <time>2025-09-28T07:53:50Z</time>
      </trkpt>
      <trkpt lat="45.66784" lon="2.97459">
        <ele>909</ele>
        <time>2025-09-28T07:53:51Z</time>
      </trkpt>
      <trkpt lat="45.66779" lon="2.9746">
        <ele>909.4</ele>
        <time>2025-09-28T07:53:52Z</time>
      </trkpt>
      <trkpt lat="45.66774" lon="2.97462">
        <ele>909.8</ele>
        <time>2025-09-28T07:53:53Z</time>
      </trkpt>
      <trkpt lat="45.6677" lon="2.97464">
        <ele>910</ele>
        <time>2025-09-28T07:53:54Z</time>
      </trkpt>
      <trkpt lat="45.66765" lon="2.97467">
        <ele>910.2</ele>
        <time>2025-09-28T07:53:55Z</time>
      </trkpt>
      <trkpt lat="45.6676" lon="2.97469">
        <ele>910.4</ele>
        <time>2025-09-28T07:53:56Z</time>
      </trkpt>
      <trkpt lat="45.66755" lon="2.97472">
        <ele>910.6</ele>
        <time>2025-09-28T07:53:57Z</time>
      </trkpt>
      <trkpt lat="45.6675" lon="2.97474">
        <ele>910.8</ele>
        <time>2025-09-28T07:53:58Z</time>
      </trkpt>
      <trkpt lat="45.66744" lon="2.97476">
        <ele>911</ele>
        <time>2025-09-28T07:53:59Z</time>
      </trkpt>
      <trkpt lat="45.66739" lon="2.97478">
        <ele>911</ele>
        <time>2025-09-28T07:54:00Z</time>
      </trkpt>
      <trkpt lat="45.66734" lon="2.97479">
        <ele>911.2</ele>
        <time>2025-09-28T07:54:01Z</time>
      </trkpt>
      <trkpt lat="45.66729" lon="2.9748">
        <ele>911.2</ele>
        <time>2025-09-28T07:54:02Z</time>
      </trkpt>
      <trkpt lat="45.66725" lon="2.97481">
        <ele>911.4</ele>
        <time>2025-09-28T07:54:03Z</time>
      </trkpt>
      <trkpt lat="45.6672" lon="2.97481">
        <ele>911.4</ele>
        <time>2025-09-28T07:54:04Z</time>
      </trkpt>
      <trkpt lat="45.66715" lon="2.97481">
        <ele>911.6</ele>
        <time>2025-09-28T07:54:05Z</time>
      </trkpt>
      <trkpt lat="45.66711" lon="2.97481">
        <ele>911.6</ele>
        <time>2025-09-28T07:54:06Z</time>
      </trkpt>
      <trkpt lat="45.66706" lon="2.9748">
        <ele>911.6</ele>
        <time>2025-09-28T07:54:07Z</time>
      </trkpt>
      <trkpt lat="45.66702" lon="2.97478">
        <ele>911.8</ele>
        <time>2025-09-28T07:54:08Z</time>
      </trkpt>
      <trkpt lat="45.66698" lon="2.97476">
        <ele>911.8</ele>
        <time>2025-09-28T07:54:09Z</time>
      </trkpt>
      <trkpt lat="45.66694" lon="2.97474">
        <ele>911.8</ele>
        <time>2025-09-28T07:54:10Z</time>
      </trkpt>
      <trkpt lat="45.6669" lon="2.97472">
        <ele>911.8</ele>
        <time>2025-09-28T07:54:11Z</time>
      </trkpt>
      <trkpt lat="45.66685" lon="2.9747">
        <ele>911.8</ele>
        <time>2025-09-28T07:54:12Z</time>
      </trkpt>
      <trkpt lat="45.66682" lon="2.97467">
        <ele>911.8</ele>
        <time>2025-09-28T07:54:13Z</time>
      </trkpt>
      <trkpt lat="45.66678" lon="2.97465">
        <ele>911.8</ele>
        <time>2025-09-28T07:54:14Z</time>
      </trkpt>
      <trkpt lat="45.66674" lon="2.97462">
        <ele>911.6</ele>
        <time>2025-09-28T07:54:15Z</time>
      </trkpt>
      <trkpt lat="45.66669" lon="2.97459">
        <ele>911.4</ele>
        <time>2025-09-28T07:54:16Z</time>
      </trkpt>
      <trkpt lat="45.66664" lon="2.97456">
        <ele>911.4</ele>
        <time>2025-09-28T07:54:17Z</time>
      </trkpt>
      <trkpt lat="45.66659" lon="2.97453">
        <ele>911</ele>
        <time>2025-09-28T07:54:18Z</time>
      </trkpt>
      <trkpt lat="45.66655" lon="2.97451">
        <ele>910.8</ele>
        <time>2025-09-28T07:54:19Z</time>
      </trkpt>
      <trkpt lat="45.66649" lon="2.97447">
        <ele>910.6</ele>
        <time>2025-09-28T07:54:20Z</time>
      </trkpt>
      <trkpt lat="45.66644" lon="2.97444">
        <ele>910.4</ele>
        <time>2025-09-28T07:54:21Z</time>
      </trkpt>
      <trkpt lat="45.66638" lon="2.9744">
        <ele>910</ele>
        <time>2025-09-28T07:54:22Z</time>
      </trkpt>
      <trkpt lat="45.66633" lon="2.97436">
        <ele>909.8</ele>
        <time>2025-09-28T07:54:23Z</time>
      </trkpt>
      <trkpt lat="45.66627" lon="2.97432">
        <ele>909.6</ele>
        <time>2025-09-28T07:54:24Z</time>
      </trkpt>
      <trkpt lat="45.66621" lon="2.97428">
        <ele>909.6</ele>
        <time>2025-09-28T07:54:25Z</time>
      </trkpt>
      <trkpt lat="45.66616" lon="2.97425">
        <ele>909.4</ele>
        <time>2025-09-28T07:54:26Z</time>
      </trkpt>
      <trkpt lat="45.6661" lon="2.97421">
        <ele>909.2</ele>
        <time>2025-09-28T07:54:27Z</time>
      </trkpt>
      <trkpt lat="45.66605" lon="2.97418">
        <ele>909</ele>
        <time>2025-09-28T07:54:28Z</time>
      </trkpt>
      <trkpt lat="45.66601" lon="2.97417">
        <ele>908.8</ele>
        <time>2025-09-28T07:54:29Z</time>
      </trkpt>
      <trkpt lat="45.66598" lon="2.97419">
        <ele>908.6</ele>
        <time>2025-09-28T07:54:30Z</time>
      </trkpt>
      <trkpt lat="45.66594" lon="2.97424">
        <ele>908.4</ele>
        <time>2025-09-28T07:54:31Z</time>
      </trkpt>
      <trkpt lat="45.6659" lon="2.97429">
        <ele>908.2</ele>
        <time>2025-09-28T07:54:32Z</time>
      </trkpt>
      <trkpt lat="45.66586" lon="2.97436">
        <ele>908</ele>
        <time>2025-09-28T07:54:33Z</time>
      </trkpt>
      <trkpt lat="45.66582" lon="2.97443">
        <ele>908</ele>
        <time>2025-09-28T07:54:34Z</time>
      </trkpt>
      <trkpt lat="45.66577" lon="2.9745">
        <ele>907.8</ele>
        <time>2025-09-28T07:54:35Z</time>
      </trkpt>
      <trkpt lat="45.66573" lon="2.97456">
        <ele>907.8</ele>
        <time>2025-09-28T07:54:36Z</time>
      </trkpt>
      <trkpt lat="45.66569" lon="2.97463">
        <ele>907.6</ele>
        <time>2025-09-28T07:54:37Z</time>
      </trkpt>
      <trkpt lat="45.66565" lon="2.9747">
        <ele>907.6</ele>
        <time>2025-09-28T07:54:38Z</time>
      </trkpt>
      <trkpt lat="45.6656" lon="2.97476">
        <ele>907.4</ele>
        <time>2025-09-28T07:54:39Z</time>
      </trkpt>
      <trkpt lat="45.66556" lon="2.97483">
        <ele>907.4</ele>
        <time>2025-09-28T07:54:40Z</time>
      </trkpt>
      <trkpt lat="45.66552" lon="2.97489">
        <ele>907.4</ele>
        <time>2025-09-28T07:54:41Z</time>
      </trkpt>
      <trkpt lat="45.66548" lon="2.97495">
        <ele>907.4</ele>
        <time>2025-09-28T07:54:42Z</time>
      </trkpt>
      <trkpt lat="45.66544" lon="2.97501">
        <ele>907.4</ele>
        <time>2025-09-28T07:54:43Z</time>
      </trkpt>
      <trkpt lat="45.6654" lon="2.97508">
        <ele>907.4</ele>
        <time>2025-09-28T07:54:44Z</time>
      </trkpt>
      <trkpt lat="45.66536" lon="2.97514">
        <ele>907.6</ele>
        <time>2025-09-28T07:54:45Z</time>
      </trkpt>
      <trkpt lat="45.66531" lon="2.9752">
        <ele>907.6</ele>
        <time>2025-09-28T07:54:46Z</time>
      </trkpt>
      <trkpt lat="45.66527" lon="2.97527">
        <ele>907.6</ele>
        <time>2025-09-28T07:54:47Z</time>
      </trkpt>
      <trkpt lat="45.66524" lon="2.97533">
        <ele>907.8</ele>
        <time>2025-09-28T07:54:48Z</time>
      </trkpt>
      <trkpt lat="45.6652" lon="2.97539">
        <ele>907.8</ele>
        <time>2025-09-28T07:54:49Z</time>
      </trkpt>
      <trkpt lat="45.66516" lon="2.97544">
        <ele>908</ele>
        <time>2025-09-28T07:54:50Z</time>
      </trkpt>
      <trkpt lat="45.66512" lon="2.97549">
        <ele>908.2</ele>
        <time>2025-09-28T07:54:51Z</time>
      </trkpt>
      <trkpt lat="45.66508" lon="2.97554">
        <ele>908.4</ele>
        <time>2025-09-28T07:54:52Z</time>
      </trkpt>
      <trkpt lat="45.66504" lon="2.97558">
        <ele>908.6</ele>
        <time>2025-09-28T07:54:53Z</time>
      </trkpt>
      <trkpt lat="45.66501" lon="2.97561">
        <ele>908.8</ele>
        <time>2025-09-28T07:54:54Z</time>
      </trkpt>
      <trkpt lat="45.66497" lon="2.97564">
        <ele>909</ele>
        <time>2025-09-28T07:54:55Z</time>
      </trkpt>
      <trkpt lat="45.66494" lon="2.97566">
        <ele>909.2</ele>
        <time>2025-09-28T07:54:56Z</time>
      </trkpt>
      <trkpt lat="45.66493" lon="2.97569">
        <ele>909.2</ele>
        <time>2025-09-28T07:54:57Z</time>
      </trkpt>
      <trkpt lat="45.66492" lon="2.97573">
        <ele>909.2</ele>
        <time>2025-09-28T07:54:58Z</time>
      </trkpt>
      <trkpt lat="45.66492" lon="2.97578">
        <ele>909</ele>
        <time>2025-09-28T07:54:59Z</time>
      </trkpt>
      <trkpt lat="45.66493" lon="2.97582">
        <ele>909</ele>
        <time>2025-09-28T07:55:00Z</time>
      </trkpt>
      <trkpt lat="45.66495" lon="2.97586">
        <ele>908.8</ele>
        <time>2025-09-28T07:55:01Z</time>
      </trkpt>
      <trkpt lat="45.66496" lon="2.9759">
        <ele>908.6</ele>
        <time>2025-09-28T07:55:02Z</time>
      </trkpt>
      <trkpt lat="45.66497" lon="2.97595">
        <ele>908.4</ele>
        <time>2025-09-28T07:55:03Z</time>
      </trkpt>
      <trkpt lat="45.66498" lon="2.976">
        <ele>908</ele>
        <time>2025-09-28T07:55:04Z</time>
      </trkpt>
      <trkpt lat="45.66499" lon="2.97606">
        <ele>907.8</ele>
        <time>2025-09-28T07:55:05Z</time>
      </trkpt>
      <trkpt lat="45.665" lon="2.97612">
        <ele>907.4</ele>
        <time>2025-09-28T07:55:06Z</time>
      </trkpt>
      <trkpt lat="45.66501" lon="2.97618">
        <ele>907</ele>
        <time>2025-09-28T07:55:07Z</time>
      </trkpt>
      <trkpt lat="45.66502" lon="2.97625">
        <ele>906.6</ele>
        <time>2025-09-28T07:55:08Z</time>
      </trkpt>
      <trkpt lat="45.66503" lon="2.97633">
        <ele>906.2</ele>
        <time>2025-09-28T07:55:09Z</time>
      </trkpt>
      <trkpt lat="45.66505" lon="2.97641">
        <ele>905.6</ele>
        <time>2025-09-28T07:55:10Z</time>
      </trkpt>
      <trkpt lat="45.66506" lon="2.9765">
        <ele>905</ele>
        <time>2025-09-28T07:55:11Z</time>
      </trkpt>
      <trkpt lat="45.66508" lon="2.97659">
        <ele>904.4</ele>
        <time>2025-09-28T07:55:12Z</time>
      </trkpt>
      <trkpt lat="45.6651" lon="2.97668">
        <ele>903.6</ele>
        <time>2025-09-28T07:55:13Z</time>
      </trkpt>
      <trkpt lat="45.66513" lon="2.97677">
        <ele>902.8</ele>
        <time>2025-09-28T07:55:14Z</time>
      </trkpt>
      <trkpt lat="45.66516" lon="2.97686">
        <ele>902.2</ele>
        <time>2025-09-28T07:55:15Z</time>
      </trkpt>
      <trkpt lat="45.66518" lon="2.97696">
        <ele>901.4</ele>
        <time>2025-09-28T07:55:16Z</time>
      </trkpt>
      <trkpt lat="45.6652" lon="2.97704">
        <ele>900.6</ele>
        <time>2025-09-28T07:55:17Z</time>
      </trkpt>
      <trkpt lat="45.66522" lon="2.97713">
        <ele>899.8</ele>
        <time>2025-09-28T07:55:18Z</time>
      </trkpt>
      <trkpt lat="45.66522" lon="2.97722">
        <ele>898.8</ele>
        <time>2025-09-28T07:55:19Z</time>
      </trkpt>
      <trkpt lat="45.66522" lon="2.97731">
        <ele>898</ele>
        <time>2025-09-28T07:55:20Z</time>
      </trkpt>
      <trkpt lat="45.66522" lon="2.97742">
        <ele>897</ele>
        <time>2025-09-28T07:55:21Z</time>
      </trkpt>
      <trkpt lat="45.66522" lon="2.97753">
        <ele>896.2</ele>
        <time>2025-09-28T07:55:22Z</time>
      </trkpt>
      <trkpt lat="45.66523" lon="2.97764">
        <ele>895.4</ele>
        <time>2025-09-28T07:55:23Z</time>
      </trkpt>
      <trkpt lat="45.66525" lon="2.97775">
        <ele>894.6</ele>
        <time>2025-09-28T07:55:24Z</time>
      </trkpt>
      <trkpt lat="45.66528" lon="2.97785">
        <ele>894</ele>
        <time>2025-09-28T07:55:25Z</time>
      </trkpt>
      <trkpt lat="45.66531" lon="2.97795">
        <ele>893.2</ele>
        <time>2025-09-28T07:55:26Z</time>
      </trkpt>
      <trkpt lat="45.66534" lon="2.97804">
        <ele>892.6</ele>
        <time>2025-09-28T07:55:27Z</time>
      </trkpt>
      <trkpt lat="45.66538" lon="2.97812">
        <ele>892</ele>
        <time>2025-09-28T07:55:28Z</time>
      </trkpt>
      <trkpt lat="45.66541" lon="2.97819">
        <ele>891.4</ele>
        <time>2025-09-28T07:55:29Z</time>
      </trkpt>
      <trkpt lat="45.66543" lon="2.97827">
        <ele>891</ele>
        <time>2025-09-28T07:55:30Z</time>
      </trkpt>
      <trkpt lat="45.66546" lon="2.97835">
        <ele>890.4</ele>
        <time>2025-09-28T07:55:31Z</time>
      </trkpt>
      <trkpt lat="45.66549" lon="2.97845">
        <ele>889.6</ele>
        <time>2025-09-28T07:55:32Z</time>
      </trkpt>
      <trkpt lat="45.66552" lon="2.97857">
        <ele>889</ele>
        <time>2025-09-28T07:55:33Z</time>
      </trkpt>
      <trkpt lat="45.66552" lon="2.97869">
        <ele>888.2</ele>
        <time>2025-09-28T07:55:34Z</time>
      </trkpt>
      <trkpt lat="45.66552" lon="2.97883">
        <ele>887.4</ele>
        <time>2025-09-28T07:55:35Z</time>
      </trkpt>
      <trkpt lat="45.66552" lon="2.97895">
        <ele>886.4</ele>
        <time>2025-09-28T07:55:36Z</time>
      </trkpt>
      <trkpt lat="45.66554" lon="2.97908">
        <ele>885.6</ele>
        <time>2025-09-28T07:55:37Z</time>
      </trkpt>
      <trkpt lat="45.66557" lon="2.97923">
        <ele>884.6</ele>
        <time>2025-09-28T07:55:38Z</time>
      </trkpt>
      <trkpt lat="45.6656" lon="2.97935">
        <ele>883.6</ele>
        <time>2025-09-28T07:55:39Z</time>
      </trkpt>
      <trkpt lat="45.66564" lon="2.97946">
        <ele>882.8</ele>
        <time>2025-09-28T07:55:40Z</time>
      </trkpt>
      <trkpt lat="45.66567" lon="2.9796">
        <ele>881.8</ele>
        <time>2025-09-28T07:55:41Z</time>
      </trkpt>
      <trkpt lat="45.66571" lon="2.97976">
        <ele>881</ele>
        <time>2025-09-28T07:55:42Z</time>
      </trkpt>
      <trkpt lat="45.66574" lon="2.97991">
        <ele>880</ele>
        <time>2025-09-28T07:55:43Z</time>
      </trkpt>
      <trkpt lat="45.66578" lon="2.98002">
        <ele>879.2</ele>
        <time>2025-09-28T07:55:44Z</time>
      </trkpt>
      <trkpt lat="45.66582" lon="2.98013">
        <ele>878.6</ele>
        <time>2025-09-28T07:55:45Z</time>
      </trkpt>
      <trkpt lat="45.66586" lon="2.98023">
        <ele>878</ele>
        <time>2025-09-28T07:55:46Z</time>
      </trkpt>
      <trkpt lat="45.66589" lon="2.98033">
        <ele>877.4</ele>
        <time>2025-09-28T07:55:47Z</time>
      </trkpt>
      <trkpt lat="45.66593" lon="2.98041">
        <ele>876.8</ele>
        <time>2025-09-28T07:55:48Z</time>
      </trkpt>
      <trkpt lat="45.66599" lon="2.98049">
        <ele>876</ele>
        <time>2025-09-28T07:55:49Z</time>
      </trkpt>
      <trkpt lat="45.66605" lon="2.98057">
        <ele>875.4</ele>
        <time>2025-09-28T07:55:50Z</time>
      </trkpt>
      <trkpt lat="45.66612" lon="2.98064">
        <ele>874.8</ele>
        <time>2025-09-28T07:55:51Z</time>
      </trkpt>
      <trkpt lat="45.66619" lon="2.98071">
        <ele>874.4</ele>
        <time>2025-09-28T07:55:52Z</time>
      </trkpt>
      <trkpt lat="45.66625" lon="2.98078">
        <ele>874</ele>
        <time>2025-09-28T07:55:53Z</time>
      </trkpt>
      <trkpt lat="45.66631" lon="2.98085">
        <ele>873.4</ele>
        <time>2025-09-28T07:55:54Z</time>
      </trkpt>
      <trkpt lat="45.66638" lon="2.98092">
        <ele>873</ele>
        <time>2025-09-28T07:55:55Z</time>
      </trkpt>
      <trkpt lat="45.66645" lon="2.98101">
        <ele>872.6</ele>
        <time>2025-09-28T07:55:56Z</time>
      </trkpt>
      <trkpt lat="45.66652" lon="2.98108">
        <ele>872.2</ele>
        <time>2025-09-28T07:55:57Z</time>
      </trkpt>
      <trkpt lat="45.66658" lon="2.98115">
        <ele>871.6</ele>
        <time>2025-09-28T07:55:58Z</time>
      </trkpt>
      <trkpt lat="45.66664" lon="2.98122">
        <ele>871.2</ele>
        <time>2025-09-28T07:55:59Z</time>
      </trkpt>
      <trkpt lat="45.66669" lon="2.98129">
        <ele>870.8</ele>
        <time>2025-09-28T07:56:00Z</time>
      </trkpt>
      <trkpt lat="45.66672" lon="2.98136">
        <ele>870</ele>
        <time>2025-09-28T07:56:01Z</time>
      </trkpt>
      <trkpt lat="45.66675" lon="2.98144">
        <ele>869.2</ele>
        <time>2025-09-28T07:56:02Z</time>
      </trkpt>
      <trkpt lat="45.66678" lon="2.98151">
        <ele>868.6</ele>
        <time>2025-09-28T07:56:03Z</time>
      </trkpt>
      <trkpt lat="45.66682" lon="2.98158">
        <ele>868</ele>
        <time>2025-09-28T07:56:04Z</time>
      </trkpt>
      <trkpt lat="45.66688" lon="2.98164">
        <ele>867.2</ele>
        <time>2025-09-28T07:56:05Z</time>
      </trkpt>
      <trkpt lat="45.66693" lon="2.98169">
        <ele>866.6</ele>
        <time>2025-09-28T07:56:06Z</time>
      </trkpt>
      <trkpt lat="45.66697" lon="2.98172">
        <ele>865.8</ele>
        <time>2025-09-28T07:56:07Z</time>
      </trkpt>
      <trkpt lat="45.66701" lon="2.98175">
        <ele>865.2</ele>
        <time>2025-09-28T07:56:08Z</time>
      </trkpt>
      <trkpt lat="45.66703" lon="2.98178">
        <ele>864.6</ele>
        <time>2025-09-28T07:56:09Z</time>
      </trkpt>
      <trkpt lat="45.66706" lon="2.9818">
        <ele>863.8</ele>
        <time>2025-09-28T07:56:10Z</time>
      </trkpt>
      <trkpt lat="45.66708" lon="2.98184">
        <ele>863.2</ele>
        <time>2025-09-28T07:56:11Z</time>
      </trkpt>
      <trkpt lat="45.6671" lon="2.98188">
        <ele>862.8</ele>
        <time>2025-09-28T07:56:12Z</time>
      </trkpt>
      <trkpt lat="45.66713" lon="2.98193">
        <ele>862.4</ele>
        <time>2025-09-28T07:56:13Z</time>
      </trkpt>
      <trkpt lat="45.66717" lon="2.98198">
        <ele>862</ele>
        <time>2025-09-28T07:56:14Z</time>
      </trkpt>
      <trkpt lat="45.66722" lon="2.98203">
        <ele>861.8</ele>
        <time>2025-09-28T07:56:15Z</time>
      </trkpt>
      <trkpt lat="45.66727" lon="2.98208">
        <ele>861.4</ele>
        <time>2025-09-28T07:56:16Z</time>
      </trkpt>
      <trkpt lat="45.66732" lon="2.98213">
        <ele>861.4</ele>
        <time>2025-09-28T07:56:17Z</time>
      </trkpt>
      <trkpt lat="45.66736" lon="2.98219">
        <ele>861.2</ele>
        <time>2025-09-28T07:56:18Z</time>
      </trkpt>
      <trkpt lat="45.66739" lon="2.98226">
        <ele>861.2</ele>
        <time>2025-09-28T07:56:19Z</time>
      </trkpt>
      <trkpt lat="45.66741" lon="2.98233">
        <ele>861</ele>
        <time>2025-09-28T07:56:20Z</time>
      </trkpt>
      <trkpt lat="45.66742" lon="2.98241">
        <ele>861</ele>
        <time>2025-09-28T07:56:21Z</time>
      </trkpt>
      <trkpt lat="45.66743" lon="2.9825">
        <ele>861</ele>
        <time>2025-09-28T07:56:22Z</time>
      </trkpt>
      <trkpt lat="45.66743" lon="2.98258">
        <ele>861</ele>
        <time>2025-09-28T07:56:23Z</time>
      </trkpt>
      <trkpt lat="45.66743" lon="2.98265">
        <ele>860.8</ele>
        <time>2025-09-28T07:56:24Z</time>
      </trkpt>
      <trkpt lat="45.66743" lon="2.98273">
        <ele>860.8</ele>
        <time>2025-09-28T07:56:25Z</time>
      </trkpt>
      <trkpt lat="45.66742" lon="2.9828">
        <ele>860.6</ele>
        <time>2025-09-28T07:56:26Z</time>
      </trkpt>
      <trkpt lat="45.66742" lon="2.98288">
        <ele>860.6</ele>
        <time>2025-09-28T07:56:27Z</time>
      </trkpt>
      <trkpt lat="45.66741" lon="2.98295">
        <ele>860.6</ele>
        <time>2025-09-28T07:56:28Z</time>
      </trkpt>
      <trkpt lat="45.66741" lon="2.98302">
        <ele>860.6</ele>
        <time>2025-09-28T07:56:29Z</time>
      </trkpt>
      <trkpt lat="45.66742" lon="2.9831">
        <ele>860.4</ele>
        <time>2025-09-28T07:56:30Z</time>
      </trkpt>
      <trkpt lat="45.66742" lon="2.98316">
        <ele>860.4</ele>
        <time>2025-09-28T07:56:31Z</time>
      </trkpt>
      <trkpt lat="45.66744" lon="2.98323">
        <ele>860.2</ele>
        <time>2025-09-28T07:56:32Z</time>
      </trkpt>
      <trkpt lat="45.66745" lon="2.98329">
        <ele>860.2</ele>
        <time>2025-09-28T07:56:33Z</time>
      </trkpt>
      <trkpt lat="45.66747" lon="2.98336">
        <ele>860</ele>
        <time>2025-09-28T07:56:34Z</time>
      </trkpt>
      <trkpt lat="45.66749" lon="2.98343">
        <ele>860</ele>
        <time>2025-09-28T07:56:35Z</time>
      </trkpt>
      <trkpt lat="45.66751" lon="2.98349">
        <ele>859.8</ele>
        <time>2025-09-28T07:56:36Z</time>
      </trkpt>
      <trkpt lat="45.66753" lon="2.98356">
        <ele>859.6</ele>
        <time>2025-09-28T07:56:37Z</time>
      </trkpt>
      <trkpt lat="45.66755" lon="2.98363">
        <ele>859.6</ele>
        <time>2025-09-28T07:56:38Z</time>
      </trkpt>
      <trkpt lat="45.66758" lon="2.98371">
        <ele>859.2</ele>
        <time>2025-09-28T07:56:39Z</time>
      </trkpt>
      <trkpt lat="45.6676" lon="2.98379">
        <ele>859</ele>
        <time>2025-09-28T07:56:40Z</time>
      </trkpt>
      <trkpt lat="45.66762" lon="2.98387">
        <ele>858.8</ele>
        <time>2025-09-28T07:56:41Z</time>
      </trkpt>
      <trkpt lat="45.66764" lon="2.98396">
        <ele>858.6</ele>
        <time>2025-09-28T07:56:42Z</time>
      </trkpt>
      <trkpt lat="45.66767" lon="2.98404">
        <ele>858.4</ele>
        <time>2025-09-28T07:56:43Z</time>
      </trkpt>
      <trkpt lat="45.6677" lon="2.98412">
        <ele>858.2</ele>
        <time>2025-09-28T07:56:44Z</time>
      </trkpt>
      <trkpt lat="45.66773" lon="2.9842">
        <ele>858</ele>
        <time>2025-09-28T07:56:45Z</time>
      </trkpt>
      <trkpt lat="45.66776" lon="2.98428">
        <ele>857.6</ele>
        <time>2025-09-28T07:56:46Z</time>
      </trkpt>
      <trkpt lat="45.6678" lon="2.98436">
        <ele>857.4</ele>
        <time>2025-09-28T07:56:47Z</time>
      </trkpt>
      <trkpt lat="45.66785" lon="2.98444">
        <ele>857.2</ele>
        <time>2025-09-28T07:56:48Z</time>
      </trkpt>
      <trkpt lat="45.66789" lon="2.98452">
        <ele>856.8</ele>
        <time>2025-09-28T07:56:49Z</time>
      </trkpt>
      <trkpt lat="45.66794" lon="2.98459">
        <ele>856.4</ele>
        <time>2025-09-28T07:56:50Z</time>
      </trkpt>
      <trkpt lat="45.66799" lon="2.98467">
        <ele>856</ele>
        <time>2025-09-28T07:56:51Z</time>
      </trkpt>
      <trkpt lat="45.66804" lon="2.98475">
        <ele>855.8</ele>
        <time>2025-09-28T07:56:52Z</time>
      </trkpt>
      <trkpt lat="45.6681" lon="2.98482">
        <ele>855.4</ele>
        <time>2025-09-28T07:56:53Z</time>
      </trkpt>
      <trkpt lat="45.66815" lon="2.98489">
        <ele>855</ele>
        <time>2025-09-28T07:56:54Z</time>
      </trkpt>
      <trkpt lat="45.66821" lon="2.98497">
        <ele>854.6</ele>
        <time>2025-09-28T07:56:55Z</time>
      </trkpt>
      <trkpt lat="45.66827" lon="2.98505">
        <ele>854.2</ele>
        <time>2025-09-28T07:56:56Z</time>
      </trkpt>
      <trkpt lat="45.66833" lon="2.98513">
        <ele>853.8</ele>
        <time>2025-09-28T07:56:57Z</time>
      </trkpt>
      <trkpt lat="45.66839" lon="2.98521">
        <ele>853.2</ele>
        <time>2025-09-28T07:56:58Z</time>
      </trkpt>
      <trkpt lat="45.66845" lon="2.98529">
        <ele>852.8</ele>
        <time>2025-09-28T07:56:59Z</time>
      </trkpt>
      <trkpt lat="45.66851" lon="2.98536">
        <ele>852.4</ele>
        <time>2025-09-28T07:57:00Z</time>
      </trkpt>
      <trkpt lat="45.66858" lon="2.98544">
        <ele>851.8</ele>
        <time>2025-09-28T07:57:01Z</time>
      </trkpt>
      <trkpt lat="45.66864" lon="2.98552">
        <ele>851.6</ele>
        <time>2025-09-28T07:57:02Z</time>
      </trkpt>
      <trkpt lat="45.66871" lon="2.98561">
        <ele>851.2</ele>
        <time>2025-09-28T07:57:03Z</time>
      </trkpt>
      <trkpt lat="45.66877" lon="2.98569">
        <ele>850.8</ele>
        <time>2025-09-28T07:57:04Z</time>
      </trkpt>
      <trkpt lat="45.66882" lon="2.98577">
        <ele>850.6</ele>
        <time>2025-09-28T07:57:05Z</time>
      </trkpt>
      <trkpt lat="45.66888" lon="2.98586">
        <ele>850.4</ele>
        <time>2025-09-28T07:57:06Z</time>
      </trkpt>
      <trkpt lat="45.66893" lon="2.98594">
        <ele>850.2</ele>
        <time>2025-09-28T07:57:07Z</time>
      </trkpt>
      <trkpt lat="45.66899" lon="2.98603">
        <ele>850</ele>
        <time>2025-09-28T07:57:08Z</time>
      </trkpt>
      <trkpt lat="45.66904" lon="2.98611">
        <ele>849.6</ele>
        <time>2025-09-28T07:57:09Z</time>
      </trkpt>
      <trkpt lat="45.6691" lon="2.9862">
        <ele>849.4</ele>
        <time>2025-09-28T07:57:10Z</time>
      </trkpt>
      <trkpt lat="45.66915" lon="2.98628">
        <ele>849.2</ele>
        <time>2025-09-28T07:57:11Z</time>
      </trkpt>
      <trkpt lat="45.6692" lon="2.98636">
        <ele>849</ele>
        <time>2025-09-28T07:57:12Z</time>
      </trkpt>
      <trkpt lat="45.66924" lon="2.98645">
        <ele>848.8</ele>
        <time>2025-09-28T07:57:13Z</time>
      </trkpt>
      <trkpt lat="45.66929" lon="2.98653">
        <ele>848.8</ele>
        <time>2025-09-28T07:57:14Z</time>
      </trkpt>
      <trkpt lat="45.66934" lon="2.9866">
        <ele>848.8</ele>
        <time>2025-09-28T07:57:15Z</time>
      </trkpt>
      <trkpt lat="45.66939" lon="2.98668">
        <ele>848.6</ele>
        <time>2025-09-28T07:57:16Z</time>
      </trkpt>
      <trkpt lat="45.66944" lon="2.98676">
        <ele>848.6</ele>
        <time>2025-09-28T07:57:17Z</time>
      </trkpt>
      <trkpt lat="45.66949" lon="2.98683">
        <ele>848.6</ele>
        <time>2025-09-28T07:57:18Z</time>
      </trkpt>
      <trkpt lat="45.66953" lon="2.98691">
        <ele>848.4</ele>
        <time>2025-09-28T07:57:19Z</time>
      </trkpt>
      <trkpt lat="45.66958" lon="2.98698">
        <ele>848.4</ele>
        <time>2025-09-28T07:57:20Z</time>
      </trkpt>
      <trkpt lat="45.66963" lon="2.98706">
        <ele>848.2</ele>
        <time>2025-09-28T07:57:21Z</time>
      </trkpt>
      <trkpt lat="45.66967" lon="2.98713">
        <ele>848</ele>
        <time>2025-09-28T07:57:22Z</time>
      </trkpt>
      <trkpt lat="45.66972" lon="2.9872">
        <ele>847.8</ele>
        <time>2025-09-28T07:57:23Z</time>
      </trkpt>
      <trkpt lat="45.66976" lon="2.98728">
        <ele>847.8</ele>
        <time>2025-09-28T07:57:24Z</time>
      </trkpt>
      <trkpt lat="45.6698" lon="2.98735">
        <ele>847.6</ele>
        <time>2025-09-28T07:57:25Z</time>
      </trkpt>
      <trkpt lat="45.66984" lon="2.98742">
        <ele>847.4</ele>
        <time>2025-09-28T07:57:26Z</time>
      </trkpt>
      <trkpt lat="45.66988" lon="2.9875">
        <ele>847.2</ele>
        <time>2025-09-28T07:57:27Z</time>
      </trkpt>
      <trkpt lat="45.66992" lon="2.98758">
        <ele>847</ele>
        <time>2025-09-28T07:57:28Z</time>
      </trkpt>
      <trkpt lat="45.66996" lon="2.98765">
        <ele>846.8</ele>
        <time>2025-09-28T07:57:29Z</time>
      </trkpt>
      <trkpt lat="45.67" lon="2.98773">
        <ele>846.6</ele>
        <time>2025-09-28T07:57:30Z</time>
      </trkpt>
      <trkpt lat="45.67003" lon="2.98781">
        <ele>846.4</ele>
        <time>2025-09-28T07:57:31Z</time>
      </trkpt>
      <trkpt lat="45.67006" lon="2.98789">
        <ele>846.4</ele>
        <time>2025-09-28T07:57:32Z</time>
      </trkpt>
      <trkpt lat="45.67009" lon="2.98798">
        <ele>846.2</ele>
        <time>2025-09-28T07:57:33Z</time>
      </trkpt>
      <trkpt lat="45.67011" lon="2.98806">
        <ele>846</ele>
        <time>2025-09-28T07:57:34Z</time>
      </trkpt>
      <trkpt lat="45.67012" lon="2.98815">
        <ele>845.8</ele>
        <time>2025-09-28T07:57:35Z</time>
      </trkpt>
      <trkpt lat="45.67012" lon="2.98823">
        <ele>845.8</ele>
        <time>2025-09-28T07:57:36Z</time>
      </trkpt>
      <trkpt lat="45.67012" lon="2.98832">
        <ele>845.6</ele>
        <time>2025-09-28T07:57:37Z</time>
      </trkpt>
      <trkpt lat="45.67011" lon="2.98839">
        <ele>845.6</ele>
        <time>2025-09-28T07:57:38Z</time>
      </trkpt>
      <trkpt lat="45.6701" lon="2.98848">
        <ele>845.6</ele>
        <time>2025-09-28T07:57:39Z</time>
      </trkpt>
      <trkpt lat="45.67008" lon="2.98858">
        <ele>845.4</ele>
        <time>2025-09-28T07:57:40Z</time>
      </trkpt>
      <trkpt lat="45.67005" lon="2.98867">
        <ele>845.4</ele>
        <time>2025-09-28T07:57:41Z</time>
      </trkpt>
      <trkpt lat="45.67001" lon="2.98875">
        <ele>845.4</ele>
        <time>2025-09-28T07:57:42Z</time>
      </trkpt>
      <trkpt lat="45.66996" lon="2.98883">
        <ele>845.4</ele>
        <time>2025-09-28T07:57:43Z</time>
      </trkpt>
      <trkpt lat="45.66991" lon="2.98889">
        <ele>845.6</ele>
        <time>2025-09-28T07:57:44Z</time>
      </trkpt>
      <trkpt lat="45.66986" lon="2.98895">
        <ele>845.6</ele>
        <time>2025-09-28T07:57:45Z</time>
      </trkpt>
      <trkpt lat="45.66982" lon="2.98901">
        <ele>845.8</ele>
        <time>2025-09-28T07:57:46Z</time>
      </trkpt>
      <trkpt lat="45.66979" lon="2.98906">
        <ele>845.8</ele>
        <time>2025-09-28T07:57:47Z</time>
      </trkpt>
      <trkpt lat="45.66976" lon="2.98911">
        <ele>846</ele>
        <time>2025-09-28T07:57:48Z</time>
      </trkpt>
      <trkpt lat="45.66973" lon="2.98915">
        <ele>846.2</ele>
        <time>2025-09-28T07:57:49Z</time>
      </trkpt>
      <trkpt lat="45.6697" lon="2.98917">
        <ele>846.4</ele>
        <time>2025-09-28T07:57:50Z</time>
      </trkpt>
      <trkpt lat="45.66968" lon="2.98918">
        <ele>846.6</ele>
        <time>2025-09-28T07:57:51Z</time>
      </trkpt>
      <trkpt lat="45.66966" lon="2.98919">
        <ele>846.6</ele>
        <time>2025-09-28T07:57:52Z</time>
      </trkpt>
      <trkpt lat="45.66963" lon="2.98919">
        <ele>846.8</ele>
        <time>2025-09-28T07:57:53Z</time>
      </trkpt>
      <trkpt lat="45.66961" lon="2.98919">
        <ele>846.8</ele>
        <time>2025-09-28T07:57:54Z</time>
      </trkpt>
      <trkpt lat="45.66959" lon="2.98918">
        <ele>846.8</ele>
        <time>2025-09-28T07:57:55Z</time>
      </trkpt>
      <trkpt lat="45.66958" lon="2.98917">
        <ele>846.8</ele>
        <time>2025-09-28T07:57:56Z</time>
      </trkpt>
      <trkpt lat="45.66957" lon="2.98917">
        <ele>846.8</ele>
        <time>2025-09-28T07:57:57Z</time>
      </trkpt>
      <trkpt lat="45.66957" lon="2.98917">
        <ele>847</ele>
        <time>2025-09-28T07:57:58Z</time>
      </trkpt>
      <trkpt lat="45.66957" lon="2.98916">
        <ele>847</ele>
        <time>2025-09-28T07:57:59Z</time>
      </trkpt>
      <trkpt lat="45.66957" lon="2.98915">
        <ele>847</ele>
        <time>2025-09-28T07:58:00Z</time>
      </trkpt>
      <trkpt lat="45.66955" lon="2.98915">
        <ele>847</ele>
        <time>2025-09-28T07:58:03Z</time>
      </trkpt>
      <trkpt lat="45.66954" lon="2.98914">
        <ele>847</ele>
        <time>2025-09-28T07:58:04Z</time>
      </trkpt>
      <trkpt lat="45.66952" lon="2.98913">
        <ele>847.2</ele>
        <time>2025-09-28T07:58:05Z</time>
      </trkpt>
      <trkpt lat="45.6695" lon="2.98912">
        <ele>847.2</ele>
        <time>2025-09-28T07:58:06Z</time>
      </trkpt>
      <trkpt lat="45.6695" lon="2.98912">
        <ele>847.2</ele>
        <time>2025-09-28T07:58:07Z</time>
      </trkpt>
      <trkpt lat="45.6695" lon="2.98912">
        <ele>847.2</ele>
        <time>2025-09-28T07:58:08Z</time>
      </trkpt>
      <trkpt lat="45.6695" lon="2.98912">
        <ele>847.2</ele>
        <time>2025-09-28T07:58:09Z</time>
      </trkpt>
      <trkpt lat="45.6695" lon="2.98912">
        <ele>847.4</ele>
        <time>2025-09-28T07:58:10Z</time>
      </trkpt>
      <trkpt lat="45.66946" lon="2.98913">
        <ele>847.6</ele>
        <time>2025-09-28T07:58:14Z</time>
      </trkpt>
      <trkpt lat="45.66944" lon="2.98914">
        <ele>847.6</ele>
        <time>2025-09-28T07:58:15Z</time>
      </trkpt>
      <trkpt lat="45.66942" lon="2.98916">
        <ele>847.6</ele>
        <time>2025-09-28T07:58:16Z</time>
      </trkpt>
      <trkpt lat="45.66941" lon="2.98917">
        <ele>847.6</ele>
        <time>2025-09-28T07:58:17Z</time>
      </trkpt>
      <trkpt lat="45.66941" lon="2.98918">
        <ele>847.6</ele>
        <time>2025-09-28T07:58:18Z</time>
      </trkpt>
      <trkpt lat="45.66941" lon="2.98918">
        <ele>847.6</ele>
        <time>2025-09-28T07:58:19Z</time>
      </trkpt>
      <trkpt lat="45.66941" lon="2.98918">
        <ele>847.6</ele>
        <time>2025-09-28T07:58:20Z</time>
      </trkpt>
      <trkpt lat="45.66941" lon="2.98918">
        <ele>847.4</ele>
        <time>2025-09-28T07:58:21Z</time>
      </trkpt>
      <trkpt lat="45.66935" lon="2.98929">
        <ele>847.2</ele>
        <time>2025-09-28T08:07:02Z</time>
      </trkpt>
      <trkpt lat="45.66935" lon="2.9893">
        <ele>847.2</ele>
        <time>2025-09-28T08:07:03Z</time>
      </trkpt>
      <trkpt lat="45.66934" lon="2.98932">
        <ele>847.2</ele>
        <time>2025-09-28T08:07:04Z</time>
      </trkpt>
      <trkpt lat="45.66934" lon="2.98935">
        <ele>847.2</ele>
        <time>2025-09-28T08:07:05Z</time>
      </trkpt>
      <trkpt lat="45.66933" lon="2.98938">
        <ele>847.4</ele>
        <time>2025-09-28T08:07:06Z</time>
      </trkpt>
      <trkpt lat="45.66933" lon="2.9894">
        <ele>847.6</ele>
        <time>2025-09-28T08:07:07Z</time>
      </trkpt>
      <trkpt lat="45.66933" lon="2.98942">
        <ele>847.8</ele>
        <time>2025-09-28T08:07:08Z</time>
      </trkpt>
      <trkpt lat="45.66933" lon="2.98944">
        <ele>848</ele>
        <time>2025-09-28T08:07:09Z</time>
      </trkpt>
      <trkpt lat="45.66932" lon="2.98945">
        <ele>848.2</ele>
        <time>2025-09-28T08:07:10Z</time>
      </trkpt>
      <trkpt lat="45.66932" lon="2.98946">
        <ele>848.2</ele>
        <time>2025-09-28T08:07:11Z</time>
      </trkpt>
      <trkpt lat="45.66931" lon="2.98947">
        <ele>848.4</ele>
        <time>2025-09-28T08:07:12Z</time>
      </trkpt>
      <trkpt lat="45.66931" lon="2.98949">
        <ele>848.4</ele>
        <time>2025-09-28T08:07:13Z</time>
      </trkpt>
      <trkpt lat="45.66931" lon="2.98952">
        <ele>848.6</ele>
        <time>2025-09-28T08:07:14Z</time>
      </trkpt>
      <trkpt lat="45.66931" lon="2.98954">
        <ele>848.8</ele>
        <time>2025-09-28T08:07:15Z</time>
      </trkpt>
      <trkpt lat="45.6693" lon="2.98955">
        <ele>848.8</ele>
        <time>2025-09-28T08:07:16Z</time>
      </trkpt>
      <trkpt lat="45.6693" lon="2.98955">
        <ele>849</ele>
        <time>2025-09-28T08:07:17Z</time>
      </trkpt>
      <trkpt lat="45.6693" lon="2.98955">
        <ele>849</ele>
        <time>2025-09-28T08:07:18Z</time>
      </trkpt>
      <trkpt lat="45.6693" lon="2.98957">
        <ele>849</ele>
        <time>2025-09-28T08:07:19Z</time>
      </trkpt>
      <trkpt lat="45.6693" lon="2.9896">
        <ele>848.8</ele>
        <time>2025-09-28T08:07:20Z</time>
      </trkpt>
      <trkpt lat="45.66932" lon="2.98963">
        <ele>848.8</ele>
        <time>2025-09-28T08:07:21Z</time>
      </trkpt>
      <trkpt lat="45.66934" lon="2.98965">
        <ele>848.6</ele>
        <time>2025-09-28T08:07:22Z</time>
      </trkpt>
      <trkpt lat="45.66936" lon="2.98966">
        <ele>848.6</ele>
        <time>2025-09-28T08:07:23Z</time>
      </trkpt>
      <trkpt lat="45.66938" lon="2.98967">
        <ele>848.6</ele>
        <time>2025-09-28T08:07:24Z</time>
      </trkpt>
      <trkpt lat="45.66941" lon="2.98969">
        <ele>848.6</ele>
        <time>2025-09-28T08:07:25Z</time>
      </trkpt>
      <trkpt lat="45.66944" lon="2.98971">
        <ele>848.6</ele>
        <time>2025-09-28T08:07:26Z</time>
      </trkpt>
      <trkpt lat="45.66946" lon="2.98973">
        <ele>848.6</ele>
        <time>2025-09-28T08:07:27Z</time>
      </trkpt>
      <trkpt lat="45.66948" lon="2.98975">
        <ele>848.8</ele>
        <time>2025-09-28T08:07:28Z</time>
      </trkpt>
      <trkpt lat="45.6695" lon="2.98977">
        <ele>849</ele>
        <time>2025-09-28T08:07:29Z</time>
      </trkpt>
      <trkpt lat="45.66953" lon="2.9898">
        <ele>849.2</ele>
        <time>2025-09-28T08:07:30Z</time>
      </trkpt>
      <trkpt lat="45.66956" lon="2.98981">
        <ele>849.4</ele>
        <time>2025-09-28T08:07:31Z</time>
      </trkpt>
      <trkpt lat="45.66958" lon="2.98983">
        <ele>849.6</ele>
        <time>2025-09-28T08:07:32Z</time>
      </trkpt>
      <trkpt lat="45.6696" lon="2.98984">
        <ele>850</ele>
        <time>2025-09-28T08:07:33Z</time>
      </trkpt>
      <trkpt lat="45.66962" lon="2.98986">
        <ele>850.2</ele>
        <time>2025-09-28T08:07:34Z</time>
      </trkpt>
      <trkpt lat="45.66964" lon="2.98987">
        <ele>850.4</ele>
        <time>2025-09-28T08:07:35Z</time>
      </trkpt>
      <trkpt lat="45.66965" lon="2.98987">
        <ele>850.6</ele>
        <time>2025-09-28T08:07:36Z</time>
      </trkpt>
      <trkpt lat="45.66965" lon="2.98987">
        <ele>850.8</ele>
        <time>2025-09-28T08:07:37Z</time>
      </trkpt>
      <trkpt lat="45.66966" lon="2.98989">
        <ele>850.8</ele>
        <time>2025-09-28T08:07:38Z</time>
      </trkpt>
      <trkpt lat="45.66967" lon="2.9899">
        <ele>851</ele>
        <time>2025-09-28T08:07:39Z</time>
      </trkpt>
      <trkpt lat="45.66968" lon="2.98992">
        <ele>851</ele>
        <time>2025-09-28T08:07:40Z</time>
      </trkpt>
      <trkpt lat="45.66969" lon="2.98994">
        <ele>851</ele>
        <time>2025-09-28T08:07:41Z</time>
      </trkpt>
      <trkpt lat="45.66971" lon="2.98996">
        <ele>851.2</ele>
        <time>2025-09-28T08:07:42Z</time>
      </trkpt>
      <trkpt lat="45.66974" lon="2.98998">
        <ele>851.2</ele>
        <time>2025-09-28T08:07:43Z</time>
      </trkpt>
      <trkpt lat="45.66976" lon="2.99001">
        <ele>851.4</ele>
        <time>2025-09-28T08:07:44Z</time>
      </trkpt>
      <trkpt lat="45.66978" lon="2.99004">
        <ele>851.4</ele>
        <time>2025-09-28T08:07:45Z</time>
      </trkpt>
      <trkpt lat="45.6698" lon="2.99007">
        <ele>851.6</ele>
        <time>2025-09-28T08:07:46Z</time>
      </trkpt>
      <trkpt lat="45.66982" lon="2.99009">
        <ele>851.6</ele>
        <time>2025-09-28T08:07:47Z</time>
      </trkpt>
      <trkpt lat="45.66984" lon="2.9901">
        <ele>851.8</ele>
        <time>2025-09-28T08:07:48Z</time>
      </trkpt>
      <trkpt lat="45.66986" lon="2.99011">
        <ele>852</ele>
        <time>2025-09-28T08:07:49Z</time>
      </trkpt>
      <trkpt lat="45.66988" lon="2.99012">
        <ele>852</ele>
        <time>2025-09-28T08:07:50Z</time>
      </trkpt>
      <trkpt lat="45.6699" lon="2.99013">
        <ele>852.2</ele>
        <time>2025-09-28T08:07:51Z</time>
      </trkpt>
      <trkpt lat="45.66991" lon="2.99014">
        <ele>852.6</ele>
        <time>2025-09-28T08:07:52Z</time>
      </trkpt>
      <trkpt lat="45.66994" lon="2.99016">
        <ele>852.8</ele>
        <time>2025-09-28T08:07:53Z</time>
      </trkpt>
      <trkpt lat="45.66998" lon="2.99018">
        <ele>853.2</ele>
        <time>2025-09-28T08:07:54Z</time>
      </trkpt>
      <trkpt lat="45.67002" lon="2.99019">
        <ele>853.6</ele>
        <time>2025-09-28T08:07:55Z</time>
      </trkpt>
      <trkpt lat="45.67005" lon="2.9902">
        <ele>853.8</ele>
        <time>2025-09-28T08:07:56Z</time>
      </trkpt>
      <trkpt lat="45.67008" lon="2.99019">
        <ele>854.2</ele>
        <time>2025-09-28T08:07:57Z</time>
      </trkpt>
      <trkpt lat="45.6701" lon="2.9902">
        <ele>854.4</ele>
        <time>2025-09-28T08:07:58Z</time>
      </trkpt>
      <trkpt lat="45.67011" lon="2.9902">
        <ele>854.8</ele>
        <time>2025-09-28T08:07:59Z</time>
      </trkpt>
      <trkpt lat="45.67013" lon="2.99021">
        <ele>855</ele>
        <time>2025-09-28T08:08:00Z</time>
      </trkpt>
      <trkpt lat="45.67015" lon="2.99022">
        <ele>855</ele>
        <time>2025-09-28T08:08:01Z</time>
      </trkpt>
      <trkpt lat="45.67018" lon="2.99023">
        <ele>855</ele>
        <time>2025-09-28T08:08:02Z</time>
      </trkpt>
      <trkpt lat="45.67021" lon="2.99023">
        <ele>855.2</ele>
        <time>2025-09-28T08:08:03Z</time>
      </trkpt>
      <trkpt lat="45.67024" lon="2.99023">
        <ele>855.2</ele>
        <time>2025-09-28T08:08:04Z</time>
      </trkpt>
      <trkpt lat="45.67026" lon="2.99023">
        <ele>855.2</ele>
        <time>2025-09-28T08:08:05Z</time>
      </trkpt>
      <trkpt lat="45.67027" lon="2.99023">
        <ele>855.2</ele>
        <time>2025-09-28T08:08:06Z</time>
      </trkpt>
      <trkpt lat="45.67027" lon="2.99023">
        <ele>855.2</ele>
        <time>2025-09-28T08:08:07Z</time>
      </trkpt>
      <trkpt lat="45.67027" lon="2.99023">
        <ele>855.2</ele>
        <time>2025-09-28T08:08:08Z</time>
      </trkpt>
      <trkpt lat="45.67027" lon="2.99024">
        <ele>855.4</ele>
        <time>2025-09-28T08:08:09Z</time>
      </trkpt>
      <trkpt lat="45.67028" lon="2.99025">
        <ele>855.4</ele>
        <time>2025-09-28T08:08:10Z</time>
      </trkpt>
      <trkpt lat="45.6703" lon="2.99025">
        <ele>855.6</ele>
        <time>2025-09-28T08:08:11Z</time>
      </trkpt>
      <trkpt lat="45.67031" lon="2.99025">
        <ele>855.8</ele>
        <time>2025-09-28T08:08:12Z</time>
      </trkpt>
      <trkpt lat="45.67033" lon="2.99023">
        <ele>856</ele>
        <time>2025-09-28T08:08:13Z</time>
      </trkpt>
      <trkpt lat="45.67033" lon="2.9902">
        <ele>856</ele>
        <time>2025-09-28T08:08:14Z</time>
      </trkpt>
      <trkpt lat="45.67034" lon="2.99018">
        <ele>856</ele>
        <time>2025-09-28T08:08:15Z</time>
      </trkpt>
      <trkpt lat="45.67034" lon="2.99018">
        <ele>856</ele>
        <time>2025-09-28T08:08:16Z</time>
      </trkpt>
      <trkpt lat="45.67034" lon="2.99017">
        <ele>856.2</ele>
        <time>2025-09-28T08:08:17Z</time>
      </trkpt>
      <trkpt lat="45.67034" lon="2.99017">
        <ele>856.2</ele>
        <time>2025-09-28T08:08:18Z</time>
      </trkpt>
      <trkpt lat="45.67038" lon="2.99018">
        <ele>856.6</ele>
        <time>2025-09-28T08:08:23Z</time>
      </trkpt>
      <trkpt lat="45.67038" lon="2.99018">
        <ele>856.6</ele>
        <time>2025-09-28T08:08:24Z</time>
      </trkpt>
      <trkpt lat="45.67038" lon="2.99018">
        <ele>856.8</ele>
        <time>2025-09-28T08:08:25Z</time>
      </trkpt>
      <trkpt lat="45.67038" lon="2.99018">
        <ele>856.8</ele>
        <time>2025-09-28T08:08:26Z</time>
      </trkpt>
      <trkpt lat="45.67039" lon="2.99018">
        <ele>856.8</ele>
        <time>2025-09-28T08:08:27Z</time>
      </trkpt>
      <trkpt lat="45.67039" lon="2.99018">
        <ele>856.8</ele>
        <time>2025-09-28T08:08:28Z</time>
      </trkpt>
      <trkpt lat="45.67039" lon="2.99018">
        <ele>856.8</ele>
        <time>2025-09-28T08:08:29Z</time>
      </trkpt>
      <trkpt lat="45.67039" lon="2.99018">
        <ele>857</ele>
        <time>2025-09-28T08:08:30Z</time>
      </trkpt>
      <trkpt lat="45.6704" lon="2.99018">
        <ele>857</ele>
        <time>2025-09-28T08:08:31Z</time>
      </trkpt>
      <trkpt lat="45.67041" lon="2.99018">
        <ele>857</ele>
        <time>2025-09-28T08:08:32Z</time>
      </trkpt>
      <trkpt lat="45.67042" lon="2.99019">
        <ele>857</ele>
        <time>2025-09-28T08:08:33Z</time>
      </trkpt>
      <trkpt lat="45.67048" lon="2.99023">
        <ele>857.8</ele>
        <time>2025-09-28T08:09:09Z</time>
      </trkpt>
      <trkpt lat="45.67049" lon="2.99025">
        <ele>857.6</ele>
        <time>2025-09-28T08:09:10Z</time>
      </trkpt>
      <trkpt lat="45.67049" lon="2.99026">
        <ele>857.6</ele>
        <time>2025-09-28T08:09:11Z</time>
      </trkpt>
      <trkpt lat="45.67049" lon="2.99026">
        <ele>857.6</ele>
        <time>2025-09-28T08:09:12Z</time>
      </trkpt>
      <trkpt lat="45.67049" lon="2.99026">
        <ele>857.6</ele>
        <time>2025-09-28T08:09:13Z</time>
      </trkpt>
      <trkpt lat="45.67049" lon="2.99026">
        <ele>857.6</ele>
        <time>2025-09-28T08:09:14Z</time>
      </trkpt>
      <trkpt lat="45.67055" lon="2.99032">
        <ele>857.6</ele>
        <time>2025-09-28T08:09:35Z</time>
      </trkpt>
      <trkpt lat="45.67056" lon="2.99034">
        <ele>857.8</ele>
        <time>2025-09-28T08:09:36Z</time>
      </trkpt>
      <trkpt lat="45.67057" lon="2.99036">
        <ele>857.8</ele>
        <time>2025-09-28T08:09:37Z</time>
      </trkpt>
      <trkpt lat="45.67059" lon="2.99037">
        <ele>858</ele>
        <time>2025-09-28T08:09:38Z</time>
      </trkpt>
      <trkpt lat="45.67061" lon="2.99038">
        <ele>858</ele>
        <time>2025-09-28T08:09:39Z</time>
      </trkpt>
      <trkpt lat="45.67063" lon="2.9904">
        <ele>858.2</ele>
        <time>2025-09-28T08:09:40Z</time>
      </trkpt>
      <trkpt lat="45.67064" lon="2.99041">
        <ele>858.4</ele>
        <time>2025-09-28T08:09:41Z</time>
      </trkpt>
      <trkpt lat="45.67066" lon="2.99043">
        <ele>858.6</ele>
        <time>2025-09-28T08:09:42Z</time>
      </trkpt>
      <trkpt lat="45.67067" lon="2.99043">
        <ele>858.8</ele>
        <time>2025-09-28T08:09:43Z</time>
      </trkpt>
      <trkpt lat="45.67067" lon="2.99043">
        <ele>859</ele>
        <time>2025-09-28T08:09:44Z</time>
      </trkpt>
      <trkpt lat="45.67067" lon="2.99043">
        <ele>859.2</ele>
        <time>2025-09-28T08:09:45Z</time>
      </trkpt>
      <trkpt lat="45.67067" lon="2.99043">
        <ele>859.2</ele>
        <time>2025-09-28T08:09:46Z</time>
      </trkpt>
      <trkpt lat="45.67067" lon="2.99043">
        <ele>859.4</ele>
        <time>2025-09-28T08:09:47Z</time>
      </trkpt>
      <trkpt lat="45.67067" lon="2.99044">
        <ele>859.6</ele>
        <time>2025-09-28T08:09:48Z</time>
      </trkpt>
      <trkpt lat="45.67068" lon="2.99046">
        <ele>859.6</ele>
        <time>2025-09-28T08:09:49Z</time>
      </trkpt>
      <trkpt lat="45.6707" lon="2.99048">
        <ele>859.8</ele>
        <time>2025-09-28T08:09:50Z</time>
      </trkpt>
      <trkpt lat="45.67071" lon="2.99049">
        <ele>860</ele>
        <time>2025-09-28T08:09:51Z</time>
      </trkpt>
      <trkpt lat="45.67071" lon="2.99049">
        <ele>860</ele>
        <time>2025-09-28T08:09:52Z</time>
      </trkpt>
      <trkpt lat="45.67071" lon="2.99049">
        <ele>860.2</ele>
        <time>2025-09-28T08:09:53Z</time>
      </trkpt>
      <trkpt lat="45.67071" lon="2.99049">
        <ele>860.2</ele>
        <time>2025-09-28T08:09:54Z</time>
      </trkpt>
      <trkpt lat="45.67071" lon="2.99049">
        <ele>860.4</ele>
        <time>2025-09-28T08:09:55Z</time>
      </trkpt>
      <trkpt lat="45.67076" lon="2.99052">
        <ele>860.8</ele>
        <time>2025-09-28T08:10:08Z</time>
      </trkpt>
      <trkpt lat="45.67077" lon="2.99055">
        <ele>860.8</ele>
        <time>2025-09-28T08:10:09Z</time>
      </trkpt>
      <trkpt lat="45.67078" lon="2.99057">
        <ele>860.8</ele>
        <time>2025-09-28T08:10:10Z</time>
      </trkpt>
      <trkpt lat="45.67079" lon="2.99059">
        <ele>860.8</ele>
        <time>2025-09-28T08:10:11Z</time>
      </trkpt>
      <trkpt lat="45.67079" lon="2.9906">
        <ele>860.8</ele>
        <time>2025-09-28T08:10:12Z</time>
      </trkpt>
      <trkpt lat="45.67079" lon="2.99061">
        <ele>860.6</ele>
        <time>2025-09-28T08:10:13Z</time>
      </trkpt>
      <trkpt lat="45.67079" lon="2.99061">
        <ele>860.6</ele>
        <time>2025-09-28T08:10:14Z</time>
      </trkpt>
      <trkpt lat="45.6708" lon="2.99062">
        <ele>860.6</ele>
        <time>2025-09-28T08:10:15Z</time>
      </trkpt>
      <trkpt lat="45.67082" lon="2.99065">
        <ele>860.6</ele>
        <time>2025-09-28T08:10:16Z</time>
      </trkpt>
      <trkpt lat="45.67084" lon="2.99067">
        <ele>860.8</ele>
        <time>2025-09-28T08:10:17Z</time>
      </trkpt>
      <trkpt lat="45.67087" lon="2.9907">
        <ele>860.8</ele>
        <time>2025-09-28T08:10:18Z</time>
      </trkpt>
      <trkpt lat="45.67089" lon="2.99073">
        <ele>860.8</ele>
        <time>2025-09-28T08:10:19Z</time>
      </trkpt>
      <trkpt lat="45.67091" lon="2.99075">
        <ele>860.6</ele>
        <time>2025-09-28T08:10:20Z</time>
      </trkpt>
      <trkpt lat="45.67092" lon="2.99076">
        <ele>860.6</ele>
        <time>2025-09-28T08:10:21Z</time>
      </trkpt>
      <trkpt lat="45.67092" lon="2.99077">
        <ele>860.4</ele>
        <time>2025-09-28T08:10:22Z</time>
      </trkpt>
      <trkpt lat="45.67093" lon="2.99078">
        <ele>860.2</ele>
        <time>2025-09-28T08:10:23Z</time>
      </trkpt>
      <trkpt lat="45.67094" lon="2.99078">
        <ele>860.2</ele>
        <time>2025-09-28T08:10:24Z</time>
      </trkpt>
      <trkpt lat="45.67095" lon="2.9908">
        <ele>860.2</ele>
        <time>2025-09-28T08:10:25Z</time>
      </trkpt>
      <trkpt lat="45.67097" lon="2.99082">
        <ele>860.2</ele>
        <time>2025-09-28T08:10:26Z</time>
      </trkpt>
      <trkpt lat="45.67099" lon="2.99083">
        <ele>860.4</ele>
        <time>2025-09-28T08:10:27Z</time>
      </trkpt>
      <trkpt lat="45.671" lon="2.99085">
        <ele>860.6</ele>
        <time>2025-09-28T08:10:28Z</time>
      </trkpt>
      <trkpt lat="45.67101" lon="2.99087">
        <ele>860.8</ele>
        <time>2025-09-28T08:10:29Z</time>
      </trkpt>
      <trkpt lat="45.67102" lon="2.9909">
        <ele>861</ele>
        <time>2025-09-28T08:10:30Z</time>
      </trkpt>
      <trkpt lat="45.67104" lon="2.99093">
        <ele>861.4</ele>
        <time>2025-09-28T08:10:31Z</time>
      </trkpt>
      <trkpt lat="45.67107" lon="2.99098">
        <ele>861.6</ele>
        <time>2025-09-28T08:10:32Z</time>
      </trkpt>
      <trkpt lat="45.67109" lon="2.99101">
        <ele>861.6</ele>
        <time>2025-09-28T08:10:33Z</time>
      </trkpt>
      <trkpt lat="45.67111" lon="2.99104">
        <ele>861.6</ele>
        <time>2025-09-28T08:10:34Z</time>
      </trkpt>
      <trkpt lat="45.67113" lon="2.99105">
        <ele>861.6</ele>
        <time>2025-09-28T08:10:35Z</time>
      </trkpt>
      <trkpt lat="45.67115" lon="2.99108">
        <ele>861.6</ele>
        <time>2025-09-28T08:10:36Z</time>
      </trkpt>
      <trkpt lat="45.67116" lon="2.99109">
        <ele>861.6</ele>
        <time>2025-09-28T08:10:37Z</time>
      </trkpt>
      <trkpt lat="45.67117" lon="2.9911">
        <ele>861.6</ele>
        <time>2025-09-28T08:10:38Z</time>
      </trkpt>
      <trkpt lat="45.67118" lon="2.9911">
        <ele>861.6</ele>
        <time>2025-09-28T08:10:39Z</time>
      </trkpt>
      <trkpt lat="45.67119" lon="2.9911">
        <ele>861.8</ele>
        <time>2025-09-28T08:10:40Z</time>
      </trkpt>
      <trkpt lat="45.6712" lon="2.99109">
        <ele>861.8</ele>
        <time>2025-09-28T08:10:41Z</time>
      </trkpt>
      <trkpt lat="45.6712" lon="2.99109">
        <ele>861.8</ele>
        <time>2025-09-28T08:10:42Z</time>
      </trkpt>
      <trkpt lat="45.6712" lon="2.99109">
        <ele>861.8</ele>
        <time>2025-09-28T08:10:43Z</time>
      </trkpt>
      <trkpt lat="45.6712" lon="2.99109">
        <ele>861.8</ele>
        <time>2025-09-28T08:10:44Z</time>
      </trkpt>
      <trkpt lat="45.67121" lon="2.99108">
        <ele>862</ele>
        <time>2025-09-28T08:10:45Z</time>
      </trkpt>
      <trkpt lat="45.67121" lon="2.99108">
        <ele>862</ele>
        <time>2025-09-28T08:10:46Z</time>
      </trkpt>
      <trkpt lat="45.67121" lon="2.99108">
        <ele>862</ele>
        <time>2025-09-28T08:10:47Z</time>
      </trkpt>
      <trkpt lat="45.67124" lon="2.99107">
        <ele>861.8</ele>
        <time>2025-09-28T08:10:54Z</time>
      </trkpt>
      <trkpt lat="45.67127" lon="2.99108">
        <ele>861.6</ele>
        <time>2025-09-28T08:10:55Z</time>
      </trkpt>
      <trkpt lat="45.67129" lon="2.99109">
        <ele>861.4</ele>
        <time>2025-09-28T08:10:56Z</time>
      </trkpt>
      <trkpt lat="45.67131" lon="2.99111">
        <ele>861.2</ele>
        <time>2025-09-28T08:10:57Z</time>
      </trkpt>
      <trkpt lat="45.67133" lon="2.99113">
        <ele>861.2</ele>
        <time>2025-09-28T08:10:58Z</time>
      </trkpt>
      <trkpt lat="45.67135" lon="2.99114">
        <ele>861.2</ele>
        <time>2025-09-28T08:10:59Z</time>
      </trkpt>
      <trkpt lat="45.67137" lon="2.99116">
        <ele>861.2</ele>
        <time>2025-09-28T08:11:00Z</time>
      </trkpt>
      <trkpt lat="45.6714" lon="2.99117">
        <ele>861.4</ele>
        <time>2025-09-28T08:11:01Z</time>
      </trkpt>
      <trkpt lat="45.67142" lon="2.99118">
        <ele>861.4</ele>
        <time>2025-09-28T08:11:02Z</time>
      </trkpt>
      <trkpt lat="45.67144" lon="2.99119">
        <ele>861.4</ele>
        <time>2025-09-28T08:11:03Z</time>
      </trkpt>
      <trkpt lat="45.67145" lon="2.9912">
        <ele>861.4</ele>
        <time>2025-09-28T08:11:04Z</time>
      </trkpt>
      <trkpt lat="45.67146" lon="2.9912">
        <ele>861.2</ele>
        <time>2025-09-28T08:11:05Z</time>
      </trkpt>
      <trkpt lat="45.67147" lon="2.9912">
        <ele>861</ele>
        <time>2025-09-28T08:11:06Z</time>
      </trkpt>
      <trkpt lat="45.67147" lon="2.9912">
        <ele>860.8</ele>
        <time>2025-09-28T08:11:07Z</time>
      </trkpt>
      <trkpt lat="45.67148" lon="2.9912">
        <ele>860.4</ele>
        <time>2025-09-28T08:11:08Z</time>
      </trkpt>
      <trkpt lat="45.67149" lon="2.9912">
        <ele>859.8</ele>
        <time>2025-09-28T08:11:09Z</time>
      </trkpt>
      <trkpt lat="45.6715" lon="2.9912">
        <ele>859.2</ele>
        <time>2025-09-28T08:11:10Z</time>
      </trkpt>
      <trkpt lat="45.6715" lon="2.99122">
        <ele>858.6</ele>
        <time>2025-09-28T08:11:11Z</time>
      </trkpt>
      <trkpt lat="45.67151" lon="2.99125">
        <ele>858.2</ele>
        <time>2025-09-28T08:11:12Z</time>
      </trkpt>
      <trkpt lat="45.67151" lon="2.99126">
        <ele>857.8</ele>
        <time>2025-09-28T08:11:13Z</time>
      </trkpt>
      <trkpt lat="45.67151" lon="2.99127">
        <ele>857.6</ele>
        <time>2025-09-28T08:11:14Z</time>
      </trkpt>
      <trkpt lat="45.67152" lon="2.99128">
        <ele>857.4</ele>
        <time>2025-09-28T08:11:15Z</time>
      </trkpt>
      <trkpt lat="45.67155" lon="2.99129">
        <ele>857.2</ele>
        <time>2025-09-28T08:11:16Z</time>
      </trkpt>
      <trkpt lat="45.67157" lon="2.99128">
        <ele>857.2</ele>
        <time>2025-09-28T08:11:17Z</time>
      </trkpt>
      <trkpt lat="45.67159" lon="2.99127">
        <ele>857.2</ele>
        <time>2025-09-28T08:11:18Z</time>
      </trkpt>
      <trkpt lat="45.6716" lon="2.99126">
        <ele>857.4</ele>
        <time>2025-09-28T08:11:19Z</time>
      </trkpt>
      <trkpt lat="45.67161" lon="2.99126">
        <ele>857.6</ele>
        <time>2025-09-28T08:11:20Z</time>
      </trkpt>
      <trkpt lat="45.67161" lon="2.99126">
        <ele>857.6</ele>
        <time>2025-09-28T08:11:21Z</time>
      </trkpt>
      <trkpt lat="45.67162" lon="2.99127">
        <ele>857.8</ele>
        <time>2025-09-28T08:11:22Z</time>
      </trkpt>
      <trkpt lat="45.67162" lon="2.99128">
        <ele>857.8</ele>
        <time>2025-09-28T08:11:23Z</time>
      </trkpt>
      <trkpt lat="45.67162" lon="2.9913">
        <ele>858</ele>
        <time>2025-09-28T08:11:24Z</time>
      </trkpt>
      <trkpt lat="45.67162" lon="2.99131">
        <ele>858</ele>
        <time>2025-09-28T08:11:25Z</time>
      </trkpt>
      <trkpt lat="45.67162" lon="2.99132">
        <ele>857.8</ele>
        <time>2025-09-28T08:11:26Z</time>
      </trkpt>
      <trkpt lat="45.67162" lon="2.99132">
        <ele>857.8</ele>
        <time>2025-09-28T08:11:27Z</time>
      </trkpt>
      <trkpt lat="45.67163" lon="2.99132">
        <ele>857.6</ele>
        <time>2025-09-28T08:11:28Z</time>
      </trkpt>
      <trkpt lat="45.67164" lon="2.99134">
        <ele>857.6</ele>
        <time>2025-09-28T08:11:29Z</time>
      </trkpt>
      <trkpt lat="45.67166" lon="2.99137">
        <ele>857.4</ele>
        <time>2025-09-28T08:11:30Z</time>
      </trkpt>
      <trkpt lat="45.67167" lon="2.99139">
        <ele>857.2</ele>
        <time>2025-09-28T08:11:31Z</time>
      </trkpt>
      <trkpt lat="45.67167" lon="2.99139">
        <ele>857</ele>
        <time>2025-09-28T08:11:32Z</time>
      </trkpt>
      <trkpt lat="45.67167" lon="2.99139">
        <ele>857</ele>
        <time>2025-09-28T08:11:33Z</time>
      </trkpt>
      <trkpt lat="45.67167" lon="2.99139">
        <ele>857</ele>
        <time>2025-09-28T08:11:34Z</time>
      </trkpt>
      <trkpt lat="45.67168" lon="2.99139">
        <ele>856.8</ele>
        <time>2025-09-28T08:11:35Z</time>
      </trkpt>
      <trkpt lat="45.67169" lon="2.9914">
        <ele>856.6</ele>
        <time>2025-09-28T08:11:36Z</time>
      </trkpt>
      <trkpt lat="45.6717" lon="2.99141">
        <ele>856.6</ele>
        <time>2025-09-28T08:11:37Z</time>
      </trkpt>
      <trkpt lat="45.67171" lon="2.99143">
        <ele>856.4</ele>
        <time>2025-09-28T08:11:38Z</time>
      </trkpt>
      <trkpt lat="45.67173" lon="2.99146">
        <ele>856.4</ele>
        <time>2025-09-28T08:11:39Z</time>
      </trkpt>
      <trkpt lat="45.67175" lon="2.99148">
        <ele>856.4</ele>
        <time>2025-09-28T08:11:40Z</time>
      </trkpt>
      <trkpt lat="45.67175" lon="2.99148">
        <ele>856.4</ele>
        <time>2025-09-28T08:11:41Z</time>
      </trkpt>
      <trkpt lat="45.67177" lon="2.99149">
        <ele>856.4</ele>
        <time>2025-09-28T08:11:42Z</time>
      </trkpt>
      <trkpt lat="45.6718" lon="2.99151">
        <ele>856.4</ele>
        <time>2025-09-28T08:11:43Z</time>
      </trkpt>
      <trkpt lat="45.67183" lon="2.99152">
        <ele>856.4</ele>
        <time>2025-09-28T08:11:44Z</time>
      </trkpt>
      <trkpt lat="45.67186" lon="2.99153">
        <ele>856.4</ele>
        <time>2025-09-28T08:11:45Z</time>
      </trkpt>
      <trkpt lat="45.67188" lon="2.99153">
        <ele>856.4</ele>
        <time>2025-09-28T08:11:46Z</time>
      </trkpt>
      <trkpt lat="45.6719" lon="2.99152">
        <ele>856.6</ele>
        <time>2025-09-28T08:11:47Z</time>
      </trkpt>
      <trkpt lat="45.67192" lon="2.99151">
        <ele>856.6</ele>
        <time>2025-09-28T08:11:48Z</time>
      </trkpt>
      <trkpt lat="45.67194" lon="2.99151">
        <ele>856.6</ele>
        <time>2025-09-28T08:11:49Z</time>
      </trkpt>
      <trkpt lat="45.67195" lon="2.99152">
        <ele>856.6</ele>
        <time>2025-09-28T08:11:50Z</time>
      </trkpt>
      <trkpt lat="45.67197" lon="2.99154">
        <ele>856.6</ele>
        <time>2025-09-28T08:11:51Z</time>
      </trkpt>
      <trkpt lat="45.67199" lon="2.99157">
        <ele>856.6</ele>
        <time>2025-09-28T08:11:52Z</time>
      </trkpt>
      <trkpt lat="45.67202" lon="2.99161">
        <ele>856.6</ele>
        <time>2025-09-28T08:11:53Z</time>
      </trkpt>
      <trkpt lat="45.67204" lon="2.99166">
        <ele>856.6</ele>
        <time>2025-09-28T08:11:54Z</time>
      </trkpt>
      <trkpt lat="45.67207" lon="2.99171">
        <ele>856.4</ele>
        <time>2025-09-28T08:11:55Z</time>
      </trkpt>
      <trkpt lat="45.67211" lon="2.99177">
        <ele>856.4</ele>
        <time>2025-09-28T08:11:56Z</time>
      </trkpt>
      <trkpt lat="45.67215" lon="2.99182">
        <ele>856.2</ele>
        <time>2025-09-28T08:11:57Z</time>
      </trkpt>
      <trkpt lat="45.67219" lon="2.99187">
        <ele>856.2</ele>
        <time>2025-09-28T08:11:58Z</time>
      </trkpt>
      <trkpt lat="45.67223" lon="2.99192">
        <ele>856.2</ele>
        <time>2025-09-28T08:11:59Z</time>
      </trkpt>
      <trkpt lat="45.67226" lon="2.99196">
        <ele>856</ele>
        <time>2025-09-28T08:12:00Z</time>
      </trkpt>
      <trkpt lat="45.67229" lon="2.99201">
        <ele>856</ele>
        <time>2025-09-28T08:12:01Z</time>
      </trkpt>
      <trkpt lat="45.67231" lon="2.99207">
        <ele>856</ele>
        <time>2025-09-28T08:12:02Z</time>
      </trkpt>
      <trkpt lat="45.67234" lon="2.99213">
        <ele>855.8</ele>
        <time>2025-09-28T08:12:03Z</time>
      </trkpt>
      <trkpt lat="45.67238" lon="2.99219">
        <ele>855.8</ele>
        <time>2025-09-28T08:12:04Z</time>
      </trkpt>
      <trkpt lat="45.67241" lon="2.99225">
        <ele>855.8</ele>
        <time>2025-09-28T08:12:05Z</time>
      </trkpt>
      <trkpt lat="45.67243" lon="2.99231">
        <ele>855.8</ele>
        <time>2025-09-28T08:12:06Z</time>
      </trkpt>
      <trkpt lat="45.67246" lon="2.99238">
        <ele>856</ele>
        <time>2025-09-28T08:12:07Z</time>
      </trkpt>
      <trkpt lat="45.67249" lon="2.99244">
        <ele>856</ele>
        <time>2025-09-28T08:12:08Z</time>
      </trkpt>
      <trkpt lat="45.67252" lon="2.99247">
        <ele>856</ele>
        <time>2025-09-28T08:12:09Z</time>
      </trkpt>
      <trkpt lat="45.67255" lon="2.99248">
        <ele>856</ele>
        <time>2025-09-28T08:12:10Z</time>
      </trkpt>
      <trkpt lat="45.67256" lon="2.99252">
        <ele>856</ele>
        <time>2025-09-28T08:12:11Z</time>
      </trkpt>
      <trkpt lat="45.67257" lon="2.99256">
        <ele>856.2</ele>
        <time>2025-09-28T08:12:12Z</time>
      </trkpt>
      <trkpt lat="45.67259" lon="2.99261">
        <ele>856.2</ele>
        <time>2025-09-28T08:12:13Z</time>
      </trkpt>
      <trkpt lat="45.67261" lon="2.99266">
        <ele>856.2</ele>
        <time>2025-09-28T08:12:14Z</time>
      </trkpt>
      <trkpt lat="45.67264" lon="2.99271">
        <ele>856.2</ele>
        <time>2025-09-28T08:12:15Z</time>
      </trkpt>
      <trkpt lat="45.67268" lon="2.99276">
        <ele>856.4</ele>
        <time>2025-09-28T08:12:16Z</time>
      </trkpt>
      <trkpt lat="45.67272" lon="2.99281">
        <ele>856.4</ele>
        <time>2025-09-28T08:12:17Z</time>
      </trkpt>
      <trkpt lat="45.67276" lon="2.99286">
        <ele>856.4</ele>
        <time>2025-09-28T08:12:18Z</time>
      </trkpt>
      <trkpt lat="45.67279" lon="2.99291">
        <ele>856.4</ele>
        <time>2025-09-28T08:12:19Z</time>
      </trkpt>
      <trkpt lat="45.67282" lon="2.99296">
        <ele>856.4</ele>
        <time>2025-09-28T08:12:20Z</time>
      </trkpt>
      <trkpt lat="45.67284" lon="2.99299">
        <ele>856.4</ele>
        <time>2025-09-28T08:12:21Z</time>
      </trkpt>
      <trkpt lat="45.67286" lon="2.99303">
        <ele>856.2</ele>
        <time>2025-09-28T08:12:22Z</time>
      </trkpt>
      <trkpt lat="45.67286" lon="2.99308">
        <ele>856</ele>
        <time>2025-09-28T08:12:23Z</time>
      </trkpt>
      <trkpt lat="45.67286" lon="2.99314">
        <ele>855.8</ele>
        <time>2025-09-28T08:12:24Z</time>
      </trkpt>
      <trkpt lat="45.67285" lon="2.9932">
        <ele>855.6</ele>
        <time>2025-09-28T08:12:25Z</time>
      </trkpt>
      <trkpt lat="45.67284" lon="2.99326">
        <ele>855.6</ele>
        <time>2025-09-28T08:12:26Z</time>
      </trkpt>
      <trkpt lat="45.67285" lon="2.99333">
        <ele>855.6</ele>
        <time>2025-09-28T08:12:27Z</time>
      </trkpt>
      <trkpt lat="45.67287" lon="2.99338">
        <ele>855.6</ele>
        <time>2025-09-28T08:12:28Z</time>
      </trkpt>
      <trkpt lat="45.67288" lon="2.99342">
        <ele>855.8</ele>
        <time>2025-09-28T08:12:29Z</time>
      </trkpt>
      <trkpt lat="45.6729" lon="2.99344">
        <ele>855.8</ele>
        <time>2025-09-28T08:12:30Z</time>
      </trkpt>
      <trkpt lat="45.67293" lon="2.99345">
        <ele>855.8</ele>
        <time>2025-09-28T08:12:31Z</time>
      </trkpt>
      <trkpt lat="45.67296" lon="2.99347">
        <ele>855.8</ele>
        <time>2025-09-28T08:12:32Z</time>
      </trkpt>
      <trkpt lat="45.673" lon="2.99349">
        <ele>855.6</ele>
        <time>2025-09-28T08:12:33Z</time>
      </trkpt>
      <trkpt lat="45.67304" lon="2.99352">
        <ele>855.4</ele>
        <time>2025-09-28T08:12:34Z</time>
      </trkpt>
      <trkpt lat="45.67308" lon="2.99355">
        <ele>855.2</ele>
        <time>2025-09-28T08:12:35Z</time>
      </trkpt>
      <trkpt lat="45.67312" lon="2.99358">
        <ele>855</ele>
        <time>2025-09-28T08:12:36Z</time>
      </trkpt>
      <trkpt lat="45.67314" lon="2.99363">
        <ele>854.8</ele>
        <time>2025-09-28T08:12:37Z</time>
      </trkpt>
      <trkpt lat="45.67315" lon="2.99369">
        <ele>854.6</ele>
        <time>2025-09-28T08:12:38Z</time>
      </trkpt>
      <trkpt lat="45.67315" lon="2.99375">
        <ele>854.4</ele>
        <time>2025-09-28T08:12:39Z</time>
      </trkpt>
      <trkpt lat="45.67313" lon="2.99381">
        <ele>854</ele>
        <time>2025-09-28T08:12:40Z</time>
      </trkpt>
      <trkpt lat="45.67309" lon="2.99388">
        <ele>853.6</ele>
        <time>2025-09-28T08:12:41Z</time>
      </trkpt>
      <trkpt lat="45.67305" lon="2.99395">
        <ele>853.2</ele>
        <time>2025-09-28T08:12:42Z</time>
      </trkpt>
      <trkpt lat="45.67304" lon="2.99403">
        <ele>852.8</ele>
        <time>2025-09-28T08:12:43Z</time>
      </trkpt>
      <trkpt lat="45.67304" lon="2.99411">
        <ele>852.2</ele>
        <time>2025-09-28T08:12:44Z</time>
      </trkpt>
      <trkpt lat="45.67303" lon="2.99416">
        <ele>851.8</ele>
        <time>2025-09-28T08:12:45Z</time>
      </trkpt>
      <trkpt lat="45.673" lon="2.99418">
        <ele>851.4</ele>
        <time>2025-09-28T08:12:46Z</time>
      </trkpt>
      <trkpt lat="45.67296" lon="2.9942">
        <ele>851.2</ele>
        <time>2025-09-28T08:12:47Z</time>
      </trkpt>
      <trkpt lat="45.6729" lon="2.99421">
        <ele>850.8</ele>
        <time>2025-09-28T08:12:48Z</time>
      </trkpt>
      <trkpt lat="45.67282" lon="2.9942">
        <ele>850.6</ele>
        <time>2025-09-28T08:12:49Z</time>
      </trkpt>
      <trkpt lat="45.67277" lon="2.99418">
        <ele>850.6</ele>
        <time>2025-09-28T08:12:50Z</time>
      </trkpt>
      <trkpt lat="45.67273" lon="2.99414">
        <ele>850.4</ele>
        <time>2025-09-28T08:12:51Z</time>
      </trkpt>
      <trkpt lat="45.67269" lon="2.99411">
        <ele>850.4</ele>
        <time>2025-09-28T08:12:52Z</time>
      </trkpt>
      <trkpt lat="45.67266" lon="2.9941">
        <ele>850.4</ele>
        <time>2025-09-28T08:12:53Z</time>
      </trkpt>
      <trkpt lat="45.67264" lon="2.99409">
        <ele>850.4</ele>
        <time>2025-09-28T08:12:54Z</time>
      </trkpt>
      <trkpt lat="45.67259" lon="2.9941">
        <ele>850.6</ele>
        <time>2025-09-28T08:12:55Z</time>
      </trkpt>
      <trkpt lat="45.67254" lon="2.99413">
        <ele>850.6</ele>
        <time>2025-09-28T08:12:56Z</time>
      </trkpt>
      <trkpt lat="45.6725" lon="2.99416">
        <ele>850.8</ele>
        <time>2025-09-28T08:12:57Z</time>
      </trkpt>
      <trkpt lat="45.67246" lon="2.9942">
        <ele>850.8</ele>
        <time>2025-09-28T08:12:58Z</time>
      </trkpt>
      <trkpt lat="45.67242" lon="2.99427">
        <ele>851</ele>
        <time>2025-09-28T08:12:59Z</time>
      </trkpt>
      <trkpt lat="45.67238" lon="2.99435">
        <ele>851</ele>
        <time>2025-09-28T08:13:00Z</time>
      </trkpt>
      <trkpt lat="45.67235" lon="2.99443">
        <ele>851.2</ele>
        <time>2025-09-28T08:13:01Z</time>
      </trkpt>
      <trkpt lat="45.67233" lon="2.99449">
        <ele>851.4</ele>
        <time>2025-09-28T08:13:02Z</time>
      </trkpt>
      <trkpt lat="45.67231" lon="2.99454">
        <ele>851.4</ele>
        <time>2025-09-28T08:13:03Z</time>
      </trkpt>
      <trkpt lat="45.67227" lon="2.9946">
        <ele>851.6</ele>
        <time>2025-09-28T08:13:04Z</time>
      </trkpt>
      <trkpt lat="45.67223" lon="2.99467">
        <ele>851.6</ele>
        <time>2025-09-28T08:13:05Z</time>
      </trkpt>
      <trkpt lat="45.6722" lon="2.99472">
        <ele>851.6</ele>
        <time>2025-09-28T08:13:06Z</time>
      </trkpt>
      <trkpt lat="45.67215" lon="2.99476">
        <ele>851.6</ele>
        <time>2025-09-28T08:13:07Z</time>
      </trkpt>
      <trkpt lat="45.67211" lon="2.99479">
        <ele>851.6</ele>
        <time>2025-09-28T08:13:08Z</time>
      </trkpt>
      <trkpt lat="45.67207" lon="2.99481">
        <ele>851.4</ele>
        <time>2025-09-28T08:13:09Z</time>
      </trkpt>
      <trkpt lat="45.67205" lon="2.99483">
        <ele>851.4</ele>
        <time>2025-09-28T08:13:10Z</time>
      </trkpt>
      <trkpt lat="45.67204" lon="2.99484">
        <ele>851.2</ele>
        <time>2025-09-28T08:13:11Z</time>
      </trkpt>
      <trkpt lat="45.67204" lon="2.99484">
        <ele>851</ele>
        <time>2025-09-28T08:13:12Z</time>
      </trkpt>
      <trkpt lat="45.67203" lon="2.99484">
        <ele>850.8</ele>
        <time>2025-09-28T08:13:13Z</time>
      </trkpt>
      <trkpt lat="45.67202" lon="2.99487">
        <ele>850.6</ele>
        <time>2025-09-28T08:13:14Z</time>
      </trkpt>
      <trkpt lat="45.672" lon="2.99491">
        <ele>850.4</ele>
        <time>2025-09-28T08:13:15Z</time>
      </trkpt>
      <trkpt lat="45.67197" lon="2.99497">
        <ele>850</ele>
        <time>2025-09-28T08:13:16Z</time>
      </trkpt>
      <trkpt lat="45.67193" lon="2.99503">
        <ele>849.8</ele>
        <time>2025-09-28T08:13:17Z</time>
      </trkpt>
      <trkpt lat="45.6719" lon="2.9951">
        <ele>849.4</ele>
        <time>2025-09-28T08:13:18Z</time>
      </trkpt>
      <trkpt lat="45.67186" lon="2.99517">
        <ele>849.2</ele>
        <time>2025-09-28T08:13:19Z</time>
      </trkpt>
      <trkpt lat="45.67181" lon="2.99523">
        <ele>848.8</ele>
        <time>2025-09-28T08:13:20Z</time>
      </trkpt>
      <trkpt lat="45.67176" lon="2.99529">
        <ele>848.4</ele>
        <time>2025-09-28T08:13:21Z</time>
      </trkpt>
      <trkpt lat="45.67173" lon="2.99533">
        <ele>848.2</ele>
        <time>2025-09-28T08:13:22Z</time>
      </trkpt>
      <trkpt lat="45.6717" lon="2.99535">
        <ele>848</ele>
        <time>2025-09-28T08:13:23Z</time>
      </trkpt>
      <trkpt lat="45.67169" lon="2.99535">
        <ele>847.6</ele>
        <time>2025-09-28T08:13:24Z</time>
      </trkpt>
      <trkpt lat="45.67168" lon="2.99535">
        <ele>847.4</ele>
        <time>2025-09-28T08:13:25Z</time>
      </trkpt>
      <trkpt lat="45.67167" lon="2.99534">
        <ele>847</ele>
        <time>2025-09-28T08:13:26Z</time>
      </trkpt>
      <trkpt lat="45.67166" lon="2.99534">
        <ele>846.8</ele>
        <time>2025-09-28T08:13:27Z</time>
      </trkpt>
      <trkpt lat="45.67163" lon="2.99532">
        <ele>846.4</ele>
        <time>2025-09-28T08:13:28Z</time>
      </trkpt>
      <trkpt lat="45.67158" lon="2.99532">
        <ele>846.4</ele>
        <time>2025-09-28T08:13:29Z</time>
      </trkpt>
      <trkpt lat="45.6715" lon="2.99534">
        <ele>846.2</ele>
        <time>2025-09-28T08:13:30Z</time>
      </trkpt>
      <trkpt lat="45.67143" lon="2.99538">
        <ele>846.2</ele>
        <time>2025-09-28T08:13:31Z</time>
      </trkpt>
      <trkpt lat="45.67138" lon="2.9954">
        <ele>846.4</ele>
        <time>2025-09-28T08:13:32Z</time>
      </trkpt>
      <trkpt lat="45.67135" lon="2.99542">
        <ele>846.4</ele>
        <time>2025-09-28T08:13:33Z</time>
      </trkpt>
      <trkpt lat="45.67133" lon="2.99542">
        <ele>846.8</ele>
        <time>2025-09-28T08:13:34Z</time>
      </trkpt>
      <trkpt lat="45.67133" lon="2.9954">
        <ele>847.2</ele>
        <time>2025-09-28T08:13:35Z</time>
      </trkpt>
      <trkpt lat="45.67132" lon="2.99539">
        <ele>847.4</ele>
        <time>2025-09-28T08:13:36Z</time>
      </trkpt>
      <trkpt lat="45.6713" lon="2.99543">
        <ele>847.6</ele>
        <time>2025-09-28T08:13:37Z</time>
      </trkpt>
      <trkpt lat="45.67128" lon="2.99547">
        <ele>847.8</ele>
        <time>2025-09-28T08:13:38Z</time>
      </trkpt>
      <trkpt lat="45.67125" lon="2.99551">
        <ele>847.8</ele>
        <time>2025-09-28T08:13:39Z</time>
      </trkpt>
      <trkpt lat="45.67121" lon="2.99557">
        <ele>847.8</ele>
        <time>2025-09-28T08:13:40Z</time>
      </trkpt>
      <trkpt lat="45.67114" lon="2.99567">
        <ele>847.8</ele>
        <time>2025-09-28T08:13:41Z</time>
      </trkpt>
      <trkpt lat="45.67107" lon="2.99577">
        <ele>847.8</ele>
        <time>2025-09-28T08:13:42Z</time>
      </trkpt>
      <trkpt lat="45.67103" lon="2.99584">
        <ele>847.8</ele>
        <time>2025-09-28T08:13:43Z</time>
      </trkpt>
      <trkpt lat="45.67101" lon="2.9959">
        <ele>848</ele>
        <time>2025-09-28T08:13:44Z</time>
      </trkpt>
      <trkpt lat="45.67099" lon="2.99595">
        <ele>848</ele>
        <time>2025-09-28T08:13:45Z</time>
      </trkpt>
      <trkpt lat="45.67097" lon="2.99599">
        <ele>847.8</ele>
        <time>2025-09-28T08:13:46Z</time>
      </trkpt>
      <trkpt lat="45.67094" lon="2.99604">
        <ele>847.8</ele>
        <time>2025-09-28T08:13:47Z</time>
      </trkpt>
      <trkpt lat="45.67091" lon="2.99608">
        <ele>847.8</ele>
        <time>2025-09-28T08:13:48Z</time>
      </trkpt>
      <trkpt lat="45.67089" lon="2.99612">
        <ele>848</ele>
        <time>2025-09-28T08:13:49Z</time>
      </trkpt>
      <trkpt lat="45.67088" lon="2.99614">
        <ele>848</ele>
        <time>2025-09-28T08:13:50Z</time>
      </trkpt>
      <trkpt lat="45.67086" lon="2.99617">
        <ele>848</ele>
        <time>2025-09-28T08:13:51Z</time>
      </trkpt>
      <trkpt lat="45.67084" lon="2.99621">
        <ele>847.8</ele>
        <time>2025-09-28T08:13:52Z</time>
      </trkpt>
      <trkpt lat="45.6708" lon="2.99628">
        <ele>847.8</ele>
        <time>2025-09-28T08:13:53Z</time>
      </trkpt>
      <trkpt lat="45.67075" lon="2.99634">
        <ele>847.6</ele>
        <time>2025-09-28T08:13:54Z</time>
      </trkpt>
      <trkpt lat="45.67073" lon="2.99638">
        <ele>847.6</ele>
        <time>2025-09-28T08:13:55Z</time>
      </trkpt>
      <trkpt lat="45.67071" lon="2.99642">
        <ele>847.4</ele>
        <time>2025-09-28T08:13:56Z</time>
      </trkpt>
      <trkpt lat="45.6707" lon="2.99645">
        <ele>847.2</ele>
        <time>2025-09-28T08:13:57Z</time>
      </trkpt>
      <trkpt lat="45.67068" lon="2.99648">
        <ele>847</ele>
        <time>2025-09-28T08:13:58Z</time>
      </trkpt>
      <trkpt lat="45.67067" lon="2.99652">
        <ele>846.8</ele>
        <time>2025-09-28T08:13:59Z</time>
      </trkpt>
      <trkpt lat="45.67063" lon="2.99659">
        <ele>846.4</ele>
        <time>2025-09-28T08:14:00Z</time>
      </trkpt>
      <trkpt lat="45.67058" lon="2.99667">
        <ele>846</ele>
        <time>2025-09-28T08:14:01Z</time>
      </trkpt>
      <trkpt lat="45.67053" lon="2.99673">
        <ele>845.6</ele>
        <time>2025-09-28T08:14:02Z</time>
      </trkpt>
      <trkpt lat="45.6705" lon="2.99679">
        <ele>845.4</ele>
        <time>2025-09-28T08:14:03Z</time>
      </trkpt>
      <trkpt lat="45.67047" lon="2.99684">
        <ele>845</ele>
        <time>2025-09-28T08:14:04Z</time>
      </trkpt>
      <trkpt lat="45.67044" lon="2.9969">
        <ele>844.8</ele>
        <time>2025-09-28T08:14:05Z</time>
      </trkpt>
      <trkpt lat="45.6704" lon="2.99696">
        <ele>844.4</ele>
        <time>2025-09-28T08:14:06Z</time>
      </trkpt>
      <trkpt lat="45.67036" lon="2.99704">
        <ele>844.2</ele>
        <time>2025-09-28T08:14:07Z</time>
      </trkpt>
      <trkpt lat="45.67032" lon="2.9971">
        <ele>844</ele>
        <time>2025-09-28T08:14:08Z</time>
      </trkpt>
      <trkpt lat="45.67029" lon="2.99715">
        <ele>843.8</ele>
        <time>2025-09-28T08:14:09Z</time>
      </trkpt>
      <trkpt lat="45.67027" lon="2.99719">
        <ele>843.4</ele>
        <time>2025-09-28T08:14:10Z</time>
      </trkpt>
      <trkpt lat="45.67025" lon="2.99723">
        <ele>843.2</ele>
        <time>2025-09-28T08:14:11Z</time>
      </trkpt>
      <trkpt lat="45.67021" lon="2.99727">
        <ele>842.6</ele>
        <time>2025-09-28T08:14:12Z</time>
      </trkpt>
      <trkpt lat="45.67015" lon="2.99731">
        <ele>842.2</ele>
        <time>2025-09-28T08:14:13Z</time>
      </trkpt>
      <trkpt lat="45.6701" lon="2.99733">
        <ele>842</ele>
        <time>2025-09-28T08:14:14Z</time>
      </trkpt>
      <trkpt lat="45.67004" lon="2.99734">
        <ele>841.8</ele>
        <time>2025-09-28T08:14:15Z</time>
      </trkpt>
      <trkpt lat="45.67" lon="2.99734">
        <ele>841.6</ele>
        <time>2025-09-28T08:14:16Z</time>
      </trkpt>
      <trkpt lat="45.66999" lon="2.99733">
        <ele>841.8</ele>
        <time>2025-09-28T08:14:17Z</time>
      </trkpt>
      <trkpt lat="45.66998" lon="2.99731">
        <ele>841.8</ele>
        <time>2025-09-28T08:14:18Z</time>
      </trkpt>
      <trkpt lat="45.66999" lon="2.99727">
        <ele>842</ele>
        <time>2025-09-28T08:14:19Z</time>
      </trkpt>
      <trkpt lat="45.67001" lon="2.99722">
        <ele>842</ele>
        <time>2025-09-28T08:14:20Z</time>
      </trkpt>
      <trkpt lat="45.67004" lon="2.99717">
        <ele>842</ele>
        <time>2025-09-28T08:14:21Z</time>
      </trkpt>
      <trkpt lat="45.67006" lon="2.99713">
        <ele>842</ele>
        <time>2025-09-28T08:14:22Z</time>
      </trkpt>
      <trkpt lat="45.67007" lon="2.9971">
        <ele>842</ele>
        <time>2025-09-28T08:14:23Z</time>
      </trkpt>
      <trkpt lat="45.67009" lon="2.99707">
        <ele>842.2</ele>
        <time>2025-09-28T08:14:24Z</time>
      </trkpt>
      <trkpt lat="45.6701" lon="2.99703">
        <ele>842.2</ele>
        <time>2025-09-28T08:14:25Z</time>
      </trkpt>
      <trkpt lat="45.67012" lon="2.99699">
        <ele>842.2</ele>
        <time>2025-09-28T08:14:26Z</time>
      </trkpt>
      <trkpt lat="45.67015" lon="2.99695">
        <ele>842.2</ele>
        <time>2025-09-28T08:14:27Z</time>
      </trkpt>
      <trkpt lat="45.67017" lon="2.99691">
        <ele>842.4</ele>
        <time>2025-09-28T08:14:28Z</time>
      </trkpt>
      <trkpt lat="45.67019" lon="2.99687">
        <ele>842.4</ele>
        <time>2025-09-28T08:14:29Z</time>
      </trkpt>
      <trkpt lat="45.67021" lon="2.99684">
        <ele>842.2</ele>
        <time>2025-09-28T08:14:30Z</time>
      </trkpt>
      <trkpt lat="45.67024" lon="2.99682">
        <ele>841.8</ele>
        <time>2025-09-28T08:14:31Z</time>
      </trkpt>
      <trkpt lat="45.67026" lon="2.99681">
        <ele>841.6</ele>
        <time>2025-09-28T08:14:32Z</time>
      </trkpt>
      <trkpt lat="45.67027" lon="2.99681">
        <ele>841.2</ele>
        <time>2025-09-28T08:14:33Z</time>
      </trkpt>
      <trkpt lat="45.67027" lon="2.99681">
        <ele>841</ele>
        <time>2025-09-28T08:14:34Z</time>
      </trkpt>
      <trkpt lat="45.67027" lon="2.9968">
        <ele>840.8</ele>
        <time>2025-09-28T08:14:35Z</time>
      </trkpt>
      <trkpt lat="45.67028" lon="2.99678">
        <ele>840.6</ele>
        <time>2025-09-28T08:14:36Z</time>
      </trkpt>
      <trkpt lat="45.67027" lon="2.99675">
        <ele>840.6</ele>
        <time>2025-09-28T08:14:37Z</time>
      </trkpt>
      <trkpt lat="45.67027" lon="2.99671">
        <ele>840.6</ele>
        <time>2025-09-28T08:14:38Z</time>
      </trkpt>
      <trkpt lat="45.67027" lon="2.99668">
        <ele>840.8</ele>
        <time>2025-09-28T08:14:39Z</time>
      </trkpt>
      <trkpt lat="45.67027" lon="2.99664">
        <ele>841</ele>
        <time>2025-09-28T08:14:40Z</time>
      </trkpt>
      <trkpt lat="45.67029" lon="2.99661">
        <ele>841.4</ele>
        <time>2025-09-28T08:14:41Z</time>
      </trkpt>
      <trkpt lat="45.67029" lon="2.99658">
        <ele>841.6</ele>
        <time>2025-09-28T08:14:42Z</time>
      </trkpt>
      <trkpt lat="45.67029" lon="2.99655">
        <ele>841.8</ele>
        <time>2025-09-28T08:14:43Z</time>
      </trkpt>
      <trkpt lat="45.6703" lon="2.99651">
        <ele>841.8</ele>
        <time>2025-09-28T08:14:44Z</time>
      </trkpt>
      <trkpt lat="45.67031" lon="2.99646">
        <ele>842</ele>
        <time>2025-09-28T08:14:45Z</time>
      </trkpt>
      <trkpt lat="45.67032" lon="2.99641">
        <ele>842</ele>
        <time>2025-09-28T08:14:46Z</time>
      </trkpt>
      <trkpt lat="45.67034" lon="2.99635">
        <ele>842.2</ele>
        <time>2025-09-28T08:14:47Z</time>
      </trkpt>
      <trkpt lat="45.67037" lon="2.9963">
        <ele>842.4</ele>
        <time>2025-09-28T08:14:48Z</time>
      </trkpt>
      <trkpt lat="45.67039" lon="2.99625">
        <ele>842.8</ele>
        <time>2025-09-28T08:14:49Z</time>
      </trkpt>
      <trkpt lat="45.67041" lon="2.99622">
        <ele>843.2</ele>
        <time>2025-09-28T08:14:50Z</time>
      </trkpt>
      <trkpt lat="45.67043" lon="2.9962">
        <ele>843.4</ele>
        <time>2025-09-28T08:14:51Z</time>
      </trkpt>
      <trkpt lat="45.67044" lon="2.99618">
        <ele>843.6</ele>
        <time>2025-09-28T08:14:52Z</time>
      </trkpt>
      <trkpt lat="45.67044" lon="2.99615">
        <ele>843.6</ele>
        <time>2025-09-28T08:14:53Z</time>
      </trkpt>
      <trkpt lat="45.67045" lon="2.99613">
        <ele>843.6</ele>
        <time>2025-09-28T08:14:54Z</time>
      </trkpt>
      <trkpt lat="45.67047" lon="2.99612">
        <ele>843.6</ele>
        <time>2025-09-28T08:14:55Z</time>
      </trkpt>
      <trkpt lat="45.67047" lon="2.99611">
        <ele>843.6</ele>
        <time>2025-09-28T08:14:56Z</time>
      </trkpt>
      <trkpt lat="45.67047" lon="2.99611">
        <ele>843.6</ele>
        <time>2025-09-28T08:14:57Z</time>
      </trkpt>
      <trkpt lat="45.67047" lon="2.99611">
        <ele>843.6</ele>
        <time>2025-09-28T08:14:58Z</time>
      </trkpt>
      <trkpt lat="45.67047" lon="2.99611">
        <ele>843.8</ele>
        <time>2025-09-28T08:14:59Z</time>
      </trkpt>
      <trkpt lat="45.67047" lon="2.99611">
        <ele>843.8</ele>
        <time>2025-09-28T08:15:00Z</time>
      </trkpt>
      <trkpt lat="45.67046" lon="2.9961">
        <ele>843.8</ele>
        <time>2025-09-28T08:15:01Z</time>
      </trkpt>
      <trkpt lat="45.67046" lon="2.9961">
        <ele>843.8</ele>
        <time>2025-09-28T08:15:02Z</time>
      </trkpt>
      <trkpt lat="45.67046" lon="2.9961">
        <ele>843.8</ele>
        <time>2025-09-28T08:15:03Z</time>
      </trkpt>
      <trkpt lat="45.67046" lon="2.9961">
        <ele>843.8</ele>
        <time>2025-09-28T08:15:04Z</time>
      </trkpt>
      <trkpt lat="45.67046" lon="2.9961">
        <ele>843.8</ele>
        <time>2025-09-28T08:15:05Z</time>
      </trkpt>
      <trkpt lat="45.67046" lon="2.9961">
        <ele>843.8</ele>
        <time>2025-09-28T08:15:06Z</time>
      </trkpt>
      <trkpt lat="45.67046" lon="2.9961">
        <ele>843.8</ele>
        <time>2025-09-28T08:15:07Z</time>
      </trkpt>
      <trkpt lat="45.67046" lon="2.9961">
        <ele>844</ele>
        <time>2025-09-28T08:15:08Z</time>
      </trkpt>
      <trkpt lat="45.67047" lon="2.99599">
        <ele>844.4</ele>
        <time>2025-09-28T08:15:14Z</time>
      </trkpt>
      <trkpt lat="45.67046" lon="2.99597">
        <ele>844.6</ele>
        <time>2025-09-28T08:15:15Z</time>
      </trkpt>
      <trkpt lat="45.67045" lon="2.99597">
        <ele>844.6</ele>
        <time>2025-09-28T08:15:16Z</time>
      </trkpt>
      <trkpt lat="45.67045" lon="2.99596">
        <ele>844.6</ele>
        <time>2025-09-28T08:15:17Z</time>
      </trkpt>
      <trkpt lat="45.67044" lon="2.99594">
        <ele>844.6</ele>
        <time>2025-09-28T08:15:18Z</time>
      </trkpt>
      <trkpt lat="45.67041" lon="2.99592">
        <ele>844.6</ele>
        <time>2025-09-28T08:15:19Z</time>
      </trkpt>
      <trkpt lat="45.67039" lon="2.9959">
        <ele>844.4</ele>
        <time>2025-09-28T08:15:20Z</time>
      </trkpt>
      <trkpt lat="45.67037" lon="2.99589">
        <ele>844.4</ele>
        <time>2025-09-28T08:15:21Z</time>
      </trkpt>
      <trkpt lat="45.67037" lon="2.99588">
        <ele>844.4</ele>
        <time>2025-09-28T08:15:22Z</time>
      </trkpt>
      <trkpt lat="45.67036" lon="2.99587">
        <ele>844.4</ele>
        <time>2025-09-28T08:15:23Z</time>
      </trkpt>
      <trkpt lat="45.67035" lon="2.99585">
        <ele>844.6</ele>
        <time>2025-09-28T08:15:24Z</time>
      </trkpt>
      <trkpt lat="45.67033" lon="2.99582">
        <ele>844.6</ele>
        <time>2025-09-28T08:15:25Z</time>
      </trkpt>
      <trkpt lat="45.67031" lon="2.99579">
        <ele>844.8</ele>
        <time>2025-09-28T08:15:26Z</time>
      </trkpt>
      <trkpt lat="45.67031" lon="2.99576">
        <ele>844.8</ele>
        <time>2025-09-28T08:15:27Z</time>
      </trkpt>
      <trkpt lat="45.6703" lon="2.99576">
        <ele>844.6</ele>
        <time>2025-09-28T08:15:28Z</time>
      </trkpt>
      <trkpt lat="45.67028" lon="2.99574">
        <ele>844.6</ele>
        <time>2025-09-28T08:15:29Z</time>
      </trkpt>
      <trkpt lat="45.67026" lon="2.99573">
        <ele>844.6</ele>
        <time>2025-09-28T08:15:30Z</time>
      </trkpt>
      <trkpt lat="45.67024" lon="2.99572">
        <ele>844.4</ele>
        <time>2025-09-28T08:15:31Z</time>
      </trkpt>
      <trkpt lat="45.67023" lon="2.99571">
        <ele>844.4</ele>
        <time>2025-09-28T08:15:32Z</time>
      </trkpt>
      <trkpt lat="45.67021" lon="2.99572">
        <ele>844.4</ele>
        <time>2025-09-28T08:15:33Z</time>
      </trkpt>
      <trkpt lat="45.6702" lon="2.99572">
        <ele>844.6</ele>
        <time>2025-09-28T08:15:34Z</time>
      </trkpt>
      <trkpt lat="45.67018" lon="2.99574">
        <ele>844.6</ele>
        <time>2025-09-28T08:15:35Z</time>
      </trkpt>
      <trkpt lat="45.67017" lon="2.99575">
        <ele>844.8</ele>
        <time>2025-09-28T08:15:36Z</time>
      </trkpt>
      <trkpt lat="45.67015" lon="2.99577">
        <ele>845</ele>
        <time>2025-09-28T08:15:37Z</time>
      </trkpt>
      <trkpt lat="45.67012" lon="2.99578">
        <ele>845.2</ele>
        <time>2025-09-28T08:15:38Z</time>
      </trkpt>
      <trkpt lat="45.6701" lon="2.99578">
        <ele>845.6</ele>
        <time>2025-09-28T08:15:39Z</time>
      </trkpt>
      <trkpt lat="45.67008" lon="2.99579">
        <ele>846</ele>
        <time>2025-09-28T08:15:40Z</time>
      </trkpt>
      <trkpt lat="45.67005" lon="2.9958">
        <ele>846.2</ele>
        <time>2025-09-28T08:15:41Z</time>
      </trkpt>
      <trkpt lat="45.67003" lon="2.99582">
        <ele>846.6</ele>
        <time>2025-09-28T08:15:42Z</time>
      </trkpt>
      <trkpt lat="45.67001" lon="2.99583">
        <ele>847</ele>
        <time>2025-09-28T08:15:43Z</time>
      </trkpt>
      <trkpt lat="45.66999" lon="2.99584">
        <ele>847.4</ele>
        <time>2025-09-28T08:15:44Z</time>
      </trkpt>
      <trkpt lat="45.66998" lon="2.99585">
        <ele>848</ele>
        <time>2025-09-28T08:15:45Z</time>
      </trkpt>
      <trkpt lat="45.66997" lon="2.99586">
        <ele>848.4</ele>
        <time>2025-09-28T08:15:46Z</time>
      </trkpt>
      <trkpt lat="45.66995" lon="2.99586">
        <ele>848.8</ele>
        <time>2025-09-28T08:15:47Z</time>
      </trkpt>
      <trkpt lat="45.66994" lon="2.99587">
        <ele>849</ele>
        <time>2025-09-28T08:15:48Z</time>
      </trkpt>
      <trkpt lat="45.66992" lon="2.9959">
        <ele>849.4</ele>
        <time>2025-09-28T08:15:49Z</time>
      </trkpt>
      <trkpt lat="45.66991" lon="2.99594">
        <ele>849.4</ele>
        <time>2025-09-28T08:15:50Z</time>
      </trkpt>
      <trkpt lat="45.66988" lon="2.99598">
        <ele>849.4</ele>
        <time>2025-09-28T08:15:51Z</time>
      </trkpt>
      <trkpt lat="45.66986" lon="2.99604">
        <ele>849.4</ele>
        <time>2025-09-28T08:15:52Z</time>
      </trkpt>
      <trkpt lat="45.66984" lon="2.99609">
        <ele>849.2</ele>
        <time>2025-09-28T08:15:53Z</time>
      </trkpt>
      <trkpt lat="45.66982" lon="2.99614">
        <ele>849.2</ele>
        <time>2025-09-28T08:15:54Z</time>
      </trkpt>
      <trkpt lat="45.66979" lon="2.99619">
        <ele>849</ele>
        <time>2025-09-28T08:15:55Z</time>
      </trkpt>
      <trkpt lat="45.66975" lon="2.99627">
        <ele>848.8</ele>
        <time>2025-09-28T08:15:56Z</time>
      </trkpt>
      <trkpt lat="45.6697" lon="2.99635">
        <ele>848.4</ele>
        <time>2025-09-28T08:15:57Z</time>
      </trkpt>
      <trkpt lat="45.66967" lon="2.99642">
        <ele>848.2</ele>
        <time>2025-09-28T08:15:58Z</time>
      </trkpt>
      <trkpt lat="45.66965" lon="2.99648">
        <ele>848.2</ele>
        <time>2025-09-28T08:15:59Z</time>
      </trkpt>
      <trkpt lat="45.66964" lon="2.99653">
        <ele>848</ele>
        <time>2025-09-28T08:16:00Z</time>
      </trkpt>
      <trkpt lat="45.66964" lon="2.99658">
        <ele>848</ele>
        <time>2025-09-28T08:16:01Z</time>
      </trkpt>
      <trkpt lat="45.66964" lon="2.99662">
        <ele>847.8</ele>
        <time>2025-09-28T08:16:02Z</time>
      </trkpt>
      <trkpt lat="45.66964" lon="2.99664">
        <ele>847.8</ele>
        <time>2025-09-28T08:16:03Z</time>
      </trkpt>
      <trkpt lat="45.66962" lon="2.99666">
        <ele>847.6</ele>
        <time>2025-09-28T08:16:04Z</time>
      </trkpt>
      <trkpt lat="45.66959" lon="2.99669">
        <ele>847.6</ele>
        <time>2025-09-28T08:16:05Z</time>
      </trkpt>
      <trkpt lat="45.66958" lon="2.99672">
        <ele>847.4</ele>
        <time>2025-09-28T08:16:06Z</time>
      </trkpt>
      <trkpt lat="45.66956" lon="2.99674">
        <ele>847.4</ele>
        <time>2025-09-28T08:16:07Z</time>
      </trkpt>
      <trkpt lat="45.66953" lon="2.99676">
        <ele>847.4</ele>
        <time>2025-09-28T08:16:08Z</time>
      </trkpt>
      <trkpt lat="45.66951" lon="2.99678">
        <ele>847.4</ele>
        <time>2025-09-28T08:16:09Z</time>
      </trkpt>
      <trkpt lat="45.66949" lon="2.9968">
        <ele>847.4</ele>
        <time>2025-09-28T08:16:10Z</time>
      </trkpt>
      <trkpt lat="45.66947" lon="2.99682">
        <ele>847.2</ele>
        <time>2025-09-28T08:16:11Z</time>
      </trkpt>
      <trkpt lat="45.66945" lon="2.99685">
        <ele>847</ele>
        <time>2025-09-28T08:16:12Z</time>
      </trkpt>
      <trkpt lat="45.66943" lon="2.99687">
        <ele>846.6</ele>
        <time>2025-09-28T08:16:13Z</time>
      </trkpt>
      <trkpt lat="45.66942" lon="2.99689">
        <ele>846</ele>
        <time>2025-09-28T08:16:14Z</time>
      </trkpt>
      <trkpt lat="45.66941" lon="2.9969">
        <ele>845.6</ele>
        <time>2025-09-28T08:16:15Z</time>
      </trkpt>
      <trkpt lat="45.66939" lon="2.9969">
        <ele>845.4</ele>
        <time>2025-09-28T08:16:16Z</time>
      </trkpt>
      <trkpt lat="45.66938" lon="2.9969">
        <ele>845</ele>
        <time>2025-09-28T08:16:17Z</time>
      </trkpt>
      <trkpt lat="45.66935" lon="2.99689">
        <ele>844.6</ele>
        <time>2025-09-28T08:16:18Z</time>
      </trkpt>
      <trkpt lat="45.66932" lon="2.99687">
        <ele>844.4</ele>
        <time>2025-09-28T08:16:19Z</time>
      </trkpt>
      <trkpt lat="45.66929" lon="2.99685">
        <ele>844.2</ele>
        <time>2025-09-28T08:16:20Z</time>
      </trkpt>
      <trkpt lat="45.66926" lon="2.99684">
        <ele>844.2</ele>
        <time>2025-09-28T08:16:21Z</time>
      </trkpt>
      <trkpt lat="45.66923" lon="2.99683">
        <ele>844.2</ele>
        <time>2025-09-28T08:16:22Z</time>
      </trkpt>
      <trkpt lat="45.6692" lon="2.99682">
        <ele>844.2</ele>
        <time>2025-09-28T08:16:23Z</time>
      </trkpt>
      <trkpt lat="45.66917" lon="2.9968">
        <ele>844</ele>
        <time>2025-09-28T08:16:24Z</time>
      </trkpt>
      <trkpt lat="45.66913" lon="2.99677">
        <ele>843.8</ele>
        <time>2025-09-28T08:16:25Z</time>
      </trkpt>
      <trkpt lat="45.66909" lon="2.99675">
        <ele>843.8</ele>
        <time>2025-09-28T08:16:26Z</time>
      </trkpt>
      <trkpt lat="45.66902" lon="2.99676">
        <ele>843.6</ele>
        <time>2025-09-28T08:16:27Z</time>
      </trkpt>
      <trkpt lat="45.66896" lon="2.99679">
        <ele>843.4</ele>
        <time>2025-09-28T08:16:28Z</time>
      </trkpt>
      <trkpt lat="45.66892" lon="2.9968">
        <ele>843.2</ele>
        <time>2025-09-28T08:16:29Z</time>
      </trkpt>
      <trkpt lat="45.6689" lon="2.9968">
        <ele>843</ele>
        <time>2025-09-28T08:16:30Z</time>
      </trkpt>
      <trkpt lat="45.66889" lon="2.99681">
        <ele>842.8</ele>
        <time>2025-09-28T08:16:31Z</time>
      </trkpt>
      <trkpt lat="45.66889" lon="2.99681">
        <ele>842.4</ele>
        <time>2025-09-28T08:16:32Z</time>
      </trkpt>
      <trkpt lat="45.66884" lon="2.99677">
        <ele>841.8</ele>
        <time>2025-09-28T08:16:36Z</time>
      </trkpt>
      <trkpt lat="45.66882" lon="2.99674">
        <ele>841.8</ele>
        <time>2025-09-28T08:16:37Z</time>
      </trkpt>
      <trkpt lat="45.66879" lon="2.99671">
        <ele>841.6</ele>
        <time>2025-09-28T08:16:38Z</time>
      </trkpt>
      <trkpt lat="45.66877" lon="2.99668">
        <ele>841.6</ele>
        <time>2025-09-28T08:16:39Z</time>
      </trkpt>
      <trkpt lat="45.66874" lon="2.99665">
        <ele>841.6</ele>
        <time>2025-09-28T08:16:40Z</time>
      </trkpt>
      <trkpt lat="45.6687" lon="2.99662">
        <ele>841.6</ele>
        <time>2025-09-28T08:16:41Z</time>
      </trkpt>
      <trkpt lat="45.66866" lon="2.99658">
        <ele>841.8</ele>
        <time>2025-09-28T08:16:42Z</time>
      </trkpt>
      <trkpt lat="45.66862" lon="2.99654">
        <ele>841.6</ele>
        <time>2025-09-28T08:16:43Z</time>
      </trkpt>
      <trkpt lat="45.66858" lon="2.99651">
        <ele>841.6</ele>
        <time>2025-09-28T08:16:44Z</time>
      </trkpt>
      <trkpt lat="45.66855" lon="2.99648">
        <ele>841.6</ele>
        <time>2025-09-28T08:16:45Z</time>
      </trkpt>
      <trkpt lat="45.66853" lon="2.99645">
        <ele>841.4</ele>
        <time>2025-09-28T08:16:46Z</time>
      </trkpt>
      <trkpt lat="45.66851" lon="2.99642">
        <ele>841.6</ele>
        <time>2025-09-28T08:16:47Z</time>
      </trkpt>
      <trkpt lat="45.6685" lon="2.99638">
        <ele>841.6</ele>
        <time>2025-09-28T08:16:48Z</time>
      </trkpt>
      <trkpt lat="45.66848" lon="2.99633">
        <ele>841.8</ele>
        <time>2025-09-28T08:16:49Z</time>
      </trkpt>
      <trkpt lat="45.66848" lon="2.9963">
        <ele>842.2</ele>
        <time>2025-09-28T08:16:50Z</time>
      </trkpt>
      <trkpt lat="45.66849" lon="2.99626">
        <ele>842.4</ele>
        <time>2025-09-28T08:16:51Z</time>
      </trkpt>
      <trkpt lat="45.66849" lon="2.99624">
        <ele>842.8</ele>
        <time>2025-09-28T08:16:52Z</time>
      </trkpt>
      <trkpt lat="45.66849" lon="2.99624">
        <ele>843.2</ele>
        <time>2025-09-28T08:16:53Z</time>
      </trkpt>
      <trkpt lat="45.66849" lon="2.99624">
        <ele>843.4</ele>
        <time>2025-09-28T08:16:54Z</time>
      </trkpt>
      <trkpt lat="45.66849" lon="2.99624">
        <ele>843.6</ele>
        <time>2025-09-28T08:16:55Z</time>
      </trkpt>
      <trkpt lat="45.66849" lon="2.99623">
        <ele>843.8</ele>
        <time>2025-09-28T08:16:56Z</time>
      </trkpt>
      <trkpt lat="45.66849" lon="2.99622">
        <ele>844</ele>
        <time>2025-09-28T08:16:57Z</time>
      </trkpt>
      <trkpt lat="45.66848" lon="2.9962">
        <ele>844</ele>
        <time>2025-09-28T08:16:58Z</time>
      </trkpt>
      <trkpt lat="45.66848" lon="2.99618">
        <ele>844.2</ele>
        <time>2025-09-28T08:16:59Z</time>
      </trkpt>
      <trkpt lat="45.66847" lon="2.99615">
        <ele>844.4</ele>
        <time>2025-09-28T08:17:00Z</time>
      </trkpt>
      <trkpt lat="45.66846" lon="2.99613">
        <ele>844.6</ele>
        <time>2025-09-28T08:17:01Z</time>
      </trkpt>
      <trkpt lat="45.66845" lon="2.99611">
        <ele>844.8</ele>
        <time>2025-09-28T08:17:02Z</time>
      </trkpt>
      <trkpt lat="45.66844" lon="2.9961">
        <ele>845</ele>
        <time>2025-09-28T08:17:03Z</time>
      </trkpt>
      <trkpt lat="45.66844" lon="2.99609">
        <ele>845</ele>
        <time>2025-09-28T08:17:04Z</time>
      </trkpt>
      <trkpt lat="45.66844" lon="2.99609">
        <ele>845.2</ele>
        <time>2025-09-28T08:17:05Z</time>
      </trkpt>
      <trkpt lat="45.66844" lon="2.99609">
        <ele>845.2</ele>
        <time>2025-09-28T08:17:06Z</time>
      </trkpt>
      <trkpt lat="45.66844" lon="2.99608">
        <ele>845.4</ele>
        <time>2025-09-28T08:17:07Z</time>
      </trkpt>
      <trkpt lat="45.66842" lon="2.99606">
        <ele>845.4</ele>
        <time>2025-09-28T08:17:08Z</time>
      </trkpt>
      <trkpt lat="45.6684" lon="2.99602">
        <ele>845.4</ele>
        <time>2025-09-28T08:17:09Z</time>
      </trkpt>
      <trkpt lat="45.66839" lon="2.99599">
        <ele>845.4</ele>
        <time>2025-09-28T08:17:10Z</time>
      </trkpt>
      <trkpt lat="45.66838" lon="2.99596">
        <ele>845.6</ele>
        <time>2025-09-28T08:17:11Z</time>
      </trkpt>
      <trkpt lat="45.66838" lon="2.99594">
        <ele>845.6</ele>
        <time>2025-09-28T08:17:12Z</time>
      </trkpt>
      <trkpt lat="45.66839" lon="2.99591">
        <ele>845.8</ele>
        <time>2025-09-28T08:17:13Z</time>
      </trkpt>
      <trkpt lat="45.6684" lon="2.99588">
        <ele>846.2</ele>
        <time>2025-09-28T08:17:14Z</time>
      </trkpt>
      <trkpt lat="45.66843" lon="2.99584">
        <ele>846.4</ele>
        <time>2025-09-28T08:17:15Z</time>
      </trkpt>
      <trkpt lat="45.66845" lon="2.99581">
        <ele>846.6</ele>
        <time>2025-09-28T08:17:16Z</time>
      </trkpt>
      <trkpt lat="45.66847" lon="2.99579">
        <ele>847</ele>
        <time>2025-09-28T08:17:17Z</time>
      </trkpt>
      <trkpt lat="45.66849" lon="2.99578">
        <ele>847.2</ele>
        <time>2025-09-28T08:17:18Z</time>
      </trkpt>
      <trkpt lat="45.66851" lon="2.99576">
        <ele>847.4</ele>
        <time>2025-09-28T08:17:19Z</time>
      </trkpt>
      <trkpt lat="45.66852" lon="2.99575">
        <ele>847.4</ele>
        <time>2025-09-28T08:17:20Z</time>
      </trkpt>
      <trkpt lat="45.66852" lon="2.99575">
        <ele>847.4</ele>
        <time>2025-09-28T08:17:21Z</time>
      </trkpt>
      <trkpt lat="45.66852" lon="2.99575">
        <ele>847.4</ele>
        <time>2025-09-28T08:17:22Z</time>
      </trkpt>
      <trkpt lat="45.66852" lon="2.99575">
        <ele>847.4</ele>
        <time>2025-09-28T08:17:23Z</time>
      </trkpt>
      <trkpt lat="45.66852" lon="2.99575">
        <ele>847.4</ele>
        <time>2025-09-28T08:17:24Z</time>
      </trkpt>
      <trkpt lat="45.66852" lon="2.99575">
        <ele>847.4</ele>
        <time>2025-09-28T08:17:25Z</time>
      </trkpt>
      <trkpt lat="45.66852" lon="2.99574">
        <ele>847.4</ele>
        <time>2025-09-28T08:17:26Z</time>
      </trkpt>
      <trkpt lat="45.66852" lon="2.99574">
        <ele>847.4</ele>
        <time>2025-09-28T08:17:27Z</time>
      </trkpt>
      <trkpt lat="45.66852" lon="2.99574">
        <ele>847.4</ele>
        <time>2025-09-28T08:17:28Z</time>
      </trkpt>
      <trkpt lat="45.66852" lon="2.99574">
        <ele>847.4</ele>
        <time>2025-09-28T08:17:29Z</time>
      </trkpt>
      <trkpt lat="45.66852" lon="2.99574">
        <ele>847.4</ele>
        <time>2025-09-28T08:17:30Z</time>
      </trkpt>
      <trkpt lat="45.66852" lon="2.99574">
        <ele>847.6</ele>
        <time>2025-09-28T08:17:31Z</time>
      </trkpt>
      <trkpt lat="45.6685" lon="2.99568">
        <ele>848.2</ele>
        <time>2025-09-28T08:18:02Z</time>
      </trkpt>
      <trkpt lat="45.66851" lon="2.99565">
        <ele>848.2</ele>
        <time>2025-09-28T08:18:03Z</time>
      </trkpt>
      <trkpt lat="45.6685" lon="2.99562">
        <ele>848.2</ele>
        <time>2025-09-28T08:18:04Z</time>
      </trkpt>
      <trkpt lat="45.6685" lon="2.99559">
        <ele>848</ele>
        <time>2025-09-28T08:18:05Z</time>
      </trkpt>
      <trkpt lat="45.6685" lon="2.99556">
        <ele>847.8</ele>
        <time>2025-09-28T08:18:06Z</time>
      </trkpt>
      <trkpt lat="45.6685" lon="2.99553">
        <ele>847.6</ele>
        <time>2025-09-28T08:18:07Z</time>
      </trkpt>
      <trkpt lat="45.6685" lon="2.99549">
        <ele>847.2</ele>
        <time>2025-09-28T08:18:08Z</time>
      </trkpt>
      <trkpt lat="45.66851" lon="2.99545">
        <ele>847</ele>
        <time>2025-09-28T08:18:09Z</time>
      </trkpt>
      <trkpt lat="45.66853" lon="2.9954">
        <ele>846.8</ele>
        <time>2025-09-28T08:18:10Z</time>
      </trkpt>
      <trkpt lat="45.66855" lon="2.99534">
        <ele>846.6</ele>
        <time>2025-09-28T08:18:11Z</time>
      </trkpt>
      <trkpt lat="45.66857" lon="2.99527">
        <ele>846.4</ele>
        <time>2025-09-28T08:18:12Z</time>
      </trkpt>
      <trkpt lat="45.66858" lon="2.99521">
        <ele>846.2</ele>
        <time>2025-09-28T08:18:13Z</time>
      </trkpt>
      <trkpt lat="45.66857" lon="2.99515">
        <ele>846.2</ele>
        <time>2025-09-28T08:18:14Z</time>
      </trkpt>
      <trkpt lat="45.66857" lon="2.99509">
        <ele>846.4</ele>
        <time>2025-09-28T08:18:15Z</time>
      </trkpt>
      <trkpt lat="45.66856" lon="2.99503">
        <ele>846.4</ele>
        <time>2025-09-28T08:18:16Z</time>
      </trkpt>
      <trkpt lat="45.66857" lon="2.99497">
        <ele>846.4</ele>
        <time>2025-09-28T08:18:17Z</time>
      </trkpt>
      <trkpt lat="45.66858" lon="2.9949">
        <ele>846.6</ele>
        <time>2025-09-28T08:18:18Z</time>
      </trkpt>
      <trkpt lat="45.66859" lon="2.99486">
        <ele>846.8</ele>
        <time>2025-09-28T08:18:19Z</time>
      </trkpt>
      <trkpt lat="45.66859" lon="2.99482">
        <ele>847</ele>
        <time>2025-09-28T08:18:20Z</time>
      </trkpt>
      <trkpt lat="45.6686" lon="2.99476">
        <ele>847</ele>
        <time>2025-09-28T08:18:21Z</time>
      </trkpt>
      <trkpt lat="45.66863" lon="2.99468">
        <ele>847</ele>
        <time>2025-09-28T08:18:22Z</time>
      </trkpt>
      <trkpt lat="45.66867" lon="2.99461">
        <ele>847.2</ele>
        <time>2025-09-28T08:18:23Z</time>
      </trkpt>
      <trkpt lat="45.6687" lon="2.99454">
        <ele>847.4</ele>
        <time>2025-09-28T08:18:24Z</time>
      </trkpt>
      <trkpt lat="45.66871" lon="2.99448">
        <ele>847.6</ele>
        <time>2025-09-28T08:18:25Z</time>
      </trkpt>
      <trkpt lat="45.66872" lon="2.99441">
        <ele>847.6</ele>
        <time>2025-09-28T08:18:26Z</time>
      </trkpt>
      <trkpt lat="45.66873" lon="2.99434">
        <ele>847.6</ele>
        <time>2025-09-28T08:18:27Z</time>
      </trkpt>
      <trkpt lat="45.66874" lon="2.99426">
        <ele>847.6</ele>
        <time>2025-09-28T08:18:28Z</time>
      </trkpt>
      <trkpt lat="45.66875" lon="2.99419">
        <ele>847.6</ele>
        <time>2025-09-28T08:18:29Z</time>
      </trkpt>
      <trkpt lat="45.66877" lon="2.99413">
        <ele>847.4</ele>
        <time>2025-09-28T08:18:30Z</time>
      </trkpt>
      <trkpt lat="45.66878" lon="2.99408">
        <ele>847.4</ele>
        <time>2025-09-28T08:18:31Z</time>
      </trkpt>
      <trkpt lat="45.66879" lon="2.99402">
        <ele>847.4</ele>
        <time>2025-09-28T08:18:32Z</time>
      </trkpt>
      <trkpt lat="45.66879" lon="2.99397">
        <ele>847.2</ele>
        <time>2025-09-28T08:18:33Z</time>
      </trkpt>
      <trkpt lat="45.6688" lon="2.99391">
        <ele>847.2</ele>
        <time>2025-09-28T08:18:34Z</time>
      </trkpt>
      <trkpt lat="45.66879" lon="2.99382">
        <ele>847</ele>
        <time>2025-09-28T08:18:35Z</time>
      </trkpt>
      <trkpt lat="45.6688" lon="2.99371">
        <ele>846.8</ele>
        <time>2025-09-28T08:18:36Z</time>
      </trkpt>
      <trkpt lat="45.6688" lon="2.9936">
        <ele>846.6</ele>
        <time>2025-09-28T08:18:37Z</time>
      </trkpt>
      <trkpt lat="45.66879" lon="2.99348">
        <ele>846.6</ele>
        <time>2025-09-28T08:18:38Z</time>
      </trkpt>
      <trkpt lat="45.66877" lon="2.99339">
        <ele>846.6</ele>
        <time>2025-09-28T08:18:39Z</time>
      </trkpt>
      <trkpt lat="45.66877" lon="2.99333">
        <ele>846.4</ele>
        <time>2025-09-28T08:18:40Z</time>
      </trkpt>
      <trkpt lat="45.66878" lon="2.99328">
        <ele>846.4</ele>
        <time>2025-09-28T08:18:41Z</time>
      </trkpt>
      <trkpt lat="45.66881" lon="2.99323">
        <ele>846.2</ele>
        <time>2025-09-28T08:18:42Z</time>
      </trkpt>
      <trkpt lat="45.66883" lon="2.99318">
        <ele>846.2</ele>
        <time>2025-09-28T08:18:43Z</time>
      </trkpt>
      <trkpt lat="45.66885" lon="2.99311">
        <ele>846.2</ele>
        <time>2025-09-28T08:18:44Z</time>
      </trkpt>
      <trkpt lat="45.66888" lon="2.99306">
        <ele>846.4</ele>
        <time>2025-09-28T08:18:45Z</time>
      </trkpt>
      <trkpt lat="45.6689" lon="2.99303">
        <ele>846.6</ele>
        <time>2025-09-28T08:18:46Z</time>
      </trkpt>
      <trkpt lat="45.66893" lon="2.99301">
        <ele>846.8</ele>
        <time>2025-09-28T08:18:47Z</time>
      </trkpt>
      <trkpt lat="45.66895" lon="2.99299">
        <ele>847</ele>
        <time>2025-09-28T08:18:48Z</time>
      </trkpt>
      <trkpt lat="45.66896" lon="2.99298">
        <ele>847.2</ele>
        <time>2025-09-28T08:18:49Z</time>
      </trkpt>
      <trkpt lat="45.66897" lon="2.99298">
        <ele>847.2</ele>
        <time>2025-09-28T08:18:50Z</time>
      </trkpt>
      <trkpt lat="45.66898" lon="2.99297">
        <ele>847.4</ele>
        <time>2025-09-28T08:18:51Z</time>
      </trkpt>
      <trkpt lat="45.66899" lon="2.99296">
        <ele>847.4</ele>
        <time>2025-09-28T08:18:52Z</time>
      </trkpt>
      <trkpt lat="45.66901" lon="2.99294">
        <ele>847.4</ele>
        <time>2025-09-28T08:18:53Z</time>
      </trkpt>
      <trkpt lat="45.66901" lon="2.99291">
        <ele>847.4</ele>
        <time>2025-09-28T08:18:54Z</time>
      </trkpt>
      <trkpt lat="45.66901" lon="2.99288">
        <ele>847.2</ele>
        <time>2025-09-28T08:18:55Z</time>
      </trkpt>
      <trkpt lat="45.669" lon="2.99285">
        <ele>847</ele>
        <time>2025-09-28T08:18:56Z</time>
      </trkpt>
      <trkpt lat="45.66899" lon="2.99281">
        <ele>846.8</ele>
        <time>2025-09-28T08:18:57Z</time>
      </trkpt>
      <trkpt lat="45.66896" lon="2.99274">
        <ele>846.4</ele>
        <time>2025-09-28T08:18:58Z</time>
      </trkpt>
      <trkpt lat="45.66893" lon="2.99268">
        <ele>846.2</ele>
        <time>2025-09-28T08:18:59Z</time>
      </trkpt>
      <trkpt lat="45.66889" lon="2.99263">
        <ele>846</ele>
        <time>2025-09-28T08:19:00Z</time>
      </trkpt>
      <trkpt lat="45.66886" lon="2.99257">
        <ele>846</ele>
        <time>2025-09-28T08:19:01Z</time>
      </trkpt>
      <trkpt lat="45.66883" lon="2.9925">
        <ele>846</ele>
        <time>2025-09-28T08:19:02Z</time>
      </trkpt>
      <trkpt lat="45.66882" lon="2.99242">
        <ele>846</ele>
        <time>2025-09-28T08:19:03Z</time>
      </trkpt>
      <trkpt lat="45.66882" lon="2.99233">
        <ele>846</ele>
        <time>2025-09-28T08:19:04Z</time>
      </trkpt>
      <trkpt lat="45.66882" lon="2.99225">
        <ele>846</ele>
        <time>2025-09-28T08:19:05Z</time>
      </trkpt>
      <trkpt lat="45.66881" lon="2.99219">
        <ele>846</ele>
        <time>2025-09-28T08:19:06Z</time>
      </trkpt>
      <trkpt lat="45.6688" lon="2.99213">
        <ele>846</ele>
        <time>2025-09-28T08:19:07Z</time>
      </trkpt>
      <trkpt lat="45.66877" lon="2.99207">
        <ele>846</ele>
        <time>2025-09-28T08:19:08Z</time>
      </trkpt>
      <trkpt lat="45.66872" lon="2.992">
        <ele>846</ele>
        <time>2025-09-28T08:19:09Z</time>
      </trkpt>
      <trkpt lat="45.66866" lon="2.99196">
        <ele>846</ele>
        <time>2025-09-28T08:19:10Z</time>
      </trkpt>
      <trkpt lat="45.66862" lon="2.99194">
        <ele>845.8</ele>
        <time>2025-09-28T08:19:11Z</time>
      </trkpt>
      <trkpt lat="45.66858" lon="2.99194">
        <ele>845.6</ele>
        <time>2025-09-28T08:19:12Z</time>
      </trkpt>
      <trkpt lat="45.66855" lon="2.99194">
        <ele>845.6</ele>
        <time>2025-09-28T08:19:13Z</time>
      </trkpt>
      <trkpt lat="45.66852" lon="2.99194">
        <ele>845.4</ele>
        <time>2025-09-28T08:19:14Z</time>
      </trkpt>
      <trkpt lat="45.66851" lon="2.99194">
        <ele>845</ele>
        <time>2025-09-28T08:19:15Z</time>
      </trkpt>
      <trkpt lat="45.66849" lon="2.99193">
        <ele>845</ele>
        <time>2025-09-28T08:19:16Z</time>
      </trkpt>
      <trkpt lat="45.66846" lon="2.9919">
        <ele>845</ele>
        <time>2025-09-28T08:19:17Z</time>
      </trkpt>
      <trkpt lat="45.66843" lon="2.99185">
        <ele>845.2</ele>
        <time>2025-09-28T08:19:18Z</time>
      </trkpt>
      <trkpt lat="45.66842" lon="2.99182">
        <ele>845.4</ele>
        <time>2025-09-28T08:19:19Z</time>
      </trkpt>
      <trkpt lat="45.66841" lon="2.99179">
        <ele>845.8</ele>
        <time>2025-09-28T08:19:20Z</time>
      </trkpt>
      <trkpt lat="45.66839" lon="2.99175">
        <ele>846.2</ele>
        <time>2025-09-28T08:19:21Z</time>
      </trkpt>
      <trkpt lat="45.66836" lon="2.99171">
        <ele>846.4</ele>
        <time>2025-09-28T08:19:22Z</time>
      </trkpt>
      <trkpt lat="45.66834" lon="2.99168">
        <ele>846.6</ele>
        <time>2025-09-28T08:19:23Z</time>
      </trkpt>
      <trkpt lat="45.66832" lon="2.99166">
        <ele>846.8</ele>
        <time>2025-09-28T08:19:24Z</time>
      </trkpt>
      <trkpt lat="45.6683" lon="2.99164">
        <ele>846.8</ele>
        <time>2025-09-28T08:19:25Z</time>
      </trkpt>
      <trkpt lat="45.66829" lon="2.99163">
        <ele>846.8</ele>
        <time>2025-09-28T08:19:26Z</time>
      </trkpt>
      <trkpt lat="45.66826" lon="2.99162">
        <ele>846.6</ele>
        <time>2025-09-28T08:19:27Z</time>
      </trkpt>
      <trkpt lat="45.66823" lon="2.99161">
        <ele>846.6</ele>
        <time>2025-09-28T08:19:28Z</time>
      </trkpt>
      <trkpt lat="45.66819" lon="2.99163">
        <ele>846.6</ele>
        <time>2025-09-28T08:19:29Z</time>
      </trkpt>
      <trkpt lat="45.66816" lon="2.99167">
        <ele>846.6</ele>
        <time>2025-09-28T08:19:30Z</time>
      </trkpt>
      <trkpt lat="45.66812" lon="2.99171">
        <ele>846.6</ele>
        <time>2025-09-28T08:19:31Z</time>
      </trkpt>
      <trkpt lat="45.66809" lon="2.99174">
        <ele>846.8</ele>
        <time>2025-09-28T08:19:32Z</time>
      </trkpt>
      <trkpt lat="45.66806" lon="2.99177">
        <ele>846.8</ele>
        <time>2025-09-28T08:19:33Z</time>
      </trkpt>
      <trkpt lat="45.66804" lon="2.99178">
        <ele>846.8</ele>
        <time>2025-09-28T08:19:34Z</time>
      </trkpt>
      <trkpt lat="45.66804" lon="2.99178">
        <ele>846.8</ele>
        <time>2025-09-28T08:19:35Z</time>
      </trkpt>
      <trkpt lat="45.66803" lon="2.99179">
        <ele>846.6</ele>
        <time>2025-09-28T08:19:36Z</time>
      </trkpt>
      <trkpt lat="45.66802" lon="2.9918">
        <ele>846.4</ele>
        <time>2025-09-28T08:19:37Z</time>
      </trkpt>
      <trkpt lat="45.668" lon="2.99178">
        <ele>846.4</ele>
        <time>2025-09-28T08:19:38Z</time>
      </trkpt>
      <trkpt lat="45.66796" lon="2.99176">
        <ele>846.4</ele>
        <time>2025-09-28T08:19:39Z</time>
      </trkpt>
      <trkpt lat="45.66794" lon="2.99176">
        <ele>846.4</ele>
        <time>2025-09-28T08:19:40Z</time>
      </trkpt>
      <trkpt lat="45.66792" lon="2.99175">
        <ele>846.4</ele>
        <time>2025-09-28T08:19:41Z</time>
      </trkpt>
      <trkpt lat="45.6679" lon="2.99175">
        <ele>846.4</ele>
        <time>2025-09-28T08:19:42Z</time>
      </trkpt>
      <trkpt lat="45.66787" lon="2.99177">
        <ele>846.4</ele>
        <time>2025-09-28T08:19:43Z</time>
      </trkpt>
      <trkpt lat="45.66784" lon="2.99178">
        <ele>846.4</ele>
        <time>2025-09-28T08:19:44Z</time>
      </trkpt>
      <trkpt lat="45.66781" lon="2.99179">
        <ele>846.6</ele>
        <time>2025-09-28T08:19:45Z</time>
      </trkpt>
      <trkpt lat="45.66778" lon="2.9918">
        <ele>846.8</ele>
        <time>2025-09-28T08:19:46Z</time>
      </trkpt>
      <trkpt lat="45.66774" lon="2.99181">
        <ele>847.2</ele>
        <time>2025-09-28T08:19:47Z</time>
      </trkpt>
      <trkpt lat="45.6677" lon="2.99182">
        <ele>847.6</ele>
        <time>2025-09-28T08:19:48Z</time>
      </trkpt>
      <trkpt lat="45.66768" lon="2.99184">
        <ele>848</ele>
        <time>2025-09-28T08:19:49Z</time>
      </trkpt>
      <trkpt lat="45.66766" lon="2.99187">
        <ele>848.4</ele>
        <time>2025-09-28T08:19:50Z</time>
      </trkpt>
      <trkpt lat="45.66764" lon="2.9919">
        <ele>848.6</ele>
        <time>2025-09-28T08:19:51Z</time>
      </trkpt>
      <trkpt lat="45.66762" lon="2.99194">
        <ele>849</ele>
        <time>2025-09-28T08:19:52Z</time>
      </trkpt>
      <trkpt lat="45.66761" lon="2.99197">
        <ele>849.2</ele>
        <time>2025-09-28T08:19:53Z</time>
      </trkpt>
      <trkpt lat="45.66759" lon="2.99199">
        <ele>849.4</ele>
        <time>2025-09-28T08:19:54Z</time>
      </trkpt>
      <trkpt lat="45.66757" lon="2.99204">
        <ele>849.6</ele>
        <time>2025-09-28T08:19:55Z</time>
      </trkpt>
      <trkpt lat="45.66753" lon="2.9921">
        <ele>849.8</ele>
        <time>2025-09-28T08:19:56Z</time>
      </trkpt>
      <trkpt lat="45.66749" lon="2.99214">
        <ele>849.8</ele>
        <time>2025-09-28T08:19:57Z</time>
      </trkpt>
      <trkpt lat="45.66745" lon="2.99219">
        <ele>850</ele>
        <time>2025-09-28T08:19:58Z</time>
      </trkpt>
      <trkpt lat="45.6674" lon="2.99223">
        <ele>850</ele>
        <time>2025-09-28T08:19:59Z</time>
      </trkpt>
      <trkpt lat="45.66735" lon="2.99226">
        <ele>850</ele>
        <time>2025-09-28T08:20:00Z</time>
      </trkpt>
      <trkpt lat="45.66732" lon="2.99229">
        <ele>850.2</ele>
        <time>2025-09-28T08:20:01Z</time>
      </trkpt>
      <trkpt lat="45.66729" lon="2.99233">
        <ele>850.2</ele>
        <time>2025-09-28T08:20:02Z</time>
      </trkpt>
      <trkpt lat="45.66727" lon="2.99237">
        <ele>850.4</ele>
        <time>2025-09-28T08:20:03Z</time>
      </trkpt>
      <trkpt lat="45.66725" lon="2.99241">
        <ele>850.4</ele>
        <time>2025-09-28T08:20:04Z</time>
      </trkpt>
      <trkpt lat="45.66722" lon="2.99243">
        <ele>850.4</ele>
        <time>2025-09-28T08:20:05Z</time>
      </trkpt>
      <trkpt lat="45.66719" lon="2.99246">
        <ele>850.6</ele>
        <time>2025-09-28T08:20:06Z</time>
      </trkpt>
      <trkpt lat="45.66715" lon="2.99249">
        <ele>850.6</ele>
        <time>2025-09-28T08:20:07Z</time>
      </trkpt>
      <trkpt lat="45.66712" lon="2.99252">
        <ele>850.6</ele>
        <time>2025-09-28T08:20:08Z</time>
      </trkpt>
      <trkpt lat="45.66709" lon="2.99256">
        <ele>850.6</ele>
        <time>2025-09-28T08:20:09Z</time>
      </trkpt>
      <trkpt lat="45.66706" lon="2.99259">
        <ele>850.6</ele>
        <time>2025-09-28T08:20:10Z</time>
      </trkpt>
      <trkpt lat="45.66703" lon="2.99261">
        <ele>850.6</ele>
        <time>2025-09-28T08:20:11Z</time>
      </trkpt>
      <trkpt lat="45.667" lon="2.99264">
        <ele>850.8</ele>
        <time>2025-09-28T08:20:12Z</time>
      </trkpt>
      <trkpt lat="45.66696" lon="2.99267">
        <ele>850.8</ele>
        <time>2025-09-28T08:20:13Z</time>
      </trkpt>
      <trkpt lat="45.66692" lon="2.99269">
        <ele>850.8</ele>
        <time>2025-09-28T08:20:14Z</time>
      </trkpt>
      <trkpt lat="45.66688" lon="2.99272">
        <ele>850.6</ele>
        <time>2025-09-28T08:20:15Z</time>
      </trkpt>
      <trkpt lat="45.66685" lon="2.99275">
        <ele>850.6</ele>
        <time>2025-09-28T08:20:16Z</time>
      </trkpt>
      <trkpt lat="45.66681" lon="2.99278">
        <ele>850.6</ele>
        <time>2025-09-28T08:20:17Z</time>
      </trkpt>
      <trkpt lat="45.66678" lon="2.99283">
        <ele>850.6</ele>
        <time>2025-09-28T08:20:18Z</time>
      </trkpt>
      <trkpt lat="45.66675" lon="2.99287">
        <ele>850.6</ele>
        <time>2025-09-28T08:20:19Z</time>
      </trkpt>
      <trkpt lat="45.66672" lon="2.99292">
        <ele>850.6</ele>
        <time>2025-09-28T08:20:20Z</time>
      </trkpt>
      <trkpt lat="45.6667" lon="2.99298">
        <ele>850.6</ele>
        <time>2025-09-28T08:20:21Z</time>
      </trkpt>
      <trkpt lat="45.6667" lon="2.99304">
        <ele>850.6</ele>
        <time>2025-09-28T08:20:22Z</time>
      </trkpt>
      <trkpt lat="45.6667" lon="2.9931">
        <ele>850.8</ele>
        <time>2025-09-28T08:20:23Z</time>
      </trkpt>
      <trkpt lat="45.66671" lon="2.99315">
        <ele>850.8</ele>
        <time>2025-09-28T08:20:24Z</time>
      </trkpt>
      <trkpt lat="45.66672" lon="2.99321">
        <ele>851</ele>
        <time>2025-09-28T08:20:25Z</time>
      </trkpt>
      <trkpt lat="45.66672" lon="2.99326">
        <ele>851</ele>
        <time>2025-09-28T08:20:26Z</time>
      </trkpt>
      <trkpt lat="45.66673" lon="2.99331">
        <ele>851</ele>
        <time>2025-09-28T08:20:27Z</time>
      </trkpt>
      <trkpt lat="45.66674" lon="2.99336">
        <ele>851.2</ele>
        <time>2025-09-28T08:20:28Z</time>
      </trkpt>
      <trkpt lat="45.66674" lon="2.99341">
        <ele>851.2</ele>
        <time>2025-09-28T08:20:29Z</time>
      </trkpt>
      <trkpt lat="45.66674" lon="2.99346">
        <ele>851.2</ele>
        <time>2025-09-28T08:20:30Z</time>
      </trkpt>
      <trkpt lat="45.66674" lon="2.9935">
        <ele>851.2</ele>
        <time>2025-09-28T08:20:31Z</time>
      </trkpt>
      <trkpt lat="45.66673" lon="2.99355">
        <ele>851.2</ele>
        <time>2025-09-28T08:20:32Z</time>
      </trkpt>
      <trkpt lat="45.66674" lon="2.99359">
        <ele>851.2</ele>
        <time>2025-09-28T08:20:33Z</time>
      </trkpt>
      <trkpt lat="45.66674" lon="2.99364">
        <ele>851.2</ele>
        <time>2025-09-28T08:20:34Z</time>
      </trkpt>
      <trkpt lat="45.66675" lon="2.99368">
        <ele>851</ele>
        <time>2025-09-28T08:20:35Z</time>
      </trkpt>
      <trkpt lat="45.66676" lon="2.99373">
        <ele>851</ele>
        <time>2025-09-28T08:20:36Z</time>
      </trkpt>
      <trkpt lat="45.66678" lon="2.99377">
        <ele>851</ele>
        <time>2025-09-28T08:20:37Z</time>
      </trkpt>
      <trkpt lat="45.66678" lon="2.99382">
        <ele>851</ele>
        <time>2025-09-28T08:20:38Z</time>
      </trkpt>
      <trkpt lat="45.66679" lon="2.99386">
        <ele>851</ele>
        <time>2025-09-28T08:20:39Z</time>
      </trkpt>
      <trkpt lat="45.66679" lon="2.9939">
        <ele>850.8</ele>
        <time>2025-09-28T08:20:40Z</time>
      </trkpt>
      <trkpt lat="45.66679" lon="2.99395">
        <ele>850.8</ele>
        <time>2025-09-28T08:20:41Z</time>
      </trkpt>
      <trkpt lat="45.66678" lon="2.994">
        <ele>850.8</ele>
        <time>2025-09-28T08:20:42Z</time>
      </trkpt>
      <trkpt lat="45.66676" lon="2.99407">
        <ele>850.6</ele>
        <time>2025-09-28T08:20:43Z</time>
      </trkpt>
      <trkpt lat="45.66675" lon="2.99413">
        <ele>850.6</ele>
        <time>2025-09-28T08:20:44Z</time>
      </trkpt>
      <trkpt lat="45.66675" lon="2.99421">
        <ele>850.6</ele>
        <time>2025-09-28T08:20:45Z</time>
      </trkpt>
      <trkpt lat="45.66674" lon="2.99429">
        <ele>850.4</ele>
        <time>2025-09-28T08:20:46Z</time>
      </trkpt>
      <trkpt lat="45.66673" lon="2.99436">
        <ele>850.4</ele>
        <time>2025-09-28T08:20:47Z</time>
      </trkpt>
      <trkpt lat="45.66672" lon="2.99443">
        <ele>850.4</ele>
        <time>2025-09-28T08:20:48Z</time>
      </trkpt>
      <trkpt lat="45.66671" lon="2.99451">
        <ele>850.4</ele>
        <time>2025-09-28T08:20:49Z</time>
      </trkpt>
      <trkpt lat="45.66671" lon="2.99461">
        <ele>850.4</ele>
        <time>2025-09-28T08:20:50Z</time>
      </trkpt>
      <trkpt lat="45.66669" lon="2.9947">
        <ele>850.4</ele>
        <time>2025-09-28T08:20:51Z</time>
      </trkpt>
      <trkpt lat="45.66667" lon="2.99479">
        <ele>850.4</ele>
        <time>2025-09-28T08:20:52Z</time>
      </trkpt>
      <trkpt lat="45.66665" lon="2.99487">
        <ele>850.4</ele>
        <time>2025-09-28T08:20:53Z</time>
      </trkpt>
      <trkpt lat="45.66665" lon="2.99495">
        <ele>850.2</ele>
        <time>2025-09-28T08:20:54Z</time>
      </trkpt>
      <trkpt lat="45.66665" lon="2.99503">
        <ele>850.2</ele>
        <time>2025-09-28T08:20:55Z</time>
      </trkpt>
      <trkpt lat="45.66664" lon="2.99511">
        <ele>850.2</ele>
        <time>2025-09-28T08:20:56Z</time>
      </trkpt>
      <trkpt lat="45.66662" lon="2.99517">
        <ele>850</ele>
        <time>2025-09-28T08:20:57Z</time>
      </trkpt>
      <trkpt lat="45.6666" lon="2.99524">
        <ele>850</ele>
        <time>2025-09-28T08:20:58Z</time>
      </trkpt>
      <trkpt lat="45.66655" lon="2.99531">
        <ele>850</ele>
        <time>2025-09-28T08:20:59Z</time>
      </trkpt>
      <trkpt lat="45.66651" lon="2.9954">
        <ele>850</ele>
        <time>2025-09-28T08:21:00Z</time>
      </trkpt>
      <trkpt lat="45.6665" lon="2.99548">
        <ele>850</ele>
        <time>2025-09-28T08:21:01Z</time>
      </trkpt>
      <trkpt lat="45.66649" lon="2.99556">
        <ele>850</ele>
        <time>2025-09-28T08:21:02Z</time>
      </trkpt>
      <trkpt lat="45.66647" lon="2.99561">
        <ele>850</ele>
        <time>2025-09-28T08:21:03Z</time>
      </trkpt>
      <trkpt lat="45.66645" lon="2.99568">
        <ele>850</ele>
        <time>2025-09-28T08:21:04Z</time>
      </trkpt>
      <trkpt lat="45.66642" lon="2.99578">
        <ele>850</ele>
        <time>2025-09-28T08:21:05Z</time>
      </trkpt>
      <trkpt lat="45.66641" lon="2.99586">
        <ele>849.8</ele>
        <time>2025-09-28T08:21:06Z</time>
      </trkpt>
      <trkpt lat="45.6664" lon="2.99593">
        <ele>849.8</ele>
        <time>2025-09-28T08:21:07Z</time>
      </trkpt>
      <trkpt lat="45.6664" lon="2.996">
        <ele>849.8</ele>
        <time>2025-09-28T08:21:08Z</time>
      </trkpt>
      <trkpt lat="45.6664" lon="2.99609">
        <ele>849.8</ele>
        <time>2025-09-28T08:21:09Z</time>
      </trkpt>
      <trkpt lat="45.66641" lon="2.99617">
        <ele>849.8</ele>
        <time>2025-09-28T08:21:10Z</time>
      </trkpt>
      <trkpt lat="45.66642" lon="2.99626">
        <ele>849.8</ele>
        <time>2025-09-28T08:21:11Z</time>
      </trkpt>
      <trkpt lat="45.66642" lon="2.99632">
        <ele>849.8</ele>
        <time>2025-09-28T08:21:12Z</time>
      </trkpt>
      <trkpt lat="45.66643" lon="2.99636">
        <ele>849.6</ele>
        <time>2025-09-28T08:21:13Z</time>
      </trkpt>
      <trkpt lat="45.66647" lon="2.99641">
        <ele>849.6</ele>
        <time>2025-09-28T08:21:14Z</time>
      </trkpt>
      <trkpt lat="45.66653" lon="2.99647">
        <ele>849.4</ele>
        <time>2025-09-28T08:21:15Z</time>
      </trkpt>
      <trkpt lat="45.66659" lon="2.99653">
        <ele>849.2</ele>
        <time>2025-09-28T08:21:16Z</time>
      </trkpt>
      <trkpt lat="45.66662" lon="2.99662">
        <ele>848.8</ele>
        <time>2025-09-28T08:21:17Z</time>
      </trkpt>
      <trkpt lat="45.66665" lon="2.99672">
        <ele>848.4</ele>
        <time>2025-09-28T08:21:18Z</time>
      </trkpt>
      <trkpt lat="45.66666" lon="2.9968">
        <ele>848</ele>
        <time>2025-09-28T08:21:19Z</time>
      </trkpt>
      <trkpt lat="45.66665" lon="2.99683">
        <ele>847.6</ele>
        <time>2025-09-28T08:21:20Z</time>
      </trkpt>
      <trkpt lat="45.66665" lon="2.99685">
        <ele>847.2</ele>
        <time>2025-09-28T08:21:21Z</time>
      </trkpt>
      <trkpt lat="45.66664" lon="2.99686">
        <ele>847</ele>
        <time>2025-09-28T08:21:22Z</time>
      </trkpt>
      <trkpt lat="45.66663" lon="2.99688">
        <ele>846.8</ele>
        <time>2025-09-28T08:21:23Z</time>
      </trkpt>
      <trkpt lat="45.66662" lon="2.99691">
        <ele>846.4</ele>
        <time>2025-09-28T08:21:24Z</time>
      </trkpt>
      <trkpt lat="45.66659" lon="2.99695">
        <ele>846.2</ele>
        <time>2025-09-28T08:21:25Z</time>
      </trkpt>
      <trkpt lat="45.66656" lon="2.997">
        <ele>846</ele>
        <time>2025-09-28T08:21:26Z</time>
      </trkpt>
      <trkpt lat="45.66653" lon="2.99706">
        <ele>845.8</ele>
        <time>2025-09-28T08:21:27Z</time>
      </trkpt>
      <trkpt lat="45.66651" lon="2.99714">
        <ele>845.4</ele>
        <time>2025-09-28T08:21:28Z</time>
      </trkpt>
      <trkpt lat="45.66646" lon="2.99724">
        <ele>845.4</ele>
        <time>2025-09-28T08:21:29Z</time>
      </trkpt>
      <trkpt lat="45.66641" lon="2.99733">
        <ele>845.4</ele>
        <time>2025-09-28T08:21:30Z</time>
      </trkpt>
      <trkpt lat="45.66637" lon="2.99738">
        <ele>845.6</ele>
        <time>2025-09-28T08:21:31Z</time>
      </trkpt>
      <trkpt lat="45.66634" lon="2.99741">
        <ele>846</ele>
        <time>2025-09-28T08:21:32Z</time>
      </trkpt>
      <trkpt lat="45.66633" lon="2.99742">
        <ele>846.4</ele>
        <time>2025-09-28T08:21:33Z</time>
      </trkpt>
      <trkpt lat="45.66633" lon="2.99743">
        <ele>846.8</ele>
        <time>2025-09-28T08:21:34Z</time>
      </trkpt>
      <trkpt lat="45.66632" lon="2.99745">
        <ele>847</ele>
        <time>2025-09-28T08:21:35Z</time>
      </trkpt>
      <trkpt lat="45.66631" lon="2.99746">
        <ele>847</ele>
        <time>2025-09-28T08:21:36Z</time>
      </trkpt>
      <trkpt lat="45.6663" lon="2.99748">
        <ele>846.8</ele>
        <time>2025-09-28T08:21:37Z</time>
      </trkpt>
      <trkpt lat="45.66629" lon="2.99748">
        <ele>846.6</ele>
        <time>2025-09-28T08:21:38Z</time>
      </trkpt>
      <trkpt lat="45.66627" lon="2.9975">
        <ele>846.2</ele>
        <time>2025-09-28T08:21:39Z</time>
      </trkpt>
      <trkpt lat="45.66625" lon="2.99752">
        <ele>846</ele>
        <time>2025-09-28T08:21:40Z</time>
      </trkpt>
      <trkpt lat="45.66623" lon="2.99754">
        <ele>845.8</ele>
        <time>2025-09-28T08:21:41Z</time>
      </trkpt>
      <trkpt lat="45.66622" lon="2.99758">
        <ele>845.6</ele>
        <time>2025-09-28T08:21:42Z</time>
      </trkpt>
      <trkpt lat="45.66621" lon="2.99764">
        <ele>845.4</ele>
        <time>2025-09-28T08:21:43Z</time>
      </trkpt>
      <trkpt lat="45.6662" lon="2.99769">
        <ele>845.4</ele>
        <time>2025-09-28T08:21:44Z</time>
      </trkpt>
      <trkpt lat="45.66619" lon="2.99773">
        <ele>845.2</ele>
        <time>2025-09-28T08:21:45Z</time>
      </trkpt>
      <trkpt lat="45.66619" lon="2.99778">
        <ele>845.2</ele>
        <time>2025-09-28T08:21:46Z</time>
      </trkpt>
      <trkpt lat="45.6662" lon="2.99781">
        <ele>845.2</ele>
        <time>2025-09-28T08:21:47Z</time>
      </trkpt>
      <trkpt lat="45.66621" lon="2.99785">
        <ele>845.2</ele>
        <time>2025-09-28T08:21:48Z</time>
      </trkpt>
      <trkpt lat="45.66622" lon="2.9979">
        <ele>845.2</ele>
        <time>2025-09-28T08:21:49Z</time>
      </trkpt>
      <trkpt lat="45.66623" lon="2.99795">
        <ele>845.2</ele>
        <time>2025-09-28T08:21:50Z</time>
      </trkpt>
      <trkpt lat="45.66623" lon="2.99798">
        <ele>845.2</ele>
        <time>2025-09-28T08:21:51Z</time>
      </trkpt>
      <trkpt lat="45.66622" lon="2.998">
        <ele>845.2</ele>
        <time>2025-09-28T08:21:52Z</time>
      </trkpt>
      <trkpt lat="45.66623" lon="2.99802">
        <ele>845.2</ele>
        <time>2025-09-28T08:21:53Z</time>
      </trkpt>
      <trkpt lat="45.66622" lon="2.99803">
        <ele>845.2</ele>
        <time>2025-09-28T08:21:54Z</time>
      </trkpt>
      <trkpt lat="45.66623" lon="2.99806">
        <ele>845.4</ele>
        <time>2025-09-28T08:21:55Z</time>
      </trkpt>
      <trkpt lat="45.66623" lon="2.9981">
        <ele>845.4</ele>
        <time>2025-09-28T08:21:56Z</time>
      </trkpt>
      <trkpt lat="45.66623" lon="2.99815">
        <ele>845.6</ele>
        <time>2025-09-28T08:21:57Z</time>
      </trkpt>
      <trkpt lat="45.66623" lon="2.99821">
        <ele>846</ele>
        <time>2025-09-28T08:21:58Z</time>
      </trkpt>
      <trkpt lat="45.66624" lon="2.99829">
        <ele>846.4</ele>
        <time>2025-09-28T08:21:59Z</time>
      </trkpt>
      <trkpt lat="45.66626" lon="2.99836">
        <ele>846.8</ele>
        <time>2025-09-28T08:22:00Z</time>
      </trkpt>
      <trkpt lat="45.66628" lon="2.99841">
        <ele>847.2</ele>
        <time>2025-09-28T08:22:01Z</time>
      </trkpt>
      <trkpt lat="45.66629" lon="2.99844">
        <ele>847.6</ele>
        <time>2025-09-28T08:22:02Z</time>
      </trkpt>
      <trkpt lat="45.6663" lon="2.99845">
        <ele>848</ele>
        <time>2025-09-28T08:22:03Z</time>
      </trkpt>
      <trkpt lat="45.66631" lon="2.99846">
        <ele>848</ele>
        <time>2025-09-28T08:22:04Z</time>
      </trkpt>
      <trkpt lat="45.66631" lon="2.99847">
        <ele>848</ele>
        <time>2025-09-28T08:22:05Z</time>
      </trkpt>
      <trkpt lat="45.66632" lon="2.99847">
        <ele>848</ele>
        <time>2025-09-28T08:22:06Z</time>
      </trkpt>
      <trkpt lat="45.66632" lon="2.99847">
        <ele>848</ele>
        <time>2025-09-28T08:22:07Z</time>
      </trkpt>
      <trkpt lat="45.66632" lon="2.99847">
        <ele>847.8</ele>
        <time>2025-09-28T08:22:08Z</time>
      </trkpt>
      <trkpt lat="45.66632" lon="2.99847">
        <ele>847.8</ele>
        <time>2025-09-28T08:22:09Z</time>
      </trkpt>
      <trkpt lat="45.66632" lon="2.99847">
        <ele>847.6</ele>
        <time>2025-09-28T08:22:10Z</time>
      </trkpt>
      <trkpt lat="45.66632" lon="2.99847">
        <ele>847.4</ele>
        <time>2025-09-28T08:22:11Z</time>
      </trkpt>
      <trkpt lat="45.66632" lon="2.99847">
        <ele>847.4</ele>
        <time>2025-09-28T08:22:12Z</time>
      </trkpt>
      <trkpt lat="45.66633" lon="2.99851">
        <ele>846.8</ele>
        <time>2025-09-28T08:22:18Z</time>
      </trkpt>
      <trkpt lat="45.66634" lon="2.99854">
        <ele>846.8</ele>
        <time>2025-09-28T08:22:19Z</time>
      </trkpt>
      <trkpt lat="45.66634" lon="2.99856">
        <ele>846.4</ele>
        <time>2025-09-28T08:22:20Z</time>
      </trkpt>
      <trkpt lat="45.66634" lon="2.99858">
        <ele>846</ele>
        <time>2025-09-28T08:22:21Z</time>
      </trkpt>
      <trkpt lat="45.66634" lon="2.99859">
        <ele>845.6</ele>
        <time>2025-09-28T08:22:22Z</time>
      </trkpt>
      <trkpt lat="45.66634" lon="2.9986">
        <ele>845</ele>
        <time>2025-09-28T08:22:23Z</time>
      </trkpt>
      <trkpt lat="45.66634" lon="2.99863">
        <ele>844.2</ele>
        <time>2025-09-28T08:22:24Z</time>
      </trkpt>
      <trkpt lat="45.66634" lon="2.99867">
        <ele>843.4</ele>
        <time>2025-09-28T08:22:25Z</time>
      </trkpt>
      <trkpt lat="45.66633" lon="2.99873">
        <ele>842.6</ele>
        <time>2025-09-28T08:22:26Z</time>
      </trkpt>
      <trkpt lat="45.66634" lon="2.9988">
        <ele>841.8</ele>
        <time>2025-09-28T08:22:27Z</time>
      </trkpt>
      <trkpt lat="45.66634" lon="2.99887">
        <ele>841.2</ele>
        <time>2025-09-28T08:22:28Z</time>
      </trkpt>
      <trkpt lat="45.66634" lon="2.99893">
        <ele>840.8</ele>
        <time>2025-09-28T08:22:29Z</time>
      </trkpt>
      <trkpt lat="45.66635" lon="2.99899">
        <ele>840.4</ele>
        <time>2025-09-28T08:22:30Z</time>
      </trkpt>
      <trkpt lat="45.66636" lon="2.99907">
        <ele>840.2</ele>
        <time>2025-09-28T08:22:31Z</time>
      </trkpt>
      <trkpt lat="45.66637" lon="2.99914">
        <ele>840.2</ele>
        <time>2025-09-28T08:22:32Z</time>
      </trkpt>
      <trkpt lat="45.66637" lon="2.99921">
        <ele>840</ele>
        <time>2025-09-28T08:22:33Z</time>
      </trkpt>
      <trkpt lat="45.66638" lon="2.99928">
        <ele>840</ele>
        <time>2025-09-28T08:22:34Z</time>
      </trkpt>
      <trkpt lat="45.66638" lon="2.99935">
        <ele>840</ele>
        <time>2025-09-28T08:22:35Z</time>
      </trkpt>
      <trkpt lat="45.66639" lon="2.99942">
        <ele>840</ele>
        <time>2025-09-28T08:22:36Z</time>
      </trkpt>
      <trkpt lat="45.66638" lon="2.99948">
        <ele>840</ele>
        <time>2025-09-28T08:22:37Z</time>
      </trkpt>
      <trkpt lat="45.66637" lon="2.99954">
        <ele>840</ele>
        <time>2025-09-28T08:22:38Z</time>
      </trkpt>
      <trkpt lat="45.66637" lon="2.9996">
        <ele>840</ele>
        <time>2025-09-28T08:22:39Z</time>
      </trkpt>
      <trkpt lat="45.66636" lon="2.99966">
        <ele>840</ele>
        <time>2025-09-28T08:22:40Z</time>
      </trkpt>
      <trkpt lat="45.66636" lon="2.99973">
        <ele>839.8</ele>
        <time>2025-09-28T08:22:41Z</time>
      </trkpt>
      <trkpt lat="45.66635" lon="2.99978">
        <ele>840</ele>
        <time>2025-09-28T08:22:42Z</time>
      </trkpt>
      <trkpt lat="45.66634" lon="2.99984">
        <ele>840</ele>
        <time>2025-09-28T08:22:43Z</time>
      </trkpt>
      <trkpt lat="45.66633" lon="2.99991">
        <ele>840.2</ele>
        <time>2025-09-28T08:22:44Z</time>
      </trkpt>
      <trkpt lat="45.66632" lon="2.99997">
        <ele>840.4</ele>
        <time>2025-09-28T08:22:45Z</time>
      </trkpt>
      <trkpt lat="45.66631" lon="3.00002">
        <ele>840.6</ele>
        <time>2025-09-28T08:22:46Z</time>
      </trkpt>
      <trkpt lat="45.66631" lon="3.00007">
        <ele>840.6</ele>
        <time>2025-09-28T08:22:47Z</time>
      </trkpt>
      <trkpt lat="45.66631" lon="3.00012">
        <ele>840.8</ele>
        <time>2025-09-28T08:22:48Z</time>
      </trkpt>
      <trkpt lat="45.66632" lon="3.00016">
        <ele>841</ele>
        <time>2025-09-28T08:22:49Z</time>
      </trkpt>
      <trkpt lat="45.66633" lon="3.00021">
        <ele>841.2</ele>
        <time>2025-09-28T08:22:50Z</time>
      </trkpt>
      <trkpt lat="45.66635" lon="3.00024">
        <ele>841.2</ele>
        <time>2025-09-28T08:22:51Z</time>
      </trkpt>
      <trkpt lat="45.66636" lon="3.00027">
        <ele>841.4</ele>
        <time>2025-09-28T08:22:52Z</time>
      </trkpt>
      <trkpt lat="45.66637" lon="3.00031">
        <ele>841.4</ele>
        <time>2025-09-28T08:22:53Z</time>
      </trkpt>
      <trkpt lat="45.66638" lon="3.00036">
        <ele>841.4</ele>
        <time>2025-09-28T08:22:54Z</time>
      </trkpt>
      <trkpt lat="45.66638" lon="3.0004">
        <ele>841.4</ele>
        <time>2025-09-28T08:22:55Z</time>
      </trkpt>
      <trkpt lat="45.66639" lon="3.00045">
        <ele>841.4</ele>
        <time>2025-09-28T08:22:56Z</time>
      </trkpt>
      <trkpt lat="45.6664" lon="3.0005">
        <ele>841.2</ele>
        <time>2025-09-28T08:22:57Z</time>
      </trkpt>
      <trkpt lat="45.6664" lon="3.00055">
        <ele>841</ele>
        <time>2025-09-28T08:22:58Z</time>
      </trkpt>
      <trkpt lat="45.66641" lon="3.00061">
        <ele>840.6</ele>
        <time>2025-09-28T08:22:59Z</time>
      </trkpt>
      <trkpt lat="45.66642" lon="3.00067">
        <ele>840.4</ele>
        <time>2025-09-28T08:23:00Z</time>
      </trkpt>
      <trkpt lat="45.66643" lon="3.00072">
        <ele>840</ele>
        <time>2025-09-28T08:23:01Z</time>
      </trkpt>
      <trkpt lat="45.66644" lon="3.00076">
        <ele>839.6</ele>
        <time>2025-09-28T08:23:02Z</time>
      </trkpt>
      <trkpt lat="45.66646" lon="3.0008">
        <ele>839.2</ele>
        <time>2025-09-28T08:23:03Z</time>
      </trkpt>
      <trkpt lat="45.66649" lon="3.00083">
        <ele>838.8</ele>
        <time>2025-09-28T08:23:04Z</time>
      </trkpt>
      <trkpt lat="45.66651" lon="3.00086">
        <ele>838.2</ele>
        <time>2025-09-28T08:23:05Z</time>
      </trkpt>
      <trkpt lat="45.66653" lon="3.00089">
        <ele>837.6</ele>
        <time>2025-09-28T08:23:06Z</time>
      </trkpt>
      <trkpt lat="45.66654" lon="3.00093">
        <ele>837.2</ele>
        <time>2025-09-28T08:23:07Z</time>
      </trkpt>
      <trkpt lat="45.66654" lon="3.00096">
        <ele>837</ele>
        <time>2025-09-28T08:23:08Z</time>
      </trkpt>
      <trkpt lat="45.66652" lon="3.001">
        <ele>836.8</ele>
        <time>2025-09-28T08:23:09Z</time>
      </trkpt>
      <trkpt lat="45.6665" lon="3.00104">
        <ele>836.6</ele>
        <time>2025-09-28T08:23:10Z</time>
      </trkpt>
      <trkpt lat="45.66647" lon="3.00109">
        <ele>836.4</ele>
        <time>2025-09-28T08:23:11Z</time>
      </trkpt>
      <trkpt lat="45.66644" lon="3.00114">
        <ele>836.4</ele>
        <time>2025-09-28T08:23:12Z</time>
      </trkpt>
      <trkpt lat="45.66643" lon="3.00119">
        <ele>836.4</ele>
        <time>2025-09-28T08:23:13Z</time>
      </trkpt>
      <trkpt lat="45.66641" lon="3.00124">
        <ele>836.6</ele>
        <time>2025-09-28T08:23:14Z</time>
      </trkpt>
      <trkpt lat="45.6664" lon="3.0013">
        <ele>836.6</ele>
        <time>2025-09-28T08:23:15Z</time>
      </trkpt>
      <trkpt lat="45.66639" lon="3.00136">
        <ele>836.8</ele>
        <time>2025-09-28T08:23:16Z</time>
      </trkpt>
      <trkpt lat="45.66637" lon="3.00141">
        <ele>837</ele>
        <time>2025-09-28T08:23:17Z</time>
      </trkpt>
      <trkpt lat="45.66636" lon="3.00146">
        <ele>837</ele>
        <time>2025-09-28T08:23:18Z</time>
      </trkpt>
      <trkpt lat="45.66634" lon="3.0015">
        <ele>837.2</ele>
        <time>2025-09-28T08:23:19Z</time>
      </trkpt>
      <trkpt lat="45.66633" lon="3.00154">
        <ele>837.4</ele>
        <time>2025-09-28T08:23:20Z</time>
      </trkpt>
      <trkpt lat="45.66631" lon="3.00158">
        <ele>837.6</ele>
        <time>2025-09-28T08:23:21Z</time>
      </trkpt>
      <trkpt lat="45.66629" lon="3.00162">
        <ele>837.8</ele>
        <time>2025-09-28T08:23:22Z</time>
      </trkpt>
      <trkpt lat="45.66628" lon="3.00165">
        <ele>838</ele>
        <time>2025-09-28T08:23:23Z</time>
      </trkpt>
      <trkpt lat="45.66626" lon="3.00168">
        <ele>838.2</ele>
        <time>2025-09-28T08:23:24Z</time>
      </trkpt>
      <trkpt lat="45.66624" lon="3.0017">
        <ele>838.4</ele>
        <time>2025-09-28T08:23:25Z</time>
      </trkpt>
      <trkpt lat="45.66622" lon="3.00172">
        <ele>838.6</ele>
        <time>2025-09-28T08:23:26Z</time>
      </trkpt>
      <trkpt lat="45.6662" lon="3.00175">
        <ele>838.8</ele>
        <time>2025-09-28T08:23:27Z</time>
      </trkpt>
      <trkpt lat="45.66618" lon="3.00178">
        <ele>839</ele>
        <time>2025-09-28T08:23:28Z</time>
      </trkpt>
      <trkpt lat="45.66617" lon="3.00183">
        <ele>839.2</ele>
        <time>2025-09-28T08:23:29Z</time>
      </trkpt>
      <trkpt lat="45.66617" lon="3.00189">
        <ele>839.4</ele>
        <time>2025-09-28T08:23:30Z</time>
      </trkpt>
      <trkpt lat="45.66619" lon="3.00195">
        <ele>839.6</ele>
        <time>2025-09-28T08:23:31Z</time>
      </trkpt>
      <trkpt lat="45.66621" lon="3.00201">
        <ele>839.6</ele>
        <time>2025-09-28T08:23:32Z</time>
      </trkpt>
      <trkpt lat="45.66623" lon="3.00206">
        <ele>839.8</ele>
        <time>2025-09-28T08:23:33Z</time>
      </trkpt>
      <trkpt lat="45.66625" lon="3.0021">
        <ele>840</ele>
        <time>2025-09-28T08:23:34Z</time>
      </trkpt>
      <trkpt lat="45.66626" lon="3.00214">
        <ele>840</ele>
        <time>2025-09-28T08:23:35Z</time>
      </trkpt>
      <trkpt lat="45.66627" lon="3.00218">
        <ele>840.2</ele>
        <time>2025-09-28T08:23:36Z</time>
      </trkpt>
      <trkpt lat="45.66627" lon="3.00223">
        <ele>840.4</ele>
        <time>2025-09-28T08:23:37Z</time>
      </trkpt>
      <trkpt lat="45.66628" lon="3.00227">
        <ele>840.4</ele>
        <time>2025-09-28T08:23:38Z</time>
      </trkpt>
      <trkpt lat="45.66629" lon="3.0023">
        <ele>840.6</ele>
        <time>2025-09-28T08:23:39Z</time>
      </trkpt>
      <trkpt lat="45.6663" lon="3.00233">
        <ele>840.8</ele>
        <time>2025-09-28T08:23:40Z</time>
      </trkpt>
      <trkpt lat="45.66631" lon="3.00235">
        <ele>841</ele>
        <time>2025-09-28T08:23:41Z</time>
      </trkpt>
      <trkpt lat="45.66632" lon="3.00237">
        <ele>841.2</ele>
        <time>2025-09-28T08:23:42Z</time>
      </trkpt>
      <trkpt lat="45.66634" lon="3.00237">
        <ele>841.2</ele>
        <time>2025-09-28T08:23:43Z</time>
      </trkpt>
      <trkpt lat="45.66636" lon="3.00237">
        <ele>841</ele>
        <time>2025-09-28T08:23:44Z</time>
      </trkpt>
      <trkpt lat="45.66638" lon="3.00239">
        <ele>840.6</ele>
        <time>2025-09-28T08:23:45Z</time>
      </trkpt>
      <trkpt lat="45.66641" lon="3.00243">
        <ele>840.2</ele>
        <time>2025-09-28T08:23:46Z</time>
      </trkpt>
      <trkpt lat="45.66644" lon="3.00248">
        <ele>839.6</ele>
        <time>2025-09-28T08:23:47Z</time>
      </trkpt>
      <trkpt lat="45.66648" lon="3.00253">
        <ele>838.8</ele>
        <time>2025-09-28T08:23:48Z</time>
      </trkpt>
      <trkpt lat="45.66652" lon="3.00258">
        <ele>838</ele>
        <time>2025-09-28T08:23:49Z</time>
      </trkpt>
      <trkpt lat="45.66657" lon="3.00263">
        <ele>837.2</ele>
        <time>2025-09-28T08:23:50Z</time>
      </trkpt>
      <trkpt lat="45.66663" lon="3.00268">
        <ele>836.4</ele>
        <time>2025-09-28T08:23:51Z</time>
      </trkpt>
      <trkpt lat="45.66669" lon="3.00273">
        <ele>835.6</ele>
        <time>2025-09-28T08:23:52Z</time>
      </trkpt>
      <trkpt lat="45.66676" lon="3.00277">
        <ele>834.8</ele>
        <time>2025-09-28T08:23:53Z</time>
      </trkpt>
      <trkpt lat="45.66683" lon="3.00281">
        <ele>834.4</ele>
        <time>2025-09-28T08:23:54Z</time>
      </trkpt>
      <trkpt lat="45.66692" lon="3.00285">
        <ele>833.8</ele>
        <time>2025-09-28T08:23:55Z</time>
      </trkpt>
      <trkpt lat="45.66701" lon="3.00288">
        <ele>833.6</ele>
        <time>2025-09-28T08:23:56Z</time>
      </trkpt>
      <trkpt lat="45.66709" lon="3.00291">
        <ele>833.2</ele>
        <time>2025-09-28T08:23:57Z</time>
      </trkpt>
      <trkpt lat="45.66716" lon="3.00292">
        <ele>833</ele>
        <time>2025-09-28T08:23:58Z</time>
      </trkpt>
      <trkpt lat="45.66722" lon="3.00291">
        <ele>832.8</ele>
        <time>2025-09-28T08:23:59Z</time>
      </trkpt>
      <trkpt lat="45.66728" lon="3.00292">
        <ele>832.6</ele>
        <time>2025-09-28T08:24:00Z</time>
      </trkpt>
      <trkpt lat="45.66733" lon="3.00294">
        <ele>832.6</ele>
        <time>2025-09-28T08:24:01Z</time>
      </trkpt>
      <trkpt lat="45.66738" lon="3.00297">
        <ele>832.4</ele>
        <time>2025-09-28T08:24:02Z</time>
      </trkpt>
      <trkpt lat="45.66743" lon="3.003">
        <ele>832.4</ele>
        <time>2025-09-28T08:24:03Z</time>
      </trkpt>
      <trkpt lat="45.66749" lon="3.00303">
        <ele>832.4</ele>
        <time>2025-09-28T08:24:04Z</time>
      </trkpt>
      <trkpt lat="45.66754" lon="3.00306">
        <ele>832.4</ele>
        <time>2025-09-28T08:24:05Z</time>
      </trkpt>
      <trkpt lat="45.66759" lon="3.00308">
        <ele>832.6</ele>
        <time>2025-09-28T08:24:06Z</time>
      </trkpt>
      <trkpt lat="45.66765" lon="3.0031">
        <ele>832.6</ele>
        <time>2025-09-28T08:24:07Z</time>
      </trkpt>
      <trkpt lat="45.66772" lon="3.00315">
        <ele>832.8</ele>
        <time>2025-09-28T08:24:08Z</time>
      </trkpt>
      <trkpt lat="45.66779" lon="3.00321">
        <ele>832.8</ele>
        <time>2025-09-28T08:24:09Z</time>
      </trkpt>
      <trkpt lat="45.66784" lon="3.00326">
        <ele>832.8</ele>
        <time>2025-09-28T08:24:10Z</time>
      </trkpt>
      <trkpt lat="45.66789" lon="3.0033">
        <ele>832.6</ele>
        <time>2025-09-28T08:24:11Z</time>
      </trkpt>
      <trkpt lat="45.66794" lon="3.00334">
        <ele>832.6</ele>
        <time>2025-09-28T08:24:12Z</time>
      </trkpt>
      <trkpt lat="45.668" lon="3.00341">
        <ele>832.4</ele>
        <time>2025-09-28T08:24:13Z</time>
      </trkpt>
      <trkpt lat="45.66804" lon="3.00348">
        <ele>832.4</ele>
        <time>2025-09-28T08:24:14Z</time>
      </trkpt>
      <trkpt lat="45.66809" lon="3.00353">
        <ele>832.2</ele>
        <time>2025-09-28T08:24:15Z</time>
      </trkpt>
      <trkpt lat="45.66814" lon="3.00357">
        <ele>832.2</ele>
        <time>2025-09-28T08:24:16Z</time>
      </trkpt>
      <trkpt lat="45.66819" lon="3.00361">
        <ele>832.2</ele>
        <time>2025-09-28T08:24:17Z</time>
      </trkpt>
      <trkpt lat="45.66823" lon="3.00367">
        <ele>832.2</ele>
        <time>2025-09-28T08:24:18Z</time>
      </trkpt>
      <trkpt lat="45.66826" lon="3.00372">
        <ele>832</ele>
        <time>2025-09-28T08:24:19Z</time>
      </trkpt>
      <trkpt lat="45.66828" lon="3.00377">
        <ele>831.8</ele>
        <time>2025-09-28T08:24:20Z</time>
      </trkpt>
      <trkpt lat="45.6683" lon="3.00382">
        <ele>831.4</ele>
        <time>2025-09-28T08:24:21Z</time>
      </trkpt>
      <trkpt lat="45.66832" lon="3.00387">
        <ele>831</ele>
        <time>2025-09-28T08:24:22Z</time>
      </trkpt>
      <trkpt lat="45.66834" lon="3.00392">
        <ele>830.6</ele>
        <time>2025-09-28T08:24:23Z</time>
      </trkpt>
      <trkpt lat="45.66835" lon="3.00398">
        <ele>830</ele>
        <time>2025-09-28T08:24:24Z</time>
      </trkpt>
      <trkpt lat="45.66834" lon="3.00404">
        <ele>829.2</ele>
        <time>2025-09-28T08:24:25Z</time>
      </trkpt>
      <trkpt lat="45.66832" lon="3.00409">
        <ele>828.4</ele>
        <time>2025-09-28T08:24:26Z</time>
      </trkpt>
      <trkpt lat="45.66826" lon="3.00415">
        <ele>827.8</ele>
        <time>2025-09-28T08:24:27Z</time>
      </trkpt>
      <trkpt lat="45.66818" lon="3.00423">
        <ele>827.4</ele>
        <time>2025-09-28T08:24:28Z</time>
      </trkpt>
      <trkpt lat="45.66812" lon="3.00431">
        <ele>827</ele>
        <time>2025-09-28T08:24:29Z</time>
      </trkpt>
      <trkpt lat="45.66806" lon="3.00438">
        <ele>826.6</ele>
        <time>2025-09-28T08:24:30Z</time>
      </trkpt>
      <trkpt lat="45.66802" lon="3.00445">
        <ele>826.4</ele>
        <time>2025-09-28T08:24:31Z</time>
      </trkpt>
      <trkpt lat="45.66798" lon="3.00451">
        <ele>826.2</ele>
        <time>2025-09-28T08:24:32Z</time>
      </trkpt>
      <trkpt lat="45.66793" lon="3.00456">
        <ele>825.8</ele>
        <time>2025-09-28T08:24:33Z</time>
      </trkpt>
      <trkpt lat="45.66788" lon="3.00459">
        <ele>825.6</ele>
        <time>2025-09-28T08:24:34Z</time>
      </trkpt>
      <trkpt lat="45.66782" lon="3.00463">
        <ele>825.4</ele>
        <time>2025-09-28T08:24:35Z</time>
      </trkpt>
      <trkpt lat="45.66775" lon="3.0047">
        <ele>825</ele>
        <time>2025-09-28T08:24:36Z</time>
      </trkpt>
      <trkpt lat="45.66769" lon="3.00476">
        <ele>824.8</ele>
        <time>2025-09-28T08:24:37Z</time>
      </trkpt>
      <trkpt lat="45.66765" lon="3.00479">
        <ele>824.8</ele>
        <time>2025-09-28T08:24:38Z</time>
      </trkpt>
      <trkpt lat="45.6676" lon="3.00483">
        <ele>824.8</ele>
        <time>2025-09-28T08:24:39Z</time>
      </trkpt>
      <trkpt lat="45.66754" lon="3.00487">
        <ele>825</ele>
        <time>2025-09-28T08:24:40Z</time>
      </trkpt>
      <trkpt lat="45.66749" lon="3.00491">
        <ele>825</ele>
        <time>2025-09-28T08:24:41Z</time>
      </trkpt>
      <trkpt lat="45.66745" lon="3.00494">
        <ele>825.2</ele>
        <time>2025-09-28T08:24:42Z</time>
      </trkpt>
      <trkpt lat="45.6674" lon="3.00497">
        <ele>825.4</ele>
        <time>2025-09-28T08:24:43Z</time>
      </trkpt>
      <trkpt lat="45.66736" lon="3.00499">
        <ele>825.6</ele>
        <time>2025-09-28T08:24:44Z</time>
      </trkpt>
      <trkpt lat="45.66732" lon="3.00501">
        <ele>826</ele>
        <time>2025-09-28T08:24:45Z</time>
      </trkpt>
      <trkpt lat="45.66729" lon="3.00502">
        <ele>826.2</ele>
        <time>2025-09-28T08:24:46Z</time>
      </trkpt>
      <trkpt lat="45.66726" lon="3.00504">
        <ele>826.4</ele>
        <time>2025-09-28T08:24:47Z</time>
      </trkpt>
      <trkpt lat="45.66724" lon="3.00506">
        <ele>826.6</ele>
        <time>2025-09-28T08:24:48Z</time>
      </trkpt>
      <trkpt lat="45.6672" lon="3.00508">
        <ele>826.8</ele>
        <time>2025-09-28T08:24:49Z</time>
      </trkpt>
      <trkpt lat="45.66718" lon="3.00511">
        <ele>827</ele>
        <time>2025-09-28T08:24:50Z</time>
      </trkpt>
      <trkpt lat="45.66716" lon="3.00515">
        <ele>827.2</ele>
        <time>2025-09-28T08:24:51Z</time>
      </trkpt>
      <trkpt lat="45.66714" lon="3.00519">
        <ele>827.2</ele>
        <time>2025-09-28T08:24:52Z</time>
      </trkpt>
      <trkpt lat="45.66712" lon="3.00523">
        <ele>827.2</ele>
        <time>2025-09-28T08:24:53Z</time>
      </trkpt>
      <trkpt lat="45.66709" lon="3.00527">
        <ele>827.2</ele>
        <time>2025-09-28T08:24:54Z</time>
      </trkpt>
      <trkpt lat="45.66705" lon="3.0053">
        <ele>827.2</ele>
        <time>2025-09-28T08:24:55Z</time>
      </trkpt>
      <trkpt lat="45.667" lon="3.00534">
        <ele>826.8</ele>
        <time>2025-09-28T08:24:56Z</time>
      </trkpt>
      <trkpt lat="45.66695" lon="3.00539">
        <ele>826.6</ele>
        <time>2025-09-28T08:24:57Z</time>
      </trkpt>
      <trkpt lat="45.66689" lon="3.00546">
        <ele>826.2</ele>
        <time>2025-09-28T08:24:58Z</time>
      </trkpt>
      <trkpt lat="45.66683" lon="3.00552">
        <ele>825.8</ele>
        <time>2025-09-28T08:24:59Z</time>
      </trkpt>
      <trkpt lat="45.66676" lon="3.00558">
        <ele>825.4</ele>
        <time>2025-09-28T08:25:00Z</time>
      </trkpt>
      <trkpt lat="45.6667" lon="3.00562">
        <ele>825</ele>
        <time>2025-09-28T08:25:01Z</time>
      </trkpt>
      <trkpt lat="45.66664" lon="3.00566">
        <ele>824.6</ele>
        <time>2025-09-28T08:25:02Z</time>
      </trkpt>
      <trkpt lat="45.66658" lon="3.0057">
        <ele>824.2</ele>
        <time>2025-09-28T08:25:03Z</time>
      </trkpt>
      <trkpt lat="45.66653" lon="3.00576">
        <ele>823.8</ele>
        <time>2025-09-28T08:25:04Z</time>
      </trkpt>
      <trkpt lat="45.66647" lon="3.00582">
        <ele>823.2</ele>
        <time>2025-09-28T08:25:05Z</time>
      </trkpt>
      <trkpt lat="45.66641" lon="3.00588">
        <ele>822.8</ele>
        <time>2025-09-28T08:25:06Z</time>
      </trkpt>
      <trkpt lat="45.66636" lon="3.00593">
        <ele>822.2</ele>
        <time>2025-09-28T08:25:07Z</time>
      </trkpt>
      <trkpt lat="45.6663" lon="3.00598">
        <ele>821.6</ele>
        <time>2025-09-28T08:25:08Z</time>
      </trkpt>
      <trkpt lat="45.66625" lon="3.00602">
        <ele>821</ele>
        <time>2025-09-28T08:25:09Z</time>
      </trkpt>
      <trkpt lat="45.6662" lon="3.00605">
        <ele>820.4</ele>
        <time>2025-09-28T08:25:10Z</time>
      </trkpt>
      <trkpt lat="45.66615" lon="3.0061">
        <ele>820</ele>
        <time>2025-09-28T08:25:11Z</time>
      </trkpt>
      <trkpt lat="45.6661" lon="3.00617">
        <ele>819.4</ele>
        <time>2025-09-28T08:25:12Z</time>
      </trkpt>
      <trkpt lat="45.66607" lon="3.00624">
        <ele>819.2</ele>
        <time>2025-09-28T08:25:13Z</time>
      </trkpt>
      <trkpt lat="45.66605" lon="3.00632">
        <ele>818.8</ele>
        <time>2025-09-28T08:25:14Z</time>
      </trkpt>
      <trkpt lat="45.66603" lon="3.00641">
        <ele>818.6</ele>
        <time>2025-09-28T08:25:15Z</time>
      </trkpt>
      <trkpt lat="45.66599" lon="3.0065">
        <ele>818.4</ele>
        <time>2025-09-28T08:25:16Z</time>
      </trkpt>
      <trkpt lat="45.66594" lon="3.00659">
        <ele>818.4</ele>
        <time>2025-09-28T08:25:17Z</time>
      </trkpt>
      <trkpt lat="45.66587" lon="3.00668">
        <ele>818.2</ele>
        <time>2025-09-28T08:25:18Z</time>
      </trkpt>
      <trkpt lat="45.6658" lon="3.00677">
        <ele>818.2</ele>
        <time>2025-09-28T08:25:19Z</time>
      </trkpt>
      <trkpt lat="45.66574" lon="3.00684">
        <ele>818.2</ele>
        <time>2025-09-28T08:25:20Z</time>
      </trkpt>
      <trkpt lat="45.66569" lon="3.0069">
        <ele>818.2</ele>
        <time>2025-09-28T08:25:21Z</time>
      </trkpt>
      <trkpt lat="45.66566" lon="3.00696">
        <ele>818</ele>
        <time>2025-09-28T08:25:22Z</time>
      </trkpt>
      <trkpt lat="45.66562" lon="3.00702">
        <ele>818</ele>
        <time>2025-09-28T08:25:23Z</time>
      </trkpt>
      <trkpt lat="45.66556" lon="3.00708">
        <ele>818</ele>
        <time>2025-09-28T08:25:24Z</time>
      </trkpt>
      <trkpt lat="45.6655" lon="3.00713">
        <ele>818</ele>
        <time>2025-09-28T08:25:25Z</time>
      </trkpt>
      <trkpt lat="45.66544" lon="3.00716">
        <ele>817.8</ele>
        <time>2025-09-28T08:25:26Z</time>
      </trkpt>
      <trkpt lat="45.66539" lon="3.0072">
        <ele>817.8</ele>
        <time>2025-09-28T08:25:27Z</time>
      </trkpt>
      <trkpt lat="45.66534" lon="3.00723">
        <ele>817.6</ele>
        <time>2025-09-28T08:25:28Z</time>
      </trkpt>
      <trkpt lat="45.66529" lon="3.00726">
        <ele>817.6</ele>
        <time>2025-09-28T08:25:29Z</time>
      </trkpt>
      <trkpt lat="45.66525" lon="3.0073">
        <ele>817.4</ele>
        <time>2025-09-28T08:25:30Z</time>
      </trkpt>
      <trkpt lat="45.66521" lon="3.00733">
        <ele>817</ele>
        <time>2025-09-28T08:25:31Z</time>
      </trkpt>
      <trkpt lat="45.66516" lon="3.00738">
        <ele>816.8</ele>
        <time>2025-09-28T08:25:32Z</time>
      </trkpt>
      <trkpt lat="45.66511" lon="3.00743">
        <ele>816.4</ele>
        <time>2025-09-28T08:25:33Z</time>
      </trkpt>
      <trkpt lat="45.66506" lon="3.00748">
        <ele>816.2</ele>
        <time>2025-09-28T08:25:34Z</time>
      </trkpt>
      <trkpt lat="45.66501" lon="3.00754">
        <ele>816</ele>
        <time>2025-09-28T08:25:35Z</time>
      </trkpt>
      <trkpt lat="45.66496" lon="3.0076">
        <ele>815.8</ele>
        <time>2025-09-28T08:25:36Z</time>
      </trkpt>
      <trkpt lat="45.66491" lon="3.00766">
        <ele>815.6</ele>
        <time>2025-09-28T08:25:37Z</time>
      </trkpt>
      <trkpt lat="45.66487" lon="3.00772">
        <ele>815.4</ele>
        <time>2025-09-28T08:25:38Z</time>
      </trkpt>
      <trkpt lat="45.66482" lon="3.00778">
        <ele>815.2</ele>
        <time>2025-09-28T08:25:39Z</time>
      </trkpt>
      <trkpt lat="45.66478" lon="3.00784">
        <ele>814.8</ele>
        <time>2025-09-28T08:25:40Z</time>
      </trkpt>
      <trkpt lat="45.66474" lon="3.0079">
        <ele>814.6</ele>
        <time>2025-09-28T08:25:41Z</time>
      </trkpt>
      <trkpt lat="45.6647" lon="3.00794">
        <ele>814.2</ele>
        <time>2025-09-28T08:25:42Z</time>
      </trkpt>
      <trkpt lat="45.66467" lon="3.00798">
        <ele>813.8</ele>
        <time>2025-09-28T08:25:43Z</time>
      </trkpt>
      <trkpt lat="45.66466" lon="3.00802">
        <ele>813.4</ele>
        <time>2025-09-28T08:25:44Z</time>
      </trkpt>
      <trkpt lat="45.66465" lon="3.00807">
        <ele>813</ele>
        <time>2025-09-28T08:25:45Z</time>
      </trkpt>
      <trkpt lat="45.66466" lon="3.00811">
        <ele>812.6</ele>
        <time>2025-09-28T08:25:46Z</time>
      </trkpt>
      <trkpt lat="45.66468" lon="3.00816">
        <ele>812.2</ele>
        <time>2025-09-28T08:25:47Z</time>
      </trkpt>
      <trkpt lat="45.66471" lon="3.00819">
        <ele>811.8</ele>
        <time>2025-09-28T08:25:48Z</time>
      </trkpt>
      <trkpt lat="45.66475" lon="3.00822">
        <ele>811.4</ele>
        <time>2025-09-28T08:25:49Z</time>
      </trkpt>
      <trkpt lat="45.66479" lon="3.00825">
        <ele>811</ele>
        <time>2025-09-28T08:25:50Z</time>
      </trkpt>
      <trkpt lat="45.66484" lon="3.00828">
        <ele>810.4</ele>
        <time>2025-09-28T08:25:51Z</time>
      </trkpt>
      <trkpt lat="45.6649" lon="3.00834">
        <ele>810</ele>
        <time>2025-09-28T08:25:52Z</time>
      </trkpt>
      <trkpt lat="45.66497" lon="3.00841">
        <ele>809.6</ele>
        <time>2025-09-28T08:25:53Z</time>
      </trkpt>
      <trkpt lat="45.66504" lon="3.00848">
        <ele>809.2</ele>
        <time>2025-09-28T08:25:54Z</time>
      </trkpt>
      <trkpt lat="45.66511" lon="3.00855">
        <ele>808.8</ele>
        <time>2025-09-28T08:25:55Z</time>
      </trkpt>
      <trkpt lat="45.66517" lon="3.00861">
        <ele>808.4</ele>
        <time>2025-09-28T08:25:56Z</time>
      </trkpt>
      <trkpt lat="45.66523" lon="3.00867">
        <ele>808.2</ele>
        <time>2025-09-28T08:25:57Z</time>
      </trkpt>
      <trkpt lat="45.66529" lon="3.00873">
        <ele>807.8</ele>
        <time>2025-09-28T08:25:58Z</time>
      </trkpt>
      <trkpt lat="45.66535" lon="3.00877">
        <ele>807.2</ele>
        <time>2025-09-28T08:25:59Z</time>
      </trkpt>
      <trkpt lat="45.6654" lon="3.00881">
        <ele>806.4</ele>
        <time>2025-09-28T08:26:00Z</time>
      </trkpt>
      <trkpt lat="45.66546" lon="3.00884">
        <ele>805.8</ele>
        <time>2025-09-28T08:26:01Z</time>
      </trkpt>
      <trkpt lat="45.66553" lon="3.00886">
        <ele>805.2</ele>
        <time>2025-09-28T08:26:02Z</time>
      </trkpt>
      <trkpt lat="45.6656" lon="3.00889">
        <ele>804.8</ele>
        <time>2025-09-28T08:26:03Z</time>
      </trkpt>
      <trkpt lat="45.66567" lon="3.0089">
        <ele>804.4</ele>
        <time>2025-09-28T08:26:04Z</time>
      </trkpt>
      <trkpt lat="45.66573" lon="3.00888">
        <ele>804.2</ele>
        <time>2025-09-28T08:26:05Z</time>
      </trkpt>
      <trkpt lat="45.66578" lon="3.00884">
        <ele>804</ele>
        <time>2025-09-28T08:26:06Z</time>
      </trkpt>
      <trkpt lat="45.66583" lon="3.00879">
        <ele>804</ele>
        <time>2025-09-28T08:26:07Z</time>
      </trkpt>
      <trkpt lat="45.66587" lon="3.00874">
        <ele>804</ele>
        <time>2025-09-28T08:26:08Z</time>
      </trkpt>
      <trkpt lat="45.66592" lon="3.0087">
        <ele>804</ele>
        <time>2025-09-28T08:26:09Z</time>
      </trkpt>
      <trkpt lat="45.66597" lon="3.00867">
        <ele>804</ele>
        <time>2025-09-28T08:26:10Z</time>
      </trkpt>
      <trkpt lat="45.66601" lon="3.00865">
        <ele>804</ele>
        <time>2025-09-28T08:26:11Z</time>
      </trkpt>
      <trkpt lat="45.66604" lon="3.00864">
        <ele>804.2</ele>
        <time>2025-09-28T08:26:12Z</time>
      </trkpt>
      <trkpt lat="45.66608" lon="3.00864">
        <ele>804.2</ele>
        <time>2025-09-28T08:26:13Z</time>
      </trkpt>
      <trkpt lat="45.66612" lon="3.00865">
        <ele>804.2</ele>
        <time>2025-09-28T08:26:14Z</time>
      </trkpt>
      <trkpt lat="45.66616" lon="3.00868">
        <ele>804</ele>
        <time>2025-09-28T08:26:15Z</time>
      </trkpt>
      <trkpt lat="45.66619" lon="3.0087">
        <ele>803.8</ele>
        <time>2025-09-28T08:26:16Z</time>
      </trkpt>
      <trkpt lat="45.66621" lon="3.00872">
        <ele>803.6</ele>
        <time>2025-09-28T08:26:17Z</time>
      </trkpt>
      <trkpt lat="45.66622" lon="3.00874">
        <ele>803.4</ele>
        <time>2025-09-28T08:26:18Z</time>
      </trkpt>
      <trkpt lat="45.66622" lon="3.00876">
        <ele>803.4</ele>
        <time>2025-09-28T08:26:19Z</time>
      </trkpt>
      <trkpt lat="45.66624" lon="3.00878">
        <ele>803.2</ele>
        <time>2025-09-28T08:26:20Z</time>
      </trkpt>
      <trkpt lat="45.66626" lon="3.00881">
        <ele>803</ele>
        <time>2025-09-28T08:26:21Z</time>
      </trkpt>
      <trkpt lat="45.66628" lon="3.00885">
        <ele>803</ele>
        <time>2025-09-28T08:26:22Z</time>
      </trkpt>
      <trkpt lat="45.6663" lon="3.00889">
        <ele>803</ele>
        <time>2025-09-28T08:26:23Z</time>
      </trkpt>
      <trkpt lat="45.66631" lon="3.00894">
        <ele>803.2</ele>
        <time>2025-09-28T08:26:24Z</time>
      </trkpt>
      <trkpt lat="45.66632" lon="3.00899">
        <ele>803.2</ele>
        <time>2025-09-28T08:26:25Z</time>
      </trkpt>
      <trkpt lat="45.66632" lon="3.00903">
        <ele>803.2</ele>
        <time>2025-09-28T08:26:26Z</time>
      </trkpt>
      <trkpt lat="45.6663" lon="3.00908">
        <ele>803.2</ele>
        <time>2025-09-28T08:26:27Z</time>
      </trkpt>
      <trkpt lat="45.66627" lon="3.00912">
        <ele>803.2</ele>
        <time>2025-09-28T08:26:28Z</time>
      </trkpt>
      <trkpt lat="45.66625" lon="3.00916">
        <ele>803.4</ele>
        <time>2025-09-28T08:26:29Z</time>
      </trkpt>
      <trkpt lat="45.66623" lon="3.0092">
        <ele>803.4</ele>
        <time>2025-09-28T08:26:30Z</time>
      </trkpt>
      <trkpt lat="45.66622" lon="3.00924">
        <ele>803.4</ele>
        <time>2025-09-28T08:26:31Z</time>
      </trkpt>
      <trkpt lat="45.66621" lon="3.00928">
        <ele>803.6</ele>
        <time>2025-09-28T08:26:32Z</time>
      </trkpt>
      <trkpt lat="45.6662" lon="3.00932">
        <ele>803.6</ele>
        <time>2025-09-28T08:26:33Z</time>
      </trkpt>
      <trkpt lat="45.66618" lon="3.00936">
        <ele>803.8</ele>
        <time>2025-09-28T08:26:34Z</time>
      </trkpt>
      <trkpt lat="45.66616" lon="3.00941">
        <ele>803.8</ele>
        <time>2025-09-28T08:26:35Z</time>
      </trkpt>
      <trkpt lat="45.66614" lon="3.00946">
        <ele>804</ele>
        <time>2025-09-28T08:26:36Z</time>
      </trkpt>
      <trkpt lat="45.66613" lon="3.00951">
        <ele>804</ele>
        <time>2025-09-28T08:26:37Z</time>
      </trkpt>
      <trkpt lat="45.66612" lon="3.00956">
        <ele>804</ele>
        <time>2025-09-28T08:26:38Z</time>
      </trkpt>
      <trkpt lat="45.66612" lon="3.00961">
        <ele>804.2</ele>
        <time>2025-09-28T08:26:39Z</time>
      </trkpt>
      <trkpt lat="45.66611" lon="3.00967">
        <ele>804.2</ele>
        <time>2025-09-28T08:26:40Z</time>
      </trkpt>
      <trkpt lat="45.66611" lon="3.00972">
        <ele>804.2</ele>
        <time>2025-09-28T08:26:41Z</time>
      </trkpt>
      <trkpt lat="45.66611" lon="3.00977">
        <ele>804.2</ele>
        <time>2025-09-28T08:26:42Z</time>
      </trkpt>
      <trkpt lat="45.6661" lon="3.00982">
        <ele>804.2</ele>
        <time>2025-09-28T08:26:43Z</time>
      </trkpt>
      <trkpt lat="45.6661" lon="3.00987">
        <ele>803.8</ele>
        <time>2025-09-28T08:26:44Z</time>
      </trkpt>
      <trkpt lat="45.66611" lon="3.00992">
        <ele>803.6</ele>
        <time>2025-09-28T08:26:45Z</time>
      </trkpt>
      <trkpt lat="45.66612" lon="3.00998">
        <ele>803</ele>
        <time>2025-09-28T08:26:46Z</time>
      </trkpt>
      <trkpt lat="45.66614" lon="3.01003">
        <ele>802.6</ele>
        <time>2025-09-28T08:26:47Z</time>
      </trkpt>
      <trkpt lat="45.66618" lon="3.01009">
        <ele>801.8</ele>
        <time>2025-09-28T08:26:48Z</time>
      </trkpt>
      <trkpt lat="45.66622" lon="3.01014">
        <ele>801.2</ele>
        <time>2025-09-28T08:26:49Z</time>
      </trkpt>
      <trkpt lat="45.66627" lon="3.01019">
        <ele>800.4</ele>
        <time>2025-09-28T08:26:50Z</time>
      </trkpt>
      <trkpt lat="45.66632" lon="3.01024">
        <ele>799.8</ele>
        <time>2025-09-28T08:26:51Z</time>
      </trkpt>
      <trkpt lat="45.66639" lon="3.01031">
        <ele>799.2</ele>
        <time>2025-09-28T08:26:52Z</time>
      </trkpt>
      <trkpt lat="45.66646" lon="3.01038">
        <ele>798.6</ele>
        <time>2025-09-28T08:26:53Z</time>
      </trkpt>
      <trkpt lat="45.66652" lon="3.01046">
        <ele>798</ele>
        <time>2025-09-28T08:26:54Z</time>
      </trkpt>
      <trkpt lat="45.66656" lon="3.01055">
        <ele>797.6</ele>
        <time>2025-09-28T08:26:55Z</time>
      </trkpt>
      <trkpt lat="45.66658" lon="3.01065">
        <ele>797.2</ele>
        <time>2025-09-28T08:26:56Z</time>
      </trkpt>
      <trkpt lat="45.66657" lon="3.01075">
        <ele>797</ele>
        <time>2025-09-28T08:26:57Z</time>
      </trkpt>
      <trkpt lat="45.66656" lon="3.01085">
        <ele>796.8</ele>
        <time>2025-09-28T08:26:58Z</time>
      </trkpt>
      <trkpt lat="45.66656" lon="3.01095">
        <ele>796.6</ele>
        <time>2025-09-28T08:26:59Z</time>
      </trkpt>
      <trkpt lat="45.66657" lon="3.01103">
        <ele>796.6</ele>
        <time>2025-09-28T08:27:00Z</time>
      </trkpt>
      <trkpt lat="45.6666" lon="3.01111">
        <ele>796.6</ele>
        <time>2025-09-28T08:27:01Z</time>
      </trkpt>
      <trkpt lat="45.66663" lon="3.01119">
        <ele>796.8</ele>
        <time>2025-09-28T08:27:02Z</time>
      </trkpt>
      <trkpt lat="45.66665" lon="3.01126">
        <ele>796.8</ele>
        <time>2025-09-28T08:27:03Z</time>
      </trkpt>
      <trkpt lat="45.66666" lon="3.01132">
        <ele>797</ele>
        <time>2025-09-28T08:27:04Z</time>
      </trkpt>
      <trkpt lat="45.66668" lon="3.01138">
        <ele>797</ele>
        <time>2025-09-28T08:27:05Z</time>
      </trkpt>
      <trkpt lat="45.66671" lon="3.01145">
        <ele>797</ele>
        <time>2025-09-28T08:27:06Z</time>
      </trkpt>
      <trkpt lat="45.66675" lon="3.01152">
        <ele>796.8</ele>
        <time>2025-09-28T08:27:07Z</time>
      </trkpt>
      <trkpt lat="45.6668" lon="3.0116">
        <ele>796.8</ele>
        <time>2025-09-28T08:27:08Z</time>
      </trkpt>
      <trkpt lat="45.66685" lon="3.01169">
        <ele>796.6</ele>
        <time>2025-09-28T08:27:09Z</time>
      </trkpt>
      <trkpt lat="45.6669" lon="3.01177">
        <ele>796.4</ele>
        <time>2025-09-28T08:27:10Z</time>
      </trkpt>
      <trkpt lat="45.66695" lon="3.01184">
        <ele>796</ele>
        <time>2025-09-28T08:27:11Z</time>
      </trkpt>
      <trkpt lat="45.667" lon="3.01193">
        <ele>795.8</ele>
        <time>2025-09-28T08:27:12Z</time>
      </trkpt>
      <trkpt lat="45.66706" lon="3.012">
        <ele>795.4</ele>
        <time>2025-09-28T08:27:13Z</time>
      </trkpt>
      <trkpt lat="45.66711" lon="3.01207">
        <ele>795</ele>
        <time>2025-09-28T08:27:14Z</time>
      </trkpt>
      <trkpt lat="45.66717" lon="3.01212">
        <ele>794.8</ele>
        <time>2025-09-28T08:27:15Z</time>
      </trkpt>
      <trkpt lat="45.66722" lon="3.01214">
        <ele>794.6</ele>
        <time>2025-09-28T08:27:16Z</time>
      </trkpt>
      <trkpt lat="45.66726" lon="3.01215">
        <ele>794.4</ele>
        <time>2025-09-28T08:27:17Z</time>
      </trkpt>
      <trkpt lat="45.66731" lon="3.01214">
        <ele>794.4</ele>
        <time>2025-09-28T08:27:18Z</time>
      </trkpt>
      <trkpt lat="45.66735" lon="3.01214">
        <ele>794.2</ele>
        <time>2025-09-28T08:27:19Z</time>
      </trkpt>
      <trkpt lat="45.66737" lon="3.01215">
        <ele>794.2</ele>
        <time>2025-09-28T08:27:20Z</time>
      </trkpt>
      <trkpt lat="45.66739" lon="3.01217">
        <ele>794.2</ele>
        <time>2025-09-28T08:27:21Z</time>
      </trkpt>
      <trkpt lat="45.66739" lon="3.01218">
        <ele>794.2</ele>
        <time>2025-09-28T08:27:22Z</time>
      </trkpt>
      <trkpt lat="45.66741" lon="3.0122">
        <ele>794.2</ele>
        <time>2025-09-28T08:27:23Z</time>
      </trkpt>
      <trkpt lat="45.66742" lon="3.01222">
        <ele>794.4</ele>
        <time>2025-09-28T08:27:24Z</time>
      </trkpt>
      <trkpt lat="45.66744" lon="3.01223">
        <ele>794.4</ele>
        <time>2025-09-28T08:27:25Z</time>
      </trkpt>
      <trkpt lat="45.66747" lon="3.01224">
        <ele>794.4</ele>
        <time>2025-09-28T08:27:26Z</time>
      </trkpt>
      <trkpt lat="45.66751" lon="3.01224">
        <ele>794.4</ele>
        <time>2025-09-28T08:27:27Z</time>
      </trkpt>
      <trkpt lat="45.66754" lon="3.01224">
        <ele>794.6</ele>
        <time>2025-09-28T08:27:28Z</time>
      </trkpt>
      <trkpt lat="45.66758" lon="3.01224">
        <ele>795</ele>
        <time>2025-09-28T08:27:29Z</time>
      </trkpt>
      <trkpt lat="45.66761" lon="3.01222">
        <ele>795.2</ele>
        <time>2025-09-28T08:27:30Z</time>
      </trkpt>
      <trkpt lat="45.66764" lon="3.0122">
        <ele>795.4</ele>
        <time>2025-09-28T08:27:31Z</time>
      </trkpt>
      <trkpt lat="45.66767" lon="3.01218">
        <ele>795.8</ele>
        <time>2025-09-28T08:27:32Z</time>
      </trkpt>
      <trkpt lat="45.66769" lon="3.01216">
        <ele>796.2</ele>
        <time>2025-09-28T08:27:33Z</time>
      </trkpt>
      <trkpt lat="45.6677" lon="3.01214">
        <ele>796.4</ele>
        <time>2025-09-28T08:27:34Z</time>
      </trkpt>
      <trkpt lat="45.66772" lon="3.01213">
        <ele>796.8</ele>
        <time>2025-09-28T08:27:35Z</time>
      </trkpt>
      <trkpt lat="45.66773" lon="3.01212">
        <ele>797</ele>
        <time>2025-09-28T08:27:36Z</time>
      </trkpt>
      <trkpt lat="45.66774" lon="3.01211">
        <ele>797.2</ele>
        <time>2025-09-28T08:27:37Z</time>
      </trkpt>
      <trkpt lat="45.66775" lon="3.0121">
        <ele>797.4</ele>
        <time>2025-09-28T08:27:38Z</time>
      </trkpt>
      <trkpt lat="45.66777" lon="3.01209">
        <ele>797.6</ele>
        <time>2025-09-28T08:27:39Z</time>
      </trkpt>
      <trkpt lat="45.66779" lon="3.01207">
        <ele>797.8</ele>
        <time>2025-09-28T08:27:40Z</time>
      </trkpt>
      <trkpt lat="45.6678" lon="3.01205">
        <ele>798</ele>
        <time>2025-09-28T08:27:41Z</time>
      </trkpt>
      <trkpt lat="45.66782" lon="3.01203">
        <ele>798.2</ele>
        <time>2025-09-28T08:27:42Z</time>
      </trkpt>
      <trkpt lat="45.66784" lon="3.01202">
        <ele>798.4</ele>
        <time>2025-09-28T08:27:43Z</time>
      </trkpt>
      <trkpt lat="45.66785" lon="3.01201">
        <ele>798.6</ele>
        <time>2025-09-28T08:27:44Z</time>
      </trkpt>
      <trkpt lat="45.66787" lon="3.01201">
        <ele>798.8</ele>
        <time>2025-09-28T08:27:45Z</time>
      </trkpt>
      <trkpt lat="45.66789" lon="3.012">
        <ele>799</ele>
        <time>2025-09-28T08:27:46Z</time>
      </trkpt>
      <trkpt lat="45.66791" lon="3.01199">
        <ele>799.2</ele>
        <time>2025-09-28T08:27:47Z</time>
      </trkpt>
      <trkpt lat="45.66794" lon="3.01197">
        <ele>799.2</ele>
        <time>2025-09-28T08:27:48Z</time>
      </trkpt>
      <trkpt lat="45.66796" lon="3.01195">
        <ele>799.2</ele>
        <time>2025-09-28T08:27:49Z</time>
      </trkpt>
      <trkpt lat="45.66799" lon="3.01194">
        <ele>799.4</ele>
        <time>2025-09-28T08:27:50Z</time>
      </trkpt>
      <trkpt lat="45.66801" lon="3.01193">
        <ele>799.4</ele>
        <time>2025-09-28T08:27:51Z</time>
      </trkpt>
      <trkpt lat="45.66804" lon="3.01191">
        <ele>799.4</ele>
        <time>2025-09-28T08:27:52Z</time>
      </trkpt>
      <trkpt lat="45.66807" lon="3.01189">
        <ele>799.4</ele>
        <time>2025-09-28T08:27:53Z</time>
      </trkpt>
      <trkpt lat="45.6681" lon="3.01187">
        <ele>799.6</ele>
        <time>2025-09-28T08:27:54Z</time>
      </trkpt>
      <trkpt lat="45.66813" lon="3.01185">
        <ele>799.6</ele>
        <time>2025-09-28T08:27:55Z</time>
      </trkpt>
      <trkpt lat="45.66815" lon="3.01184">
        <ele>799.8</ele>
        <time>2025-09-28T08:27:56Z</time>
      </trkpt>
      <trkpt lat="45.66818" lon="3.01182">
        <ele>800</ele>
        <time>2025-09-28T08:27:57Z</time>
      </trkpt>
      <trkpt lat="45.66822" lon="3.01181">
        <ele>800.2</ele>
        <time>2025-09-28T08:27:58Z</time>
      </trkpt>
      <trkpt lat="45.66827" lon="3.01179">
        <ele>800.4</ele>
        <time>2025-09-28T08:27:59Z</time>
      </trkpt>
      <trkpt lat="45.66831" lon="3.01177">
        <ele>800.6</ele>
        <time>2025-09-28T08:28:00Z</time>
      </trkpt>
      <trkpt lat="45.66834" lon="3.01174">
        <ele>801</ele>
        <time>2025-09-28T08:28:01Z</time>
      </trkpt>
      <trkpt lat="45.66837" lon="3.01172">
        <ele>801.2</ele>
        <time>2025-09-28T08:28:02Z</time>
      </trkpt>
      <trkpt lat="45.6684" lon="3.01169">
        <ele>801.6</ele>
        <time>2025-09-28T08:28:03Z</time>
      </trkpt>
      <trkpt lat="45.66843" lon="3.01167">
        <ele>801.8</ele>
        <time>2025-09-28T08:28:04Z</time>
      </trkpt>
      <trkpt lat="45.66844" lon="3.01165">
        <ele>802.2</ele>
        <time>2025-09-28T08:28:05Z</time>
      </trkpt>
      <trkpt lat="45.66846" lon="3.01164">
        <ele>802.4</ele>
        <time>2025-09-28T08:28:06Z</time>
      </trkpt>
      <trkpt lat="45.66848" lon="3.01163">
        <ele>802.6</ele>
        <time>2025-09-28T08:28:07Z</time>
      </trkpt>
      <trkpt lat="45.66849" lon="3.01161">
        <ele>802.8</ele>
        <time>2025-09-28T08:28:08Z</time>
      </trkpt>
      <trkpt lat="45.66851" lon="3.0116">
        <ele>803</ele>
        <time>2025-09-28T08:28:09Z</time>
      </trkpt>
      <trkpt lat="45.66854" lon="3.01158">
        <ele>803.2</ele>
        <time>2025-09-28T08:28:10Z</time>
      </trkpt>
      <trkpt lat="45.66857" lon="3.01155">
        <ele>803.2</ele>
        <time>2025-09-28T08:28:11Z</time>
      </trkpt>
      <trkpt lat="45.66861" lon="3.01152">
        <ele>803.4</ele>
        <time>2025-09-28T08:28:12Z</time>
      </trkpt>
      <trkpt lat="45.66864" lon="3.0115">
        <ele>803.6</ele>
        <time>2025-09-28T08:28:13Z</time>
      </trkpt>
      <trkpt lat="45.66866" lon="3.01148">
        <ele>803.6</ele>
        <time>2025-09-28T08:28:14Z</time>
      </trkpt>
      <trkpt lat="45.66867" lon="3.01148">
        <ele>803.8</ele>
        <time>2025-09-28T08:28:15Z</time>
      </trkpt>
      <trkpt lat="45.66869" lon="3.01148">
        <ele>804</ele>
        <time>2025-09-28T08:28:16Z</time>
      </trkpt>
      <trkpt lat="45.66871" lon="3.01148">
        <ele>804.2</ele>
        <time>2025-09-28T08:28:17Z</time>
      </trkpt>
      <trkpt lat="45.66873" lon="3.01149">
        <ele>804.2</ele>
        <time>2025-09-28T08:28:18Z</time>
      </trkpt>
      <trkpt lat="45.66876" lon="3.01149">
        <ele>804.4</ele>
        <time>2025-09-28T08:28:19Z</time>
      </trkpt>
      <trkpt lat="45.6688" lon="3.01149">
        <ele>804.4</ele>
        <time>2025-09-28T08:28:20Z</time>
      </trkpt>
      <trkpt lat="45.66883" lon="3.01149">
        <ele>804.6</ele>
        <time>2025-09-28T08:28:21Z</time>
      </trkpt>
      <trkpt lat="45.66886" lon="3.01149">
        <ele>804.6</ele>
        <time>2025-09-28T08:28:22Z</time>
      </trkpt>
      <trkpt lat="45.66889" lon="3.01148">
        <ele>804.6</ele>
        <time>2025-09-28T08:28:23Z</time>
      </trkpt>
      <trkpt lat="45.66893" lon="3.01147">
        <ele>804.8</ele>
        <time>2025-09-28T08:28:24Z</time>
      </trkpt>
      <trkpt lat="45.66898" lon="3.01142">
        <ele>804.8</ele>
        <time>2025-09-28T08:28:25Z</time>
      </trkpt>
      <trkpt lat="45.66903" lon="3.01138">
        <ele>805</ele>
        <time>2025-09-28T08:28:26Z</time>
      </trkpt>
      <trkpt lat="45.66906" lon="3.01137">
        <ele>805.2</ele>
        <time>2025-09-28T08:28:27Z</time>
      </trkpt>
      <trkpt lat="45.66909" lon="3.01135">
        <ele>805.4</ele>
        <time>2025-09-28T08:28:28Z</time>
      </trkpt>
      <trkpt lat="45.66911" lon="3.01133">
        <ele>805.4</ele>
        <time>2025-09-28T08:28:29Z</time>
      </trkpt>
      <trkpt lat="45.66914" lon="3.01132">
        <ele>805.6</ele>
        <time>2025-09-28T08:28:30Z</time>
      </trkpt>
      <trkpt lat="45.66915" lon="3.01128">
        <ele>805.8</ele>
        <time>2025-09-28T08:28:31Z</time>
      </trkpt>
      <trkpt lat="45.66916" lon="3.01124">
        <ele>806</ele>
        <time>2025-09-28T08:28:32Z</time>
      </trkpt>
      <trkpt lat="45.66918" lon="3.01122">
        <ele>806.2</ele>
        <time>2025-09-28T08:28:33Z</time>
      </trkpt>
      <trkpt lat="45.6692" lon="3.01122">
        <ele>806.4</ele>
        <time>2025-09-28T08:28:34Z</time>
      </trkpt>
      <trkpt lat="45.66922" lon="3.01122">
        <ele>806.4</ele>
        <time>2025-09-28T08:28:35Z</time>
      </trkpt>
      <trkpt lat="45.66923" lon="3.01123">
        <ele>806.6</ele>
        <time>2025-09-28T08:28:36Z</time>
      </trkpt>
      <trkpt lat="45.66925" lon="3.01124">
        <ele>806.6</ele>
        <time>2025-09-28T08:28:37Z</time>
      </trkpt>
      <trkpt lat="45.66926" lon="3.01127">
        <ele>806.8</ele>
        <time>2025-09-28T08:28:38Z</time>
      </trkpt>
      <trkpt lat="45.66927" lon="3.01129">
        <ele>806.8</ele>
        <time>2025-09-28T08:28:39Z</time>
      </trkpt>
      <trkpt lat="45.66928" lon="3.01132">
        <ele>807</ele>
        <time>2025-09-28T08:28:40Z</time>
      </trkpt>
      <trkpt lat="45.6693" lon="3.01135">
        <ele>807</ele>
        <time>2025-09-28T08:28:41Z</time>
      </trkpt>
      <trkpt lat="45.66931" lon="3.01139">
        <ele>807.2</ele>
        <time>2025-09-28T08:28:42Z</time>
      </trkpt>
      <trkpt lat="45.66932" lon="3.01142">
        <ele>807.2</ele>
        <time>2025-09-28T08:28:43Z</time>
      </trkpt>
      <trkpt lat="45.66932" lon="3.01145">
        <ele>807.2</ele>
        <time>2025-09-28T08:28:44Z</time>
      </trkpt>
      <trkpt lat="45.66933" lon="3.01148">
        <ele>807.4</ele>
        <time>2025-09-28T08:28:45Z</time>
      </trkpt>
      <trkpt lat="45.66933" lon="3.01151">
        <ele>807.4</ele>
        <time>2025-09-28T08:28:46Z</time>
      </trkpt>
      <trkpt lat="45.66933" lon="3.01154">
        <ele>807.6</ele>
        <time>2025-09-28T08:28:47Z</time>
      </trkpt>
      <trkpt lat="45.66934" lon="3.01159">
        <ele>807.6</ele>
        <time>2025-09-28T08:28:48Z</time>
      </trkpt>
      <trkpt lat="45.66935" lon="3.01165">
        <ele>807.8</ele>
        <time>2025-09-28T08:28:49Z</time>
      </trkpt>
      <trkpt lat="45.66935" lon="3.01171">
        <ele>807.8</ele>
        <time>2025-09-28T08:28:50Z</time>
      </trkpt>
      <trkpt lat="45.66936" lon="3.01176">
        <ele>808</ele>
        <time>2025-09-28T08:28:51Z</time>
      </trkpt>
      <trkpt lat="45.66936" lon="3.0118">
        <ele>808</ele>
        <time>2025-09-28T08:28:52Z</time>
      </trkpt>
      <trkpt lat="45.66935" lon="3.01184">
        <ele>808.2</ele>
        <time>2025-09-28T08:28:53Z</time>
      </trkpt>
      <trkpt lat="45.66935" lon="3.0119">
        <ele>808.2</ele>
        <time>2025-09-28T08:28:54Z</time>
      </trkpt>
      <trkpt lat="45.66936" lon="3.01195">
        <ele>808.4</ele>
        <time>2025-09-28T08:28:55Z</time>
      </trkpt>
      <trkpt lat="45.66936" lon="3.012">
        <ele>808.6</ele>
        <time>2025-09-28T08:28:56Z</time>
      </trkpt>
      <trkpt lat="45.66936" lon="3.01205">
        <ele>808.6</ele>
        <time>2025-09-28T08:28:57Z</time>
      </trkpt>
      <trkpt lat="45.66936" lon="3.01209">
        <ele>808.8</ele>
        <time>2025-09-28T08:28:58Z</time>
      </trkpt>
      <trkpt lat="45.66936" lon="3.01215">
        <ele>808.8</ele>
        <time>2025-09-28T08:28:59Z</time>
      </trkpt>
      <trkpt lat="45.66937" lon="3.0122">
        <ele>808.8</ele>
        <time>2025-09-28T08:29:00Z</time>
      </trkpt>
      <trkpt lat="45.66939" lon="3.01225">
        <ele>808.8</ele>
        <time>2025-09-28T08:29:01Z</time>
      </trkpt>
      <trkpt lat="45.6694" lon="3.0123">
        <ele>809</ele>
        <time>2025-09-28T08:29:02Z</time>
      </trkpt>
      <trkpt lat="45.66942" lon="3.01235">
        <ele>808.8</ele>
        <time>2025-09-28T08:29:03Z</time>
      </trkpt>
      <trkpt lat="45.66944" lon="3.0124">
        <ele>808.8</ele>
        <time>2025-09-28T08:29:04Z</time>
      </trkpt>
      <trkpt lat="45.66944" lon="3.01245">
        <ele>808.6</ele>
        <time>2025-09-28T08:29:05Z</time>
      </trkpt>
      <trkpt lat="45.66945" lon="3.01251">
        <ele>808.6</ele>
        <time>2025-09-28T08:29:06Z</time>
      </trkpt>
      <trkpt lat="45.66944" lon="3.01259">
        <ele>808.4</ele>
        <time>2025-09-28T08:29:07Z</time>
      </trkpt>
      <trkpt lat="45.66943" lon="3.01269">
        <ele>808.2</ele>
        <time>2025-09-28T08:29:08Z</time>
      </trkpt>
      <trkpt lat="45.66941" lon="3.01277">
        <ele>808.2</ele>
        <time>2025-09-28T08:29:09Z</time>
      </trkpt>
      <trkpt lat="45.6694" lon="3.01283">
        <ele>808</ele>
        <time>2025-09-28T08:29:10Z</time>
      </trkpt>
      <trkpt lat="45.66939" lon="3.0129">
        <ele>808</ele>
        <time>2025-09-28T08:29:11Z</time>
      </trkpt>
      <trkpt lat="45.6694" lon="3.01297">
        <ele>808</ele>
        <time>2025-09-28T08:29:12Z</time>
      </trkpt>
      <trkpt lat="45.6694" lon="3.01306">
        <ele>808</ele>
        <time>2025-09-28T08:29:13Z</time>
      </trkpt>
      <trkpt lat="45.66941" lon="3.01313">
        <ele>808</ele>
        <time>2025-09-28T08:29:14Z</time>
      </trkpt>
      <trkpt lat="45.66941" lon="3.01318">
        <ele>808</ele>
        <time>2025-09-28T08:29:15Z</time>
      </trkpt>
      <trkpt lat="45.66941" lon="3.01324">
        <ele>808.2</ele>
        <time>2025-09-28T08:29:16Z</time>
      </trkpt>
      <trkpt lat="45.66942" lon="3.0133">
        <ele>808.2</ele>
        <time>2025-09-28T08:29:17Z</time>
      </trkpt>
      <trkpt lat="45.66943" lon="3.01336">
        <ele>808.2</ele>
        <time>2025-09-28T08:29:18Z</time>
      </trkpt>
      <trkpt lat="45.66943" lon="3.01341">
        <ele>808.2</ele>
        <time>2025-09-28T08:29:19Z</time>
      </trkpt>
      <trkpt lat="45.66943" lon="3.01347">
        <ele>808</ele>
        <time>2025-09-28T08:29:20Z</time>
      </trkpt>
      <trkpt lat="45.66944" lon="3.01354">
        <ele>808</ele>
        <time>2025-09-28T08:29:21Z</time>
      </trkpt>
      <trkpt lat="45.66944" lon="3.01361">
        <ele>808</ele>
        <time>2025-09-28T08:29:22Z</time>
      </trkpt>
      <trkpt lat="45.66944" lon="3.01367">
        <ele>808</ele>
        <time>2025-09-28T08:29:23Z</time>
      </trkpt>
      <trkpt lat="45.66945" lon="3.01375">
        <ele>808.2</ele>
        <time>2025-09-28T08:29:24Z</time>
      </trkpt>
      <trkpt lat="45.66947" lon="3.01382">
        <ele>808.4</ele>
        <time>2025-09-28T08:29:25Z</time>
      </trkpt>
      <trkpt lat="45.6695" lon="3.01388">
        <ele>808.6</ele>
        <time>2025-09-28T08:29:26Z</time>
      </trkpt>
      <trkpt lat="45.66954" lon="3.01394">
        <ele>808.8</ele>
        <time>2025-09-28T08:29:27Z</time>
      </trkpt>
      <trkpt lat="45.66956" lon="3.01399">
        <ele>809</ele>
        <time>2025-09-28T08:29:28Z</time>
      </trkpt>
      <trkpt lat="45.66959" lon="3.01403">
        <ele>809.4</ele>
        <time>2025-09-28T08:29:29Z</time>
      </trkpt>
      <trkpt lat="45.66962" lon="3.01407">
        <ele>809.6</ele>
        <time>2025-09-28T08:29:30Z</time>
      </trkpt>
      <trkpt lat="45.66964" lon="3.01411">
        <ele>809.8</ele>
        <time>2025-09-28T08:29:31Z</time>
      </trkpt>
      <trkpt lat="45.66966" lon="3.01413">
        <ele>810</ele>
        <time>2025-09-28T08:29:32Z</time>
      </trkpt>
      <trkpt lat="45.66967" lon="3.01416">
        <ele>810.2</ele>
        <time>2025-09-28T08:29:33Z</time>
      </trkpt>
      <trkpt lat="45.66969" lon="3.01419">
        <ele>810.4</ele>
        <time>2025-09-28T08:29:34Z</time>
      </trkpt>
      <trkpt lat="45.6697" lon="3.01422">
        <ele>810.8</ele>
        <time>2025-09-28T08:29:35Z</time>
      </trkpt>
      <trkpt lat="45.66971" lon="3.01425">
        <ele>811</ele>
        <time>2025-09-28T08:29:36Z</time>
      </trkpt>
      <trkpt lat="45.66972" lon="3.01428">
        <ele>811.2</ele>
        <time>2025-09-28T08:29:37Z</time>
      </trkpt>
      <trkpt lat="45.66973" lon="3.0143">
        <ele>811.4</ele>
        <time>2025-09-28T08:29:38Z</time>
      </trkpt>
      <trkpt lat="45.66975" lon="3.01433">
        <ele>811.6</ele>
        <time>2025-09-28T08:29:39Z</time>
      </trkpt>
      <trkpt lat="45.66978" lon="3.01436">
        <ele>811.8</ele>
        <time>2025-09-28T08:29:40Z</time>
      </trkpt>
      <trkpt lat="45.6698" lon="3.0144">
        <ele>812</ele>
        <time>2025-09-28T08:29:41Z</time>
      </trkpt>
      <trkpt lat="45.66981" lon="3.01442">
        <ele>812.2</ele>
        <time>2025-09-28T08:29:42Z</time>
      </trkpt>
      <trkpt lat="45.66981" lon="3.01444">
        <ele>812.4</ele>
        <time>2025-09-28T08:29:43Z</time>
      </trkpt>
      <trkpt lat="45.66981" lon="3.01446">
        <ele>812.8</ele>
        <time>2025-09-28T08:29:44Z</time>
      </trkpt>
      <trkpt lat="45.66981" lon="3.01449">
        <ele>813</ele>
        <time>2025-09-28T08:29:45Z</time>
      </trkpt>
      <trkpt lat="45.66981" lon="3.01452">
        <ele>813.4</ele>
        <time>2025-09-28T08:29:46Z</time>
      </trkpt>
      <trkpt lat="45.66983" lon="3.01456">
        <ele>813.6</ele>
        <time>2025-09-28T08:29:47Z</time>
      </trkpt>
      <trkpt lat="45.66985" lon="3.01461">
        <ele>813.8</ele>
        <time>2025-09-28T08:29:48Z</time>
      </trkpt>
      <trkpt lat="45.66987" lon="3.01463">
        <ele>814</ele>
        <time>2025-09-28T08:29:49Z</time>
      </trkpt>
      <trkpt lat="45.66988" lon="3.01466">
        <ele>814.2</ele>
        <time>2025-09-28T08:29:50Z</time>
      </trkpt>
      <trkpt lat="45.6699" lon="3.0147">
        <ele>814.6</ele>
        <time>2025-09-28T08:29:51Z</time>
      </trkpt>
      <trkpt lat="45.66991" lon="3.01473">
        <ele>814.8</ele>
        <time>2025-09-28T08:29:52Z</time>
      </trkpt>
      <trkpt lat="45.66993" lon="3.01478">
        <ele>815</ele>
        <time>2025-09-28T08:29:53Z</time>
      </trkpt>
      <trkpt lat="45.66995" lon="3.01485">
        <ele>815.2</ele>
        <time>2025-09-28T08:29:54Z</time>
      </trkpt>
      <trkpt lat="45.66998" lon="3.0149">
        <ele>815.4</ele>
        <time>2025-09-28T08:29:55Z</time>
      </trkpt>
      <trkpt lat="45.66999" lon="3.01495">
        <ele>815.4</ele>
        <time>2025-09-28T08:29:56Z</time>
      </trkpt>
      <trkpt lat="45.66998" lon="3.01499">
        <ele>815.6</ele>
        <time>2025-09-28T08:29:57Z</time>
      </trkpt>
      <trkpt lat="45.66995" lon="3.01503">
        <ele>815.6</ele>
        <time>2025-09-28T08:29:58Z</time>
      </trkpt>
      <trkpt lat="45.66992" lon="3.01506">
        <ele>815.8</ele>
        <time>2025-09-28T08:29:59Z</time>
      </trkpt>
      <trkpt lat="45.66989" lon="3.01509">
        <ele>815.8</ele>
        <time>2025-09-28T08:30:00Z</time>
      </trkpt>
      <trkpt lat="45.66987" lon="3.0151">
        <ele>816</ele>
        <time>2025-09-28T08:30:01Z</time>
      </trkpt>
      <trkpt lat="45.66984" lon="3.01512">
        <ele>816.2</ele>
        <time>2025-09-28T08:30:02Z</time>
      </trkpt>
      <trkpt lat="45.6698" lon="3.01514">
        <ele>816.2</ele>
        <time>2025-09-28T08:30:03Z</time>
      </trkpt>
      <trkpt lat="45.66977" lon="3.01518">
        <ele>816.4</ele>
        <time>2025-09-28T08:30:04Z</time>
      </trkpt>
      <trkpt lat="45.66974" lon="3.01523">
        <ele>816.4</ele>
        <time>2025-09-28T08:30:05Z</time>
      </trkpt>
      <trkpt lat="45.6697" lon="3.01525">
        <ele>816.6</ele>
        <time>2025-09-28T08:30:06Z</time>
      </trkpt>
      <trkpt lat="45.66967" lon="3.01527">
        <ele>816.6</ele>
        <time>2025-09-28T08:30:07Z</time>
      </trkpt>
      <trkpt lat="45.66965" lon="3.01529">
        <ele>816.6</ele>
        <time>2025-09-28T08:30:08Z</time>
      </trkpt>
      <trkpt lat="45.66963" lon="3.01532">
        <ele>816.8</ele>
        <time>2025-09-28T08:30:09Z</time>
      </trkpt>
      <trkpt lat="45.6696" lon="3.01535">
        <ele>816.8</ele>
        <time>2025-09-28T08:30:10Z</time>
      </trkpt>
      <trkpt lat="45.66956" lon="3.01538">
        <ele>816.8</ele>
        <time>2025-09-28T08:30:11Z</time>
      </trkpt>
      <trkpt lat="45.66952" lon="3.01541">
        <ele>817</ele>
        <time>2025-09-28T08:30:12Z</time>
      </trkpt>
      <trkpt lat="45.66949" lon="3.01544">
        <ele>817.2</ele>
        <time>2025-09-28T08:30:13Z</time>
      </trkpt>
      <trkpt lat="45.66946" lon="3.01548">
        <ele>817.4</ele>
        <time>2025-09-28T08:30:14Z</time>
      </trkpt>
      <trkpt lat="45.66944" lon="3.01552">
        <ele>817.6</ele>
        <time>2025-09-28T08:30:15Z</time>
      </trkpt>
      <trkpt lat="45.66942" lon="3.01555">
        <ele>817.8</ele>
        <time>2025-09-28T08:30:16Z</time>
      </trkpt>
      <trkpt lat="45.66939" lon="3.01557">
        <ele>817.8</ele>
        <time>2025-09-28T08:30:17Z</time>
      </trkpt>
      <trkpt lat="45.66935" lon="3.01559">
        <ele>818</ele>
        <time>2025-09-28T08:30:18Z</time>
      </trkpt>
      <trkpt lat="45.66932" lon="3.0156">
        <ele>818.2</ele>
        <time>2025-09-28T08:30:19Z</time>
      </trkpt>
      <trkpt lat="45.66929" lon="3.01563">
        <ele>818.2</ele>
        <time>2025-09-28T08:30:20Z</time>
      </trkpt>
      <trkpt lat="45.66928" lon="3.01566">
        <ele>818.4</ele>
        <time>2025-09-28T08:30:21Z</time>
      </trkpt>
      <trkpt lat="45.66927" lon="3.01569">
        <ele>818.6</ele>
        <time>2025-09-28T08:30:22Z</time>
      </trkpt>
      <trkpt lat="45.66926" lon="3.01572">
        <ele>818.8</ele>
        <time>2025-09-28T08:30:23Z</time>
      </trkpt>
      <trkpt lat="45.66926" lon="3.01576">
        <ele>819.2</ele>
        <time>2025-09-28T08:30:24Z</time>
      </trkpt>
      <trkpt lat="45.66926" lon="3.01579">
        <ele>819.4</ele>
        <time>2025-09-28T08:30:25Z</time>
      </trkpt>
      <trkpt lat="45.66925" lon="3.01582">
        <ele>819.8</ele>
        <time>2025-09-28T08:30:26Z</time>
      </trkpt>
      <trkpt lat="45.66925" lon="3.01586">
        <ele>820</ele>
        <time>2025-09-28T08:30:27Z</time>
      </trkpt>
      <trkpt lat="45.66925" lon="3.0159">
        <ele>820.2</ele>
        <time>2025-09-28T08:30:28Z</time>
      </trkpt>
      <trkpt lat="45.66926" lon="3.01594">
        <ele>820.6</ele>
        <time>2025-09-28T08:30:29Z</time>
      </trkpt>
      <trkpt lat="45.66926" lon="3.01598">
        <ele>820.8</ele>
        <time>2025-09-28T08:30:30Z</time>
      </trkpt>
      <trkpt lat="45.66927" lon="3.01601">
        <ele>821</ele>
        <time>2025-09-28T08:30:31Z</time>
      </trkpt>
      <trkpt lat="45.66927" lon="3.01605">
        <ele>821</ele>
        <time>2025-09-28T08:30:32Z</time>
      </trkpt>
      <trkpt lat="45.66927" lon="3.0161">
        <ele>821.2</ele>
        <time>2025-09-28T08:30:33Z</time>
      </trkpt>
      <trkpt lat="45.66928" lon="3.01614">
        <ele>821.2</ele>
        <time>2025-09-28T08:30:34Z</time>
      </trkpt>
      <trkpt lat="45.66929" lon="3.01619">
        <ele>821.2</ele>
        <time>2025-09-28T08:30:35Z</time>
      </trkpt>
      <trkpt lat="45.6693" lon="3.01625">
        <ele>821.2</ele>
        <time>2025-09-28T08:30:36Z</time>
      </trkpt>
      <trkpt lat="45.6693" lon="3.01631">
        <ele>821.2</ele>
        <time>2025-09-28T08:30:37Z</time>
      </trkpt>
      <trkpt lat="45.6693" lon="3.01636">
        <ele>821.2</ele>
        <time>2025-09-28T08:30:38Z</time>
      </trkpt>
      <trkpt lat="45.6693" lon="3.01642">
        <ele>821.2</ele>
        <time>2025-09-28T08:30:39Z</time>
      </trkpt>
      <trkpt lat="45.66931" lon="3.01647">
        <ele>821.4</ele>
        <time>2025-09-28T08:30:40Z</time>
      </trkpt>
      <trkpt lat="45.66932" lon="3.01653">
        <ele>821.4</ele>
        <time>2025-09-28T08:30:41Z</time>
      </trkpt>
      <trkpt lat="45.66933" lon="3.01659">
        <ele>821.4</ele>
        <time>2025-09-28T08:30:42Z</time>
      </trkpt>
      <trkpt lat="45.66934" lon="3.01665">
        <ele>821.4</ele>
        <time>2025-09-28T08:30:43Z</time>
      </trkpt>
      <trkpt lat="45.66934" lon="3.01671">
        <ele>821.4</ele>
        <time>2025-09-28T08:30:44Z</time>
      </trkpt>
      <trkpt lat="45.66935" lon="3.01678">
        <ele>821.6</ele>
        <time>2025-09-28T08:30:45Z</time>
      </trkpt>
      <trkpt lat="45.66936" lon="3.01684">
        <ele>821.6</ele>
        <time>2025-09-28T08:30:46Z</time>
      </trkpt>
      <trkpt lat="45.66936" lon="3.01689">
        <ele>821.8</ele>
        <time>2025-09-28T08:30:47Z</time>
      </trkpt>
      <trkpt lat="45.66937" lon="3.01695">
        <ele>822</ele>
        <time>2025-09-28T08:30:48Z</time>
      </trkpt>
      <trkpt lat="45.66938" lon="3.017">
        <ele>822</ele>
        <time>2025-09-28T08:30:49Z</time>
      </trkpt>
      <trkpt lat="45.66938" lon="3.01706">
        <ele>822.2</ele>
        <time>2025-09-28T08:30:50Z</time>
      </trkpt>
      <trkpt lat="45.66937" lon="3.01712">
        <ele>822.2</ele>
        <time>2025-09-28T08:30:51Z</time>
      </trkpt>
      <trkpt lat="45.66937" lon="3.01718">
        <ele>822.2</ele>
        <time>2025-09-28T08:30:52Z</time>
      </trkpt>
      <trkpt lat="45.66937" lon="3.01723">
        <ele>822.4</ele>
        <time>2025-09-28T08:30:53Z</time>
      </trkpt>
      <trkpt lat="45.66936" lon="3.01729">
        <ele>822.6</ele>
        <time>2025-09-28T08:30:54Z</time>
      </trkpt>
      <trkpt lat="45.66935" lon="3.01734">
        <ele>822.8</ele>
        <time>2025-09-28T08:30:55Z</time>
      </trkpt>
      <trkpt lat="45.66934" lon="3.01739">
        <ele>823</ele>
        <time>2025-09-28T08:30:56Z</time>
      </trkpt>
      <trkpt lat="45.66934" lon="3.01743">
        <ele>823.2</ele>
        <time>2025-09-28T08:30:57Z</time>
      </trkpt>
      <trkpt lat="45.66935" lon="3.01746">
        <ele>823.6</ele>
        <time>2025-09-28T08:30:58Z</time>
      </trkpt>
      <trkpt lat="45.66936" lon="3.01749">
        <ele>823.8</ele>
        <time>2025-09-28T08:30:59Z</time>
      </trkpt>
      <trkpt lat="45.66935" lon="3.01752">
        <ele>824.2</ele>
        <time>2025-09-28T08:31:00Z</time>
      </trkpt>
      <trkpt lat="45.66934" lon="3.01755">
        <ele>824.6</ele>
        <time>2025-09-28T08:31:01Z</time>
      </trkpt>
      <trkpt lat="45.66934" lon="3.01757">
        <ele>824.8</ele>
        <time>2025-09-28T08:31:02Z</time>
      </trkpt>
      <trkpt lat="45.66933" lon="3.0176">
        <ele>825.2</ele>
        <time>2025-09-28T08:31:03Z</time>
      </trkpt>
      <trkpt lat="45.66933" lon="3.01763">
        <ele>825.4</ele>
        <time>2025-09-28T08:31:04Z</time>
      </trkpt>
      <trkpt lat="45.66933" lon="3.01768">
        <ele>825.4</ele>
        <time>2025-09-28T08:31:05Z</time>
      </trkpt>
      <trkpt lat="45.66932" lon="3.01773">
        <ele>825.6</ele>
        <time>2025-09-28T08:31:06Z</time>
      </trkpt>
      <trkpt lat="45.66931" lon="3.01777">
        <ele>825.6</ele>
        <time>2025-09-28T08:31:07Z</time>
      </trkpt>
      <trkpt lat="45.66929" lon="3.01782">
        <ele>825.6</ele>
        <time>2025-09-28T08:31:08Z</time>
      </trkpt>
      <trkpt lat="45.66929" lon="3.01786">
        <ele>825.8</ele>
        <time>2025-09-28T08:31:09Z</time>
      </trkpt>
      <trkpt lat="45.66928" lon="3.01791">
        <ele>826</ele>
        <time>2025-09-28T08:31:10Z</time>
      </trkpt>
      <trkpt lat="45.66926" lon="3.01794">
        <ele>826.2</ele>
        <time>2025-09-28T08:31:11Z</time>
      </trkpt>
      <trkpt lat="45.66926" lon="3.01798">
        <ele>826.6</ele>
        <time>2025-09-28T08:31:12Z</time>
      </trkpt>
      <trkpt lat="45.66925" lon="3.01801">
        <ele>826.8</ele>
        <time>2025-09-28T08:31:13Z</time>
      </trkpt>
      <trkpt lat="45.66924" lon="3.01804">
        <ele>827</ele>
        <time>2025-09-28T08:31:14Z</time>
      </trkpt>
      <trkpt lat="45.66924" lon="3.01808">
        <ele>827.4</ele>
        <time>2025-09-28T08:31:15Z</time>
      </trkpt>
      <trkpt lat="45.66923" lon="3.01812">
        <ele>827.6</ele>
        <time>2025-09-28T08:31:16Z</time>
      </trkpt>
      <trkpt lat="45.66922" lon="3.01816">
        <ele>827.8</ele>
        <time>2025-09-28T08:31:17Z</time>
      </trkpt>
      <trkpt lat="45.66922" lon="3.01819">
        <ele>828.2</ele>
        <time>2025-09-28T08:31:18Z</time>
      </trkpt>
      <trkpt lat="45.66921" lon="3.01822">
        <ele>828.4</ele>
        <time>2025-09-28T08:31:19Z</time>
      </trkpt>
      <trkpt lat="45.6692" lon="3.01826">
        <ele>828.6</ele>
        <time>2025-09-28T08:31:20Z</time>
      </trkpt>
      <trkpt lat="45.6692" lon="3.0183">
        <ele>828.8</ele>
        <time>2025-09-28T08:31:21Z</time>
      </trkpt>
      <trkpt lat="45.66919" lon="3.01833">
        <ele>829</ele>
        <time>2025-09-28T08:31:22Z</time>
      </trkpt>
      <trkpt lat="45.66918" lon="3.01837">
        <ele>829.2</ele>
        <time>2025-09-28T08:31:23Z</time>
      </trkpt>
      <trkpt lat="45.66917" lon="3.01841">
        <ele>829.2</ele>
        <time>2025-09-28T08:31:24Z</time>
      </trkpt>
      <trkpt lat="45.66916" lon="3.01845">
        <ele>829.4</ele>
        <time>2025-09-28T08:31:25Z</time>
      </trkpt>
      <trkpt lat="45.66916" lon="3.01849">
        <ele>829.6</ele>
        <time>2025-09-28T08:31:26Z</time>
      </trkpt>
      <trkpt lat="45.66915" lon="3.01854">
        <ele>829.8</ele>
        <time>2025-09-28T08:31:27Z</time>
      </trkpt>
      <trkpt lat="45.66914" lon="3.01859">
        <ele>830</ele>
        <time>2025-09-28T08:31:28Z</time>
      </trkpt>
      <trkpt lat="45.66913" lon="3.01864">
        <ele>830.2</ele>
        <time>2025-09-28T08:31:29Z</time>
      </trkpt>
      <trkpt lat="45.66913" lon="3.01869">
        <ele>830.4</ele>
        <time>2025-09-28T08:31:30Z</time>
      </trkpt>
      <trkpt lat="45.66912" lon="3.01875">
        <ele>830.4</ele>
        <time>2025-09-28T08:31:31Z</time>
      </trkpt>
      <trkpt lat="45.66912" lon="3.0188">
        <ele>830.6</ele>
        <time>2025-09-28T08:31:32Z</time>
      </trkpt>
      <trkpt lat="45.66911" lon="3.01884">
        <ele>830.8</ele>
        <time>2025-09-28T08:31:33Z</time>
      </trkpt>
      <trkpt lat="45.66911" lon="3.01889">
        <ele>830.8</ele>
        <time>2025-09-28T08:31:34Z</time>
      </trkpt>
      <trkpt lat="45.6691" lon="3.01893">
        <ele>831</ele>
        <time>2025-09-28T08:31:35Z</time>
      </trkpt>
      <trkpt lat="45.66909" lon="3.01897">
        <ele>831</ele>
        <time>2025-09-28T08:31:36Z</time>
      </trkpt>
      <trkpt lat="45.66908" lon="3.01901">
        <ele>831</ele>
        <time>2025-09-28T08:31:37Z</time>
      </trkpt>
      <trkpt lat="45.66907" lon="3.01904">
        <ele>831</ele>
        <time>2025-09-28T08:31:38Z</time>
      </trkpt>
      <trkpt lat="45.66906" lon="3.01908">
        <ele>831</ele>
        <time>2025-09-28T08:31:39Z</time>
      </trkpt>
      <trkpt lat="45.66905" lon="3.01911">
        <ele>831</ele>
        <time>2025-09-28T08:31:40Z</time>
      </trkpt>
      <trkpt lat="45.66904" lon="3.01915">
        <ele>830.8</ele>
        <time>2025-09-28T08:31:41Z</time>
      </trkpt>
      <trkpt lat="45.66901" lon="3.01917">
        <ele>830.8</ele>
        <time>2025-09-28T08:31:42Z</time>
      </trkpt>
      <trkpt lat="45.66898" lon="3.01917">
        <ele>830.8</ele>
        <time>2025-09-28T08:31:43Z</time>
      </trkpt>
      <trkpt lat="45.66893" lon="3.01916">
        <ele>830.8</ele>
        <time>2025-09-28T08:31:44Z</time>
      </trkpt>
      <trkpt lat="45.66889" lon="3.01915">
        <ele>830.6</ele>
        <time>2025-09-28T08:31:45Z</time>
      </trkpt>
      <trkpt lat="45.66885" lon="3.01914">
        <ele>830.6</ele>
        <time>2025-09-28T08:31:46Z</time>
      </trkpt>
      <trkpt lat="45.6688" lon="3.01912">
        <ele>830.6</ele>
        <time>2025-09-28T08:31:47Z</time>
      </trkpt>
      <trkpt lat="45.66875" lon="3.0191">
        <ele>830.4</ele>
        <time>2025-09-28T08:31:48Z</time>
      </trkpt>
      <trkpt lat="45.66871" lon="3.01909">
        <ele>830.4</ele>
        <time>2025-09-28T08:31:49Z</time>
      </trkpt>
      <trkpt lat="45.66866" lon="3.01907">
        <ele>830.2</ele>
        <time>2025-09-28T08:31:50Z</time>
      </trkpt>
      <trkpt lat="45.66862" lon="3.01906">
        <ele>830.2</ele>
        <time>2025-09-28T08:31:51Z</time>
      </trkpt>
      <trkpt lat="45.66857" lon="3.01905">
        <ele>830.2</ele>
        <time>2025-09-28T08:31:52Z</time>
      </trkpt>
      <trkpt lat="45.66853" lon="3.01904">
        <ele>830</ele>
        <time>2025-09-28T08:31:53Z</time>
      </trkpt>
      <trkpt lat="45.66848" lon="3.01904">
        <ele>829.8</ele>
        <time>2025-09-28T08:31:54Z</time>
      </trkpt>
      <trkpt lat="45.66843" lon="3.01903">
        <ele>829.4</ele>
        <time>2025-09-28T08:31:55Z</time>
      </trkpt>
      <trkpt lat="45.66836" lon="3.01901">
        <ele>828.8</ele>
        <time>2025-09-28T08:31:56Z</time>
      </trkpt>
      <trkpt lat="45.6683" lon="3.01899">
        <ele>828.4</ele>
        <time>2025-09-28T08:31:57Z</time>
      </trkpt>
      <trkpt lat="45.66823" lon="3.01897">
        <ele>828</ele>
        <time>2025-09-28T08:31:58Z</time>
      </trkpt>
      <trkpt lat="45.66816" lon="3.01896">
        <ele>827.4</ele>
        <time>2025-09-28T08:31:59Z</time>
      </trkpt>
      <trkpt lat="45.66808" lon="3.01894">
        <ele>827</ele>
        <time>2025-09-28T08:32:00Z</time>
      </trkpt>
      <trkpt lat="45.66802" lon="3.01892">
        <ele>826.4</ele>
        <time>2025-09-28T08:32:01Z</time>
      </trkpt>
      <trkpt lat="45.66795" lon="3.0189">
        <ele>825.6</ele>
        <time>2025-09-28T08:32:02Z</time>
      </trkpt>
      <trkpt lat="45.66789" lon="3.01889">
        <ele>824.8</ele>
        <time>2025-09-28T08:32:03Z</time>
      </trkpt>
      <trkpt lat="45.66782" lon="3.01886">
        <ele>823.8</ele>
        <time>2025-09-28T08:32:04Z</time>
      </trkpt>
      <trkpt lat="45.66773" lon="3.01883">
        <ele>822.6</ele>
        <time>2025-09-28T08:32:05Z</time>
      </trkpt>
      <trkpt lat="45.66764" lon="3.0188">
        <ele>821.6</ele>
        <time>2025-09-28T08:32:06Z</time>
      </trkpt>
      <trkpt lat="45.66755" lon="3.01875">
        <ele>820.8</ele>
        <time>2025-09-28T08:32:07Z</time>
      </trkpt>
      <trkpt lat="45.66746" lon="3.01871">
        <ele>819.8</ele>
        <time>2025-09-28T08:32:08Z</time>
      </trkpt>
      <trkpt lat="45.66737" lon="3.01866">
        <ele>819</ele>
        <time>2025-09-28T08:32:09Z</time>
      </trkpt>
      <trkpt lat="45.66729" lon="3.01862">
        <ele>818.2</ele>
        <time>2025-09-28T08:32:10Z</time>
      </trkpt>
      <trkpt lat="45.66723" lon="3.01859">
        <ele>817.6</ele>
        <time>2025-09-28T08:32:11Z</time>
      </trkpt>
      <trkpt lat="45.66717" lon="3.01856">
        <ele>816.8</ele>
        <time>2025-09-28T08:32:12Z</time>
      </trkpt>
      <trkpt lat="45.66714" lon="3.01855">
        <ele>816.4</ele>
        <time>2025-09-28T08:32:13Z</time>
      </trkpt>
      <trkpt lat="45.66711" lon="3.01854">
        <ele>816</ele>
        <time>2025-09-28T08:32:14Z</time>
      </trkpt>
      <trkpt lat="45.6671" lon="3.01853">
        <ele>815.6</ele>
        <time>2025-09-28T08:32:15Z</time>
      </trkpt>
      <trkpt lat="45.6671" lon="3.01853">
        <ele>815.4</ele>
        <time>2025-09-28T08:32:16Z</time>
      </trkpt>
      <trkpt lat="45.6671" lon="3.01853">
        <ele>815.2</ele>
        <time>2025-09-28T08:32:17Z</time>
      </trkpt>
      <trkpt lat="45.66711" lon="3.01853">
        <ele>815.2</ele>
        <time>2025-09-28T08:32:18Z</time>
      </trkpt>
      <trkpt lat="45.6671" lon="3.01853">
        <ele>815</ele>
        <time>2025-09-28T08:32:19Z</time>
      </trkpt>
      <trkpt lat="45.6671" lon="3.01853">
        <ele>814.8</ele>
        <time>2025-09-28T08:32:20Z</time>
      </trkpt>
      <trkpt lat="45.66709" lon="3.01852">
        <ele>814.6</ele>
        <time>2025-09-28T08:32:21Z</time>
      </trkpt>
      <trkpt lat="45.66707" lon="3.01851">
        <ele>814.4</ele>
        <time>2025-09-28T08:32:22Z</time>
      </trkpt>
      <trkpt lat="45.66706" lon="3.01849">
        <ele>814.4</ele>
        <time>2025-09-28T08:32:23Z</time>
      </trkpt>
      <trkpt lat="45.66704" lon="3.01847">
        <ele>814</ele>
        <time>2025-09-28T08:32:24Z</time>
      </trkpt>
      <trkpt lat="45.66703" lon="3.01844">
        <ele>813.8</ele>
        <time>2025-09-28T08:32:25Z</time>
      </trkpt>
      <trkpt lat="45.66702" lon="3.01842">
        <ele>813.4</ele>
        <time>2025-09-28T08:32:26Z</time>
      </trkpt>
      <trkpt lat="45.66701" lon="3.01839">
        <ele>812.8</ele>
        <time>2025-09-28T08:32:27Z</time>
      </trkpt>
      <trkpt lat="45.66699" lon="3.01836">
        <ele>812.4</ele>
        <time>2025-09-28T08:32:28Z</time>
      </trkpt>
      <trkpt lat="45.66697" lon="3.01833">
        <ele>811.8</ele>
        <time>2025-09-28T08:32:29Z</time>
      </trkpt>
      <trkpt lat="45.66695" lon="3.0183">
        <ele>811.2</ele>
        <time>2025-09-28T08:32:30Z</time>
      </trkpt>
      <trkpt lat="45.66693" lon="3.01828">
        <ele>810.6</ele>
        <time>2025-09-28T08:32:31Z</time>
      </trkpt>
      <trkpt lat="45.66691" lon="3.01826">
        <ele>810</ele>
        <time>2025-09-28T08:32:32Z</time>
      </trkpt>
      <trkpt lat="45.66689" lon="3.01823">
        <ele>809.6</ele>
        <time>2025-09-28T08:32:33Z</time>
      </trkpt>
      <trkpt lat="45.66685" lon="3.0182">
        <ele>809</ele>
        <time>2025-09-28T08:32:34Z</time>
      </trkpt>
      <trkpt lat="45.66682" lon="3.01817">
        <ele>808.4</ele>
        <time>2025-09-28T08:32:35Z</time>
      </trkpt>
      <trkpt lat="45.66678" lon="3.01815">
        <ele>807.6</ele>
        <time>2025-09-28T08:32:36Z</time>
      </trkpt>
      <trkpt lat="45.66675" lon="3.01814">
        <ele>807</ele>
        <time>2025-09-28T08:32:37Z</time>
      </trkpt>
      <trkpt lat="45.66671" lon="3.01812">
        <ele>806.2</ele>
        <time>2025-09-28T08:32:38Z</time>
      </trkpt>
      <trkpt lat="45.66667" lon="3.01812">
        <ele>805.6</ele>
        <time>2025-09-28T08:32:39Z</time>
      </trkpt>
      <trkpt lat="45.66663" lon="3.01812">
        <ele>804.8</ele>
        <time>2025-09-28T08:32:40Z</time>
      </trkpt>
      <trkpt lat="45.66658" lon="3.01816">
        <ele>804.2</ele>
        <time>2025-09-28T08:32:41Z</time>
      </trkpt>
      <trkpt lat="45.66653" lon="3.01821">
        <ele>803.6</ele>
        <time>2025-09-28T08:32:42Z</time>
      </trkpt>
      <trkpt lat="45.66647" lon="3.01828">
        <ele>803</ele>
        <time>2025-09-28T08:32:43Z</time>
      </trkpt>
      <trkpt lat="45.66642" lon="3.01835">
        <ele>802.4</ele>
        <time>2025-09-28T08:32:44Z</time>
      </trkpt>
      <trkpt lat="45.66637" lon="3.01842">
        <ele>801.8</ele>
        <time>2025-09-28T08:32:45Z</time>
      </trkpt>
      <trkpt lat="45.66632" lon="3.01848">
        <ele>801.4</ele>
        <time>2025-09-28T08:32:46Z</time>
      </trkpt>
      <trkpt lat="45.66626" lon="3.01854">
        <ele>800.8</ele>
        <time>2025-09-28T08:32:47Z</time>
      </trkpt>
      <trkpt lat="45.66621" lon="3.01859">
        <ele>800.4</ele>
        <time>2025-09-28T08:32:48Z</time>
      </trkpt>
      <trkpt lat="45.66618" lon="3.01865">
        <ele>799.8</ele>
        <time>2025-09-28T08:32:49Z</time>
      </trkpt>
      <trkpt lat="45.66617" lon="3.01872">
        <ele>799.2</ele>
        <time>2025-09-28T08:32:50Z</time>
      </trkpt>
      <trkpt lat="45.66616" lon="3.0188">
        <ele>798.6</ele>
        <time>2025-09-28T08:32:51Z</time>
      </trkpt>
      <trkpt lat="45.66615" lon="3.01889">
        <ele>797.8</ele>
        <time>2025-09-28T08:32:52Z</time>
      </trkpt>
      <trkpt lat="45.66613" lon="3.01899">
        <ele>797.2</ele>
        <time>2025-09-28T08:32:53Z</time>
      </trkpt>
      <trkpt lat="45.66609" lon="3.01908">
        <ele>796.6</ele>
        <time>2025-09-28T08:32:54Z</time>
      </trkpt>
      <trkpt lat="45.66606" lon="3.01918">
        <ele>796</ele>
        <time>2025-09-28T08:32:55Z</time>
      </trkpt>
      <trkpt lat="45.66602" lon="3.01928">
        <ele>795.6</ele>
        <time>2025-09-28T08:32:56Z</time>
      </trkpt>
      <trkpt lat="45.66599" lon="3.01939">
        <ele>795</ele>
        <time>2025-09-28T08:32:57Z</time>
      </trkpt>
      <trkpt lat="45.66596" lon="3.01949">
        <ele>794.6</ele>
        <time>2025-09-28T08:32:58Z</time>
      </trkpt>
      <trkpt lat="45.66593" lon="3.01959">
        <ele>794</ele>
        <time>2025-09-28T08:32:59Z</time>
      </trkpt>
      <trkpt lat="45.66591" lon="3.01968">
        <ele>793.6</ele>
        <time>2025-09-28T08:33:00Z</time>
      </trkpt>
      <trkpt lat="45.66589" lon="3.01976">
        <ele>793.4</ele>
        <time>2025-09-28T08:33:01Z</time>
      </trkpt>
      <trkpt lat="45.66586" lon="3.01983">
        <ele>793</ele>
        <time>2025-09-28T08:33:02Z</time>
      </trkpt>
      <trkpt lat="45.66582" lon="3.01991">
        <ele>792.8</ele>
        <time>2025-09-28T08:33:03Z</time>
      </trkpt>
      <trkpt lat="45.66578" lon="3.01997">
        <ele>792.8</ele>
        <time>2025-09-28T08:33:04Z</time>
      </trkpt>
      <trkpt lat="45.66575" lon="3.02003">
        <ele>792.6</ele>
        <time>2025-09-28T08:33:05Z</time>
      </trkpt>
      <trkpt lat="45.66572" lon="3.02008">
        <ele>792.6</ele>
        <time>2025-09-28T08:33:06Z</time>
      </trkpt>
      <trkpt lat="45.66567" lon="3.02012">
        <ele>792.4</ele>
        <time>2025-09-28T08:33:07Z</time>
      </trkpt>
      <trkpt lat="45.66561" lon="3.02017">
        <ele>792.4</ele>
        <time>2025-09-28T08:33:08Z</time>
      </trkpt>
      <trkpt lat="45.66557" lon="3.02023">
        <ele>792.4</ele>
        <time>2025-09-28T08:33:09Z</time>
      </trkpt>
      <trkpt lat="45.66554" lon="3.02029">
        <ele>792.4</ele>
        <time>2025-09-28T08:33:10Z</time>
      </trkpt>
      <trkpt lat="45.66551" lon="3.02037">
        <ele>792.6</ele>
        <time>2025-09-28T08:33:11Z</time>
      </trkpt>
      <trkpt lat="45.66549" lon="3.02044">
        <ele>793</ele>
        <time>2025-09-28T08:33:12Z</time>
      </trkpt>
      <trkpt lat="45.66546" lon="3.0205">
        <ele>793.2</ele>
        <time>2025-09-28T08:33:13Z</time>
      </trkpt>
      <trkpt lat="45.66544" lon="3.02055">
        <ele>793.4</ele>
        <time>2025-09-28T08:33:14Z</time>
      </trkpt>
      <trkpt lat="45.66541" lon="3.02059">
        <ele>793.6</ele>
        <time>2025-09-28T08:33:15Z</time>
      </trkpt>
      <trkpt lat="45.66538" lon="3.02063">
        <ele>793.6</ele>
        <time>2025-09-28T08:33:16Z</time>
      </trkpt>
      <trkpt lat="45.66534" lon="3.02068">
        <ele>793.6</ele>
        <time>2025-09-28T08:33:17Z</time>
      </trkpt>
      <trkpt lat="45.66529" lon="3.02073">
        <ele>793.6</ele>
        <time>2025-09-28T08:33:18Z</time>
      </trkpt>
      <trkpt lat="45.66525" lon="3.02078">
        <ele>793.4</ele>
        <time>2025-09-28T08:33:19Z</time>
      </trkpt>
      <trkpt lat="45.66521" lon="3.02083">
        <ele>793.2</ele>
        <time>2025-09-28T08:33:20Z</time>
      </trkpt>
      <trkpt lat="45.66517" lon="3.02087">
        <ele>793</ele>
        <time>2025-09-28T08:33:21Z</time>
      </trkpt>
      <trkpt lat="45.66514" lon="3.02089">
        <ele>792.6</ele>
        <time>2025-09-28T08:33:22Z</time>
      </trkpt>
      <trkpt lat="45.66511" lon="3.02091">
        <ele>792.4</ele>
        <time>2025-09-28T08:33:23Z</time>
      </trkpt>
      <trkpt lat="45.66509" lon="3.02092">
        <ele>792</ele>
        <time>2025-09-28T08:33:24Z</time>
      </trkpt>
      <trkpt lat="45.66506" lon="3.02093">
        <ele>791.8</ele>
        <time>2025-09-28T08:33:25Z</time>
      </trkpt>
      <trkpt lat="45.66504" lon="3.02092">
        <ele>791.4</ele>
        <time>2025-09-28T08:33:26Z</time>
      </trkpt>
      <trkpt lat="45.66503" lon="3.02091">
        <ele>791.2</ele>
        <time>2025-09-28T08:33:27Z</time>
      </trkpt>
      <trkpt lat="45.66501" lon="3.02092">
        <ele>790.4</ele>
        <time>2025-09-28T08:34:12Z</time>
      </trkpt>
      <trkpt lat="45.665" lon="3.02094">
        <ele>790.2</ele>
        <time>2025-09-28T08:34:13Z</time>
      </trkpt>
      <trkpt lat="45.66499" lon="3.02095">
        <ele>790</ele>
        <time>2025-09-28T08:34:14Z</time>
      </trkpt>
      <trkpt lat="45.66497" lon="3.02098">
        <ele>789.8</ele>
        <time>2025-09-28T08:34:15Z</time>
      </trkpt>
      <trkpt lat="45.66495" lon="3.02102">
        <ele>789.4</ele>
        <time>2025-09-28T08:34:16Z</time>
      </trkpt>
      <trkpt lat="45.66493" lon="3.02106">
        <ele>789.2</ele>
        <time>2025-09-28T08:34:17Z</time>
      </trkpt>
      <trkpt lat="45.66492" lon="3.02109">
        <ele>788.8</ele>
        <time>2025-09-28T08:34:18Z</time>
      </trkpt>
      <trkpt lat="45.66491" lon="3.02112">
        <ele>788.6</ele>
        <time>2025-09-28T08:34:19Z</time>
      </trkpt>
      <trkpt lat="45.66491" lon="3.02114">
        <ele>788.4</ele>
        <time>2025-09-28T08:34:20Z</time>
      </trkpt>
      <trkpt lat="45.66491" lon="3.02117">
        <ele>788.2</ele>
        <time>2025-09-28T08:34:21Z</time>
      </trkpt>
      <trkpt lat="45.6649" lon="3.02119">
        <ele>788</ele>
        <time>2025-09-28T08:34:22Z</time>
      </trkpt>
      <trkpt lat="45.66489" lon="3.02122">
        <ele>787.8</ele>
        <time>2025-09-28T08:34:23Z</time>
      </trkpt>
      <trkpt lat="45.66487" lon="3.02124">
        <ele>787.8</ele>
        <time>2025-09-28T08:34:24Z</time>
      </trkpt>
      <trkpt lat="45.66485" lon="3.02127">
        <ele>787.6</ele>
        <time>2025-09-28T08:34:25Z</time>
      </trkpt>
      <trkpt lat="45.66484" lon="3.02131">
        <ele>787.4</ele>
        <time>2025-09-28T08:34:26Z</time>
      </trkpt>
      <trkpt lat="45.66483" lon="3.02135">
        <ele>787.2</ele>
        <time>2025-09-28T08:34:27Z</time>
      </trkpt>
      <trkpt lat="45.66481" lon="3.02139">
        <ele>787</ele>
        <time>2025-09-28T08:34:28Z</time>
      </trkpt>
      <trkpt lat="45.66478" lon="3.02143">
        <ele>786.6</ele>
        <time>2025-09-28T08:34:29Z</time>
      </trkpt>
      <trkpt lat="45.66475" lon="3.02148">
        <ele>786.4</ele>
        <time>2025-09-28T08:34:30Z</time>
      </trkpt>
      <trkpt lat="45.66472" lon="3.02154">
        <ele>786.2</ele>
        <time>2025-09-28T08:34:31Z</time>
      </trkpt>
      <trkpt lat="45.66469" lon="3.0216">
        <ele>786</ele>
        <time>2025-09-28T08:34:32Z</time>
      </trkpt>
      <trkpt lat="45.66466" lon="3.02166">
        <ele>785.8</ele>
        <time>2025-09-28T08:34:33Z</time>
      </trkpt>
      <trkpt lat="45.66463" lon="3.02172">
        <ele>785.4</ele>
        <time>2025-09-28T08:34:34Z</time>
      </trkpt>
      <trkpt lat="45.66459" lon="3.02178">
        <ele>785.2</ele>
        <time>2025-09-28T08:34:35Z</time>
      </trkpt>
      <trkpt lat="45.66455" lon="3.02183">
        <ele>785</ele>
        <time>2025-09-28T08:34:36Z</time>
      </trkpt>
      <trkpt lat="45.66452" lon="3.02188">
        <ele>784.8</ele>
        <time>2025-09-28T08:34:37Z</time>
      </trkpt>
      <trkpt lat="45.6645" lon="3.02193">
        <ele>784.4</ele>
        <time>2025-09-28T08:34:38Z</time>
      </trkpt>
      <trkpt lat="45.66448" lon="3.022">
        <ele>784</ele>
        <time>2025-09-28T08:34:39Z</time>
      </trkpt>
      <trkpt lat="45.66447" lon="3.02208">
        <ele>783.6</ele>
        <time>2025-09-28T08:34:40Z</time>
      </trkpt>
      <trkpt lat="45.66445" lon="3.02217">
        <ele>783.2</ele>
        <time>2025-09-28T08:34:41Z</time>
      </trkpt>
      <trkpt lat="45.66443" lon="3.02226">
        <ele>782.6</ele>
        <time>2025-09-28T08:34:42Z</time>
      </trkpt>
      <trkpt lat="45.66441" lon="3.02236">
        <ele>782.2</ele>
        <time>2025-09-28T08:34:43Z</time>
      </trkpt>
      <trkpt lat="45.66439" lon="3.02246">
        <ele>781.6</ele>
        <time>2025-09-28T08:34:44Z</time>
      </trkpt>
      <trkpt lat="45.66438" lon="3.02258">
        <ele>781</ele>
        <time>2025-09-28T08:34:45Z</time>
      </trkpt>
      <trkpt lat="45.66437" lon="3.0227">
        <ele>780.4</ele>
        <time>2025-09-28T08:34:46Z</time>
      </trkpt>
      <trkpt lat="45.66437" lon="3.02281">
        <ele>779.8</ele>
        <time>2025-09-28T08:34:47Z</time>
      </trkpt>
      <trkpt lat="45.66438" lon="3.02292">
        <ele>779.4</ele>
        <time>2025-09-28T08:34:48Z</time>
      </trkpt>
      <trkpt lat="45.66439" lon="3.02302">
        <ele>779</ele>
        <time>2025-09-28T08:34:49Z</time>
      </trkpt>
      <trkpt lat="45.66441" lon="3.0231">
        <ele>778.6</ele>
        <time>2025-09-28T08:34:50Z</time>
      </trkpt>
      <trkpt lat="45.66442" lon="3.02317">
        <ele>778.2</ele>
        <time>2025-09-28T08:34:51Z</time>
      </trkpt>
      <trkpt lat="45.66444" lon="3.02321">
        <ele>777.8</ele>
        <time>2025-09-28T08:34:52Z</time>
      </trkpt>
      <trkpt lat="45.66446" lon="3.02325">
        <ele>777.4</ele>
        <time>2025-09-28T08:34:53Z</time>
      </trkpt>
      <trkpt lat="45.66448" lon="3.02329">
        <ele>777.2</ele>
        <time>2025-09-28T08:34:54Z</time>
      </trkpt>
      <trkpt lat="45.66449" lon="3.02335">
        <ele>776.8</ele>
        <time>2025-09-28T08:34:55Z</time>
      </trkpt>
      <trkpt lat="45.66451" lon="3.02341">
        <ele>776.2</ele>
        <time>2025-09-28T08:34:56Z</time>
      </trkpt>
      <trkpt lat="45.66452" lon="3.02348">
        <ele>775.8</ele>
        <time>2025-09-28T08:34:57Z</time>
      </trkpt>
      <trkpt lat="45.66452" lon="3.02356">
        <ele>775.4</ele>
        <time>2025-09-28T08:34:58Z</time>
      </trkpt>
      <trkpt lat="45.66452" lon="3.02364">
        <ele>775</ele>
        <time>2025-09-28T08:34:59Z</time>
      </trkpt>
      <trkpt lat="45.66451" lon="3.02372">
        <ele>774.8</ele>
        <time>2025-09-28T08:35:00Z</time>
      </trkpt>
      <trkpt lat="45.6645" lon="3.02379">
        <ele>774.4</ele>
        <time>2025-09-28T08:35:01Z</time>
      </trkpt>
      <trkpt lat="45.66448" lon="3.02386">
        <ele>774</ele>
        <time>2025-09-28T08:35:02Z</time>
      </trkpt>
      <trkpt lat="45.66445" lon="3.02394">
        <ele>773.6</ele>
        <time>2025-09-28T08:35:03Z</time>
      </trkpt>
      <trkpt lat="45.66443" lon="3.02401">
        <ele>773.2</ele>
        <time>2025-09-28T08:35:04Z</time>
      </trkpt>
      <trkpt lat="45.66442" lon="3.02409">
        <ele>772.8</ele>
        <time>2025-09-28T08:35:05Z</time>
      </trkpt>
      <trkpt lat="45.66442" lon="3.02416">
        <ele>772.4</ele>
        <time>2025-09-28T08:35:06Z</time>
      </trkpt>
      <trkpt lat="45.6644" lon="3.02421">
        <ele>772.2</ele>
        <time>2025-09-28T08:35:07Z</time>
      </trkpt>
      <trkpt lat="45.66437" lon="3.02424">
        <ele>772</ele>
        <time>2025-09-28T08:35:08Z</time>
      </trkpt>
      <trkpt lat="45.66432" lon="3.02426">
        <ele>771.8</ele>
        <time>2025-09-28T08:35:09Z</time>
      </trkpt>
      <trkpt lat="45.66428" lon="3.02428">
        <ele>771.4</ele>
        <time>2025-09-28T08:35:10Z</time>
      </trkpt>
      <trkpt lat="45.66423" lon="3.0243">
        <ele>771</ele>
        <time>2025-09-28T08:35:11Z</time>
      </trkpt>
      <trkpt lat="45.66418" lon="3.02433">
        <ele>770.6</ele>
        <time>2025-09-28T08:35:12Z</time>
      </trkpt>
      <trkpt lat="45.66414" lon="3.02435">
        <ele>770</ele>
        <time>2025-09-28T08:35:13Z</time>
      </trkpt>
      <trkpt lat="45.6641" lon="3.02437">
        <ele>769.6</ele>
        <time>2025-09-28T08:35:14Z</time>
      </trkpt>
      <trkpt lat="45.66407" lon="3.02439">
        <ele>769</ele>
        <time>2025-09-28T08:35:15Z</time>
      </trkpt>
      <trkpt lat="45.66406" lon="3.02442">
        <ele>768.6</ele>
        <time>2025-09-28T08:35:16Z</time>
      </trkpt>
      <trkpt lat="45.66406" lon="3.02444">
        <ele>768</ele>
        <time>2025-09-28T08:35:17Z</time>
      </trkpt>
      <trkpt lat="45.66408" lon="3.02447">
        <ele>767.6</ele>
        <time>2025-09-28T08:35:18Z</time>
      </trkpt>
      <trkpt lat="45.6641" lon="3.02451">
        <ele>767</ele>
        <time>2025-09-28T08:35:19Z</time>
      </trkpt>
      <trkpt lat="45.66413" lon="3.02457">
        <ele>766.4</ele>
        <time>2025-09-28T08:35:20Z</time>
      </trkpt>
      <trkpt lat="45.66415" lon="3.02462">
        <ele>765.6</ele>
        <time>2025-09-28T08:35:21Z</time>
      </trkpt>
      <trkpt lat="45.66417" lon="3.02469">
        <ele>764.8</ele>
        <time>2025-09-28T08:35:22Z</time>
      </trkpt>
      <trkpt lat="45.6642" lon="3.02478">
        <ele>763.8</ele>
        <time>2025-09-28T08:35:23Z</time>
      </trkpt>
      <trkpt lat="45.66422" lon="3.02488">
        <ele>763</ele>
        <time>2025-09-28T08:35:24Z</time>
      </trkpt>
      <trkpt lat="45.66424" lon="3.02499">
        <ele>762.2</ele>
        <time>2025-09-28T08:35:25Z</time>
      </trkpt>
      <trkpt lat="45.66424" lon="3.02509">
        <ele>761.4</ele>
        <time>2025-09-28T08:35:26Z</time>
      </trkpt>
      <trkpt lat="45.66422" lon="3.02519">
        <ele>760.6</ele>
        <time>2025-09-28T08:35:27Z</time>
      </trkpt>
      <trkpt lat="45.66421" lon="3.02528">
        <ele>760</ele>
        <time>2025-09-28T08:35:28Z</time>
      </trkpt>
      <trkpt lat="45.6642" lon="3.02535">
        <ele>759.4</ele>
        <time>2025-09-28T08:35:29Z</time>
      </trkpt>
      <trkpt lat="45.66421" lon="3.02544">
        <ele>759.2</ele>
        <time>2025-09-28T08:35:30Z</time>
      </trkpt>
      <trkpt lat="45.66423" lon="3.02552">
        <ele>759</ele>
        <time>2025-09-28T08:35:31Z</time>
      </trkpt>
      <trkpt lat="45.66425" lon="3.02557">
        <ele>759.2</ele>
        <time>2025-09-28T08:35:32Z</time>
      </trkpt>
      <trkpt lat="45.66427" lon="3.02561">
        <ele>759.2</ele>
        <time>2025-09-28T08:35:33Z</time>
      </trkpt>
      <trkpt lat="45.66427" lon="3.02566">
        <ele>759.4</ele>
        <time>2025-09-28T08:35:34Z</time>
      </trkpt>
      <trkpt lat="45.66427" lon="3.02573">
        <ele>759.4</ele>
        <time>2025-09-28T08:35:35Z</time>
      </trkpt>
      <trkpt lat="45.66424" lon="3.02577">
        <ele>759.4</ele>
        <time>2025-09-28T08:35:36Z</time>
      </trkpt>
      <trkpt lat="45.66421" lon="3.02578">
        <ele>759.4</ele>
        <time>2025-09-28T08:35:37Z</time>
      </trkpt>
      <trkpt lat="45.66416" lon="3.02577">
        <ele>759.4</ele>
        <time>2025-09-28T08:35:38Z</time>
      </trkpt>
      <trkpt lat="45.66412" lon="3.02578">
        <ele>759.4</ele>
        <time>2025-09-28T08:35:39Z</time>
      </trkpt>
      <trkpt lat="45.66408" lon="3.02581">
        <ele>759.2</ele>
        <time>2025-09-28T08:35:40Z</time>
      </trkpt>
      <trkpt lat="45.66404" lon="3.02585">
        <ele>759.2</ele>
        <time>2025-09-28T08:35:41Z</time>
      </trkpt>
      <trkpt lat="45.664" lon="3.02589">
        <ele>759</ele>
        <time>2025-09-28T08:35:42Z</time>
      </trkpt>
      <trkpt lat="45.66396" lon="3.02593">
        <ele>759</ele>
        <time>2025-09-28T08:35:43Z</time>
      </trkpt>
      <trkpt lat="45.66393" lon="3.02598">
        <ele>759.2</ele>
        <time>2025-09-28T08:35:44Z</time>
      </trkpt>
      <trkpt lat="45.66389" lon="3.02602">
        <ele>759.4</ele>
        <time>2025-09-28T08:35:45Z</time>
      </trkpt>
      <trkpt lat="45.66387" lon="3.02606">
        <ele>759.8</ele>
        <time>2025-09-28T08:35:46Z</time>
      </trkpt>
      <trkpt lat="45.66386" lon="3.02609">
        <ele>760.2</ele>
        <time>2025-09-28T08:35:47Z</time>
      </trkpt>
      <trkpt lat="45.66385" lon="3.02613">
        <ele>760.6</ele>
        <time>2025-09-28T08:35:48Z</time>
      </trkpt>
      <trkpt lat="45.66383" lon="3.02618">
        <ele>761.2</ele>
        <time>2025-09-28T08:35:49Z</time>
      </trkpt>
      <trkpt lat="45.66382" lon="3.02622">
        <ele>761.6</ele>
        <time>2025-09-28T08:35:50Z</time>
      </trkpt>
      <trkpt lat="45.6638" lon="3.02627">
        <ele>762</ele>
        <time>2025-09-28T08:35:51Z</time>
      </trkpt>
      <trkpt lat="45.66379" lon="3.0263">
        <ele>762.4</ele>
        <time>2025-09-28T08:35:52Z</time>
      </trkpt>
      <trkpt lat="45.66376" lon="3.02634">
        <ele>762.6</ele>
        <time>2025-09-28T08:35:53Z</time>
      </trkpt>
      <trkpt lat="45.66373" lon="3.02639">
        <ele>762.8</ele>
        <time>2025-09-28T08:35:54Z</time>
      </trkpt>
      <trkpt lat="45.6637" lon="3.02644">
        <ele>762.8</ele>
        <time>2025-09-28T08:35:55Z</time>
      </trkpt>
      <trkpt lat="45.66366" lon="3.02648">
        <ele>762.8</ele>
        <time>2025-09-28T08:35:56Z</time>
      </trkpt>
      <trkpt lat="45.66362" lon="3.02653">
        <ele>762.6</ele>
        <time>2025-09-28T08:35:57Z</time>
      </trkpt>
      <trkpt lat="45.66357" lon="3.02659">
        <ele>762</ele>
        <time>2025-09-28T08:35:58Z</time>
      </trkpt>
      <trkpt lat="45.6635" lon="3.02665">
        <ele>761.8</ele>
        <time>2025-09-28T08:35:59Z</time>
      </trkpt>
      <trkpt lat="45.66343" lon="3.02672">
        <ele>761.6</ele>
        <time>2025-09-28T08:36:00Z</time>
      </trkpt>
      <trkpt lat="45.66337" lon="3.0268">
        <ele>761.4</ele>
        <time>2025-09-28T08:36:01Z</time>
      </trkpt>
      <trkpt lat="45.66332" lon="3.02688">
        <ele>761.4</ele>
        <time>2025-09-28T08:36:02Z</time>
      </trkpt>
      <trkpt lat="45.66329" lon="3.02695">
        <ele>761.2</ele>
        <time>2025-09-28T08:36:03Z</time>
      </trkpt>
      <trkpt lat="45.66327" lon="3.02701">
        <ele>760.6</ele>
        <time>2025-09-28T08:36:04Z</time>
      </trkpt>
      <trkpt lat="45.66325" lon="3.02707">
        <ele>760</ele>
        <time>2025-09-28T08:36:05Z</time>
      </trkpt>
      <trkpt lat="45.66321" lon="3.02713">
        <ele>759.4</ele>
        <time>2025-09-28T08:36:06Z</time>
      </trkpt>
      <trkpt lat="45.66315" lon="3.02718">
        <ele>759</ele>
        <time>2025-09-28T08:36:07Z</time>
      </trkpt>
      <trkpt lat="45.66307" lon="3.02725">
        <ele>758.4</ele>
        <time>2025-09-28T08:36:08Z</time>
      </trkpt>
      <trkpt lat="45.66299" lon="3.02732">
        <ele>757.8</ele>
        <time>2025-09-28T08:36:09Z</time>
      </trkpt>
      <trkpt lat="45.66292" lon="3.02737">
        <ele>757</ele>
        <time>2025-09-28T08:36:10Z</time>
      </trkpt>
      <trkpt lat="45.66286" lon="3.02741">
        <ele>756.2</ele>
        <time>2025-09-28T08:36:11Z</time>
      </trkpt>
      <trkpt lat="45.66281" lon="3.02744">
        <ele>755.4</ele>
        <time>2025-09-28T08:36:12Z</time>
      </trkpt>
      <trkpt lat="45.66276" lon="3.02747">
        <ele>754.6</ele>
        <time>2025-09-28T08:36:13Z</time>
      </trkpt>
      <trkpt lat="45.6627" lon="3.0275">
        <ele>754</ele>
        <time>2025-09-28T08:36:14Z</time>
      </trkpt>
      <trkpt lat="45.66265" lon="3.02756">
        <ele>753.6</ele>
        <time>2025-09-28T08:36:15Z</time>
      </trkpt>
      <trkpt lat="45.66262" lon="3.02763">
        <ele>753.2</ele>
        <time>2025-09-28T08:36:16Z</time>
      </trkpt>
      <trkpt lat="45.6626" lon="3.02769">
        <ele>752.8</ele>
        <time>2025-09-28T08:36:17Z</time>
      </trkpt>
      <trkpt lat="45.6626" lon="3.02775">
        <ele>752.6</ele>
        <time>2025-09-28T08:36:18Z</time>
      </trkpt>
      <trkpt lat="45.6626" lon="3.02779">
        <ele>752.4</ele>
        <time>2025-09-28T08:36:19Z</time>
      </trkpt>
      <trkpt lat="45.66262" lon="3.02783">
        <ele>752.4</ele>
        <time>2025-09-28T08:36:20Z</time>
      </trkpt>
      <trkpt lat="45.66265" lon="3.02788">
        <ele>752.6</ele>
        <time>2025-09-28T08:36:21Z</time>
      </trkpt>
      <trkpt lat="45.66267" lon="3.02793">
        <ele>752.6</ele>
        <time>2025-09-28T08:36:22Z</time>
      </trkpt>
      <trkpt lat="45.66269" lon="3.02799">
        <ele>753</ele>
        <time>2025-09-28T08:36:23Z</time>
      </trkpt>
      <trkpt lat="45.66271" lon="3.02806">
        <ele>753.2</ele>
        <time>2025-09-28T08:36:24Z</time>
      </trkpt>
      <trkpt lat="45.66272" lon="3.02812">
        <ele>753.6</ele>
        <time>2025-09-28T08:36:25Z</time>
      </trkpt>
      <trkpt lat="45.66272" lon="3.02818">
        <ele>754</ele>
        <time>2025-09-28T08:36:26Z</time>
      </trkpt>
      <trkpt lat="45.66272" lon="3.02825">
        <ele>754.2</ele>
        <time>2025-09-28T08:36:27Z</time>
      </trkpt>
      <trkpt lat="45.66272" lon="3.02832">
        <ele>754.4</ele>
        <time>2025-09-28T08:36:28Z</time>
      </trkpt>
      <trkpt lat="45.66273" lon="3.02839">
        <ele>754.4</ele>
        <time>2025-09-28T08:36:29Z</time>
      </trkpt>
      <trkpt lat="45.66274" lon="3.02847">
        <ele>754.6</ele>
        <time>2025-09-28T08:36:30Z</time>
      </trkpt>
      <trkpt lat="45.66275" lon="3.02856">
        <ele>754.6</ele>
        <time>2025-09-28T08:36:31Z</time>
      </trkpt>
      <trkpt lat="45.66277" lon="3.02864">
        <ele>754.8</ele>
        <time>2025-09-28T08:36:32Z</time>
      </trkpt>
      <trkpt lat="45.66278" lon="3.02871">
        <ele>754.8</ele>
        <time>2025-09-28T08:36:33Z</time>
      </trkpt>
      <trkpt lat="45.66279" lon="3.02879">
        <ele>754.8</ele>
        <time>2025-09-28T08:36:34Z</time>
      </trkpt>
      <trkpt lat="45.66279" lon="3.02886">
        <ele>754.8</ele>
        <time>2025-09-28T08:36:35Z</time>
      </trkpt>
      <trkpt lat="45.66278" lon="3.02892">
        <ele>754.8</ele>
        <time>2025-09-28T08:36:36Z</time>
      </trkpt>
      <trkpt lat="45.66277" lon="3.02898">
        <ele>754.6</ele>
        <time>2025-09-28T08:36:37Z</time>
      </trkpt>
      <trkpt lat="45.66277" lon="3.02904">
        <ele>754.6</ele>
        <time>2025-09-28T08:36:38Z</time>
      </trkpt>
      <trkpt lat="45.66277" lon="3.02911">
        <ele>754.6</ele>
        <time>2025-09-28T08:36:39Z</time>
      </trkpt>
      <trkpt lat="45.66278" lon="3.02917">
        <ele>754.8</ele>
        <time>2025-09-28T08:36:40Z</time>
      </trkpt>
      <trkpt lat="45.6628" lon="3.02922">
        <ele>754.8</ele>
        <time>2025-09-28T08:36:41Z</time>
      </trkpt>
      <trkpt lat="45.66283" lon="3.02928">
        <ele>754.8</ele>
        <time>2025-09-28T08:36:42Z</time>
      </trkpt>
      <trkpt lat="45.66286" lon="3.02932">
        <ele>754.8</ele>
        <time>2025-09-28T08:36:43Z</time>
      </trkpt>
      <trkpt lat="45.66289" lon="3.02937">
        <ele>754.8</ele>
        <time>2025-09-28T08:36:44Z</time>
      </trkpt>
      <trkpt lat="45.66291" lon="3.02941">
        <ele>754.8</ele>
        <time>2025-09-28T08:36:45Z</time>
      </trkpt>
      <trkpt lat="45.66293" lon="3.02945">
        <ele>755</ele>
        <time>2025-09-28T08:36:46Z</time>
      </trkpt>
      <trkpt lat="45.66293" lon="3.0295">
        <ele>755</ele>
        <time>2025-09-28T08:36:47Z</time>
      </trkpt>
      <trkpt lat="45.66293" lon="3.02955">
        <ele>755</ele>
        <time>2025-09-28T08:36:48Z</time>
      </trkpt>
      <trkpt lat="45.66293" lon="3.0296">
        <ele>755</ele>
        <time>2025-09-28T08:36:49Z</time>
      </trkpt>
      <trkpt lat="45.66293" lon="3.02966">
        <ele>754.8</ele>
        <time>2025-09-28T08:36:50Z</time>
      </trkpt>
      <trkpt lat="45.66293" lon="3.02971">
        <ele>754.6</ele>
        <time>2025-09-28T08:36:51Z</time>
      </trkpt>
      <trkpt lat="45.66293" lon="3.02976">
        <ele>754.6</ele>
        <time>2025-09-28T08:36:52Z</time>
      </trkpt>
      <trkpt lat="45.66293" lon="3.02981">
        <ele>754.4</ele>
        <time>2025-09-28T08:36:53Z</time>
      </trkpt>
      <trkpt lat="45.66294" lon="3.02986">
        <ele>754.4</ele>
        <time>2025-09-28T08:36:54Z</time>
      </trkpt>
      <trkpt lat="45.66295" lon="3.02991">
        <ele>754.2</ele>
        <time>2025-09-28T08:36:55Z</time>
      </trkpt>
      <trkpt lat="45.66296" lon="3.02995">
        <ele>754.2</ele>
        <time>2025-09-28T08:36:56Z</time>
      </trkpt>
      <trkpt lat="45.66298" lon="3.03">
        <ele>754.2</ele>
        <time>2025-09-28T08:36:57Z</time>
      </trkpt>
      <trkpt lat="45.663" lon="3.03004">
        <ele>754.2</ele>
        <time>2025-09-28T08:36:58Z</time>
      </trkpt>
      <trkpt lat="45.66302" lon="3.03008">
        <ele>754.2</ele>
        <time>2025-09-28T08:36:59Z</time>
      </trkpt>
      <trkpt lat="45.66305" lon="3.03012">
        <ele>754.2</ele>
        <time>2025-09-28T08:37:00Z</time>
      </trkpt>
      <trkpt lat="45.66308" lon="3.03017">
        <ele>754.2</ele>
        <time>2025-09-28T08:37:01Z</time>
      </trkpt>
      <trkpt lat="45.6631" lon="3.03022">
        <ele>754.2</ele>
        <time>2025-09-28T08:37:02Z</time>
      </trkpt>
      <trkpt lat="45.66312" lon="3.03027">
        <ele>754.2</ele>
        <time>2025-09-28T08:37:03Z</time>
      </trkpt>
      <trkpt lat="45.66314" lon="3.03032">
        <ele>754</ele>
        <time>2025-09-28T08:37:04Z</time>
      </trkpt>
      <trkpt lat="45.66314" lon="3.03037">
        <ele>754</ele>
        <time>2025-09-28T08:37:05Z</time>
      </trkpt>
      <trkpt lat="45.66315" lon="3.03043">
        <ele>754</ele>
        <time>2025-09-28T08:37:06Z</time>
      </trkpt>
      <trkpt lat="45.66316" lon="3.0305">
        <ele>754</ele>
        <time>2025-09-28T08:37:07Z</time>
      </trkpt>
      <trkpt lat="45.66317" lon="3.03056">
        <ele>754</ele>
        <time>2025-09-28T08:37:08Z</time>
      </trkpt>
      <trkpt lat="45.66319" lon="3.03062">
        <ele>754</ele>
        <time>2025-09-28T08:37:09Z</time>
      </trkpt>
      <trkpt lat="45.66322" lon="3.03068">
        <ele>754.2</ele>
        <time>2025-09-28T08:37:10Z</time>
      </trkpt>
      <trkpt lat="45.66326" lon="3.03073">
        <ele>754.2</ele>
        <time>2025-09-28T08:37:11Z</time>
      </trkpt>
      <trkpt lat="45.66329" lon="3.03078">
        <ele>754.2</ele>
        <time>2025-09-28T08:37:12Z</time>
      </trkpt>
      <trkpt lat="45.66332" lon="3.03084">
        <ele>754.2</ele>
        <time>2025-09-28T08:37:13Z</time>
      </trkpt>
      <trkpt lat="45.66334" lon="3.03091">
        <ele>754.2</ele>
        <time>2025-09-28T08:37:14Z</time>
      </trkpt>
      <trkpt lat="45.66336" lon="3.03098">
        <ele>754.2</ele>
        <time>2025-09-28T08:37:15Z</time>
      </trkpt>
      <trkpt lat="45.66336" lon="3.03105">
        <ele>754.2</ele>
        <time>2025-09-28T08:37:16Z</time>
      </trkpt>
      <trkpt lat="45.66336" lon="3.03112">
        <ele>754.2</ele>
        <time>2025-09-28T08:37:17Z</time>
      </trkpt>
      <trkpt lat="45.66336" lon="3.0312">
        <ele>754.2</ele>
        <time>2025-09-28T08:37:18Z</time>
      </trkpt>
      <trkpt lat="45.66335" lon="3.03126">
        <ele>754.2</ele>
        <time>2025-09-28T08:37:19Z</time>
      </trkpt>
      <trkpt lat="45.66335" lon="3.03133">
        <ele>754.4</ele>
        <time>2025-09-28T08:37:20Z</time>
      </trkpt>
      <trkpt lat="45.66336" lon="3.03139">
        <ele>754.4</ele>
        <time>2025-09-28T08:37:21Z</time>
      </trkpt>
      <trkpt lat="45.66337" lon="3.03144">
        <ele>754.6</ele>
        <time>2025-09-28T08:37:22Z</time>
      </trkpt>
      <trkpt lat="45.66339" lon="3.0315">
        <ele>754.6</ele>
        <time>2025-09-28T08:37:23Z</time>
      </trkpt>
      <trkpt lat="45.6634" lon="3.03155">
        <ele>754.6</ele>
        <time>2025-09-28T08:37:24Z</time>
      </trkpt>
      <trkpt lat="45.66342" lon="3.03161">
        <ele>754.6</ele>
        <time>2025-09-28T08:37:25Z</time>
      </trkpt>
      <trkpt lat="45.66344" lon="3.03167">
        <ele>754.4</ele>
        <time>2025-09-28T08:37:26Z</time>
      </trkpt>
      <trkpt lat="45.66346" lon="3.03173">
        <ele>754.4</ele>
        <time>2025-09-28T08:37:27Z</time>
      </trkpt>
      <trkpt lat="45.66347" lon="3.03179">
        <ele>754.2</ele>
        <time>2025-09-28T08:37:28Z</time>
      </trkpt>
      <trkpt lat="45.66349" lon="3.03184">
        <ele>754.2</ele>
        <time>2025-09-28T08:37:29Z</time>
      </trkpt>
      <trkpt lat="45.66352" lon="3.0319">
        <ele>754.2</ele>
        <time>2025-09-28T08:37:30Z</time>
      </trkpt>
      <trkpt lat="45.66355" lon="3.03194">
        <ele>754</ele>
        <time>2025-09-28T08:37:31Z</time>
      </trkpt>
      <trkpt lat="45.66358" lon="3.03198">
        <ele>754</ele>
        <time>2025-09-28T08:37:32Z</time>
      </trkpt>
      <trkpt lat="45.66361" lon="3.03202">
        <ele>753.8</ele>
        <time>2025-09-28T08:37:33Z</time>
      </trkpt>
      <trkpt lat="45.66364" lon="3.03206">
        <ele>753.4</ele>
        <time>2025-09-28T08:37:34Z</time>
      </trkpt>
      <trkpt lat="45.66367" lon="3.03211">
        <ele>753.2</ele>
        <time>2025-09-28T08:37:35Z</time>
      </trkpt>
      <trkpt lat="45.66369" lon="3.03217">
        <ele>753</ele>
        <time>2025-09-28T08:37:36Z</time>
      </trkpt>
      <trkpt lat="45.66371" lon="3.03222">
        <ele>753</ele>
        <time>2025-09-28T08:37:37Z</time>
      </trkpt>
      <trkpt lat="45.66371" lon="3.03227">
        <ele>752.8</ele>
        <time>2025-09-28T08:37:38Z</time>
      </trkpt>
      <trkpt lat="45.66371" lon="3.03233">
        <ele>752.8</ele>
        <time>2025-09-28T08:37:39Z</time>
      </trkpt>
      <trkpt lat="45.66369" lon="3.03239">
        <ele>752.8</ele>
        <time>2025-09-28T08:37:40Z</time>
      </trkpt>
      <trkpt lat="45.66367" lon="3.03245">
        <ele>752.8</ele>
        <time>2025-09-28T08:37:41Z</time>
      </trkpt>
      <trkpt lat="45.66365" lon="3.03252">
        <ele>753</ele>
        <time>2025-09-28T08:37:42Z</time>
      </trkpt>
      <trkpt lat="45.66364" lon="3.03257">
        <ele>753</ele>
        <time>2025-09-28T08:37:43Z</time>
      </trkpt>
      <trkpt lat="45.66366" lon="3.03262">
        <ele>753</ele>
        <time>2025-09-28T08:37:44Z</time>
      </trkpt>
      <trkpt lat="45.66368" lon="3.03267">
        <ele>753</ele>
        <time>2025-09-28T08:37:45Z</time>
      </trkpt>
      <trkpt lat="45.66371" lon="3.03271">
        <ele>753</ele>
        <time>2025-09-28T08:37:46Z</time>
      </trkpt>
      <trkpt lat="45.66374" lon="3.03274">
        <ele>753</ele>
        <time>2025-09-28T08:37:47Z</time>
      </trkpt>
      <trkpt lat="45.66377" lon="3.03278">
        <ele>753</ele>
        <time>2025-09-28T08:37:48Z</time>
      </trkpt>
      <trkpt lat="45.6638" lon="3.03283">
        <ele>753</ele>
        <time>2025-09-28T08:37:49Z</time>
      </trkpt>
      <trkpt lat="45.66383" lon="3.03287">
        <ele>752.8</ele>
        <time>2025-09-28T08:37:50Z</time>
      </trkpt>
      <trkpt lat="45.66385" lon="3.03292">
        <ele>752.8</ele>
        <time>2025-09-28T08:37:51Z</time>
      </trkpt>
      <trkpt lat="45.66388" lon="3.03297">
        <ele>752.8</ele>
        <time>2025-09-28T08:37:52Z</time>
      </trkpt>
      <trkpt lat="45.66391" lon="3.03302">
        <ele>752.8</ele>
        <time>2025-09-28T08:37:53Z</time>
      </trkpt>
      <trkpt lat="45.66394" lon="3.03308">
        <ele>752.8</ele>
        <time>2025-09-28T08:37:54Z</time>
      </trkpt>
      <trkpt lat="45.66396" lon="3.03315">
        <ele>752.8</ele>
        <time>2025-09-28T08:37:55Z</time>
      </trkpt>
      <trkpt lat="45.66398" lon="3.0332">
        <ele>752.8</ele>
        <time>2025-09-28T08:37:56Z</time>
      </trkpt>
      <trkpt lat="45.66398" lon="3.03326">
        <ele>753</ele>
        <time>2025-09-28T08:37:57Z</time>
      </trkpt>
      <trkpt lat="45.66398" lon="3.03333">
        <ele>753</ele>
        <time>2025-09-28T08:37:58Z</time>
      </trkpt>
      <trkpt lat="45.66397" lon="3.03341">
        <ele>752.8</ele>
        <time>2025-09-28T08:37:59Z</time>
      </trkpt>
      <trkpt lat="45.66396" lon="3.03348">
        <ele>752.8</ele>
        <time>2025-09-28T08:38:00Z</time>
      </trkpt>
      <trkpt lat="45.66394" lon="3.03356">
        <ele>752.6</ele>
        <time>2025-09-28T08:38:01Z</time>
      </trkpt>
      <trkpt lat="45.66393" lon="3.03363">
        <ele>752.6</ele>
        <time>2025-09-28T08:38:02Z</time>
      </trkpt>
      <trkpt lat="45.66393" lon="3.03371">
        <ele>752.4</ele>
        <time>2025-09-28T08:38:03Z</time>
      </trkpt>
      <trkpt lat="45.66393" lon="3.03378">
        <ele>752.2</ele>
        <time>2025-09-28T08:38:04Z</time>
      </trkpt>
      <trkpt lat="45.66393" lon="3.03384">
        <ele>752.2</ele>
        <time>2025-09-28T08:38:05Z</time>
      </trkpt>
      <trkpt lat="45.66393" lon="3.0339">
        <ele>752.2</ele>
        <time>2025-09-28T08:38:06Z</time>
      </trkpt>
      <trkpt lat="45.66392" lon="3.03395">
        <ele>752.4</ele>
        <time>2025-09-28T08:38:07Z</time>
      </trkpt>
      <trkpt lat="45.66391" lon="3.03399">
        <ele>752.4</ele>
        <time>2025-09-28T08:38:08Z</time>
      </trkpt>
      <trkpt lat="45.66389" lon="3.03404">
        <ele>752.6</ele>
        <time>2025-09-28T08:38:09Z</time>
      </trkpt>
      <trkpt lat="45.66388" lon="3.03407">
        <ele>752.6</ele>
        <time>2025-09-28T08:38:10Z</time>
      </trkpt>
      <trkpt lat="45.66386" lon="3.0341">
        <ele>752.6</ele>
        <time>2025-09-28T08:38:11Z</time>
      </trkpt>
      <trkpt lat="45.66385" lon="3.03414">
        <ele>752.8</ele>
        <time>2025-09-28T08:38:12Z</time>
      </trkpt>
      <trkpt lat="45.66383" lon="3.0342">
        <ele>752.8</ele>
        <time>2025-09-28T08:38:13Z</time>
      </trkpt>
      <trkpt lat="45.66381" lon="3.03426">
        <ele>752.8</ele>
        <time>2025-09-28T08:38:14Z</time>
      </trkpt>
      <trkpt lat="45.66378" lon="3.03433">
        <ele>753</ele>
        <time>2025-09-28T08:38:15Z</time>
      </trkpt>
      <trkpt lat="45.66376" lon="3.0344">
        <ele>753</ele>
        <time>2025-09-28T08:38:16Z</time>
      </trkpt>
      <trkpt lat="45.66373" lon="3.03447">
        <ele>753.2</ele>
        <time>2025-09-28T08:38:17Z</time>
      </trkpt>
      <trkpt lat="45.66371" lon="3.03454">
        <ele>753.4</ele>
        <time>2025-09-28T08:38:18Z</time>
      </trkpt>
      <trkpt lat="45.66369" lon="3.0346">
        <ele>753.8</ele>
        <time>2025-09-28T08:38:19Z</time>
      </trkpt>
      <trkpt lat="45.66367" lon="3.03465">
        <ele>754</ele>
        <time>2025-09-28T08:38:20Z</time>
      </trkpt>
      <trkpt lat="45.66365" lon="3.0347">
        <ele>754.4</ele>
        <time>2025-09-28T08:38:21Z</time>
      </trkpt>
      <trkpt lat="45.66364" lon="3.03476">
        <ele>754.8</ele>
        <time>2025-09-28T08:38:22Z</time>
      </trkpt>
      <trkpt lat="45.66364" lon="3.03482">
        <ele>755.2</ele>
        <time>2025-09-28T08:38:23Z</time>
      </trkpt>
      <trkpt lat="45.66365" lon="3.03487">
        <ele>755.4</ele>
        <time>2025-09-28T08:38:24Z</time>
      </trkpt>
      <trkpt lat="45.66367" lon="3.03492">
        <ele>755.6</ele>
        <time>2025-09-28T08:38:25Z</time>
      </trkpt>
      <trkpt lat="45.6637" lon="3.03497">
        <ele>755.6</ele>
        <time>2025-09-28T08:38:26Z</time>
      </trkpt>
      <trkpt lat="45.66373" lon="3.03502">
        <ele>755.6</ele>
        <time>2025-09-28T08:38:27Z</time>
      </trkpt>
      <trkpt lat="45.66378" lon="3.03506">
        <ele>755.6</ele>
        <time>2025-09-28T08:38:28Z</time>
      </trkpt>
      <trkpt lat="45.66382" lon="3.0351">
        <ele>755.4</ele>
        <time>2025-09-28T08:38:29Z</time>
      </trkpt>
      <trkpt lat="45.66387" lon="3.03515">
        <ele>755.2</ele>
        <time>2025-09-28T08:38:30Z</time>
      </trkpt>
      <trkpt lat="45.66391" lon="3.03521">
        <ele>754.8</ele>
        <time>2025-09-28T08:38:31Z</time>
      </trkpt>
      <trkpt lat="45.66394" lon="3.03527">
        <ele>754.6</ele>
        <time>2025-09-28T08:38:32Z</time>
      </trkpt>
      <trkpt lat="45.66397" lon="3.03534">
        <ele>754.2</ele>
        <time>2025-09-28T08:38:33Z</time>
      </trkpt>
      <trkpt lat="45.664" lon="3.0354">
        <ele>754</ele>
        <time>2025-09-28T08:38:34Z</time>
      </trkpt>
      <trkpt lat="45.66403" lon="3.03546">
        <ele>753.6</ele>
        <time>2025-09-28T08:38:35Z</time>
      </trkpt>
      <trkpt lat="45.66406" lon="3.03552">
        <ele>753.4</ele>
        <time>2025-09-28T08:38:36Z</time>
      </trkpt>
      <trkpt lat="45.66408" lon="3.03557">
        <ele>753</ele>
        <time>2025-09-28T08:38:37Z</time>
      </trkpt>
      <trkpt lat="45.6641" lon="3.03562">
        <ele>752.8</ele>
        <time>2025-09-28T08:38:38Z</time>
      </trkpt>
      <trkpt lat="45.66411" lon="3.03566">
        <ele>752.8</ele>
        <time>2025-09-28T08:38:39Z</time>
      </trkpt>
      <trkpt lat="45.66412" lon="3.0357">
        <ele>752.6</ele>
        <time>2025-09-28T08:38:40Z</time>
      </trkpt>
      <trkpt lat="45.66413" lon="3.03575">
        <ele>752.6</ele>
        <time>2025-09-28T08:38:41Z</time>
      </trkpt>
      <trkpt lat="45.66413" lon="3.03579">
        <ele>752.6</ele>
        <time>2025-09-28T08:38:42Z</time>
      </trkpt>
      <trkpt lat="45.66414" lon="3.03584">
        <ele>752.6</ele>
        <time>2025-09-28T08:38:43Z</time>
      </trkpt>
      <trkpt lat="45.66416" lon="3.03589">
        <ele>752.6</ele>
        <time>2025-09-28T08:38:44Z</time>
      </trkpt>
      <trkpt lat="45.66416" lon="3.03594">
        <ele>752.6</ele>
        <time>2025-09-28T08:38:45Z</time>
      </trkpt>
      <trkpt lat="45.66416" lon="3.03601">
        <ele>752.6</ele>
        <time>2025-09-28T08:38:46Z</time>
      </trkpt>
      <trkpt lat="45.66416" lon="3.03607">
        <ele>752.6</ele>
        <time>2025-09-28T08:38:47Z</time>
      </trkpt>
      <trkpt lat="45.66416" lon="3.03614">
        <ele>752.6</ele>
        <time>2025-09-28T08:38:48Z</time>
      </trkpt>
      <trkpt lat="45.66417" lon="3.0362">
        <ele>752.8</ele>
        <time>2025-09-28T08:38:49Z</time>
      </trkpt>
      <trkpt lat="45.6642" lon="3.03627">
        <ele>752.8</ele>
        <time>2025-09-28T08:38:50Z</time>
      </trkpt>
      <trkpt lat="45.66422" lon="3.03631">
        <ele>752.8</ele>
        <time>2025-09-28T08:38:51Z</time>
      </trkpt>
      <trkpt lat="45.66424" lon="3.03636">
        <ele>752.8</ele>
        <time>2025-09-28T08:38:52Z</time>
      </trkpt>
      <trkpt lat="45.66428" lon="3.03642">
        <ele>752.8</ele>
        <time>2025-09-28T08:38:53Z</time>
      </trkpt>
      <trkpt lat="45.66431" lon="3.03649">
        <ele>752.6</ele>
        <time>2025-09-28T08:38:54Z</time>
      </trkpt>
      <trkpt lat="45.66433" lon="3.03656">
        <ele>752.6</ele>
        <time>2025-09-28T08:38:55Z</time>
      </trkpt>
      <trkpt lat="45.66434" lon="3.03662">
        <ele>752.4</ele>
        <time>2025-09-28T08:38:56Z</time>
      </trkpt>
      <trkpt lat="45.66435" lon="3.03668">
        <ele>752.2</ele>
        <time>2025-09-28T08:38:57Z</time>
      </trkpt>
      <trkpt lat="45.66437" lon="3.03675">
        <ele>752</ele>
        <time>2025-09-28T08:38:58Z</time>
      </trkpt>
      <trkpt lat="45.6644" lon="3.03682">
        <ele>751.8</ele>
        <time>2025-09-28T08:38:59Z</time>
      </trkpt>
      <trkpt lat="45.66443" lon="3.03688">
        <ele>751.6</ele>
        <time>2025-09-28T08:39:00Z</time>
      </trkpt>
      <trkpt lat="45.66445" lon="3.03692">
        <ele>751.6</ele>
        <time>2025-09-28T08:39:01Z</time>
      </trkpt>
      <trkpt lat="45.66448" lon="3.03696">
        <ele>751.4</ele>
        <time>2025-09-28T08:39:02Z</time>
      </trkpt>
      <trkpt lat="45.66451" lon="3.037">
        <ele>751.4</ele>
        <time>2025-09-28T08:39:03Z</time>
      </trkpt>
      <trkpt lat="45.66454" lon="3.03705">
        <ele>751.2</ele>
        <time>2025-09-28T08:39:04Z</time>
      </trkpt>
      <trkpt lat="45.66458" lon="3.03711">
        <ele>751.2</ele>
        <time>2025-09-28T08:39:05Z</time>
      </trkpt>
      <trkpt lat="45.66461" lon="3.03718">
        <ele>751</ele>
        <time>2025-09-28T08:39:06Z</time>
      </trkpt>
      <trkpt lat="45.66464" lon="3.03724">
        <ele>751</ele>
        <time>2025-09-28T08:39:07Z</time>
      </trkpt>
      <trkpt lat="45.66467" lon="3.03729">
        <ele>750.8</ele>
        <time>2025-09-28T08:39:08Z</time>
      </trkpt>
      <trkpt lat="45.66469" lon="3.03735">
        <ele>750.6</ele>
        <time>2025-09-28T08:39:09Z</time>
      </trkpt>
      <trkpt lat="45.6647" lon="3.0374">
        <ele>750.6</ele>
        <time>2025-09-28T08:39:10Z</time>
      </trkpt>
      <trkpt lat="45.66471" lon="3.03744">
        <ele>750.4</ele>
        <time>2025-09-28T08:39:11Z</time>
      </trkpt>
      <trkpt lat="45.66472" lon="3.03748">
        <ele>750.4</ele>
        <time>2025-09-28T08:39:12Z</time>
      </trkpt>
      <trkpt lat="45.66474" lon="3.03752">
        <ele>750.2</ele>
        <time>2025-09-28T08:39:13Z</time>
      </trkpt>
      <trkpt lat="45.66475" lon="3.03757">
        <ele>750.2</ele>
        <time>2025-09-28T08:39:14Z</time>
      </trkpt>
      <trkpt lat="45.66476" lon="3.03761">
        <ele>750.2</ele>
        <time>2025-09-28T08:39:15Z</time>
      </trkpt>
      <trkpt lat="45.66477" lon="3.03766">
        <ele>750.2</ele>
        <time>2025-09-28T08:39:16Z</time>
      </trkpt>
      <trkpt lat="45.66477" lon="3.03772">
        <ele>750.2</ele>
        <time>2025-09-28T08:39:17Z</time>
      </trkpt>
      <trkpt lat="45.66476" lon="3.03779">
        <ele>750.2</ele>
        <time>2025-09-28T08:39:18Z</time>
      </trkpt>
      <trkpt lat="45.66476" lon="3.03785">
        <ele>750.2</ele>
        <time>2025-09-28T08:39:19Z</time>
      </trkpt>
      <trkpt lat="45.66475" lon="3.03792">
        <ele>750.4</ele>
        <time>2025-09-28T08:39:20Z</time>
      </trkpt>
      <trkpt lat="45.66474" lon="3.03798">
        <ele>750.4</ele>
        <time>2025-09-28T08:39:21Z</time>
      </trkpt>
      <trkpt lat="45.66474" lon="3.03805">
        <ele>750.4</ele>
        <time>2025-09-28T08:39:22Z</time>
      </trkpt>
      <trkpt lat="45.66472" lon="3.03812">
        <ele>750.4</ele>
        <time>2025-09-28T08:39:23Z</time>
      </trkpt>
      <trkpt lat="45.66471" lon="3.03818">
        <ele>750.4</ele>
        <time>2025-09-28T08:39:24Z</time>
      </trkpt>
      <trkpt lat="45.66469" lon="3.03824">
        <ele>750.4</ele>
        <time>2025-09-28T08:39:25Z</time>
      </trkpt>
      <trkpt lat="45.66467" lon="3.03829">
        <ele>750.6</ele>
        <time>2025-09-28T08:39:26Z</time>
      </trkpt>
      <trkpt lat="45.66465" lon="3.03834">
        <ele>750.6</ele>
        <time>2025-09-28T08:39:27Z</time>
      </trkpt>
      <trkpt lat="45.66462" lon="3.03839">
        <ele>750.6</ele>
        <time>2025-09-28T08:39:28Z</time>
      </trkpt>
      <trkpt lat="45.6646" lon="3.03843">
        <ele>750.6</ele>
        <time>2025-09-28T08:39:29Z</time>
      </trkpt>
      <trkpt lat="45.66457" lon="3.03847">
        <ele>750.8</ele>
        <time>2025-09-28T08:39:30Z</time>
      </trkpt>
      <trkpt lat="45.66454" lon="3.03851">
        <ele>750.8</ele>
        <time>2025-09-28T08:39:31Z</time>
      </trkpt>
      <trkpt lat="45.6645" lon="3.03853">
        <ele>750.8</ele>
        <time>2025-09-28T08:39:32Z</time>
      </trkpt>
      <trkpt lat="45.66447" lon="3.03856">
        <ele>751</ele>
        <time>2025-09-28T08:39:33Z</time>
      </trkpt>
      <trkpt lat="45.66444" lon="3.03859">
        <ele>751</ele>
        <time>2025-09-28T08:39:34Z</time>
      </trkpt>
      <trkpt lat="45.66441" lon="3.03862">
        <ele>751</ele>
        <time>2025-09-28T08:39:35Z</time>
      </trkpt>
      <trkpt lat="45.66439" lon="3.03866">
        <ele>751</ele>
        <time>2025-09-28T08:39:36Z</time>
      </trkpt>
      <trkpt lat="45.66438" lon="3.0387">
        <ele>751</ele>
        <time>2025-09-28T08:39:37Z</time>
      </trkpt>
      <trkpt lat="45.66437" lon="3.03875">
        <ele>750.8</ele>
        <time>2025-09-28T08:39:38Z</time>
      </trkpt>
      <trkpt lat="45.66437" lon="3.03881">
        <ele>750.6</ele>
        <time>2025-09-28T08:39:39Z</time>
      </trkpt>
      <trkpt lat="45.66437" lon="3.03887">
        <ele>750.2</ele>
        <time>2025-09-28T08:39:40Z</time>
      </trkpt>
      <trkpt lat="45.66438" lon="3.03893">
        <ele>750</ele>
        <time>2025-09-28T08:39:41Z</time>
      </trkpt>
      <trkpt lat="45.66439" lon="3.039">
        <ele>749.6</ele>
        <time>2025-09-28T08:39:42Z</time>
      </trkpt>
      <trkpt lat="45.66442" lon="3.03906">
        <ele>749</ele>
        <time>2025-09-28T08:39:43Z</time>
      </trkpt>
      <trkpt lat="45.66445" lon="3.03912">
        <ele>748.6</ele>
        <time>2025-09-28T08:39:44Z</time>
      </trkpt>
      <trkpt lat="45.66448" lon="3.03918">
        <ele>748.2</ele>
        <time>2025-09-28T08:39:45Z</time>
      </trkpt>
      <trkpt lat="45.66451" lon="3.03924">
        <ele>747.8</ele>
        <time>2025-09-28T08:39:46Z</time>
      </trkpt>
      <trkpt lat="45.66455" lon="3.03929">
        <ele>747.4</ele>
        <time>2025-09-28T08:39:47Z</time>
      </trkpt>
      <trkpt lat="45.66459" lon="3.03934">
        <ele>747</ele>
        <time>2025-09-28T08:39:48Z</time>
      </trkpt>
      <trkpt lat="45.66463" lon="3.0394">
        <ele>746.4</ele>
        <time>2025-09-28T08:39:49Z</time>
      </trkpt>
      <trkpt lat="45.66467" lon="3.03945">
        <ele>745.8</ele>
        <time>2025-09-28T08:39:50Z</time>
      </trkpt>
      <trkpt lat="45.66471" lon="3.03951">
        <ele>745.2</ele>
        <time>2025-09-28T08:39:51Z</time>
      </trkpt>
      <trkpt lat="45.66476" lon="3.03956">
        <ele>744.6</ele>
        <time>2025-09-28T08:39:52Z</time>
      </trkpt>
      <trkpt lat="45.66481" lon="3.03961">
        <ele>743.8</ele>
        <time>2025-09-28T08:39:53Z</time>
      </trkpt>
      <trkpt lat="45.66486" lon="3.03966">
        <ele>743.2</ele>
        <time>2025-09-28T08:39:54Z</time>
      </trkpt>
      <trkpt lat="45.66491" lon="3.0397">
        <ele>742.4</ele>
        <time>2025-09-28T08:39:55Z</time>
      </trkpt>
      <trkpt lat="45.66496" lon="3.03974">
        <ele>741.8</ele>
        <time>2025-09-28T08:39:56Z</time>
      </trkpt>
      <trkpt lat="45.665" lon="3.03978">
        <ele>741</ele>
        <time>2025-09-28T08:39:57Z</time>
      </trkpt>
      <trkpt lat="45.66506" lon="3.03983">
        <ele>740.4</ele>
        <time>2025-09-28T08:39:58Z</time>
      </trkpt>
      <trkpt lat="45.66511" lon="3.03989">
        <ele>739.8</ele>
        <time>2025-09-28T08:39:59Z</time>
      </trkpt>
      <trkpt lat="45.66515" lon="3.03994">
        <ele>739</ele>
        <time>2025-09-28T08:40:00Z</time>
      </trkpt>
      <trkpt lat="45.66519" lon="3.03998">
        <ele>738.4</ele>
        <time>2025-09-28T08:40:01Z</time>
      </trkpt>
      <trkpt lat="45.66522" lon="3.04002">
        <ele>737.8</ele>
        <time>2025-09-28T08:40:02Z</time>
      </trkpt>
      <trkpt lat="45.66526" lon="3.04007">
        <ele>737.2</ele>
        <time>2025-09-28T08:40:03Z</time>
      </trkpt>
      <trkpt lat="45.66529" lon="3.0401">
        <ele>736.6</ele>
        <time>2025-09-28T08:40:04Z</time>
      </trkpt>
      <trkpt lat="45.66532" lon="3.04011">
        <ele>736</ele>
        <time>2025-09-28T08:40:05Z</time>
      </trkpt>
      <trkpt lat="45.66535" lon="3.04011">
        <ele>735.4</ele>
        <time>2025-09-28T08:40:06Z</time>
      </trkpt>
      <trkpt lat="45.66538" lon="3.04013">
        <ele>734.8</ele>
        <time>2025-09-28T08:40:07Z</time>
      </trkpt>
      <trkpt lat="45.66541" lon="3.04015">
        <ele>734.2</ele>
        <time>2025-09-28T08:40:08Z</time>
      </trkpt>
      <trkpt lat="45.66543" lon="3.04018">
        <ele>733.8</ele>
        <time>2025-09-28T08:40:09Z</time>
      </trkpt>
      <trkpt lat="45.66544" lon="3.04022">
        <ele>733.2</ele>
        <time>2025-09-28T08:40:10Z</time>
      </trkpt>
      <trkpt lat="45.66545" lon="3.04026">
        <ele>732.4</ele>
        <time>2025-09-28T08:40:11Z</time>
      </trkpt>
      <trkpt lat="45.66545" lon="3.04031">
        <ele>731.8</ele>
        <time>2025-09-28T08:40:12Z</time>
      </trkpt>
      <trkpt lat="45.66544" lon="3.04037">
        <ele>731.2</ele>
        <time>2025-09-28T08:40:13Z</time>
      </trkpt>
      <trkpt lat="45.66542" lon="3.04043">
        <ele>730.4</ele>
        <time>2025-09-28T08:40:14Z</time>
      </trkpt>
      <trkpt lat="45.6654" lon="3.0405">
        <ele>729.6</ele>
        <time>2025-09-28T08:40:15Z</time>
      </trkpt>
      <trkpt lat="45.66538" lon="3.04057">
        <ele>729</ele>
        <time>2025-09-28T08:40:16Z</time>
      </trkpt>
      <trkpt lat="45.66535" lon="3.04066">
        <ele>728.2</ele>
        <time>2025-09-28T08:40:17Z</time>
      </trkpt>
      <trkpt lat="45.66531" lon="3.04075">
        <ele>727.4</ele>
        <time>2025-09-28T08:40:18Z</time>
      </trkpt>
      <trkpt lat="45.66528" lon="3.04083">
        <ele>726.8</ele>
        <time>2025-09-28T08:40:19Z</time>
      </trkpt>
      <trkpt lat="45.66526" lon="3.04091">
        <ele>726</ele>
        <time>2025-09-28T08:40:20Z</time>
      </trkpt>
      <trkpt lat="45.66524" lon="3.04098">
        <ele>725.2</ele>
        <time>2025-09-28T08:40:21Z</time>
      </trkpt>
      <trkpt lat="45.66522" lon="3.04107">
        <ele>724.2</ele>
        <time>2025-09-28T08:40:22Z</time>
      </trkpt>
      <trkpt lat="45.66521" lon="3.04116">
        <ele>723.4</ele>
        <time>2025-09-28T08:40:23Z</time>
      </trkpt>
      <trkpt lat="45.66518" lon="3.04127">
        <ele>722.6</ele>
        <time>2025-09-28T08:40:24Z</time>
      </trkpt>
      <trkpt lat="45.66515" lon="3.04139">
        <ele>721.6</ele>
        <time>2025-09-28T08:40:25Z</time>
      </trkpt>
      <trkpt lat="45.66513" lon="3.0415">
        <ele>720.8</ele>
        <time>2025-09-28T08:40:26Z</time>
      </trkpt>
      <trkpt lat="45.66511" lon="3.04162">
        <ele>719.8</ele>
        <time>2025-09-28T08:40:27Z</time>
      </trkpt>
      <trkpt lat="45.66508" lon="3.04171">
        <ele>719</ele>
        <time>2025-09-28T08:40:28Z</time>
      </trkpt>
      <trkpt lat="45.66507" lon="3.0418">
        <ele>718.2</ele>
        <time>2025-09-28T08:40:29Z</time>
      </trkpt>
      <trkpt lat="45.66506" lon="3.04188">
        <ele>717.4</ele>
        <time>2025-09-28T08:40:30Z</time>
      </trkpt>
      <trkpt lat="45.66504" lon="3.04196">
        <ele>716.6</ele>
        <time>2025-09-28T08:40:31Z</time>
      </trkpt>
      <trkpt lat="45.66502" lon="3.04203">
        <ele>716</ele>
        <time>2025-09-28T08:40:32Z</time>
      </trkpt>
      <trkpt lat="45.66501" lon="3.04211">
        <ele>715.2</ele>
        <time>2025-09-28T08:40:33Z</time>
      </trkpt>
      <trkpt lat="45.665" lon="3.0422">
        <ele>714.4</ele>
        <time>2025-09-28T08:40:34Z</time>
      </trkpt>
      <trkpt lat="45.66499" lon="3.0423">
        <ele>713.8</ele>
        <time>2025-09-28T08:40:35Z</time>
      </trkpt>
      <trkpt lat="45.66498" lon="3.04239">
        <ele>713</ele>
        <time>2025-09-28T08:40:36Z</time>
      </trkpt>
      <trkpt lat="45.66499" lon="3.04249">
        <ele>712.4</ele>
        <time>2025-09-28T08:40:37Z</time>
      </trkpt>
      <trkpt lat="45.66499" lon="3.04259">
        <ele>711.8</ele>
        <time>2025-09-28T08:40:38Z</time>
      </trkpt>
      <trkpt lat="45.665" lon="3.04268">
        <ele>711.4</ele>
        <time>2025-09-28T08:40:39Z</time>
      </trkpt>
      <trkpt lat="45.66501" lon="3.04278">
        <ele>711</ele>
        <time>2025-09-28T08:40:40Z</time>
      </trkpt>
      <trkpt lat="45.66502" lon="3.04286">
        <ele>710.6</ele>
        <time>2025-09-28T08:40:41Z</time>
      </trkpt>
      <trkpt lat="45.66503" lon="3.04295">
        <ele>710.4</ele>
        <time>2025-09-28T08:40:42Z</time>
      </trkpt>
      <trkpt lat="45.66503" lon="3.04302">
        <ele>710.2</ele>
        <time>2025-09-28T08:40:43Z</time>
      </trkpt>
      <trkpt lat="45.66504" lon="3.0431">
        <ele>709.8</ele>
        <time>2025-09-28T08:40:44Z</time>
      </trkpt>
      <trkpt lat="45.66506" lon="3.04317">
        <ele>709.4</ele>
        <time>2025-09-28T08:40:45Z</time>
      </trkpt>
      <trkpt lat="45.6651" lon="3.04325">
        <ele>709</ele>
        <time>2025-09-28T08:40:46Z</time>
      </trkpt>
      <trkpt lat="45.66513" lon="3.04332">
        <ele>708.4</ele>
        <time>2025-09-28T08:40:47Z</time>
      </trkpt>
      <trkpt lat="45.66517" lon="3.04339">
        <ele>708</ele>
        <time>2025-09-28T08:40:48Z</time>
      </trkpt>
      <trkpt lat="45.66521" lon="3.04347">
        <ele>707.4</ele>
        <time>2025-09-28T08:40:49Z</time>
      </trkpt>
      <trkpt lat="45.66524" lon="3.04356">
        <ele>706.8</ele>
        <time>2025-09-28T08:40:50Z</time>
      </trkpt>
      <trkpt lat="45.66528" lon="3.04366">
        <ele>706</ele>
        <time>2025-09-28T08:40:51Z</time>
      </trkpt>
      <trkpt lat="45.66531" lon="3.04376">
        <ele>705.4</ele>
        <time>2025-09-28T08:40:52Z</time>
      </trkpt>
      <trkpt lat="45.66534" lon="3.04387">
        <ele>704.8</ele>
        <time>2025-09-28T08:40:53Z</time>
      </trkpt>
      <trkpt lat="45.66538" lon="3.04397">
        <ele>704.2</ele>
        <time>2025-09-28T08:40:54Z</time>
      </trkpt>
      <trkpt lat="45.66542" lon="3.04407">
        <ele>703.6</ele>
        <time>2025-09-28T08:40:55Z</time>
      </trkpt>
      <trkpt lat="45.66546" lon="3.04417">
        <ele>702.8</ele>
        <time>2025-09-28T08:40:56Z</time>
      </trkpt>
      <trkpt lat="45.66549" lon="3.04428">
        <ele>702.2</ele>
        <time>2025-09-28T08:40:57Z</time>
      </trkpt>
      <trkpt lat="45.66551" lon="3.04438">
        <ele>701.8</ele>
        <time>2025-09-28T08:40:58Z</time>
      </trkpt>
      <trkpt lat="45.66554" lon="3.04448">
        <ele>701.2</ele>
        <time>2025-09-28T08:40:59Z</time>
      </trkpt>
      <trkpt lat="45.66557" lon="3.04456">
        <ele>700.6</ele>
        <time>2025-09-28T08:41:00Z</time>
      </trkpt>
      <trkpt lat="45.6656" lon="3.04464">
        <ele>700</ele>
        <time>2025-09-28T08:41:01Z</time>
      </trkpt>
      <trkpt lat="45.66563" lon="3.04472">
        <ele>699.2</ele>
        <time>2025-09-28T08:41:02Z</time>
      </trkpt>
      <trkpt lat="45.66565" lon="3.04481">
        <ele>698.2</ele>
        <time>2025-09-28T08:41:03Z</time>
      </trkpt>
      <trkpt lat="45.66568" lon="3.04491">
        <ele>697.2</ele>
        <time>2025-09-28T08:41:04Z</time>
      </trkpt>
      <trkpt lat="45.66569" lon="3.04502">
        <ele>696</ele>
        <time>2025-09-28T08:41:05Z</time>
      </trkpt>
      <trkpt lat="45.66568" lon="3.04514">
        <ele>694.8</ele>
        <time>2025-09-28T08:41:06Z</time>
      </trkpt>
      <trkpt lat="45.66564" lon="3.04526">
        <ele>694</ele>
        <time>2025-09-28T08:41:07Z</time>
      </trkpt>
      <trkpt lat="45.66558" lon="3.04539">
        <ele>693.2</ele>
        <time>2025-09-28T08:41:08Z</time>
      </trkpt>
      <trkpt lat="45.66553" lon="3.04552">
        <ele>692.4</ele>
        <time>2025-09-28T08:41:09Z</time>
      </trkpt>
      <trkpt lat="45.6655" lon="3.04565">
        <ele>691.6</ele>
        <time>2025-09-28T08:41:10Z</time>
      </trkpt>
      <trkpt lat="45.66548" lon="3.04577">
        <ele>690.8</ele>
        <time>2025-09-28T08:41:11Z</time>
      </trkpt>
      <trkpt lat="45.66546" lon="3.04587">
        <ele>690</ele>
        <time>2025-09-28T08:41:12Z</time>
      </trkpt>
      <trkpt lat="45.66545" lon="3.04598">
        <ele>689.2</ele>
        <time>2025-09-28T08:41:13Z</time>
      </trkpt>
      <trkpt lat="45.66543" lon="3.04608">
        <ele>688.6</ele>
        <time>2025-09-28T08:41:14Z</time>
      </trkpt>
      <trkpt lat="45.66543" lon="3.04618">
        <ele>687.8</ele>
        <time>2025-09-28T08:41:15Z</time>
      </trkpt>
      <trkpt lat="45.66541" lon="3.04628">
        <ele>686.8</ele>
        <time>2025-09-28T08:41:16Z</time>
      </trkpt>
      <trkpt lat="45.66539" lon="3.04637">
        <ele>686.2</ele>
        <time>2025-09-28T08:41:17Z</time>
      </trkpt>
      <trkpt lat="45.66536" lon="3.04646">
        <ele>685.4</ele>
        <time>2025-09-28T08:41:18Z</time>
      </trkpt>
      <trkpt lat="45.66534" lon="3.04654">
        <ele>684.8</ele>
        <time>2025-09-28T08:41:19Z</time>
      </trkpt>
      <trkpt lat="45.66533" lon="3.04663">
        <ele>684</ele>
        <time>2025-09-28T08:41:20Z</time>
      </trkpt>
      <trkpt lat="45.66533" lon="3.04671">
        <ele>683.2</ele>
        <time>2025-09-28T08:41:21Z</time>
      </trkpt>
      <trkpt lat="45.66532" lon="3.04679">
        <ele>682.6</ele>
        <time>2025-09-28T08:41:22Z</time>
      </trkpt>
      <trkpt lat="45.66531" lon="3.04687">
        <ele>681.8</ele>
        <time>2025-09-28T08:41:23Z</time>
      </trkpt>
      <trkpt lat="45.66529" lon="3.04694">
        <ele>681.2</ele>
        <time>2025-09-28T08:41:24Z</time>
      </trkpt>
      <trkpt lat="45.66527" lon="3.04699">
        <ele>680.4</ele>
        <time>2025-09-28T08:41:25Z</time>
      </trkpt>
      <trkpt lat="45.66526" lon="3.04705">
        <ele>679.8</ele>
        <time>2025-09-28T08:41:26Z</time>
      </trkpt>
      <trkpt lat="45.66524" lon="3.04709">
        <ele>679.2</ele>
        <time>2025-09-28T08:41:27Z</time>
      </trkpt>
      <trkpt lat="45.66523" lon="3.04712">
        <ele>678.6</ele>
        <time>2025-09-28T08:41:28Z</time>
      </trkpt>
      <trkpt lat="45.66522" lon="3.04714">
        <ele>678</ele>
        <time>2025-09-28T08:41:29Z</time>
      </trkpt>
      <trkpt lat="45.66521" lon="3.04716">
        <ele>677.6</ele>
        <time>2025-09-28T08:41:30Z</time>
      </trkpt>
      <trkpt lat="45.66521" lon="3.04718">
        <ele>677.2</ele>
        <time>2025-09-28T08:41:31Z</time>
      </trkpt>
      <trkpt lat="45.66521" lon="3.04719">
        <ele>676.8</ele>
        <time>2025-09-28T08:41:32Z</time>
      </trkpt>
      <trkpt lat="45.66521" lon="3.04721">
        <ele>676.6</ele>
        <time>2025-09-28T08:41:33Z</time>
      </trkpt>
      <trkpt lat="45.6652" lon="3.04723">
        <ele>676.2</ele>
        <time>2025-09-28T08:41:34Z</time>
      </trkpt>
      <trkpt lat="45.66519" lon="3.04727">
        <ele>675.8</ele>
        <time>2025-09-28T08:41:35Z</time>
      </trkpt>
      <trkpt lat="45.66518" lon="3.04731">
        <ele>675.4</ele>
        <time>2025-09-28T08:41:36Z</time>
      </trkpt>
      <trkpt lat="45.66517" lon="3.04734">
        <ele>675.2</ele>
        <time>2025-09-28T08:41:37Z</time>
      </trkpt>
      <trkpt lat="45.66516" lon="3.04736">
        <ele>674.8</ele>
        <time>2025-09-28T08:41:38Z</time>
      </trkpt>
      <trkpt lat="45.66515" lon="3.04737">
        <ele>674.6</ele>
        <time>2025-09-28T08:41:39Z</time>
      </trkpt>
      <trkpt lat="45.66513" lon="3.04737">
        <ele>674.2</ele>
        <time>2025-09-28T08:41:40Z</time>
      </trkpt>
      <trkpt lat="45.66511" lon="3.04737">
        <ele>674</ele>
        <time>2025-09-28T08:41:41Z</time>
      </trkpt>
      <trkpt lat="45.6651" lon="3.04737">
        <ele>673.6</ele>
        <time>2025-09-28T08:41:42Z</time>
      </trkpt>
      <trkpt lat="45.66509" lon="3.04737">
        <ele>673.4</ele>
        <time>2025-09-28T08:41:43Z</time>
      </trkpt>
      <trkpt lat="45.66508" lon="3.04736">
        <ele>673.2</ele>
        <time>2025-09-28T08:41:44Z</time>
      </trkpt>
      <trkpt lat="45.66507" lon="3.04735">
        <ele>672.8</ele>
        <time>2025-09-28T08:41:45Z</time>
      </trkpt>
      <trkpt lat="45.66505" lon="3.04734">
        <ele>672.6</ele>
        <time>2025-09-28T08:41:46Z</time>
      </trkpt>
      <trkpt lat="45.66504" lon="3.04734">
        <ele>672.6</ele>
        <time>2025-09-28T08:41:47Z</time>
      </trkpt>
      <trkpt lat="45.66504" lon="3.04734">
        <ele>672.4</ele>
        <time>2025-09-28T08:41:48Z</time>
      </trkpt>
      <trkpt lat="45.66504" lon="3.04734">
        <ele>672.2</ele>
        <time>2025-09-28T08:41:49Z</time>
      </trkpt>
      <trkpt lat="45.66504" lon="3.04734">
        <ele>672.2</ele>
        <time>2025-09-28T08:41:50Z</time>
      </trkpt>
      <trkpt lat="45.66504" lon="3.04733">
        <ele>672</ele>
        <time>2025-09-28T08:41:51Z</time>
      </trkpt>
      <trkpt lat="45.66502" lon="3.04733">
        <ele>671.8</ele>
        <time>2025-09-28T08:41:52Z</time>
      </trkpt>
      <trkpt lat="45.66501" lon="3.04732">
        <ele>671.6</ele>
        <time>2025-09-28T08:41:53Z</time>
      </trkpt>
      <trkpt lat="45.66498" lon="3.04731">
        <ele>671</ele>
        <time>2025-09-28T08:41:54Z</time>
      </trkpt>
      <trkpt lat="45.66494" lon="3.04729">
        <ele>670.4</ele>
        <time>2025-09-28T08:41:55Z</time>
      </trkpt>
      <trkpt lat="45.6649" lon="3.04727">
        <ele>669.6</ele>
        <time>2025-09-28T08:41:56Z</time>
      </trkpt>
      <trkpt lat="45.66486" lon="3.04724">
        <ele>669</ele>
        <time>2025-09-28T08:41:57Z</time>
      </trkpt>
      <trkpt lat="45.66481" lon="3.04721">
        <ele>668.2</ele>
        <time>2025-09-28T08:41:58Z</time>
      </trkpt>
      <trkpt lat="45.66476" lon="3.04718">
        <ele>667.4</ele>
        <time>2025-09-28T08:41:59Z</time>
      </trkpt>
      <trkpt lat="45.6647" lon="3.04716">
        <ele>666.8</ele>
        <time>2025-09-28T08:42:00Z</time>
      </trkpt>
      <trkpt lat="45.66465" lon="3.04713">
        <ele>666.2</ele>
        <time>2025-09-28T08:42:01Z</time>
      </trkpt>
      <trkpt lat="45.6646" lon="3.0471">
        <ele>665.6</ele>
        <time>2025-09-28T08:42:02Z</time>
      </trkpt>
      <trkpt lat="45.66456" lon="3.04705">
        <ele>665</ele>
        <time>2025-09-28T08:42:03Z</time>
      </trkpt>
      <trkpt lat="45.66453" lon="3.04698">
        <ele>664.6</ele>
        <time>2025-09-28T08:42:04Z</time>
      </trkpt>
      <trkpt lat="45.66451" lon="3.04692">
        <ele>664.2</ele>
        <time>2025-09-28T08:42:05Z</time>
      </trkpt>
      <trkpt lat="45.66449" lon="3.04685">
        <ele>664</ele>
        <time>2025-09-28T08:42:06Z</time>
      </trkpt>
      <trkpt lat="45.66446" lon="3.04677">
        <ele>663.8</ele>
        <time>2025-09-28T08:42:07Z</time>
      </trkpt>
      <trkpt lat="45.66443" lon="3.04666">
        <ele>663.6</ele>
        <time>2025-09-28T08:42:08Z</time>
      </trkpt>
      <trkpt lat="45.66439" lon="3.04657">
        <ele>663.6</ele>
        <time>2025-09-28T08:42:09Z</time>
      </trkpt>
      <trkpt lat="45.66437" lon="3.04651">
        <ele>663.8</ele>
        <time>2025-09-28T08:42:10Z</time>
      </trkpt>
      <trkpt lat="45.66433" lon="3.04647">
        <ele>663.8</ele>
        <time>2025-09-28T08:42:11Z</time>
      </trkpt>
      <trkpt lat="45.6643" lon="3.04643">
        <ele>664</ele>
        <time>2025-09-28T08:42:12Z</time>
      </trkpt>
      <trkpt lat="45.66423" lon="3.04637">
        <ele>664</ele>
        <time>2025-09-28T08:42:13Z</time>
      </trkpt>
      <trkpt lat="45.66413" lon="3.04633">
        <ele>664</ele>
        <time>2025-09-28T08:42:14Z</time>
      </trkpt>
      <trkpt lat="45.66405" lon="3.04634">
        <ele>664.2</ele>
        <time>2025-09-28T08:42:15Z</time>
      </trkpt>
      <trkpt lat="45.66399" lon="3.04637">
        <ele>664.2</ele>
        <time>2025-09-28T08:42:16Z</time>
      </trkpt>
      <trkpt lat="45.66393" lon="3.04643">
        <ele>664.2</ele>
        <time>2025-09-28T08:42:17Z</time>
      </trkpt>
      <trkpt lat="45.66386" lon="3.04647">
        <ele>664.2</ele>
        <time>2025-09-28T08:42:18Z</time>
      </trkpt>
      <trkpt lat="45.6638" lon="3.0465">
        <ele>664</ele>
        <time>2025-09-28T08:42:19Z</time>
      </trkpt>
      <trkpt lat="45.66375" lon="3.04654">
        <ele>663.8</ele>
        <time>2025-09-28T08:42:20Z</time>
      </trkpt>
      <trkpt lat="45.66368" lon="3.04658">
        <ele>663.6</ele>
        <time>2025-09-28T08:42:21Z</time>
      </trkpt>
      <trkpt lat="45.6636" lon="3.04664">
        <ele>663.2</ele>
        <time>2025-09-28T08:42:22Z</time>
      </trkpt>
      <trkpt lat="45.66353" lon="3.04668">
        <ele>662.6</ele>
        <time>2025-09-28T08:42:23Z</time>
      </trkpt>
      <trkpt lat="45.66347" lon="3.0467">
        <ele>661.8</ele>
        <time>2025-09-28T08:42:24Z</time>
      </trkpt>
      <trkpt lat="45.66341" lon="3.0467">
        <ele>661</ele>
        <time>2025-09-28T08:42:25Z</time>
      </trkpt>
      <trkpt lat="45.66335" lon="3.04668">
        <ele>660.2</ele>
        <time>2025-09-28T08:42:26Z</time>
      </trkpt>
      <trkpt lat="45.66329" lon="3.04667">
        <ele>659.4</ele>
        <time>2025-09-28T08:42:27Z</time>
      </trkpt>
      <trkpt lat="45.66323" lon="3.04666">
        <ele>658.8</ele>
        <time>2025-09-28T08:42:28Z</time>
      </trkpt>
      <trkpt lat="45.66316" lon="3.04668">
        <ele>658.2</ele>
        <time>2025-09-28T08:42:29Z</time>
      </trkpt>
      <trkpt lat="45.66308" lon="3.0467">
        <ele>657.4</ele>
        <time>2025-09-28T08:42:30Z</time>
      </trkpt>
      <trkpt lat="45.66301" lon="3.04672">
        <ele>656.8</ele>
        <time>2025-09-28T08:42:31Z</time>
      </trkpt>
      <trkpt lat="45.66295" lon="3.04674">
        <ele>656.2</ele>
        <time>2025-09-28T08:42:32Z</time>
      </trkpt>
      <trkpt lat="45.66291" lon="3.04678">
        <ele>655.8</ele>
        <time>2025-09-28T08:42:33Z</time>
      </trkpt>
      <trkpt lat="45.6629" lon="3.04684">
        <ele>655.4</ele>
        <time>2025-09-28T08:42:34Z</time>
      </trkpt>
      <trkpt lat="45.66291" lon="3.04691">
        <ele>655</ele>
        <time>2025-09-28T08:42:35Z</time>
      </trkpt>
      <trkpt lat="45.66291" lon="3.04697">
        <ele>654.8</ele>
        <time>2025-09-28T08:42:36Z</time>
      </trkpt>
      <trkpt lat="45.66291" lon="3.04704">
        <ele>654.4</ele>
        <time>2025-09-28T08:42:37Z</time>
      </trkpt>
      <trkpt lat="45.6629" lon="3.04714">
        <ele>654.4</ele>
        <time>2025-09-28T08:42:38Z</time>
      </trkpt>
      <trkpt lat="45.66289" lon="3.04726">
        <ele>654.4</ele>
        <time>2025-09-28T08:42:39Z</time>
      </trkpt>
      <trkpt lat="45.66288" lon="3.04734">
        <ele>654.2</ele>
        <time>2025-09-28T08:42:40Z</time>
      </trkpt>
      <trkpt lat="45.66287" lon="3.04742">
        <ele>654.2</ele>
        <time>2025-09-28T08:42:41Z</time>
      </trkpt>
      <trkpt lat="45.66287" lon="3.04749">
        <ele>654.2</ele>
        <time>2025-09-28T08:42:42Z</time>
      </trkpt>
      <trkpt lat="45.66286" lon="3.04757">
        <ele>654.2</ele>
        <time>2025-09-28T08:42:43Z</time>
      </trkpt>
      <trkpt lat="45.66282" lon="3.04767">
        <ele>654.2</ele>
        <time>2025-09-28T08:42:44Z</time>
      </trkpt>
      <trkpt lat="45.66276" lon="3.04776">
        <ele>654.2</ele>
        <time>2025-09-28T08:42:45Z</time>
      </trkpt>
      <trkpt lat="45.66273" lon="3.04783">
        <ele>654.4</ele>
        <time>2025-09-28T08:42:46Z</time>
      </trkpt>
      <trkpt lat="45.66268" lon="3.0479">
        <ele>654.4</ele>
        <time>2025-09-28T08:42:47Z</time>
      </trkpt>
      <trkpt lat="45.66266" lon="3.04798">
        <ele>654.4</ele>
        <time>2025-09-28T08:42:48Z</time>
      </trkpt>
      <trkpt lat="45.66264" lon="3.04805">
        <ele>654.4</ele>
        <time>2025-09-28T08:42:49Z</time>
      </trkpt>
      <trkpt lat="45.66262" lon="3.04813">
        <ele>654.4</ele>
        <time>2025-09-28T08:42:50Z</time>
      </trkpt>
      <trkpt lat="45.66261" lon="3.04819">
        <ele>654.2</ele>
        <time>2025-09-28T08:42:51Z</time>
      </trkpt>
      <trkpt lat="45.66262" lon="3.04825">
        <ele>653.8</ele>
        <time>2025-09-28T08:42:52Z</time>
      </trkpt>
      <trkpt lat="45.66261" lon="3.04829">
        <ele>653.4</ele>
        <time>2025-09-28T08:42:53Z</time>
      </trkpt>
      <trkpt lat="45.66259" lon="3.04833">
        <ele>653</ele>
        <time>2025-09-28T08:42:54Z</time>
      </trkpt>
      <trkpt lat="45.66256" lon="3.04837">
        <ele>652.8</ele>
        <time>2025-09-28T08:42:55Z</time>
      </trkpt>
      <trkpt lat="45.66254" lon="3.04842">
        <ele>652.6</ele>
        <time>2025-09-28T08:42:56Z</time>
      </trkpt>
      <trkpt lat="45.66254" lon="3.04848">
        <ele>652.6</ele>
        <time>2025-09-28T08:42:57Z</time>
      </trkpt>
      <trkpt lat="45.66257" lon="3.04855">
        <ele>652.6</ele>
        <time>2025-09-28T08:42:58Z</time>
      </trkpt>
      <trkpt lat="45.66261" lon="3.04862">
        <ele>652.8</ele>
        <time>2025-09-28T08:42:59Z</time>
      </trkpt>
      <trkpt lat="45.66265" lon="3.04867">
        <ele>652.8</ele>
        <time>2025-09-28T08:43:00Z</time>
      </trkpt>
      <trkpt lat="45.66269" lon="3.04871">
        <ele>652.8</ele>
        <time>2025-09-28T08:43:01Z</time>
      </trkpt>
      <trkpt lat="45.66272" lon="3.04875">
        <ele>652.6</ele>
        <time>2025-09-28T08:43:02Z</time>
      </trkpt>
      <trkpt lat="45.66277" lon="3.04879">
        <ele>652.4</ele>
        <time>2025-09-28T08:43:03Z</time>
      </trkpt>
      <trkpt lat="45.66281" lon="3.04882">
        <ele>652.4</ele>
        <time>2025-09-28T08:43:04Z</time>
      </trkpt>
      <trkpt lat="45.66285" lon="3.04886">
        <ele>652.2</ele>
        <time>2025-09-28T08:43:05Z</time>
      </trkpt>
      <trkpt lat="45.66289" lon="3.04889">
        <ele>652.2</ele>
        <time>2025-09-28T08:43:06Z</time>
      </trkpt>
      <trkpt lat="45.66292" lon="3.04892">
        <ele>652</ele>
        <time>2025-09-28T08:43:07Z</time>
      </trkpt>
      <trkpt lat="45.66294" lon="3.04895">
        <ele>652</ele>
        <time>2025-09-28T08:43:08Z</time>
      </trkpt>
      <trkpt lat="45.66296" lon="3.04898">
        <ele>652</ele>
        <time>2025-09-28T08:43:09Z</time>
      </trkpt>
      <trkpt lat="45.66297" lon="3.049">
        <ele>652</ele>
        <time>2025-09-28T08:43:10Z</time>
      </trkpt>
      <trkpt lat="45.66297" lon="3.04902">
        <ele>652.2</ele>
        <time>2025-09-28T08:43:11Z</time>
      </trkpt>
      <trkpt lat="45.66295" lon="3.04903">
        <ele>652.4</ele>
        <time>2025-09-28T08:43:12Z</time>
      </trkpt>
      <trkpt lat="45.6629" lon="3.04904">
        <ele>652.8</ele>
        <time>2025-09-28T08:43:13Z</time>
      </trkpt>
      <trkpt lat="45.66285" lon="3.04906">
        <ele>653</ele>
        <time>2025-09-28T08:43:14Z</time>
      </trkpt>
      <trkpt lat="45.66283" lon="3.04911">
        <ele>653.2</ele>
        <time>2025-09-28T08:43:15Z</time>
      </trkpt>
      <trkpt lat="45.66282" lon="3.04917">
        <ele>653.2</ele>
        <time>2025-09-28T08:43:16Z</time>
      </trkpt>
      <trkpt lat="45.66282" lon="3.04923">
        <ele>653.2</ele>
        <time>2025-09-28T08:43:17Z</time>
      </trkpt>
      <trkpt lat="45.66281" lon="3.04925">
        <ele>653.2</ele>
        <time>2025-09-28T08:43:18Z</time>
      </trkpt>
      <trkpt lat="45.66278" lon="3.04925">
        <ele>653.2</ele>
        <time>2025-09-28T08:43:19Z</time>
      </trkpt>
      <trkpt lat="45.66276" lon="3.04927">
        <ele>653.4</ele>
        <time>2025-09-28T08:43:20Z</time>
      </trkpt>
      <trkpt lat="45.66273" lon="3.04929">
        <ele>653.6</ele>
        <time>2025-09-28T08:43:21Z</time>
      </trkpt>
      <trkpt lat="45.66268" lon="3.04932">
        <ele>653.8</ele>
        <time>2025-09-28T08:43:22Z</time>
      </trkpt>
      <trkpt lat="45.66265" lon="3.04935">
        <ele>654.2</ele>
        <time>2025-09-28T08:43:23Z</time>
      </trkpt>
      <trkpt lat="45.66264" lon="3.04939">
        <ele>654.4</ele>
        <time>2025-09-28T08:43:24Z</time>
      </trkpt>
      <trkpt lat="45.66263" lon="3.04942">
        <ele>654.4</ele>
        <time>2025-09-28T08:43:25Z</time>
      </trkpt>
      <trkpt lat="45.66261" lon="3.04944">
        <ele>654.4</ele>
        <time>2025-09-28T08:43:26Z</time>
      </trkpt>
      <trkpt lat="45.6626" lon="3.04947">
        <ele>654.4</ele>
        <time>2025-09-28T08:43:27Z</time>
      </trkpt>
      <trkpt lat="45.66258" lon="3.04948">
        <ele>654.4</ele>
        <time>2025-09-28T08:43:28Z</time>
      </trkpt>
      <trkpt lat="45.66255" lon="3.0495">
        <ele>654.4</ele>
        <time>2025-09-28T08:43:29Z</time>
      </trkpt>
      <trkpt lat="45.66253" lon="3.04953">
        <ele>654.4</ele>
        <time>2025-09-28T08:43:30Z</time>
      </trkpt>
      <trkpt lat="45.66251" lon="3.04956">
        <ele>654.6</ele>
        <time>2025-09-28T08:43:31Z</time>
      </trkpt>
      <trkpt lat="45.6625" lon="3.04958">
        <ele>654.8</ele>
        <time>2025-09-28T08:43:32Z</time>
      </trkpt>
      <trkpt lat="45.6625" lon="3.0496">
        <ele>655</ele>
        <time>2025-09-28T08:43:33Z</time>
      </trkpt>
      <trkpt lat="45.6625" lon="3.04962">
        <ele>655.2</ele>
        <time>2025-09-28T08:43:34Z</time>
      </trkpt>
      <trkpt lat="45.66249" lon="3.04965">
        <ele>655.4</ele>
        <time>2025-09-28T08:43:35Z</time>
      </trkpt>
      <trkpt lat="45.66249" lon="3.04969">
        <ele>655.8</ele>
        <time>2025-09-28T08:43:36Z</time>
      </trkpt>
      <trkpt lat="45.66248" lon="3.04971">
        <ele>656</ele>
        <time>2025-09-28T08:43:37Z</time>
      </trkpt>
      <trkpt lat="45.66247" lon="3.04972">
        <ele>656.2</ele>
        <time>2025-09-28T08:43:38Z</time>
      </trkpt>
      <trkpt lat="45.66246" lon="3.04972">
        <ele>656.4</ele>
        <time>2025-09-28T08:43:39Z</time>
      </trkpt>
      <trkpt lat="45.66244" lon="3.04974">
        <ele>656.6</ele>
        <time>2025-09-28T08:43:40Z</time>
      </trkpt>
      <trkpt lat="45.66241" lon="3.04978">
        <ele>656.8</ele>
        <time>2025-09-28T08:43:41Z</time>
      </trkpt>
      <trkpt lat="45.6624" lon="3.04981">
        <ele>656.8</ele>
        <time>2025-09-28T08:43:42Z</time>
      </trkpt>
      <trkpt lat="45.66239" lon="3.04982">
        <ele>656.8</ele>
        <time>2025-09-28T08:43:43Z</time>
      </trkpt>
      <trkpt lat="45.66237" lon="3.04985">
        <ele>656.8</ele>
        <time>2025-09-28T08:43:44Z</time>
      </trkpt>
      <trkpt lat="45.66235" lon="3.04987">
        <ele>656.8</ele>
        <time>2025-09-28T08:43:45Z</time>
      </trkpt>
      <trkpt lat="45.66232" lon="3.04988">
        <ele>656.8</ele>
        <time>2025-09-28T08:43:46Z</time>
      </trkpt>
      <trkpt lat="45.6623" lon="3.04989">
        <ele>657</ele>
        <time>2025-09-28T08:43:47Z</time>
      </trkpt>
      <trkpt lat="45.66228" lon="3.04991">
        <ele>657.2</ele>
        <time>2025-09-28T08:43:48Z</time>
      </trkpt>
      <trkpt lat="45.66226" lon="3.04992">
        <ele>657.2</ele>
        <time>2025-09-28T08:43:49Z</time>
      </trkpt>
      <trkpt lat="45.66224" lon="3.04995">
        <ele>657.4</ele>
        <time>2025-09-28T08:43:50Z</time>
      </trkpt>
      <trkpt lat="45.66221" lon="3.04997">
        <ele>657.4</ele>
        <time>2025-09-28T08:43:51Z</time>
      </trkpt>
      <trkpt lat="45.66217" lon="3.05">
        <ele>657.2</ele>
        <time>2025-09-28T08:43:52Z</time>
      </trkpt>
      <trkpt lat="45.66214" lon="3.05004">
        <ele>657.2</ele>
        <time>2025-09-28T08:43:53Z</time>
      </trkpt>
      <trkpt lat="45.66212" lon="3.05008">
        <ele>657.4</ele>
        <time>2025-09-28T08:43:54Z</time>
      </trkpt>
      <trkpt lat="45.6621" lon="3.05012">
        <ele>657.4</ele>
        <time>2025-09-28T08:43:55Z</time>
      </trkpt>
      <trkpt lat="45.66207" lon="3.05015">
        <ele>657.6</ele>
        <time>2025-09-28T08:43:56Z</time>
      </trkpt>
      <trkpt lat="45.66206" lon="3.05017">
        <ele>657.8</ele>
        <time>2025-09-28T08:43:57Z</time>
      </trkpt>
      <trkpt lat="45.66206" lon="3.05018">
        <ele>657.8</ele>
        <time>2025-09-28T08:43:58Z</time>
      </trkpt>
      <trkpt lat="45.66206" lon="3.05018">
        <ele>658</ele>
        <time>2025-09-28T08:43:59Z</time>
      </trkpt>
      <trkpt lat="45.66206" lon="3.05018">
        <ele>658</ele>
        <time>2025-09-28T08:44:00Z</time>
      </trkpt>
      <trkpt lat="45.66205" lon="3.05018">
        <ele>657.8</ele>
        <time>2025-09-28T08:44:01Z</time>
      </trkpt>
      <trkpt lat="45.66204" lon="3.05019">
        <ele>657.8</ele>
        <time>2025-09-28T08:44:02Z</time>
      </trkpt>
      <trkpt lat="45.66201" lon="3.05021">
        <ele>657.6</ele>
        <time>2025-09-28T08:44:03Z</time>
      </trkpt>
      <trkpt lat="45.662" lon="3.05022">
        <ele>657.4</ele>
        <time>2025-09-28T08:44:04Z</time>
      </trkpt>
      <trkpt lat="45.66199" lon="3.05023">
        <ele>657.2</ele>
        <time>2025-09-28T08:44:05Z</time>
      </trkpt>
      <trkpt lat="45.66197" lon="3.05026">
        <ele>657.4</ele>
        <time>2025-09-28T08:44:06Z</time>
      </trkpt>
      <trkpt lat="45.66196" lon="3.05029">
        <ele>657.4</ele>
        <time>2025-09-28T08:44:07Z</time>
      </trkpt>
      <trkpt lat="45.66196" lon="3.05032">
        <ele>657.6</ele>
        <time>2025-09-28T08:44:08Z</time>
      </trkpt>
      <trkpt lat="45.66195" lon="3.05036">
        <ele>657.8</ele>
        <time>2025-09-28T08:44:09Z</time>
      </trkpt>
      <trkpt lat="45.66196" lon="3.05039">
        <ele>658</ele>
        <time>2025-09-28T08:44:10Z</time>
      </trkpt>
      <trkpt lat="45.66196" lon="3.05042">
        <ele>658.4</ele>
        <time>2025-09-28T08:44:11Z</time>
      </trkpt>
      <trkpt lat="45.66195" lon="3.05045">
        <ele>658.6</ele>
        <time>2025-09-28T08:44:12Z</time>
      </trkpt>
      <trkpt lat="45.66194" lon="3.05046">
        <ele>659</ele>
        <time>2025-09-28T08:44:13Z</time>
      </trkpt>
      <trkpt lat="45.66192" lon="3.05047">
        <ele>659.2</ele>
        <time>2025-09-28T08:44:14Z</time>
      </trkpt>
      <trkpt lat="45.6619" lon="3.05046">
        <ele>659.2</ele>
        <time>2025-09-28T08:44:15Z</time>
      </trkpt>
      <trkpt lat="45.66188" lon="3.05046">
        <ele>659</ele>
        <time>2025-09-28T08:44:16Z</time>
      </trkpt>
      <trkpt lat="45.66185" lon="3.05046">
        <ele>658.8</ele>
        <time>2025-09-28T08:44:17Z</time>
      </trkpt>
      <trkpt lat="45.66181" lon="3.05048">
        <ele>658.6</ele>
        <time>2025-09-28T08:44:18Z</time>
      </trkpt>
      <trkpt lat="45.66178" lon="3.05051">
        <ele>658.2</ele>
        <time>2025-09-28T08:44:19Z</time>
      </trkpt>
      <trkpt lat="45.66174" lon="3.05056">
        <ele>657.8</ele>
        <time>2025-09-28T08:44:20Z</time>
      </trkpt>
      <trkpt lat="45.6617" lon="3.05064">
        <ele>657.2</ele>
        <time>2025-09-28T08:44:21Z</time>
      </trkpt>
      <trkpt lat="45.6617" lon="3.05071">
        <ele>656.8</ele>
        <time>2025-09-28T08:44:22Z</time>
      </trkpt>
      <trkpt lat="45.6617" lon="3.05079">
        <ele>656.2</ele>
        <time>2025-09-28T08:44:23Z</time>
      </trkpt>
      <trkpt lat="45.66171" lon="3.05087">
        <ele>655.6</ele>
        <time>2025-09-28T08:44:24Z</time>
      </trkpt>
      <trkpt lat="45.66171" lon="3.05096">
        <ele>655</ele>
        <time>2025-09-28T08:44:25Z</time>
      </trkpt>
      <trkpt lat="45.6617" lon="3.05104">
        <ele>654.6</ele>
        <time>2025-09-28T08:44:26Z</time>
      </trkpt>
      <trkpt lat="45.66167" lon="3.05111">
        <ele>654</ele>
        <time>2025-09-28T08:44:27Z</time>
      </trkpt>
      <trkpt lat="45.66164" lon="3.05117">
        <ele>653.2</ele>
        <time>2025-09-28T08:44:28Z</time>
      </trkpt>
      <trkpt lat="45.6616" lon="3.05124">
        <ele>652.6</ele>
        <time>2025-09-28T08:44:29Z</time>
      </trkpt>
      <trkpt lat="45.66156" lon="3.05133">
        <ele>651.8</ele>
        <time>2025-09-28T08:44:30Z</time>
      </trkpt>
      <trkpt lat="45.66152" lon="3.05142">
        <ele>651.2</ele>
        <time>2025-09-28T08:44:31Z</time>
      </trkpt>
      <trkpt lat="45.66149" lon="3.05151">
        <ele>650.4</ele>
        <time>2025-09-28T08:44:32Z</time>
      </trkpt>
      <trkpt lat="45.66146" lon="3.05161">
        <ele>649.6</ele>
        <time>2025-09-28T08:44:33Z</time>
      </trkpt>
      <trkpt lat="45.66143" lon="3.05172">
        <ele>649</ele>
        <time>2025-09-28T08:44:34Z</time>
      </trkpt>
      <trkpt lat="45.66143" lon="3.05181">
        <ele>648.4</ele>
        <time>2025-09-28T08:44:35Z</time>
      </trkpt>
      <trkpt lat="45.66142" lon="3.05189">
        <ele>647.8</ele>
        <time>2025-09-28T08:44:36Z</time>
      </trkpt>
      <trkpt lat="45.66141" lon="3.05196">
        <ele>647.4</ele>
        <time>2025-09-28T08:44:37Z</time>
      </trkpt>
      <trkpt lat="45.66141" lon="3.05204">
        <ele>647</ele>
        <time>2025-09-28T08:44:38Z</time>
      </trkpt>
      <trkpt lat="45.6614" lon="3.0521">
        <ele>646.4</ele>
        <time>2025-09-28T08:44:39Z</time>
      </trkpt>
      <trkpt lat="45.66138" lon="3.05215">
        <ele>645.6</ele>
        <time>2025-09-28T08:44:40Z</time>
      </trkpt>
      <trkpt lat="45.66133" lon="3.0522">
        <ele>644.6</ele>
        <time>2025-09-28T08:44:41Z</time>
      </trkpt>
      <trkpt lat="45.66127" lon="3.05226">
        <ele>643.8</ele>
        <time>2025-09-28T08:44:42Z</time>
      </trkpt>
      <trkpt lat="45.66121" lon="3.05231">
        <ele>642.8</ele>
        <time>2025-09-28T08:44:43Z</time>
      </trkpt>
      <trkpt lat="45.66114" lon="3.05238">
        <ele>642</ele>
        <time>2025-09-28T08:44:44Z</time>
      </trkpt>
      <trkpt lat="45.66109" lon="3.05247">
        <ele>641</ele>
        <time>2025-09-28T08:44:45Z</time>
      </trkpt>
      <trkpt lat="45.66106" lon="3.05254">
        <ele>640.2</ele>
        <time>2025-09-28T08:44:46Z</time>
      </trkpt>
      <trkpt lat="45.66104" lon="3.05262">
        <ele>639.6</ele>
        <time>2025-09-28T08:44:47Z</time>
      </trkpt>
      <trkpt lat="45.66103" lon="3.05269">
        <ele>639.2</ele>
        <time>2025-09-28T08:44:48Z</time>
      </trkpt>
      <trkpt lat="45.66102" lon="3.05274">
        <ele>638.8</ele>
        <time>2025-09-28T08:44:49Z</time>
      </trkpt>
      <trkpt lat="45.661" lon="3.05278">
        <ele>638.6</ele>
        <time>2025-09-28T08:44:50Z</time>
      </trkpt>
      <trkpt lat="45.66097" lon="3.0528">
        <ele>638.4</ele>
        <time>2025-09-28T08:44:51Z</time>
      </trkpt>
      <trkpt lat="45.66094" lon="3.05282">
        <ele>638.4</ele>
        <time>2025-09-28T08:44:52Z</time>
      </trkpt>
      <trkpt lat="45.66092" lon="3.05284">
        <ele>638.2</ele>
        <time>2025-09-28T08:44:53Z</time>
      </trkpt>
      <trkpt lat="45.66091" lon="3.05286">
        <ele>638</ele>
        <time>2025-09-28T08:44:54Z</time>
      </trkpt>
      <trkpt lat="45.6609" lon="3.05286">
        <ele>637.8</ele>
        <time>2025-09-28T08:44:55Z</time>
      </trkpt>
      <trkpt lat="45.6609" lon="3.05287">
        <ele>637.2</ele>
        <time>2025-09-28T08:44:56Z</time>
      </trkpt>
      <trkpt lat="45.66089" lon="3.05287">
        <ele>636.6</ele>
        <time>2025-09-28T08:44:57Z</time>
      </trkpt>
      <trkpt lat="45.66088" lon="3.0529">
        <ele>636.2</ele>
        <time>2025-09-28T08:44:58Z</time>
      </trkpt>
      <trkpt lat="45.66086" lon="3.05294">
        <ele>635.6</ele>
        <time>2025-09-28T08:44:59Z</time>
      </trkpt>
      <trkpt lat="45.66084" lon="3.05299">
        <ele>635.4</ele>
        <time>2025-09-28T08:45:00Z</time>
      </trkpt>
      <trkpt lat="45.66081" lon="3.05304">
        <ele>635</ele>
        <time>2025-09-28T08:45:01Z</time>
      </trkpt>
      <trkpt lat="45.66078" lon="3.05311">
        <ele>634.8</ele>
        <time>2025-09-28T08:45:02Z</time>
      </trkpt>
      <trkpt lat="45.66076" lon="3.05318">
        <ele>634.6</ele>
        <time>2025-09-28T08:45:03Z</time>
      </trkpt>
      <trkpt lat="45.66073" lon="3.05327">
        <ele>634.6</ele>
        <time>2025-09-28T08:45:04Z</time>
      </trkpt>
      <trkpt lat="45.66072" lon="3.05336">
        <ele>634.4</ele>
        <time>2025-09-28T08:45:05Z</time>
      </trkpt>
      <trkpt lat="45.66071" lon="3.05342">
        <ele>634.4</ele>
        <time>2025-09-28T08:45:06Z</time>
      </trkpt>
      <trkpt lat="45.66069" lon="3.05348">
        <ele>634.4</ele>
        <time>2025-09-28T08:45:07Z</time>
      </trkpt>
      <trkpt lat="45.66068" lon="3.05355">
        <ele>634</ele>
        <time>2025-09-28T08:45:08Z</time>
      </trkpt>
      <trkpt lat="45.66066" lon="3.0536">
        <ele>633.8</ele>
        <time>2025-09-28T08:45:09Z</time>
      </trkpt>
      <trkpt lat="45.66063" lon="3.05365">
        <ele>633.8</ele>
        <time>2025-09-28T08:45:10Z</time>
      </trkpt>
      <trkpt lat="45.66059" lon="3.05371">
        <ele>633.6</ele>
        <time>2025-09-28T08:45:11Z</time>
      </trkpt>
      <trkpt lat="45.66055" lon="3.05377">
        <ele>633.4</ele>
        <time>2025-09-28T08:45:12Z</time>
      </trkpt>
      <trkpt lat="45.6605" lon="3.05384">
        <ele>633</ele>
        <time>2025-09-28T08:45:13Z</time>
      </trkpt>
      <trkpt lat="45.66046" lon="3.05392">
        <ele>632.6</ele>
        <time>2025-09-28T08:45:14Z</time>
      </trkpt>
      <trkpt lat="45.66043" lon="3.05399">
        <ele>632.2</ele>
        <time>2025-09-28T08:45:15Z</time>
      </trkpt>
      <trkpt lat="45.6604" lon="3.05408">
        <ele>631.8</ele>
        <time>2025-09-28T08:45:16Z</time>
      </trkpt>
      <trkpt lat="45.66039" lon="3.0542">
        <ele>631.6</ele>
        <time>2025-09-28T08:45:17Z</time>
      </trkpt>
      <trkpt lat="45.66037" lon="3.05433">
        <ele>631.4</ele>
        <time>2025-09-28T08:45:18Z</time>
      </trkpt>
      <trkpt lat="45.66037" lon="3.05442">
        <ele>631.2</ele>
        <time>2025-09-28T08:45:19Z</time>
      </trkpt>
      <trkpt lat="45.66036" lon="3.05452">
        <ele>631.2</ele>
        <time>2025-09-28T08:45:20Z</time>
      </trkpt>
      <trkpt lat="45.66035" lon="3.05462">
        <ele>631</ele>
        <time>2025-09-28T08:45:21Z</time>
      </trkpt>
      <trkpt lat="45.66034" lon="3.0547">
        <ele>630.8</ele>
        <time>2025-09-28T08:45:22Z</time>
      </trkpt>
      <trkpt lat="45.6603" lon="3.05478">
        <ele>630.6</ele>
        <time>2025-09-28T08:45:23Z</time>
      </trkpt>
      <trkpt lat="45.66026" lon="3.05488">
        <ele>630.4</ele>
        <time>2025-09-28T08:45:24Z</time>
      </trkpt>
      <trkpt lat="45.66023" lon="3.05499">
        <ele>630</ele>
        <time>2025-09-28T08:45:25Z</time>
      </trkpt>
      <trkpt lat="45.66022" lon="3.05509">
        <ele>629.8</ele>
        <time>2025-09-28T08:45:26Z</time>
      </trkpt>
      <trkpt lat="45.66024" lon="3.0552">
        <ele>629.4</ele>
        <time>2025-09-28T08:45:27Z</time>
      </trkpt>
      <trkpt lat="45.66026" lon="3.05529">
        <ele>629</ele>
        <time>2025-09-28T08:45:28Z</time>
      </trkpt>
      <trkpt lat="45.66028" lon="3.05538">
        <ele>628.8</ele>
        <time>2025-09-28T08:45:29Z</time>
      </trkpt>
      <trkpt lat="45.66028" lon="3.05546">
        <ele>628.8</ele>
        <time>2025-09-28T08:45:30Z</time>
      </trkpt>
      <trkpt lat="45.66027" lon="3.05554">
        <ele>628.8</ele>
        <time>2025-09-28T08:45:31Z</time>
      </trkpt>
      <trkpt lat="45.66025" lon="3.05563">
        <ele>628.8</ele>
        <time>2025-09-28T08:45:32Z</time>
      </trkpt>
      <trkpt lat="45.66024" lon="3.05571">
        <ele>629</ele>
        <time>2025-09-28T08:45:33Z</time>
      </trkpt>
      <trkpt lat="45.66022" lon="3.05578">
        <ele>629</ele>
        <time>2025-09-28T08:45:34Z</time>
      </trkpt>
      <trkpt lat="45.66022" lon="3.05584">
        <ele>629.2</ele>
        <time>2025-09-28T08:45:35Z</time>
      </trkpt>
      <trkpt lat="45.66022" lon="3.05589">
        <ele>629.4</ele>
        <time>2025-09-28T08:45:36Z</time>
      </trkpt>
      <trkpt lat="45.66019" lon="3.05594">
        <ele>629.4</ele>
        <time>2025-09-28T08:45:37Z</time>
      </trkpt>
      <trkpt lat="45.66014" lon="3.05598">
        <ele>629.6</ele>
        <time>2025-09-28T08:45:38Z</time>
      </trkpt>
      <trkpt lat="45.66009" lon="3.05601">
        <ele>629.8</ele>
        <time>2025-09-28T08:45:39Z</time>
      </trkpt>
      <trkpt lat="45.66005" lon="3.05605">
        <ele>629.8</ele>
        <time>2025-09-28T08:45:40Z</time>
      </trkpt>
      <trkpt lat="45.66004" lon="3.05611">
        <ele>629.8</ele>
        <time>2025-09-28T08:45:41Z</time>
      </trkpt>
      <trkpt lat="45.66004" lon="3.05616">
        <ele>630</ele>
        <time>2025-09-28T08:45:42Z</time>
      </trkpt>
      <trkpt lat="45.66004" lon="3.0562">
        <ele>630</ele>
        <time>2025-09-28T08:45:43Z</time>
      </trkpt>
      <trkpt lat="45.66004" lon="3.05622">
        <ele>630</ele>
        <time>2025-09-28T08:45:44Z</time>
      </trkpt>
      <trkpt lat="45.66005" lon="3.05623">
        <ele>630</ele>
        <time>2025-09-28T08:45:49Z</time>
      </trkpt>
      <trkpt lat="45.66006" lon="3.05624">
        <ele>630</ele>
        <time>2025-09-28T08:45:50Z</time>
      </trkpt>
      <trkpt lat="45.66007" lon="3.05626">
        <ele>629.8</ele>
        <time>2025-09-28T08:45:51Z</time>
      </trkpt>
      <trkpt lat="45.66008" lon="3.05629">
        <ele>629.2</ele>
        <time>2025-09-28T08:45:52Z</time>
      </trkpt>
      <trkpt lat="45.66008" lon="3.05632">
        <ele>628.8</ele>
        <time>2025-09-28T08:45:53Z</time>
      </trkpt>
      <trkpt lat="45.66008" lon="3.05637">
        <ele>628.2</ele>
        <time>2025-09-28T08:45:54Z</time>
      </trkpt>
      <trkpt lat="45.66009" lon="3.05643">
        <ele>627.4</ele>
        <time>2025-09-28T08:45:55Z</time>
      </trkpt>
      <trkpt lat="45.6601" lon="3.0565">
        <ele>626.8</ele>
        <time>2025-09-28T08:45:56Z</time>
      </trkpt>
      <trkpt lat="45.66012" lon="3.05657">
        <ele>626</ele>
        <time>2025-09-28T08:45:57Z</time>
      </trkpt>
      <trkpt lat="45.66014" lon="3.05664">
        <ele>625.2</ele>
        <time>2025-09-28T08:45:58Z</time>
      </trkpt>
      <trkpt lat="45.66014" lon="3.05671">
        <ele>624.6</ele>
        <time>2025-09-28T08:45:59Z</time>
      </trkpt>
      <trkpt lat="45.66014" lon="3.05678">
        <ele>624</ele>
        <time>2025-09-28T08:46:00Z</time>
      </trkpt>
      <trkpt lat="45.66012" lon="3.05686">
        <ele>623.6</ele>
        <time>2025-09-28T08:46:01Z</time>
      </trkpt>
      <trkpt lat="45.66011" lon="3.05693">
        <ele>623.4</ele>
        <time>2025-09-28T08:46:02Z</time>
      </trkpt>
      <trkpt lat="45.6601" lon="3.05699">
        <ele>623</ele>
        <time>2025-09-28T08:46:03Z</time>
      </trkpt>
      <trkpt lat="45.66009" lon="3.05705">
        <ele>622.6</ele>
        <time>2025-09-28T08:46:04Z</time>
      </trkpt>
      <trkpt lat="45.6601" lon="3.0571">
        <ele>622</ele>
        <time>2025-09-28T08:46:05Z</time>
      </trkpt>
      <trkpt lat="45.66013" lon="3.05716">
        <ele>621.6</ele>
        <time>2025-09-28T08:46:06Z</time>
      </trkpt>
      <trkpt lat="45.66017" lon="3.05725">
        <ele>621</ele>
        <time>2025-09-28T08:46:07Z</time>
      </trkpt>
      <trkpt lat="45.6602" lon="3.05735">
        <ele>620.6</ele>
        <time>2025-09-28T08:46:08Z</time>
      </trkpt>
      <trkpt lat="45.66022" lon="3.05744">
        <ele>620.2</ele>
        <time>2025-09-28T08:46:09Z</time>
      </trkpt>
      <trkpt lat="45.66021" lon="3.05755">
        <ele>619.8</ele>
        <time>2025-09-28T08:46:10Z</time>
      </trkpt>
      <trkpt lat="45.66017" lon="3.05767">
        <ele>619.8</ele>
        <time>2025-09-28T08:46:11Z</time>
      </trkpt>
      <trkpt lat="45.66014" lon="3.05773">
        <ele>619.8</ele>
        <time>2025-09-28T08:46:12Z</time>
      </trkpt>
      <trkpt lat="45.66013" lon="3.05777">
        <ele>619.8</ele>
        <time>2025-09-28T08:46:13Z</time>
      </trkpt>
      <trkpt lat="45.66013" lon="3.05781">
        <ele>619.8</ele>
        <time>2025-09-28T08:46:14Z</time>
      </trkpt>
      <trkpt lat="45.66014" lon="3.05784">
        <ele>620</ele>
        <time>2025-09-28T08:46:15Z</time>
      </trkpt>
      <trkpt lat="45.66015" lon="3.05789">
        <ele>620</ele>
        <time>2025-09-28T08:46:16Z</time>
      </trkpt>
      <trkpt lat="45.66016" lon="3.05795">
        <ele>620</ele>
        <time>2025-09-28T08:46:17Z</time>
      </trkpt>
      <trkpt lat="45.66015" lon="3.05802">
        <ele>619.8</ele>
        <time>2025-09-28T08:46:18Z</time>
      </trkpt>
      <trkpt lat="45.66014" lon="3.05813">
        <ele>619.8</ele>
        <time>2025-09-28T08:46:19Z</time>
      </trkpt>
      <trkpt lat="45.66015" lon="3.05824">
        <ele>619.8</ele>
        <time>2025-09-28T08:46:20Z</time>
      </trkpt>
      <trkpt lat="45.66016" lon="3.05833">
        <ele>619.8</ele>
        <time>2025-09-28T08:46:21Z</time>
      </trkpt>
      <trkpt lat="45.66018" lon="3.05841">
        <ele>620</ele>
        <time>2025-09-28T08:46:22Z</time>
      </trkpt>
      <trkpt lat="45.66019" lon="3.05847">
        <ele>620.2</ele>
        <time>2025-09-28T08:46:23Z</time>
      </trkpt>
      <trkpt lat="45.66019" lon="3.05853">
        <ele>620.6</ele>
        <time>2025-09-28T08:46:24Z</time>
      </trkpt>
      <trkpt lat="45.66019" lon="3.05857">
        <ele>621</ele>
        <time>2025-09-28T08:46:25Z</time>
      </trkpt>
      <trkpt lat="45.66018" lon="3.05861">
        <ele>621.2</ele>
        <time>2025-09-28T08:46:26Z</time>
      </trkpt>
      <trkpt lat="45.66018" lon="3.05864">
        <ele>621.6</ele>
        <time>2025-09-28T08:46:27Z</time>
      </trkpt>
      <trkpt lat="45.66018" lon="3.05869">
        <ele>621.6</ele>
        <time>2025-09-28T08:46:28Z</time>
      </trkpt>
      <trkpt lat="45.66018" lon="3.05874">
        <ele>621.8</ele>
        <time>2025-09-28T08:46:29Z</time>
      </trkpt>
      <trkpt lat="45.66019" lon="3.05879">
        <ele>621.6</ele>
        <time>2025-09-28T08:46:30Z</time>
      </trkpt>
      <trkpt lat="45.66019" lon="3.05883">
        <ele>621.2</ele>
        <time>2025-09-28T08:46:31Z</time>
      </trkpt>
      <trkpt lat="45.66018" lon="3.05888">
        <ele>620.8</ele>
        <time>2025-09-28T08:46:32Z</time>
      </trkpt>
      <trkpt lat="45.66016" lon="3.05892">
        <ele>620.4</ele>
        <time>2025-09-28T08:46:33Z</time>
      </trkpt>
      <trkpt lat="45.66015" lon="3.05895">
        <ele>619.8</ele>
        <time>2025-09-28T08:46:34Z</time>
      </trkpt>
      <trkpt lat="45.66015" lon="3.05899">
        <ele>619.2</ele>
        <time>2025-09-28T08:46:35Z</time>
      </trkpt>
      <trkpt lat="45.66016" lon="3.05903">
        <ele>618.8</ele>
        <time>2025-09-28T08:46:36Z</time>
      </trkpt>
      <trkpt lat="45.66019" lon="3.05905">
        <ele>618.4</ele>
        <time>2025-09-28T08:46:37Z</time>
      </trkpt>
      <trkpt lat="45.66022" lon="3.05905">
        <ele>618</ele>
        <time>2025-09-28T08:46:38Z</time>
      </trkpt>
      <trkpt lat="45.66026" lon="3.05904">
        <ele>618</ele>
        <time>2025-09-28T08:46:39Z</time>
      </trkpt>
      <trkpt lat="45.66032" lon="3.05904">
        <ele>618.2</ele>
        <time>2025-09-28T08:46:40Z</time>
      </trkpt>
      <trkpt lat="45.66038" lon="3.05905">
        <ele>618.2</ele>
        <time>2025-09-28T08:46:41Z</time>
      </trkpt>
      <trkpt lat="45.66042" lon="3.05906">
        <ele>618.4</ele>
        <time>2025-09-28T08:46:42Z</time>
      </trkpt>
      <trkpt lat="45.66046" lon="3.05908">
        <ele>618.8</ele>
        <time>2025-09-28T08:46:43Z</time>
      </trkpt>
      <trkpt lat="45.6605" lon="3.05909">
        <ele>619</ele>
        <time>2025-09-28T08:46:44Z</time>
      </trkpt>
      <trkpt lat="45.66053" lon="3.0591">
        <ele>619.2</ele>
        <time>2025-09-28T08:46:45Z</time>
      </trkpt>
      <trkpt lat="45.66056" lon="3.05912">
        <ele>619.4</ele>
        <time>2025-09-28T08:46:46Z</time>
      </trkpt>
      <trkpt lat="45.66059" lon="3.05914">
        <ele>619.4</ele>
        <time>2025-09-28T08:46:47Z</time>
      </trkpt>
      <trkpt lat="45.66063" lon="3.05915">
        <ele>619.4</ele>
        <time>2025-09-28T08:46:48Z</time>
      </trkpt>
      <trkpt lat="45.66067" lon="3.05916">
        <ele>619.4</ele>
        <time>2025-09-28T08:46:49Z</time>
      </trkpt>
      <trkpt lat="45.66072" lon="3.05917">
        <ele>619.4</ele>
        <time>2025-09-28T08:46:50Z</time>
      </trkpt>
      <trkpt lat="45.66076" lon="3.05918">
        <ele>619.4</ele>
        <time>2025-09-28T08:46:51Z</time>
      </trkpt>
      <trkpt lat="45.6608" lon="3.05917">
        <ele>619.4</ele>
        <time>2025-09-28T08:46:52Z</time>
      </trkpt>
      <trkpt lat="45.66083" lon="3.05917">
        <ele>619.4</ele>
        <time>2025-09-28T08:46:53Z</time>
      </trkpt>
      <trkpt lat="45.66086" lon="3.05918">
        <ele>619.4</ele>
        <time>2025-09-28T08:46:54Z</time>
      </trkpt>
      <trkpt lat="45.66089" lon="3.05921">
        <ele>619.6</ele>
        <time>2025-09-28T08:46:55Z</time>
      </trkpt>
      <trkpt lat="45.66092" lon="3.05924">
        <ele>619.6</ele>
        <time>2025-09-28T08:46:56Z</time>
      </trkpt>
      <trkpt lat="45.66094" lon="3.05928">
        <ele>619.6</ele>
        <time>2025-09-28T08:46:57Z</time>
      </trkpt>
      <trkpt lat="45.66096" lon="3.05931">
        <ele>619.8</ele>
        <time>2025-09-28T08:46:58Z</time>
      </trkpt>
      <trkpt lat="45.66099" lon="3.05933">
        <ele>619.8</ele>
        <time>2025-09-28T08:46:59Z</time>
      </trkpt>
      <trkpt lat="45.66103" lon="3.05933">
        <ele>620</ele>
        <time>2025-09-28T08:47:00Z</time>
      </trkpt>
      <trkpt lat="45.66106" lon="3.05933">
        <ele>620</ele>
        <time>2025-09-28T08:47:01Z</time>
      </trkpt>
      <trkpt lat="45.6611" lon="3.05933">
        <ele>620.2</ele>
        <time>2025-09-28T08:47:02Z</time>
      </trkpt>
      <trkpt lat="45.66113" lon="3.05933">
        <ele>620.2</ele>
        <time>2025-09-28T08:47:03Z</time>
      </trkpt>
      <trkpt lat="45.66116" lon="3.05933">
        <ele>620.2</ele>
        <time>2025-09-28T08:47:04Z</time>
      </trkpt>
      <trkpt lat="45.66118" lon="3.05934">
        <ele>620</ele>
        <time>2025-09-28T08:47:05Z</time>
      </trkpt>
      <trkpt lat="45.66118" lon="3.05937">
        <ele>619.6</ele>
        <time>2025-09-28T08:47:06Z</time>
      </trkpt>
      <trkpt lat="45.66117" lon="3.05942">
        <ele>619</ele>
        <time>2025-09-28T08:47:07Z</time>
      </trkpt>
      <trkpt lat="45.66118" lon="3.05948">
        <ele>618.6</ele>
        <time>2025-09-28T08:47:08Z</time>
      </trkpt>
      <trkpt lat="45.66119" lon="3.05954">
        <ele>618.2</ele>
        <time>2025-09-28T08:47:09Z</time>
      </trkpt>
      <trkpt lat="45.66121" lon="3.05961">
        <ele>618</ele>
        <time>2025-09-28T08:47:10Z</time>
      </trkpt>
      <trkpt lat="45.66123" lon="3.05968">
        <ele>617.6</ele>
        <time>2025-09-28T08:47:11Z</time>
      </trkpt>
      <trkpt lat="45.66125" lon="3.05976">
        <ele>617.4</ele>
        <time>2025-09-28T08:47:12Z</time>
      </trkpt>
      <trkpt lat="45.66128" lon="3.05982">
        <ele>617.2</ele>
        <time>2025-09-28T08:47:13Z</time>
      </trkpt>
      <trkpt lat="45.66131" lon="3.05984">
        <ele>616.8</ele>
        <time>2025-09-28T08:47:14Z</time>
      </trkpt>
      <trkpt lat="45.66134" lon="3.05984">
        <ele>616.6</ele>
        <time>2025-09-28T08:47:15Z</time>
      </trkpt>
      <trkpt lat="45.6614" lon="3.05985">
        <ele>616.4</ele>
        <time>2025-09-28T08:47:16Z</time>
      </trkpt>
      <trkpt lat="45.66145" lon="3.05985">
        <ele>616.2</ele>
        <time>2025-09-28T08:47:17Z</time>
      </trkpt>
      <trkpt lat="45.66148" lon="3.05986">
        <ele>616.2</ele>
        <time>2025-09-28T08:47:18Z</time>
      </trkpt>
      <trkpt lat="45.66151" lon="3.05987">
        <ele>616.2</ele>
        <time>2025-09-28T08:47:19Z</time>
      </trkpt>
      <trkpt lat="45.66153" lon="3.0599">
        <ele>616.4</ele>
        <time>2025-09-28T08:47:20Z</time>
      </trkpt>
      <trkpt lat="45.66158" lon="3.05992">
        <ele>616.8</ele>
        <time>2025-09-28T08:47:21Z</time>
      </trkpt>
      <trkpt lat="45.66165" lon="3.05996">
        <ele>617.2</ele>
        <time>2025-09-28T08:47:22Z</time>
      </trkpt>
      <trkpt lat="45.6617" lon="3.06">
        <ele>617.6</ele>
        <time>2025-09-28T08:47:23Z</time>
      </trkpt>
      <trkpt lat="45.66172" lon="3.06002">
        <ele>618</ele>
        <time>2025-09-28T08:47:24Z</time>
      </trkpt>
      <trkpt lat="45.66175" lon="3.06005">
        <ele>618.2</ele>
        <time>2025-09-28T08:47:25Z</time>
      </trkpt>
      <trkpt lat="45.6618" lon="3.06009">
        <ele>618.6</ele>
        <time>2025-09-28T08:47:26Z</time>
      </trkpt>
      <trkpt lat="45.66186" lon="3.06012">
        <ele>618.8</ele>
        <time>2025-09-28T08:47:27Z</time>
      </trkpt>
      <trkpt lat="45.6619" lon="3.06014">
        <ele>619</ele>
        <time>2025-09-28T08:47:28Z</time>
      </trkpt>
      <trkpt lat="45.66193" lon="3.06018">
        <ele>619</ele>
        <time>2025-09-28T08:47:29Z</time>
      </trkpt>
      <trkpt lat="45.66194" lon="3.06023">
        <ele>619.2</ele>
        <time>2025-09-28T08:47:30Z</time>
      </trkpt>
      <trkpt lat="45.66195" lon="3.06029">
        <ele>619.2</ele>
        <time>2025-09-28T08:47:31Z</time>
      </trkpt>
      <trkpt lat="45.66196" lon="3.06035">
        <ele>619.2</ele>
        <time>2025-09-28T08:47:32Z</time>
      </trkpt>
      <trkpt lat="45.66197" lon="3.06041">
        <ele>619.4</ele>
        <time>2025-09-28T08:47:33Z</time>
      </trkpt>
      <trkpt lat="45.662" lon="3.06047">
        <ele>619.4</ele>
        <time>2025-09-28T08:47:34Z</time>
      </trkpt>
      <trkpt lat="45.66204" lon="3.06052">
        <ele>619.6</ele>
        <time>2025-09-28T08:47:35Z</time>
      </trkpt>
      <trkpt lat="45.66207" lon="3.06056">
        <ele>619.8</ele>
        <time>2025-09-28T08:47:36Z</time>
      </trkpt>
      <trkpt lat="45.66212" lon="3.06061">
        <ele>620.2</ele>
        <time>2025-09-28T08:47:37Z</time>
      </trkpt>
      <trkpt lat="45.66217" lon="3.06067">
        <ele>620.4</ele>
        <time>2025-09-28T08:47:38Z</time>
      </trkpt>
      <trkpt lat="45.66222" lon="3.06073">
        <ele>620.8</ele>
        <time>2025-09-28T08:47:39Z</time>
      </trkpt>
      <trkpt lat="45.66225" lon="3.06078">
        <ele>620.8</ele>
        <time>2025-09-28T08:47:40Z</time>
      </trkpt>
      <trkpt lat="45.6623" lon="3.06083">
        <ele>621</ele>
        <time>2025-09-28T08:47:41Z</time>
      </trkpt>
      <trkpt lat="45.66234" lon="3.06089">
        <ele>621</ele>
        <time>2025-09-28T08:47:42Z</time>
      </trkpt>
      <trkpt lat="45.66238" lon="3.06094">
        <ele>621</ele>
        <time>2025-09-28T08:47:43Z</time>
      </trkpt>
      <trkpt lat="45.66242" lon="3.061">
        <ele>621</ele>
        <time>2025-09-28T08:47:44Z</time>
      </trkpt>
      <trkpt lat="45.66248" lon="3.06106">
        <ele>621</ele>
        <time>2025-09-28T08:47:45Z</time>
      </trkpt>
      <trkpt lat="45.66253" lon="3.06111">
        <ele>621</ele>
        <time>2025-09-28T08:47:46Z</time>
      </trkpt>
      <trkpt lat="45.66257" lon="3.06115">
        <ele>620.8</ele>
        <time>2025-09-28T08:47:47Z</time>
      </trkpt>
      <trkpt lat="45.66263" lon="3.06119">
        <ele>620.8</ele>
        <time>2025-09-28T08:47:48Z</time>
      </trkpt>
      <trkpt lat="45.66267" lon="3.06125">
        <ele>620.8</ele>
        <time>2025-09-28T08:47:49Z</time>
      </trkpt>
      <trkpt lat="45.6627" lon="3.06129">
        <ele>620.8</ele>
        <time>2025-09-28T08:47:50Z</time>
      </trkpt>
      <trkpt lat="45.66272" lon="3.06134">
        <ele>620.8</ele>
        <time>2025-09-28T08:47:51Z</time>
      </trkpt>
      <trkpt lat="45.66274" lon="3.06139">
        <ele>621</ele>
        <time>2025-09-28T08:47:52Z</time>
      </trkpt>
      <trkpt lat="45.66276" lon="3.06145">
        <ele>621</ele>
        <time>2025-09-28T08:47:53Z</time>
      </trkpt>
      <trkpt lat="45.66278" lon="3.0615">
        <ele>621.2</ele>
        <time>2025-09-28T08:47:54Z</time>
      </trkpt>
      <trkpt lat="45.66279" lon="3.06154">
        <ele>621.4</ele>
        <time>2025-09-28T08:47:55Z</time>
      </trkpt>
      <trkpt lat="45.66279" lon="3.06156">
        <ele>621.6</ele>
        <time>2025-09-28T08:47:56Z</time>
      </trkpt>
      <trkpt lat="45.6628" lon="3.0616">
        <ele>621.6</ele>
        <time>2025-09-28T08:47:57Z</time>
      </trkpt>
      <trkpt lat="45.66282" lon="3.06164">
        <ele>621.8</ele>
        <time>2025-09-28T08:47:58Z</time>
      </trkpt>
      <trkpt lat="45.66284" lon="3.06167">
        <ele>622</ele>
        <time>2025-09-28T08:47:59Z</time>
      </trkpt>
      <trkpt lat="45.66286" lon="3.06169">
        <ele>622</ele>
        <time>2025-09-28T08:48:00Z</time>
      </trkpt>
      <trkpt lat="45.66288" lon="3.06172">
        <ele>622</ele>
        <time>2025-09-28T08:48:01Z</time>
      </trkpt>
      <trkpt lat="45.66288" lon="3.06174">
        <ele>621.8</ele>
        <time>2025-09-28T08:48:02Z</time>
      </trkpt>
      <trkpt lat="45.66288" lon="3.06178">
        <ele>621.6</ele>
        <time>2025-09-28T08:48:03Z</time>
      </trkpt>
      <trkpt lat="45.66287" lon="3.06182">
        <ele>621.2</ele>
        <time>2025-09-28T08:48:04Z</time>
      </trkpt>
      <trkpt lat="45.66285" lon="3.06187">
        <ele>620.8</ele>
        <time>2025-09-28T08:48:05Z</time>
      </trkpt>
      <trkpt lat="45.66283" lon="3.06192">
        <ele>620.2</ele>
        <time>2025-09-28T08:48:06Z</time>
      </trkpt>
      <trkpt lat="45.66282" lon="3.06197">
        <ele>619.4</ele>
        <time>2025-09-28T08:48:07Z</time>
      </trkpt>
      <trkpt lat="45.6628" lon="3.06204">
        <ele>618.6</ele>
        <time>2025-09-28T08:48:08Z</time>
      </trkpt>
      <trkpt lat="45.66278" lon="3.06211">
        <ele>617.6</ele>
        <time>2025-09-28T08:48:09Z</time>
      </trkpt>
      <trkpt lat="45.66276" lon="3.06219">
        <ele>616.6</ele>
        <time>2025-09-28T08:48:10Z</time>
      </trkpt>
      <trkpt lat="45.66274" lon="3.06228">
        <ele>615.8</ele>
        <time>2025-09-28T08:48:11Z</time>
      </trkpt>
      <trkpt lat="45.66272" lon="3.06235">
        <ele>615</ele>
        <time>2025-09-28T08:48:12Z</time>
      </trkpt>
      <trkpt lat="45.6627" lon="3.06239">
        <ele>614.6</ele>
        <time>2025-09-28T08:48:13Z</time>
      </trkpt>
      <trkpt lat="45.6627" lon="3.06242">
        <ele>614</ele>
        <time>2025-09-28T08:48:14Z</time>
      </trkpt>
      <trkpt lat="45.66269" lon="3.06243">
        <ele>613.6</ele>
        <time>2025-09-28T08:48:15Z</time>
      </trkpt>
      <trkpt lat="45.66269" lon="3.06243">
        <ele>613.4</ele>
        <time>2025-09-28T08:48:16Z</time>
      </trkpt>
      <trkpt lat="45.66269" lon="3.06243">
        <ele>613</ele>
        <time>2025-09-28T08:48:17Z</time>
      </trkpt>
      <trkpt lat="45.66269" lon="3.06243">
        <ele>612.8</ele>
        <time>2025-09-28T08:48:18Z</time>
      </trkpt>
      <trkpt lat="45.66269" lon="3.06243">
        <ele>612.8</ele>
        <time>2025-09-28T08:48:19Z</time>
      </trkpt>
      <trkpt lat="45.66269" lon="3.06243">
        <ele>612.6</ele>
        <time>2025-09-28T08:48:20Z</time>
      </trkpt>
      <trkpt lat="45.66267" lon="3.06248">
        <ele>612.4</ele>
        <time>2025-09-28T08:48:32Z</time>
      </trkpt>
      <trkpt lat="45.66267" lon="3.06252">
        <ele>612.4</ele>
        <time>2025-09-28T08:48:33Z</time>
      </trkpt>
      <trkpt lat="45.66267" lon="3.06255">
        <ele>612.4</ele>
        <time>2025-09-28T08:48:34Z</time>
      </trkpt>
      <trkpt lat="45.66267" lon="3.06258">
        <ele>612.4</ele>
        <time>2025-09-28T08:48:35Z</time>
      </trkpt>
      <trkpt lat="45.66267" lon="3.06261">
        <ele>612.6</ele>
        <time>2025-09-28T08:48:36Z</time>
      </trkpt>
      <trkpt lat="45.66267" lon="3.06264">
        <ele>612.8</ele>
        <time>2025-09-28T08:48:37Z</time>
      </trkpt>
      <trkpt lat="45.66268" lon="3.06266">
        <ele>612.8</ele>
        <time>2025-09-28T08:48:38Z</time>
      </trkpt>
      <trkpt lat="45.66269" lon="3.06268">
        <ele>613</ele>
        <time>2025-09-28T08:48:39Z</time>
      </trkpt>
      <trkpt lat="45.66269" lon="3.06272">
        <ele>613</ele>
        <time>2025-09-28T08:48:40Z</time>
      </trkpt>
      <trkpt lat="45.6627" lon="3.06276">
        <ele>613.2</ele>
        <time>2025-09-28T08:48:41Z</time>
      </trkpt>
      <trkpt lat="45.66271" lon="3.06282">
        <ele>613.2</ele>
        <time>2025-09-28T08:48:42Z</time>
      </trkpt>
      <trkpt lat="45.6627" lon="3.06287">
        <ele>613.4</ele>
        <time>2025-09-28T08:48:43Z</time>
      </trkpt>
      <trkpt lat="45.6627" lon="3.06293">
        <ele>613.4</ele>
        <time>2025-09-28T08:48:44Z</time>
      </trkpt>
      <trkpt lat="45.66269" lon="3.06299">
        <ele>613.4</ele>
        <time>2025-09-28T08:48:45Z</time>
      </trkpt>
      <trkpt lat="45.66268" lon="3.06305">
        <ele>613.4</ele>
        <time>2025-09-28T08:48:46Z</time>
      </trkpt>
      <trkpt lat="45.66268" lon="3.06312">
        <ele>613.4</ele>
        <time>2025-09-28T08:48:47Z</time>
      </trkpt>
      <trkpt lat="45.66267" lon="3.0632">
        <ele>613.4</ele>
        <time>2025-09-28T08:48:48Z</time>
      </trkpt>
      <trkpt lat="45.66264" lon="3.06327">
        <ele>613.4</ele>
        <time>2025-09-28T08:48:49Z</time>
      </trkpt>
      <trkpt lat="45.66261" lon="3.06334">
        <ele>613.4</ele>
        <time>2025-09-28T08:48:50Z</time>
      </trkpt>
      <trkpt lat="45.66259" lon="3.06341">
        <ele>613.2</ele>
        <time>2025-09-28T08:48:51Z</time>
      </trkpt>
      <trkpt lat="45.66258" lon="3.06348">
        <ele>613</ele>
        <time>2025-09-28T08:48:52Z</time>
      </trkpt>
      <trkpt lat="45.66255" lon="3.06356">
        <ele>612.8</ele>
        <time>2025-09-28T08:48:53Z</time>
      </trkpt>
      <trkpt lat="45.66251" lon="3.06365">
        <ele>612.6</ele>
        <time>2025-09-28T08:48:54Z</time>
      </trkpt>
      <trkpt lat="45.66248" lon="3.06375">
        <ele>612.6</ele>
        <time>2025-09-28T08:48:55Z</time>
      </trkpt>
      <trkpt lat="45.66245" lon="3.06386">
        <ele>612.4</ele>
        <time>2025-09-28T08:48:56Z</time>
      </trkpt>
      <trkpt lat="45.66246" lon="3.06396">
        <ele>612.2</ele>
        <time>2025-09-28T08:48:57Z</time>
      </trkpt>
      <trkpt lat="45.66247" lon="3.06407">
        <ele>611.8</ele>
        <time>2025-09-28T08:48:58Z</time>
      </trkpt>
      <trkpt lat="45.66248" lon="3.06416">
        <ele>611.4</ele>
        <time>2025-09-28T08:48:59Z</time>
      </trkpt>
      <trkpt lat="45.66247" lon="3.06422">
        <ele>611.2</ele>
        <time>2025-09-28T08:49:00Z</time>
      </trkpt>
      <trkpt lat="45.66246" lon="3.06427">
        <ele>611</ele>
        <time>2025-09-28T08:49:01Z</time>
      </trkpt>
      <trkpt lat="45.66246" lon="3.0643">
        <ele>610.8</ele>
        <time>2025-09-28T08:49:02Z</time>
      </trkpt>
      <trkpt lat="45.66246" lon="3.06433">
        <ele>610.6</ele>
        <time>2025-09-28T08:49:03Z</time>
      </trkpt>
      <trkpt lat="45.66246" lon="3.06437">
        <ele>610.4</ele>
        <time>2025-09-28T08:49:04Z</time>
      </trkpt>
      <trkpt lat="45.66247" lon="3.06441">
        <ele>610.2</ele>
        <time>2025-09-28T08:49:05Z</time>
      </trkpt>
      <trkpt lat="45.66249" lon="3.06444">
        <ele>610.2</ele>
        <time>2025-09-28T08:49:06Z</time>
      </trkpt>
      <trkpt lat="45.6625" lon="3.06449">
        <ele>610.2</ele>
        <time>2025-09-28T08:49:07Z</time>
      </trkpt>
      <trkpt lat="45.6625" lon="3.06455">
        <ele>610.2</ele>
        <time>2025-09-28T08:49:08Z</time>
      </trkpt>
      <trkpt lat="45.6625" lon="3.06462">
        <ele>610.2</ele>
        <time>2025-09-28T08:49:09Z</time>
      </trkpt>
      <trkpt lat="45.66249" lon="3.06473">
        <ele>610.4</ele>
        <time>2025-09-28T08:49:10Z</time>
      </trkpt>
      <trkpt lat="45.66247" lon="3.06483">
        <ele>610.4</ele>
        <time>2025-09-28T08:49:11Z</time>
      </trkpt>
      <trkpt lat="45.66246" lon="3.06492">
        <ele>610.6</ele>
        <time>2025-09-28T08:49:12Z</time>
      </trkpt>
      <trkpt lat="45.66247" lon="3.06501">
        <ele>610.8</ele>
        <time>2025-09-28T08:49:13Z</time>
      </trkpt>
      <trkpt lat="45.66249" lon="3.06508">
        <ele>610.8</ele>
        <time>2025-09-28T08:49:14Z</time>
      </trkpt>
      <trkpt lat="45.66251" lon="3.06514">
        <ele>611</ele>
        <time>2025-09-28T08:49:15Z</time>
      </trkpt>
      <trkpt lat="45.6625" lon="3.0652">
        <ele>611.2</ele>
        <time>2025-09-28T08:49:16Z</time>
      </trkpt>
      <trkpt lat="45.66249" lon="3.06524">
        <ele>611.4</ele>
        <time>2025-09-28T08:49:17Z</time>
      </trkpt>
      <trkpt lat="45.66246" lon="3.0653">
        <ele>611.8</ele>
        <time>2025-09-28T08:49:18Z</time>
      </trkpt>
      <trkpt lat="45.66243" lon="3.06537">
        <ele>612.2</ele>
        <time>2025-09-28T08:49:19Z</time>
      </trkpt>
      <trkpt lat="45.66242" lon="3.06544">
        <ele>612.4</ele>
        <time>2025-09-28T08:49:20Z</time>
      </trkpt>
      <trkpt lat="45.66242" lon="3.06552">
        <ele>612.8</ele>
        <time>2025-09-28T08:49:21Z</time>
      </trkpt>
      <trkpt lat="45.66243" lon="3.06558">
        <ele>613.2</ele>
        <time>2025-09-28T08:49:22Z</time>
      </trkpt>
      <trkpt lat="45.66245" lon="3.06564">
        <ele>613.4</ele>
        <time>2025-09-28T08:49:23Z</time>
      </trkpt>
      <trkpt lat="45.66248" lon="3.0657">
        <ele>613.6</ele>
        <time>2025-09-28T08:49:24Z</time>
      </trkpt>
      <trkpt lat="45.66252" lon="3.06577">
        <ele>613.8</ele>
        <time>2025-09-28T08:49:25Z</time>
      </trkpt>
      <trkpt lat="45.66256" lon="3.06584">
        <ele>614</ele>
        <time>2025-09-28T08:49:26Z</time>
      </trkpt>
      <trkpt lat="45.66259" lon="3.06591">
        <ele>614.2</ele>
        <time>2025-09-28T08:49:27Z</time>
      </trkpt>
      <trkpt lat="45.66261" lon="3.06599">
        <ele>614.2</ele>
        <time>2025-09-28T08:49:28Z</time>
      </trkpt>
      <trkpt lat="45.66262" lon="3.06606">
        <ele>614.2</ele>
        <time>2025-09-28T08:49:29Z</time>
      </trkpt>
      <trkpt lat="45.66263" lon="3.06615">
        <ele>614.2</ele>
        <time>2025-09-28T08:49:30Z</time>
      </trkpt>
      <trkpt lat="45.66265" lon="3.06623">
        <ele>614.2</ele>
        <time>2025-09-28T08:49:31Z</time>
      </trkpt>
      <trkpt lat="45.66269" lon="3.06629">
        <ele>614</ele>
        <time>2025-09-28T08:49:32Z</time>
      </trkpt>
      <trkpt lat="45.66275" lon="3.06633">
        <ele>613.6</ele>
        <time>2025-09-28T08:49:33Z</time>
      </trkpt>
      <trkpt lat="45.66281" lon="3.06638">
        <ele>613.2</ele>
        <time>2025-09-28T08:49:34Z</time>
      </trkpt>
      <trkpt lat="45.66287" lon="3.06642">
        <ele>612.8</ele>
        <time>2025-09-28T08:49:35Z</time>
      </trkpt>
      <trkpt lat="45.66294" lon="3.06647">
        <ele>612.2</ele>
        <time>2025-09-28T08:49:36Z</time>
      </trkpt>
      <trkpt lat="45.66301" lon="3.06653">
        <ele>611.8</ele>
        <time>2025-09-28T08:49:37Z</time>
      </trkpt>
      <trkpt lat="45.66307" lon="3.06659">
        <ele>611.2</ele>
        <time>2025-09-28T08:49:38Z</time>
      </trkpt>
      <trkpt lat="45.66313" lon="3.06664">
        <ele>610.8</ele>
        <time>2025-09-28T08:49:39Z</time>
      </trkpt>
      <trkpt lat="45.66318" lon="3.06668">
        <ele>610.6</ele>
        <time>2025-09-28T08:49:40Z</time>
      </trkpt>
      <trkpt lat="45.66323" lon="3.06671">
        <ele>610.4</ele>
        <time>2025-09-28T08:49:41Z</time>
      </trkpt>
      <trkpt lat="45.66327" lon="3.06672">
        <ele>610.4</ele>
        <time>2025-09-28T08:49:42Z</time>
      </trkpt>
      <trkpt lat="45.66332" lon="3.06672">
        <ele>610.2</ele>
        <time>2025-09-28T08:49:43Z</time>
      </trkpt>
      <trkpt lat="45.66336" lon="3.0667">
        <ele>610.4</ele>
        <time>2025-09-28T08:49:44Z</time>
      </trkpt>
      <trkpt lat="45.66339" lon="3.06667">
        <ele>610.4</ele>
        <time>2025-09-28T08:49:45Z</time>
      </trkpt>
      <trkpt lat="45.66342" lon="3.06662">
        <ele>610.4</ele>
        <time>2025-09-28T08:49:46Z</time>
      </trkpt>
      <trkpt lat="45.66345" lon="3.06656">
        <ele>610.4</ele>
        <time>2025-09-28T08:49:47Z</time>
      </trkpt>
      <trkpt lat="45.66349" lon="3.06649">
        <ele>610.6</ele>
        <time>2025-09-28T08:49:48Z</time>
      </trkpt>
      <trkpt lat="45.66352" lon="3.06642">
        <ele>610.6</ele>
        <time>2025-09-28T08:49:49Z</time>
      </trkpt>
      <trkpt lat="45.66355" lon="3.06636">
        <ele>610.6</ele>
        <time>2025-09-28T08:49:50Z</time>
      </trkpt>
      <trkpt lat="45.66359" lon="3.06629">
        <ele>610.8</ele>
        <time>2025-09-28T08:49:51Z</time>
      </trkpt>
      <trkpt lat="45.66363" lon="3.06622">
        <ele>610.8</ele>
        <time>2025-09-28T08:49:52Z</time>
      </trkpt>
      <trkpt lat="45.66367" lon="3.06615">
        <ele>610.8</ele>
        <time>2025-09-28T08:49:53Z</time>
      </trkpt>
      <trkpt lat="45.6637" lon="3.06608">
        <ele>611</ele>
        <time>2025-09-28T08:49:54Z</time>
      </trkpt>
      <trkpt lat="45.66374" lon="3.06601">
        <ele>611</ele>
        <time>2025-09-28T08:49:55Z</time>
      </trkpt>
      <trkpt lat="45.66378" lon="3.06596">
        <ele>611.2</ele>
        <time>2025-09-28T08:49:56Z</time>
      </trkpt>
      <trkpt lat="45.66382" lon="3.06591">
        <ele>611</ele>
        <time>2025-09-28T08:49:57Z</time>
      </trkpt>
      <trkpt lat="45.66386" lon="3.06586">
        <ele>611</ele>
        <time>2025-09-28T08:49:58Z</time>
      </trkpt>
      <trkpt lat="45.6639" lon="3.06582">
        <ele>611</ele>
        <time>2025-09-28T08:49:59Z</time>
      </trkpt>
      <trkpt lat="45.66395" lon="3.0658">
        <ele>610.8</ele>
        <time>2025-09-28T08:50:00Z</time>
      </trkpt>
      <trkpt lat="45.66399" lon="3.06578">
        <ele>610.6</ele>
        <time>2025-09-28T08:50:01Z</time>
      </trkpt>
      <trkpt lat="45.66402" lon="3.06576">
        <ele>610.4</ele>
        <time>2025-09-28T08:50:02Z</time>
      </trkpt>
      <trkpt lat="45.66405" lon="3.06575">
        <ele>610.2</ele>
        <time>2025-09-28T08:50:03Z</time>
      </trkpt>
      <trkpt lat="45.66408" lon="3.06574">
        <ele>610</ele>
        <time>2025-09-28T08:50:04Z</time>
      </trkpt>
      <trkpt lat="45.66413" lon="3.06574">
        <ele>609.8</ele>
        <time>2025-09-28T08:50:05Z</time>
      </trkpt>
      <trkpt lat="45.66417" lon="3.06574">
        <ele>609.6</ele>
        <time>2025-09-28T08:50:06Z</time>
      </trkpt>
      <trkpt lat="45.6642" lon="3.06575">
        <ele>609.4</ele>
        <time>2025-09-28T08:50:07Z</time>
      </trkpt>
      <trkpt lat="45.66421" lon="3.06576">
        <ele>609.2</ele>
        <time>2025-09-28T08:50:08Z</time>
      </trkpt>
      <trkpt lat="45.66422" lon="3.06576">
        <ele>609.2</ele>
        <time>2025-09-28T08:50:09Z</time>
      </trkpt>
      <trkpt lat="45.6642" lon="3.06576">
        <ele>608.8</ele>
        <time>2025-09-28T08:50:14Z</time>
      </trkpt>
      <trkpt lat="45.66419" lon="3.06575">
        <ele>608.8</ele>
        <time>2025-09-28T08:50:15Z</time>
      </trkpt>
      <trkpt lat="45.66419" lon="3.06575">
        <ele>608.8</ele>
        <time>2025-09-28T08:50:16Z</time>
      </trkpt>
      <trkpt lat="45.66419" lon="3.06575">
        <ele>608.8</ele>
        <time>2025-09-28T08:50:17Z</time>
      </trkpt>
      <trkpt lat="45.66419" lon="3.06575">
        <ele>608.8</ele>
        <time>2025-09-28T08:50:18Z</time>
      </trkpt>
      <trkpt lat="45.66419" lon="3.06575">
        <ele>608.8</ele>
        <time>2025-09-28T08:50:19Z</time>
      </trkpt>
      <trkpt lat="45.66419" lon="3.06575">
        <ele>608.8</ele>
        <time>2025-09-28T08:50:20Z</time>
      </trkpt>
      <trkpt lat="45.66424" lon="3.06576">
        <ele>608.6</ele>
        <time>2025-09-28T08:50:26Z</time>
      </trkpt>
      <trkpt lat="45.66426" lon="3.06576">
        <ele>608.6</ele>
        <time>2025-09-28T08:50:27Z</time>
      </trkpt>
      <trkpt lat="45.66428" lon="3.06577">
        <ele>608.6</ele>
        <time>2025-09-28T08:50:28Z</time>
      </trkpt>
      <trkpt lat="45.66431" lon="3.06578">
        <ele>608.6</ele>
        <time>2025-09-28T08:50:29Z</time>
      </trkpt>
      <trkpt lat="45.66436" lon="3.06579">
        <ele>608.6</ele>
        <time>2025-09-28T08:50:30Z</time>
      </trkpt>
      <trkpt lat="45.66441" lon="3.0658">
        <ele>608.4</ele>
        <time>2025-09-28T08:50:31Z</time>
      </trkpt>
      <trkpt lat="45.66446" lon="3.06581">
        <ele>608.4</ele>
        <time>2025-09-28T08:50:32Z</time>
      </trkpt>
      <trkpt lat="45.66451" lon="3.06582">
        <ele>608.4</ele>
        <time>2025-09-28T08:50:33Z</time>
      </trkpt>
      <trkpt lat="45.66456" lon="3.06584">
        <ele>608.4</ele>
        <time>2025-09-28T08:50:34Z</time>
      </trkpt>
      <trkpt lat="45.66462" lon="3.06586">
        <ele>608.2</ele>
        <time>2025-09-28T08:50:35Z</time>
      </trkpt>
      <trkpt lat="45.66467" lon="3.06588">
        <ele>608.2</ele>
        <time>2025-09-28T08:50:36Z</time>
      </trkpt>
      <trkpt lat="45.66472" lon="3.0659">
        <ele>608.2</ele>
        <time>2025-09-28T08:50:37Z</time>
      </trkpt>
      <trkpt lat="45.66477" lon="3.06592">
        <ele>608</ele>
        <time>2025-09-28T08:50:38Z</time>
      </trkpt>
      <trkpt lat="45.66482" lon="3.06593">
        <ele>608</ele>
        <time>2025-09-28T08:50:39Z</time>
      </trkpt>
      <trkpt lat="45.66487" lon="3.06595">
        <ele>608</ele>
        <time>2025-09-28T08:50:40Z</time>
      </trkpt>
      <trkpt lat="45.66492" lon="3.06596">
        <ele>608</ele>
        <time>2025-09-28T08:50:41Z</time>
      </trkpt>
      <trkpt lat="45.66497" lon="3.06598">
        <ele>607.8</ele>
        <time>2025-09-28T08:50:42Z</time>
      </trkpt>
      <trkpt lat="45.66503" lon="3.066">
        <ele>607.8</ele>
        <time>2025-09-28T08:50:43Z</time>
      </trkpt>
      <trkpt lat="45.66508" lon="3.06601">
        <ele>607.8</ele>
        <time>2025-09-28T08:50:44Z</time>
      </trkpt>
      <trkpt lat="45.66513" lon="3.06601">
        <ele>607.8</ele>
        <time>2025-09-28T08:50:45Z</time>
      </trkpt>
      <trkpt lat="45.66518" lon="3.066">
        <ele>607.8</ele>
        <time>2025-09-28T08:50:46Z</time>
      </trkpt>
      <trkpt lat="45.66523" lon="3.066">
        <ele>608</ele>
        <time>2025-09-28T08:50:47Z</time>
      </trkpt>
      <trkpt lat="45.66528" lon="3.06599">
        <ele>608</ele>
        <time>2025-09-28T08:50:48Z</time>
      </trkpt>
      <trkpt lat="45.66532" lon="3.06598">
        <ele>608</ele>
        <time>2025-09-28T08:50:49Z</time>
      </trkpt>
      <trkpt lat="45.66537" lon="3.06596">
        <ele>608.2</ele>
        <time>2025-09-28T08:50:50Z</time>
      </trkpt>
      <trkpt lat="45.66541" lon="3.06595">
        <ele>608.2</ele>
        <time>2025-09-28T08:50:51Z</time>
      </trkpt>
      <trkpt lat="45.66545" lon="3.06593">
        <ele>608.4</ele>
        <time>2025-09-28T08:50:52Z</time>
      </trkpt>
      <trkpt lat="45.6655" lon="3.06591">
        <ele>608.4</ele>
        <time>2025-09-28T08:50:53Z</time>
      </trkpt>
      <trkpt lat="45.66555" lon="3.06589">
        <ele>608.4</ele>
        <time>2025-09-28T08:50:54Z</time>
      </trkpt>
      <trkpt lat="45.66559" lon="3.06587">
        <ele>608.6</ele>
        <time>2025-09-28T08:50:55Z</time>
      </trkpt>
      <trkpt lat="45.66564" lon="3.06585">
        <ele>608.6</ele>
        <time>2025-09-28T08:50:56Z</time>
      </trkpt>
      <trkpt lat="45.66569" lon="3.06585">
        <ele>608.8</ele>
        <time>2025-09-28T08:50:57Z</time>
      </trkpt>
      <trkpt lat="45.66573" lon="3.06585">
        <ele>609</ele>
        <time>2025-09-28T08:50:58Z</time>
      </trkpt>
      <trkpt lat="45.66578" lon="3.06586">
        <ele>609.2</ele>
        <time>2025-09-28T08:50:59Z</time>
      </trkpt>
      <trkpt lat="45.66582" lon="3.06587">
        <ele>609.4</ele>
        <time>2025-09-28T08:51:00Z</time>
      </trkpt>
      <trkpt lat="45.66586" lon="3.06589">
        <ele>609.6</ele>
        <time>2025-09-28T08:51:01Z</time>
      </trkpt>
      <trkpt lat="45.6659" lon="3.06592">
        <ele>609.8</ele>
        <time>2025-09-28T08:51:02Z</time>
      </trkpt>
      <trkpt lat="45.66594" lon="3.06594">
        <ele>610</ele>
        <time>2025-09-28T08:51:03Z</time>
      </trkpt>
      <trkpt lat="45.66597" lon="3.06597">
        <ele>610</ele>
        <time>2025-09-28T08:51:04Z</time>
      </trkpt>
      <trkpt lat="45.666" lon="3.06601">
        <ele>610.2</ele>
        <time>2025-09-28T08:51:05Z</time>
      </trkpt>
      <trkpt lat="45.66603" lon="3.06604">
        <ele>610.4</ele>
        <time>2025-09-28T08:51:06Z</time>
      </trkpt>
      <trkpt lat="45.66607" lon="3.06607">
        <ele>610.6</ele>
        <time>2025-09-28T08:51:07Z</time>
      </trkpt>
      <trkpt lat="45.6661" lon="3.06611">
        <ele>610.8</ele>
        <time>2025-09-28T08:51:08Z</time>
      </trkpt>
      <trkpt lat="45.66613" lon="3.06614">
        <ele>611</ele>
        <time>2025-09-28T08:51:09Z</time>
      </trkpt>
      <trkpt lat="45.66616" lon="3.06617">
        <ele>611.2</ele>
        <time>2025-09-28T08:51:10Z</time>
      </trkpt>
      <trkpt lat="45.66619" lon="3.06621">
        <ele>611.4</ele>
        <time>2025-09-28T08:51:11Z</time>
      </trkpt>
      <trkpt lat="45.66622" lon="3.06624">
        <ele>611.6</ele>
        <time>2025-09-28T08:51:12Z</time>
      </trkpt>
      <trkpt lat="45.66625" lon="3.06627">
        <ele>611.8</ele>
        <time>2025-09-28T08:51:13Z</time>
      </trkpt>
      <trkpt lat="45.66629" lon="3.0663">
        <ele>611.8</ele>
        <time>2025-09-28T08:51:14Z</time>
      </trkpt>
      <trkpt lat="45.66632" lon="3.06633">
        <ele>612</ele>
        <time>2025-09-28T08:51:15Z</time>
      </trkpt>
      <trkpt lat="45.66635" lon="3.06637">
        <ele>612.2</ele>
        <time>2025-09-28T08:51:16Z</time>
      </trkpt>
      <trkpt lat="45.66639" lon="3.0664">
        <ele>612.2</ele>
        <time>2025-09-28T08:51:17Z</time>
      </trkpt>
      <trkpt lat="45.66642" lon="3.06644">
        <ele>612.4</ele>
        <time>2025-09-28T08:51:18Z</time>
      </trkpt>
      <trkpt lat="45.66645" lon="3.06647">
        <ele>612.4</ele>
        <time>2025-09-28T08:51:19Z</time>
      </trkpt>
      <trkpt lat="45.66649" lon="3.06651">
        <ele>612.6</ele>
        <time>2025-09-28T08:51:20Z</time>
      </trkpt>
      <trkpt lat="45.66652" lon="3.06655">
        <ele>612.6</ele>
        <time>2025-09-28T08:51:21Z</time>
      </trkpt>
      <trkpt lat="45.66655" lon="3.06658">
        <ele>612.6</ele>
        <time>2025-09-28T08:51:22Z</time>
      </trkpt>
      <trkpt lat="45.66659" lon="3.06662">
        <ele>612.8</ele>
        <time>2025-09-28T08:51:23Z</time>
      </trkpt>
      <trkpt lat="45.66662" lon="3.06666">
        <ele>612.8</ele>
        <time>2025-09-28T08:51:24Z</time>
      </trkpt>
      <trkpt lat="45.66666" lon="3.0667">
        <ele>613</ele>
        <time>2025-09-28T08:51:25Z</time>
      </trkpt>
      <trkpt lat="45.6667" lon="3.06673">
        <ele>613</ele>
        <time>2025-09-28T08:51:26Z</time>
      </trkpt>
      <trkpt lat="45.66673" lon="3.06676">
        <ele>613.2</ele>
        <time>2025-09-28T08:51:27Z</time>
      </trkpt>
      <trkpt lat="45.66677" lon="3.0668">
        <ele>613.2</ele>
        <time>2025-09-28T08:51:28Z</time>
      </trkpt>
      <trkpt lat="45.66681" lon="3.06683">
        <ele>613.4</ele>
        <time>2025-09-28T08:51:29Z</time>
      </trkpt>
      <trkpt lat="45.66685" lon="3.06686">
        <ele>613.4</ele>
        <time>2025-09-28T08:51:30Z</time>
      </trkpt>
      <trkpt lat="45.66688" lon="3.06689">
        <ele>613.6</ele>
        <time>2025-09-28T08:51:31Z</time>
      </trkpt>
      <trkpt lat="45.66692" lon="3.06692">
        <ele>613.8</ele>
        <time>2025-09-28T08:51:32Z</time>
      </trkpt>
      <trkpt lat="45.66695" lon="3.06695">
        <ele>613.8</ele>
        <time>2025-09-28T08:51:33Z</time>
      </trkpt>
      <trkpt lat="45.66699" lon="3.06697">
        <ele>614</ele>
        <time>2025-09-28T08:51:34Z</time>
      </trkpt>
      <trkpt lat="45.66702" lon="3.06699">
        <ele>614.2</ele>
        <time>2025-09-28T08:51:35Z</time>
      </trkpt>
      <trkpt lat="45.66706" lon="3.06701">
        <ele>614.4</ele>
        <time>2025-09-28T08:51:36Z</time>
      </trkpt>
      <trkpt lat="45.66709" lon="3.06703">
        <ele>614.6</ele>
        <time>2025-09-28T08:51:37Z</time>
      </trkpt>
      <trkpt lat="45.66713" lon="3.06704">
        <ele>614.6</ele>
        <time>2025-09-28T08:51:38Z</time>
      </trkpt>
      <trkpt lat="45.66717" lon="3.06706">
        <ele>614.8</ele>
        <time>2025-09-28T08:51:39Z</time>
      </trkpt>
      <trkpt lat="45.66721" lon="3.06708">
        <ele>615</ele>
        <time>2025-09-28T08:51:40Z</time>
      </trkpt>
      <trkpt lat="45.66725" lon="3.06709">
        <ele>615</ele>
        <time>2025-09-28T08:51:41Z</time>
      </trkpt>
      <trkpt lat="45.66729" lon="3.06711">
        <ele>615.2</ele>
        <time>2025-09-28T08:51:42Z</time>
      </trkpt>
      <trkpt lat="45.66732" lon="3.06712">
        <ele>615.4</ele>
        <time>2025-09-28T08:51:43Z</time>
      </trkpt>
      <trkpt lat="45.66736" lon="3.06714">
        <ele>615.4</ele>
        <time>2025-09-28T08:51:44Z</time>
      </trkpt>
      <trkpt lat="45.66739" lon="3.06716">
        <ele>615.6</ele>
        <time>2025-09-28T08:51:45Z</time>
      </trkpt>
      <trkpt lat="45.66742" lon="3.06717">
        <ele>615.8</ele>
        <time>2025-09-28T08:51:46Z</time>
      </trkpt>
      <trkpt lat="45.66746" lon="3.06719">
        <ele>615.8</ele>
        <time>2025-09-28T08:51:47Z</time>
      </trkpt>
      <trkpt lat="45.66749" lon="3.0672">
        <ele>616</ele>
        <time>2025-09-28T08:51:48Z</time>
      </trkpt>
      <trkpt lat="45.66753" lon="3.06721">
        <ele>616.2</ele>
        <time>2025-09-28T08:51:49Z</time>
      </trkpt>
      <trkpt lat="45.66756" lon="3.06722">
        <ele>616.2</ele>
        <time>2025-09-28T08:51:50Z</time>
      </trkpt>
      <trkpt lat="45.6676" lon="3.06724">
        <ele>616.4</ele>
        <time>2025-09-28T08:51:51Z</time>
      </trkpt>
      <trkpt lat="45.66764" lon="3.06725">
        <ele>616.6</ele>
        <time>2025-09-28T08:51:52Z</time>
      </trkpt>
      <trkpt lat="45.66767" lon="3.06727">
        <ele>616.8</ele>
        <time>2025-09-28T08:51:53Z</time>
      </trkpt>
      <trkpt lat="45.66771" lon="3.06728">
        <ele>617</ele>
        <time>2025-09-28T08:51:54Z</time>
      </trkpt>
      <trkpt lat="45.66774" lon="3.06729">
        <ele>617.2</ele>
        <time>2025-09-28T08:51:55Z</time>
      </trkpt>
      <trkpt lat="45.66778" lon="3.06731">
        <ele>617.4</ele>
        <time>2025-09-28T08:51:56Z</time>
      </trkpt>
      <trkpt lat="45.66781" lon="3.06732">
        <ele>617.6</ele>
        <time>2025-09-28T08:51:57Z</time>
      </trkpt>
      <trkpt lat="45.66785" lon="3.06733">
        <ele>617.8</ele>
        <time>2025-09-28T08:51:58Z</time>
      </trkpt>
      <trkpt lat="45.66788" lon="3.06734">
        <ele>618</ele>
        <time>2025-09-28T08:51:59Z</time>
      </trkpt>
      <trkpt lat="45.66791" lon="3.06734">
        <ele>618.2</ele>
        <time>2025-09-28T08:52:00Z</time>
      </trkpt>
      <trkpt lat="45.66794" lon="3.06735">
        <ele>618.4</ele>
        <time>2025-09-28T08:52:01Z</time>
      </trkpt>
      <trkpt lat="45.66797" lon="3.06735">
        <ele>618.6</ele>
        <time>2025-09-28T08:52:02Z</time>
      </trkpt>
      <trkpt lat="45.668" lon="3.06734">
        <ele>618.6</ele>
        <time>2025-09-28T08:52:03Z</time>
      </trkpt>
      <trkpt lat="45.66802" lon="3.06734">
        <ele>618.8</ele>
        <time>2025-09-28T08:52:04Z</time>
      </trkpt>
      <trkpt lat="45.66804" lon="3.06732">
        <ele>618.8</ele>
        <time>2025-09-28T08:52:05Z</time>
      </trkpt>
      <trkpt lat="45.66806" lon="3.0673">
        <ele>619</ele>
        <time>2025-09-28T08:52:06Z</time>
      </trkpt>
      <trkpt lat="45.66808" lon="3.06726">
        <ele>618.8</ele>
        <time>2025-09-28T08:52:07Z</time>
      </trkpt>
      <trkpt lat="45.66811" lon="3.06722">
        <ele>618.8</ele>
        <time>2025-09-28T08:52:08Z</time>
      </trkpt>
      <trkpt lat="45.66814" lon="3.06718">
        <ele>618.6</ele>
        <time>2025-09-28T08:52:09Z</time>
      </trkpt>
      <trkpt lat="45.66818" lon="3.06713">
        <ele>618.4</ele>
        <time>2025-09-28T08:52:10Z</time>
      </trkpt>
      <trkpt lat="45.66822" lon="3.06708">
        <ele>618.2</ele>
        <time>2025-09-28T08:52:11Z</time>
      </trkpt>
      <trkpt lat="45.66826" lon="3.06703">
        <ele>618</ele>
        <time>2025-09-28T08:52:12Z</time>
      </trkpt>
      <trkpt lat="45.66831" lon="3.06698">
        <ele>617.8</ele>
        <time>2025-09-28T08:52:13Z</time>
      </trkpt>
      <trkpt lat="45.66835" lon="3.06693">
        <ele>617.6</ele>
        <time>2025-09-28T08:52:14Z</time>
      </trkpt>
      <trkpt lat="45.6684" lon="3.06688">
        <ele>617.2</ele>
        <time>2025-09-28T08:52:15Z</time>
      </trkpt>
      <trkpt lat="45.66845" lon="3.06683">
        <ele>616.8</ele>
        <time>2025-09-28T08:52:16Z</time>
      </trkpt>
      <trkpt lat="45.66851" lon="3.06677">
        <ele>616.4</ele>
        <time>2025-09-28T08:52:17Z</time>
      </trkpt>
      <trkpt lat="45.66857" lon="3.06671">
        <ele>615.8</ele>
        <time>2025-09-28T08:52:18Z</time>
      </trkpt>
      <trkpt lat="45.66864" lon="3.06664">
        <ele>615.2</ele>
        <time>2025-09-28T08:52:19Z</time>
      </trkpt>
      <trkpt lat="45.6687" lon="3.06657">
        <ele>614.6</ele>
        <time>2025-09-28T08:52:20Z</time>
      </trkpt>
      <trkpt lat="45.66876" lon="3.06648">
        <ele>614</ele>
        <time>2025-09-28T08:52:21Z</time>
      </trkpt>
      <trkpt lat="45.66882" lon="3.0664">
        <ele>613.2</ele>
        <time>2025-09-28T08:52:22Z</time>
      </trkpt>
      <trkpt lat="45.66889" lon="3.0663">
        <ele>612.6</ele>
        <time>2025-09-28T08:52:23Z</time>
      </trkpt>
      <trkpt lat="45.66894" lon="3.06619">
        <ele>611.8</ele>
        <time>2025-09-28T08:52:24Z</time>
      </trkpt>
      <trkpt lat="45.66899" lon="3.06608">
        <ele>611.2</ele>
        <time>2025-09-28T08:52:25Z</time>
      </trkpt>
      <trkpt lat="45.66901" lon="3.06596">
        <ele>610.4</ele>
        <time>2025-09-28T08:52:26Z</time>
      </trkpt>
      <trkpt lat="45.66903" lon="3.06584">
        <ele>609.8</ele>
        <time>2025-09-28T08:52:27Z</time>
      </trkpt>
      <trkpt lat="45.66903" lon="3.06573">
        <ele>609</ele>
        <time>2025-09-28T08:52:28Z</time>
      </trkpt>
      <trkpt lat="45.66903" lon="3.06563">
        <ele>608.2</ele>
        <time>2025-09-28T08:52:29Z</time>
      </trkpt>
      <trkpt lat="45.66903" lon="3.06554">
        <ele>607.6</ele>
        <time>2025-09-28T08:52:30Z</time>
      </trkpt>
      <trkpt lat="45.66905" lon="3.06546">
        <ele>607.2</ele>
        <time>2025-09-28T08:52:31Z</time>
      </trkpt>
      <trkpt lat="45.66908" lon="3.06538">
        <ele>606.8</ele>
        <time>2025-09-28T08:52:32Z</time>
      </trkpt>
      <trkpt lat="45.66912" lon="3.06531">
        <ele>606.4</ele>
        <time>2025-09-28T08:52:33Z</time>
      </trkpt>
      <trkpt lat="45.66916" lon="3.06524">
        <ele>606.2</ele>
        <time>2025-09-28T08:52:34Z</time>
      </trkpt>
      <trkpt lat="45.6692" lon="3.06516">
        <ele>605.8</ele>
        <time>2025-09-28T08:52:35Z</time>
      </trkpt>
      <trkpt lat="45.66923" lon="3.06509">
        <ele>605.8</ele>
        <time>2025-09-28T08:52:36Z</time>
      </trkpt>
      <trkpt lat="45.66927" lon="3.06501">
        <ele>605.6</ele>
        <time>2025-09-28T08:52:37Z</time>
      </trkpt>
      <trkpt lat="45.6693" lon="3.06494">
        <ele>605.6</ele>
        <time>2025-09-28T08:52:38Z</time>
      </trkpt>
      <trkpt lat="45.66934" lon="3.06487">
        <ele>605.4</ele>
        <time>2025-09-28T08:52:39Z</time>
      </trkpt>
      <trkpt lat="45.66937" lon="3.0648">
        <ele>605.4</ele>
        <time>2025-09-28T08:52:40Z</time>
      </trkpt>
      <trkpt lat="45.66941" lon="3.06474">
        <ele>605.4</ele>
        <time>2025-09-28T08:52:41Z</time>
      </trkpt>
      <trkpt lat="45.66946" lon="3.06469">
        <ele>605.2</ele>
        <time>2025-09-28T08:52:42Z</time>
      </trkpt>
      <trkpt lat="45.66951" lon="3.06464">
        <ele>605.2</ele>
        <time>2025-09-28T08:52:43Z</time>
      </trkpt>
      <trkpt lat="45.66956" lon="3.06458">
        <ele>605.2</ele>
        <time>2025-09-28T08:52:44Z</time>
      </trkpt>
      <trkpt lat="45.6696" lon="3.06453">
        <ele>605.2</ele>
        <time>2025-09-28T08:52:45Z</time>
      </trkpt>
      <trkpt lat="45.66965" lon="3.06447">
        <ele>605.2</ele>
        <time>2025-09-28T08:52:46Z</time>
      </trkpt>
      <trkpt lat="45.66969" lon="3.0644">
        <ele>605.4</ele>
        <time>2025-09-28T08:52:47Z</time>
      </trkpt>
      <trkpt lat="45.66974" lon="3.06434">
        <ele>605.4</ele>
        <time>2025-09-28T08:52:48Z</time>
      </trkpt>
      <trkpt lat="45.66978" lon="3.06427">
        <ele>605.4</ele>
        <time>2025-09-28T08:52:49Z</time>
      </trkpt>
      <trkpt lat="45.66982" lon="3.06421">
        <ele>605.4</ele>
        <time>2025-09-28T08:52:50Z</time>
      </trkpt>
      <trkpt lat="45.66985" lon="3.06415">
        <ele>605.4</ele>
        <time>2025-09-28T08:52:51Z</time>
      </trkpt>
      <trkpt lat="45.66988" lon="3.06409">
        <ele>605.4</ele>
        <time>2025-09-28T08:52:52Z</time>
      </trkpt>
      <trkpt lat="45.6699" lon="3.06403">
        <ele>605.4</ele>
        <time>2025-09-28T08:52:53Z</time>
      </trkpt>
      <trkpt lat="45.66992" lon="3.06397">
        <ele>605.4</ele>
        <time>2025-09-28T08:52:54Z</time>
      </trkpt>
      <trkpt lat="45.66993" lon="3.06391">
        <ele>605.4</ele>
        <time>2025-09-28T08:52:55Z</time>
      </trkpt>
      <trkpt lat="45.66994" lon="3.06386">
        <ele>605.2</ele>
        <time>2025-09-28T08:52:56Z</time>
      </trkpt>
      <trkpt lat="45.66994" lon="3.06381">
        <ele>605.2</ele>
        <time>2025-09-28T08:52:57Z</time>
      </trkpt>
      <trkpt lat="45.66994" lon="3.06376">
        <ele>605.2</ele>
        <time>2025-09-28T08:52:58Z</time>
      </trkpt>
      <trkpt lat="45.66994" lon="3.06371">
        <ele>605.2</ele>
        <time>2025-09-28T08:52:59Z</time>
      </trkpt>
      <trkpt lat="45.66993" lon="3.06367">
        <ele>605.2</ele>
        <time>2025-09-28T08:53:00Z</time>
      </trkpt>
      <trkpt lat="45.66992" lon="3.06362">
        <ele>605.2</ele>
        <time>2025-09-28T08:53:01Z</time>
      </trkpt>
      <trkpt lat="45.66992" lon="3.06357">
        <ele>605.2</ele>
        <time>2025-09-28T08:53:02Z</time>
      </trkpt>
      <trkpt lat="45.66992" lon="3.06352">
        <ele>605.4</ele>
        <time>2025-09-28T08:53:03Z</time>
      </trkpt>
      <trkpt lat="45.66993" lon="3.06345">
        <ele>605.4</ele>
        <time>2025-09-28T08:53:04Z</time>
      </trkpt>
      <trkpt lat="45.66993" lon="3.06338">
        <ele>605.6</ele>
        <time>2025-09-28T08:53:05Z</time>
      </trkpt>
      <trkpt lat="45.66994" lon="3.06332">
        <ele>605.6</ele>
        <time>2025-09-28T08:53:06Z</time>
      </trkpt>
      <trkpt lat="45.66995" lon="3.06325">
        <ele>605.6</ele>
        <time>2025-09-28T08:53:07Z</time>
      </trkpt>
      <trkpt lat="45.66996" lon="3.06319">
        <ele>605.6</ele>
        <time>2025-09-28T08:53:08Z</time>
      </trkpt>
      <trkpt lat="45.66998" lon="3.06313">
        <ele>605.6</ele>
        <time>2025-09-28T08:53:09Z</time>
      </trkpt>
      <trkpt lat="45.67" lon="3.06306">
        <ele>605.8</ele>
        <time>2025-09-28T08:53:10Z</time>
      </trkpt>
      <trkpt lat="45.67002" lon="3.063">
        <ele>605.8</ele>
        <time>2025-09-28T08:53:11Z</time>
      </trkpt>
      <trkpt lat="45.67003" lon="3.06292">
        <ele>605.8</ele>
        <time>2025-09-28T08:53:12Z</time>
      </trkpt>
      <trkpt lat="45.67005" lon="3.06284">
        <ele>606</ele>
        <time>2025-09-28T08:53:13Z</time>
      </trkpt>
      <trkpt lat="45.67006" lon="3.06277">
        <ele>606</ele>
        <time>2025-09-28T08:53:14Z</time>
      </trkpt>
      <trkpt lat="45.67007" lon="3.06269">
        <ele>606.2</ele>
        <time>2025-09-28T08:53:15Z</time>
      </trkpt>
      <trkpt lat="45.67008" lon="3.06261">
        <ele>606.2</ele>
        <time>2025-09-28T08:53:16Z</time>
      </trkpt>
      <trkpt lat="45.67008" lon="3.06253">
        <ele>606.4</ele>
        <time>2025-09-28T08:53:17Z</time>
      </trkpt>
      <trkpt lat="45.67009" lon="3.06245">
        <ele>606.4</ele>
        <time>2025-09-28T08:53:18Z</time>
      </trkpt>
      <trkpt lat="45.6701" lon="3.06238">
        <ele>606.6</ele>
        <time>2025-09-28T08:53:19Z</time>
      </trkpt>
      <trkpt lat="45.67011" lon="3.06231">
        <ele>606.8</ele>
        <time>2025-09-28T08:53:20Z</time>
      </trkpt>
      <trkpt lat="45.67012" lon="3.06224">
        <ele>606.8</ele>
        <time>2025-09-28T08:53:21Z</time>
      </trkpt>
      <trkpt lat="45.67013" lon="3.06216">
        <ele>606.8</ele>
        <time>2025-09-28T08:53:22Z</time>
      </trkpt>
      <trkpt lat="45.67014" lon="3.06209">
        <ele>607</ele>
        <time>2025-09-28T08:53:23Z</time>
      </trkpt>
      <trkpt lat="45.67014" lon="3.06201">
        <ele>607</ele>
        <time>2025-09-28T08:53:24Z</time>
      </trkpt>
      <trkpt lat="45.67016" lon="3.06194">
        <ele>607</ele>
        <time>2025-09-28T08:53:25Z</time>
      </trkpt>
      <trkpt lat="45.67017" lon="3.06187">
        <ele>607.2</ele>
        <time>2025-09-28T08:53:26Z</time>
      </trkpt>
      <trkpt lat="45.67017" lon="3.0618">
        <ele>607.2</ele>
        <time>2025-09-28T08:53:27Z</time>
      </trkpt>
      <trkpt lat="45.67018" lon="3.06173">
        <ele>607.2</ele>
        <time>2025-09-28T08:53:28Z</time>
      </trkpt>
      <trkpt lat="45.67018" lon="3.06165">
        <ele>607.4</ele>
        <time>2025-09-28T08:53:29Z</time>
      </trkpt>
      <trkpt lat="45.67018" lon="3.06158">
        <ele>607.4</ele>
        <time>2025-09-28T08:53:30Z</time>
      </trkpt>
      <trkpt lat="45.67019" lon="3.06151">
        <ele>607.4</ele>
        <time>2025-09-28T08:53:31Z</time>
      </trkpt>
      <trkpt lat="45.6702" lon="3.06144">
        <ele>607.4</ele>
        <time>2025-09-28T08:53:32Z</time>
      </trkpt>
      <trkpt lat="45.67022" lon="3.06137">
        <ele>607.6</ele>
        <time>2025-09-28T08:53:33Z</time>
      </trkpt>
      <trkpt lat="45.67023" lon="3.06131">
        <ele>607.6</ele>
        <time>2025-09-28T08:53:34Z</time>
      </trkpt>
      <trkpt lat="45.67025" lon="3.06124">
        <ele>607.6</ele>
        <time>2025-09-28T08:53:35Z</time>
      </trkpt>
      <trkpt lat="45.67026" lon="3.06118">
        <ele>607.8</ele>
        <time>2025-09-28T08:53:36Z</time>
      </trkpt>
      <trkpt lat="45.67027" lon="3.06111">
        <ele>607.8</ele>
        <time>2025-09-28T08:53:37Z</time>
      </trkpt>
      <trkpt lat="45.67027" lon="3.06104">
        <ele>607.8</ele>
        <time>2025-09-28T08:53:38Z</time>
      </trkpt>
      <trkpt lat="45.67028" lon="3.06097">
        <ele>608</ele>
        <time>2025-09-28T08:53:39Z</time>
      </trkpt>
      <trkpt lat="45.67029" lon="3.06089">
        <ele>608</ele>
        <time>2025-09-28T08:53:40Z</time>
      </trkpt>
      <trkpt lat="45.6703" lon="3.06082">
        <ele>608</ele>
        <time>2025-09-28T08:53:41Z</time>
      </trkpt>
      <trkpt lat="45.67031" lon="3.06075">
        <ele>608.2</ele>
        <time>2025-09-28T08:53:42Z</time>
      </trkpt>
      <trkpt lat="45.67033" lon="3.06069">
        <ele>608.2</ele>
        <time>2025-09-28T08:53:43Z</time>
      </trkpt>
      <trkpt lat="45.67034" lon="3.06062">
        <ele>608.2</ele>
        <time>2025-09-28T08:53:44Z</time>
      </trkpt>
      <trkpt lat="45.67035" lon="3.06056">
        <ele>608.4</ele>
        <time>2025-09-28T08:53:45Z</time>
      </trkpt>
      <trkpt lat="45.67037" lon="3.06049">
        <ele>608.4</ele>
        <time>2025-09-28T08:53:46Z</time>
      </trkpt>
      <trkpt lat="45.67038" lon="3.06043">
        <ele>608.4</ele>
        <time>2025-09-28T08:53:47Z</time>
      </trkpt>
      <trkpt lat="45.67039" lon="3.06036">
        <ele>608.4</ele>
        <time>2025-09-28T08:53:48Z</time>
      </trkpt>
      <trkpt lat="45.6704" lon="3.0603">
        <ele>608.6</ele>
        <time>2025-09-28T08:53:49Z</time>
      </trkpt>
      <trkpt lat="45.67042" lon="3.06024">
        <ele>608.6</ele>
        <time>2025-09-28T08:53:50Z</time>
      </trkpt>
      <trkpt lat="45.67044" lon="3.06018">
        <ele>608.6</ele>
        <time>2025-09-28T08:53:51Z</time>
      </trkpt>
      <trkpt lat="45.67045" lon="3.06012">
        <ele>608.8</ele>
        <time>2025-09-28T08:53:52Z</time>
      </trkpt>
      <trkpt lat="45.67047" lon="3.06007">
        <ele>608.8</ele>
        <time>2025-09-28T08:53:53Z</time>
      </trkpt>
      <trkpt lat="45.6705" lon="3.06002">
        <ele>608.8</ele>
        <time>2025-09-28T08:53:54Z</time>
      </trkpt>
      <trkpt lat="45.67052" lon="3.05997">
        <ele>609</ele>
        <time>2025-09-28T08:53:55Z</time>
      </trkpt>
      <trkpt lat="45.67054" lon="3.05993">
        <ele>609</ele>
        <time>2025-09-28T08:53:56Z</time>
      </trkpt>
      <trkpt lat="45.67057" lon="3.05988">
        <ele>609</ele>
        <time>2025-09-28T08:53:57Z</time>
      </trkpt>
      <trkpt lat="45.67059" lon="3.05983">
        <ele>609.2</ele>
        <time>2025-09-28T08:53:58Z</time>
      </trkpt>
      <trkpt lat="45.67062" lon="3.05978">
        <ele>609.2</ele>
        <time>2025-09-28T08:53:59Z</time>
      </trkpt>
      <trkpt lat="45.67064" lon="3.05973">
        <ele>609.2</ele>
        <time>2025-09-28T08:54:00Z</time>
      </trkpt>
      <trkpt lat="45.67067" lon="3.05968">
        <ele>609.4</ele>
        <time>2025-09-28T08:54:01Z</time>
      </trkpt>
      <trkpt lat="45.6707" lon="3.05963">
        <ele>609.4</ele>
        <time>2025-09-28T08:54:02Z</time>
      </trkpt>
      <trkpt lat="45.67073" lon="3.05959">
        <ele>609.6</ele>
        <time>2025-09-28T08:54:03Z</time>
      </trkpt>
      <trkpt lat="45.67076" lon="3.05954">
        <ele>609.6</ele>
        <time>2025-09-28T08:54:04Z</time>
      </trkpt>
      <trkpt lat="45.67079" lon="3.05949">
        <ele>609.6</ele>
        <time>2025-09-28T08:54:05Z</time>
      </trkpt>
      <trkpt lat="45.67082" lon="3.05945">
        <ele>609.8</ele>
        <time>2025-09-28T08:54:06Z</time>
      </trkpt>
      <trkpt lat="45.67085" lon="3.0594">
        <ele>609.8</ele>
        <time>2025-09-28T08:54:07Z</time>
      </trkpt>
      <trkpt lat="45.67088" lon="3.05936">
        <ele>610</ele>
        <time>2025-09-28T08:54:08Z</time>
      </trkpt>
      <trkpt lat="45.6709" lon="3.05932">
        <ele>610</ele>
        <time>2025-09-28T08:54:09Z</time>
      </trkpt>
      <trkpt lat="45.67092" lon="3.05927">
        <ele>610.2</ele>
        <time>2025-09-28T08:54:10Z</time>
      </trkpt>
      <trkpt lat="45.67095" lon="3.05922">
        <ele>610.2</ele>
        <time>2025-09-28T08:54:11Z</time>
      </trkpt>
      <trkpt lat="45.67097" lon="3.05918">
        <ele>610.4</ele>
        <time>2025-09-28T08:54:12Z</time>
      </trkpt>
      <trkpt lat="45.671" lon="3.05914">
        <ele>610.4</ele>
        <time>2025-09-28T08:54:13Z</time>
      </trkpt>
      <trkpt lat="45.67102" lon="3.05909">
        <ele>610.4</ele>
        <time>2025-09-28T08:54:14Z</time>
      </trkpt>
      <trkpt lat="45.67104" lon="3.05904">
        <ele>610.6</ele>
        <time>2025-09-28T08:54:15Z</time>
      </trkpt>
      <trkpt lat="45.67107" lon="3.05899">
        <ele>610.6</ele>
        <time>2025-09-28T08:54:16Z</time>
      </trkpt>
      <trkpt lat="45.67108" lon="3.05895">
        <ele>610.8</ele>
        <time>2025-09-28T08:54:17Z</time>
      </trkpt>
      <trkpt lat="45.6711" lon="3.0589">
        <ele>610.8</ele>
        <time>2025-09-28T08:54:18Z</time>
      </trkpt>
      <trkpt lat="45.67112" lon="3.05884">
        <ele>611</ele>
        <time>2025-09-28T08:54:19Z</time>
      </trkpt>
      <trkpt lat="45.67113" lon="3.05879">
        <ele>611</ele>
        <time>2025-09-28T08:54:20Z</time>
      </trkpt>
      <trkpt lat="45.67114" lon="3.05874">
        <ele>611.2</ele>
        <time>2025-09-28T08:54:21Z</time>
      </trkpt>
      <trkpt lat="45.67115" lon="3.0587">
        <ele>611.2</ele>
        <time>2025-09-28T08:54:22Z</time>
      </trkpt>
      <trkpt lat="45.67116" lon="3.05865">
        <ele>611.2</ele>
        <time>2025-09-28T08:54:23Z</time>
      </trkpt>
      <trkpt lat="45.67117" lon="3.0586">
        <ele>611.4</ele>
        <time>2025-09-28T08:54:24Z</time>
      </trkpt>
      <trkpt lat="45.67119" lon="3.05855">
        <ele>611.4</ele>
        <time>2025-09-28T08:54:25Z</time>
      </trkpt>
      <trkpt lat="45.6712" lon="3.05851">
        <ele>611.6</ele>
        <time>2025-09-28T08:54:26Z</time>
      </trkpt>
      <trkpt lat="45.67122" lon="3.05846">
        <ele>611.6</ele>
        <time>2025-09-28T08:54:27Z</time>
      </trkpt>
      <trkpt lat="45.67124" lon="3.05841">
        <ele>611.8</ele>
        <time>2025-09-28T08:54:28Z</time>
      </trkpt>
      <trkpt lat="45.67127" lon="3.05835">
        <ele>611.8</ele>
        <time>2025-09-28T08:54:29Z</time>
      </trkpt>
      <trkpt lat="45.67129" lon="3.0583">
        <ele>612</ele>
        <time>2025-09-28T08:54:30Z</time>
      </trkpt>
      <trkpt lat="45.67132" lon="3.05825">
        <ele>612.2</ele>
        <time>2025-09-28T08:54:31Z</time>
      </trkpt>
      <trkpt lat="45.67135" lon="3.05822">
        <ele>612.4</ele>
        <time>2025-09-28T08:54:32Z</time>
      </trkpt>
      <trkpt lat="45.67138" lon="3.05821">
        <ele>612.4</ele>
        <time>2025-09-28T08:54:33Z</time>
      </trkpt>
      <trkpt lat="45.67141" lon="3.05821">
        <ele>612.6</ele>
        <time>2025-09-28T08:54:34Z</time>
      </trkpt>
      <trkpt lat="45.67144" lon="3.05823">
        <ele>612.8</ele>
        <time>2025-09-28T08:54:35Z</time>
      </trkpt>
      <trkpt lat="45.67147" lon="3.05825">
        <ele>613</ele>
        <time>2025-09-28T08:54:36Z</time>
      </trkpt>
      <trkpt lat="45.67149" lon="3.05827">
        <ele>613.2</ele>
        <time>2025-09-28T08:54:37Z</time>
      </trkpt>
      <trkpt lat="45.67152" lon="3.05829">
        <ele>613.6</ele>
        <time>2025-09-28T08:54:38Z</time>
      </trkpt>
      <trkpt lat="45.67155" lon="3.0583">
        <ele>614</ele>
        <time>2025-09-28T08:54:39Z</time>
      </trkpt>
      <trkpt lat="45.67157" lon="3.05832">
        <ele>614.4</ele>
        <time>2025-09-28T08:54:40Z</time>
      </trkpt>
      <trkpt lat="45.67159" lon="3.05834">
        <ele>614.8</ele>
        <time>2025-09-28T08:54:41Z</time>
      </trkpt>
      <trkpt lat="45.67162" lon="3.05836">
        <ele>615.4</ele>
        <time>2025-09-28T08:54:42Z</time>
      </trkpt>
      <trkpt lat="45.67165" lon="3.05838">
        <ele>615.8</ele>
        <time>2025-09-28T08:54:43Z</time>
      </trkpt>
      <trkpt lat="45.67167" lon="3.05839">
        <ele>616.4</ele>
        <time>2025-09-28T08:54:44Z</time>
      </trkpt>
      <trkpt lat="45.6717" lon="3.0584">
        <ele>617</ele>
        <time>2025-09-28T08:54:45Z</time>
      </trkpt>
      <trkpt lat="45.67173" lon="3.05841">
        <ele>617.6</ele>
        <time>2025-09-28T08:54:46Z</time>
      </trkpt>
      <trkpt lat="45.67176" lon="3.05842">
        <ele>618.2</ele>
        <time>2025-09-28T08:54:47Z</time>
      </trkpt>
      <trkpt lat="45.6718" lon="3.05843">
        <ele>618.6</ele>
        <time>2025-09-28T08:54:48Z</time>
      </trkpt>
      <trkpt lat="45.67183" lon="3.05845">
        <ele>619.2</ele>
        <time>2025-09-28T08:54:49Z</time>
      </trkpt>
      <trkpt lat="45.67187" lon="3.05847">
        <ele>619.8</ele>
        <time>2025-09-28T08:54:50Z</time>
      </trkpt>
      <trkpt lat="45.67191" lon="3.05848">
        <ele>620.2</ele>
        <time>2025-09-28T08:54:51Z</time>
      </trkpt>
      <trkpt lat="45.67194" lon="3.0585">
        <ele>620.6</ele>
        <time>2025-09-28T08:54:52Z</time>
      </trkpt>
      <trkpt lat="45.67197" lon="3.05852">
        <ele>621</ele>
        <time>2025-09-28T08:54:53Z</time>
      </trkpt>
      <trkpt lat="45.672" lon="3.05855">
        <ele>621.4</ele>
        <time>2025-09-28T08:54:54Z</time>
      </trkpt>
      <trkpt lat="45.67203" lon="3.05856">
        <ele>621.6</ele>
        <time>2025-09-28T08:54:55Z</time>
      </trkpt>
      <trkpt lat="45.67205" lon="3.05857">
        <ele>621.8</ele>
        <time>2025-09-28T08:54:56Z</time>
      </trkpt>
      <trkpt lat="45.67207" lon="3.05858">
        <ele>622</ele>
        <time>2025-09-28T08:54:57Z</time>
      </trkpt>
      <trkpt lat="45.67208" lon="3.05859">
        <ele>622</ele>
        <time>2025-09-28T08:54:58Z</time>
      </trkpt>
      <trkpt lat="45.6721" lon="3.0586">
        <ele>622.2</ele>
        <time>2025-09-28T08:54:59Z</time>
      </trkpt>
      <trkpt lat="45.67213" lon="3.05861">
        <ele>622.4</ele>
        <time>2025-09-28T08:55:00Z</time>
      </trkpt>
      <trkpt lat="45.67215" lon="3.05862">
        <ele>622.6</ele>
        <time>2025-09-28T08:55:01Z</time>
      </trkpt>
      <trkpt lat="45.67217" lon="3.05863">
        <ele>622.6</ele>
        <time>2025-09-28T08:55:02Z</time>
      </trkpt>
      <trkpt lat="45.67219" lon="3.05864">
        <ele>622.8</ele>
        <time>2025-09-28T08:55:03Z</time>
      </trkpt>
      <trkpt lat="45.67222" lon="3.05865">
        <ele>622.8</ele>
        <time>2025-09-28T08:55:04Z</time>
      </trkpt>
      <trkpt lat="45.67224" lon="3.05866">
        <ele>623</ele>
        <time>2025-09-28T08:55:05Z</time>
      </trkpt>
      <trkpt lat="45.67227" lon="3.05867">
        <ele>623</ele>
        <time>2025-09-28T08:55:06Z</time>
      </trkpt>
      <trkpt lat="45.67229" lon="3.05868">
        <ele>623.2</ele>
        <time>2025-09-28T08:55:07Z</time>
      </trkpt>
      <trkpt lat="45.6723" lon="3.05867">
        <ele>623.2</ele>
        <time>2025-09-28T08:55:08Z</time>
      </trkpt>
      <trkpt lat="45.67232" lon="3.05867">
        <ele>623.2</ele>
        <time>2025-09-28T08:55:09Z</time>
      </trkpt>
      <trkpt lat="45.67235" lon="3.05868">
        <ele>623.4</ele>
        <time>2025-09-28T08:55:10Z</time>
      </trkpt>
      <trkpt lat="45.67237" lon="3.05868">
        <ele>623.4</ele>
        <time>2025-09-28T08:55:11Z</time>
      </trkpt>
      <trkpt lat="45.6724" lon="3.05869">
        <ele>623.4</ele>
        <time>2025-09-28T08:55:12Z</time>
      </trkpt>
      <trkpt lat="45.67242" lon="3.05869">
        <ele>623.6</ele>
        <time>2025-09-28T08:55:13Z</time>
      </trkpt>
      <trkpt lat="45.67244" lon="3.05869">
        <ele>623.6</ele>
        <time>2025-09-28T08:55:14Z</time>
      </trkpt>
      <trkpt lat="45.67247" lon="3.0587">
        <ele>623.8</ele>
        <time>2025-09-28T08:55:15Z</time>
      </trkpt>
      <trkpt lat="45.67249" lon="3.0587">
        <ele>623.8</ele>
        <time>2025-09-28T08:55:16Z</time>
      </trkpt>
      <trkpt lat="45.67252" lon="3.0587">
        <ele>624</ele>
        <time>2025-09-28T08:55:17Z</time>
      </trkpt>
      <trkpt lat="45.67255" lon="3.0587">
        <ele>624</ele>
        <time>2025-09-28T08:55:18Z</time>
      </trkpt>
      <trkpt lat="45.67258" lon="3.05869">
        <ele>624.2</ele>
        <time>2025-09-28T08:55:19Z</time>
      </trkpt>
      <trkpt lat="45.67261" lon="3.05869">
        <ele>624.4</ele>
        <time>2025-09-28T08:55:20Z</time>
      </trkpt>
      <trkpt lat="45.67263" lon="3.05868">
        <ele>624.4</ele>
        <time>2025-09-28T08:55:21Z</time>
      </trkpt>
      <trkpt lat="45.67265" lon="3.05868">
        <ele>624.6</ele>
        <time>2025-09-28T08:55:22Z</time>
      </trkpt>
      <trkpt lat="45.67268" lon="3.05867">
        <ele>624.8</ele>
        <time>2025-09-28T08:55:23Z</time>
      </trkpt>
      <trkpt lat="45.6727" lon="3.05867">
        <ele>625</ele>
        <time>2025-09-28T08:55:24Z</time>
      </trkpt>
      <trkpt lat="45.67273" lon="3.05867">
        <ele>625.2</ele>
        <time>2025-09-28T08:55:25Z</time>
      </trkpt>
      <trkpt lat="45.67275" lon="3.05867">
        <ele>625.4</ele>
        <time>2025-09-28T08:55:26Z</time>
      </trkpt>
      <trkpt lat="45.67278" lon="3.05866">
        <ele>625.6</ele>
        <time>2025-09-28T08:55:27Z</time>
      </trkpt>
      <trkpt lat="45.6728" lon="3.05865">
        <ele>625.8</ele>
        <time>2025-09-28T08:55:28Z</time>
      </trkpt>
      <trkpt lat="45.67283" lon="3.05864">
        <ele>626</ele>
        <time>2025-09-28T08:55:29Z</time>
      </trkpt>
      <trkpt lat="45.67286" lon="3.05864">
        <ele>626.4</ele>
        <time>2025-09-28T08:55:30Z</time>
      </trkpt>
      <trkpt lat="45.67289" lon="3.05863">
        <ele>626.6</ele>
        <time>2025-09-28T08:55:31Z</time>
      </trkpt>
      <trkpt lat="45.67292" lon="3.05862">
        <ele>626.8</ele>
        <time>2025-09-28T08:55:32Z</time>
      </trkpt>
      <trkpt lat="45.67294" lon="3.05861">
        <ele>627.2</ele>
        <time>2025-09-28T08:55:33Z</time>
      </trkpt>
      <trkpt lat="45.67297" lon="3.05859">
        <ele>627.4</ele>
        <time>2025-09-28T08:55:34Z</time>
      </trkpt>
      <trkpt lat="45.673" lon="3.05858">
        <ele>627.6</ele>
        <time>2025-09-28T08:55:35Z</time>
      </trkpt>
      <trkpt lat="45.67302" lon="3.05857">
        <ele>627.8</ele>
        <time>2025-09-28T08:55:36Z</time>
      </trkpt>
      <trkpt lat="45.67305" lon="3.05856">
        <ele>628</ele>
        <time>2025-09-28T08:55:37Z</time>
      </trkpt>
      <trkpt lat="45.67307" lon="3.05856">
        <ele>628.4</ele>
        <time>2025-09-28T08:55:38Z</time>
      </trkpt>
      <trkpt lat="45.6731" lon="3.05855">
        <ele>628.6</ele>
        <time>2025-09-28T08:55:39Z</time>
      </trkpt>
      <trkpt lat="45.67313" lon="3.05853">
        <ele>628.8</ele>
        <time>2025-09-28T08:55:40Z</time>
      </trkpt>
      <trkpt lat="45.67315" lon="3.05852">
        <ele>629.2</ele>
        <time>2025-09-28T08:55:41Z</time>
      </trkpt>
      <trkpt lat="45.67317" lon="3.05851">
        <ele>629.4</ele>
        <time>2025-09-28T08:55:42Z</time>
      </trkpt>
      <trkpt lat="45.67319" lon="3.0585">
        <ele>629.8</ele>
        <time>2025-09-28T08:55:43Z</time>
      </trkpt>
      <trkpt lat="45.67322" lon="3.0585">
        <ele>630.2</ele>
        <time>2025-09-28T08:55:44Z</time>
      </trkpt>
      <trkpt lat="45.67324" lon="3.05849">
        <ele>630.4</ele>
        <time>2025-09-28T08:55:45Z</time>
      </trkpt>
      <trkpt lat="45.67327" lon="3.05849">
        <ele>630.8</ele>
        <time>2025-09-28T08:55:46Z</time>
      </trkpt>
      <trkpt lat="45.6733" lon="3.05849">
        <ele>631</ele>
        <time>2025-09-28T08:55:47Z</time>
      </trkpt>
      <trkpt lat="45.67332" lon="3.05848">
        <ele>631.4</ele>
        <time>2025-09-28T08:55:48Z</time>
      </trkpt>
      <trkpt lat="45.67335" lon="3.05848">
        <ele>631.8</ele>
        <time>2025-09-28T08:55:49Z</time>
      </trkpt>
      <trkpt lat="45.67337" lon="3.05848">
        <ele>632.2</ele>
        <time>2025-09-28T08:55:50Z</time>
      </trkpt>
      <trkpt lat="45.6734" lon="3.05849">
        <ele>632.6</ele>
        <time>2025-09-28T08:55:51Z</time>
      </trkpt>
      <trkpt lat="45.67342" lon="3.05851">
        <ele>632.8</ele>
        <time>2025-09-28T08:55:52Z</time>
      </trkpt>
      <trkpt lat="45.67344" lon="3.05854">
        <ele>633.2</ele>
        <time>2025-09-28T08:55:53Z</time>
      </trkpt>
      <trkpt lat="45.67346" lon="3.05857">
        <ele>633.4</ele>
        <time>2025-09-28T08:55:54Z</time>
      </trkpt>
      <trkpt lat="45.67347" lon="3.05861">
        <ele>633.8</ele>
        <time>2025-09-28T08:55:55Z</time>
      </trkpt>
      <trkpt lat="45.67347" lon="3.05863">
        <ele>634.2</ele>
        <time>2025-09-28T08:55:56Z</time>
      </trkpt>
      <trkpt lat="45.67347" lon="3.05866">
        <ele>634.4</ele>
        <time>2025-09-28T08:55:57Z</time>
      </trkpt>
      <trkpt lat="45.67347" lon="3.05867">
        <ele>634.8</ele>
        <time>2025-09-28T08:55:58Z</time>
      </trkpt>
      <trkpt lat="45.67347" lon="3.05869">
        <ele>635.2</ele>
        <time>2025-09-28T08:55:59Z</time>
      </trkpt>
      <trkpt lat="45.67347" lon="3.05872">
        <ele>635.6</ele>
        <time>2025-09-28T08:56:00Z</time>
      </trkpt>
      <trkpt lat="45.67348" lon="3.05875">
        <ele>635.8</ele>
        <time>2025-09-28T08:56:01Z</time>
      </trkpt>
      <trkpt lat="45.67348" lon="3.05878">
        <ele>636.2</ele>
        <time>2025-09-28T08:56:02Z</time>
      </trkpt>
      <trkpt lat="45.67349" lon="3.05881">
        <ele>636.4</ele>
        <time>2025-09-28T08:56:03Z</time>
      </trkpt>
      <trkpt lat="45.67349" lon="3.05883">
        <ele>636.6</ele>
        <time>2025-09-28T08:56:04Z</time>
      </trkpt>
      <trkpt lat="45.6735" lon="3.05885">
        <ele>637</ele>
        <time>2025-09-28T08:56:05Z</time>
      </trkpt>
      <trkpt lat="45.6735" lon="3.05888">
        <ele>637.2</ele>
        <time>2025-09-28T08:56:06Z</time>
      </trkpt>
      <trkpt lat="45.6735" lon="3.0589">
        <ele>637.4</ele>
        <time>2025-09-28T08:56:07Z</time>
      </trkpt>
      <trkpt lat="45.67351" lon="3.05893">
        <ele>637.6</ele>
        <time>2025-09-28T08:56:08Z</time>
      </trkpt>
      <trkpt lat="45.67352" lon="3.05896">
        <ele>637.8</ele>
        <time>2025-09-28T08:56:09Z</time>
      </trkpt>
      <trkpt lat="45.67352" lon="3.05899">
        <ele>637.8</ele>
        <time>2025-09-28T08:56:10Z</time>
      </trkpt>
      <trkpt lat="45.67352" lon="3.05901">
        <ele>638</ele>
        <time>2025-09-28T08:56:11Z</time>
      </trkpt>
      <trkpt lat="45.67352" lon="3.05905">
        <ele>638.2</ele>
        <time>2025-09-28T08:56:12Z</time>
      </trkpt>
      <trkpt lat="45.67352" lon="3.05908">
        <ele>638.4</ele>
        <time>2025-09-28T08:56:13Z</time>
      </trkpt>
      <trkpt lat="45.67352" lon="3.05911">
        <ele>638.6</ele>
        <time>2025-09-28T08:56:14Z</time>
      </trkpt>
      <trkpt lat="45.67352" lon="3.05914">
        <ele>638.8</ele>
        <time>2025-09-28T08:56:15Z</time>
      </trkpt>
      <trkpt lat="45.67352" lon="3.05917">
        <ele>639</ele>
        <time>2025-09-28T08:56:16Z</time>
      </trkpt>
      <trkpt lat="45.67353" lon="3.05921">
        <ele>639.2</ele>
        <time>2025-09-28T08:56:17Z</time>
      </trkpt>
      <trkpt lat="45.67354" lon="3.05926">
        <ele>639.4</ele>
        <time>2025-09-28T08:56:18Z</time>
      </trkpt>
      <trkpt lat="45.67354" lon="3.05931">
        <ele>639.8</ele>
        <time>2025-09-28T08:56:19Z</time>
      </trkpt>
      <trkpt lat="45.67354" lon="3.05935">
        <ele>640</ele>
        <time>2025-09-28T08:56:20Z</time>
      </trkpt>
      <trkpt lat="45.67354" lon="3.05939">
        <ele>640.2</ele>
        <time>2025-09-28T08:56:21Z</time>
      </trkpt>
      <trkpt lat="45.67354" lon="3.05943">
        <ele>640.4</ele>
        <time>2025-09-28T08:56:22Z</time>
      </trkpt>
      <trkpt lat="45.67354" lon="3.05947">
        <ele>640.6</ele>
        <time>2025-09-28T08:56:23Z</time>
      </trkpt>
      <trkpt lat="45.67355" lon="3.05951">
        <ele>641</ele>
        <time>2025-09-28T08:56:24Z</time>
      </trkpt>
      <trkpt lat="45.67355" lon="3.05955">
        <ele>641.2</ele>
        <time>2025-09-28T08:56:25Z</time>
      </trkpt>
      <trkpt lat="45.67356" lon="3.05959">
        <ele>641.4</ele>
        <time>2025-09-28T08:56:26Z</time>
      </trkpt>
      <trkpt lat="45.67357" lon="3.05963">
        <ele>641.8</ele>
        <time>2025-09-28T08:56:27Z</time>
      </trkpt>
      <trkpt lat="45.67357" lon="3.05967">
        <ele>642</ele>
        <time>2025-09-28T08:56:28Z</time>
      </trkpt>
      <trkpt lat="45.67358" lon="3.05971">
        <ele>642.4</ele>
        <time>2025-09-28T08:56:29Z</time>
      </trkpt>
      <trkpt lat="45.67358" lon="3.05974">
        <ele>642.8</ele>
        <time>2025-09-28T08:56:30Z</time>
      </trkpt>
      <trkpt lat="45.67359" lon="3.05978">
        <ele>643.2</ele>
        <time>2025-09-28T08:56:31Z</time>
      </trkpt>
      <trkpt lat="45.67361" lon="3.05981">
        <ele>643.4</ele>
        <time>2025-09-28T08:56:32Z</time>
      </trkpt>
      <trkpt lat="45.67363" lon="3.05984">
        <ele>643.6</ele>
        <time>2025-09-28T08:56:33Z</time>
      </trkpt>
      <trkpt lat="45.67365" lon="3.05986">
        <ele>643.8</ele>
        <time>2025-09-28T08:56:34Z</time>
      </trkpt>
      <trkpt lat="45.67366" lon="3.05989">
        <ele>644.2</ele>
        <time>2025-09-28T08:56:35Z</time>
      </trkpt>
      <trkpt lat="45.67368" lon="3.05991">
        <ele>644.4</ele>
        <time>2025-09-28T08:56:36Z</time>
      </trkpt>
      <trkpt lat="45.6737" lon="3.05994">
        <ele>644.4</ele>
        <time>2025-09-28T08:56:37Z</time>
      </trkpt>
      <trkpt lat="45.67372" lon="3.05995">
        <ele>644.6</ele>
        <time>2025-09-28T08:56:38Z</time>
      </trkpt>
      <trkpt lat="45.67374" lon="3.05996">
        <ele>644.8</ele>
        <time>2025-09-28T08:56:39Z</time>
      </trkpt>
      <trkpt lat="45.67375" lon="3.05998">
        <ele>645</ele>
        <time>2025-09-28T08:56:40Z</time>
      </trkpt>
      <trkpt lat="45.67378" lon="3.06">
        <ele>645</ele>
        <time>2025-09-28T08:56:41Z</time>
      </trkpt>
      <trkpt lat="45.6738" lon="3.06004">
        <ele>645.2</ele>
        <time>2025-09-28T08:56:42Z</time>
      </trkpt>
      <trkpt lat="45.67383" lon="3.06006">
        <ele>645.4</ele>
        <time>2025-09-28T08:56:43Z</time>
      </trkpt>
      <trkpt lat="45.67385" lon="3.0601">
        <ele>645.4</ele>
        <time>2025-09-28T08:56:44Z</time>
      </trkpt>
      <trkpt lat="45.67388" lon="3.06013">
        <ele>645.6</ele>
        <time>2025-09-28T08:56:45Z</time>
      </trkpt>
      <trkpt lat="45.67389" lon="3.06015">
        <ele>645.8</ele>
        <time>2025-09-28T08:56:46Z</time>
      </trkpt>
      <trkpt lat="45.67391" lon="3.06017">
        <ele>646</ele>
        <time>2025-09-28T08:56:47Z</time>
      </trkpt>
      <trkpt lat="45.67394" lon="3.06019">
        <ele>646</ele>
        <time>2025-09-28T08:56:48Z</time>
      </trkpt>
      <trkpt lat="45.67396" lon="3.06022">
        <ele>646.2</ele>
        <time>2025-09-28T08:56:49Z</time>
      </trkpt>
      <trkpt lat="45.67398" lon="3.06025">
        <ele>646.4</ele>
        <time>2025-09-28T08:56:50Z</time>
      </trkpt>
      <trkpt lat="45.674" lon="3.06029">
        <ele>646.6</ele>
        <time>2025-09-28T08:56:51Z</time>
      </trkpt>
      <trkpt lat="45.67403" lon="3.06031">
        <ele>646.8</ele>
        <time>2025-09-28T08:56:52Z</time>
      </trkpt>
      <trkpt lat="45.67405" lon="3.06034">
        <ele>647</ele>
        <time>2025-09-28T08:56:53Z</time>
      </trkpt>
      <trkpt lat="45.67408" lon="3.06036">
        <ele>647.2</ele>
        <time>2025-09-28T08:56:54Z</time>
      </trkpt>
      <trkpt lat="45.67411" lon="3.06039">
        <ele>647.4</ele>
        <time>2025-09-28T08:56:55Z</time>
      </trkpt>
      <trkpt lat="45.67414" lon="3.06042">
        <ele>647.6</ele>
        <time>2025-09-28T08:56:56Z</time>
      </trkpt>
      <trkpt lat="45.67417" lon="3.06044">
        <ele>647.6</ele>
        <time>2025-09-28T08:56:57Z</time>
      </trkpt>
      <trkpt lat="45.6742" lon="3.06046">
        <ele>647.8</ele>
        <time>2025-09-28T08:56:58Z</time>
      </trkpt>
      <trkpt lat="45.67422" lon="3.06049">
        <ele>648</ele>
        <time>2025-09-28T08:56:59Z</time>
      </trkpt>
      <trkpt lat="45.67425" lon="3.06052">
        <ele>648.2</ele>
        <time>2025-09-28T08:57:00Z</time>
      </trkpt>
      <trkpt lat="45.67428" lon="3.06054">
        <ele>648.2</ele>
        <time>2025-09-28T08:57:01Z</time>
      </trkpt>
      <trkpt lat="45.6743" lon="3.06054">
        <ele>648.4</ele>
        <time>2025-09-28T08:57:02Z</time>
      </trkpt>
      <trkpt lat="45.67434" lon="3.06055">
        <ele>648.6</ele>
        <time>2025-09-28T08:57:03Z</time>
      </trkpt>
      <trkpt lat="45.67437" lon="3.06056">
        <ele>648.6</ele>
        <time>2025-09-28T08:57:04Z</time>
      </trkpt>
      <trkpt lat="45.6744" lon="3.06057">
        <ele>648.8</ele>
        <time>2025-09-28T08:57:05Z</time>
      </trkpt>
      <trkpt lat="45.67443" lon="3.06059">
        <ele>649</ele>
        <time>2025-09-28T08:57:06Z</time>
      </trkpt>
      <trkpt lat="45.67446" lon="3.06061">
        <ele>649</ele>
        <time>2025-09-28T08:57:07Z</time>
      </trkpt>
      <trkpt lat="45.67449" lon="3.06063">
        <ele>649.2</ele>
        <time>2025-09-28T08:57:08Z</time>
      </trkpt>
      <trkpt lat="45.67451" lon="3.06065">
        <ele>649.4</ele>
        <time>2025-09-28T08:57:09Z</time>
      </trkpt>
      <trkpt lat="45.67453" lon="3.06067">
        <ele>649.6</ele>
        <time>2025-09-28T08:57:10Z</time>
      </trkpt>
      <trkpt lat="45.67456" lon="3.06069">
        <ele>649.8</ele>
        <time>2025-09-28T08:57:11Z</time>
      </trkpt>
      <trkpt lat="45.67458" lon="3.06071">
        <ele>650</ele>
        <time>2025-09-28T08:57:12Z</time>
      </trkpt>
      <trkpt lat="45.6746" lon="3.06073">
        <ele>650.2</ele>
        <time>2025-09-28T08:57:13Z</time>
      </trkpt>
      <trkpt lat="45.67462" lon="3.06076">
        <ele>650.4</ele>
        <time>2025-09-28T08:57:14Z</time>
      </trkpt>
      <trkpt lat="45.67464" lon="3.06079">
        <ele>650.8</ele>
        <time>2025-09-28T08:57:15Z</time>
      </trkpt>
      <trkpt lat="45.67466" lon="3.06082">
        <ele>651</ele>
        <time>2025-09-28T08:57:16Z</time>
      </trkpt>
      <trkpt lat="45.67468" lon="3.06085">
        <ele>651.2</ele>
        <time>2025-09-28T08:57:17Z</time>
      </trkpt>
      <trkpt lat="45.67469" lon="3.06088">
        <ele>651.4</ele>
        <time>2025-09-28T08:57:18Z</time>
      </trkpt>
      <trkpt lat="45.67471" lon="3.06091">
        <ele>651.6</ele>
        <time>2025-09-28T08:57:19Z</time>
      </trkpt>
      <trkpt lat="45.67472" lon="3.06093">
        <ele>651.8</ele>
        <time>2025-09-28T08:57:20Z</time>
      </trkpt>
      <trkpt lat="45.67474" lon="3.06096">
        <ele>652</ele>
        <time>2025-09-28T08:57:21Z</time>
      </trkpt>
      <trkpt lat="45.67476" lon="3.06099">
        <ele>652.2</ele>
        <time>2025-09-28T08:57:22Z</time>
      </trkpt>
      <trkpt lat="45.67477" lon="3.06103">
        <ele>652.2</ele>
        <time>2025-09-28T08:57:23Z</time>
      </trkpt>
      <trkpt lat="45.67479" lon="3.06107">
        <ele>652.4</ele>
        <time>2025-09-28T08:57:24Z</time>
      </trkpt>
      <trkpt lat="45.67481" lon="3.06111">
        <ele>652.6</ele>
        <time>2025-09-28T08:57:25Z</time>
      </trkpt>
      <trkpt lat="45.67483" lon="3.06115">
        <ele>652.8</ele>
        <time>2025-09-28T08:57:26Z</time>
      </trkpt>
      <trkpt lat="45.67484" lon="3.06119">
        <ele>653</ele>
        <time>2025-09-28T08:57:27Z</time>
      </trkpt>
      <trkpt lat="45.67486" lon="3.06124">
        <ele>653</ele>
        <time>2025-09-28T08:57:28Z</time>
      </trkpt>
      <trkpt lat="45.67487" lon="3.0613">
        <ele>653.2</ele>
        <time>2025-09-28T08:57:29Z</time>
      </trkpt>
      <trkpt lat="45.67489" lon="3.06135">
        <ele>653.4</ele>
        <time>2025-09-28T08:57:30Z</time>
      </trkpt>
      <trkpt lat="45.67491" lon="3.0614">
        <ele>653.4</ele>
        <time>2025-09-28T08:57:31Z</time>
      </trkpt>
      <trkpt lat="45.67492" lon="3.06144">
        <ele>653.6</ele>
        <time>2025-09-28T08:57:32Z</time>
      </trkpt>
      <trkpt lat="45.67494" lon="3.06149">
        <ele>653.6</ele>
        <time>2025-09-28T08:57:33Z</time>
      </trkpt>
      <trkpt lat="45.67495" lon="3.06154">
        <ele>653.8</ele>
        <time>2025-09-28T08:57:34Z</time>
      </trkpt>
      <trkpt lat="45.67496" lon="3.06159">
        <ele>653.8</ele>
        <time>2025-09-28T08:57:35Z</time>
      </trkpt>
      <trkpt lat="45.67498" lon="3.06164">
        <ele>654</ele>
        <time>2025-09-28T08:57:36Z</time>
      </trkpt>
      <trkpt lat="45.675" lon="3.06169">
        <ele>654.2</ele>
        <time>2025-09-28T08:57:37Z</time>
      </trkpt>
      <trkpt lat="45.67501" lon="3.06173">
        <ele>654.2</ele>
        <time>2025-09-28T08:57:38Z</time>
      </trkpt>
      <trkpt lat="45.67502" lon="3.06177">
        <ele>654.4</ele>
        <time>2025-09-28T08:57:39Z</time>
      </trkpt>
      <trkpt lat="45.67503" lon="3.06182">
        <ele>654.4</ele>
        <time>2025-09-28T08:57:40Z</time>
      </trkpt>
      <trkpt lat="45.67505" lon="3.06186">
        <ele>654.4</ele>
        <time>2025-09-28T08:57:41Z</time>
      </trkpt>
      <trkpt lat="45.67506" lon="3.06191">
        <ele>654.4</ele>
        <time>2025-09-28T08:57:42Z</time>
      </trkpt>
      <trkpt lat="45.67507" lon="3.06195">
        <ele>654.4</ele>
        <time>2025-09-28T08:57:43Z</time>
      </trkpt>
      <trkpt lat="45.67509" lon="3.062">
        <ele>654.4</ele>
        <time>2025-09-28T08:57:44Z</time>
      </trkpt>
      <trkpt lat="45.67511" lon="3.06205">
        <ele>654.4</ele>
        <time>2025-09-28T08:57:45Z</time>
      </trkpt>
      <trkpt lat="45.67512" lon="3.06211">
        <ele>654.4</ele>
        <time>2025-09-28T08:57:46Z</time>
      </trkpt>
      <trkpt lat="45.67514" lon="3.06216">
        <ele>654.4</ele>
        <time>2025-09-28T08:57:47Z</time>
      </trkpt>
      <trkpt lat="45.67516" lon="3.06221">
        <ele>654.2</ele>
        <time>2025-09-28T08:57:48Z</time>
      </trkpt>
      <trkpt lat="45.67518" lon="3.06227">
        <ele>654.2</ele>
        <time>2025-09-28T08:57:49Z</time>
      </trkpt>
      <trkpt lat="45.6752" lon="3.06233">
        <ele>654.2</ele>
        <time>2025-09-28T08:57:50Z</time>
      </trkpt>
      <trkpt lat="45.67521" lon="3.06238">
        <ele>654.2</ele>
        <time>2025-09-28T08:57:51Z</time>
      </trkpt>
      <trkpt lat="45.67523" lon="3.06244">
        <ele>654.2</ele>
        <time>2025-09-28T08:57:52Z</time>
      </trkpt>
      <trkpt lat="45.67524" lon="3.0625">
        <ele>654.2</ele>
        <time>2025-09-28T08:57:53Z</time>
      </trkpt>
      <trkpt lat="45.67526" lon="3.06256">
        <ele>654.2</ele>
        <time>2025-09-28T08:57:54Z</time>
      </trkpt>
      <trkpt lat="45.67528" lon="3.06263">
        <ele>654.2</ele>
        <time>2025-09-28T08:57:55Z</time>
      </trkpt>
      <trkpt lat="45.67529" lon="3.0627">
        <ele>654.4</ele>
        <time>2025-09-28T08:57:56Z</time>
      </trkpt>
      <trkpt lat="45.6753" lon="3.06277">
        <ele>654.4</ele>
        <time>2025-09-28T08:57:57Z</time>
      </trkpt>
      <trkpt lat="45.67531" lon="3.06283">
        <ele>654.6</ele>
        <time>2025-09-28T08:57:58Z</time>
      </trkpt>
      <trkpt lat="45.67532" lon="3.06289">
        <ele>654.6</ele>
        <time>2025-09-28T08:57:59Z</time>
      </trkpt>
      <trkpt lat="45.67532" lon="3.06295">
        <ele>654.8</ele>
        <time>2025-09-28T08:58:00Z</time>
      </trkpt>
      <trkpt lat="45.67533" lon="3.06302">
        <ele>655</ele>
        <time>2025-09-28T08:58:01Z</time>
      </trkpt>
      <trkpt lat="45.67533" lon="3.06309">
        <ele>655.2</ele>
        <time>2025-09-28T08:58:02Z</time>
      </trkpt>
      <trkpt lat="45.67533" lon="3.06316">
        <ele>655.2</ele>
        <time>2025-09-28T08:58:03Z</time>
      </trkpt>
      <trkpt lat="45.67533" lon="3.06322">
        <ele>655.4</ele>
        <time>2025-09-28T08:58:04Z</time>
      </trkpt>
      <trkpt lat="45.67533" lon="3.06329">
        <ele>655.6</ele>
        <time>2025-09-28T08:58:05Z</time>
      </trkpt>
      <trkpt lat="45.67534" lon="3.06335">
        <ele>655.8</ele>
        <time>2025-09-28T08:58:06Z</time>
      </trkpt>
      <trkpt lat="45.67535" lon="3.06341">
        <ele>656</ele>
        <time>2025-09-28T08:58:07Z</time>
      </trkpt>
      <trkpt lat="45.67536" lon="3.06346">
        <ele>656.2</ele>
        <time>2025-09-28T08:58:08Z</time>
      </trkpt>
      <trkpt lat="45.67537" lon="3.06352">
        <ele>656.4</ele>
        <time>2025-09-28T08:58:09Z</time>
      </trkpt>
      <trkpt lat="45.67537" lon="3.06359">
        <ele>656.6</ele>
        <time>2025-09-28T08:58:10Z</time>
      </trkpt>
      <trkpt lat="45.67537" lon="3.06364">
        <ele>656.8</ele>
        <time>2025-09-28T08:58:11Z</time>
      </trkpt>
      <trkpt lat="45.67537" lon="3.0637">
        <ele>657</ele>
        <time>2025-09-28T08:58:12Z</time>
      </trkpt>
      <trkpt lat="45.67538" lon="3.06375">
        <ele>657.2</ele>
        <time>2025-09-28T08:58:13Z</time>
      </trkpt>
      <trkpt lat="45.67539" lon="3.0638">
        <ele>657.6</ele>
        <time>2025-09-28T08:58:14Z</time>
      </trkpt>
      <trkpt lat="45.67539" lon="3.06384">
        <ele>657.8</ele>
        <time>2025-09-28T08:58:15Z</time>
      </trkpt>
      <trkpt lat="45.67539" lon="3.06388">
        <ele>658</ele>
        <time>2025-09-28T08:58:16Z</time>
      </trkpt>
      <trkpt lat="45.6754" lon="3.06392">
        <ele>658.4</ele>
        <time>2025-09-28T08:58:17Z</time>
      </trkpt>
      <trkpt lat="45.67541" lon="3.06397">
        <ele>658.6</ele>
        <time>2025-09-28T08:58:18Z</time>
      </trkpt>
      <trkpt lat="45.67542" lon="3.06401">
        <ele>658.8</ele>
        <time>2025-09-28T08:58:19Z</time>
      </trkpt>
      <trkpt lat="45.67544" lon="3.06406">
        <ele>659</ele>
        <time>2025-09-28T08:58:20Z</time>
      </trkpt>
      <trkpt lat="45.67545" lon="3.0641">
        <ele>659.4</ele>
        <time>2025-09-28T08:58:21Z</time>
      </trkpt>
      <trkpt lat="45.67545" lon="3.06414">
        <ele>659.6</ele>
        <time>2025-09-28T08:58:22Z</time>
      </trkpt>
      <trkpt lat="45.67546" lon="3.06418">
        <ele>659.8</ele>
        <time>2025-09-28T08:58:23Z</time>
      </trkpt>
      <trkpt lat="45.67547" lon="3.06422">
        <ele>660.2</ele>
        <time>2025-09-28T08:58:24Z</time>
      </trkpt>
      <trkpt lat="45.67548" lon="3.06426">
        <ele>660.4</ele>
        <time>2025-09-28T08:58:25Z</time>
      </trkpt>
      <trkpt lat="45.67549" lon="3.06429">
        <ele>660.8</ele>
        <time>2025-09-28T08:58:26Z</time>
      </trkpt>
      <trkpt lat="45.6755" lon="3.06433">
        <ele>661</ele>
        <time>2025-09-28T08:58:27Z</time>
      </trkpt>
      <trkpt lat="45.67551" lon="3.06436">
        <ele>661.4</ele>
        <time>2025-09-28T08:58:28Z</time>
      </trkpt>
      <trkpt lat="45.67552" lon="3.06439">
        <ele>661.6</ele>
        <time>2025-09-28T08:58:29Z</time>
      </trkpt>
      <trkpt lat="45.67553" lon="3.06442">
        <ele>662</ele>
        <time>2025-09-28T08:58:30Z</time>
      </trkpt>
      <trkpt lat="45.67554" lon="3.06445">
        <ele>662.2</ele>
        <time>2025-09-28T08:58:31Z</time>
      </trkpt>
      <trkpt lat="45.67556" lon="3.06449">
        <ele>662.4</ele>
        <time>2025-09-28T08:58:32Z</time>
      </trkpt>
      <trkpt lat="45.67557" lon="3.06452">
        <ele>662.8</ele>
        <time>2025-09-28T08:58:33Z</time>
      </trkpt>
      <trkpt lat="45.67558" lon="3.06455">
        <ele>663</ele>
        <time>2025-09-28T08:58:34Z</time>
      </trkpt>
      <trkpt lat="45.67559" lon="3.06459">
        <ele>663.4</ele>
        <time>2025-09-28T08:58:35Z</time>
      </trkpt>
      <trkpt lat="45.67561" lon="3.06462">
        <ele>663.6</ele>
        <time>2025-09-28T08:58:36Z</time>
      </trkpt>
      <trkpt lat="45.67562" lon="3.06465">
        <ele>663.8</ele>
        <time>2025-09-28T08:58:37Z</time>
      </trkpt>
      <trkpt lat="45.67563" lon="3.06469">
        <ele>664.2</ele>
        <time>2025-09-28T08:58:38Z</time>
      </trkpt>
      <trkpt lat="45.67564" lon="3.06472">
        <ele>664.4</ele>
        <time>2025-09-28T08:58:39Z</time>
      </trkpt>
      <trkpt lat="45.67565" lon="3.06475">
        <ele>664.6</ele>
        <time>2025-09-28T08:58:40Z</time>
      </trkpt>
      <trkpt lat="45.67566" lon="3.06478">
        <ele>664.8</ele>
        <time>2025-09-28T08:58:41Z</time>
      </trkpt>
      <trkpt lat="45.67567" lon="3.06482">
        <ele>665.2</ele>
        <time>2025-09-28T08:58:42Z</time>
      </trkpt>
      <trkpt lat="45.67568" lon="3.06485">
        <ele>665.4</ele>
        <time>2025-09-28T08:58:43Z</time>
      </trkpt>
      <trkpt lat="45.67569" lon="3.06488">
        <ele>665.6</ele>
        <time>2025-09-28T08:58:44Z</time>
      </trkpt>
      <trkpt lat="45.6757" lon="3.06492">
        <ele>665.8</ele>
        <time>2025-09-28T08:58:45Z</time>
      </trkpt>
      <trkpt lat="45.67571" lon="3.06495">
        <ele>666</ele>
        <time>2025-09-28T08:58:46Z</time>
      </trkpt>
      <trkpt lat="45.67572" lon="3.06499">
        <ele>666.2</ele>
        <time>2025-09-28T08:58:47Z</time>
      </trkpt>
      <trkpt lat="45.67573" lon="3.06502">
        <ele>666.6</ele>
        <time>2025-09-28T08:58:48Z</time>
      </trkpt>
      <trkpt lat="45.67574" lon="3.06505">
        <ele>666.8</ele>
        <time>2025-09-28T08:58:49Z</time>
      </trkpt>
      <trkpt lat="45.67575" lon="3.06509">
        <ele>667</ele>
        <time>2025-09-28T08:58:50Z</time>
      </trkpt>
      <trkpt lat="45.67576" lon="3.06512">
        <ele>667.4</ele>
        <time>2025-09-28T08:58:51Z</time>
      </trkpt>
      <trkpt lat="45.67576" lon="3.06514">
        <ele>667.6</ele>
        <time>2025-09-28T08:58:52Z</time>
      </trkpt>
      <trkpt lat="45.67577" lon="3.06517">
        <ele>667.8</ele>
        <time>2025-09-28T08:58:53Z</time>
      </trkpt>
      <trkpt lat="45.67578" lon="3.0652">
        <ele>668</ele>
        <time>2025-09-28T08:58:54Z</time>
      </trkpt>
      <trkpt lat="45.67578" lon="3.06523">
        <ele>668.4</ele>
        <time>2025-09-28T08:58:55Z</time>
      </trkpt>
      <trkpt lat="45.67579" lon="3.06527">
        <ele>668.6</ele>
        <time>2025-09-28T08:58:56Z</time>
      </trkpt>
      <trkpt lat="45.6758" lon="3.0653">
        <ele>668.8</ele>
        <time>2025-09-28T08:58:57Z</time>
      </trkpt>
      <trkpt lat="45.6758" lon="3.06533">
        <ele>669</ele>
        <time>2025-09-28T08:58:58Z</time>
      </trkpt>
      <trkpt lat="45.67581" lon="3.06536">
        <ele>669.4</ele>
        <time>2025-09-28T08:58:59Z</time>
      </trkpt>
      <trkpt lat="45.67582" lon="3.06539">
        <ele>669.6</ele>
        <time>2025-09-28T08:59:00Z</time>
      </trkpt>
      <trkpt lat="45.67582" lon="3.06542">
        <ele>669.8</ele>
        <time>2025-09-28T08:59:01Z</time>
      </trkpt>
      <trkpt lat="45.67583" lon="3.06546">
        <ele>670</ele>
        <time>2025-09-28T08:59:02Z</time>
      </trkpt>
      <trkpt lat="45.67584" lon="3.0655">
        <ele>670.2</ele>
        <time>2025-09-28T08:59:03Z</time>
      </trkpt>
      <trkpt lat="45.67584" lon="3.06554">
        <ele>670.4</ele>
        <time>2025-09-28T08:59:04Z</time>
      </trkpt>
      <trkpt lat="45.67585" lon="3.06558">
        <ele>670.6</ele>
        <time>2025-09-28T08:59:05Z</time>
      </trkpt>
      <trkpt lat="45.67585" lon="3.06562">
        <ele>670.8</ele>
        <time>2025-09-28T08:59:06Z</time>
      </trkpt>
      <trkpt lat="45.67586" lon="3.06566">
        <ele>671</ele>
        <time>2025-09-28T08:59:07Z</time>
      </trkpt>
      <trkpt lat="45.67586" lon="3.0657">
        <ele>671.2</ele>
        <time>2025-09-28T08:59:08Z</time>
      </trkpt>
      <trkpt lat="45.67586" lon="3.06574">
        <ele>671.4</ele>
        <time>2025-09-28T08:59:09Z</time>
      </trkpt>
      <trkpt lat="45.67586" lon="3.06578">
        <ele>671.6</ele>
        <time>2025-09-28T08:59:10Z</time>
      </trkpt>
      <trkpt lat="45.67587" lon="3.06581">
        <ele>671.8</ele>
        <time>2025-09-28T08:59:11Z</time>
      </trkpt>
      <trkpt lat="45.67587" lon="3.06585">
        <ele>672.2</ele>
        <time>2025-09-28T08:59:12Z</time>
      </trkpt>
      <trkpt lat="45.67588" lon="3.06589">
        <ele>672.4</ele>
        <time>2025-09-28T08:59:13Z</time>
      </trkpt>
      <trkpt lat="45.67589" lon="3.06592">
        <ele>672.6</ele>
        <time>2025-09-28T08:59:14Z</time>
      </trkpt>
      <trkpt lat="45.67589" lon="3.06596">
        <ele>672.8</ele>
        <time>2025-09-28T08:59:15Z</time>
      </trkpt>
      <trkpt lat="45.6759" lon="3.066">
        <ele>673</ele>
        <time>2025-09-28T08:59:16Z</time>
      </trkpt>
      <trkpt lat="45.6759" lon="3.06604">
        <ele>673.2</ele>
        <time>2025-09-28T08:59:17Z</time>
      </trkpt>
      <trkpt lat="45.6759" lon="3.06608">
        <ele>673.4</ele>
        <time>2025-09-28T08:59:18Z</time>
      </trkpt>
      <trkpt lat="45.6759" lon="3.06612">
        <ele>673.6</ele>
        <time>2025-09-28T08:59:19Z</time>
      </trkpt>
      <trkpt lat="45.6759" lon="3.06616">
        <ele>673.8</ele>
        <time>2025-09-28T08:59:20Z</time>
      </trkpt>
      <trkpt lat="45.67591" lon="3.06619">
        <ele>674</ele>
        <time>2025-09-28T08:59:21Z</time>
      </trkpt>
      <trkpt lat="45.67591" lon="3.06623">
        <ele>674.2</ele>
        <time>2025-09-28T08:59:22Z</time>
      </trkpt>
      <trkpt lat="45.67591" lon="3.06626">
        <ele>674.4</ele>
        <time>2025-09-28T08:59:23Z</time>
      </trkpt>
      <trkpt lat="45.67591" lon="3.0663">
        <ele>674.6</ele>
        <time>2025-09-28T08:59:24Z</time>
      </trkpt>
      <trkpt lat="45.6759" lon="3.06634">
        <ele>674.8</ele>
        <time>2025-09-28T08:59:25Z</time>
      </trkpt>
      <trkpt lat="45.67591" lon="3.06638">
        <ele>675</ele>
        <time>2025-09-28T08:59:26Z</time>
      </trkpt>
      <trkpt lat="45.67591" lon="3.06642">
        <ele>675</ele>
        <time>2025-09-28T08:59:27Z</time>
      </trkpt>
      <trkpt lat="45.67592" lon="3.06646">
        <ele>675.2</ele>
        <time>2025-09-28T08:59:28Z</time>
      </trkpt>
      <trkpt lat="45.67593" lon="3.0665">
        <ele>675.4</ele>
        <time>2025-09-28T08:59:29Z</time>
      </trkpt>
      <trkpt lat="45.67593" lon="3.06654">
        <ele>675.6</ele>
        <time>2025-09-28T08:59:30Z</time>
      </trkpt>
      <trkpt lat="45.67594" lon="3.06658">
        <ele>675.8</ele>
        <time>2025-09-28T08:59:31Z</time>
      </trkpt>
      <trkpt lat="45.67594" lon="3.06661">
        <ele>676</ele>
        <time>2025-09-28T08:59:32Z</time>
      </trkpt>
      <trkpt lat="45.67594" lon="3.06665">
        <ele>676.2</ele>
        <time>2025-09-28T08:59:33Z</time>
      </trkpt>
      <trkpt lat="45.67595" lon="3.06669">
        <ele>676.4</ele>
        <time>2025-09-28T08:59:34Z</time>
      </trkpt>
      <trkpt lat="45.67595" lon="3.06672">
        <ele>676.6</ele>
        <time>2025-09-28T08:59:35Z</time>
      </trkpt>
      <trkpt lat="45.67596" lon="3.06676">
        <ele>676.8</ele>
        <time>2025-09-28T08:59:36Z</time>
      </trkpt>
      <trkpt lat="45.67596" lon="3.0668">
        <ele>677</ele>
        <time>2025-09-28T08:59:37Z</time>
      </trkpt>
      <trkpt lat="45.67597" lon="3.06683">
        <ele>677.2</ele>
        <time>2025-09-28T08:59:38Z</time>
      </trkpt>
      <trkpt lat="45.67597" lon="3.06687">
        <ele>677.4</ele>
        <time>2025-09-28T08:59:39Z</time>
      </trkpt>
      <trkpt lat="45.67598" lon="3.06691">
        <ele>677.6</ele>
        <time>2025-09-28T08:59:40Z</time>
      </trkpt>
      <trkpt lat="45.67598" lon="3.06694">
        <ele>677.8</ele>
        <time>2025-09-28T08:59:41Z</time>
      </trkpt>
      <trkpt lat="45.67599" lon="3.06698">
        <ele>678</ele>
        <time>2025-09-28T08:59:42Z</time>
      </trkpt>
      <trkpt lat="45.67599" lon="3.06702">
        <ele>678.2</ele>
        <time>2025-09-28T08:59:43Z</time>
      </trkpt>
      <trkpt lat="45.67599" lon="3.06706">
        <ele>678.4</ele>
        <time>2025-09-28T08:59:44Z</time>
      </trkpt>
      <trkpt lat="45.676" lon="3.0671">
        <ele>678.6</ele>
        <time>2025-09-28T08:59:45Z</time>
      </trkpt>
      <trkpt lat="45.676" lon="3.06714">
        <ele>678.8</ele>
        <time>2025-09-28T08:59:46Z</time>
      </trkpt>
      <trkpt lat="45.67601" lon="3.06717">
        <ele>679</ele>
        <time>2025-09-28T08:59:47Z</time>
      </trkpt>
      <trkpt lat="45.67601" lon="3.06721">
        <ele>679</ele>
        <time>2025-09-28T08:59:48Z</time>
      </trkpt>
      <trkpt lat="45.67602" lon="3.06725">
        <ele>679.2</ele>
        <time>2025-09-28T08:59:49Z</time>
      </trkpt>
      <trkpt lat="45.67602" lon="3.06729">
        <ele>679.4</ele>
        <time>2025-09-28T08:59:50Z</time>
      </trkpt>
      <trkpt lat="45.67603" lon="3.06732">
        <ele>679.8</ele>
        <time>2025-09-28T08:59:51Z</time>
      </trkpt>
      <trkpt lat="45.67603" lon="3.06736">
        <ele>680</ele>
        <time>2025-09-28T08:59:52Z</time>
      </trkpt>
      <trkpt lat="45.67604" lon="3.0674">
        <ele>680.2</ele>
        <time>2025-09-28T08:59:53Z</time>
      </trkpt>
      <trkpt lat="45.67604" lon="3.06744">
        <ele>680.4</ele>
        <time>2025-09-28T08:59:54Z</time>
      </trkpt>
      <trkpt lat="45.67605" lon="3.06747">
        <ele>680.6</ele>
        <time>2025-09-28T08:59:55Z</time>
      </trkpt>
      <trkpt lat="45.67605" lon="3.06751">
        <ele>680.8</ele>
        <time>2025-09-28T08:59:56Z</time>
      </trkpt>
      <trkpt lat="45.67605" lon="3.06755">
        <ele>681.2</ele>
        <time>2025-09-28T08:59:57Z</time>
      </trkpt>
      <trkpt lat="45.67606" lon="3.06759">
        <ele>681.4</ele>
        <time>2025-09-28T08:59:58Z</time>
      </trkpt>
      <trkpt lat="45.67606" lon="3.06763">
        <ele>681.6</ele>
        <time>2025-09-28T08:59:59Z</time>
      </trkpt>
      <trkpt lat="45.67607" lon="3.06767">
        <ele>681.8</ele>
        <time>2025-09-28T09:00:00Z</time>
      </trkpt>
      <trkpt lat="45.67608" lon="3.0677">
        <ele>682.2</ele>
        <time>2025-09-28T09:00:01Z</time>
      </trkpt>
      <trkpt lat="45.67608" lon="3.06774">
        <ele>682.4</ele>
        <time>2025-09-28T09:00:02Z</time>
      </trkpt>
      <trkpt lat="45.67609" lon="3.06778">
        <ele>682.8</ele>
        <time>2025-09-28T09:00:03Z</time>
      </trkpt>
      <trkpt lat="45.67609" lon="3.06782">
        <ele>683</ele>
        <time>2025-09-28T09:00:04Z</time>
      </trkpt>
      <trkpt lat="45.6761" lon="3.06786">
        <ele>683.2</ele>
        <time>2025-09-28T09:00:05Z</time>
      </trkpt>
      <trkpt lat="45.6761" lon="3.0679">
        <ele>683.6</ele>
        <time>2025-09-28T09:00:06Z</time>
      </trkpt>
      <trkpt lat="45.67611" lon="3.06794">
        <ele>683.8</ele>
        <time>2025-09-28T09:00:07Z</time>
      </trkpt>
      <trkpt lat="45.67611" lon="3.06798">
        <ele>684</ele>
        <time>2025-09-28T09:00:08Z</time>
      </trkpt>
      <trkpt lat="45.67611" lon="3.06803">
        <ele>684.2</ele>
        <time>2025-09-28T09:00:09Z</time>
      </trkpt>
      <trkpt lat="45.67611" lon="3.06807">
        <ele>684.6</ele>
        <time>2025-09-28T09:00:10Z</time>
      </trkpt>
      <trkpt lat="45.67612" lon="3.06811">
        <ele>684.6</ele>
        <time>2025-09-28T09:00:11Z</time>
      </trkpt>
      <trkpt lat="45.67612" lon="3.06816">
        <ele>684.8</ele>
        <time>2025-09-28T09:00:12Z</time>
      </trkpt>
      <trkpt lat="45.67612" lon="3.06821">
        <ele>685</ele>
        <time>2025-09-28T09:00:13Z</time>
      </trkpt>
      <trkpt lat="45.67612" lon="3.06826">
        <ele>685.2</ele>
        <time>2025-09-28T09:00:14Z</time>
      </trkpt>
      <trkpt lat="45.67612" lon="3.0683">
        <ele>685.4</ele>
        <time>2025-09-28T09:00:15Z</time>
      </trkpt>
      <trkpt lat="45.67612" lon="3.06835">
        <ele>685.4</ele>
        <time>2025-09-28T09:00:16Z</time>
      </trkpt>
      <trkpt lat="45.67612" lon="3.06839">
        <ele>685.6</ele>
        <time>2025-09-28T09:00:17Z</time>
      </trkpt>
      <trkpt lat="45.67612" lon="3.06844">
        <ele>685.8</ele>
        <time>2025-09-28T09:00:18Z</time>
      </trkpt>
      <trkpt lat="45.67613" lon="3.06849">
        <ele>685.8</ele>
        <time>2025-09-28T09:00:19Z</time>
      </trkpt>
      <trkpt lat="45.67613" lon="3.06854">
        <ele>686</ele>
        <time>2025-09-28T09:00:20Z</time>
      </trkpt>
      <trkpt lat="45.67613" lon="3.06859">
        <ele>686</ele>
        <time>2025-09-28T09:00:21Z</time>
      </trkpt>
      <trkpt lat="45.67614" lon="3.06864">
        <ele>686</ele>
        <time>2025-09-28T09:00:22Z</time>
      </trkpt>
      <trkpt lat="45.67615" lon="3.06868">
        <ele>686.2</ele>
        <time>2025-09-28T09:00:23Z</time>
      </trkpt>
      <trkpt lat="45.67618" lon="3.06872">
        <ele>686.2</ele>
        <time>2025-09-28T09:00:24Z</time>
      </trkpt>
      <trkpt lat="45.67622" lon="3.06874">
        <ele>686.4</ele>
        <time>2025-09-28T09:00:25Z</time>
      </trkpt>
      <trkpt lat="45.67626" lon="3.06876">
        <ele>686.4</ele>
        <time>2025-09-28T09:00:26Z</time>
      </trkpt>
      <trkpt lat="45.6763" lon="3.06877">
        <ele>686.4</ele>
        <time>2025-09-28T09:00:27Z</time>
      </trkpt>
      <trkpt lat="45.67634" lon="3.06878">
        <ele>686.4</ele>
        <time>2025-09-28T09:00:28Z</time>
      </trkpt>
      <trkpt lat="45.67638" lon="3.0688">
        <ele>686.4</ele>
        <time>2025-09-28T09:00:29Z</time>
      </trkpt>
      <trkpt lat="45.67642" lon="3.06883">
        <ele>686.4</ele>
        <time>2025-09-28T09:00:30Z</time>
      </trkpt>
      <trkpt lat="45.67645" lon="3.06887">
        <ele>686.4</ele>
        <time>2025-09-28T09:00:31Z</time>
      </trkpt>
      <trkpt lat="45.67648" lon="3.06892">
        <ele>686.4</ele>
        <time>2025-09-28T09:00:32Z</time>
      </trkpt>
      <trkpt lat="45.6765" lon="3.06897">
        <ele>686.4</ele>
        <time>2025-09-28T09:00:33Z</time>
      </trkpt>
      <trkpt lat="45.67653" lon="3.06902">
        <ele>686.2</ele>
        <time>2025-09-28T09:00:34Z</time>
      </trkpt>
      <trkpt lat="45.67655" lon="3.06907">
        <ele>686.2</ele>
        <time>2025-09-28T09:00:35Z</time>
      </trkpt>
      <trkpt lat="45.67657" lon="3.06913">
        <ele>686.2</ele>
        <time>2025-09-28T09:00:36Z</time>
      </trkpt>
      <trkpt lat="45.6766" lon="3.06919">
        <ele>686.2</ele>
        <time>2025-09-28T09:00:37Z</time>
      </trkpt>
      <trkpt lat="45.67662" lon="3.06925">
        <ele>686.2</ele>
        <time>2025-09-28T09:00:38Z</time>
      </trkpt>
      <trkpt lat="45.67664" lon="3.06931">
        <ele>686.2</ele>
        <time>2025-09-28T09:00:39Z</time>
      </trkpt>
      <trkpt lat="45.67666" lon="3.06937">
        <ele>686</ele>
        <time>2025-09-28T09:00:40Z</time>
      </trkpt>
      <trkpt lat="45.67668" lon="3.06943">
        <ele>686</ele>
        <time>2025-09-28T09:00:41Z</time>
      </trkpt>
      <trkpt lat="45.67671" lon="3.06949">
        <ele>686</ele>
        <time>2025-09-28T09:00:42Z</time>
      </trkpt>
      <trkpt lat="45.67673" lon="3.06954">
        <ele>686</ele>
        <time>2025-09-28T09:00:43Z</time>
      </trkpt>
      <trkpt lat="45.67675" lon="3.0696">
        <ele>686</ele>
        <time>2025-09-28T09:00:44Z</time>
      </trkpt>
      <trkpt lat="45.67677" lon="3.06967">
        <ele>685.8</ele>
        <time>2025-09-28T09:00:45Z</time>
      </trkpt>
      <trkpt lat="45.6768" lon="3.06973">
        <ele>685.8</ele>
        <time>2025-09-28T09:00:46Z</time>
      </trkpt>
      <trkpt lat="45.67682" lon="3.06979">
        <ele>685.8</ele>
        <time>2025-09-28T09:00:47Z</time>
      </trkpt>
      <trkpt lat="45.67684" lon="3.06986">
        <ele>685.6</ele>
        <time>2025-09-28T09:00:48Z</time>
      </trkpt>
      <trkpt lat="45.67687" lon="3.06992">
        <ele>685.4</ele>
        <time>2025-09-28T09:00:49Z</time>
      </trkpt>
      <trkpt lat="45.6769" lon="3.06999">
        <ele>685.4</ele>
        <time>2025-09-28T09:00:50Z</time>
      </trkpt>
      <trkpt lat="45.67693" lon="3.07006">
        <ele>685.2</ele>
        <time>2025-09-28T09:00:51Z</time>
      </trkpt>
      <trkpt lat="45.67696" lon="3.07013">
        <ele>685</ele>
        <time>2025-09-28T09:00:52Z</time>
      </trkpt>
      <trkpt lat="45.677" lon="3.0702">
        <ele>684.8</ele>
        <time>2025-09-28T09:00:53Z</time>
      </trkpt>
      <trkpt lat="45.67703" lon="3.07026">
        <ele>684.4</ele>
        <time>2025-09-28T09:00:54Z</time>
      </trkpt>
      <trkpt lat="45.67707" lon="3.07033">
        <ele>684.2</ele>
        <time>2025-09-28T09:00:55Z</time>
      </trkpt>
      <trkpt lat="45.67711" lon="3.0704">
        <ele>684</ele>
        <time>2025-09-28T09:00:56Z</time>
      </trkpt>
      <trkpt lat="45.67714" lon="3.07047">
        <ele>683.8</ele>
        <time>2025-09-28T09:00:57Z</time>
      </trkpt>
      <trkpt lat="45.67717" lon="3.07054">
        <ele>683.8</ele>
        <time>2025-09-28T09:00:58Z</time>
      </trkpt>
      <trkpt lat="45.6772" lon="3.07062">
        <ele>683.6</ele>
        <time>2025-09-28T09:00:59Z</time>
      </trkpt>
      <trkpt lat="45.67722" lon="3.07069">
        <ele>683.4</ele>
        <time>2025-09-28T09:01:00Z</time>
      </trkpt>
      <trkpt lat="45.67725" lon="3.07077">
        <ele>683.2</ele>
        <time>2025-09-28T09:01:01Z</time>
      </trkpt>
      <trkpt lat="45.67727" lon="3.07084">
        <ele>683</ele>
        <time>2025-09-28T09:01:02Z</time>
      </trkpt>
      <trkpt lat="45.6773" lon="3.07091">
        <ele>682.8</ele>
        <time>2025-09-28T09:01:03Z</time>
      </trkpt>
      <trkpt lat="45.67733" lon="3.071">
        <ele>682.6</ele>
        <time>2025-09-28T09:01:04Z</time>
      </trkpt>
      <trkpt lat="45.67735" lon="3.07108">
        <ele>682.4</ele>
        <time>2025-09-28T09:01:05Z</time>
      </trkpt>
      <trkpt lat="45.67738" lon="3.07115">
        <ele>682.2</ele>
        <time>2025-09-28T09:01:06Z</time>
      </trkpt>
      <trkpt lat="45.67741" lon="3.07123">
        <ele>682.2</ele>
        <time>2025-09-28T09:01:07Z</time>
      </trkpt>
      <trkpt lat="45.67744" lon="3.0713">
        <ele>682</ele>
        <time>2025-09-28T09:01:08Z</time>
      </trkpt>
      <trkpt lat="45.67748" lon="3.07137">
        <ele>681.8</ele>
        <time>2025-09-28T09:01:09Z</time>
      </trkpt>
      <trkpt lat="45.67751" lon="3.07143">
        <ele>681.6</ele>
        <time>2025-09-28T09:01:10Z</time>
      </trkpt>
      <trkpt lat="45.67754" lon="3.07149">
        <ele>681.2</ele>
        <time>2025-09-28T09:01:11Z</time>
      </trkpt>
      <trkpt lat="45.67757" lon="3.07156">
        <ele>681</ele>
        <time>2025-09-28T09:01:12Z</time>
      </trkpt>
      <trkpt lat="45.67761" lon="3.07164">
        <ele>680.8</ele>
        <time>2025-09-28T09:01:13Z</time>
      </trkpt>
      <trkpt lat="45.67765" lon="3.07171">
        <ele>680.6</ele>
        <time>2025-09-28T09:01:14Z</time>
      </trkpt>
      <trkpt lat="45.67769" lon="3.07177">
        <ele>680.2</ele>
        <time>2025-09-28T09:01:15Z</time>
      </trkpt>
      <trkpt lat="45.67773" lon="3.07184">
        <ele>680</ele>
        <time>2025-09-28T09:01:16Z</time>
      </trkpt>
      <trkpt lat="45.67778" lon="3.07192">
        <ele>679.6</ele>
        <time>2025-09-28T09:01:17Z</time>
      </trkpt>
      <trkpt lat="45.67781" lon="3.072">
        <ele>679.4</ele>
        <time>2025-09-28T09:01:18Z</time>
      </trkpt>
      <trkpt lat="45.67784" lon="3.07208">
        <ele>679</ele>
        <time>2025-09-28T09:01:19Z</time>
      </trkpt>
      <trkpt lat="45.67787" lon="3.07215">
        <ele>678.6</ele>
        <time>2025-09-28T09:01:20Z</time>
      </trkpt>
      <trkpt lat="45.6779" lon="3.07223">
        <ele>678.2</ele>
        <time>2025-09-28T09:01:21Z</time>
      </trkpt>
      <trkpt lat="45.67793" lon="3.07232">
        <ele>677.8</ele>
        <time>2025-09-28T09:01:22Z</time>
      </trkpt>
      <trkpt lat="45.67796" lon="3.07241">
        <ele>677.4</ele>
        <time>2025-09-28T09:01:23Z</time>
      </trkpt>
      <trkpt lat="45.67799" lon="3.07249">
        <ele>677</ele>
        <time>2025-09-28T09:01:24Z</time>
      </trkpt>
      <trkpt lat="45.67803" lon="3.07258">
        <ele>676.6</ele>
        <time>2025-09-28T09:01:25Z</time>
      </trkpt>
      <trkpt lat="45.67806" lon="3.07268">
        <ele>676</ele>
        <time>2025-09-28T09:01:26Z</time>
      </trkpt>
      <trkpt lat="45.6781" lon="3.07277">
        <ele>675.2</ele>
        <time>2025-09-28T09:01:27Z</time>
      </trkpt>
      <trkpt lat="45.67813" lon="3.07287">
        <ele>674.6</ele>
        <time>2025-09-28T09:01:28Z</time>
      </trkpt>
      <trkpt lat="45.67816" lon="3.07297">
        <ele>674</ele>
        <time>2025-09-28T09:01:29Z</time>
      </trkpt>
      <trkpt lat="45.67818" lon="3.07308">
        <ele>673.4</ele>
        <time>2025-09-28T09:01:30Z</time>
      </trkpt>
      <trkpt lat="45.6782" lon="3.07319">
        <ele>672.6</ele>
        <time>2025-09-28T09:01:31Z</time>
      </trkpt>
      <trkpt lat="45.67822" lon="3.07329">
        <ele>672</ele>
        <time>2025-09-28T09:01:32Z</time>
      </trkpt>
      <trkpt lat="45.67823" lon="3.07339">
        <ele>671.2</ele>
        <time>2025-09-28T09:01:33Z</time>
      </trkpt>
      <trkpt lat="45.67826" lon="3.07352">
        <ele>670.4</ele>
        <time>2025-09-28T09:01:34Z</time>
      </trkpt>
      <trkpt lat="45.67829" lon="3.07364">
        <ele>669.8</ele>
        <time>2025-09-28T09:01:35Z</time>
      </trkpt>
      <trkpt lat="45.67833" lon="3.07375">
        <ele>669</ele>
        <time>2025-09-28T09:01:36Z</time>
      </trkpt>
      <trkpt lat="45.67836" lon="3.07387">
        <ele>668.4</ele>
        <time>2025-09-28T09:01:37Z</time>
      </trkpt>
      <trkpt lat="45.6784" lon="3.07398">
        <ele>667.8</ele>
        <time>2025-09-28T09:01:38Z</time>
      </trkpt>
      <trkpt lat="45.67842" lon="3.07409">
        <ele>667.2</ele>
        <time>2025-09-28T09:01:39Z</time>
      </trkpt>
      <trkpt lat="45.67843" lon="3.07419">
        <ele>667</ele>
        <time>2025-09-28T09:01:40Z</time>
      </trkpt>
      <trkpt lat="45.67844" lon="3.07428">
        <ele>666.6</ele>
        <time>2025-09-28T09:01:41Z</time>
      </trkpt>
      <trkpt lat="45.67845" lon="3.07434">
        <ele>666.4</ele>
        <time>2025-09-28T09:01:42Z</time>
      </trkpt>
      <trkpt lat="45.67846" lon="3.07439">
        <ele>666.4</ele>
        <time>2025-09-28T09:01:43Z</time>
      </trkpt>
      <trkpt lat="45.67849" lon="3.07442">
        <ele>666.4</ele>
        <time>2025-09-28T09:01:44Z</time>
      </trkpt>
      <trkpt lat="45.67852" lon="3.07445">
        <ele>666.6</ele>
        <time>2025-09-28T09:01:45Z</time>
      </trkpt>
      <trkpt lat="45.67854" lon="3.07449">
        <ele>666.8</ele>
        <time>2025-09-28T09:01:46Z</time>
      </trkpt>
      <trkpt lat="45.67855" lon="3.07453">
        <ele>667</ele>
        <time>2025-09-28T09:01:47Z</time>
      </trkpt>
      <trkpt lat="45.67856" lon="3.07458">
        <ele>667.2</ele>
        <time>2025-09-28T09:01:48Z</time>
      </trkpt>
      <trkpt lat="45.67858" lon="3.07464">
        <ele>667.6</ele>
        <time>2025-09-28T09:01:49Z</time>
      </trkpt>
      <trkpt lat="45.67859" lon="3.0747">
        <ele>667.8</ele>
        <time>2025-09-28T09:01:50Z</time>
      </trkpt>
      <trkpt lat="45.67861" lon="3.07476">
        <ele>668</ele>
        <time>2025-09-28T09:01:51Z</time>
      </trkpt>
      <trkpt lat="45.67862" lon="3.07482">
        <ele>668.2</ele>
        <time>2025-09-28T09:01:52Z</time>
      </trkpt>
      <trkpt lat="45.67862" lon="3.07488">
        <ele>668.4</ele>
        <time>2025-09-28T09:01:53Z</time>
      </trkpt>
      <trkpt lat="45.67863" lon="3.07494">
        <ele>668.8</ele>
        <time>2025-09-28T09:01:54Z</time>
      </trkpt>
      <trkpt lat="45.67863" lon="3.075">
        <ele>669</ele>
        <time>2025-09-28T09:01:55Z</time>
      </trkpt>
      <trkpt lat="45.67864" lon="3.07505">
        <ele>669.2</ele>
        <time>2025-09-28T09:01:56Z</time>
      </trkpt>
      <trkpt lat="45.67864" lon="3.0751">
        <ele>669.4</ele>
        <time>2025-09-28T09:01:57Z</time>
      </trkpt>
      <trkpt lat="45.67865" lon="3.07515">
        <ele>669.6</ele>
        <time>2025-09-28T09:01:58Z</time>
      </trkpt>
      <trkpt lat="45.67866" lon="3.0752">
        <ele>669.8</ele>
        <time>2025-09-28T09:01:59Z</time>
      </trkpt>
      <trkpt lat="45.67866" lon="3.07524">
        <ele>670</ele>
        <time>2025-09-28T09:02:00Z</time>
      </trkpt>
      <trkpt lat="45.67867" lon="3.07527">
        <ele>670.2</ele>
        <time>2025-09-28T09:02:01Z</time>
      </trkpt>
      <trkpt lat="45.67867" lon="3.07531">
        <ele>670.2</ele>
        <time>2025-09-28T09:02:02Z</time>
      </trkpt>
      <trkpt lat="45.67868" lon="3.07536">
        <ele>670.4</ele>
        <time>2025-09-28T09:02:03Z</time>
      </trkpt>
      <trkpt lat="45.67868" lon="3.0754">
        <ele>670.4</ele>
        <time>2025-09-28T09:02:04Z</time>
      </trkpt>
      <trkpt lat="45.67869" lon="3.07544">
        <ele>670.6</ele>
        <time>2025-09-28T09:02:05Z</time>
      </trkpt>
      <trkpt lat="45.6787" lon="3.07548">
        <ele>670.6</ele>
        <time>2025-09-28T09:02:06Z</time>
      </trkpt>
      <trkpt lat="45.67871" lon="3.07552">
        <ele>670.6</ele>
        <time>2025-09-28T09:02:07Z</time>
      </trkpt>
      <trkpt lat="45.67872" lon="3.07556">
        <ele>670.8</ele>
        <time>2025-09-28T09:02:08Z</time>
      </trkpt>
      <trkpt lat="45.67872" lon="3.07561">
        <ele>670.8</ele>
        <time>2025-09-28T09:02:09Z</time>
      </trkpt>
      <trkpt lat="45.67873" lon="3.07567">
        <ele>670.8</ele>
        <time>2025-09-28T09:02:10Z</time>
      </trkpt>
      <trkpt lat="45.67874" lon="3.07573">
        <ele>671</ele>
        <time>2025-09-28T09:02:11Z</time>
      </trkpt>
      <trkpt lat="45.67875" lon="3.07578">
        <ele>671</ele>
        <time>2025-09-28T09:02:12Z</time>
      </trkpt>
      <trkpt lat="45.67876" lon="3.07583">
        <ele>671</ele>
        <time>2025-09-28T09:02:13Z</time>
      </trkpt>
      <trkpt lat="45.67878" lon="3.07588">
        <ele>671</ele>
        <time>2025-09-28T09:02:14Z</time>
      </trkpt>
      <trkpt lat="45.67879" lon="3.07593">
        <ele>671</ele>
        <time>2025-09-28T09:02:15Z</time>
      </trkpt>
      <trkpt lat="45.6788" lon="3.07598">
        <ele>671</ele>
        <time>2025-09-28T09:02:16Z</time>
      </trkpt>
      <trkpt lat="45.67881" lon="3.07603">
        <ele>671</ele>
        <time>2025-09-28T09:02:17Z</time>
      </trkpt>
      <trkpt lat="45.67882" lon="3.07608">
        <ele>671</ele>
        <time>2025-09-28T09:02:18Z</time>
      </trkpt>
      <trkpt lat="45.67884" lon="3.07614">
        <ele>671</ele>
        <time>2025-09-28T09:02:19Z</time>
      </trkpt>
      <trkpt lat="45.67885" lon="3.0762">
        <ele>671.2</ele>
        <time>2025-09-28T09:02:20Z</time>
      </trkpt>
      <trkpt lat="45.67887" lon="3.07625">
        <ele>671.2</ele>
        <time>2025-09-28T09:02:21Z</time>
      </trkpt>
      <trkpt lat="45.67888" lon="3.0763">
        <ele>671.2</ele>
        <time>2025-09-28T09:02:22Z</time>
      </trkpt>
      <trkpt lat="45.67889" lon="3.07636">
        <ele>671.2</ele>
        <time>2025-09-28T09:02:23Z</time>
      </trkpt>
      <trkpt lat="45.6789" lon="3.07642">
        <ele>671.2</ele>
        <time>2025-09-28T09:02:24Z</time>
      </trkpt>
      <trkpt lat="45.67891" lon="3.07647">
        <ele>671.2</ele>
        <time>2025-09-28T09:02:25Z</time>
      </trkpt>
      <trkpt lat="45.67892" lon="3.07653">
        <ele>671.2</ele>
        <time>2025-09-28T09:02:26Z</time>
      </trkpt>
      <trkpt lat="45.67893" lon="3.07659">
        <ele>671.2</ele>
        <time>2025-09-28T09:02:27Z</time>
      </trkpt>
      <trkpt lat="45.67894" lon="3.07665">
        <ele>671.2</ele>
        <time>2025-09-28T09:02:28Z</time>
      </trkpt>
      <trkpt lat="45.67895" lon="3.07671">
        <ele>671.2</ele>
        <time>2025-09-28T09:02:29Z</time>
      </trkpt>
      <trkpt lat="45.67895" lon="3.07676">
        <ele>671.2</ele>
        <time>2025-09-28T09:02:30Z</time>
      </trkpt>
      <trkpt lat="45.67896" lon="3.07682">
        <ele>671.4</ele>
        <time>2025-09-28T09:02:31Z</time>
      </trkpt>
      <trkpt lat="45.67897" lon="3.07687">
        <ele>671.4</ele>
        <time>2025-09-28T09:02:32Z</time>
      </trkpt>
      <trkpt lat="45.67897" lon="3.07692">
        <ele>671.4</ele>
        <time>2025-09-28T09:02:33Z</time>
      </trkpt>
      <trkpt lat="45.67898" lon="3.07698">
        <ele>671.6</ele>
        <time>2025-09-28T09:02:34Z</time>
      </trkpt>
      <trkpt lat="45.67898" lon="3.07703">
        <ele>671.6</ele>
        <time>2025-09-28T09:02:35Z</time>
      </trkpt>
      <trkpt lat="45.67898" lon="3.07708">
        <ele>671.8</ele>
        <time>2025-09-28T09:02:36Z</time>
      </trkpt>
      <trkpt lat="45.67899" lon="3.07714">
        <ele>671.8</ele>
        <time>2025-09-28T09:02:37Z</time>
      </trkpt>
      <trkpt lat="45.67899" lon="3.07719">
        <ele>672</ele>
        <time>2025-09-28T09:02:38Z</time>
      </trkpt>
      <trkpt lat="45.67899" lon="3.07725">
        <ele>672</ele>
        <time>2025-09-28T09:02:39Z</time>
      </trkpt>
      <trkpt lat="45.67899" lon="3.0773">
        <ele>672.2</ele>
        <time>2025-09-28T09:02:40Z</time>
      </trkpt>
      <trkpt lat="45.67899" lon="3.07735">
        <ele>672.2</ele>
        <time>2025-09-28T09:02:41Z</time>
      </trkpt>
      <trkpt lat="45.679" lon="3.0774">
        <ele>672.4</ele>
        <time>2025-09-28T09:02:42Z</time>
      </trkpt>
      <trkpt lat="45.679" lon="3.07746">
        <ele>672.4</ele>
        <time>2025-09-28T09:02:43Z</time>
      </trkpt>
      <trkpt lat="45.679" lon="3.07751">
        <ele>672.6</ele>
        <time>2025-09-28T09:02:44Z</time>
      </trkpt>
      <trkpt lat="45.67901" lon="3.07756">
        <ele>672.6</ele>
        <time>2025-09-28T09:02:45Z</time>
      </trkpt>
      <trkpt lat="45.67902" lon="3.07761">
        <ele>672.8</ele>
        <time>2025-09-28T09:02:46Z</time>
      </trkpt>
      <trkpt lat="45.67903" lon="3.07767">
        <ele>673</ele>
        <time>2025-09-28T09:02:47Z</time>
      </trkpt>
      <trkpt lat="45.67904" lon="3.07772">
        <ele>673</ele>
        <time>2025-09-28T09:02:48Z</time>
      </trkpt>
      <trkpt lat="45.67904" lon="3.07777">
        <ele>673.2</ele>
        <time>2025-09-28T09:02:49Z</time>
      </trkpt>
      <trkpt lat="45.67905" lon="3.07781">
        <ele>673.4</ele>
        <time>2025-09-28T09:02:50Z</time>
      </trkpt>
      <trkpt lat="45.67907" lon="3.07787">
        <ele>673.4</ele>
        <time>2025-09-28T09:02:51Z</time>
      </trkpt>
      <trkpt lat="45.67908" lon="3.07791">
        <ele>673.6</ele>
        <time>2025-09-28T09:02:52Z</time>
      </trkpt>
      <trkpt lat="45.67909" lon="3.07796">
        <ele>673.6</ele>
        <time>2025-09-28T09:02:53Z</time>
      </trkpt>
      <trkpt lat="45.6791" lon="3.078">
        <ele>673.8</ele>
        <time>2025-09-28T09:02:54Z</time>
      </trkpt>
      <trkpt lat="45.67911" lon="3.07805">
        <ele>673.8</ele>
        <time>2025-09-28T09:02:55Z</time>
      </trkpt>
      <trkpt lat="45.67913" lon="3.0781">
        <ele>674</ele>
        <time>2025-09-28T09:02:56Z</time>
      </trkpt>
      <trkpt lat="45.67914" lon="3.07815">
        <ele>674.2</ele>
        <time>2025-09-28T09:02:57Z</time>
      </trkpt>
      <trkpt lat="45.67915" lon="3.07819">
        <ele>674.2</ele>
        <time>2025-09-28T09:02:58Z</time>
      </trkpt>
      <trkpt lat="45.67916" lon="3.07825">
        <ele>674.4</ele>
        <time>2025-09-28T09:02:59Z</time>
      </trkpt>
      <trkpt lat="45.67917" lon="3.0783">
        <ele>674.6</ele>
        <time>2025-09-28T09:03:00Z</time>
      </trkpt>
      <trkpt lat="45.67917" lon="3.07836">
        <ele>674.8</ele>
        <time>2025-09-28T09:03:01Z</time>
      </trkpt>
      <trkpt lat="45.67917" lon="3.07841">
        <ele>675</ele>
        <time>2025-09-28T09:03:02Z</time>
      </trkpt>
      <trkpt lat="45.67916" lon="3.07845">
        <ele>675.4</ele>
        <time>2025-09-28T09:03:03Z</time>
      </trkpt>
      <trkpt lat="45.67914" lon="3.07848">
        <ele>675.6</ele>
        <time>2025-09-28T09:03:04Z</time>
      </trkpt>
      <trkpt lat="45.67911" lon="3.07849">
        <ele>675.8</ele>
        <time>2025-09-28T09:03:05Z</time>
      </trkpt>
      <trkpt lat="45.67908" lon="3.0785">
        <ele>676</ele>
        <time>2025-09-28T09:03:06Z</time>
      </trkpt>
      <trkpt lat="45.67905" lon="3.07849">
        <ele>676.2</ele>
        <time>2025-09-28T09:03:07Z</time>
      </trkpt>
      <trkpt lat="45.67902" lon="3.07848">
        <ele>676.2</ele>
        <time>2025-09-28T09:03:08Z</time>
      </trkpt>
      <trkpt lat="45.67899" lon="3.07846">
        <ele>676.2</ele>
        <time>2025-09-28T09:03:09Z</time>
      </trkpt>
      <trkpt lat="45.67895" lon="3.07842">
        <ele>676.2</ele>
        <time>2025-09-28T09:03:10Z</time>
      </trkpt>
      <trkpt lat="45.67892" lon="3.07838">
        <ele>676.2</ele>
        <time>2025-09-28T09:03:11Z</time>
      </trkpt>
      <trkpt lat="45.67889" lon="3.07835">
        <ele>676.2</ele>
        <time>2025-09-28T09:03:12Z</time>
      </trkpt>
      <trkpt lat="45.67886" lon="3.07832">
        <ele>676.2</ele>
        <time>2025-09-28T09:03:13Z</time>
      </trkpt>
      <trkpt lat="45.67883" lon="3.07828">
        <ele>676.2</ele>
        <time>2025-09-28T09:03:14Z</time>
      </trkpt>
      <trkpt lat="45.6788" lon="3.07826">
        <ele>676.4</ele>
        <time>2025-09-28T09:03:15Z</time>
      </trkpt>
      <trkpt lat="45.67878" lon="3.07823">
        <ele>676.4</ele>
        <time>2025-09-28T09:03:16Z</time>
      </trkpt>
      <trkpt lat="45.67875" lon="3.07822">
        <ele>676.4</ele>
        <time>2025-09-28T09:03:17Z</time>
      </trkpt>
      <trkpt lat="45.67873" lon="3.0782">
        <ele>676.6</ele>
        <time>2025-09-28T09:03:18Z</time>
      </trkpt>
      <trkpt lat="45.67871" lon="3.07819">
        <ele>676.6</ele>
        <time>2025-09-28T09:03:19Z</time>
      </trkpt>
      <trkpt lat="45.67869" lon="3.07818">
        <ele>676.8</ele>
        <time>2025-09-28T09:03:20Z</time>
      </trkpt>
      <trkpt lat="45.67868" lon="3.07817">
        <ele>676.8</ele>
        <time>2025-09-28T09:03:21Z</time>
      </trkpt>
      <trkpt lat="45.67866" lon="3.07816">
        <ele>677</ele>
        <time>2025-09-28T09:03:22Z</time>
      </trkpt>
      <trkpt lat="45.67865" lon="3.07816">
        <ele>677.2</ele>
        <time>2025-09-28T09:03:23Z</time>
      </trkpt>
      <trkpt lat="45.67863" lon="3.07817">
        <ele>677.2</ele>
        <time>2025-09-28T09:03:24Z</time>
      </trkpt>
      <trkpt lat="45.67863" lon="3.0782">
        <ele>677.2</ele>
        <time>2025-09-28T09:03:25Z</time>
      </trkpt>
      <trkpt lat="45.67864" lon="3.07822">
        <ele>677.4</ele>
        <time>2025-09-28T09:03:26Z</time>
      </trkpt>
      <trkpt lat="45.67865" lon="3.07826">
        <ele>677.4</ele>
        <time>2025-09-28T09:03:27Z</time>
      </trkpt>
      <trkpt lat="45.67866" lon="3.0783">
        <ele>677.6</ele>
        <time>2025-09-28T09:03:28Z</time>
      </trkpt>
      <trkpt lat="45.67868" lon="3.07834">
        <ele>677.8</ele>
        <time>2025-09-28T09:03:29Z</time>
      </trkpt>
      <trkpt lat="45.6787" lon="3.07838">
        <ele>678</ele>
        <time>2025-09-28T09:03:30Z</time>
      </trkpt>
      <trkpt lat="45.67872" lon="3.07842">
        <ele>678</ele>
        <time>2025-09-28T09:03:31Z</time>
      </trkpt>
      <trkpt lat="45.67873" lon="3.07846">
        <ele>678.2</ele>
        <time>2025-09-28T09:03:32Z</time>
      </trkpt>
      <trkpt lat="45.67875" lon="3.07851">
        <ele>678.4</ele>
        <time>2025-09-28T09:03:33Z</time>
      </trkpt>
      <trkpt lat="45.67876" lon="3.07855">
        <ele>678.6</ele>
        <time>2025-09-28T09:03:34Z</time>
      </trkpt>
      <trkpt lat="45.67877" lon="3.0786">
        <ele>678.8</ele>
        <time>2025-09-28T09:03:35Z</time>
      </trkpt>
      <trkpt lat="45.67878" lon="3.07865">
        <ele>679</ele>
        <time>2025-09-28T09:03:36Z</time>
      </trkpt>
      <trkpt lat="45.6788" lon="3.07869">
        <ele>679.2</ele>
        <time>2025-09-28T09:03:37Z</time>
      </trkpt>
      <trkpt lat="45.67881" lon="3.07873">
        <ele>679.4</ele>
        <time>2025-09-28T09:03:38Z</time>
      </trkpt>
      <trkpt lat="45.67883" lon="3.07878">
        <ele>679.6</ele>
        <time>2025-09-28T09:03:39Z</time>
      </trkpt>
      <trkpt lat="45.67884" lon="3.07882">
        <ele>679.8</ele>
        <time>2025-09-28T09:03:40Z</time>
      </trkpt>
      <trkpt lat="45.67886" lon="3.07887">
        <ele>680</ele>
        <time>2025-09-28T09:03:41Z</time>
      </trkpt>
      <trkpt lat="45.67887" lon="3.07891">
        <ele>680.2</ele>
        <time>2025-09-28T09:03:42Z</time>
      </trkpt>
      <trkpt lat="45.67888" lon="3.07896">
        <ele>680.4</ele>
        <time>2025-09-28T09:03:43Z</time>
      </trkpt>
      <trkpt lat="45.6789" lon="3.079">
        <ele>680.6</ele>
        <time>2025-09-28T09:03:44Z</time>
      </trkpt>
      <trkpt lat="45.67891" lon="3.07904">
        <ele>680.8</ele>
        <time>2025-09-28T09:03:45Z</time>
      </trkpt>
      <trkpt lat="45.67893" lon="3.07908">
        <ele>681</ele>
        <time>2025-09-28T09:03:46Z</time>
      </trkpt>
      <trkpt lat="45.67894" lon="3.07912">
        <ele>681.2</ele>
        <time>2025-09-28T09:03:47Z</time>
      </trkpt>
      <trkpt lat="45.67895" lon="3.07917">
        <ele>681.4</ele>
        <time>2025-09-28T09:03:48Z</time>
      </trkpt>
      <trkpt lat="45.67897" lon="3.07921">
        <ele>681.6</ele>
        <time>2025-09-28T09:03:49Z</time>
      </trkpt>
      <trkpt lat="45.67899" lon="3.07925">
        <ele>681.8</ele>
        <time>2025-09-28T09:03:50Z</time>
      </trkpt>
      <trkpt lat="45.679" lon="3.07929">
        <ele>682</ele>
        <time>2025-09-28T09:03:51Z</time>
      </trkpt>
      <trkpt lat="45.67902" lon="3.07933">
        <ele>682.2</ele>
        <time>2025-09-28T09:03:52Z</time>
      </trkpt>
      <trkpt lat="45.67903" lon="3.07937">
        <ele>682.4</ele>
        <time>2025-09-28T09:03:53Z</time>
      </trkpt>
      <trkpt lat="45.67905" lon="3.07941">
        <ele>682.6</ele>
        <time>2025-09-28T09:03:54Z</time>
      </trkpt>
      <trkpt lat="45.67906" lon="3.07945">
        <ele>682.8</ele>
        <time>2025-09-28T09:03:55Z</time>
      </trkpt>
      <trkpt lat="45.67908" lon="3.07948">
        <ele>683</ele>
        <time>2025-09-28T09:03:56Z</time>
      </trkpt>
      <trkpt lat="45.6791" lon="3.07952">
        <ele>683.2</ele>
        <time>2025-09-28T09:03:57Z</time>
      </trkpt>
      <trkpt lat="45.67912" lon="3.07955">
        <ele>683.4</ele>
        <time>2025-09-28T09:03:58Z</time>
      </trkpt>
      <trkpt lat="45.67914" lon="3.07959">
        <ele>683.6</ele>
        <time>2025-09-28T09:03:59Z</time>
      </trkpt>
      <trkpt lat="45.67916" lon="3.07962">
        <ele>683.8</ele>
        <time>2025-09-28T09:04:00Z</time>
      </trkpt>
      <trkpt lat="45.67918" lon="3.07965">
        <ele>684</ele>
        <time>2025-09-28T09:04:01Z</time>
      </trkpt>
      <trkpt lat="45.6792" lon="3.07968">
        <ele>684.2</ele>
        <time>2025-09-28T09:04:02Z</time>
      </trkpt>
      <trkpt lat="45.67923" lon="3.07971">
        <ele>684.2</ele>
        <time>2025-09-28T09:04:03Z</time>
      </trkpt>
      <trkpt lat="45.67925" lon="3.07974">
        <ele>684.4</ele>
        <time>2025-09-28T09:04:04Z</time>
      </trkpt>
      <trkpt lat="45.67927" lon="3.07977">
        <ele>684.6</ele>
        <time>2025-09-28T09:04:05Z</time>
      </trkpt>
      <trkpt lat="45.6793" lon="3.0798">
        <ele>685</ele>
        <time>2025-09-28T09:04:06Z</time>
      </trkpt>
      <trkpt lat="45.67932" lon="3.07982">
        <ele>685.2</ele>
        <time>2025-09-28T09:04:07Z</time>
      </trkpt>
      <trkpt lat="45.67934" lon="3.07985">
        <ele>685.4</ele>
        <time>2025-09-28T09:04:08Z</time>
      </trkpt>
      <trkpt lat="45.67937" lon="3.07988">
        <ele>685.6</ele>
        <time>2025-09-28T09:04:09Z</time>
      </trkpt>
      <trkpt lat="45.67939" lon="3.07991">
        <ele>686</ele>
        <time>2025-09-28T09:04:10Z</time>
      </trkpt>
      <trkpt lat="45.67941" lon="3.07994">
        <ele>686.2</ele>
        <time>2025-09-28T09:04:11Z</time>
      </trkpt>
      <trkpt lat="45.67944" lon="3.07997">
        <ele>686.4</ele>
        <time>2025-09-28T09:04:12Z</time>
      </trkpt>
      <trkpt lat="45.67946" lon="3.07999">
        <ele>686.6</ele>
        <time>2025-09-28T09:04:13Z</time>
      </trkpt>
      <trkpt lat="45.67948" lon="3.08002">
        <ele>686.8</ele>
        <time>2025-09-28T09:04:14Z</time>
      </trkpt>
      <trkpt lat="45.67951" lon="3.08004">
        <ele>687.2</ele>
        <time>2025-09-28T09:04:15Z</time>
      </trkpt>
      <trkpt lat="45.67953" lon="3.08006">
        <ele>687.4</ele>
        <time>2025-09-28T09:04:16Z</time>
      </trkpt>
      <trkpt lat="45.67956" lon="3.08008">
        <ele>687.6</ele>
        <time>2025-09-28T09:04:17Z</time>
      </trkpt>
      <trkpt lat="45.67958" lon="3.08009">
        <ele>687.8</ele>
        <time>2025-09-28T09:04:18Z</time>
      </trkpt>
      <trkpt lat="45.6796" lon="3.0801">
        <ele>688</ele>
        <time>2025-09-28T09:04:19Z</time>
      </trkpt>
      <trkpt lat="45.67963" lon="3.08011">
        <ele>688.2</ele>
        <time>2025-09-28T09:04:20Z</time>
      </trkpt>
      <trkpt lat="45.67966" lon="3.08011">
        <ele>688.4</ele>
        <time>2025-09-28T09:04:21Z</time>
      </trkpt>
      <trkpt lat="45.67968" lon="3.08011">
        <ele>688.8</ele>
        <time>2025-09-28T09:04:22Z</time>
      </trkpt>
      <trkpt lat="45.67971" lon="3.08011">
        <ele>689</ele>
        <time>2025-09-28T09:04:23Z</time>
      </trkpt>
      <trkpt lat="45.67974" lon="3.0801">
        <ele>689.2</ele>
        <time>2025-09-28T09:04:24Z</time>
      </trkpt>
      <trkpt lat="45.67977" lon="3.08009">
        <ele>689.4</ele>
        <time>2025-09-28T09:04:25Z</time>
      </trkpt>
      <trkpt lat="45.67979" lon="3.08008">
        <ele>689.6</ele>
        <time>2025-09-28T09:04:26Z</time>
      </trkpt>
      <trkpt lat="45.67981" lon="3.08007">
        <ele>689.8</ele>
        <time>2025-09-28T09:04:27Z</time>
      </trkpt>
      <trkpt lat="45.67983" lon="3.08006">
        <ele>690</ele>
        <time>2025-09-28T09:04:28Z</time>
      </trkpt>
      <trkpt lat="45.67985" lon="3.08005">
        <ele>690.2</ele>
        <time>2025-09-28T09:04:29Z</time>
      </trkpt>
      <trkpt lat="45.67988" lon="3.08003">
        <ele>690.4</ele>
        <time>2025-09-28T09:04:30Z</time>
      </trkpt>
      <trkpt lat="45.6799" lon="3.08002">
        <ele>690.6</ele>
        <time>2025-09-28T09:04:31Z</time>
      </trkpt>
      <trkpt lat="45.67992" lon="3.08">
        <ele>690.6</ele>
        <time>2025-09-28T09:04:32Z</time>
      </trkpt>
      <trkpt lat="45.67994" lon="3.07999">
        <ele>690.8</ele>
        <time>2025-09-28T09:04:33Z</time>
      </trkpt>
      <trkpt lat="45.67996" lon="3.07997">
        <ele>691</ele>
        <time>2025-09-28T09:04:34Z</time>
      </trkpt>
      <trkpt lat="45.67998" lon="3.07996">
        <ele>691.2</ele>
        <time>2025-09-28T09:04:35Z</time>
      </trkpt>
      <trkpt lat="45.68001" lon="3.07996">
        <ele>691.6</ele>
        <time>2025-09-28T09:04:36Z</time>
      </trkpt>
      <trkpt lat="45.68004" lon="3.07997">
        <ele>691.8</ele>
        <time>2025-09-28T09:04:37Z</time>
      </trkpt>
      <trkpt lat="45.68006" lon="3.07999">
        <ele>692.2</ele>
        <time>2025-09-28T09:04:38Z</time>
      </trkpt>
      <trkpt lat="45.68008" lon="3.08001">
        <ele>692.8</ele>
        <time>2025-09-28T09:04:39Z</time>
      </trkpt>
      <trkpt lat="45.6801" lon="3.08005">
        <ele>693.4</ele>
        <time>2025-09-28T09:04:40Z</time>
      </trkpt>
      <trkpt lat="45.68011" lon="3.08008">
        <ele>694</ele>
        <time>2025-09-28T09:04:41Z</time>
      </trkpt>
      <trkpt lat="45.68012" lon="3.08012">
        <ele>694.6</ele>
        <time>2025-09-28T09:04:42Z</time>
      </trkpt>
      <trkpt lat="45.68012" lon="3.08015">
        <ele>695.2</ele>
        <time>2025-09-28T09:04:43Z</time>
      </trkpt>
      <trkpt lat="45.68011" lon="3.08019">
        <ele>696</ele>
        <time>2025-09-28T09:04:44Z</time>
      </trkpt>
      <trkpt lat="45.68011" lon="3.08023">
        <ele>696.6</ele>
        <time>2025-09-28T09:04:45Z</time>
      </trkpt>
      <trkpt lat="45.68011" lon="3.08027">
        <ele>697.2</ele>
        <time>2025-09-28T09:04:46Z</time>
      </trkpt>
      <trkpt lat="45.68011" lon="3.08031">
        <ele>697.8</ele>
        <time>2025-09-28T09:04:47Z</time>
      </trkpt>
      <trkpt lat="45.6801" lon="3.08034">
        <ele>698.2</ele>
        <time>2025-09-28T09:04:48Z</time>
      </trkpt>
      <trkpt lat="45.68009" lon="3.08038">
        <ele>698.6</ele>
        <time>2025-09-28T09:04:49Z</time>
      </trkpt>
      <trkpt lat="45.68008" lon="3.08041">
        <ele>699</ele>
        <time>2025-09-28T09:04:50Z</time>
      </trkpt>
      <trkpt lat="45.68006" lon="3.08043">
        <ele>699.2</ele>
        <time>2025-09-28T09:04:51Z</time>
      </trkpt>
      <trkpt lat="45.68005" lon="3.08045">
        <ele>699.4</ele>
        <time>2025-09-28T09:04:52Z</time>
      </trkpt>
      <trkpt lat="45.68003" lon="3.08047">
        <ele>699.6</ele>
        <time>2025-09-28T09:04:53Z</time>
      </trkpt>
      <trkpt lat="45.68001" lon="3.08049">
        <ele>699.6</ele>
        <time>2025-09-28T09:04:54Z</time>
      </trkpt>
      <trkpt lat="45.68" lon="3.08051">
        <ele>699.8</ele>
        <time>2025-09-28T09:04:55Z</time>
      </trkpt>
      <trkpt lat="45.67998" lon="3.08053">
        <ele>700</ele>
        <time>2025-09-28T09:04:56Z</time>
      </trkpt>
      <trkpt lat="45.67996" lon="3.08055">
        <ele>700</ele>
        <time>2025-09-28T09:04:57Z</time>
      </trkpt>
      <trkpt lat="45.67995" lon="3.08058">
        <ele>700</ele>
        <time>2025-09-28T09:04:58Z</time>
      </trkpt>
      <trkpt lat="45.67993" lon="3.0806">
        <ele>700.2</ele>
        <time>2025-09-28T09:04:59Z</time>
      </trkpt>
      <trkpt lat="45.67991" lon="3.08062">
        <ele>700.2</ele>
        <time>2025-09-28T09:05:00Z</time>
      </trkpt>
      <trkpt lat="45.67989" lon="3.08065">
        <ele>700.4</ele>
        <time>2025-09-28T09:05:01Z</time>
      </trkpt>
      <trkpt lat="45.67987" lon="3.08067">
        <ele>700.4</ele>
        <time>2025-09-28T09:05:02Z</time>
      </trkpt>
      <trkpt lat="45.67985" lon="3.08069">
        <ele>700.4</ele>
        <time>2025-09-28T09:05:03Z</time>
      </trkpt>
      <trkpt lat="45.67984" lon="3.08072">
        <ele>700.6</ele>
        <time>2025-09-28T09:05:04Z</time>
      </trkpt>
      <trkpt lat="45.67982" lon="3.08074">
        <ele>700.6</ele>
        <time>2025-09-28T09:05:05Z</time>
      </trkpt>
      <trkpt lat="45.6798" lon="3.08076">
        <ele>700.6</ele>
        <time>2025-09-28T09:05:06Z</time>
      </trkpt>
      <trkpt lat="45.67979" lon="3.08078">
        <ele>700.6</ele>
        <time>2025-09-28T09:05:07Z</time>
      </trkpt>
      <trkpt lat="45.67978" lon="3.0808">
        <ele>700.8</ele>
        <time>2025-09-28T09:05:08Z</time>
      </trkpt>
      <trkpt lat="45.67976" lon="3.08081">
        <ele>700.8</ele>
        <time>2025-09-28T09:05:09Z</time>
      </trkpt>
      <trkpt lat="45.67975" lon="3.08083">
        <ele>700.8</ele>
        <time>2025-09-28T09:05:10Z</time>
      </trkpt>
      <trkpt lat="45.67973" lon="3.08084">
        <ele>701</ele>
        <time>2025-09-28T09:05:11Z</time>
      </trkpt>
      <trkpt lat="45.67971" lon="3.08086">
        <ele>701</ele>
        <time>2025-09-28T09:05:12Z</time>
      </trkpt>
      <trkpt lat="45.6797" lon="3.08088">
        <ele>701</ele>
        <time>2025-09-28T09:05:13Z</time>
      </trkpt>
      <trkpt lat="45.67968" lon="3.0809">
        <ele>701</ele>
        <time>2025-09-28T09:05:14Z</time>
      </trkpt>
      <trkpt lat="45.67965" lon="3.08092">
        <ele>701.2</ele>
        <time>2025-09-28T09:05:15Z</time>
      </trkpt>
      <trkpt lat="45.67963" lon="3.08094">
        <ele>701.2</ele>
        <time>2025-09-28T09:05:16Z</time>
      </trkpt>
      <trkpt lat="45.67961" lon="3.08096">
        <ele>701.4</ele>
        <time>2025-09-28T09:05:17Z</time>
      </trkpt>
      <trkpt lat="45.67959" lon="3.08098">
        <ele>701.4</ele>
        <time>2025-09-28T09:05:18Z</time>
      </trkpt>
      <trkpt lat="45.67957" lon="3.081">
        <ele>701.6</ele>
        <time>2025-09-28T09:05:19Z</time>
      </trkpt>
      <trkpt lat="45.67955" lon="3.08102">
        <ele>701.8</ele>
        <time>2025-09-28T09:05:20Z</time>
      </trkpt>
      <trkpt lat="45.67952" lon="3.08104">
        <ele>702</ele>
        <time>2025-09-28T09:05:21Z</time>
      </trkpt>
      <trkpt lat="45.6795" lon="3.08106">
        <ele>702.2</ele>
        <time>2025-09-28T09:05:22Z</time>
      </trkpt>
      <trkpt lat="45.67948" lon="3.08108">
        <ele>702.4</ele>
        <time>2025-09-28T09:05:23Z</time>
      </trkpt>
      <trkpt lat="45.67946" lon="3.0811">
        <ele>702.6</ele>
        <time>2025-09-28T09:05:24Z</time>
      </trkpt>
      <trkpt lat="45.67944" lon="3.08112">
        <ele>702.8</ele>
        <time>2025-09-28T09:05:25Z</time>
      </trkpt>
      <trkpt lat="45.67942" lon="3.08114">
        <ele>703.2</ele>
        <time>2025-09-28T09:05:26Z</time>
      </trkpt>
      <trkpt lat="45.6794" lon="3.08116">
        <ele>703.4</ele>
        <time>2025-09-28T09:05:27Z</time>
      </trkpt>
      <trkpt lat="45.67938" lon="3.08117">
        <ele>703.6</ele>
        <time>2025-09-28T09:05:28Z</time>
      </trkpt>
      <trkpt lat="45.67937" lon="3.08119">
        <ele>704</ele>
        <time>2025-09-28T09:05:29Z</time>
      </trkpt>
      <trkpt lat="45.67935" lon="3.0812">
        <ele>704.2</ele>
        <time>2025-09-28T09:05:30Z</time>
      </trkpt>
      <trkpt lat="45.67934" lon="3.08122">
        <ele>704.4</ele>
        <time>2025-09-28T09:05:31Z</time>
      </trkpt>
      <trkpt lat="45.67932" lon="3.08123">
        <ele>704.8</ele>
        <time>2025-09-28T09:05:32Z</time>
      </trkpt>
      <trkpt lat="45.6793" lon="3.08125">
        <ele>705</ele>
        <time>2025-09-28T09:05:33Z</time>
      </trkpt>
      <trkpt lat="45.67929" lon="3.08127">
        <ele>705.4</ele>
        <time>2025-09-28T09:05:34Z</time>
      </trkpt>
      <trkpt lat="45.67927" lon="3.08128">
        <ele>705.6</ele>
        <time>2025-09-28T09:05:35Z</time>
      </trkpt>
      <trkpt lat="45.67925" lon="3.0813">
        <ele>706</ele>
        <time>2025-09-28T09:05:36Z</time>
      </trkpt>
      <trkpt lat="45.67923" lon="3.08131">
        <ele>706.2</ele>
        <time>2025-09-28T09:05:37Z</time>
      </trkpt>
      <trkpt lat="45.67921" lon="3.08133">
        <ele>706.4</ele>
        <time>2025-09-28T09:05:38Z</time>
      </trkpt>
      <trkpt lat="45.67919" lon="3.08135">
        <ele>706.8</ele>
        <time>2025-09-28T09:05:39Z</time>
      </trkpt>
      <trkpt lat="45.67916" lon="3.08137">
        <ele>707</ele>
        <time>2025-09-28T09:05:40Z</time>
      </trkpt>
      <trkpt lat="45.67915" lon="3.08138">
        <ele>707.4</ele>
        <time>2025-09-28T09:05:41Z</time>
      </trkpt>
      <trkpt lat="45.67913" lon="3.0814">
        <ele>707.6</ele>
        <time>2025-09-28T09:05:42Z</time>
      </trkpt>
      <trkpt lat="45.67911" lon="3.08142">
        <ele>708</ele>
        <time>2025-09-28T09:05:43Z</time>
      </trkpt>
      <trkpt lat="45.67909" lon="3.08144">
        <ele>708.2</ele>
        <time>2025-09-28T09:05:44Z</time>
      </trkpt>
      <trkpt lat="45.67907" lon="3.08146">
        <ele>708.4</ele>
        <time>2025-09-28T09:05:45Z</time>
      </trkpt>
      <trkpt lat="45.67905" lon="3.08149">
        <ele>708.6</ele>
        <time>2025-09-28T09:05:46Z</time>
      </trkpt>
      <trkpt lat="45.67904" lon="3.08152">
        <ele>709</ele>
        <time>2025-09-28T09:05:47Z</time>
      </trkpt>
      <trkpt lat="45.67903" lon="3.08156">
        <ele>709</ele>
        <time>2025-09-28T09:05:48Z</time>
      </trkpt>
      <trkpt lat="45.67903" lon="3.0816">
        <ele>709.2</ele>
        <time>2025-09-28T09:05:49Z</time>
      </trkpt>
      <trkpt lat="45.67903" lon="3.08164">
        <ele>709.4</ele>
        <time>2025-09-28T09:05:50Z</time>
      </trkpt>
      <trkpt lat="45.67905" lon="3.08167">
        <ele>709.4</ele>
        <time>2025-09-28T09:05:51Z</time>
      </trkpt>
      <trkpt lat="45.67907" lon="3.08169">
        <ele>709.6</ele>
        <time>2025-09-28T09:05:52Z</time>
      </trkpt>
      <trkpt lat="45.6791" lon="3.08171">
        <ele>709.6</ele>
        <time>2025-09-28T09:05:53Z</time>
      </trkpt>
      <trkpt lat="45.67912" lon="3.08172">
        <ele>709.6</ele>
        <time>2025-09-28T09:05:54Z</time>
      </trkpt>
      <trkpt lat="45.67914" lon="3.08174">
        <ele>709.8</ele>
        <time>2025-09-28T09:05:55Z</time>
      </trkpt>
      <trkpt lat="45.67917" lon="3.08175">
        <ele>709.8</ele>
        <time>2025-09-28T09:05:56Z</time>
      </trkpt>
      <trkpt lat="45.67919" lon="3.08177">
        <ele>709.8</ele>
        <time>2025-09-28T09:05:57Z</time>
      </trkpt>
      <trkpt lat="45.67922" lon="3.08178">
        <ele>710</ele>
        <time>2025-09-28T09:05:58Z</time>
      </trkpt>
      <trkpt lat="45.67924" lon="3.08181">
        <ele>710</ele>
        <time>2025-09-28T09:05:59Z</time>
      </trkpt>
      <trkpt lat="45.67927" lon="3.08183">
        <ele>710.2</ele>
        <time>2025-09-28T09:06:00Z</time>
      </trkpt>
      <trkpt lat="45.67929" lon="3.08186">
        <ele>710.2</ele>
        <time>2025-09-28T09:06:01Z</time>
      </trkpt>
      <trkpt lat="45.67931" lon="3.08189">
        <ele>710.4</ele>
        <time>2025-09-28T09:06:02Z</time>
      </trkpt>
      <trkpt lat="45.67934" lon="3.08192">
        <ele>710.6</ele>
        <time>2025-09-28T09:06:03Z</time>
      </trkpt>
      <trkpt lat="45.67936" lon="3.08195">
        <ele>710.6</ele>
        <time>2025-09-28T09:06:04Z</time>
      </trkpt>
      <trkpt lat="45.67939" lon="3.08198">
        <ele>710.8</ele>
        <time>2025-09-28T09:06:05Z</time>
      </trkpt>
      <trkpt lat="45.67942" lon="3.082">
        <ele>711</ele>
        <time>2025-09-28T09:06:06Z</time>
      </trkpt>
      <trkpt lat="45.67944" lon="3.08201">
        <ele>711.2</ele>
        <time>2025-09-28T09:06:07Z</time>
      </trkpt>
      <trkpt lat="45.67947" lon="3.08203">
        <ele>711.2</ele>
        <time>2025-09-28T09:06:08Z</time>
      </trkpt>
      <trkpt lat="45.6795" lon="3.08204">
        <ele>711.4</ele>
        <time>2025-09-28T09:06:09Z</time>
      </trkpt>
      <trkpt lat="45.67953" lon="3.08206">
        <ele>711.6</ele>
        <time>2025-09-28T09:06:10Z</time>
      </trkpt>
      <trkpt lat="45.67956" lon="3.08207">
        <ele>711.8</ele>
        <time>2025-09-28T09:06:11Z</time>
      </trkpt>
      <trkpt lat="45.67958" lon="3.08209">
        <ele>712</ele>
        <time>2025-09-28T09:06:12Z</time>
      </trkpt>
      <trkpt lat="45.67961" lon="3.08211">
        <ele>712.2</ele>
        <time>2025-09-28T09:06:13Z</time>
      </trkpt>
      <trkpt lat="45.67964" lon="3.08213">
        <ele>712.4</ele>
        <time>2025-09-28T09:06:14Z</time>
      </trkpt>
      <trkpt lat="45.67966" lon="3.08214">
        <ele>712.6</ele>
        <time>2025-09-28T09:06:15Z</time>
      </trkpt>
      <trkpt lat="45.67969" lon="3.08216">
        <ele>712.8</ele>
        <time>2025-09-28T09:06:16Z</time>
      </trkpt>
      <trkpt lat="45.67972" lon="3.08218">
        <ele>713</ele>
        <time>2025-09-28T09:06:17Z</time>
      </trkpt>
      <trkpt lat="45.67974" lon="3.0822">
        <ele>713.2</ele>
        <time>2025-09-28T09:06:18Z</time>
      </trkpt>
      <trkpt lat="45.67976" lon="3.08223">
        <ele>713.4</ele>
        <time>2025-09-28T09:06:19Z</time>
      </trkpt>
      <trkpt lat="45.67978" lon="3.08226">
        <ele>713.6</ele>
        <time>2025-09-28T09:06:20Z</time>
      </trkpt>
      <trkpt lat="45.6798" lon="3.08229">
        <ele>713.6</ele>
        <time>2025-09-28T09:06:21Z</time>
      </trkpt>
      <trkpt lat="45.67982" lon="3.08232">
        <ele>713.8</ele>
        <time>2025-09-28T09:06:22Z</time>
      </trkpt>
      <trkpt lat="45.67984" lon="3.08236">
        <ele>714</ele>
        <time>2025-09-28T09:06:23Z</time>
      </trkpt>
      <trkpt lat="45.67985" lon="3.08239">
        <ele>714.2</ele>
        <time>2025-09-28T09:06:24Z</time>
      </trkpt>
      <trkpt lat="45.67986" lon="3.08243">
        <ele>714.4</ele>
        <time>2025-09-28T09:06:25Z</time>
      </trkpt>
      <trkpt lat="45.67987" lon="3.08246">
        <ele>714.4</ele>
        <time>2025-09-28T09:06:26Z</time>
      </trkpt>
      <trkpt lat="45.67988" lon="3.0825">
        <ele>714.6</ele>
        <time>2025-09-28T09:06:27Z</time>
      </trkpt>
      <trkpt lat="45.67989" lon="3.08254">
        <ele>714.8</ele>
        <time>2025-09-28T09:06:28Z</time>
      </trkpt>
      <trkpt lat="45.6799" lon="3.08259">
        <ele>714.8</ele>
        <time>2025-09-28T09:06:29Z</time>
      </trkpt>
      <trkpt lat="45.67991" lon="3.08263">
        <ele>715</ele>
        <time>2025-09-28T09:06:30Z</time>
      </trkpt>
      <trkpt lat="45.67993" lon="3.08267">
        <ele>715.2</ele>
        <time>2025-09-28T09:06:31Z</time>
      </trkpt>
      <trkpt lat="45.67994" lon="3.08271">
        <ele>715.2</ele>
        <time>2025-09-28T09:06:32Z</time>
      </trkpt>
      <trkpt lat="45.67994" lon="3.08275">
        <ele>715.4</ele>
        <time>2025-09-28T09:06:33Z</time>
      </trkpt>
      <trkpt lat="45.67996" lon="3.0828">
        <ele>715.6</ele>
        <time>2025-09-28T09:06:34Z</time>
      </trkpt>
      <trkpt lat="45.67997" lon="3.08284">
        <ele>715.6</ele>
        <time>2025-09-28T09:06:35Z</time>
      </trkpt>
      <trkpt lat="45.67997" lon="3.08288">
        <ele>715.8</ele>
        <time>2025-09-28T09:06:36Z</time>
      </trkpt>
      <trkpt lat="45.67998" lon="3.08293">
        <ele>716</ele>
        <time>2025-09-28T09:06:37Z</time>
      </trkpt>
      <trkpt lat="45.67999" lon="3.08297">
        <ele>716</ele>
        <time>2025-09-28T09:06:38Z</time>
      </trkpt>
      <trkpt lat="45.68" lon="3.08301">
        <ele>716.2</ele>
        <time>2025-09-28T09:06:39Z</time>
      </trkpt>
      <trkpt lat="45.68001" lon="3.08305">
        <ele>716.4</ele>
        <time>2025-09-28T09:06:40Z</time>
      </trkpt>
      <trkpt lat="45.68002" lon="3.0831">
        <ele>716.4</ele>
        <time>2025-09-28T09:06:41Z</time>
      </trkpt>
      <trkpt lat="45.68002" lon="3.08314">
        <ele>716.6</ele>
        <time>2025-09-28T09:06:42Z</time>
      </trkpt>
      <trkpt lat="45.68003" lon="3.08319">
        <ele>716.6</ele>
        <time>2025-09-28T09:06:43Z</time>
      </trkpt>
      <trkpt lat="45.68004" lon="3.08323">
        <ele>716.6</ele>
        <time>2025-09-28T09:06:44Z</time>
      </trkpt>
      <trkpt lat="45.68004" lon="3.08327">
        <ele>716.6</ele>
        <time>2025-09-28T09:06:45Z</time>
      </trkpt>
      <trkpt lat="45.68004" lon="3.08332">
        <ele>716.6</ele>
        <time>2025-09-28T09:06:46Z</time>
      </trkpt>
      <trkpt lat="45.68004" lon="3.08336">
        <ele>716.6</ele>
        <time>2025-09-28T09:06:47Z</time>
      </trkpt>
      <trkpt lat="45.68005" lon="3.0834">
        <ele>716.6</ele>
        <time>2025-09-28T09:06:48Z</time>
      </trkpt>
      <trkpt lat="45.68005" lon="3.08344">
        <ele>716.6</ele>
        <time>2025-09-28T09:06:49Z</time>
      </trkpt>
      <trkpt lat="45.68006" lon="3.08348">
        <ele>716.6</ele>
        <time>2025-09-28T09:06:50Z</time>
      </trkpt>
      <trkpt lat="45.68006" lon="3.08353">
        <ele>716.6</ele>
        <time>2025-09-28T09:06:51Z</time>
      </trkpt>
      <trkpt lat="45.68006" lon="3.08359">
        <ele>716.4</ele>
        <time>2025-09-28T09:06:52Z</time>
      </trkpt>
      <trkpt lat="45.68006" lon="3.08365">
        <ele>716.4</ele>
        <time>2025-09-28T09:06:53Z</time>
      </trkpt>
      <trkpt lat="45.68005" lon="3.08372">
        <ele>716.4</ele>
        <time>2025-09-28T09:06:54Z</time>
      </trkpt>
      <trkpt lat="45.68005" lon="3.08378">
        <ele>716.2</ele>
        <time>2025-09-28T09:06:55Z</time>
      </trkpt>
      <trkpt lat="45.68005" lon="3.08384">
        <ele>716.2</ele>
        <time>2025-09-28T09:06:56Z</time>
      </trkpt>
      <trkpt lat="45.68005" lon="3.08391">
        <ele>716</ele>
        <time>2025-09-28T09:06:57Z</time>
      </trkpt>
      <trkpt lat="45.68006" lon="3.08398">
        <ele>715.8</ele>
        <time>2025-09-28T09:06:58Z</time>
      </trkpt>
      <trkpt lat="45.68006" lon="3.08406">
        <ele>715.8</ele>
        <time>2025-09-28T09:06:59Z</time>
      </trkpt>
      <trkpt lat="45.68007" lon="3.08414">
        <ele>715.6</ele>
        <time>2025-09-28T09:07:00Z</time>
      </trkpt>
      <trkpt lat="45.68009" lon="3.08422">
        <ele>715.4</ele>
        <time>2025-09-28T09:07:01Z</time>
      </trkpt>
      <trkpt lat="45.6801" lon="3.08431">
        <ele>715.2</ele>
        <time>2025-09-28T09:07:02Z</time>
      </trkpt>
      <trkpt lat="45.68012" lon="3.08438">
        <ele>715</ele>
        <time>2025-09-28T09:07:03Z</time>
      </trkpt>
      <trkpt lat="45.68013" lon="3.08444">
        <ele>714.8</ele>
        <time>2025-09-28T09:07:04Z</time>
      </trkpt>
      <trkpt lat="45.68015" lon="3.08451">
        <ele>714.6</ele>
        <time>2025-09-28T09:07:05Z</time>
      </trkpt>
      <trkpt lat="45.68016" lon="3.08457">
        <ele>714.4</ele>
        <time>2025-09-28T09:07:06Z</time>
      </trkpt>
      <trkpt lat="45.68017" lon="3.08463">
        <ele>714.2</ele>
        <time>2025-09-28T09:07:07Z</time>
      </trkpt>
      <trkpt lat="45.68018" lon="3.08469">
        <ele>714.2</ele>
        <time>2025-09-28T09:07:08Z</time>
      </trkpt>
      <trkpt lat="45.68019" lon="3.08476">
        <ele>714</ele>
        <time>2025-09-28T09:07:09Z</time>
      </trkpt>
      <trkpt lat="45.68021" lon="3.08483">
        <ele>713.8</ele>
        <time>2025-09-28T09:07:10Z</time>
      </trkpt>
      <trkpt lat="45.68022" lon="3.0849">
        <ele>713.6</ele>
        <time>2025-09-28T09:07:11Z</time>
      </trkpt>
      <trkpt lat="45.68024" lon="3.08497">
        <ele>713.4</ele>
        <time>2025-09-28T09:07:12Z</time>
      </trkpt>
      <trkpt lat="45.68025" lon="3.08504">
        <ele>713.2</ele>
        <time>2025-09-28T09:07:13Z</time>
      </trkpt>
      <trkpt lat="45.68026" lon="3.08512">
        <ele>713</ele>
        <time>2025-09-28T09:07:14Z</time>
      </trkpt>
      <trkpt lat="45.68027" lon="3.08521">
        <ele>712.8</ele>
        <time>2025-09-28T09:07:15Z</time>
      </trkpt>
      <trkpt lat="45.68028" lon="3.0853">
        <ele>712.6</ele>
        <time>2025-09-28T09:07:16Z</time>
      </trkpt>
      <trkpt lat="45.6803" lon="3.08539">
        <ele>712.4</ele>
        <time>2025-09-28T09:07:17Z</time>
      </trkpt>
      <trkpt lat="45.68033" lon="3.08549">
        <ele>712</ele>
        <time>2025-09-28T09:07:18Z</time>
      </trkpt>
      <trkpt lat="45.68035" lon="3.08559">
        <ele>711.8</ele>
        <time>2025-09-28T09:07:19Z</time>
      </trkpt>
      <trkpt lat="45.68037" lon="3.08568">
        <ele>711.4</ele>
        <time>2025-09-28T09:07:20Z</time>
      </trkpt>
      <trkpt lat="45.68039" lon="3.08576">
        <ele>711</ele>
        <time>2025-09-28T09:07:21Z</time>
      </trkpt>
      <trkpt lat="45.68041" lon="3.08585">
        <ele>710.8</ele>
        <time>2025-09-28T09:07:22Z</time>
      </trkpt>
      <trkpt lat="45.68043" lon="3.08594">
        <ele>710.4</ele>
        <time>2025-09-28T09:07:23Z</time>
      </trkpt>
      <trkpt lat="45.68045" lon="3.08603">
        <ele>710</ele>
        <time>2025-09-28T09:07:24Z</time>
      </trkpt>
      <trkpt lat="45.68047" lon="3.08611">
        <ele>709.8</ele>
        <time>2025-09-28T09:07:25Z</time>
      </trkpt>
      <trkpt lat="45.68049" lon="3.08619">
        <ele>709.6</ele>
        <time>2025-09-28T09:07:26Z</time>
      </trkpt>
      <trkpt lat="45.68051" lon="3.08626">
        <ele>709.2</ele>
        <time>2025-09-28T09:07:27Z</time>
      </trkpt>
      <trkpt lat="45.68054" lon="3.08633">
        <ele>709</ele>
        <time>2025-09-28T09:07:28Z</time>
      </trkpt>
      <trkpt lat="45.68057" lon="3.08639">
        <ele>708.8</ele>
        <time>2025-09-28T09:07:29Z</time>
      </trkpt>
      <trkpt lat="45.6806" lon="3.08645">
        <ele>708.6</ele>
        <time>2025-09-28T09:07:30Z</time>
      </trkpt>
      <trkpt lat="45.68064" lon="3.08651">
        <ele>708.2</ele>
        <time>2025-09-28T09:07:31Z</time>
      </trkpt>
      <trkpt lat="45.68068" lon="3.08658">
        <ele>707.8</ele>
        <time>2025-09-28T09:07:32Z</time>
      </trkpt>
      <trkpt lat="45.68072" lon="3.08665">
        <ele>707.4</ele>
        <time>2025-09-28T09:07:33Z</time>
      </trkpt>
      <trkpt lat="45.68075" lon="3.08673">
        <ele>707</ele>
        <time>2025-09-28T09:07:34Z</time>
      </trkpt>
      <trkpt lat="45.68079" lon="3.08681">
        <ele>706.6</ele>
        <time>2025-09-28T09:07:35Z</time>
      </trkpt>
      <trkpt lat="45.68082" lon="3.08689">
        <ele>706</ele>
        <time>2025-09-28T09:07:36Z</time>
      </trkpt>
      <trkpt lat="45.68085" lon="3.08698">
        <ele>705.6</ele>
        <time>2025-09-28T09:07:37Z</time>
      </trkpt>
      <trkpt lat="45.68087" lon="3.08708">
        <ele>705.2</ele>
        <time>2025-09-28T09:07:38Z</time>
      </trkpt>
      <trkpt lat="45.68089" lon="3.08717">
        <ele>704.6</ele>
        <time>2025-09-28T09:07:39Z</time>
      </trkpt>
      <trkpt lat="45.68091" lon="3.08727">
        <ele>704</ele>
        <time>2025-09-28T09:07:40Z</time>
      </trkpt>
      <trkpt lat="45.68093" lon="3.08737">
        <ele>703.6</ele>
        <time>2025-09-28T09:07:41Z</time>
      </trkpt>
      <trkpt lat="45.68095" lon="3.08749">
        <ele>703.2</ele>
        <time>2025-09-28T09:07:42Z</time>
      </trkpt>
      <trkpt lat="45.68097" lon="3.0876">
        <ele>702.6</ele>
        <time>2025-09-28T09:07:43Z</time>
      </trkpt>
      <trkpt lat="45.681" lon="3.08771">
        <ele>702</ele>
        <time>2025-09-28T09:07:44Z</time>
      </trkpt>
      <trkpt lat="45.68101" lon="3.08781">
        <ele>701.4</ele>
        <time>2025-09-28T09:07:45Z</time>
      </trkpt>
      <trkpt lat="45.68102" lon="3.08788">
        <ele>700.8</ele>
        <time>2025-09-28T09:07:46Z</time>
      </trkpt>
      <trkpt lat="45.68103" lon="3.08794">
        <ele>700.2</ele>
        <time>2025-09-28T09:07:47Z</time>
      </trkpt>
      <trkpt lat="45.68105" lon="3.08798">
        <ele>700</ele>
        <time>2025-09-28T09:07:48Z</time>
      </trkpt>
      <trkpt lat="45.68107" lon="3.08801">
        <ele>699.6</ele>
        <time>2025-09-28T09:07:49Z</time>
      </trkpt>
      <trkpt lat="45.68108" lon="3.08801">
        <ele>699.4</ele>
        <time>2025-09-28T09:07:50Z</time>
      </trkpt>
      <trkpt lat="45.6811" lon="3.08801">
        <ele>699.2</ele>
        <time>2025-09-28T09:07:51Z</time>
      </trkpt>
      <trkpt lat="45.68112" lon="3.08799">
        <ele>699.2</ele>
        <time>2025-09-28T09:07:52Z</time>
      </trkpt>
      <trkpt lat="45.68114" lon="3.08798">
        <ele>699.2</ele>
        <time>2025-09-28T09:07:53Z</time>
      </trkpt>
      <trkpt lat="45.68116" lon="3.08796">
        <ele>699.2</ele>
        <time>2025-09-28T09:07:54Z</time>
      </trkpt>
      <trkpt lat="45.68117" lon="3.08794">
        <ele>699.4</ele>
        <time>2025-09-28T09:07:55Z</time>
      </trkpt>
      <trkpt lat="45.68119" lon="3.08792">
        <ele>699.4</ele>
        <time>2025-09-28T09:07:56Z</time>
      </trkpt>
      <trkpt lat="45.68121" lon="3.08789">
        <ele>699.6</ele>
        <time>2025-09-28T09:07:57Z</time>
      </trkpt>
      <trkpt lat="45.68122" lon="3.08785">
        <ele>699.8</ele>
        <time>2025-09-28T09:07:58Z</time>
      </trkpt>
      <trkpt lat="45.68124" lon="3.08782">
        <ele>700</ele>
        <time>2025-09-28T09:07:59Z</time>
      </trkpt>
      <trkpt lat="45.68126" lon="3.08779">
        <ele>700.2</ele>
        <time>2025-09-28T09:08:00Z</time>
      </trkpt>
      <trkpt lat="45.68128" lon="3.08776">
        <ele>700.4</ele>
        <time>2025-09-28T09:08:01Z</time>
      </trkpt>
      <trkpt lat="45.6813" lon="3.08772">
        <ele>700.8</ele>
        <time>2025-09-28T09:08:02Z</time>
      </trkpt>
      <trkpt lat="45.68131" lon="3.08767">
        <ele>701</ele>
        <time>2025-09-28T09:08:03Z</time>
      </trkpt>
      <trkpt lat="45.68133" lon="3.08763">
        <ele>701.2</ele>
        <time>2025-09-28T09:08:04Z</time>
      </trkpt>
      <trkpt lat="45.68135" lon="3.08758">
        <ele>701.6</ele>
        <time>2025-09-28T09:08:05Z</time>
      </trkpt>
      <trkpt lat="45.68138" lon="3.08753">
        <ele>701.8</ele>
        <time>2025-09-28T09:08:06Z</time>
      </trkpt>
      <trkpt lat="45.6814" lon="3.08748">
        <ele>702.2</ele>
        <time>2025-09-28T09:08:07Z</time>
      </trkpt>
      <trkpt lat="45.68142" lon="3.08744">
        <ele>702.4</ele>
        <time>2025-09-28T09:08:08Z</time>
      </trkpt>
      <trkpt lat="45.68144" lon="3.08739">
        <ele>702.8</ele>
        <time>2025-09-28T09:08:09Z</time>
      </trkpt>
      <trkpt lat="45.68145" lon="3.08735">
        <ele>703</ele>
        <time>2025-09-28T09:08:10Z</time>
      </trkpt>
      <trkpt lat="45.68146" lon="3.08731">
        <ele>703.2</ele>
        <time>2025-09-28T09:08:11Z</time>
      </trkpt>
      <trkpt lat="45.68147" lon="3.08728">
        <ele>703.4</ele>
        <time>2025-09-28T09:08:12Z</time>
      </trkpt>
      <trkpt lat="45.68148" lon="3.08725">
        <ele>703.6</ele>
        <time>2025-09-28T09:08:13Z</time>
      </trkpt>
      <trkpt lat="45.68149" lon="3.08723">
        <ele>703.8</ele>
        <time>2025-09-28T09:08:14Z</time>
      </trkpt>
      <trkpt lat="45.6815" lon="3.0872">
        <ele>704</ele>
        <time>2025-09-28T09:08:15Z</time>
      </trkpt>
      <trkpt lat="45.68151" lon="3.08717">
        <ele>704.2</ele>
        <time>2025-09-28T09:08:16Z</time>
      </trkpt>
      <trkpt lat="45.68152" lon="3.08714">
        <ele>704.4</ele>
        <time>2025-09-28T09:08:17Z</time>
      </trkpt>
      <trkpt lat="45.68153" lon="3.08711">
        <ele>704.8</ele>
        <time>2025-09-28T09:08:18Z</time>
      </trkpt>
      <trkpt lat="45.68153" lon="3.08708">
        <ele>705</ele>
        <time>2025-09-28T09:08:19Z</time>
      </trkpt>
      <trkpt lat="45.68154" lon="3.08704">
        <ele>705.4</ele>
        <time>2025-09-28T09:08:20Z</time>
      </trkpt>
      <trkpt lat="45.68155" lon="3.087">
        <ele>705.6</ele>
        <time>2025-09-28T09:08:21Z</time>
      </trkpt>
      <trkpt lat="45.68156" lon="3.08695">
        <ele>706</ele>
        <time>2025-09-28T09:08:22Z</time>
      </trkpt>
      <trkpt lat="45.68157" lon="3.0869">
        <ele>706.4</ele>
        <time>2025-09-28T09:08:23Z</time>
      </trkpt>
      <trkpt lat="45.68158" lon="3.08686">
        <ele>706.8</ele>
        <time>2025-09-28T09:08:24Z</time>
      </trkpt>
      <trkpt lat="45.68158" lon="3.08682">
        <ele>707</ele>
        <time>2025-09-28T09:08:25Z</time>
      </trkpt>
      <trkpt lat="45.68159" lon="3.08678">
        <ele>707.4</ele>
        <time>2025-09-28T09:08:26Z</time>
      </trkpt>
      <trkpt lat="45.68161" lon="3.08673">
        <ele>707.8</ele>
        <time>2025-09-28T09:08:27Z</time>
      </trkpt>
      <trkpt lat="45.68162" lon="3.0867">
        <ele>708.2</ele>
        <time>2025-09-28T09:08:28Z</time>
      </trkpt>
      <trkpt lat="45.68163" lon="3.08665">
        <ele>708.6</ele>
        <time>2025-09-28T09:08:29Z</time>
      </trkpt>
      <trkpt lat="45.68164" lon="3.08661">
        <ele>709</ele>
        <time>2025-09-28T09:08:30Z</time>
      </trkpt>
      <trkpt lat="45.68164" lon="3.08656">
        <ele>709.2</ele>
        <time>2025-09-28T09:08:31Z</time>
      </trkpt>
      <trkpt lat="45.68165" lon="3.08652">
        <ele>709.6</ele>
        <time>2025-09-28T09:08:32Z</time>
      </trkpt>
      <trkpt lat="45.68166" lon="3.08647">
        <ele>710</ele>
        <time>2025-09-28T09:08:33Z</time>
      </trkpt>
      <trkpt lat="45.68167" lon="3.08643">
        <ele>710.2</ele>
        <time>2025-09-28T09:08:34Z</time>
      </trkpt>
      <trkpt lat="45.68168" lon="3.08639">
        <ele>710.6</ele>
        <time>2025-09-28T09:08:35Z</time>
      </trkpt>
      <trkpt lat="45.68168" lon="3.08635">
        <ele>711</ele>
        <time>2025-09-28T09:08:36Z</time>
      </trkpt>
      <trkpt lat="45.68168" lon="3.08632">
        <ele>711.4</ele>
        <time>2025-09-28T09:08:37Z</time>
      </trkpt>
      <trkpt lat="45.68168" lon="3.08628">
        <ele>711.6</ele>
        <time>2025-09-28T09:08:38Z</time>
      </trkpt>
      <trkpt lat="45.68169" lon="3.08624">
        <ele>711.8</ele>
        <time>2025-09-28T09:08:39Z</time>
      </trkpt>
      <trkpt lat="45.68169" lon="3.0862">
        <ele>712</ele>
        <time>2025-09-28T09:08:40Z</time>
      </trkpt>
      <trkpt lat="45.6817" lon="3.08616">
        <ele>712.2</ele>
        <time>2025-09-28T09:08:41Z</time>
      </trkpt>
      <trkpt lat="45.68171" lon="3.08611">
        <ele>712.6</ele>
        <time>2025-09-28T09:08:42Z</time>
      </trkpt>
      <trkpt lat="45.68171" lon="3.08605">
        <ele>712.8</ele>
        <time>2025-09-28T09:08:43Z</time>
      </trkpt>
      <trkpt lat="45.68171" lon="3.08599">
        <ele>713</ele>
        <time>2025-09-28T09:08:44Z</time>
      </trkpt>
      <trkpt lat="45.68171" lon="3.08594">
        <ele>713.2</ele>
        <time>2025-09-28T09:08:45Z</time>
      </trkpt>
      <trkpt lat="45.68172" lon="3.08588">
        <ele>713.6</ele>
        <time>2025-09-28T09:08:46Z</time>
      </trkpt>
      <trkpt lat="45.68172" lon="3.08583">
        <ele>713.8</ele>
        <time>2025-09-28T09:08:47Z</time>
      </trkpt>
      <trkpt lat="45.68172" lon="3.08579">
        <ele>714</ele>
        <time>2025-09-28T09:08:48Z</time>
      </trkpt>
      <trkpt lat="45.68172" lon="3.08574">
        <ele>714.2</ele>
        <time>2025-09-28T09:08:49Z</time>
      </trkpt>
      <trkpt lat="45.68173" lon="3.08569">
        <ele>714.4</ele>
        <time>2025-09-28T09:08:50Z</time>
      </trkpt>
      <trkpt lat="45.68175" lon="3.08566">
        <ele>714.4</ele>
        <time>2025-09-28T09:08:51Z</time>
      </trkpt>
      <trkpt lat="45.68177" lon="3.08562">
        <ele>714.6</ele>
        <time>2025-09-28T09:08:52Z</time>
      </trkpt>
      <trkpt lat="45.68179" lon="3.08559">
        <ele>714.8</ele>
        <time>2025-09-28T09:08:53Z</time>
      </trkpt>
      <trkpt lat="45.68182" lon="3.08555">
        <ele>715</ele>
        <time>2025-09-28T09:08:54Z</time>
      </trkpt>
      <trkpt lat="45.68183" lon="3.08551">
        <ele>715</ele>
        <time>2025-09-28T09:08:55Z</time>
      </trkpt>
      <trkpt lat="45.68185" lon="3.08547">
        <ele>715.2</ele>
        <time>2025-09-28T09:08:56Z</time>
      </trkpt>
      <trkpt lat="45.68186" lon="3.08543">
        <ele>715.4</ele>
        <time>2025-09-28T09:08:57Z</time>
      </trkpt>
      <trkpt lat="45.68188" lon="3.0854">
        <ele>715.4</ele>
        <time>2025-09-28T09:08:58Z</time>
      </trkpt>
      <trkpt lat="45.68189" lon="3.08536">
        <ele>715.6</ele>
        <time>2025-09-28T09:08:59Z</time>
      </trkpt>
      <trkpt lat="45.68191" lon="3.08532">
        <ele>715.8</ele>
        <time>2025-09-28T09:09:00Z</time>
      </trkpt>
      <trkpt lat="45.68193" lon="3.08528">
        <ele>716</ele>
        <time>2025-09-28T09:09:01Z</time>
      </trkpt>
      <trkpt lat="45.68194" lon="3.08524">
        <ele>716.2</ele>
        <time>2025-09-28T09:09:02Z</time>
      </trkpt>
      <trkpt lat="45.68195" lon="3.0852">
        <ele>716.4</ele>
        <time>2025-09-28T09:09:03Z</time>
      </trkpt>
      <trkpt lat="45.68196" lon="3.08516">
        <ele>716.6</ele>
        <time>2025-09-28T09:09:04Z</time>
      </trkpt>
      <trkpt lat="45.68197" lon="3.08512">
        <ele>716.8</ele>
        <time>2025-09-28T09:09:05Z</time>
      </trkpt>
      <trkpt lat="45.68197" lon="3.08508">
        <ele>717</ele>
        <time>2025-09-28T09:09:06Z</time>
      </trkpt>
      <trkpt lat="45.68199" lon="3.08505">
        <ele>717.2</ele>
        <time>2025-09-28T09:09:07Z</time>
      </trkpt>
      <trkpt lat="45.682" lon="3.08502">
        <ele>717.4</ele>
        <time>2025-09-28T09:09:08Z</time>
      </trkpt>
      <trkpt lat="45.68202" lon="3.08499">
        <ele>717.6</ele>
        <time>2025-09-28T09:09:09Z</time>
      </trkpt>
      <trkpt lat="45.68203" lon="3.08496">
        <ele>717.6</ele>
        <time>2025-09-28T09:09:10Z</time>
      </trkpt>
      <trkpt lat="45.68204" lon="3.08493">
        <ele>717.8</ele>
        <time>2025-09-28T09:09:11Z</time>
      </trkpt>
      <trkpt lat="45.68205" lon="3.0849">
        <ele>718</ele>
        <time>2025-09-28T09:09:12Z</time>
      </trkpt>
      <trkpt lat="45.68206" lon="3.08487">
        <ele>718</ele>
        <time>2025-09-28T09:09:13Z</time>
      </trkpt>
      <trkpt lat="45.68207" lon="3.08483">
        <ele>718.2</ele>
        <time>2025-09-28T09:09:14Z</time>
      </trkpt>
      <trkpt lat="45.68207" lon="3.0848">
        <ele>718.2</ele>
        <time>2025-09-28T09:09:15Z</time>
      </trkpt>
      <trkpt lat="45.68208" lon="3.08476">
        <ele>718.4</ele>
        <time>2025-09-28T09:09:16Z</time>
      </trkpt>
      <trkpt lat="45.68208" lon="3.08472">
        <ele>718.6</ele>
        <time>2025-09-28T09:09:17Z</time>
      </trkpt>
      <trkpt lat="45.68208" lon="3.08469">
        <ele>718.6</ele>
        <time>2025-09-28T09:09:18Z</time>
      </trkpt>
      <trkpt lat="45.68209" lon="3.08465">
        <ele>718.8</ele>
        <time>2025-09-28T09:09:19Z</time>
      </trkpt>
      <trkpt lat="45.68208" lon="3.08462">
        <ele>719</ele>
        <time>2025-09-28T09:09:20Z</time>
      </trkpt>
      <trkpt lat="45.68208" lon="3.08458">
        <ele>719</ele>
        <time>2025-09-28T09:09:21Z</time>
      </trkpt>
      <trkpt lat="45.68208" lon="3.08454">
        <ele>719.2</ele>
        <time>2025-09-28T09:09:22Z</time>
      </trkpt>
      <trkpt lat="45.68208" lon="3.0845">
        <ele>719.2</ele>
        <time>2025-09-28T09:09:23Z</time>
      </trkpt>
      <trkpt lat="45.68208" lon="3.08447">
        <ele>719.4</ele>
        <time>2025-09-28T09:09:24Z</time>
      </trkpt>
      <trkpt lat="45.68208" lon="3.08443">
        <ele>719.4</ele>
        <time>2025-09-28T09:09:25Z</time>
      </trkpt>
      <trkpt lat="45.68208" lon="3.0844">
        <ele>719.6</ele>
        <time>2025-09-28T09:09:26Z</time>
      </trkpt>
      <trkpt lat="45.68208" lon="3.08436">
        <ele>719.6</ele>
        <time>2025-09-28T09:09:27Z</time>
      </trkpt>
      <trkpt lat="45.68208" lon="3.08432">
        <ele>719.8</ele>
        <time>2025-09-28T09:09:28Z</time>
      </trkpt>
      <trkpt lat="45.68208" lon="3.08428">
        <ele>719.8</ele>
        <time>2025-09-28T09:09:29Z</time>
      </trkpt>
      <trkpt lat="45.68209" lon="3.08425">
        <ele>720</ele>
        <time>2025-09-28T09:09:30Z</time>
      </trkpt>
      <trkpt lat="45.6821" lon="3.08421">
        <ele>720</ele>
        <time>2025-09-28T09:09:31Z</time>
      </trkpt>
      <trkpt lat="45.68211" lon="3.08417">
        <ele>720</ele>
        <time>2025-09-28T09:09:32Z</time>
      </trkpt>
      <trkpt lat="45.68211" lon="3.08413">
        <ele>720.2</ele>
        <time>2025-09-28T09:09:33Z</time>
      </trkpt>
      <trkpt lat="45.68212" lon="3.0841">
        <ele>720.2</ele>
        <time>2025-09-28T09:09:34Z</time>
      </trkpt>
      <trkpt lat="45.68214" lon="3.08406">
        <ele>720.4</ele>
        <time>2025-09-28T09:09:35Z</time>
      </trkpt>
      <trkpt lat="45.68215" lon="3.08403">
        <ele>720.4</ele>
        <time>2025-09-28T09:09:36Z</time>
      </trkpt>
      <trkpt lat="45.68216" lon="3.08399">
        <ele>720.6</ele>
        <time>2025-09-28T09:09:37Z</time>
      </trkpt>
      <trkpt lat="45.68217" lon="3.08396">
        <ele>720.8</ele>
        <time>2025-09-28T09:09:38Z</time>
      </trkpt>
      <trkpt lat="45.68219" lon="3.08393">
        <ele>721</ele>
        <time>2025-09-28T09:09:39Z</time>
      </trkpt>
      <trkpt lat="45.6822" lon="3.08389">
        <ele>721</ele>
        <time>2025-09-28T09:09:40Z</time>
      </trkpt>
      <trkpt lat="45.68221" lon="3.08386">
        <ele>721.2</ele>
        <time>2025-09-28T09:09:41Z</time>
      </trkpt>
      <trkpt lat="45.68222" lon="3.08382">
        <ele>721.2</ele>
        <time>2025-09-28T09:09:42Z</time>
      </trkpt>
      <trkpt lat="45.68223" lon="3.08379">
        <ele>721.4</ele>
        <time>2025-09-28T09:09:43Z</time>
      </trkpt>
      <trkpt lat="45.68224" lon="3.08375">
        <ele>721.6</ele>
        <time>2025-09-28T09:09:44Z</time>
      </trkpt>
      <trkpt lat="45.68226" lon="3.08372">
        <ele>721.6</ele>
        <time>2025-09-28T09:09:45Z</time>
      </trkpt>
      <trkpt lat="45.68228" lon="3.08368">
        <ele>721.8</ele>
        <time>2025-09-28T09:09:46Z</time>
      </trkpt>
      <trkpt lat="45.68229" lon="3.08365">
        <ele>722</ele>
        <time>2025-09-28T09:09:47Z</time>
      </trkpt>
      <trkpt lat="45.68231" lon="3.08362">
        <ele>722</ele>
        <time>2025-09-28T09:09:48Z</time>
      </trkpt>
      <trkpt lat="45.68232" lon="3.08358">
        <ele>722.2</ele>
        <time>2025-09-28T09:09:49Z</time>
      </trkpt>
      <trkpt lat="45.68234" lon="3.08354">
        <ele>722.4</ele>
        <time>2025-09-28T09:09:50Z</time>
      </trkpt>
      <trkpt lat="45.68236" lon="3.08351">
        <ele>722.4</ele>
        <time>2025-09-28T09:09:51Z</time>
      </trkpt>
      <trkpt lat="45.68238" lon="3.08347">
        <ele>722.6</ele>
        <time>2025-09-28T09:09:52Z</time>
      </trkpt>
      <trkpt lat="45.6824" lon="3.08344">
        <ele>722.8</ele>
        <time>2025-09-28T09:09:53Z</time>
      </trkpt>
      <trkpt lat="45.68242" lon="3.0834">
        <ele>722.8</ele>
        <time>2025-09-28T09:09:54Z</time>
      </trkpt>
      <trkpt lat="45.68244" lon="3.08337">
        <ele>723</ele>
        <time>2025-09-28T09:09:55Z</time>
      </trkpt>
      <trkpt lat="45.68246" lon="3.08333">
        <ele>723</ele>
        <time>2025-09-28T09:09:56Z</time>
      </trkpt>
      <trkpt lat="45.68248" lon="3.08329">
        <ele>723.2</ele>
        <time>2025-09-28T09:09:57Z</time>
      </trkpt>
      <trkpt lat="45.6825" lon="3.08325">
        <ele>723.2</ele>
        <time>2025-09-28T09:09:58Z</time>
      </trkpt>
      <trkpt lat="45.68252" lon="3.08321">
        <ele>723.4</ele>
        <time>2025-09-28T09:09:59Z</time>
      </trkpt>
      <trkpt lat="45.68254" lon="3.08318">
        <ele>723.4</ele>
        <time>2025-09-28T09:10:00Z</time>
      </trkpt>
      <trkpt lat="45.68256" lon="3.08315">
        <ele>723.6</ele>
        <time>2025-09-28T09:10:01Z</time>
      </trkpt>
      <trkpt lat="45.68257" lon="3.08311">
        <ele>723.6</ele>
        <time>2025-09-28T09:10:02Z</time>
      </trkpt>
      <trkpt lat="45.68259" lon="3.08307">
        <ele>723.8</ele>
        <time>2025-09-28T09:10:03Z</time>
      </trkpt>
      <trkpt lat="45.68261" lon="3.08302">
        <ele>723.8</ele>
        <time>2025-09-28T09:10:04Z</time>
      </trkpt>
      <trkpt lat="45.68262" lon="3.08298">
        <ele>723.8</ele>
        <time>2025-09-28T09:10:05Z</time>
      </trkpt>
      <trkpt lat="45.68265" lon="3.08294">
        <ele>724</ele>
        <time>2025-09-28T09:10:06Z</time>
      </trkpt>
      <trkpt lat="45.68267" lon="3.08289">
        <ele>724</ele>
        <time>2025-09-28T09:10:07Z</time>
      </trkpt>
      <trkpt lat="45.68269" lon="3.08285">
        <ele>724.2</ele>
        <time>2025-09-28T09:10:08Z</time>
      </trkpt>
      <trkpt lat="45.68271" lon="3.08281">
        <ele>724.2</ele>
        <time>2025-09-28T09:10:09Z</time>
      </trkpt>
      <trkpt lat="45.68272" lon="3.08276">
        <ele>724.4</ele>
        <time>2025-09-28T09:10:10Z</time>
      </trkpt>
      <trkpt lat="45.68274" lon="3.08271">
        <ele>724.4</ele>
        <time>2025-09-28T09:10:11Z</time>
      </trkpt>
      <trkpt lat="45.68275" lon="3.08267">
        <ele>724.6</ele>
        <time>2025-09-28T09:10:12Z</time>
      </trkpt>
      <trkpt lat="45.68276" lon="3.08262">
        <ele>724.6</ele>
        <time>2025-09-28T09:10:13Z</time>
      </trkpt>
      <trkpt lat="45.68278" lon="3.08257">
        <ele>724.8</ele>
        <time>2025-09-28T09:10:14Z</time>
      </trkpt>
      <trkpt lat="45.68278" lon="3.08252">
        <ele>724.8</ele>
        <time>2025-09-28T09:10:15Z</time>
      </trkpt>
      <trkpt lat="45.68279" lon="3.08246">
        <ele>725</ele>
        <time>2025-09-28T09:10:16Z</time>
      </trkpt>
      <trkpt lat="45.6828" lon="3.08241">
        <ele>725</ele>
        <time>2025-09-28T09:10:17Z</time>
      </trkpt>
      <trkpt lat="45.68281" lon="3.08236">
        <ele>725</ele>
        <time>2025-09-28T09:10:18Z</time>
      </trkpt>
      <trkpt lat="45.68282" lon="3.08231">
        <ele>725.2</ele>
        <time>2025-09-28T09:10:19Z</time>
      </trkpt>
      <trkpt lat="45.68282" lon="3.08226">
        <ele>725.2</ele>
        <time>2025-09-28T09:10:20Z</time>
      </trkpt>
      <trkpt lat="45.68283" lon="3.0822">
        <ele>725.4</ele>
        <time>2025-09-28T09:10:21Z</time>
      </trkpt>
      <trkpt lat="45.68284" lon="3.08215">
        <ele>725.4</ele>
        <time>2025-09-28T09:10:22Z</time>
      </trkpt>
      <trkpt lat="45.68285" lon="3.08211">
        <ele>725.4</ele>
        <time>2025-09-28T09:10:23Z</time>
      </trkpt>
      <trkpt lat="45.68285" lon="3.08208">
        <ele>725.6</ele>
        <time>2025-09-28T09:10:24Z</time>
      </trkpt>
      <trkpt lat="45.68286" lon="3.08204">
        <ele>725.6</ele>
        <time>2025-09-28T09:10:25Z</time>
      </trkpt>
      <trkpt lat="45.68286" lon="3.082">
        <ele>725.6</ele>
        <time>2025-09-28T09:10:26Z</time>
      </trkpt>
      <trkpt lat="45.68286" lon="3.08195">
        <ele>725.8</ele>
        <time>2025-09-28T09:10:27Z</time>
      </trkpt>
      <trkpt lat="45.68286" lon="3.08189">
        <ele>725.8</ele>
        <time>2025-09-28T09:10:28Z</time>
      </trkpt>
      <trkpt lat="45.68288" lon="3.08184">
        <ele>725.8</ele>
        <time>2025-09-28T09:10:29Z</time>
      </trkpt>
      <trkpt lat="45.68289" lon="3.08179">
        <ele>725.8</ele>
        <time>2025-09-28T09:10:30Z</time>
      </trkpt>
      <trkpt lat="45.68291" lon="3.08173">
        <ele>725.8</ele>
        <time>2025-09-28T09:10:31Z</time>
      </trkpt>
      <trkpt lat="45.68293" lon="3.08168">
        <ele>725.8</ele>
        <time>2025-09-28T09:10:32Z</time>
      </trkpt>
      <trkpt lat="45.68294" lon="3.08163">
        <ele>726</ele>
        <time>2025-09-28T09:10:33Z</time>
      </trkpt>
      <trkpt lat="45.68296" lon="3.08158">
        <ele>726</ele>
        <time>2025-09-28T09:10:34Z</time>
      </trkpt>
      <trkpt lat="45.68297" lon="3.08153">
        <ele>726.2</ele>
        <time>2025-09-28T09:10:35Z</time>
      </trkpt>
      <trkpt lat="45.68298" lon="3.08148">
        <ele>726.2</ele>
        <time>2025-09-28T09:10:36Z</time>
      </trkpt>
      <trkpt lat="45.68299" lon="3.08143">
        <ele>726.2</ele>
        <time>2025-09-28T09:10:37Z</time>
      </trkpt>
      <trkpt lat="45.683" lon="3.08139">
        <ele>726.4</ele>
        <time>2025-09-28T09:10:38Z</time>
      </trkpt>
      <trkpt lat="45.68301" lon="3.08135">
        <ele>726.4</ele>
        <time>2025-09-28T09:10:39Z</time>
      </trkpt>
      <trkpt lat="45.68302" lon="3.08131">
        <ele>726.4</ele>
        <time>2025-09-28T09:10:40Z</time>
      </trkpt>
      <trkpt lat="45.68304" lon="3.08126">
        <ele>726.4</ele>
        <time>2025-09-28T09:10:41Z</time>
      </trkpt>
      <trkpt lat="45.68306" lon="3.0812">
        <ele>726.4</ele>
        <time>2025-09-28T09:10:42Z</time>
      </trkpt>
      <trkpt lat="45.68307" lon="3.08115">
        <ele>726.4</ele>
        <time>2025-09-28T09:10:43Z</time>
      </trkpt>
      <trkpt lat="45.68309" lon="3.08109">
        <ele>726.4</ele>
        <time>2025-09-28T09:10:44Z</time>
      </trkpt>
      <trkpt lat="45.6831" lon="3.08104">
        <ele>726.4</ele>
        <time>2025-09-28T09:10:45Z</time>
      </trkpt>
      <trkpt lat="45.68312" lon="3.08099">
        <ele>726.4</ele>
        <time>2025-09-28T09:10:46Z</time>
      </trkpt>
      <trkpt lat="45.68314" lon="3.08094">
        <ele>726.4</ele>
        <time>2025-09-28T09:10:47Z</time>
      </trkpt>
      <trkpt lat="45.68316" lon="3.08088">
        <ele>726.4</ele>
        <time>2025-09-28T09:10:48Z</time>
      </trkpt>
      <trkpt lat="45.68318" lon="3.08083">
        <ele>726.4</ele>
        <time>2025-09-28T09:10:49Z</time>
      </trkpt>
      <trkpt lat="45.68321" lon="3.08077">
        <ele>726.6</ele>
        <time>2025-09-28T09:10:50Z</time>
      </trkpt>
      <trkpt lat="45.68323" lon="3.08072">
        <ele>726.6</ele>
        <time>2025-09-28T09:10:51Z</time>
      </trkpt>
      <trkpt lat="45.68325" lon="3.08067">
        <ele>726.8</ele>
        <time>2025-09-28T09:10:52Z</time>
      </trkpt>
      <trkpt lat="45.68327" lon="3.08062">
        <ele>727</ele>
        <time>2025-09-28T09:10:53Z</time>
      </trkpt>
      <trkpt lat="45.68328" lon="3.08057">
        <ele>727.2</ele>
        <time>2025-09-28T09:10:54Z</time>
      </trkpt>
      <trkpt lat="45.68329" lon="3.08051">
        <ele>727.4</ele>
        <time>2025-09-28T09:10:55Z</time>
      </trkpt>
      <trkpt lat="45.68329" lon="3.08045">
        <ele>727.4</ele>
        <time>2025-09-28T09:10:56Z</time>
      </trkpt>
      <trkpt lat="45.68329" lon="3.08039">
        <ele>727.6</ele>
        <time>2025-09-28T09:10:57Z</time>
      </trkpt>
      <trkpt lat="45.6833" lon="3.08034">
        <ele>727.6</ele>
        <time>2025-09-28T09:10:58Z</time>
      </trkpt>
      <trkpt lat="45.68331" lon="3.08028">
        <ele>727.6</ele>
        <time>2025-09-28T09:10:59Z</time>
      </trkpt>
      <trkpt lat="45.68332" lon="3.08022">
        <ele>727.8</ele>
        <time>2025-09-28T09:11:00Z</time>
      </trkpt>
      <trkpt lat="45.68333" lon="3.08016">
        <ele>727.8</ele>
        <time>2025-09-28T09:11:01Z</time>
      </trkpt>
      <trkpt lat="45.68335" lon="3.0801">
        <ele>727.8</ele>
        <time>2025-09-28T09:11:02Z</time>
      </trkpt>
      <trkpt lat="45.68336" lon="3.08004">
        <ele>727.8</ele>
        <time>2025-09-28T09:11:03Z</time>
      </trkpt>
      <trkpt lat="45.68337" lon="3.07998">
        <ele>727.8</ele>
        <time>2025-09-28T09:11:04Z</time>
      </trkpt>
      <trkpt lat="45.68339" lon="3.07992">
        <ele>728</ele>
        <time>2025-09-28T09:11:05Z</time>
      </trkpt>
      <trkpt lat="45.68341" lon="3.07985">
        <ele>728</ele>
        <time>2025-09-28T09:11:06Z</time>
      </trkpt>
      <trkpt lat="45.68342" lon="3.07979">
        <ele>728</ele>
        <time>2025-09-28T09:11:07Z</time>
      </trkpt>
      <trkpt lat="45.68343" lon="3.07973">
        <ele>728.2</ele>
        <time>2025-09-28T09:11:08Z</time>
      </trkpt>
      <trkpt lat="45.68344" lon="3.07967">
        <ele>728.2</ele>
        <time>2025-09-28T09:11:09Z</time>
      </trkpt>
      <trkpt lat="45.68344" lon="3.0796">
        <ele>728.4</ele>
        <time>2025-09-28T09:11:10Z</time>
      </trkpt>
      <trkpt lat="45.68343" lon="3.07953">
        <ele>728.2</ele>
        <time>2025-09-28T09:11:11Z</time>
      </trkpt>
      <trkpt lat="45.68344" lon="3.07946">
        <ele>728.4</ele>
        <time>2025-09-28T09:11:12Z</time>
      </trkpt>
      <trkpt lat="45.68344" lon="3.07939">
        <ele>728.4</ele>
        <time>2025-09-28T09:11:13Z</time>
      </trkpt>
      <trkpt lat="45.68345" lon="3.07934">
        <ele>728.4</ele>
        <time>2025-09-28T09:11:14Z</time>
      </trkpt>
      <trkpt lat="45.68346" lon="3.07928">
        <ele>728.2</ele>
        <time>2025-09-28T09:11:15Z</time>
      </trkpt>
      <trkpt lat="45.68347" lon="3.07923">
        <ele>728.2</ele>
        <time>2025-09-28T09:11:16Z</time>
      </trkpt>
      <trkpt lat="45.68347" lon="3.07918">
        <ele>728.2</ele>
        <time>2025-09-28T09:11:17Z</time>
      </trkpt>
      <trkpt lat="45.68348" lon="3.07912">
        <ele>728</ele>
        <time>2025-09-28T09:11:18Z</time>
      </trkpt>
      <trkpt lat="45.68348" lon="3.07906">
        <ele>728</ele>
        <time>2025-09-28T09:11:19Z</time>
      </trkpt>
      <trkpt lat="45.68349" lon="3.07901">
        <ele>728</ele>
        <time>2025-09-28T09:11:20Z</time>
      </trkpt>
      <trkpt lat="45.6835" lon="3.07898">
        <ele>728</ele>
        <time>2025-09-28T09:11:21Z</time>
      </trkpt>
      <trkpt lat="45.68352" lon="3.07894">
        <ele>728</ele>
        <time>2025-09-28T09:11:22Z</time>
      </trkpt>
      <trkpt lat="45.68353" lon="3.07888">
        <ele>728</ele>
        <time>2025-09-28T09:11:23Z</time>
      </trkpt>
      <trkpt lat="45.68353" lon="3.0788">
        <ele>728.2</ele>
        <time>2025-09-28T09:11:24Z</time>
      </trkpt>
      <trkpt lat="45.68351" lon="3.0787">
        <ele>728.2</ele>
        <time>2025-09-28T09:11:25Z</time>
      </trkpt>
      <trkpt lat="45.6835" lon="3.07861">
        <ele>728.2</ele>
        <time>2025-09-28T09:11:26Z</time>
      </trkpt>
      <trkpt lat="45.6835" lon="3.07854">
        <ele>728.2</ele>
        <time>2025-09-28T09:11:27Z</time>
      </trkpt>
      <trkpt lat="45.68351" lon="3.07848">
        <ele>728.2</ele>
        <time>2025-09-28T09:11:28Z</time>
      </trkpt>
      <trkpt lat="45.68352" lon="3.07842">
        <ele>728.2</ele>
        <time>2025-09-28T09:11:29Z</time>
      </trkpt>
      <trkpt lat="45.68354" lon="3.07837">
        <ele>728.4</ele>
        <time>2025-09-28T09:11:30Z</time>
      </trkpt>
      <trkpt lat="45.68358" lon="3.07832">
        <ele>728.4</ele>
        <time>2025-09-28T09:11:31Z</time>
      </trkpt>
      <trkpt lat="45.68361" lon="3.07825">
        <ele>728.6</ele>
        <time>2025-09-28T09:11:32Z</time>
      </trkpt>
      <trkpt lat="45.68362" lon="3.07816">
        <ele>728.6</ele>
        <time>2025-09-28T09:11:33Z</time>
      </trkpt>
      <trkpt lat="45.68362" lon="3.07806">
        <ele>728.8</ele>
        <time>2025-09-28T09:11:34Z</time>
      </trkpt>
      <trkpt lat="45.68362" lon="3.07798">
        <ele>728.8</ele>
        <time>2025-09-28T09:11:35Z</time>
      </trkpt>
      <trkpt lat="45.68362" lon="3.07791">
        <ele>728.8</ele>
        <time>2025-09-28T09:11:36Z</time>
      </trkpt>
      <trkpt lat="45.68362" lon="3.07784">
        <ele>729</ele>
        <time>2025-09-28T09:11:37Z</time>
      </trkpt>
      <trkpt lat="45.68363" lon="3.07776">
        <ele>729</ele>
        <time>2025-09-28T09:11:38Z</time>
      </trkpt>
      <trkpt lat="45.68364" lon="3.0777">
        <ele>729</ele>
        <time>2025-09-28T09:11:39Z</time>
      </trkpt>
      <trkpt lat="45.68365" lon="3.07763">
        <ele>729</ele>
        <time>2025-09-28T09:11:40Z</time>
      </trkpt>
      <trkpt lat="45.68365" lon="3.07757">
        <ele>729.2</ele>
        <time>2025-09-28T09:11:41Z</time>
      </trkpt>
      <trkpt lat="45.68366" lon="3.0775">
        <ele>729.2</ele>
        <time>2025-09-28T09:11:42Z</time>
      </trkpt>
      <trkpt lat="45.68366" lon="3.07743">
        <ele>729.2</ele>
        <time>2025-09-28T09:11:43Z</time>
      </trkpt>
      <trkpt lat="45.68367" lon="3.07736">
        <ele>729.4</ele>
        <time>2025-09-28T09:11:44Z</time>
      </trkpt>
      <trkpt lat="45.68368" lon="3.07729">
        <ele>729.4</ele>
        <time>2025-09-28T09:11:45Z</time>
      </trkpt>
      <trkpt lat="45.68369" lon="3.07723">
        <ele>729.4</ele>
        <time>2025-09-28T09:11:46Z</time>
      </trkpt>
      <trkpt lat="45.6837" lon="3.07717">
        <ele>729.6</ele>
        <time>2025-09-28T09:11:47Z</time>
      </trkpt>
      <trkpt lat="45.68371" lon="3.07712">
        <ele>729.6</ele>
        <time>2025-09-28T09:11:48Z</time>
      </trkpt>
      <trkpt lat="45.68372" lon="3.07707">
        <ele>729.6</ele>
        <time>2025-09-28T09:11:49Z</time>
      </trkpt>
      <trkpt lat="45.68373" lon="3.07702">
        <ele>729.8</ele>
        <time>2025-09-28T09:11:50Z</time>
      </trkpt>
      <trkpt lat="45.68374" lon="3.07696">
        <ele>730</ele>
        <time>2025-09-28T09:11:51Z</time>
      </trkpt>
      <trkpt lat="45.68375" lon="3.0769">
        <ele>730.2</ele>
        <time>2025-09-28T09:11:52Z</time>
      </trkpt>
      <trkpt lat="45.68376" lon="3.07684">
        <ele>730.2</ele>
        <time>2025-09-28T09:11:53Z</time>
      </trkpt>
      <trkpt lat="45.68377" lon="3.07678">
        <ele>730.4</ele>
        <time>2025-09-28T09:11:54Z</time>
      </trkpt>
      <trkpt lat="45.68377" lon="3.07672">
        <ele>730.6</ele>
        <time>2025-09-28T09:11:55Z</time>
      </trkpt>
      <trkpt lat="45.68378" lon="3.07667">
        <ele>730.6</ele>
        <time>2025-09-28T09:11:56Z</time>
      </trkpt>
      <trkpt lat="45.68379" lon="3.07661">
        <ele>730.8</ele>
        <time>2025-09-28T09:11:57Z</time>
      </trkpt>
      <trkpt lat="45.6838" lon="3.07655">
        <ele>730.8</ele>
        <time>2025-09-28T09:11:58Z</time>
      </trkpt>
      <trkpt lat="45.68381" lon="3.07649">
        <ele>730.8</ele>
        <time>2025-09-28T09:11:59Z</time>
      </trkpt>
      <trkpt lat="45.68382" lon="3.07643">
        <ele>731</ele>
        <time>2025-09-28T09:12:00Z</time>
      </trkpt>
      <trkpt lat="45.68383" lon="3.07636">
        <ele>731</ele>
        <time>2025-09-28T09:12:01Z</time>
      </trkpt>
      <trkpt lat="45.68383" lon="3.0763">
        <ele>731</ele>
        <time>2025-09-28T09:12:02Z</time>
      </trkpt>
      <trkpt lat="45.68384" lon="3.07624">
        <ele>731.2</ele>
        <time>2025-09-28T09:12:03Z</time>
      </trkpt>
      <trkpt lat="45.68385" lon="3.07618">
        <ele>731.2</ele>
        <time>2025-09-28T09:12:04Z</time>
      </trkpt>
      <trkpt lat="45.68385" lon="3.07613">
        <ele>731.2</ele>
        <time>2025-09-28T09:12:05Z</time>
      </trkpt>
      <trkpt lat="45.68386" lon="3.07606">
        <ele>731.4</ele>
        <time>2025-09-28T09:12:06Z</time>
      </trkpt>
      <trkpt lat="45.68387" lon="3.076">
        <ele>731.4</ele>
        <time>2025-09-28T09:12:07Z</time>
      </trkpt>
      <trkpt lat="45.68388" lon="3.07594">
        <ele>731.6</ele>
        <time>2025-09-28T09:12:08Z</time>
      </trkpt>
      <trkpt lat="45.68389" lon="3.07588">
        <ele>731.6</ele>
        <time>2025-09-28T09:12:09Z</time>
      </trkpt>
      <trkpt lat="45.68391" lon="3.07582">
        <ele>731.8</ele>
        <time>2025-09-28T09:12:10Z</time>
      </trkpt>
      <trkpt lat="45.68392" lon="3.07576">
        <ele>732</ele>
        <time>2025-09-28T09:12:11Z</time>
      </trkpt>
      <trkpt lat="45.68393" lon="3.0757">
        <ele>732</ele>
        <time>2025-09-28T09:12:12Z</time>
      </trkpt>
      <trkpt lat="45.68394" lon="3.07565">
        <ele>732.2</ele>
        <time>2025-09-28T09:12:13Z</time>
      </trkpt>
      <trkpt lat="45.68395" lon="3.07558">
        <ele>732.4</ele>
        <time>2025-09-28T09:12:14Z</time>
      </trkpt>
      <trkpt lat="45.68395" lon="3.07552">
        <ele>732.6</ele>
        <time>2025-09-28T09:12:15Z</time>
      </trkpt>
      <trkpt lat="45.68396" lon="3.07545">
        <ele>732.8</ele>
        <time>2025-09-28T09:12:16Z</time>
      </trkpt>
      <trkpt lat="45.68397" lon="3.07538">
        <ele>732.8</ele>
        <time>2025-09-28T09:12:17Z</time>
      </trkpt>
      <trkpt lat="45.68398" lon="3.07532">
        <ele>733</ele>
        <time>2025-09-28T09:12:18Z</time>
      </trkpt>
      <trkpt lat="45.68399" lon="3.07526">
        <ele>733.2</ele>
        <time>2025-09-28T09:12:19Z</time>
      </trkpt>
      <trkpt lat="45.68399" lon="3.0752">
        <ele>733.2</ele>
        <time>2025-09-28T09:12:20Z</time>
      </trkpt>
      <trkpt lat="45.684" lon="3.07514">
        <ele>733.4</ele>
        <time>2025-09-28T09:12:21Z</time>
      </trkpt>
      <trkpt lat="45.68401" lon="3.07508">
        <ele>733.6</ele>
        <time>2025-09-28T09:12:22Z</time>
      </trkpt>
      <trkpt lat="45.68403" lon="3.07502">
        <ele>733.8</ele>
        <time>2025-09-28T09:12:23Z</time>
      </trkpt>
      <trkpt lat="45.68404" lon="3.07497">
        <ele>733.8</ele>
        <time>2025-09-28T09:12:24Z</time>
      </trkpt>
      <trkpt lat="45.68405" lon="3.07492">
        <ele>733.8</ele>
        <time>2025-09-28T09:12:25Z</time>
      </trkpt>
      <trkpt lat="45.68406" lon="3.07486">
        <ele>734</ele>
        <time>2025-09-28T09:12:26Z</time>
      </trkpt>
      <trkpt lat="45.68407" lon="3.07481">
        <ele>734</ele>
        <time>2025-09-28T09:12:27Z</time>
      </trkpt>
      <trkpt lat="45.68407" lon="3.07475">
        <ele>734.2</ele>
        <time>2025-09-28T09:12:28Z</time>
      </trkpt>
      <trkpt lat="45.68407" lon="3.07469">
        <ele>734.4</ele>
        <time>2025-09-28T09:12:29Z</time>
      </trkpt>
      <trkpt lat="45.68407" lon="3.07464">
        <ele>734.4</ele>
        <time>2025-09-28T09:12:30Z</time>
      </trkpt>
      <trkpt lat="45.68408" lon="3.07459">
        <ele>734.6</ele>
        <time>2025-09-28T09:12:31Z</time>
      </trkpt>
      <trkpt lat="45.68409" lon="3.07454">
        <ele>734.8</ele>
        <time>2025-09-28T09:12:32Z</time>
      </trkpt>
      <trkpt lat="45.68409" lon="3.0745">
        <ele>735</ele>
        <time>2025-09-28T09:12:33Z</time>
      </trkpt>
      <trkpt lat="45.6841" lon="3.07445">
        <ele>735</ele>
        <time>2025-09-28T09:12:34Z</time>
      </trkpt>
      <trkpt lat="45.68411" lon="3.07439">
        <ele>735.2</ele>
        <time>2025-09-28T09:12:35Z</time>
      </trkpt>
      <trkpt lat="45.68411" lon="3.07434">
        <ele>735.2</ele>
        <time>2025-09-28T09:12:36Z</time>
      </trkpt>
      <trkpt lat="45.68411" lon="3.07429">
        <ele>735.4</ele>
        <time>2025-09-28T09:12:37Z</time>
      </trkpt>
      <trkpt lat="45.68411" lon="3.07423">
        <ele>735.6</ele>
        <time>2025-09-28T09:12:38Z</time>
      </trkpt>
      <trkpt lat="45.68412" lon="3.07418">
        <ele>735.6</ele>
        <time>2025-09-28T09:12:39Z</time>
      </trkpt>
      <trkpt lat="45.68412" lon="3.07413">
        <ele>735.8</ele>
        <time>2025-09-28T09:12:40Z</time>
      </trkpt>
      <trkpt lat="45.68413" lon="3.07407">
        <ele>736</ele>
        <time>2025-09-28T09:12:41Z</time>
      </trkpt>
      <trkpt lat="45.68414" lon="3.07402">
        <ele>736</ele>
        <time>2025-09-28T09:12:42Z</time>
      </trkpt>
      <trkpt lat="45.68415" lon="3.07396">
        <ele>736.2</ele>
        <time>2025-09-28T09:12:43Z</time>
      </trkpt>
      <trkpt lat="45.68416" lon="3.07391">
        <ele>736.4</ele>
        <time>2025-09-28T09:12:44Z</time>
      </trkpt>
      <trkpt lat="45.68416" lon="3.07386">
        <ele>736.4</ele>
        <time>2025-09-28T09:12:45Z</time>
      </trkpt>
      <trkpt lat="45.68416" lon="3.07381">
        <ele>736.6</ele>
        <time>2025-09-28T09:12:46Z</time>
      </trkpt>
      <trkpt lat="45.68416" lon="3.07374">
        <ele>736.8</ele>
        <time>2025-09-28T09:12:47Z</time>
      </trkpt>
      <trkpt lat="45.68416" lon="3.07368">
        <ele>737</ele>
        <time>2025-09-28T09:12:48Z</time>
      </trkpt>
      <trkpt lat="45.68416" lon="3.07362">
        <ele>737</ele>
        <time>2025-09-28T09:12:49Z</time>
      </trkpt>
      <trkpt lat="45.68415" lon="3.07356">
        <ele>737.2</ele>
        <time>2025-09-28T09:12:50Z</time>
      </trkpt>
      <trkpt lat="45.68414" lon="3.07351">
        <ele>737.4</ele>
        <time>2025-09-28T09:12:51Z</time>
      </trkpt>
      <trkpt lat="45.68413" lon="3.07345">
        <ele>737.6</ele>
        <time>2025-09-28T09:12:52Z</time>
      </trkpt>
      <trkpt lat="45.68412" lon="3.07339">
        <ele>737.8</ele>
        <time>2025-09-28T09:12:53Z</time>
      </trkpt>
      <trkpt lat="45.68411" lon="3.07333">
        <ele>738</ele>
        <time>2025-09-28T09:12:54Z</time>
      </trkpt>
      <trkpt lat="45.6841" lon="3.07327">
        <ele>738.2</ele>
        <time>2025-09-28T09:12:55Z</time>
      </trkpt>
      <trkpt lat="45.6841" lon="3.07322">
        <ele>738.4</ele>
        <time>2025-09-28T09:12:56Z</time>
      </trkpt>
      <trkpt lat="45.68409" lon="3.07316">
        <ele>738.6</ele>
        <time>2025-09-28T09:12:57Z</time>
      </trkpt>
      <trkpt lat="45.68409" lon="3.0731">
        <ele>738.8</ele>
        <time>2025-09-28T09:12:58Z</time>
      </trkpt>
      <trkpt lat="45.68408" lon="3.07304">
        <ele>738.8</ele>
        <time>2025-09-28T09:12:59Z</time>
      </trkpt>
      <trkpt lat="45.68407" lon="3.07298">
        <ele>739</ele>
        <time>2025-09-28T09:13:00Z</time>
      </trkpt>
      <trkpt lat="45.68407" lon="3.07293">
        <ele>739.2</ele>
        <time>2025-09-28T09:13:01Z</time>
      </trkpt>
      <trkpt lat="45.68406" lon="3.07288">
        <ele>739.2</ele>
        <time>2025-09-28T09:13:02Z</time>
      </trkpt>
      <trkpt lat="45.68406" lon="3.07284">
        <ele>739.4</ele>
        <time>2025-09-28T09:13:03Z</time>
      </trkpt>
      <trkpt lat="45.68406" lon="3.0728">
        <ele>739.4</ele>
        <time>2025-09-28T09:13:04Z</time>
      </trkpt>
      <trkpt lat="45.68405" lon="3.07275">
        <ele>739.6</ele>
        <time>2025-09-28T09:13:05Z</time>
      </trkpt>
      <trkpt lat="45.68404" lon="3.0727">
        <ele>739.8</ele>
        <time>2025-09-28T09:13:06Z</time>
      </trkpt>
      <trkpt lat="45.68403" lon="3.07266">
        <ele>739.8</ele>
        <time>2025-09-28T09:13:07Z</time>
      </trkpt>
      <trkpt lat="45.68402" lon="3.07261">
        <ele>740</ele>
        <time>2025-09-28T09:13:08Z</time>
      </trkpt>
      <trkpt lat="45.68401" lon="3.07257">
        <ele>740</ele>
        <time>2025-09-28T09:13:09Z</time>
      </trkpt>
      <trkpt lat="45.68399" lon="3.07253">
        <ele>740.2</ele>
        <time>2025-09-28T09:13:10Z</time>
      </trkpt>
      <trkpt lat="45.68398" lon="3.0725">
        <ele>740.2</ele>
        <time>2025-09-28T09:13:11Z</time>
      </trkpt>
      <trkpt lat="45.68397" lon="3.07247">
        <ele>740.4</ele>
        <time>2025-09-28T09:13:12Z</time>
      </trkpt>
      <trkpt lat="45.68396" lon="3.07244">
        <ele>740.4</ele>
        <time>2025-09-28T09:13:13Z</time>
      </trkpt>
      <trkpt lat="45.68396" lon="3.0724">
        <ele>740.6</ele>
        <time>2025-09-28T09:13:14Z</time>
      </trkpt>
      <trkpt lat="45.68396" lon="3.07237">
        <ele>740.8</ele>
        <time>2025-09-28T09:13:15Z</time>
      </trkpt>
      <trkpt lat="45.68395" lon="3.07235">
        <ele>740.8</ele>
        <time>2025-09-28T09:13:16Z</time>
      </trkpt>
      <trkpt lat="45.68395" lon="3.07233">
        <ele>741</ele>
        <time>2025-09-28T09:13:17Z</time>
      </trkpt>
      <trkpt lat="45.68395" lon="3.07232">
        <ele>741</ele>
        <time>2025-09-28T09:13:18Z</time>
      </trkpt>
      <trkpt lat="45.68389" lon="3.07216">
        <ele>741.4</ele>
        <time>2025-09-28T09:27:18Z</time>
      </trkpt>
      <trkpt lat="45.68388" lon="3.07211">
        <ele>741.4</ele>
        <time>2025-09-28T09:27:19Z</time>
      </trkpt>
      <trkpt lat="45.68387" lon="3.07207">
        <ele>741.4</ele>
        <time>2025-09-28T09:27:20Z</time>
      </trkpt>
      <trkpt lat="45.68387" lon="3.07202">
        <ele>741.4</ele>
        <time>2025-09-28T09:27:21Z</time>
      </trkpt>
      <trkpt lat="45.68388" lon="3.07197">
        <ele>741.4</ele>
        <time>2025-09-28T09:27:22Z</time>
      </trkpt>
      <trkpt lat="45.68388" lon="3.07192">
        <ele>741.4</ele>
        <time>2025-09-28T09:27:23Z</time>
      </trkpt>
      <trkpt lat="45.68389" lon="3.07187">
        <ele>741.6</ele>
        <time>2025-09-28T09:27:24Z</time>
      </trkpt>
      <trkpt lat="45.68389" lon="3.07183">
        <ele>741.6</ele>
        <time>2025-09-28T09:27:25Z</time>
      </trkpt>
      <trkpt lat="45.68389" lon="3.07178">
        <ele>741.8</ele>
        <time>2025-09-28T09:27:26Z</time>
      </trkpt>
      <trkpt lat="45.6839" lon="3.07173">
        <ele>741.8</ele>
        <time>2025-09-28T09:27:27Z</time>
      </trkpt>
      <trkpt lat="45.6839" lon="3.07169">
        <ele>742</ele>
        <time>2025-09-28T09:27:28Z</time>
      </trkpt>
      <trkpt lat="45.6839" lon="3.07164">
        <ele>742</ele>
        <time>2025-09-28T09:27:29Z</time>
      </trkpt>
      <trkpt lat="45.6839" lon="3.0716">
        <ele>742</ele>
        <time>2025-09-28T09:27:30Z</time>
      </trkpt>
      <trkpt lat="45.6839" lon="3.07155">
        <ele>742</ele>
        <time>2025-09-28T09:27:31Z</time>
      </trkpt>
      <trkpt lat="45.6839" lon="3.0715">
        <ele>742.2</ele>
        <time>2025-09-28T09:27:32Z</time>
      </trkpt>
      <trkpt lat="45.68389" lon="3.07145">
        <ele>742.2</ele>
        <time>2025-09-28T09:27:33Z</time>
      </trkpt>
      <trkpt lat="45.68389" lon="3.0714">
        <ele>742.2</ele>
        <time>2025-09-28T09:27:34Z</time>
      </trkpt>
      <trkpt lat="45.68389" lon="3.07135">
        <ele>742.4</ele>
        <time>2025-09-28T09:27:35Z</time>
      </trkpt>
      <trkpt lat="45.68389" lon="3.0713">
        <ele>742.4</ele>
        <time>2025-09-28T09:27:36Z</time>
      </trkpt>
      <trkpt lat="45.6839" lon="3.07125">
        <ele>742.4</ele>
        <time>2025-09-28T09:27:37Z</time>
      </trkpt>
      <trkpt lat="45.6839" lon="3.0712">
        <ele>742.6</ele>
        <time>2025-09-28T09:27:38Z</time>
      </trkpt>
      <trkpt lat="45.6839" lon="3.07115">
        <ele>742.6</ele>
        <time>2025-09-28T09:27:39Z</time>
      </trkpt>
      <trkpt lat="45.6839" lon="3.0711">
        <ele>742.8</ele>
        <time>2025-09-28T09:27:40Z</time>
      </trkpt>
      <trkpt lat="45.6839" lon="3.07104">
        <ele>742.8</ele>
        <time>2025-09-28T09:27:41Z</time>
      </trkpt>
      <trkpt lat="45.6839" lon="3.07099">
        <ele>742.8</ele>
        <time>2025-09-28T09:27:42Z</time>
      </trkpt>
      <trkpt lat="45.6839" lon="3.07094">
        <ele>743</ele>
        <time>2025-09-28T09:27:43Z</time>
      </trkpt>
      <trkpt lat="45.6839" lon="3.07089">
        <ele>743</ele>
        <time>2025-09-28T09:27:44Z</time>
      </trkpt>
      <trkpt lat="45.6839" lon="3.07084">
        <ele>743.2</ele>
        <time>2025-09-28T09:27:45Z</time>
      </trkpt>
      <trkpt lat="45.6839" lon="3.07079">
        <ele>743.2</ele>
        <time>2025-09-28T09:27:46Z</time>
      </trkpt>
      <trkpt lat="45.6839" lon="3.07074">
        <ele>743.4</ele>
        <time>2025-09-28T09:27:47Z</time>
      </trkpt>
      <trkpt lat="45.6839" lon="3.07068">
        <ele>743.4</ele>
        <time>2025-09-28T09:27:48Z</time>
      </trkpt>
      <trkpt lat="45.6839" lon="3.07062">
        <ele>743.6</ele>
        <time>2025-09-28T09:27:49Z</time>
      </trkpt>
      <trkpt lat="45.6839" lon="3.07057">
        <ele>743.6</ele>
        <time>2025-09-28T09:27:50Z</time>
      </trkpt>
      <trkpt lat="45.6839" lon="3.07052">
        <ele>743.8</ele>
        <time>2025-09-28T09:27:51Z</time>
      </trkpt>
      <trkpt lat="45.6839" lon="3.07047">
        <ele>743.8</ele>
        <time>2025-09-28T09:27:52Z</time>
      </trkpt>
      <trkpt lat="45.6839" lon="3.07041">
        <ele>744</ele>
        <time>2025-09-28T09:27:53Z</time>
      </trkpt>
      <trkpt lat="45.6839" lon="3.07036">
        <ele>744</ele>
        <time>2025-09-28T09:27:54Z</time>
      </trkpt>
      <trkpt lat="45.68391" lon="3.07031">
        <ele>744.2</ele>
        <time>2025-09-28T09:27:55Z</time>
      </trkpt>
      <trkpt lat="45.68391" lon="3.07025">
        <ele>744.2</ele>
        <time>2025-09-28T09:27:56Z</time>
      </trkpt>
      <trkpt lat="45.68391" lon="3.0702">
        <ele>744.2</ele>
        <time>2025-09-28T09:27:57Z</time>
      </trkpt>
      <trkpt lat="45.6839" lon="3.07016">
        <ele>744.4</ele>
        <time>2025-09-28T09:27:58Z</time>
      </trkpt>
      <trkpt lat="45.6839" lon="3.07011">
        <ele>744.4</ele>
        <time>2025-09-28T09:27:59Z</time>
      </trkpt>
      <trkpt lat="45.68391" lon="3.07006">
        <ele>744.6</ele>
        <time>2025-09-28T09:28:00Z</time>
      </trkpt>
      <trkpt lat="45.68393" lon="3.07002">
        <ele>744.6</ele>
        <time>2025-09-28T09:28:01Z</time>
      </trkpt>
      <trkpt lat="45.68394" lon="3.06998">
        <ele>744.8</ele>
        <time>2025-09-28T09:28:02Z</time>
      </trkpt>
      <trkpt lat="45.68395" lon="3.06993">
        <ele>744.8</ele>
        <time>2025-09-28T09:28:03Z</time>
      </trkpt>
      <trkpt lat="45.68396" lon="3.06987">
        <ele>745</ele>
        <time>2025-09-28T09:28:04Z</time>
      </trkpt>
      <trkpt lat="45.68397" lon="3.06983">
        <ele>745</ele>
        <time>2025-09-28T09:28:05Z</time>
      </trkpt>
      <trkpt lat="45.68398" lon="3.06978">
        <ele>745</ele>
        <time>2025-09-28T09:28:06Z</time>
      </trkpt>
      <trkpt lat="45.68399" lon="3.06973">
        <ele>745.2</ele>
        <time>2025-09-28T09:28:07Z</time>
      </trkpt>
      <trkpt lat="45.684" lon="3.06968">
        <ele>745.2</ele>
        <time>2025-09-28T09:28:08Z</time>
      </trkpt>
      <trkpt lat="45.68401" lon="3.06963">
        <ele>745.2</ele>
        <time>2025-09-28T09:28:09Z</time>
      </trkpt>
      <trkpt lat="45.68403" lon="3.06959">
        <ele>745.4</ele>
        <time>2025-09-28T09:28:10Z</time>
      </trkpt>
      <trkpt lat="45.68404" lon="3.06954">
        <ele>745.4</ele>
        <time>2025-09-28T09:28:11Z</time>
      </trkpt>
      <trkpt lat="45.68406" lon="3.06948">
        <ele>745.4</ele>
        <time>2025-09-28T09:28:12Z</time>
      </trkpt>
      <trkpt lat="45.68408" lon="3.06943">
        <ele>745.6</ele>
        <time>2025-09-28T09:28:13Z</time>
      </trkpt>
      <trkpt lat="45.6841" lon="3.06938">
        <ele>745.6</ele>
        <time>2025-09-28T09:28:14Z</time>
      </trkpt>
      <trkpt lat="45.68411" lon="3.06933">
        <ele>745.6</ele>
        <time>2025-09-28T09:28:15Z</time>
      </trkpt>
      <trkpt lat="45.68413" lon="3.06928">
        <ele>745.8</ele>
        <time>2025-09-28T09:28:16Z</time>
      </trkpt>
      <trkpt lat="45.68415" lon="3.06923">
        <ele>745.8</ele>
        <time>2025-09-28T09:28:17Z</time>
      </trkpt>
      <trkpt lat="45.68417" lon="3.06918">
        <ele>745.8</ele>
        <time>2025-09-28T09:28:18Z</time>
      </trkpt>
      <trkpt lat="45.68418" lon="3.06913">
        <ele>746</ele>
        <time>2025-09-28T09:28:19Z</time>
      </trkpt>
      <trkpt lat="45.6842" lon="3.06908">
        <ele>746</ele>
        <time>2025-09-28T09:28:20Z</time>
      </trkpt>
      <trkpt lat="45.68422" lon="3.06903">
        <ele>746.2</ele>
        <time>2025-09-28T09:28:21Z</time>
      </trkpt>
      <trkpt lat="45.68423" lon="3.06899">
        <ele>746.2</ele>
        <time>2025-09-28T09:28:22Z</time>
      </trkpt>
      <trkpt lat="45.68425" lon="3.06894">
        <ele>746.4</ele>
        <time>2025-09-28T09:28:23Z</time>
      </trkpt>
      <trkpt lat="45.68426" lon="3.0689">
        <ele>746.6</ele>
        <time>2025-09-28T09:28:24Z</time>
      </trkpt>
      <trkpt lat="45.68427" lon="3.06885">
        <ele>746.8</ele>
        <time>2025-09-28T09:28:25Z</time>
      </trkpt>
      <trkpt lat="45.68429" lon="3.06879">
        <ele>747</ele>
        <time>2025-09-28T09:28:26Z</time>
      </trkpt>
      <trkpt lat="45.6843" lon="3.06875">
        <ele>747.2</ele>
        <time>2025-09-28T09:28:27Z</time>
      </trkpt>
      <trkpt lat="45.68432" lon="3.06871">
        <ele>747.4</ele>
        <time>2025-09-28T09:28:28Z</time>
      </trkpt>
      <trkpt lat="45.68434" lon="3.06866">
        <ele>747.6</ele>
        <time>2025-09-28T09:28:29Z</time>
      </trkpt>
      <trkpt lat="45.68436" lon="3.06862">
        <ele>747.8</ele>
        <time>2025-09-28T09:28:30Z</time>
      </trkpt>
      <trkpt lat="45.68437" lon="3.06858">
        <ele>747.8</ele>
        <time>2025-09-28T09:28:31Z</time>
      </trkpt>
      <trkpt lat="45.68439" lon="3.06853">
        <ele>748</ele>
        <time>2025-09-28T09:28:32Z</time>
      </trkpt>
      <trkpt lat="45.6844" lon="3.06849">
        <ele>748.2</ele>
        <time>2025-09-28T09:28:33Z</time>
      </trkpt>
      <trkpt lat="45.68441" lon="3.06844">
        <ele>748.4</ele>
        <time>2025-09-28T09:28:34Z</time>
      </trkpt>
      <trkpt lat="45.68442" lon="3.0684">
        <ele>748.8</ele>
        <time>2025-09-28T09:28:35Z</time>
      </trkpt>
      <trkpt lat="45.68443" lon="3.06836">
        <ele>749</ele>
        <time>2025-09-28T09:28:36Z</time>
      </trkpt>
      <trkpt lat="45.68444" lon="3.06832">
        <ele>749.2</ele>
        <time>2025-09-28T09:28:37Z</time>
      </trkpt>
      <trkpt lat="45.68446" lon="3.06829">
        <ele>749.4</ele>
        <time>2025-09-28T09:28:38Z</time>
      </trkpt>
      <trkpt lat="45.68447" lon="3.06825">
        <ele>749.8</ele>
        <time>2025-09-28T09:28:39Z</time>
      </trkpt>
      <trkpt lat="45.68447" lon="3.06822">
        <ele>750</ele>
        <time>2025-09-28T09:28:40Z</time>
      </trkpt>
      <trkpt lat="45.68448" lon="3.06819">
        <ele>750.2</ele>
        <time>2025-09-28T09:28:41Z</time>
      </trkpt>
      <trkpt lat="45.6845" lon="3.06815">
        <ele>750.4</ele>
        <time>2025-09-28T09:28:42Z</time>
      </trkpt>
      <trkpt lat="45.68451" lon="3.06811">
        <ele>750.4</ele>
        <time>2025-09-28T09:28:43Z</time>
      </trkpt>
      <trkpt lat="45.68452" lon="3.06807">
        <ele>750.6</ele>
        <time>2025-09-28T09:28:44Z</time>
      </trkpt>
      <trkpt lat="45.68453" lon="3.06804">
        <ele>750.8</ele>
        <time>2025-09-28T09:28:45Z</time>
      </trkpt>
      <trkpt lat="45.68455" lon="3.06801">
        <ele>751</ele>
        <time>2025-09-28T09:28:46Z</time>
      </trkpt>
      <trkpt lat="45.68456" lon="3.06798">
        <ele>751.2</ele>
        <time>2025-09-28T09:28:47Z</time>
      </trkpt>
      <trkpt lat="45.68457" lon="3.06795">
        <ele>751.4</ele>
        <time>2025-09-28T09:28:48Z</time>
      </trkpt>
      <trkpt lat="45.68459" lon="3.06791">
        <ele>751.6</ele>
        <time>2025-09-28T09:28:49Z</time>
      </trkpt>
      <trkpt lat="45.6846" lon="3.06788">
        <ele>751.8</ele>
        <time>2025-09-28T09:28:50Z</time>
      </trkpt>
      <trkpt lat="45.68461" lon="3.06784">
        <ele>752</ele>
        <time>2025-09-28T09:28:51Z</time>
      </trkpt>
      <trkpt lat="45.68462" lon="3.06781">
        <ele>752.2</ele>
        <time>2025-09-28T09:28:52Z</time>
      </trkpt>
      <trkpt lat="45.68462" lon="3.06777">
        <ele>752.4</ele>
        <time>2025-09-28T09:28:53Z</time>
      </trkpt>
      <trkpt lat="45.68462" lon="3.06773">
        <ele>752.4</ele>
        <time>2025-09-28T09:28:54Z</time>
      </trkpt>
      <trkpt lat="45.68462" lon="3.0677">
        <ele>752.6</ele>
        <time>2025-09-28T09:28:55Z</time>
      </trkpt>
      <trkpt lat="45.68462" lon="3.06766">
        <ele>752.8</ele>
        <time>2025-09-28T09:28:56Z</time>
      </trkpt>
      <trkpt lat="45.68462" lon="3.06763">
        <ele>753</ele>
        <time>2025-09-28T09:28:57Z</time>
      </trkpt>
      <trkpt lat="45.68462" lon="3.06759">
        <ele>753</ele>
        <time>2025-09-28T09:28:58Z</time>
      </trkpt>
      <trkpt lat="45.68462" lon="3.06756">
        <ele>753.2</ele>
        <time>2025-09-28T09:28:59Z</time>
      </trkpt>
      <trkpt lat="45.68462" lon="3.06753">
        <ele>753.4</ele>
        <time>2025-09-28T09:29:00Z</time>
      </trkpt>
      <trkpt lat="45.68462" lon="3.06749">
        <ele>753.6</ele>
        <time>2025-09-28T09:29:01Z</time>
      </trkpt>
      <trkpt lat="45.68462" lon="3.06745">
        <ele>753.8</ele>
        <time>2025-09-28T09:29:02Z</time>
      </trkpt>
      <trkpt lat="45.68462" lon="3.06741">
        <ele>754</ele>
        <time>2025-09-28T09:29:03Z</time>
      </trkpt>
      <trkpt lat="45.68462" lon="3.06738">
        <ele>754</ele>
        <time>2025-09-28T09:29:04Z</time>
      </trkpt>
      <trkpt lat="45.68462" lon="3.06735">
        <ele>754.2</ele>
        <time>2025-09-28T09:29:05Z</time>
      </trkpt>
      <trkpt lat="45.68462" lon="3.06731">
        <ele>754.4</ele>
        <time>2025-09-28T09:29:06Z</time>
      </trkpt>
      <trkpt lat="45.68462" lon="3.06727">
        <ele>754.6</ele>
        <time>2025-09-28T09:29:07Z</time>
      </trkpt>
      <trkpt lat="45.68462" lon="3.06723">
        <ele>754.8</ele>
        <time>2025-09-28T09:29:08Z</time>
      </trkpt>
      <trkpt lat="45.68462" lon="3.0672">
        <ele>754.8</ele>
        <time>2025-09-28T09:29:09Z</time>
      </trkpt>
      <trkpt lat="45.68462" lon="3.06716">
        <ele>755</ele>
        <time>2025-09-28T09:29:10Z</time>
      </trkpt>
      <trkpt lat="45.68462" lon="3.06711">
        <ele>755</ele>
        <time>2025-09-28T09:29:11Z</time>
      </trkpt>
      <trkpt lat="45.68461" lon="3.06708">
        <ele>755.2</ele>
        <time>2025-09-28T09:29:12Z</time>
      </trkpt>
      <trkpt lat="45.68461" lon="3.06705">
        <ele>755.4</ele>
        <time>2025-09-28T09:29:13Z</time>
      </trkpt>
      <trkpt lat="45.68461" lon="3.06702">
        <ele>755.4</ele>
        <time>2025-09-28T09:29:14Z</time>
      </trkpt>
      <trkpt lat="45.68461" lon="3.06698">
        <ele>755.6</ele>
        <time>2025-09-28T09:29:15Z</time>
      </trkpt>
      <trkpt lat="45.68461" lon="3.06695">
        <ele>755.8</ele>
        <time>2025-09-28T09:29:16Z</time>
      </trkpt>
      <trkpt lat="45.6846" lon="3.06691">
        <ele>755.8</ele>
        <time>2025-09-28T09:29:17Z</time>
      </trkpt>
      <trkpt lat="45.6846" lon="3.06687">
        <ele>756</ele>
        <time>2025-09-28T09:29:18Z</time>
      </trkpt>
      <trkpt lat="45.6846" lon="3.06683">
        <ele>756.2</ele>
        <time>2025-09-28T09:29:19Z</time>
      </trkpt>
      <trkpt lat="45.68459" lon="3.06679">
        <ele>756.2</ele>
        <time>2025-09-28T09:29:20Z</time>
      </trkpt>
      <trkpt lat="45.68459" lon="3.06675">
        <ele>756.4</ele>
        <time>2025-09-28T09:29:21Z</time>
      </trkpt>
      <trkpt lat="45.6846" lon="3.06672">
        <ele>756.6</ele>
        <time>2025-09-28T09:29:22Z</time>
      </trkpt>
      <trkpt lat="45.6846" lon="3.06668">
        <ele>756.8</ele>
        <time>2025-09-28T09:29:23Z</time>
      </trkpt>
      <trkpt lat="45.6846" lon="3.06664">
        <ele>756.8</ele>
        <time>2025-09-28T09:29:24Z</time>
      </trkpt>
      <trkpt lat="45.6846" lon="3.0666">
        <ele>757</ele>
        <time>2025-09-28T09:29:25Z</time>
      </trkpt>
      <trkpt lat="45.6846" lon="3.06657">
        <ele>757.2</ele>
        <time>2025-09-28T09:29:26Z</time>
      </trkpt>
      <trkpt lat="45.6846" lon="3.06653">
        <ele>757.2</ele>
        <time>2025-09-28T09:29:27Z</time>
      </trkpt>
      <trkpt lat="45.6846" lon="3.06649">
        <ele>757.4</ele>
        <time>2025-09-28T09:29:28Z</time>
      </trkpt>
      <trkpt lat="45.6846" lon="3.06645">
        <ele>757.6</ele>
        <time>2025-09-28T09:29:29Z</time>
      </trkpt>
      <trkpt lat="45.6846" lon="3.06641">
        <ele>757.8</ele>
        <time>2025-09-28T09:29:30Z</time>
      </trkpt>
      <trkpt lat="45.6846" lon="3.06638">
        <ele>757.8</ele>
        <time>2025-09-28T09:29:31Z</time>
      </trkpt>
      <trkpt lat="45.6846" lon="3.06634">
        <ele>758</ele>
        <time>2025-09-28T09:29:32Z</time>
      </trkpt>
      <trkpt lat="45.6846" lon="3.0663">
        <ele>758.2</ele>
        <time>2025-09-28T09:29:33Z</time>
      </trkpt>
      <trkpt lat="45.6846" lon="3.06626">
        <ele>758.4</ele>
        <time>2025-09-28T09:29:34Z</time>
      </trkpt>
      <trkpt lat="45.68461" lon="3.06622">
        <ele>758.4</ele>
        <time>2025-09-28T09:29:35Z</time>
      </trkpt>
      <trkpt lat="45.68461" lon="3.06619">
        <ele>758.6</ele>
        <time>2025-09-28T09:29:36Z</time>
      </trkpt>
      <trkpt lat="45.68461" lon="3.06615">
        <ele>758.8</ele>
        <time>2025-09-28T09:29:37Z</time>
      </trkpt>
      <trkpt lat="45.68461" lon="3.06611">
        <ele>759</ele>
        <time>2025-09-28T09:29:38Z</time>
      </trkpt>
      <trkpt lat="45.68461" lon="3.06607">
        <ele>759</ele>
        <time>2025-09-28T09:29:39Z</time>
      </trkpt>
      <trkpt lat="45.68461" lon="3.06603">
        <ele>759.2</ele>
        <time>2025-09-28T09:29:40Z</time>
      </trkpt>
      <trkpt lat="45.68461" lon="3.06599">
        <ele>759.4</ele>
        <time>2025-09-28T09:29:41Z</time>
      </trkpt>
      <trkpt lat="45.68461" lon="3.06595">
        <ele>759.6</ele>
        <time>2025-09-28T09:29:42Z</time>
      </trkpt>
      <trkpt lat="45.68461" lon="3.06591">
        <ele>759.8</ele>
        <time>2025-09-28T09:29:43Z</time>
      </trkpt>
      <trkpt lat="45.68462" lon="3.06587">
        <ele>760</ele>
        <time>2025-09-28T09:29:44Z</time>
      </trkpt>
      <trkpt lat="45.68462" lon="3.06583">
        <ele>760.2</ele>
        <time>2025-09-28T09:29:45Z</time>
      </trkpt>
      <trkpt lat="45.68462" lon="3.06579">
        <ele>760.2</ele>
        <time>2025-09-28T09:29:46Z</time>
      </trkpt>
      <trkpt lat="45.68462" lon="3.06574">
        <ele>760.4</ele>
        <time>2025-09-28T09:29:47Z</time>
      </trkpt>
      <trkpt lat="45.68463" lon="3.0657">
        <ele>760.6</ele>
        <time>2025-09-28T09:29:48Z</time>
      </trkpt>
      <trkpt lat="45.68463" lon="3.06566">
        <ele>760.8</ele>
        <time>2025-09-28T09:29:49Z</time>
      </trkpt>
      <trkpt lat="45.68463" lon="3.06562">
        <ele>761</ele>
        <time>2025-09-28T09:29:50Z</time>
      </trkpt>
      <trkpt lat="45.68464" lon="3.06558">
        <ele>761</ele>
        <time>2025-09-28T09:29:51Z</time>
      </trkpt>
      <trkpt lat="45.68464" lon="3.06554">
        <ele>761.2</ele>
        <time>2025-09-28T09:29:52Z</time>
      </trkpt>
      <trkpt lat="45.68464" lon="3.0655">
        <ele>761.4</ele>
        <time>2025-09-28T09:29:53Z</time>
      </trkpt>
      <trkpt lat="45.68464" lon="3.06547">
        <ele>761.6</ele>
        <time>2025-09-28T09:29:54Z</time>
      </trkpt>
      <trkpt lat="45.68465" lon="3.06543">
        <ele>761.8</ele>
        <time>2025-09-28T09:29:55Z</time>
      </trkpt>
      <trkpt lat="45.68465" lon="3.06539">
        <ele>762</ele>
        <time>2025-09-28T09:29:56Z</time>
      </trkpt>
      <trkpt lat="45.68465" lon="3.06535">
        <ele>762</ele>
        <time>2025-09-28T09:29:57Z</time>
      </trkpt>
      <trkpt lat="45.68465" lon="3.06531">
        <ele>762.2</ele>
        <time>2025-09-28T09:29:58Z</time>
      </trkpt>
      <trkpt lat="45.68465" lon="3.06526">
        <ele>762.4</ele>
        <time>2025-09-28T09:29:59Z</time>
      </trkpt>
      <trkpt lat="45.68465" lon="3.06522">
        <ele>762.6</ele>
        <time>2025-09-28T09:30:00Z</time>
      </trkpt>
      <trkpt lat="45.68465" lon="3.06518">
        <ele>762.6</ele>
        <time>2025-09-28T09:30:01Z</time>
      </trkpt>
      <trkpt lat="45.68465" lon="3.06514">
        <ele>762.8</ele>
        <time>2025-09-28T09:30:02Z</time>
      </trkpt>
      <trkpt lat="45.68465" lon="3.06511">
        <ele>763</ele>
        <time>2025-09-28T09:30:03Z</time>
      </trkpt>
      <trkpt lat="45.68465" lon="3.06507">
        <ele>763.2</ele>
        <time>2025-09-28T09:30:04Z</time>
      </trkpt>
      <trkpt lat="45.68466" lon="3.06503">
        <ele>763.4</ele>
        <time>2025-09-28T09:30:05Z</time>
      </trkpt>
      <trkpt lat="45.68466" lon="3.065">
        <ele>763.6</ele>
        <time>2025-09-28T09:30:06Z</time>
      </trkpt>
      <trkpt lat="45.68466" lon="3.06496">
        <ele>763.8</ele>
        <time>2025-09-28T09:30:07Z</time>
      </trkpt>
      <trkpt lat="45.68466" lon="3.06492">
        <ele>764</ele>
        <time>2025-09-28T09:30:08Z</time>
      </trkpt>
      <trkpt lat="45.68466" lon="3.06488">
        <ele>764.2</ele>
        <time>2025-09-28T09:30:09Z</time>
      </trkpt>
      <trkpt lat="45.68466" lon="3.06483">
        <ele>764.4</ele>
        <time>2025-09-28T09:30:10Z</time>
      </trkpt>
      <trkpt lat="45.68466" lon="3.06479">
        <ele>764.6</ele>
        <time>2025-09-28T09:30:11Z</time>
      </trkpt>
      <trkpt lat="45.68466" lon="3.06475">
        <ele>764.6</ele>
        <time>2025-09-28T09:30:12Z</time>
      </trkpt>
      <trkpt lat="45.68466" lon="3.06471">
        <ele>764.8</ele>
        <time>2025-09-28T09:30:13Z</time>
      </trkpt>
      <trkpt lat="45.68466" lon="3.06466">
        <ele>764.8</ele>
        <time>2025-09-28T09:30:14Z</time>
      </trkpt>
      <trkpt lat="45.68466" lon="3.06462">
        <ele>765</ele>
        <time>2025-09-28T09:30:15Z</time>
      </trkpt>
      <trkpt lat="45.68466" lon="3.06457">
        <ele>765.2</ele>
        <time>2025-09-28T09:30:16Z</time>
      </trkpt>
      <trkpt lat="45.68466" lon="3.06453">
        <ele>765.2</ele>
        <time>2025-09-28T09:30:17Z</time>
      </trkpt>
      <trkpt lat="45.68465" lon="3.06449">
        <ele>765.4</ele>
        <time>2025-09-28T09:30:18Z</time>
      </trkpt>
      <trkpt lat="45.68464" lon="3.06444">
        <ele>765.6</ele>
        <time>2025-09-28T09:30:19Z</time>
      </trkpt>
      <trkpt lat="45.68464" lon="3.0644">
        <ele>765.6</ele>
        <time>2025-09-28T09:30:20Z</time>
      </trkpt>
      <trkpt lat="45.68463" lon="3.06435">
        <ele>765.8</ele>
        <time>2025-09-28T09:30:21Z</time>
      </trkpt>
      <trkpt lat="45.68462" lon="3.06431">
        <ele>766</ele>
        <time>2025-09-28T09:30:22Z</time>
      </trkpt>
      <trkpt lat="45.68462" lon="3.06427">
        <ele>766</ele>
        <time>2025-09-28T09:30:23Z</time>
      </trkpt>
      <trkpt lat="45.68461" lon="3.06422">
        <ele>766.2</ele>
        <time>2025-09-28T09:30:24Z</time>
      </trkpt>
      <trkpt lat="45.68461" lon="3.06418">
        <ele>766.4</ele>
        <time>2025-09-28T09:30:25Z</time>
      </trkpt>
      <trkpt lat="45.6846" lon="3.06413">
        <ele>766.4</ele>
        <time>2025-09-28T09:30:26Z</time>
      </trkpt>
      <trkpt lat="45.6846" lon="3.06408">
        <ele>766.6</ele>
        <time>2025-09-28T09:30:27Z</time>
      </trkpt>
      <trkpt lat="45.68459" lon="3.06403">
        <ele>766.8</ele>
        <time>2025-09-28T09:30:28Z</time>
      </trkpt>
      <trkpt lat="45.68458" lon="3.06398">
        <ele>767</ele>
        <time>2025-09-28T09:30:29Z</time>
      </trkpt>
      <trkpt lat="45.68458" lon="3.06394">
        <ele>767</ele>
        <time>2025-09-28T09:30:30Z</time>
      </trkpt>
      <trkpt lat="45.68457" lon="3.06389">
        <ele>767.2</ele>
        <time>2025-09-28T09:30:31Z</time>
      </trkpt>
      <trkpt lat="45.68456" lon="3.06384">
        <ele>767.4</ele>
        <time>2025-09-28T09:30:32Z</time>
      </trkpt>
      <trkpt lat="45.68455" lon="3.06379">
        <ele>767.6</ele>
        <time>2025-09-28T09:30:33Z</time>
      </trkpt>
      <trkpt lat="45.68454" lon="3.06374">
        <ele>767.6</ele>
        <time>2025-09-28T09:30:34Z</time>
      </trkpt>
      <trkpt lat="45.68454" lon="3.06369">
        <ele>767.8</ele>
        <time>2025-09-28T09:30:35Z</time>
      </trkpt>
      <trkpt lat="45.68454" lon="3.06364">
        <ele>768</ele>
        <time>2025-09-28T09:30:36Z</time>
      </trkpt>
      <trkpt lat="45.68453" lon="3.06358">
        <ele>768.2</ele>
        <time>2025-09-28T09:30:37Z</time>
      </trkpt>
      <trkpt lat="45.68453" lon="3.06353">
        <ele>768.2</ele>
        <time>2025-09-28T09:30:38Z</time>
      </trkpt>
      <trkpt lat="45.68453" lon="3.06348">
        <ele>768.4</ele>
        <time>2025-09-28T09:30:39Z</time>
      </trkpt>
      <trkpt lat="45.68453" lon="3.06343">
        <ele>768.6</ele>
        <time>2025-09-28T09:30:40Z</time>
      </trkpt>
      <trkpt lat="45.68453" lon="3.06337">
        <ele>768.8</ele>
        <time>2025-09-28T09:30:41Z</time>
      </trkpt>
      <trkpt lat="45.68452" lon="3.06332">
        <ele>769</ele>
        <time>2025-09-28T09:30:42Z</time>
      </trkpt>
      <trkpt lat="45.68452" lon="3.06326">
        <ele>769.2</ele>
        <time>2025-09-28T09:30:43Z</time>
      </trkpt>
      <trkpt lat="45.68452" lon="3.06321">
        <ele>769.2</ele>
        <time>2025-09-28T09:30:44Z</time>
      </trkpt>
      <trkpt lat="45.68451" lon="3.06315">
        <ele>769.4</ele>
        <time>2025-09-28T09:30:45Z</time>
      </trkpt>
      <trkpt lat="45.68451" lon="3.0631">
        <ele>769.6</ele>
        <time>2025-09-28T09:30:46Z</time>
      </trkpt>
      <trkpt lat="45.68452" lon="3.06305">
        <ele>769.8</ele>
        <time>2025-09-28T09:30:47Z</time>
      </trkpt>
      <trkpt lat="45.68452" lon="3.063">
        <ele>770</ele>
        <time>2025-09-28T09:30:48Z</time>
      </trkpt>
      <trkpt lat="45.68452" lon="3.06294">
        <ele>770</ele>
        <time>2025-09-28T09:30:49Z</time>
      </trkpt>
      <trkpt lat="45.68452" lon="3.06289">
        <ele>770.2</ele>
        <time>2025-09-28T09:30:50Z</time>
      </trkpt>
      <trkpt lat="45.68451" lon="3.06284">
        <ele>770.4</ele>
        <time>2025-09-28T09:30:51Z</time>
      </trkpt>
      <trkpt lat="45.68451" lon="3.06279">
        <ele>770.6</ele>
        <time>2025-09-28T09:30:52Z</time>
      </trkpt>
      <trkpt lat="45.6845" lon="3.06275">
        <ele>770.8</ele>
        <time>2025-09-28T09:30:53Z</time>
      </trkpt>
      <trkpt lat="45.6845" lon="3.0627">
        <ele>771</ele>
        <time>2025-09-28T09:30:54Z</time>
      </trkpt>
      <trkpt lat="45.6845" lon="3.06266">
        <ele>771.2</ele>
        <time>2025-09-28T09:30:55Z</time>
      </trkpt>
      <trkpt lat="45.6845" lon="3.06262">
        <ele>771.4</ele>
        <time>2025-09-28T09:30:56Z</time>
      </trkpt>
      <trkpt lat="45.6845" lon="3.06257">
        <ele>771.4</ele>
        <time>2025-09-28T09:30:57Z</time>
      </trkpt>
      <trkpt lat="45.6845" lon="3.06254">
        <ele>771.6</ele>
        <time>2025-09-28T09:30:58Z</time>
      </trkpt>
      <trkpt lat="45.6845" lon="3.06249">
        <ele>771.8</ele>
        <time>2025-09-28T09:30:59Z</time>
      </trkpt>
      <trkpt lat="45.6845" lon="3.06244">
        <ele>772</ele>
        <time>2025-09-28T09:31:00Z</time>
      </trkpt>
      <trkpt lat="45.68449" lon="3.0624">
        <ele>772</ele>
        <time>2025-09-28T09:31:01Z</time>
      </trkpt>
      <trkpt lat="45.68449" lon="3.06236">
        <ele>772.2</ele>
        <time>2025-09-28T09:31:02Z</time>
      </trkpt>
      <trkpt lat="45.68449" lon="3.06231">
        <ele>772.4</ele>
        <time>2025-09-28T09:31:03Z</time>
      </trkpt>
      <trkpt lat="45.68449" lon="3.06227">
        <ele>772.6</ele>
        <time>2025-09-28T09:31:04Z</time>
      </trkpt>
      <trkpt lat="45.68448" lon="3.06222">
        <ele>772.6</ele>
        <time>2025-09-28T09:31:05Z</time>
      </trkpt>
      <trkpt lat="45.68448" lon="3.06218">
        <ele>772.8</ele>
        <time>2025-09-28T09:31:06Z</time>
      </trkpt>
      <trkpt lat="45.68447" lon="3.06213">
        <ele>773</ele>
        <time>2025-09-28T09:31:07Z</time>
      </trkpt>
      <trkpt lat="45.68447" lon="3.06209">
        <ele>773.2</ele>
        <time>2025-09-28T09:31:08Z</time>
      </trkpt>
      <trkpt lat="45.68447" lon="3.06204">
        <ele>773.2</ele>
        <time>2025-09-28T09:31:09Z</time>
      </trkpt>
      <trkpt lat="45.68447" lon="3.062">
        <ele>773.4</ele>
        <time>2025-09-28T09:31:10Z</time>
      </trkpt>
      <trkpt lat="45.68446" lon="3.06196">
        <ele>773.6</ele>
        <time>2025-09-28T09:31:11Z</time>
      </trkpt>
      <trkpt lat="45.68446" lon="3.06191">
        <ele>773.8</ele>
        <time>2025-09-28T09:31:12Z</time>
      </trkpt>
      <trkpt lat="45.68446" lon="3.06187">
        <ele>773.8</ele>
        <time>2025-09-28T09:31:13Z</time>
      </trkpt>
      <trkpt lat="45.68446" lon="3.06182">
        <ele>774</ele>
        <time>2025-09-28T09:31:14Z</time>
      </trkpt>
      <trkpt lat="45.68445" lon="3.06178">
        <ele>774.2</ele>
        <time>2025-09-28T09:31:15Z</time>
      </trkpt>
      <trkpt lat="45.68445" lon="3.06174">
        <ele>774.2</ele>
        <time>2025-09-28T09:31:16Z</time>
      </trkpt>
      <trkpt lat="45.68445" lon="3.06169">
        <ele>774.4</ele>
        <time>2025-09-28T09:31:17Z</time>
      </trkpt>
      <trkpt lat="45.68444" lon="3.06165">
        <ele>774.6</ele>
        <time>2025-09-28T09:31:18Z</time>
      </trkpt>
      <trkpt lat="45.68444" lon="3.0616">
        <ele>774.6</ele>
        <time>2025-09-28T09:31:19Z</time>
      </trkpt>
      <trkpt lat="45.68444" lon="3.06154">
        <ele>774.8</ele>
        <time>2025-09-28T09:31:20Z</time>
      </trkpt>
      <trkpt lat="45.68444" lon="3.06149">
        <ele>775</ele>
        <time>2025-09-28T09:31:21Z</time>
      </trkpt>
      <trkpt lat="45.68444" lon="3.06144">
        <ele>775</ele>
        <time>2025-09-28T09:31:22Z</time>
      </trkpt>
      <trkpt lat="45.68444" lon="3.06138">
        <ele>775.2</ele>
        <time>2025-09-28T09:31:23Z</time>
      </trkpt>
      <trkpt lat="45.68444" lon="3.06133">
        <ele>775.4</ele>
        <time>2025-09-28T09:31:24Z</time>
      </trkpt>
      <trkpt lat="45.68444" lon="3.06128">
        <ele>775.4</ele>
        <time>2025-09-28T09:31:25Z</time>
      </trkpt>
      <trkpt lat="45.68444" lon="3.06122">
        <ele>775.6</ele>
        <time>2025-09-28T09:31:26Z</time>
      </trkpt>
      <trkpt lat="45.68444" lon="3.06116">
        <ele>775.8</ele>
        <time>2025-09-28T09:31:27Z</time>
      </trkpt>
      <trkpt lat="45.68444" lon="3.06111">
        <ele>775.8</ele>
        <time>2025-09-28T09:31:28Z</time>
      </trkpt>
      <trkpt lat="45.68445" lon="3.06105">
        <ele>776</ele>
        <time>2025-09-28T09:31:29Z</time>
      </trkpt>
      <trkpt lat="45.68445" lon="3.06099">
        <ele>776.2</ele>
        <time>2025-09-28T09:31:30Z</time>
      </trkpt>
      <trkpt lat="45.68446" lon="3.06093">
        <ele>776.4</ele>
        <time>2025-09-28T09:31:31Z</time>
      </trkpt>
      <trkpt lat="45.68446" lon="3.06087">
        <ele>776.4</ele>
        <time>2025-09-28T09:31:32Z</time>
      </trkpt>
      <trkpt lat="45.68447" lon="3.06082">
        <ele>776.6</ele>
        <time>2025-09-28T09:31:33Z</time>
      </trkpt>
      <trkpt lat="45.68447" lon="3.06077">
        <ele>776.8</ele>
        <time>2025-09-28T09:31:34Z</time>
      </trkpt>
      <trkpt lat="45.68448" lon="3.06071">
        <ele>776.8</ele>
        <time>2025-09-28T09:31:35Z</time>
      </trkpt>
      <trkpt lat="45.68449" lon="3.06066">
        <ele>777</ele>
        <time>2025-09-28T09:31:36Z</time>
      </trkpt>
      <trkpt lat="45.68449" lon="3.06062">
        <ele>777.2</ele>
        <time>2025-09-28T09:31:37Z</time>
      </trkpt>
      <trkpt lat="45.6845" lon="3.06058">
        <ele>777.4</ele>
        <time>2025-09-28T09:31:38Z</time>
      </trkpt>
      <trkpt lat="45.6845" lon="3.06053">
        <ele>777.6</ele>
        <time>2025-09-28T09:31:39Z</time>
      </trkpt>
      <trkpt lat="45.6845" lon="3.06048">
        <ele>777.8</ele>
        <time>2025-09-28T09:31:40Z</time>
      </trkpt>
      <trkpt lat="45.68451" lon="3.06043">
        <ele>777.8</ele>
        <time>2025-09-28T09:31:41Z</time>
      </trkpt>
      <trkpt lat="45.68451" lon="3.06038">
        <ele>778</ele>
        <time>2025-09-28T09:31:42Z</time>
      </trkpt>
      <trkpt lat="45.68452" lon="3.06033">
        <ele>778.2</ele>
        <time>2025-09-28T09:31:43Z</time>
      </trkpt>
      <trkpt lat="45.68452" lon="3.06028">
        <ele>778.4</ele>
        <time>2025-09-28T09:31:44Z</time>
      </trkpt>
      <trkpt lat="45.68452" lon="3.06023">
        <ele>778.6</ele>
        <time>2025-09-28T09:31:45Z</time>
      </trkpt>
      <trkpt lat="45.68453" lon="3.06017">
        <ele>778.8</ele>
        <time>2025-09-28T09:31:46Z</time>
      </trkpt>
      <trkpt lat="45.68453" lon="3.06012">
        <ele>779</ele>
        <time>2025-09-28T09:31:47Z</time>
      </trkpt>
      <trkpt lat="45.68453" lon="3.06007">
        <ele>779.2</ele>
        <time>2025-09-28T09:31:48Z</time>
      </trkpt>
      <trkpt lat="45.68453" lon="3.06001">
        <ele>779.4</ele>
        <time>2025-09-28T09:31:49Z</time>
      </trkpt>
      <trkpt lat="45.68453" lon="3.05996">
        <ele>779.6</ele>
        <time>2025-09-28T09:31:50Z</time>
      </trkpt>
      <trkpt lat="45.68453" lon="3.05991">
        <ele>779.8</ele>
        <time>2025-09-28T09:31:51Z</time>
      </trkpt>
      <trkpt lat="45.68453" lon="3.05985">
        <ele>780</ele>
        <time>2025-09-28T09:31:52Z</time>
      </trkpt>
      <trkpt lat="45.68453" lon="3.0598">
        <ele>780.2</ele>
        <time>2025-09-28T09:31:53Z</time>
      </trkpt>
      <trkpt lat="45.68453" lon="3.05976">
        <ele>780.4</ele>
        <time>2025-09-28T09:31:54Z</time>
      </trkpt>
      <trkpt lat="45.68452" lon="3.05971">
        <ele>780.6</ele>
        <time>2025-09-28T09:31:55Z</time>
      </trkpt>
      <trkpt lat="45.68452" lon="3.05965">
        <ele>780.6</ele>
        <time>2025-09-28T09:31:56Z</time>
      </trkpt>
      <trkpt lat="45.68452" lon="3.05961">
        <ele>781</ele>
        <time>2025-09-28T09:31:57Z</time>
      </trkpt>
      <trkpt lat="45.68452" lon="3.05956">
        <ele>781.2</ele>
        <time>2025-09-28T09:31:58Z</time>
      </trkpt>
      <trkpt lat="45.68452" lon="3.0595">
        <ele>781.4</ele>
        <time>2025-09-28T09:31:59Z</time>
      </trkpt>
      <trkpt lat="45.68452" lon="3.05946">
        <ele>781.6</ele>
        <time>2025-09-28T09:32:00Z</time>
      </trkpt>
      <trkpt lat="45.68452" lon="3.05941">
        <ele>781.8</ele>
        <time>2025-09-28T09:32:01Z</time>
      </trkpt>
      <trkpt lat="45.68452" lon="3.05936">
        <ele>782</ele>
        <time>2025-09-28T09:32:02Z</time>
      </trkpt>
      <trkpt lat="45.68451" lon="3.05931">
        <ele>782.2</ele>
        <time>2025-09-28T09:32:03Z</time>
      </trkpt>
      <trkpt lat="45.68451" lon="3.05927">
        <ele>782.4</ele>
        <time>2025-09-28T09:32:04Z</time>
      </trkpt>
      <trkpt lat="45.68451" lon="3.05922">
        <ele>782.4</ele>
        <time>2025-09-28T09:32:05Z</time>
      </trkpt>
      <trkpt lat="45.68451" lon="3.05918">
        <ele>782.6</ele>
        <time>2025-09-28T09:32:06Z</time>
      </trkpt>
      <trkpt lat="45.68451" lon="3.05913">
        <ele>782.8</ele>
        <time>2025-09-28T09:32:07Z</time>
      </trkpt>
      <trkpt lat="45.68451" lon="3.05908">
        <ele>783</ele>
        <time>2025-09-28T09:32:08Z</time>
      </trkpt>
      <trkpt lat="45.68452" lon="3.05903">
        <ele>783.2</ele>
        <time>2025-09-28T09:32:09Z</time>
      </trkpt>
      <trkpt lat="45.68452" lon="3.05898">
        <ele>783.4</ele>
        <time>2025-09-28T09:32:10Z</time>
      </trkpt>
      <trkpt lat="45.68451" lon="3.05893">
        <ele>783.6</ele>
        <time>2025-09-28T09:32:11Z</time>
      </trkpt>
      <trkpt lat="45.68451" lon="3.05889">
        <ele>783.8</ele>
        <time>2025-09-28T09:32:12Z</time>
      </trkpt>
      <trkpt lat="45.6845" lon="3.05883">
        <ele>784</ele>
        <time>2025-09-28T09:32:13Z</time>
      </trkpt>
      <trkpt lat="45.6845" lon="3.05878">
        <ele>784.2</ele>
        <time>2025-09-28T09:32:14Z</time>
      </trkpt>
      <trkpt lat="45.6845" lon="3.05874">
        <ele>784.4</ele>
        <time>2025-09-28T09:32:15Z</time>
      </trkpt>
      <trkpt lat="45.6845" lon="3.0587">
        <ele>784.6</ele>
        <time>2025-09-28T09:32:16Z</time>
      </trkpt>
      <trkpt lat="45.6845" lon="3.05865">
        <ele>784.8</ele>
        <time>2025-09-28T09:32:17Z</time>
      </trkpt>
      <trkpt lat="45.68451" lon="3.0586">
        <ele>785</ele>
        <time>2025-09-28T09:32:18Z</time>
      </trkpt>
      <trkpt lat="45.68451" lon="3.05855">
        <ele>785.2</ele>
        <time>2025-09-28T09:32:19Z</time>
      </trkpt>
      <trkpt lat="45.68451" lon="3.0585">
        <ele>785.4</ele>
        <time>2025-09-28T09:32:20Z</time>
      </trkpt>
      <trkpt lat="45.68451" lon="3.05846">
        <ele>785.6</ele>
        <time>2025-09-28T09:32:21Z</time>
      </trkpt>
      <trkpt lat="45.68452" lon="3.05842">
        <ele>785.8</ele>
        <time>2025-09-28T09:32:22Z</time>
      </trkpt>
      <trkpt lat="45.68452" lon="3.05838">
        <ele>786</ele>
        <time>2025-09-28T09:32:23Z</time>
      </trkpt>
      <trkpt lat="45.68453" lon="3.05834">
        <ele>786.2</ele>
        <time>2025-09-28T09:32:24Z</time>
      </trkpt>
      <trkpt lat="45.68454" lon="3.0583">
        <ele>786.4</ele>
        <time>2025-09-28T09:32:25Z</time>
      </trkpt>
      <trkpt lat="45.68455" lon="3.05826">
        <ele>786.6</ele>
        <time>2025-09-28T09:32:26Z</time>
      </trkpt>
      <trkpt lat="45.68455" lon="3.05822">
        <ele>786.8</ele>
        <time>2025-09-28T09:32:27Z</time>
      </trkpt>
      <trkpt lat="45.68455" lon="3.05818">
        <ele>787</ele>
        <time>2025-09-28T09:32:28Z</time>
      </trkpt>
      <trkpt lat="45.68456" lon="3.05814">
        <ele>787.2</ele>
        <time>2025-09-28T09:32:29Z</time>
      </trkpt>
      <trkpt lat="45.68457" lon="3.0581">
        <ele>787.4</ele>
        <time>2025-09-28T09:32:30Z</time>
      </trkpt>
      <trkpt lat="45.68457" lon="3.05806">
        <ele>787.6</ele>
        <time>2025-09-28T09:32:31Z</time>
      </trkpt>
      <trkpt lat="45.68458" lon="3.05802">
        <ele>787.8</ele>
        <time>2025-09-28T09:32:32Z</time>
      </trkpt>
      <trkpt lat="45.68458" lon="3.05798">
        <ele>788</ele>
        <time>2025-09-28T09:32:33Z</time>
      </trkpt>
      <trkpt lat="45.68458" lon="3.05794">
        <ele>788.2</ele>
        <time>2025-09-28T09:32:34Z</time>
      </trkpt>
      <trkpt lat="45.68459" lon="3.0579">
        <ele>788.4</ele>
        <time>2025-09-28T09:32:35Z</time>
      </trkpt>
      <trkpt lat="45.6846" lon="3.05786">
        <ele>788.6</ele>
        <time>2025-09-28T09:32:36Z</time>
      </trkpt>
      <trkpt lat="45.68462" lon="3.05782">
        <ele>789</ele>
        <time>2025-09-28T09:32:37Z</time>
      </trkpt>
      <trkpt lat="45.68462" lon="3.05778">
        <ele>789.2</ele>
        <time>2025-09-28T09:32:38Z</time>
      </trkpt>
      <trkpt lat="45.68462" lon="3.05773">
        <ele>789.4</ele>
        <time>2025-09-28T09:32:39Z</time>
      </trkpt>
      <trkpt lat="45.68463" lon="3.05768">
        <ele>789.6</ele>
        <time>2025-09-28T09:32:40Z</time>
      </trkpt>
      <trkpt lat="45.68464" lon="3.05763">
        <ele>789.8</ele>
        <time>2025-09-28T09:32:41Z</time>
      </trkpt>
      <trkpt lat="45.68465" lon="3.05758">
        <ele>790</ele>
        <time>2025-09-28T09:32:42Z</time>
      </trkpt>
      <trkpt lat="45.68466" lon="3.05754">
        <ele>790.2</ele>
        <time>2025-09-28T09:32:43Z</time>
      </trkpt>
      <trkpt lat="45.68467" lon="3.0575">
        <ele>790.4</ele>
        <time>2025-09-28T09:32:44Z</time>
      </trkpt>
      <trkpt lat="45.68467" lon="3.05745">
        <ele>790.8</ele>
        <time>2025-09-28T09:32:45Z</time>
      </trkpt>
      <trkpt lat="45.68469" lon="3.0574">
        <ele>791</ele>
        <time>2025-09-28T09:32:46Z</time>
      </trkpt>
      <trkpt lat="45.68469" lon="3.05736">
        <ele>791.2</ele>
        <time>2025-09-28T09:32:47Z</time>
      </trkpt>
      <trkpt lat="45.68469" lon="3.05731">
        <ele>791.4</ele>
        <time>2025-09-28T09:32:48Z</time>
      </trkpt>
      <trkpt lat="45.68469" lon="3.05727">
        <ele>791.6</ele>
        <time>2025-09-28T09:32:49Z</time>
      </trkpt>
      <trkpt lat="45.68469" lon="3.05722">
        <ele>792</ele>
        <time>2025-09-28T09:32:50Z</time>
      </trkpt>
      <trkpt lat="45.6847" lon="3.05717">
        <ele>792.2</ele>
        <time>2025-09-28T09:32:51Z</time>
      </trkpt>
      <trkpt lat="45.6847" lon="3.05713">
        <ele>792.4</ele>
        <time>2025-09-28T09:32:52Z</time>
      </trkpt>
      <trkpt lat="45.68471" lon="3.05708">
        <ele>792.6</ele>
        <time>2025-09-28T09:32:53Z</time>
      </trkpt>
      <trkpt lat="45.68471" lon="3.05704">
        <ele>792.8</ele>
        <time>2025-09-28T09:32:54Z</time>
      </trkpt>
      <trkpt lat="45.68471" lon="3.057">
        <ele>792.8</ele>
        <time>2025-09-28T09:32:55Z</time>
      </trkpt>
      <trkpt lat="45.68472" lon="3.05696">
        <ele>793</ele>
        <time>2025-09-28T09:32:56Z</time>
      </trkpt>
      <trkpt lat="45.68472" lon="3.05693">
        <ele>793.2</ele>
        <time>2025-09-28T09:32:57Z</time>
      </trkpt>
      <trkpt lat="45.68472" lon="3.0569">
        <ele>793.2</ele>
        <time>2025-09-28T09:32:58Z</time>
      </trkpt>
      <trkpt lat="45.68472" lon="3.05686">
        <ele>793.4</ele>
        <time>2025-09-28T09:32:59Z</time>
      </trkpt>
      <trkpt lat="45.68473" lon="3.05682">
        <ele>793.4</ele>
        <time>2025-09-28T09:33:00Z</time>
      </trkpt>
      <trkpt lat="45.68473" lon="3.05679">
        <ele>793.6</ele>
        <time>2025-09-28T09:33:01Z</time>
      </trkpt>
      <trkpt lat="45.68472" lon="3.05676">
        <ele>793.6</ele>
        <time>2025-09-28T09:33:02Z</time>
      </trkpt>
      <trkpt lat="45.68472" lon="3.05672">
        <ele>793.6</ele>
        <time>2025-09-28T09:33:03Z</time>
      </trkpt>
      <trkpt lat="45.68471" lon="3.05668">
        <ele>793.6</ele>
        <time>2025-09-28T09:33:04Z</time>
      </trkpt>
      <trkpt lat="45.68469" lon="3.05666">
        <ele>793.8</ele>
        <time>2025-09-28T09:33:05Z</time>
      </trkpt>
      <trkpt lat="45.68468" lon="3.05665">
        <ele>794</ele>
        <time>2025-09-28T09:33:06Z</time>
      </trkpt>
      <trkpt lat="45.68466" lon="3.05664">
        <ele>794.4</ele>
        <time>2025-09-28T09:33:07Z</time>
      </trkpt>
      <trkpt lat="45.68464" lon="3.05662">
        <ele>794.6</ele>
        <time>2025-09-28T09:33:08Z</time>
      </trkpt>
      <trkpt lat="45.68462" lon="3.05661">
        <ele>795</ele>
        <time>2025-09-28T09:33:09Z</time>
      </trkpt>
      <trkpt lat="45.68461" lon="3.05659">
        <ele>795.2</ele>
        <time>2025-09-28T09:33:10Z</time>
      </trkpt>
      <trkpt lat="45.68459" lon="3.05656">
        <ele>795.6</ele>
        <time>2025-09-28T09:33:11Z</time>
      </trkpt>
      <trkpt lat="45.68457" lon="3.05653">
        <ele>796</ele>
        <time>2025-09-28T09:33:12Z</time>
      </trkpt>
      <trkpt lat="45.68456" lon="3.0565">
        <ele>796.2</ele>
        <time>2025-09-28T09:33:13Z</time>
      </trkpt>
      <trkpt lat="45.68455" lon="3.05647">
        <ele>796.4</ele>
        <time>2025-09-28T09:33:14Z</time>
      </trkpt>
      <trkpt lat="45.68453" lon="3.05645">
        <ele>796.6</ele>
        <time>2025-09-28T09:33:15Z</time>
      </trkpt>
      <trkpt lat="45.68451" lon="3.05642">
        <ele>796.8</ele>
        <time>2025-09-28T09:33:16Z</time>
      </trkpt>
      <trkpt lat="45.68449" lon="3.0564">
        <ele>797</ele>
        <time>2025-09-28T09:33:17Z</time>
      </trkpt>
      <trkpt lat="45.68448" lon="3.05637">
        <ele>797.2</ele>
        <time>2025-09-28T09:33:18Z</time>
      </trkpt>
      <trkpt lat="45.68446" lon="3.05634">
        <ele>797.4</ele>
        <time>2025-09-28T09:33:19Z</time>
      </trkpt>
      <trkpt lat="45.68444" lon="3.0563">
        <ele>797.6</ele>
        <time>2025-09-28T09:33:20Z</time>
      </trkpt>
      <trkpt lat="45.68442" lon="3.05626">
        <ele>797.8</ele>
        <time>2025-09-28T09:33:21Z</time>
      </trkpt>
      <trkpt lat="45.6844" lon="3.0562">
        <ele>798</ele>
        <time>2025-09-28T09:33:22Z</time>
      </trkpt>
      <trkpt lat="45.68438" lon="3.05614">
        <ele>798.2</ele>
        <time>2025-09-28T09:33:23Z</time>
      </trkpt>
      <trkpt lat="45.68436" lon="3.05608">
        <ele>798.6</ele>
        <time>2025-09-28T09:33:24Z</time>
      </trkpt>
      <trkpt lat="45.68435" lon="3.05602">
        <ele>798.8</ele>
        <time>2025-09-28T09:33:25Z</time>
      </trkpt>
      <trkpt lat="45.68433" lon="3.05598">
        <ele>799</ele>
        <time>2025-09-28T09:33:26Z</time>
      </trkpt>
      <trkpt lat="45.68432" lon="3.05594">
        <ele>799.4</ele>
        <time>2025-09-28T09:33:27Z</time>
      </trkpt>
      <trkpt lat="45.68431" lon="3.05589">
        <ele>799.6</ele>
        <time>2025-09-28T09:33:28Z</time>
      </trkpt>
      <trkpt lat="45.68429" lon="3.05584">
        <ele>800</ele>
        <time>2025-09-28T09:33:29Z</time>
      </trkpt>
      <trkpt lat="45.68428" lon="3.05579">
        <ele>800.4</ele>
        <time>2025-09-28T09:33:30Z</time>
      </trkpt>
      <trkpt lat="45.68426" lon="3.05574">
        <ele>800.8</ele>
        <time>2025-09-28T09:33:31Z</time>
      </trkpt>
      <trkpt lat="45.68424" lon="3.05569">
        <ele>801</ele>
        <time>2025-09-28T09:33:32Z</time>
      </trkpt>
      <trkpt lat="45.68423" lon="3.05565">
        <ele>801.4</ele>
        <time>2025-09-28T09:33:33Z</time>
      </trkpt>
      <trkpt lat="45.68422" lon="3.05561">
        <ele>801.8</ele>
        <time>2025-09-28T09:33:34Z</time>
      </trkpt>
      <trkpt lat="45.68421" lon="3.05556">
        <ele>802.2</ele>
        <time>2025-09-28T09:33:35Z</time>
      </trkpt>
      <trkpt lat="45.6842" lon="3.0555">
        <ele>802.6</ele>
        <time>2025-09-28T09:33:36Z</time>
      </trkpt>
      <trkpt lat="45.68419" lon="3.05544">
        <ele>803</ele>
        <time>2025-09-28T09:33:37Z</time>
      </trkpt>
      <trkpt lat="45.68418" lon="3.05539">
        <ele>803.4</ele>
        <time>2025-09-28T09:33:38Z</time>
      </trkpt>
      <trkpt lat="45.68417" lon="3.05533">
        <ele>803.8</ele>
        <time>2025-09-28T09:33:39Z</time>
      </trkpt>
      <trkpt lat="45.68416" lon="3.05527">
        <ele>804.4</ele>
        <time>2025-09-28T09:33:40Z</time>
      </trkpt>
      <trkpt lat="45.68414" lon="3.05522">
        <ele>804.8</ele>
        <time>2025-09-28T09:33:41Z</time>
      </trkpt>
      <trkpt lat="45.68413" lon="3.05519">
        <ele>805.2</ele>
        <time>2025-09-28T09:33:42Z</time>
      </trkpt>
      <trkpt lat="45.68412" lon="3.05517">
        <ele>805.6</ele>
        <time>2025-09-28T09:33:43Z</time>
      </trkpt>
      <trkpt lat="45.68411" lon="3.05514">
        <ele>806</ele>
        <time>2025-09-28T09:33:44Z</time>
      </trkpt>
      <trkpt lat="45.6841" lon="3.0551">
        <ele>806.4</ele>
        <time>2025-09-28T09:33:45Z</time>
      </trkpt>
      <trkpt lat="45.68408" lon="3.05506">
        <ele>806.8</ele>
        <time>2025-09-28T09:33:46Z</time>
      </trkpt>
      <trkpt lat="45.68405" lon="3.05503">
        <ele>807.2</ele>
        <time>2025-09-28T09:33:47Z</time>
      </trkpt>
      <trkpt lat="45.68403" lon="3.055">
        <ele>807.6</ele>
        <time>2025-09-28T09:33:48Z</time>
      </trkpt>
      <trkpt lat="45.68401" lon="3.05497">
        <ele>807.8</ele>
        <time>2025-09-28T09:33:49Z</time>
      </trkpt>
      <trkpt lat="45.68399" lon="3.05493">
        <ele>808.2</ele>
        <time>2025-09-28T09:33:50Z</time>
      </trkpt>
      <trkpt lat="45.68397" lon="3.05489">
        <ele>808.6</ele>
        <time>2025-09-28T09:33:51Z</time>
      </trkpt>
      <trkpt lat="45.68395" lon="3.05485">
        <ele>809</ele>
        <time>2025-09-28T09:33:52Z</time>
      </trkpt>
      <trkpt lat="45.68392" lon="3.0548">
        <ele>809.4</ele>
        <time>2025-09-28T09:33:53Z</time>
      </trkpt>
      <trkpt lat="45.6839" lon="3.05477">
        <ele>809.8</ele>
        <time>2025-09-28T09:33:54Z</time>
      </trkpt>
      <trkpt lat="45.68387" lon="3.05473">
        <ele>810</ele>
        <time>2025-09-28T09:33:55Z</time>
      </trkpt>
      <trkpt lat="45.68386" lon="3.05471">
        <ele>810.4</ele>
        <time>2025-09-28T09:33:56Z</time>
      </trkpt>
      <trkpt lat="45.68384" lon="3.05468">
        <ele>810.6</ele>
        <time>2025-09-28T09:33:57Z</time>
      </trkpt>
      <trkpt lat="45.68382" lon="3.05465">
        <ele>811</ele>
        <time>2025-09-28T09:33:58Z</time>
      </trkpt>
      <trkpt lat="45.6838" lon="3.05463">
        <ele>811.2</ele>
        <time>2025-09-28T09:33:59Z</time>
      </trkpt>
      <trkpt lat="45.68379" lon="3.05461">
        <ele>811.4</ele>
        <time>2025-09-28T09:34:00Z</time>
      </trkpt>
      <trkpt lat="45.68378" lon="3.05459">
        <ele>811.6</ele>
        <time>2025-09-28T09:34:01Z</time>
      </trkpt>
      <trkpt lat="45.68376" lon="3.05456">
        <ele>811.8</ele>
        <time>2025-09-28T09:34:02Z</time>
      </trkpt>
      <trkpt lat="45.68374" lon="3.05453">
        <ele>812.2</ele>
        <time>2025-09-28T09:34:03Z</time>
      </trkpt>
      <trkpt lat="45.68372" lon="3.0545">
        <ele>812.4</ele>
        <time>2025-09-28T09:34:04Z</time>
      </trkpt>
      <trkpt lat="45.68371" lon="3.05449">
        <ele>812.8</ele>
        <time>2025-09-28T09:34:05Z</time>
      </trkpt>
      <trkpt lat="45.68369" lon="3.05447">
        <ele>813</ele>
        <time>2025-09-28T09:34:06Z</time>
      </trkpt>
      <trkpt lat="45.68367" lon="3.05446">
        <ele>813.4</ele>
        <time>2025-09-28T09:34:07Z</time>
      </trkpt>
      <trkpt lat="45.68365" lon="3.05446">
        <ele>813.6</ele>
        <time>2025-09-28T09:34:08Z</time>
      </trkpt>
      <trkpt lat="45.68363" lon="3.05447">
        <ele>813.8</ele>
        <time>2025-09-28T09:34:09Z</time>
      </trkpt>
      <trkpt lat="45.68362" lon="3.05447">
        <ele>814</ele>
        <time>2025-09-28T09:34:10Z</time>
      </trkpt>
      <trkpt lat="45.6836" lon="3.05447">
        <ele>814.2</ele>
        <time>2025-09-28T09:34:11Z</time>
      </trkpt>
      <trkpt lat="45.68358" lon="3.05447">
        <ele>814.4</ele>
        <time>2025-09-28T09:34:12Z</time>
      </trkpt>
      <trkpt lat="45.68355" lon="3.05446">
        <ele>814.6</ele>
        <time>2025-09-28T09:34:13Z</time>
      </trkpt>
      <trkpt lat="45.68353" lon="3.05446">
        <ele>814.8</ele>
        <time>2025-09-28T09:34:14Z</time>
      </trkpt>
      <trkpt lat="45.68352" lon="3.05447">
        <ele>815</ele>
        <time>2025-09-28T09:34:15Z</time>
      </trkpt>
      <trkpt lat="45.68349" lon="3.05448">
        <ele>815.2</ele>
        <time>2025-09-28T09:34:16Z</time>
      </trkpt>
      <trkpt lat="45.68346" lon="3.05449">
        <ele>815.2</ele>
        <time>2025-09-28T09:34:17Z</time>
      </trkpt>
      <trkpt lat="45.68344" lon="3.0545">
        <ele>815.4</ele>
        <time>2025-09-28T09:34:18Z</time>
      </trkpt>
      <trkpt lat="45.68342" lon="3.05451">
        <ele>815.6</ele>
        <time>2025-09-28T09:34:19Z</time>
      </trkpt>
      <trkpt lat="45.68341" lon="3.05451">
        <ele>815.6</ele>
        <time>2025-09-28T09:34:20Z</time>
      </trkpt>
      <trkpt lat="45.68339" lon="3.05451">
        <ele>815.8</ele>
        <time>2025-09-28T09:34:21Z</time>
      </trkpt>
      <trkpt lat="45.68339" lon="3.0545">
        <ele>816</ele>
        <time>2025-09-28T09:34:27Z</time>
      </trkpt>
      <trkpt lat="45.68338" lon="3.05448">
        <ele>816</ele>
        <time>2025-09-28T09:34:28Z</time>
      </trkpt>
      <trkpt lat="45.68338" lon="3.05448">
        <ele>816</ele>
        <time>2025-09-28T09:34:29Z</time>
      </trkpt>
      <trkpt lat="45.68338" lon="3.05448">
        <ele>816</ele>
        <time>2025-09-28T09:34:30Z</time>
      </trkpt>
      <trkpt lat="45.68338" lon="3.05448">
        <ele>816</ele>
        <time>2025-09-28T09:34:31Z</time>
      </trkpt>
      <trkpt lat="45.68338" lon="3.05448">
        <ele>816</ele>
        <time>2025-09-28T09:34:32Z</time>
      </trkpt>
      <trkpt lat="45.68336" lon="3.05447">
        <ele>816</ele>
        <time>2025-09-28T09:34:56Z</time>
      </trkpt>
      <trkpt lat="45.68334" lon="3.05447">
        <ele>816</ele>
        <time>2025-09-28T09:34:57Z</time>
      </trkpt>
      <trkpt lat="45.68332" lon="3.05447">
        <ele>816.2</ele>
        <time>2025-09-28T09:34:58Z</time>
      </trkpt>
      <trkpt lat="45.6833" lon="3.05447">
        <ele>816.2</ele>
        <time>2025-09-28T09:34:59Z</time>
      </trkpt>
      <trkpt lat="45.68327" lon="3.05448">
        <ele>816.4</ele>
        <time>2025-09-28T09:35:00Z</time>
      </trkpt>
      <trkpt lat="45.68324" lon="3.05447">
        <ele>816.6</ele>
        <time>2025-09-28T09:35:01Z</time>
      </trkpt>
      <trkpt lat="45.6832" lon="3.05447">
        <ele>816.8</ele>
        <time>2025-09-28T09:35:02Z</time>
      </trkpt>
      <trkpt lat="45.68317" lon="3.05446">
        <ele>816.8</ele>
        <time>2025-09-28T09:35:03Z</time>
      </trkpt>
      <trkpt lat="45.68313" lon="3.05446">
        <ele>817</ele>
        <time>2025-09-28T09:35:04Z</time>
      </trkpt>
      <trkpt lat="45.6831" lon="3.05444">
        <ele>817.2</ele>
        <time>2025-09-28T09:35:05Z</time>
      </trkpt>
      <trkpt lat="45.68306" lon="3.05443">
        <ele>817.4</ele>
        <time>2025-09-28T09:35:06Z</time>
      </trkpt>
      <trkpt lat="45.68302" lon="3.05441">
        <ele>817.6</ele>
        <time>2025-09-28T09:35:07Z</time>
      </trkpt>
      <trkpt lat="45.68298" lon="3.05438">
        <ele>817.8</ele>
        <time>2025-09-28T09:35:08Z</time>
      </trkpt>
      <trkpt lat="45.68295" lon="3.05435">
        <ele>818</ele>
        <time>2025-09-28T09:35:09Z</time>
      </trkpt>
      <trkpt lat="45.68292" lon="3.05432">
        <ele>818.2</ele>
        <time>2025-09-28T09:35:10Z</time>
      </trkpt>
      <trkpt lat="45.68291" lon="3.05428">
        <ele>818.4</ele>
        <time>2025-09-28T09:35:11Z</time>
      </trkpt>
      <trkpt lat="45.6829" lon="3.05424">
        <ele>818.6</ele>
        <time>2025-09-28T09:35:12Z</time>
      </trkpt>
      <trkpt lat="45.6829" lon="3.0542">
        <ele>818.8</ele>
        <time>2025-09-28T09:35:13Z</time>
      </trkpt>
      <trkpt lat="45.68289" lon="3.05416">
        <ele>819.2</ele>
        <time>2025-09-28T09:35:14Z</time>
      </trkpt>
      <trkpt lat="45.68287" lon="3.05411">
        <ele>819.4</ele>
        <time>2025-09-28T09:35:15Z</time>
      </trkpt>
      <trkpt lat="45.68286" lon="3.05405">
        <ele>819.6</ele>
        <time>2025-09-28T09:35:16Z</time>
      </trkpt>
      <trkpt lat="45.68284" lon="3.05399">
        <ele>819.8</ele>
        <time>2025-09-28T09:35:17Z</time>
      </trkpt>
      <trkpt lat="45.68283" lon="3.05394">
        <ele>820</ele>
        <time>2025-09-28T09:35:18Z</time>
      </trkpt>
      <trkpt lat="45.68281" lon="3.05389">
        <ele>820.4</ele>
        <time>2025-09-28T09:35:19Z</time>
      </trkpt>
      <trkpt lat="45.6828" lon="3.05384">
        <ele>820.6</ele>
        <time>2025-09-28T09:35:20Z</time>
      </trkpt>
      <trkpt lat="45.68278" lon="3.0538">
        <ele>820.8</ele>
        <time>2025-09-28T09:35:21Z</time>
      </trkpt>
      <trkpt lat="45.68278" lon="3.05375">
        <ele>821.2</ele>
        <time>2025-09-28T09:35:22Z</time>
      </trkpt>
      <trkpt lat="45.68277" lon="3.05371">
        <ele>821.6</ele>
        <time>2025-09-28T09:35:23Z</time>
      </trkpt>
      <trkpt lat="45.68276" lon="3.05366">
        <ele>821.8</ele>
        <time>2025-09-28T09:35:24Z</time>
      </trkpt>
      <trkpt lat="45.68275" lon="3.05362">
        <ele>822.2</ele>
        <time>2025-09-28T09:35:25Z</time>
      </trkpt>
      <trkpt lat="45.68275" lon="3.05359">
        <ele>822.4</ele>
        <time>2025-09-28T09:35:26Z</time>
      </trkpt>
      <trkpt lat="45.68274" lon="3.05355">
        <ele>822.6</ele>
        <time>2025-09-28T09:35:27Z</time>
      </trkpt>
      <trkpt lat="45.68274" lon="3.05351">
        <ele>822.8</ele>
        <time>2025-09-28T09:35:28Z</time>
      </trkpt>
      <trkpt lat="45.68273" lon="3.05346">
        <ele>823</ele>
        <time>2025-09-28T09:35:29Z</time>
      </trkpt>
      <trkpt lat="45.68271" lon="3.0534">
        <ele>823.2</ele>
        <time>2025-09-28T09:35:30Z</time>
      </trkpt>
      <trkpt lat="45.68271" lon="3.05336">
        <ele>823.4</ele>
        <time>2025-09-28T09:35:31Z</time>
      </trkpt>
      <trkpt lat="45.6827" lon="3.05333">
        <ele>823.6</ele>
        <time>2025-09-28T09:35:32Z</time>
      </trkpt>
      <trkpt lat="45.6827" lon="3.0533">
        <ele>823.8</ele>
        <time>2025-09-28T09:35:33Z</time>
      </trkpt>
      <trkpt lat="45.68269" lon="3.05328">
        <ele>824</ele>
        <time>2025-09-28T09:35:34Z</time>
      </trkpt>
      <trkpt lat="45.68269" lon="3.05325">
        <ele>824.2</ele>
        <time>2025-09-28T09:35:35Z</time>
      </trkpt>
      <trkpt lat="45.68268" lon="3.05323">
        <ele>824.4</ele>
        <time>2025-09-28T09:35:36Z</time>
      </trkpt>
      <trkpt lat="45.68267" lon="3.0532">
        <ele>824.4</ele>
        <time>2025-09-28T09:35:37Z</time>
      </trkpt>
      <trkpt lat="45.68266" lon="3.05317">
        <ele>824.6</ele>
        <time>2025-09-28T09:35:38Z</time>
      </trkpt>
      <trkpt lat="45.68265" lon="3.05314">
        <ele>824.6</ele>
        <time>2025-09-28T09:35:39Z</time>
      </trkpt>
      <trkpt lat="45.68264" lon="3.05312">
        <ele>824.8</ele>
        <time>2025-09-28T09:35:40Z</time>
      </trkpt>
      <trkpt lat="45.68263" lon="3.05309">
        <ele>824.8</ele>
        <time>2025-09-28T09:35:41Z</time>
      </trkpt>
      <trkpt lat="45.68261" lon="3.05306">
        <ele>825</ele>
        <time>2025-09-28T09:35:42Z</time>
      </trkpt>
      <trkpt lat="45.6826" lon="3.05302">
        <ele>825</ele>
        <time>2025-09-28T09:35:43Z</time>
      </trkpt>
      <trkpt lat="45.68258" lon="3.05299">
        <ele>825.2</ele>
        <time>2025-09-28T09:35:44Z</time>
      </trkpt>
      <trkpt lat="45.68257" lon="3.05296">
        <ele>825.2</ele>
        <time>2025-09-28T09:35:45Z</time>
      </trkpt>
      <trkpt lat="45.68256" lon="3.05293">
        <ele>825.2</ele>
        <time>2025-09-28T09:35:46Z</time>
      </trkpt>
      <trkpt lat="45.68255" lon="3.0529">
        <ele>825.4</ele>
        <time>2025-09-28T09:35:47Z</time>
      </trkpt>
      <trkpt lat="45.68253" lon="3.05287">
        <ele>825.4</ele>
        <time>2025-09-28T09:35:48Z</time>
      </trkpt>
      <trkpt lat="45.68252" lon="3.05284">
        <ele>825.6</ele>
        <time>2025-09-28T09:35:49Z</time>
      </trkpt>
      <trkpt lat="45.68252" lon="3.05283">
        <ele>825.8</ele>
        <time>2025-09-28T09:35:50Z</time>
      </trkpt>
      <trkpt lat="45.68251" lon="3.05281">
        <ele>825.8</ele>
        <time>2025-09-28T09:35:51Z</time>
      </trkpt>
      <trkpt lat="45.68251" lon="3.05279">
        <ele>826</ele>
        <time>2025-09-28T09:35:52Z</time>
      </trkpt>
      <trkpt lat="45.6825" lon="3.05277">
        <ele>826.2</ele>
        <time>2025-09-28T09:35:53Z</time>
      </trkpt>
      <trkpt lat="45.68249" lon="3.05274">
        <ele>826.4</ele>
        <time>2025-09-28T09:35:54Z</time>
      </trkpt>
      <trkpt lat="45.68248" lon="3.05271">
        <ele>826.6</ele>
        <time>2025-09-28T09:35:55Z</time>
      </trkpt>
      <trkpt lat="45.68248" lon="3.05268">
        <ele>826.8</ele>
        <time>2025-09-28T09:35:56Z</time>
      </trkpt>
      <trkpt lat="45.68249" lon="3.05265">
        <ele>827</ele>
        <time>2025-09-28T09:35:57Z</time>
      </trkpt>
      <trkpt lat="45.68249" lon="3.05262">
        <ele>827.2</ele>
        <time>2025-09-28T09:35:58Z</time>
      </trkpt>
      <trkpt lat="45.68249" lon="3.05259">
        <ele>827.4</ele>
        <time>2025-09-28T09:35:59Z</time>
      </trkpt>
      <trkpt lat="45.68249" lon="3.05255">
        <ele>827.6</ele>
        <time>2025-09-28T09:36:00Z</time>
      </trkpt>
      <trkpt lat="45.6825" lon="3.05251">
        <ele>828</ele>
        <time>2025-09-28T09:36:01Z</time>
      </trkpt>
      <trkpt lat="45.6825" lon="3.05247">
        <ele>828.2</ele>
        <time>2025-09-28T09:36:02Z</time>
      </trkpt>
      <trkpt lat="45.6825" lon="3.05243">
        <ele>828.4</ele>
        <time>2025-09-28T09:36:03Z</time>
      </trkpt>
      <trkpt lat="45.6825" lon="3.0524">
        <ele>828.6</ele>
        <time>2025-09-28T09:36:04Z</time>
      </trkpt>
      <trkpt lat="45.68249" lon="3.05236">
        <ele>829</ele>
        <time>2025-09-28T09:36:05Z</time>
      </trkpt>
      <trkpt lat="45.68249" lon="3.05233">
        <ele>829.2</ele>
        <time>2025-09-28T09:36:06Z</time>
      </trkpt>
      <trkpt lat="45.68248" lon="3.05229">
        <ele>829.4</ele>
        <time>2025-09-28T09:36:07Z</time>
      </trkpt>
      <trkpt lat="45.68247" lon="3.05226">
        <ele>829.6</ele>
        <time>2025-09-28T09:36:08Z</time>
      </trkpt>
      <trkpt lat="45.68247" lon="3.05222">
        <ele>830</ele>
        <time>2025-09-28T09:36:09Z</time>
      </trkpt>
      <trkpt lat="45.68247" lon="3.05219">
        <ele>830.2</ele>
        <time>2025-09-28T09:36:10Z</time>
      </trkpt>
      <trkpt lat="45.68246" lon="3.05217">
        <ele>830.4</ele>
        <time>2025-09-28T09:36:11Z</time>
      </trkpt>
      <trkpt lat="45.68244" lon="3.05214">
        <ele>830.6</ele>
        <time>2025-09-28T09:36:12Z</time>
      </trkpt>
      <trkpt lat="45.68242" lon="3.05212">
        <ele>830.8</ele>
        <time>2025-09-28T09:36:13Z</time>
      </trkpt>
      <trkpt lat="45.68241" lon="3.0521">
        <ele>831</ele>
        <time>2025-09-28T09:36:14Z</time>
      </trkpt>
      <trkpt lat="45.6824" lon="3.05208">
        <ele>831.2</ele>
        <time>2025-09-28T09:36:15Z</time>
      </trkpt>
      <trkpt lat="45.6824" lon="3.05205">
        <ele>831.6</ele>
        <time>2025-09-28T09:36:16Z</time>
      </trkpt>
      <trkpt lat="45.6824" lon="3.05203">
        <ele>831.8</ele>
        <time>2025-09-28T09:36:17Z</time>
      </trkpt>
      <trkpt lat="45.6824" lon="3.05202">
        <ele>832</ele>
        <time>2025-09-28T09:36:18Z</time>
      </trkpt>
      <trkpt lat="45.6824" lon="3.052">
        <ele>832.2</ele>
        <time>2025-09-28T09:36:19Z</time>
      </trkpt>
      <trkpt lat="45.6824" lon="3.05198">
        <ele>832.4</ele>
        <time>2025-09-28T09:36:20Z</time>
      </trkpt>
      <trkpt lat="45.68239" lon="3.05195">
        <ele>832.6</ele>
        <time>2025-09-28T09:36:21Z</time>
      </trkpt>
      <trkpt lat="45.68238" lon="3.05193">
        <ele>832.8</ele>
        <time>2025-09-28T09:36:22Z</time>
      </trkpt>
      <trkpt lat="45.68237" lon="3.0519">
        <ele>833</ele>
        <time>2025-09-28T09:36:23Z</time>
      </trkpt>
      <trkpt lat="45.68236" lon="3.05188">
        <ele>833.2</ele>
        <time>2025-09-28T09:36:24Z</time>
      </trkpt>
      <trkpt lat="45.68234" lon="3.05185">
        <ele>833.4</ele>
        <time>2025-09-28T09:36:25Z</time>
      </trkpt>
      <trkpt lat="45.68233" lon="3.05182">
        <ele>833.6</ele>
        <time>2025-09-28T09:36:26Z</time>
      </trkpt>
      <trkpt lat="45.68231" lon="3.05179">
        <ele>834</ele>
        <time>2025-09-28T09:36:27Z</time>
      </trkpt>
      <trkpt lat="45.6823" lon="3.05176">
        <ele>834.2</ele>
        <time>2025-09-28T09:36:28Z</time>
      </trkpt>
      <trkpt lat="45.68229" lon="3.05174">
        <ele>834.4</ele>
        <time>2025-09-28T09:36:29Z</time>
      </trkpt>
      <trkpt lat="45.68228" lon="3.05171">
        <ele>834.6</ele>
        <time>2025-09-28T09:36:30Z</time>
      </trkpt>
      <trkpt lat="45.68228" lon="3.05167">
        <ele>834.8</ele>
        <time>2025-09-28T09:36:31Z</time>
      </trkpt>
      <trkpt lat="45.68227" lon="3.05164">
        <ele>835</ele>
        <time>2025-09-28T09:36:32Z</time>
      </trkpt>
      <trkpt lat="45.68226" lon="3.05161">
        <ele>835.2</ele>
        <time>2025-09-28T09:36:33Z</time>
      </trkpt>
      <trkpt lat="45.68225" lon="3.05157">
        <ele>835.4</ele>
        <time>2025-09-28T09:36:34Z</time>
      </trkpt>
      <trkpt lat="45.68223" lon="3.05153">
        <ele>835.6</ele>
        <time>2025-09-28T09:36:35Z</time>
      </trkpt>
      <trkpt lat="45.68222" lon="3.0515">
        <ele>835.8</ele>
        <time>2025-09-28T09:36:36Z</time>
      </trkpt>
      <trkpt lat="45.68221" lon="3.05147">
        <ele>835.8</ele>
        <time>2025-09-28T09:36:37Z</time>
      </trkpt>
      <trkpt lat="45.68218" lon="3.05144">
        <ele>836</ele>
        <time>2025-09-28T09:36:38Z</time>
      </trkpt>
      <trkpt lat="45.68215" lon="3.05141">
        <ele>836.2</ele>
        <time>2025-09-28T09:36:39Z</time>
      </trkpt>
      <trkpt lat="45.68213" lon="3.05138">
        <ele>836.2</ele>
        <time>2025-09-28T09:36:40Z</time>
      </trkpt>
      <trkpt lat="45.68211" lon="3.05135">
        <ele>836.4</ele>
        <time>2025-09-28T09:36:41Z</time>
      </trkpt>
      <trkpt lat="45.68208" lon="3.05132">
        <ele>836.6</ele>
        <time>2025-09-28T09:36:42Z</time>
      </trkpt>
      <trkpt lat="45.68205" lon="3.0513">
        <ele>836.6</ele>
        <time>2025-09-28T09:36:43Z</time>
      </trkpt>
      <trkpt lat="45.68203" lon="3.05127">
        <ele>836.8</ele>
        <time>2025-09-28T09:36:44Z</time>
      </trkpt>
      <trkpt lat="45.682" lon="3.05125">
        <ele>837</ele>
        <time>2025-09-28T09:36:45Z</time>
      </trkpt>
      <trkpt lat="45.68198" lon="3.05123">
        <ele>837.2</ele>
        <time>2025-09-28T09:36:46Z</time>
      </trkpt>
      <trkpt lat="45.68195" lon="3.05121">
        <ele>837.4</ele>
        <time>2025-09-28T09:36:47Z</time>
      </trkpt>
      <trkpt lat="45.68193" lon="3.05118">
        <ele>837.4</ele>
        <time>2025-09-28T09:36:48Z</time>
      </trkpt>
      <trkpt lat="45.6819" lon="3.05115">
        <ele>837.6</ele>
        <time>2025-09-28T09:36:49Z</time>
      </trkpt>
      <trkpt lat="45.68187" lon="3.05112">
        <ele>837.8</ele>
        <time>2025-09-28T09:36:50Z</time>
      </trkpt>
      <trkpt lat="45.68185" lon="3.0511">
        <ele>838</ele>
        <time>2025-09-28T09:36:51Z</time>
      </trkpt>
      <trkpt lat="45.68182" lon="3.05108">
        <ele>838.2</ele>
        <time>2025-09-28T09:36:52Z</time>
      </trkpt>
      <trkpt lat="45.68179" lon="3.05106">
        <ele>838.4</ele>
        <time>2025-09-28T09:36:53Z</time>
      </trkpt>
      <trkpt lat="45.68177" lon="3.05104">
        <ele>838.6</ele>
        <time>2025-09-28T09:36:54Z</time>
      </trkpt>
      <trkpt lat="45.68174" lon="3.05103">
        <ele>838.6</ele>
        <time>2025-09-28T09:36:55Z</time>
      </trkpt>
      <trkpt lat="45.68171" lon="3.05101">
        <ele>838.8</ele>
        <time>2025-09-28T09:36:56Z</time>
      </trkpt>
      <trkpt lat="45.68168" lon="3.051">
        <ele>839</ele>
        <time>2025-09-28T09:36:57Z</time>
      </trkpt>
      <trkpt lat="45.68165" lon="3.05098">
        <ele>839.2</ele>
        <time>2025-09-28T09:36:58Z</time>
      </trkpt>
      <trkpt lat="45.68162" lon="3.05096">
        <ele>839.4</ele>
        <time>2025-09-28T09:36:59Z</time>
      </trkpt>
      <trkpt lat="45.68159" lon="3.05094">
        <ele>839.6</ele>
        <time>2025-09-28T09:37:00Z</time>
      </trkpt>
      <trkpt lat="45.68156" lon="3.05091">
        <ele>839.8</ele>
        <time>2025-09-28T09:37:01Z</time>
      </trkpt>
      <trkpt lat="45.68153" lon="3.05089">
        <ele>840.2</ele>
        <time>2025-09-28T09:37:02Z</time>
      </trkpt>
      <trkpt lat="45.6815" lon="3.05086">
        <ele>840.4</ele>
        <time>2025-09-28T09:37:03Z</time>
      </trkpt>
      <trkpt lat="45.68147" lon="3.05085">
        <ele>840.6</ele>
        <time>2025-09-28T09:37:04Z</time>
      </trkpt>
      <trkpt lat="45.68144" lon="3.05083">
        <ele>840.6</ele>
        <time>2025-09-28T09:37:05Z</time>
      </trkpt>
      <trkpt lat="45.68141" lon="3.05082">
        <ele>840.8</ele>
        <time>2025-09-28T09:37:06Z</time>
      </trkpt>
      <trkpt lat="45.68138" lon="3.05081">
        <ele>841</ele>
        <time>2025-09-28T09:37:07Z</time>
      </trkpt>
      <trkpt lat="45.68135" lon="3.05079">
        <ele>841</ele>
        <time>2025-09-28T09:37:08Z</time>
      </trkpt>
      <trkpt lat="45.68132" lon="3.05078">
        <ele>841.2</ele>
        <time>2025-09-28T09:37:09Z</time>
      </trkpt>
      <trkpt lat="45.68129" lon="3.05076">
        <ele>841.2</ele>
        <time>2025-09-28T09:37:10Z</time>
      </trkpt>
      <trkpt lat="45.68126" lon="3.05074">
        <ele>841.4</ele>
        <time>2025-09-28T09:37:11Z</time>
      </trkpt>
      <trkpt lat="45.68124" lon="3.05072">
        <ele>841.6</ele>
        <time>2025-09-28T09:37:12Z</time>
      </trkpt>
      <trkpt lat="45.68121" lon="3.05071">
        <ele>841.6</ele>
        <time>2025-09-28T09:37:13Z</time>
      </trkpt>
      <trkpt lat="45.68118" lon="3.05069">
        <ele>841.8</ele>
        <time>2025-09-28T09:37:14Z</time>
      </trkpt>
      <trkpt lat="45.68115" lon="3.05068">
        <ele>842</ele>
        <time>2025-09-28T09:37:15Z</time>
      </trkpt>
      <trkpt lat="45.68113" lon="3.05066">
        <ele>842.2</ele>
        <time>2025-09-28T09:37:16Z</time>
      </trkpt>
      <trkpt lat="45.6811" lon="3.05064">
        <ele>842.2</ele>
        <time>2025-09-28T09:37:17Z</time>
      </trkpt>
      <trkpt lat="45.68108" lon="3.05062">
        <ele>842.4</ele>
        <time>2025-09-28T09:37:18Z</time>
      </trkpt>
      <trkpt lat="45.68105" lon="3.0506">
        <ele>842.4</ele>
        <time>2025-09-28T09:37:19Z</time>
      </trkpt>
      <trkpt lat="45.68104" lon="3.05058">
        <ele>842.6</ele>
        <time>2025-09-28T09:37:20Z</time>
      </trkpt>
      <trkpt lat="45.68102" lon="3.05056">
        <ele>842.8</ele>
        <time>2025-09-28T09:37:21Z</time>
      </trkpt>
      <trkpt lat="45.68099" lon="3.05054">
        <ele>842.8</ele>
        <time>2025-09-28T09:37:22Z</time>
      </trkpt>
      <trkpt lat="45.68097" lon="3.05051">
        <ele>843</ele>
        <time>2025-09-28T09:37:23Z</time>
      </trkpt>
      <trkpt lat="45.68095" lon="3.05048">
        <ele>843</ele>
        <time>2025-09-28T09:37:24Z</time>
      </trkpt>
      <trkpt lat="45.68093" lon="3.05045">
        <ele>843.2</ele>
        <time>2025-09-28T09:37:25Z</time>
      </trkpt>
      <trkpt lat="45.68092" lon="3.05042">
        <ele>843.2</ele>
        <time>2025-09-28T09:37:26Z</time>
      </trkpt>
      <trkpt lat="45.6809" lon="3.05039">
        <ele>843.4</ele>
        <time>2025-09-28T09:37:27Z</time>
      </trkpt>
      <trkpt lat="45.68087" lon="3.05035">
        <ele>843.4</ele>
        <time>2025-09-28T09:37:28Z</time>
      </trkpt>
      <trkpt lat="45.68085" lon="3.05031">
        <ele>843.6</ele>
        <time>2025-09-28T09:37:29Z</time>
      </trkpt>
      <trkpt lat="45.68082" lon="3.05028">
        <ele>843.6</ele>
        <time>2025-09-28T09:37:30Z</time>
      </trkpt>
      <trkpt lat="45.68079" lon="3.05024">
        <ele>843.6</ele>
        <time>2025-09-28T09:37:31Z</time>
      </trkpt>
      <trkpt lat="45.68077" lon="3.0502">
        <ele>843.8</ele>
        <time>2025-09-28T09:37:32Z</time>
      </trkpt>
      <trkpt lat="45.68074" lon="3.05016">
        <ele>843.8</ele>
        <time>2025-09-28T09:37:33Z</time>
      </trkpt>
      <trkpt lat="45.68072" lon="3.05013">
        <ele>844</ele>
        <time>2025-09-28T09:37:34Z</time>
      </trkpt>
      <trkpt lat="45.68069" lon="3.0501">
        <ele>844</ele>
        <time>2025-09-28T09:37:35Z</time>
      </trkpt>
      <trkpt lat="45.68065" lon="3.05007">
        <ele>844.2</ele>
        <time>2025-09-28T09:37:36Z</time>
      </trkpt>
      <trkpt lat="45.68062" lon="3.05003">
        <ele>844.4</ele>
        <time>2025-09-28T09:37:37Z</time>
      </trkpt>
      <trkpt lat="45.6806" lon="3.05">
        <ele>844.6</ele>
        <time>2025-09-28T09:37:38Z</time>
      </trkpt>
      <trkpt lat="45.68058" lon="3.04997">
        <ele>844.8</ele>
        <time>2025-09-28T09:37:39Z</time>
      </trkpt>
      <trkpt lat="45.68056" lon="3.04993">
        <ele>845</ele>
        <time>2025-09-28T09:37:40Z</time>
      </trkpt>
      <trkpt lat="45.68054" lon="3.04989">
        <ele>845.4</ele>
        <time>2025-09-28T09:37:41Z</time>
      </trkpt>
      <trkpt lat="45.68051" lon="3.04986">
        <ele>845.8</ele>
        <time>2025-09-28T09:37:42Z</time>
      </trkpt>
      <trkpt lat="45.68049" lon="3.04982">
        <ele>846</ele>
        <time>2025-09-28T09:37:43Z</time>
      </trkpt>
      <trkpt lat="45.68046" lon="3.04978">
        <ele>846.4</ele>
        <time>2025-09-28T09:37:44Z</time>
      </trkpt>
      <trkpt lat="45.68042" lon="3.04976">
        <ele>846.6</ele>
        <time>2025-09-28T09:37:45Z</time>
      </trkpt>
      <trkpt lat="45.68039" lon="3.04974">
        <ele>847</ele>
        <time>2025-09-28T09:37:46Z</time>
      </trkpt>
      <trkpt lat="45.68035" lon="3.04973">
        <ele>847.2</ele>
        <time>2025-09-28T09:37:47Z</time>
      </trkpt>
      <trkpt lat="45.68033" lon="3.04972">
        <ele>847.4</ele>
        <time>2025-09-28T09:37:48Z</time>
      </trkpt>
      <trkpt lat="45.6803" lon="3.04969">
        <ele>847.6</ele>
        <time>2025-09-28T09:37:49Z</time>
      </trkpt>
      <trkpt lat="45.68026" lon="3.04966">
        <ele>847.8</ele>
        <time>2025-09-28T09:37:50Z</time>
      </trkpt>
      <trkpt lat="45.68024" lon="3.04963">
        <ele>848</ele>
        <time>2025-09-28T09:37:51Z</time>
      </trkpt>
      <trkpt lat="45.68021" lon="3.04961">
        <ele>848.2</ele>
        <time>2025-09-28T09:37:52Z</time>
      </trkpt>
      <trkpt lat="45.68017" lon="3.04958">
        <ele>848.4</ele>
        <time>2025-09-28T09:37:53Z</time>
      </trkpt>
      <trkpt lat="45.68015" lon="3.04955">
        <ele>848.6</ele>
        <time>2025-09-28T09:37:54Z</time>
      </trkpt>
      <trkpt lat="45.68012" lon="3.04952">
        <ele>848.8</ele>
        <time>2025-09-28T09:37:55Z</time>
      </trkpt>
      <trkpt lat="45.68011" lon="3.0495">
        <ele>848.8</ele>
        <time>2025-09-28T09:37:56Z</time>
      </trkpt>
      <trkpt lat="45.68009" lon="3.04947">
        <ele>849</ele>
        <time>2025-09-28T09:37:57Z</time>
      </trkpt>
      <trkpt lat="45.68007" lon="3.04944">
        <ele>849.2</ele>
        <time>2025-09-28T09:37:58Z</time>
      </trkpt>
      <trkpt lat="45.68006" lon="3.04941">
        <ele>849.2</ele>
        <time>2025-09-28T09:37:59Z</time>
      </trkpt>
      <trkpt lat="45.68005" lon="3.04936">
        <ele>849.4</ele>
        <time>2025-09-28T09:38:00Z</time>
      </trkpt>
      <trkpt lat="45.68004" lon="3.04931">
        <ele>849.6</ele>
        <time>2025-09-28T09:38:01Z</time>
      </trkpt>
      <trkpt lat="45.68004" lon="3.04927">
        <ele>849.6</ele>
        <time>2025-09-28T09:38:02Z</time>
      </trkpt>
      <trkpt lat="45.68003" lon="3.04923">
        <ele>849.8</ele>
        <time>2025-09-28T09:38:03Z</time>
      </trkpt>
      <trkpt lat="45.68003" lon="3.0492">
        <ele>850</ele>
        <time>2025-09-28T09:38:04Z</time>
      </trkpt>
      <trkpt lat="45.68003" lon="3.04916">
        <ele>850.2</ele>
        <time>2025-09-28T09:38:05Z</time>
      </trkpt>
      <trkpt lat="45.68004" lon="3.04912">
        <ele>850.4</ele>
        <time>2025-09-28T09:38:06Z</time>
      </trkpt>
      <trkpt lat="45.68005" lon="3.04907">
        <ele>850.6</ele>
        <time>2025-09-28T09:38:07Z</time>
      </trkpt>
      <trkpt lat="45.68006" lon="3.04902">
        <ele>850.8</ele>
        <time>2025-09-28T09:38:08Z</time>
      </trkpt>
      <trkpt lat="45.68008" lon="3.04897">
        <ele>851</ele>
        <time>2025-09-28T09:38:09Z</time>
      </trkpt>
      <trkpt lat="45.68009" lon="3.04893">
        <ele>851.2</ele>
        <time>2025-09-28T09:38:10Z</time>
      </trkpt>
      <trkpt lat="45.6801" lon="3.04888">
        <ele>851.4</ele>
        <time>2025-09-28T09:38:11Z</time>
      </trkpt>
      <trkpt lat="45.68012" lon="3.04884">
        <ele>851.4</ele>
        <time>2025-09-28T09:38:12Z</time>
      </trkpt>
      <trkpt lat="45.68013" lon="3.0488">
        <ele>851.6</ele>
        <time>2025-09-28T09:38:13Z</time>
      </trkpt>
      <trkpt lat="45.68014" lon="3.04875">
        <ele>851.8</ele>
        <time>2025-09-28T09:38:14Z</time>
      </trkpt>
      <trkpt lat="45.68015" lon="3.04871">
        <ele>852</ele>
        <time>2025-09-28T09:38:15Z</time>
      </trkpt>
      <trkpt lat="45.68015" lon="3.04866">
        <ele>852.2</ele>
        <time>2025-09-28T09:38:16Z</time>
      </trkpt>
      <trkpt lat="45.68016" lon="3.04862">
        <ele>852.4</ele>
        <time>2025-09-28T09:38:17Z</time>
      </trkpt>
      <trkpt lat="45.68017" lon="3.04858">
        <ele>852.6</ele>
        <time>2025-09-28T09:38:18Z</time>
      </trkpt>
      <trkpt lat="45.68019" lon="3.04854">
        <ele>852.8</ele>
        <time>2025-09-28T09:38:19Z</time>
      </trkpt>
      <trkpt lat="45.68021" lon="3.04849">
        <ele>852.8</ele>
        <time>2025-09-28T09:38:20Z</time>
      </trkpt>
      <trkpt lat="45.68023" lon="3.04845">
        <ele>853</ele>
        <time>2025-09-28T09:38:21Z</time>
      </trkpt>
      <trkpt lat="45.68026" lon="3.0484">
        <ele>853.2</ele>
        <time>2025-09-28T09:38:22Z</time>
      </trkpt>
      <trkpt lat="45.68029" lon="3.04836">
        <ele>853.4</ele>
        <time>2025-09-28T09:38:23Z</time>
      </trkpt>
      <trkpt lat="45.6803" lon="3.04832">
        <ele>853.6</ele>
        <time>2025-09-28T09:38:24Z</time>
      </trkpt>
      <trkpt lat="45.68031" lon="3.04829">
        <ele>853.8</ele>
        <time>2025-09-28T09:38:25Z</time>
      </trkpt>
      <trkpt lat="45.68033" lon="3.04827">
        <ele>854</ele>
        <time>2025-09-28T09:38:26Z</time>
      </trkpt>
      <trkpt lat="45.68034" lon="3.04825">
        <ele>854.2</ele>
        <time>2025-09-28T09:38:27Z</time>
      </trkpt>
      <trkpt lat="45.68036" lon="3.04821">
        <ele>854.4</ele>
        <time>2025-09-28T09:38:28Z</time>
      </trkpt>
      <trkpt lat="45.68037" lon="3.04817">
        <ele>854.8</ele>
        <time>2025-09-28T09:38:29Z</time>
      </trkpt>
      <trkpt lat="45.68039" lon="3.04812">
        <ele>855</ele>
        <time>2025-09-28T09:38:30Z</time>
      </trkpt>
      <trkpt lat="45.6804" lon="3.04808">
        <ele>855.2</ele>
        <time>2025-09-28T09:38:31Z</time>
      </trkpt>
      <trkpt lat="45.68041" lon="3.04805">
        <ele>855.4</ele>
        <time>2025-09-28T09:38:32Z</time>
      </trkpt>
      <trkpt lat="45.68043" lon="3.04803">
        <ele>855.6</ele>
        <time>2025-09-28T09:38:33Z</time>
      </trkpt>
      <trkpt lat="45.68045" lon="3.04801">
        <ele>855.8</ele>
        <time>2025-09-28T09:38:34Z</time>
      </trkpt>
      <trkpt lat="45.68048" lon="3.048">
        <ele>856</ele>
        <time>2025-09-28T09:38:35Z</time>
      </trkpt>
      <trkpt lat="45.6805" lon="3.04799">
        <ele>856.2</ele>
        <time>2025-09-28T09:38:36Z</time>
      </trkpt>
      <trkpt lat="45.68052" lon="3.04796">
        <ele>856.4</ele>
        <time>2025-09-28T09:38:37Z</time>
      </trkpt>
      <trkpt lat="45.68055" lon="3.04793">
        <ele>856.6</ele>
        <time>2025-09-28T09:38:38Z</time>
      </trkpt>
      <trkpt lat="45.68056" lon="3.04789">
        <ele>856.8</ele>
        <time>2025-09-28T09:38:39Z</time>
      </trkpt>
      <trkpt lat="45.68054" lon="3.04785">
        <ele>857</ele>
        <time>2025-09-28T09:38:40Z</time>
      </trkpt>
      <trkpt lat="45.68051" lon="3.0478">
        <ele>857.2</ele>
        <time>2025-09-28T09:38:41Z</time>
      </trkpt>
      <trkpt lat="45.68047" lon="3.04777">
        <ele>857.2</ele>
        <time>2025-09-28T09:38:42Z</time>
      </trkpt>
      <trkpt lat="45.68044" lon="3.04773">
        <ele>857.4</ele>
        <time>2025-09-28T09:38:43Z</time>
      </trkpt>
      <trkpt lat="45.68042" lon="3.04769">
        <ele>857.4</ele>
        <time>2025-09-28T09:38:44Z</time>
      </trkpt>
      <trkpt lat="45.68041" lon="3.04764">
        <ele>857.6</ele>
        <time>2025-09-28T09:38:45Z</time>
      </trkpt>
      <trkpt lat="45.68042" lon="3.0476">
        <ele>857.8</ele>
        <time>2025-09-28T09:38:46Z</time>
      </trkpt>
      <trkpt lat="45.68043" lon="3.04756">
        <ele>857.8</ele>
        <time>2025-09-28T09:38:47Z</time>
      </trkpt>
      <trkpt lat="45.68046" lon="3.04752">
        <ele>858</ele>
        <time>2025-09-28T09:38:48Z</time>
      </trkpt>
      <trkpt lat="45.68048" lon="3.04748">
        <ele>858.2</ele>
        <time>2025-09-28T09:38:49Z</time>
      </trkpt>
      <trkpt lat="45.68048" lon="3.04745">
        <ele>858.6</ele>
        <time>2025-09-28T09:38:50Z</time>
      </trkpt>
      <trkpt lat="45.68048" lon="3.04742">
        <ele>858.8</ele>
        <time>2025-09-28T09:38:51Z</time>
      </trkpt>
      <trkpt lat="45.68049" lon="3.04739">
        <ele>859</ele>
        <time>2025-09-28T09:38:52Z</time>
      </trkpt>
      <trkpt lat="45.6805" lon="3.04736">
        <ele>859.2</ele>
        <time>2025-09-28T09:38:53Z</time>
      </trkpt>
      <trkpt lat="45.68052" lon="3.04733">
        <ele>859.6</ele>
        <time>2025-09-28T09:38:54Z</time>
      </trkpt>
      <trkpt lat="45.68053" lon="3.04731">
        <ele>860</ele>
        <time>2025-09-28T09:38:55Z</time>
      </trkpt>
      <trkpt lat="45.68054" lon="3.04728">
        <ele>860.2</ele>
        <time>2025-09-28T09:38:56Z</time>
      </trkpt>
      <trkpt lat="45.68055" lon="3.04726">
        <ele>860.6</ele>
        <time>2025-09-28T09:38:57Z</time>
      </trkpt>
      <trkpt lat="45.68056" lon="3.04723">
        <ele>860.8</ele>
        <time>2025-09-28T09:38:58Z</time>
      </trkpt>
      <trkpt lat="45.68056" lon="3.04721">
        <ele>861</ele>
        <time>2025-09-28T09:38:59Z</time>
      </trkpt>
      <trkpt lat="45.68057" lon="3.04717">
        <ele>861.2</ele>
        <time>2025-09-28T09:39:00Z</time>
      </trkpt>
      <trkpt lat="45.68057" lon="3.04714">
        <ele>861.4</ele>
        <time>2025-09-28T09:39:01Z</time>
      </trkpt>
      <trkpt lat="45.68059" lon="3.0471">
        <ele>861.8</ele>
        <time>2025-09-28T09:39:02Z</time>
      </trkpt>
      <trkpt lat="45.6806" lon="3.04707">
        <ele>862</ele>
        <time>2025-09-28T09:39:03Z</time>
      </trkpt>
      <trkpt lat="45.68061" lon="3.04704">
        <ele>862.2</ele>
        <time>2025-09-28T09:39:04Z</time>
      </trkpt>
      <trkpt lat="45.68062" lon="3.04701">
        <ele>862.6</ele>
        <time>2025-09-28T09:39:05Z</time>
      </trkpt>
      <trkpt lat="45.68063" lon="3.04698">
        <ele>862.8</ele>
        <time>2025-09-28T09:39:06Z</time>
      </trkpt>
      <trkpt lat="45.68064" lon="3.04695">
        <ele>863</ele>
        <time>2025-09-28T09:39:07Z</time>
      </trkpt>
      <trkpt lat="45.68064" lon="3.04692">
        <ele>863.2</ele>
        <time>2025-09-28T09:39:08Z</time>
      </trkpt>
      <trkpt lat="45.68065" lon="3.04689">
        <ele>863.4</ele>
        <time>2025-09-28T09:39:09Z</time>
      </trkpt>
      <trkpt lat="45.68066" lon="3.04687">
        <ele>863.6</ele>
        <time>2025-09-28T09:39:10Z</time>
      </trkpt>
      <trkpt lat="45.68067" lon="3.04684">
        <ele>863.8</ele>
        <time>2025-09-28T09:39:11Z</time>
      </trkpt>
      <trkpt lat="45.68067" lon="3.0468">
        <ele>864</ele>
        <time>2025-09-28T09:39:12Z</time>
      </trkpt>
      <trkpt lat="45.68068" lon="3.04677">
        <ele>864.2</ele>
        <time>2025-09-28T09:39:13Z</time>
      </trkpt>
      <trkpt lat="45.68068" lon="3.04674">
        <ele>864.4</ele>
        <time>2025-09-28T09:39:14Z</time>
      </trkpt>
      <trkpt lat="45.68068" lon="3.04671">
        <ele>864.6</ele>
        <time>2025-09-28T09:39:15Z</time>
      </trkpt>
      <trkpt lat="45.68069" lon="3.04668">
        <ele>864.8</ele>
        <time>2025-09-28T09:39:16Z</time>
      </trkpt>
      <trkpt lat="45.6807" lon="3.04665">
        <ele>865.2</ele>
        <time>2025-09-28T09:39:17Z</time>
      </trkpt>
      <trkpt lat="45.6807" lon="3.04661">
        <ele>865.4</ele>
        <time>2025-09-28T09:39:18Z</time>
      </trkpt>
      <trkpt lat="45.68071" lon="3.04658">
        <ele>865.6</ele>
        <time>2025-09-28T09:39:19Z</time>
      </trkpt>
      <trkpt lat="45.68072" lon="3.04655">
        <ele>866</ele>
        <time>2025-09-28T09:39:20Z</time>
      </trkpt>
      <trkpt lat="45.68072" lon="3.04652">
        <ele>866.2</ele>
        <time>2025-09-28T09:39:21Z</time>
      </trkpt>
      <trkpt lat="45.68073" lon="3.04648">
        <ele>866.4</ele>
        <time>2025-09-28T09:39:22Z</time>
      </trkpt>
      <trkpt lat="45.68074" lon="3.04644">
        <ele>866.6</ele>
        <time>2025-09-28T09:39:23Z</time>
      </trkpt>
      <trkpt lat="45.68075" lon="3.04641">
        <ele>866.8</ele>
        <time>2025-09-28T09:39:24Z</time>
      </trkpt>
      <trkpt lat="45.68075" lon="3.04638">
        <ele>867</ele>
        <time>2025-09-28T09:39:25Z</time>
      </trkpt>
      <trkpt lat="45.68076" lon="3.04635">
        <ele>867.4</ele>
        <time>2025-09-28T09:39:26Z</time>
      </trkpt>
      <trkpt lat="45.68077" lon="3.04633">
        <ele>867.6</ele>
        <time>2025-09-28T09:39:27Z</time>
      </trkpt>
      <trkpt lat="45.68079" lon="3.04631">
        <ele>868</ele>
        <time>2025-09-28T09:39:28Z</time>
      </trkpt>
      <trkpt lat="45.68081" lon="3.04629">
        <ele>868.2</ele>
        <time>2025-09-28T09:39:29Z</time>
      </trkpt>
      <trkpt lat="45.68083" lon="3.04627">
        <ele>868.4</ele>
        <time>2025-09-28T09:39:30Z</time>
      </trkpt>
      <trkpt lat="45.68084" lon="3.04626">
        <ele>868.8</ele>
        <time>2025-09-28T09:39:31Z</time>
      </trkpt>
      <trkpt lat="45.68085" lon="3.04624">
        <ele>869</ele>
        <time>2025-09-28T09:39:32Z</time>
      </trkpt>
      <trkpt lat="45.68086" lon="3.04622">
        <ele>869.2</ele>
        <time>2025-09-28T09:39:33Z</time>
      </trkpt>
      <trkpt lat="45.68087" lon="3.0462">
        <ele>869.6</ele>
        <time>2025-09-28T09:39:34Z</time>
      </trkpt>
      <trkpt lat="45.68088" lon="3.04618">
        <ele>869.8</ele>
        <time>2025-09-28T09:39:35Z</time>
      </trkpt>
      <trkpt lat="45.6809" lon="3.04615">
        <ele>870</ele>
        <time>2025-09-28T09:39:36Z</time>
      </trkpt>
      <trkpt lat="45.68091" lon="3.04613">
        <ele>870.2</ele>
        <time>2025-09-28T09:39:37Z</time>
      </trkpt>
      <trkpt lat="45.68092" lon="3.04611">
        <ele>870.6</ele>
        <time>2025-09-28T09:39:38Z</time>
      </trkpt>
      <trkpt lat="45.68093" lon="3.04608">
        <ele>870.8</ele>
        <time>2025-09-28T09:39:39Z</time>
      </trkpt>
      <trkpt lat="45.68094" lon="3.04606">
        <ele>871</ele>
        <time>2025-09-28T09:39:40Z</time>
      </trkpt>
      <trkpt lat="45.68095" lon="3.04605">
        <ele>871.2</ele>
        <time>2025-09-28T09:39:41Z</time>
      </trkpt>
      <trkpt lat="45.68096" lon="3.04602">
        <ele>871.4</ele>
        <time>2025-09-28T09:39:42Z</time>
      </trkpt>
      <trkpt lat="45.68097" lon="3.046">
        <ele>871.6</ele>
        <time>2025-09-28T09:39:43Z</time>
      </trkpt>
      <trkpt lat="45.68098" lon="3.04598">
        <ele>871.8</ele>
        <time>2025-09-28T09:39:44Z</time>
      </trkpt>
      <trkpt lat="45.68098" lon="3.04595">
        <ele>872</ele>
        <time>2025-09-28T09:39:45Z</time>
      </trkpt>
      <trkpt lat="45.68099" lon="3.04592">
        <ele>872.2</ele>
        <time>2025-09-28T09:39:46Z</time>
      </trkpt>
      <trkpt lat="45.681" lon="3.0459">
        <ele>872.4</ele>
        <time>2025-09-28T09:39:47Z</time>
      </trkpt>
      <trkpt lat="45.68101" lon="3.04587">
        <ele>872.8</ele>
        <time>2025-09-28T09:39:48Z</time>
      </trkpt>
      <trkpt lat="45.68102" lon="3.04584">
        <ele>873</ele>
        <time>2025-09-28T09:39:49Z</time>
      </trkpt>
      <trkpt lat="45.68103" lon="3.04582">
        <ele>873.2</ele>
        <time>2025-09-28T09:39:50Z</time>
      </trkpt>
      <trkpt lat="45.68103" lon="3.04579">
        <ele>873.4</ele>
        <time>2025-09-28T09:39:51Z</time>
      </trkpt>
      <trkpt lat="45.68104" lon="3.04577">
        <ele>873.8</ele>
        <time>2025-09-28T09:39:52Z</time>
      </trkpt>
      <trkpt lat="45.68105" lon="3.04575">
        <ele>874</ele>
        <time>2025-09-28T09:39:53Z</time>
      </trkpt>
      <trkpt lat="45.68106" lon="3.04573">
        <ele>874.2</ele>
        <time>2025-09-28T09:39:54Z</time>
      </trkpt>
      <trkpt lat="45.68108" lon="3.0457">
        <ele>874.4</ele>
        <time>2025-09-28T09:39:55Z</time>
      </trkpt>
      <trkpt lat="45.68108" lon="3.04568">
        <ele>874.8</ele>
        <time>2025-09-28T09:39:56Z</time>
      </trkpt>
      <trkpt lat="45.68109" lon="3.04565">
        <ele>875</ele>
        <time>2025-09-28T09:39:57Z</time>
      </trkpt>
      <trkpt lat="45.68109" lon="3.04562">
        <ele>875.2</ele>
        <time>2025-09-28T09:39:58Z</time>
      </trkpt>
      <trkpt lat="45.6811" lon="3.04559">
        <ele>875.4</ele>
        <time>2025-09-28T09:39:59Z</time>
      </trkpt>
      <trkpt lat="45.6811" lon="3.04557">
        <ele>875.6</ele>
        <time>2025-09-28T09:40:00Z</time>
      </trkpt>
      <trkpt lat="45.6811" lon="3.04554">
        <ele>875.8</ele>
        <time>2025-09-28T09:40:01Z</time>
      </trkpt>
      <trkpt lat="45.68111" lon="3.04552">
        <ele>876.2</ele>
        <time>2025-09-28T09:40:02Z</time>
      </trkpt>
      <trkpt lat="45.68111" lon="3.0455">
        <ele>876.4</ele>
        <time>2025-09-28T09:40:03Z</time>
      </trkpt>
      <trkpt lat="45.68112" lon="3.04547">
        <ele>876.6</ele>
        <time>2025-09-28T09:40:04Z</time>
      </trkpt>
      <trkpt lat="45.68113" lon="3.04545">
        <ele>876.8</ele>
        <time>2025-09-28T09:40:05Z</time>
      </trkpt>
      <trkpt lat="45.68114" lon="3.04542">
        <ele>877.2</ele>
        <time>2025-09-28T09:40:06Z</time>
      </trkpt>
      <trkpt lat="45.68115" lon="3.04539">
        <ele>877.4</ele>
        <time>2025-09-28T09:40:07Z</time>
      </trkpt>
      <trkpt lat="45.68115" lon="3.04536">
        <ele>877.6</ele>
        <time>2025-09-28T09:40:08Z</time>
      </trkpt>
      <trkpt lat="45.68116" lon="3.04534">
        <ele>877.8</ele>
        <time>2025-09-28T09:40:09Z</time>
      </trkpt>
      <trkpt lat="45.68116" lon="3.04532">
        <ele>878</ele>
        <time>2025-09-28T09:40:10Z</time>
      </trkpt>
      <trkpt lat="45.68116" lon="3.0453">
        <ele>878.4</ele>
        <time>2025-09-28T09:40:11Z</time>
      </trkpt>
      <trkpt lat="45.68117" lon="3.04527">
        <ele>878.6</ele>
        <time>2025-09-28T09:40:12Z</time>
      </trkpt>
      <trkpt lat="45.68117" lon="3.04524">
        <ele>878.8</ele>
        <time>2025-09-28T09:40:13Z</time>
      </trkpt>
      <trkpt lat="45.68117" lon="3.04522">
        <ele>879</ele>
        <time>2025-09-28T09:40:14Z</time>
      </trkpt>
      <trkpt lat="45.68118" lon="3.04519">
        <ele>879.4</ele>
        <time>2025-09-28T09:40:15Z</time>
      </trkpt>
      <trkpt lat="45.68118" lon="3.04517">
        <ele>879.6</ele>
        <time>2025-09-28T09:40:16Z</time>
      </trkpt>
      <trkpt lat="45.68118" lon="3.04514">
        <ele>879.8</ele>
        <time>2025-09-28T09:40:17Z</time>
      </trkpt>
      <trkpt lat="45.68119" lon="3.04511">
        <ele>880</ele>
        <time>2025-09-28T09:40:18Z</time>
      </trkpt>
      <trkpt lat="45.68119" lon="3.04508">
        <ele>880.2</ele>
        <time>2025-09-28T09:40:19Z</time>
      </trkpt>
      <trkpt lat="45.6812" lon="3.04505">
        <ele>880.4</ele>
        <time>2025-09-28T09:40:20Z</time>
      </trkpt>
      <trkpt lat="45.68121" lon="3.04502">
        <ele>880.4</ele>
        <time>2025-09-28T09:40:21Z</time>
      </trkpt>
      <trkpt lat="45.68122" lon="3.04499">
        <ele>880.6</ele>
        <time>2025-09-28T09:40:22Z</time>
      </trkpt>
      <trkpt lat="45.68122" lon="3.04496">
        <ele>880.8</ele>
        <time>2025-09-28T09:40:23Z</time>
      </trkpt>
      <trkpt lat="45.68122" lon="3.04494">
        <ele>881</ele>
        <time>2025-09-28T09:40:24Z</time>
      </trkpt>
      <trkpt lat="45.68121" lon="3.04491">
        <ele>881.2</ele>
        <time>2025-09-28T09:40:25Z</time>
      </trkpt>
      <trkpt lat="45.6812" lon="3.04489">
        <ele>881.4</ele>
        <time>2025-09-28T09:40:26Z</time>
      </trkpt>
      <trkpt lat="45.68119" lon="3.04487">
        <ele>881.6</ele>
        <time>2025-09-28T09:40:27Z</time>
      </trkpt>
      <trkpt lat="45.68118" lon="3.04484">
        <ele>882</ele>
        <time>2025-09-28T09:40:28Z</time>
      </trkpt>
      <trkpt lat="45.68117" lon="3.04482">
        <ele>882.2</ele>
        <time>2025-09-28T09:40:29Z</time>
      </trkpt>
      <trkpt lat="45.68116" lon="3.04479">
        <ele>882.4</ele>
        <time>2025-09-28T09:40:30Z</time>
      </trkpt>
      <trkpt lat="45.68116" lon="3.04476">
        <ele>882.6</ele>
        <time>2025-09-28T09:40:31Z</time>
      </trkpt>
      <trkpt lat="45.68115" lon="3.04473">
        <ele>883</ele>
        <time>2025-09-28T09:40:32Z</time>
      </trkpt>
      <trkpt lat="45.68114" lon="3.0447">
        <ele>883.2</ele>
        <time>2025-09-28T09:40:33Z</time>
      </trkpt>
      <trkpt lat="45.68114" lon="3.04468">
        <ele>883.4</ele>
        <time>2025-09-28T09:40:34Z</time>
      </trkpt>
      <trkpt lat="45.68113" lon="3.04466">
        <ele>883.6</ele>
        <time>2025-09-28T09:40:35Z</time>
      </trkpt>
      <trkpt lat="45.68112" lon="3.04463">
        <ele>883.6</ele>
        <time>2025-09-28T09:40:36Z</time>
      </trkpt>
      <trkpt lat="45.68112" lon="3.04461">
        <ele>883.8</ele>
        <time>2025-09-28T09:40:37Z</time>
      </trkpt>
      <trkpt lat="45.6811" lon="3.04458">
        <ele>884</ele>
        <time>2025-09-28T09:40:38Z</time>
      </trkpt>
      <trkpt lat="45.68109" lon="3.04455">
        <ele>884.2</ele>
        <time>2025-09-28T09:40:39Z</time>
      </trkpt>
      <trkpt lat="45.68108" lon="3.04452">
        <ele>884.4</ele>
        <time>2025-09-28T09:40:40Z</time>
      </trkpt>
      <trkpt lat="45.68108" lon="3.04449">
        <ele>884.6</ele>
        <time>2025-09-28T09:40:41Z</time>
      </trkpt>
      <trkpt lat="45.68107" lon="3.04445">
        <ele>885</ele>
        <time>2025-09-28T09:40:42Z</time>
      </trkpt>
      <trkpt lat="45.68106" lon="3.04442">
        <ele>885.2</ele>
        <time>2025-09-28T09:40:43Z</time>
      </trkpt>
      <trkpt lat="45.68104" lon="3.04439">
        <ele>885.4</ele>
        <time>2025-09-28T09:40:44Z</time>
      </trkpt>
      <trkpt lat="45.68103" lon="3.04436">
        <ele>885.6</ele>
        <time>2025-09-28T09:40:45Z</time>
      </trkpt>
      <trkpt lat="45.68103" lon="3.04433">
        <ele>885.6</ele>
        <time>2025-09-28T09:40:46Z</time>
      </trkpt>
      <trkpt lat="45.68103" lon="3.0443">
        <ele>885.8</ele>
        <time>2025-09-28T09:40:47Z</time>
      </trkpt>
      <trkpt lat="45.68103" lon="3.04428">
        <ele>886.2</ele>
        <time>2025-09-28T09:40:48Z</time>
      </trkpt>
      <trkpt lat="45.68102" lon="3.04425">
        <ele>886.4</ele>
        <time>2025-09-28T09:40:49Z</time>
      </trkpt>
      <trkpt lat="45.68102" lon="3.04421">
        <ele>886.6</ele>
        <time>2025-09-28T09:40:50Z</time>
      </trkpt>
      <trkpt lat="45.68101" lon="3.04418">
        <ele>886.8</ele>
        <time>2025-09-28T09:40:51Z</time>
      </trkpt>
      <trkpt lat="45.681" lon="3.04415">
        <ele>887</ele>
        <time>2025-09-28T09:40:52Z</time>
      </trkpt>
      <trkpt lat="45.681" lon="3.04412">
        <ele>887.2</ele>
        <time>2025-09-28T09:40:53Z</time>
      </trkpt>
      <trkpt lat="45.68099" lon="3.0441">
        <ele>887.6</ele>
        <time>2025-09-28T09:40:54Z</time>
      </trkpt>
      <trkpt lat="45.68098" lon="3.04408">
        <ele>887.8</ele>
        <time>2025-09-28T09:40:55Z</time>
      </trkpt>
      <trkpt lat="45.68098" lon="3.04404">
        <ele>888</ele>
        <time>2025-09-28T09:40:56Z</time>
      </trkpt>
      <trkpt lat="45.68097" lon="3.04401">
        <ele>888.2</ele>
        <time>2025-09-28T09:40:57Z</time>
      </trkpt>
      <trkpt lat="45.68097" lon="3.04399">
        <ele>888.6</ele>
        <time>2025-09-28T09:40:58Z</time>
      </trkpt>
      <trkpt lat="45.68096" lon="3.04396">
        <ele>888.8</ele>
        <time>2025-09-28T09:40:59Z</time>
      </trkpt>
      <trkpt lat="45.68096" lon="3.04394">
        <ele>889</ele>
        <time>2025-09-28T09:41:00Z</time>
      </trkpt>
      <trkpt lat="45.68096" lon="3.04391">
        <ele>889.2</ele>
        <time>2025-09-28T09:41:01Z</time>
      </trkpt>
      <trkpt lat="45.68095" lon="3.04389">
        <ele>889.4</ele>
        <time>2025-09-28T09:41:02Z</time>
      </trkpt>
      <trkpt lat="45.68095" lon="3.04387">
        <ele>889.8</ele>
        <time>2025-09-28T09:41:03Z</time>
      </trkpt>
      <trkpt lat="45.68094" lon="3.04385">
        <ele>890</ele>
        <time>2025-09-28T09:41:04Z</time>
      </trkpt>
      <trkpt lat="45.68094" lon="3.04382">
        <ele>890.2</ele>
        <time>2025-09-28T09:41:05Z</time>
      </trkpt>
      <trkpt lat="45.68094" lon="3.04379">
        <ele>890.4</ele>
        <time>2025-09-28T09:41:06Z</time>
      </trkpt>
      <trkpt lat="45.68093" lon="3.04376">
        <ele>890.6</ele>
        <time>2025-09-28T09:41:07Z</time>
      </trkpt>
      <trkpt lat="45.68092" lon="3.04373">
        <ele>890.8</ele>
        <time>2025-09-28T09:41:08Z</time>
      </trkpt>
      <trkpt lat="45.68091" lon="3.0437">
        <ele>891</ele>
        <time>2025-09-28T09:41:09Z</time>
      </trkpt>
      <trkpt lat="45.6809" lon="3.04367">
        <ele>891.2</ele>
        <time>2025-09-28T09:41:10Z</time>
      </trkpt>
      <trkpt lat="45.68089" lon="3.04364">
        <ele>891.4</ele>
        <time>2025-09-28T09:41:11Z</time>
      </trkpt>
      <trkpt lat="45.68089" lon="3.04361">
        <ele>891.6</ele>
        <time>2025-09-28T09:41:12Z</time>
      </trkpt>
      <trkpt lat="45.68089" lon="3.04359">
        <ele>891.8</ele>
        <time>2025-09-28T09:41:13Z</time>
      </trkpt>
      <trkpt lat="45.68089" lon="3.04356">
        <ele>892</ele>
        <time>2025-09-28T09:41:14Z</time>
      </trkpt>
      <trkpt lat="45.68089" lon="3.04354">
        <ele>892.2</ele>
        <time>2025-09-28T09:41:15Z</time>
      </trkpt>
      <trkpt lat="45.68088" lon="3.04351">
        <ele>892.4</ele>
        <time>2025-09-28T09:41:16Z</time>
      </trkpt>
      <trkpt lat="45.68087" lon="3.04348">
        <ele>892.6</ele>
        <time>2025-09-28T09:41:17Z</time>
      </trkpt>
      <trkpt lat="45.68086" lon="3.04345">
        <ele>892.8</ele>
        <time>2025-09-28T09:41:18Z</time>
      </trkpt>
      <trkpt lat="45.68085" lon="3.04341">
        <ele>893</ele>
        <time>2025-09-28T09:41:19Z</time>
      </trkpt>
      <trkpt lat="45.68084" lon="3.04338">
        <ele>893.2</ele>
        <time>2025-09-28T09:41:20Z</time>
      </trkpt>
      <trkpt lat="45.68084" lon="3.04334">
        <ele>893.6</ele>
        <time>2025-09-28T09:41:21Z</time>
      </trkpt>
      <trkpt lat="45.68084" lon="3.04331">
        <ele>893.8</ele>
        <time>2025-09-28T09:41:22Z</time>
      </trkpt>
      <trkpt lat="45.68084" lon="3.04328">
        <ele>894.2</ele>
        <time>2025-09-28T09:41:23Z</time>
      </trkpt>
      <trkpt lat="45.68083" lon="3.04325">
        <ele>894.4</ele>
        <time>2025-09-28T09:41:24Z</time>
      </trkpt>
      <trkpt lat="45.68083" lon="3.04321">
        <ele>894.6</ele>
        <time>2025-09-28T09:41:25Z</time>
      </trkpt>
      <trkpt lat="45.68082" lon="3.04318">
        <ele>895</ele>
        <time>2025-09-28T09:41:26Z</time>
      </trkpt>
      <trkpt lat="45.68081" lon="3.04314">
        <ele>895.2</ele>
        <time>2025-09-28T09:41:27Z</time>
      </trkpt>
      <trkpt lat="45.68081" lon="3.04311">
        <ele>895.4</ele>
        <time>2025-09-28T09:41:28Z</time>
      </trkpt>
      <trkpt lat="45.6808" lon="3.04308">
        <ele>895.6</ele>
        <time>2025-09-28T09:41:29Z</time>
      </trkpt>
      <trkpt lat="45.68079" lon="3.04305">
        <ele>895.8</ele>
        <time>2025-09-28T09:41:30Z</time>
      </trkpt>
      <trkpt lat="45.68079" lon="3.04302">
        <ele>896</ele>
        <time>2025-09-28T09:41:31Z</time>
      </trkpt>
      <trkpt lat="45.68078" lon="3.04299">
        <ele>896.2</ele>
        <time>2025-09-28T09:41:32Z</time>
      </trkpt>
      <trkpt lat="45.68077" lon="3.04296">
        <ele>896.4</ele>
        <time>2025-09-28T09:41:33Z</time>
      </trkpt>
      <trkpt lat="45.68076" lon="3.04293">
        <ele>896.8</ele>
        <time>2025-09-28T09:41:34Z</time>
      </trkpt>
      <trkpt lat="45.68075" lon="3.0429">
        <ele>897</ele>
        <time>2025-09-28T09:41:35Z</time>
      </trkpt>
      <trkpt lat="45.68074" lon="3.04289">
        <ele>897.2</ele>
        <time>2025-09-28T09:41:36Z</time>
      </trkpt>
      <trkpt lat="45.68073" lon="3.04287">
        <ele>897.4</ele>
        <time>2025-09-28T09:41:37Z</time>
      </trkpt>
      <trkpt lat="45.68072" lon="3.04285">
        <ele>897.6</ele>
        <time>2025-09-28T09:41:38Z</time>
      </trkpt>
      <trkpt lat="45.68071" lon="3.04284">
        <ele>897.6</ele>
        <time>2025-09-28T09:41:39Z</time>
      </trkpt>
      <trkpt lat="45.68069" lon="3.04282">
        <ele>897.8</ele>
        <time>2025-09-28T09:41:40Z</time>
      </trkpt>
      <trkpt lat="45.68066" lon="3.0428">
        <ele>898</ele>
        <time>2025-09-28T09:41:41Z</time>
      </trkpt>
      <trkpt lat="45.68064" lon="3.04278">
        <ele>898</ele>
        <time>2025-09-28T09:41:42Z</time>
      </trkpt>
      <trkpt lat="45.68061" lon="3.04275">
        <ele>898.2</ele>
        <time>2025-09-28T09:41:43Z</time>
      </trkpt>
      <trkpt lat="45.68059" lon="3.04273">
        <ele>898.4</ele>
        <time>2025-09-28T09:41:44Z</time>
      </trkpt>
      <trkpt lat="45.68056" lon="3.0427">
        <ele>898.6</ele>
        <time>2025-09-28T09:41:45Z</time>
      </trkpt>
      <trkpt lat="45.68054" lon="3.04267">
        <ele>898.6</ele>
        <time>2025-09-28T09:41:46Z</time>
      </trkpt>
      <trkpt lat="45.68052" lon="3.04264">
        <ele>898.8</ele>
        <time>2025-09-28T09:41:47Z</time>
      </trkpt>
      <trkpt lat="45.68049" lon="3.04262">
        <ele>899</ele>
        <time>2025-09-28T09:41:48Z</time>
      </trkpt>
      <trkpt lat="45.68047" lon="3.0426">
        <ele>899</ele>
        <time>2025-09-28T09:41:49Z</time>
      </trkpt>
      <trkpt lat="45.68045" lon="3.04258">
        <ele>899.2</ele>
        <time>2025-09-28T09:41:50Z</time>
      </trkpt>
      <trkpt lat="45.68041" lon="3.04255">
        <ele>899.2</ele>
        <time>2025-09-28T09:41:51Z</time>
      </trkpt>
      <trkpt lat="45.68038" lon="3.04252">
        <ele>899.2</ele>
        <time>2025-09-28T09:41:52Z</time>
      </trkpt>
      <trkpt lat="45.68036" lon="3.0425">
        <ele>899.4</ele>
        <time>2025-09-28T09:41:53Z</time>
      </trkpt>
      <trkpt lat="45.68034" lon="3.04247">
        <ele>899.6</ele>
        <time>2025-09-28T09:41:54Z</time>
      </trkpt>
      <trkpt lat="45.68032" lon="3.04245">
        <ele>899.6</ele>
        <time>2025-09-28T09:41:55Z</time>
      </trkpt>
      <trkpt lat="45.6803" lon="3.04242">
        <ele>899.8</ele>
        <time>2025-09-28T09:41:56Z</time>
      </trkpt>
      <trkpt lat="45.68029" lon="3.04239">
        <ele>899.8</ele>
        <time>2025-09-28T09:41:57Z</time>
      </trkpt>
      <trkpt lat="45.68028" lon="3.04235">
        <ele>900</ele>
        <time>2025-09-28T09:41:58Z</time>
      </trkpt>
      <trkpt lat="45.68028" lon="3.04231">
        <ele>900.2</ele>
        <time>2025-09-28T09:41:59Z</time>
      </trkpt>
      <trkpt lat="45.68027" lon="3.04226">
        <ele>900.2</ele>
        <time>2025-09-28T09:42:00Z</time>
      </trkpt>
      <trkpt lat="45.68028" lon="3.04222">
        <ele>900.4</ele>
        <time>2025-09-28T09:42:01Z</time>
      </trkpt>
      <trkpt lat="45.68028" lon="3.04218">
        <ele>900.6</ele>
        <time>2025-09-28T09:42:02Z</time>
      </trkpt>
      <trkpt lat="45.68029" lon="3.04214">
        <ele>900.8</ele>
        <time>2025-09-28T09:42:03Z</time>
      </trkpt>
      <trkpt lat="45.68028" lon="3.0421">
        <ele>901</ele>
        <time>2025-09-28T09:42:04Z</time>
      </trkpt>
      <trkpt lat="45.68028" lon="3.04206">
        <ele>901.2</ele>
        <time>2025-09-28T09:42:05Z</time>
      </trkpt>
      <trkpt lat="45.68028" lon="3.04201">
        <ele>901.4</ele>
        <time>2025-09-28T09:42:06Z</time>
      </trkpt>
      <trkpt lat="45.68027" lon="3.04197">
        <ele>901.6</ele>
        <time>2025-09-28T09:42:07Z</time>
      </trkpt>
      <trkpt lat="45.68027" lon="3.04193">
        <ele>901.8</ele>
        <time>2025-09-28T09:42:08Z</time>
      </trkpt>
      <trkpt lat="45.68027" lon="3.04189">
        <ele>901.8</ele>
        <time>2025-09-28T09:42:09Z</time>
      </trkpt>
      <trkpt lat="45.68027" lon="3.04185">
        <ele>902</ele>
        <time>2025-09-28T09:42:10Z</time>
      </trkpt>
      <trkpt lat="45.68027" lon="3.0418">
        <ele>902.2</ele>
        <time>2025-09-28T09:42:11Z</time>
      </trkpt>
      <trkpt lat="45.68027" lon="3.04176">
        <ele>902.4</ele>
        <time>2025-09-28T09:42:12Z</time>
      </trkpt>
      <trkpt lat="45.68027" lon="3.04171">
        <ele>902.6</ele>
        <time>2025-09-28T09:42:13Z</time>
      </trkpt>
      <trkpt lat="45.68027" lon="3.04167">
        <ele>902.6</ele>
        <time>2025-09-28T09:42:14Z</time>
      </trkpt>
      <trkpt lat="45.68026" lon="3.04163">
        <ele>902.8</ele>
        <time>2025-09-28T09:42:15Z</time>
      </trkpt>
      <trkpt lat="45.68026" lon="3.04159">
        <ele>903</ele>
        <time>2025-09-28T09:42:16Z</time>
      </trkpt>
      <trkpt lat="45.68026" lon="3.04154">
        <ele>903</ele>
        <time>2025-09-28T09:42:17Z</time>
      </trkpt>
      <trkpt lat="45.68026" lon="3.04149">
        <ele>903.2</ele>
        <time>2025-09-28T09:42:18Z</time>
      </trkpt>
      <trkpt lat="45.68026" lon="3.04145">
        <ele>903.4</ele>
        <time>2025-09-28T09:42:19Z</time>
      </trkpt>
      <trkpt lat="45.68026" lon="3.04141">
        <ele>903.4</ele>
        <time>2025-09-28T09:42:20Z</time>
      </trkpt>
      <trkpt lat="45.68026" lon="3.04137">
        <ele>903.4</ele>
        <time>2025-09-28T09:42:21Z</time>
      </trkpt>
      <trkpt lat="45.68025" lon="3.04132">
        <ele>903.6</ele>
        <time>2025-09-28T09:42:22Z</time>
      </trkpt>
      <trkpt lat="45.68025" lon="3.04126">
        <ele>903.6</ele>
        <time>2025-09-28T09:42:23Z</time>
      </trkpt>
      <trkpt lat="45.68025" lon="3.04122">
        <ele>903.6</ele>
        <time>2025-09-28T09:42:24Z</time>
      </trkpt>
      <trkpt lat="45.68024" lon="3.04117">
        <ele>903.8</ele>
        <time>2025-09-28T09:42:25Z</time>
      </trkpt>
      <trkpt lat="45.68023" lon="3.04113">
        <ele>903.8</ele>
        <time>2025-09-28T09:42:26Z</time>
      </trkpt>
      <trkpt lat="45.68022" lon="3.04108">
        <ele>903.8</ele>
        <time>2025-09-28T09:42:27Z</time>
      </trkpt>
      <trkpt lat="45.68023" lon="3.04103">
        <ele>904</ele>
        <time>2025-09-28T09:42:28Z</time>
      </trkpt>
      <trkpt lat="45.68023" lon="3.04098">
        <ele>904</ele>
        <time>2025-09-28T09:42:29Z</time>
      </trkpt>
      <trkpt lat="45.68023" lon="3.04092">
        <ele>904</ele>
        <time>2025-09-28T09:42:30Z</time>
      </trkpt>
      <trkpt lat="45.68023" lon="3.04087">
        <ele>904.2</ele>
        <time>2025-09-28T09:42:31Z</time>
      </trkpt>
      <trkpt lat="45.68023" lon="3.04082">
        <ele>904.2</ele>
        <time>2025-09-28T09:42:32Z</time>
      </trkpt>
      <trkpt lat="45.68023" lon="3.04077">
        <ele>904.2</ele>
        <time>2025-09-28T09:42:33Z</time>
      </trkpt>
      <trkpt lat="45.68024" lon="3.04073">
        <ele>904.2</ele>
        <time>2025-09-28T09:42:34Z</time>
      </trkpt>
      <trkpt lat="45.68024" lon="3.04068">
        <ele>904.2</ele>
        <time>2025-09-28T09:42:35Z</time>
      </trkpt>
      <trkpt lat="45.68024" lon="3.04062">
        <ele>904.4</ele>
        <time>2025-09-28T09:42:36Z</time>
      </trkpt>
      <trkpt lat="45.68024" lon="3.04058">
        <ele>904.4</ele>
        <time>2025-09-28T09:42:37Z</time>
      </trkpt>
      <trkpt lat="45.68025" lon="3.04053">
        <ele>904.4</ele>
        <time>2025-09-28T09:42:38Z</time>
      </trkpt>
      <trkpt lat="45.68025" lon="3.04048">
        <ele>904.4</ele>
        <time>2025-09-28T09:42:39Z</time>
      </trkpt>
      <trkpt lat="45.68025" lon="3.04043">
        <ele>904.6</ele>
        <time>2025-09-28T09:42:40Z</time>
      </trkpt>
      <trkpt lat="45.68026" lon="3.04038">
        <ele>904.6</ele>
        <time>2025-09-28T09:42:41Z</time>
      </trkpt>
      <trkpt lat="45.68026" lon="3.04033">
        <ele>904.6</ele>
        <time>2025-09-28T09:42:42Z</time>
      </trkpt>
      <trkpt lat="45.68027" lon="3.04028">
        <ele>904.8</ele>
        <time>2025-09-28T09:42:43Z</time>
      </trkpt>
      <trkpt lat="45.68027" lon="3.04024">
        <ele>904.8</ele>
        <time>2025-09-28T09:42:44Z</time>
      </trkpt>
      <trkpt lat="45.68028" lon="3.04019">
        <ele>905</ele>
        <time>2025-09-28T09:42:45Z</time>
      </trkpt>
      <trkpt lat="45.68028" lon="3.04014">
        <ele>905</ele>
        <time>2025-09-28T09:42:46Z</time>
      </trkpt>
      <trkpt lat="45.68028" lon="3.04009">
        <ele>905.2</ele>
        <time>2025-09-28T09:42:47Z</time>
      </trkpt>
      <trkpt lat="45.68028" lon="3.04004">
        <ele>905.4</ele>
        <time>2025-09-28T09:42:48Z</time>
      </trkpt>
      <trkpt lat="45.68029" lon="3.04">
        <ele>905.6</ele>
        <time>2025-09-28T09:42:49Z</time>
      </trkpt>
      <trkpt lat="45.68029" lon="3.03995">
        <ele>905.6</ele>
        <time>2025-09-28T09:42:50Z</time>
      </trkpt>
      <trkpt lat="45.68029" lon="3.03991">
        <ele>905.8</ele>
        <time>2025-09-28T09:42:51Z</time>
      </trkpt>
      <trkpt lat="45.68029" lon="3.03986">
        <ele>906</ele>
        <time>2025-09-28T09:42:52Z</time>
      </trkpt>
      <trkpt lat="45.68029" lon="3.03982">
        <ele>906</ele>
        <time>2025-09-28T09:42:53Z</time>
      </trkpt>
      <trkpt lat="45.68029" lon="3.03977">
        <ele>906.2</ele>
        <time>2025-09-28T09:42:54Z</time>
      </trkpt>
      <trkpt lat="45.6803" lon="3.03971">
        <ele>906.2</ele>
        <time>2025-09-28T09:42:55Z</time>
      </trkpt>
      <trkpt lat="45.6803" lon="3.03967">
        <ele>906.4</ele>
        <time>2025-09-28T09:42:56Z</time>
      </trkpt>
      <trkpt lat="45.6803" lon="3.03962">
        <ele>906.4</ele>
        <time>2025-09-28T09:42:57Z</time>
      </trkpt>
      <trkpt lat="45.68031" lon="3.03957">
        <ele>906.6</ele>
        <time>2025-09-28T09:42:58Z</time>
      </trkpt>
      <trkpt lat="45.68031" lon="3.03953">
        <ele>906.8</ele>
        <time>2025-09-28T09:42:59Z</time>
      </trkpt>
      <trkpt lat="45.68031" lon="3.03947">
        <ele>907</ele>
        <time>2025-09-28T09:43:00Z</time>
      </trkpt>
      <trkpt lat="45.68031" lon="3.03943">
        <ele>907.2</ele>
        <time>2025-09-28T09:43:01Z</time>
      </trkpt>
      <trkpt lat="45.68031" lon="3.03938">
        <ele>907.4</ele>
        <time>2025-09-28T09:43:02Z</time>
      </trkpt>
      <trkpt lat="45.68031" lon="3.03934">
        <ele>907.6</ele>
        <time>2025-09-28T09:43:03Z</time>
      </trkpt>
      <trkpt lat="45.68032" lon="3.0393">
        <ele>907.8</ele>
        <time>2025-09-28T09:43:04Z</time>
      </trkpt>
      <trkpt lat="45.68032" lon="3.03925">
        <ele>908</ele>
        <time>2025-09-28T09:43:05Z</time>
      </trkpt>
      <trkpt lat="45.68033" lon="3.03921">
        <ele>908.2</ele>
        <time>2025-09-28T09:43:06Z</time>
      </trkpt>
      <trkpt lat="45.68034" lon="3.03917">
        <ele>908.4</ele>
        <time>2025-09-28T09:43:07Z</time>
      </trkpt>
      <trkpt lat="45.68035" lon="3.03913">
        <ele>908.6</ele>
        <time>2025-09-28T09:43:08Z</time>
      </trkpt>
      <trkpt lat="45.68036" lon="3.0391">
        <ele>908.8</ele>
        <time>2025-09-28T09:43:09Z</time>
      </trkpt>
      <trkpt lat="45.68037" lon="3.03907">
        <ele>909</ele>
        <time>2025-09-28T09:43:10Z</time>
      </trkpt>
      <trkpt lat="45.68039" lon="3.03904">
        <ele>909.2</ele>
        <time>2025-09-28T09:43:11Z</time>
      </trkpt>
      <trkpt lat="45.6804" lon="3.03901">
        <ele>909.6</ele>
        <time>2025-09-28T09:43:12Z</time>
      </trkpt>
      <trkpt lat="45.68042" lon="3.03898">
        <ele>909.8</ele>
        <time>2025-09-28T09:43:13Z</time>
      </trkpt>
      <trkpt lat="45.68045" lon="3.03895">
        <ele>910</ele>
        <time>2025-09-28T09:43:14Z</time>
      </trkpt>
      <trkpt lat="45.68047" lon="3.03892">
        <ele>910.2</ele>
        <time>2025-09-28T09:43:15Z</time>
      </trkpt>
      <trkpt lat="45.68049" lon="3.0389">
        <ele>910.4</ele>
        <time>2025-09-28T09:43:16Z</time>
      </trkpt>
      <trkpt lat="45.68051" lon="3.03887">
        <ele>910.6</ele>
        <time>2025-09-28T09:43:17Z</time>
      </trkpt>
      <trkpt lat="45.68052" lon="3.03884">
        <ele>910.8</ele>
        <time>2025-09-28T09:43:18Z</time>
      </trkpt>
      <trkpt lat="45.68053" lon="3.03881">
        <ele>911</ele>
        <time>2025-09-28T09:43:19Z</time>
      </trkpt>
      <trkpt lat="45.68054" lon="3.03877">
        <ele>911.2</ele>
        <time>2025-09-28T09:43:20Z</time>
      </trkpt>
      <trkpt lat="45.68054" lon="3.03873">
        <ele>911.4</ele>
        <time>2025-09-28T09:43:21Z</time>
      </trkpt>
      <trkpt lat="45.68054" lon="3.0387">
        <ele>911.6</ele>
        <time>2025-09-28T09:43:22Z</time>
      </trkpt>
      <trkpt lat="45.68053" lon="3.03865">
        <ele>911.8</ele>
        <time>2025-09-28T09:43:23Z</time>
      </trkpt>
      <trkpt lat="45.68053" lon="3.03861">
        <ele>912</ele>
        <time>2025-09-28T09:43:24Z</time>
      </trkpt>
      <trkpt lat="45.68052" lon="3.03857">
        <ele>912.2</ele>
        <time>2025-09-28T09:43:25Z</time>
      </trkpt>
      <trkpt lat="45.68051" lon="3.03853">
        <ele>912.2</ele>
        <time>2025-09-28T09:43:26Z</time>
      </trkpt>
      <trkpt lat="45.6805" lon="3.0385">
        <ele>912.4</ele>
        <time>2025-09-28T09:43:27Z</time>
      </trkpt>
      <trkpt lat="45.68048" lon="3.03847">
        <ele>912.6</ele>
        <time>2025-09-28T09:43:28Z</time>
      </trkpt>
      <trkpt lat="45.68048" lon="3.03843">
        <ele>912.8</ele>
        <time>2025-09-28T09:43:29Z</time>
      </trkpt>
      <trkpt lat="45.68047" lon="3.0384">
        <ele>912.8</ele>
        <time>2025-09-28T09:43:30Z</time>
      </trkpt>
      <trkpt lat="45.68047" lon="3.03837">
        <ele>913</ele>
        <time>2025-09-28T09:43:31Z</time>
      </trkpt>
      <trkpt lat="45.68048" lon="3.03833">
        <ele>913.2</ele>
        <time>2025-09-28T09:43:32Z</time>
      </trkpt>
      <trkpt lat="45.68048" lon="3.0383">
        <ele>913.4</ele>
        <time>2025-09-28T09:43:33Z</time>
      </trkpt>
      <trkpt lat="45.68048" lon="3.03826">
        <ele>913.4</ele>
        <time>2025-09-28T09:43:34Z</time>
      </trkpt>
      <trkpt lat="45.68048" lon="3.03822">
        <ele>913.6</ele>
        <time>2025-09-28T09:43:35Z</time>
      </trkpt>
      <trkpt lat="45.68048" lon="3.03819">
        <ele>913.8</ele>
        <time>2025-09-28T09:43:36Z</time>
      </trkpt>
      <trkpt lat="45.68049" lon="3.03815">
        <ele>914</ele>
        <time>2025-09-28T09:43:37Z</time>
      </trkpt>
      <trkpt lat="45.68049" lon="3.03811">
        <ele>914</ele>
        <time>2025-09-28T09:43:38Z</time>
      </trkpt>
      <trkpt lat="45.6805" lon="3.03808">
        <ele>914.2</ele>
        <time>2025-09-28T09:43:39Z</time>
      </trkpt>
      <trkpt lat="45.68051" lon="3.03804">
        <ele>914.4</ele>
        <time>2025-09-28T09:43:40Z</time>
      </trkpt>
      <trkpt lat="45.68051" lon="3.03799">
        <ele>914.6</ele>
        <time>2025-09-28T09:43:41Z</time>
      </trkpt>
      <trkpt lat="45.68052" lon="3.03796">
        <ele>914.6</ele>
        <time>2025-09-28T09:43:42Z</time>
      </trkpt>
      <trkpt lat="45.68053" lon="3.03792">
        <ele>914.8</ele>
        <time>2025-09-28T09:43:43Z</time>
      </trkpt>
      <trkpt lat="45.68053" lon="3.03788">
        <ele>915</ele>
        <time>2025-09-28T09:43:44Z</time>
      </trkpt>
      <trkpt lat="45.68054" lon="3.03784">
        <ele>915.2</ele>
        <time>2025-09-28T09:43:45Z</time>
      </trkpt>
      <trkpt lat="45.68054" lon="3.0378">
        <ele>915.2</ele>
        <time>2025-09-28T09:43:46Z</time>
      </trkpt>
      <trkpt lat="45.68054" lon="3.03776">
        <ele>915.4</ele>
        <time>2025-09-28T09:43:47Z</time>
      </trkpt>
      <trkpt lat="45.68055" lon="3.03772">
        <ele>915.4</ele>
        <time>2025-09-28T09:43:48Z</time>
      </trkpt>
      <trkpt lat="45.68055" lon="3.03768">
        <ele>915.6</ele>
        <time>2025-09-28T09:43:49Z</time>
      </trkpt>
      <trkpt lat="45.68055" lon="3.03763">
        <ele>915.8</ele>
        <time>2025-09-28T09:43:50Z</time>
      </trkpt>
      <trkpt lat="45.68055" lon="3.03759">
        <ele>915.8</ele>
        <time>2025-09-28T09:43:51Z</time>
      </trkpt>
      <trkpt lat="45.68055" lon="3.03753">
        <ele>916</ele>
        <time>2025-09-28T09:43:52Z</time>
      </trkpt>
      <trkpt lat="45.68055" lon="3.03748">
        <ele>916</ele>
        <time>2025-09-28T09:43:53Z</time>
      </trkpt>
      <trkpt lat="45.68054" lon="3.03743">
        <ele>916.2</ele>
        <time>2025-09-28T09:43:54Z</time>
      </trkpt>
      <trkpt lat="45.68054" lon="3.03739">
        <ele>916.2</ele>
        <time>2025-09-28T09:43:55Z</time>
      </trkpt>
      <trkpt lat="45.68054" lon="3.03734">
        <ele>916.4</ele>
        <time>2025-09-28T09:43:56Z</time>
      </trkpt>
      <trkpt lat="45.68054" lon="3.03729">
        <ele>916.4</ele>
        <time>2025-09-28T09:43:57Z</time>
      </trkpt>
      <trkpt lat="45.68054" lon="3.03724">
        <ele>916.4</ele>
        <time>2025-09-28T09:43:58Z</time>
      </trkpt>
      <trkpt lat="45.68054" lon="3.03719">
        <ele>916.6</ele>
        <time>2025-09-28T09:43:59Z</time>
      </trkpt>
      <trkpt lat="45.68055" lon="3.03714">
        <ele>916.6</ele>
        <time>2025-09-28T09:44:00Z</time>
      </trkpt>
      <trkpt lat="45.68055" lon="3.03709">
        <ele>916.8</ele>
        <time>2025-09-28T09:44:01Z</time>
      </trkpt>
      <trkpt lat="45.68055" lon="3.03705">
        <ele>916.8</ele>
        <time>2025-09-28T09:44:02Z</time>
      </trkpt>
      <trkpt lat="45.68055" lon="3.03699">
        <ele>917</ele>
        <time>2025-09-28T09:44:03Z</time>
      </trkpt>
      <trkpt lat="45.68055" lon="3.03694">
        <ele>917.2</ele>
        <time>2025-09-28T09:44:04Z</time>
      </trkpt>
      <trkpt lat="45.68055" lon="3.0369">
        <ele>917.4</ele>
        <time>2025-09-28T09:44:05Z</time>
      </trkpt>
      <trkpt lat="45.68056" lon="3.03686">
        <ele>917.4</ele>
        <time>2025-09-28T09:44:06Z</time>
      </trkpt>
      <trkpt lat="45.68056" lon="3.03681">
        <ele>917.6</ele>
        <time>2025-09-28T09:44:07Z</time>
      </trkpt>
      <trkpt lat="45.68057" lon="3.03677">
        <ele>917.8</ele>
        <time>2025-09-28T09:44:08Z</time>
      </trkpt>
      <trkpt lat="45.68058" lon="3.03672">
        <ele>917.8</ele>
        <time>2025-09-28T09:44:09Z</time>
      </trkpt>
      <trkpt lat="45.68059" lon="3.03667">
        <ele>918</ele>
        <time>2025-09-28T09:44:10Z</time>
      </trkpt>
      <trkpt lat="45.6806" lon="3.03662">
        <ele>918.2</ele>
        <time>2025-09-28T09:44:11Z</time>
      </trkpt>
      <trkpt lat="45.68061" lon="3.03657">
        <ele>918.4</ele>
        <time>2025-09-28T09:44:12Z</time>
      </trkpt>
      <trkpt lat="45.68062" lon="3.03653">
        <ele>918.6</ele>
        <time>2025-09-28T09:44:13Z</time>
      </trkpt>
      <trkpt lat="45.68063" lon="3.03649">
        <ele>918.6</ele>
        <time>2025-09-28T09:44:14Z</time>
      </trkpt>
      <trkpt lat="45.68063" lon="3.03645">
        <ele>918.8</ele>
        <time>2025-09-28T09:44:15Z</time>
      </trkpt>
      <trkpt lat="45.68064" lon="3.0364">
        <ele>919</ele>
        <time>2025-09-28T09:44:16Z</time>
      </trkpt>
      <trkpt lat="45.68065" lon="3.03636">
        <ele>919</ele>
        <time>2025-09-28T09:44:17Z</time>
      </trkpt>
      <trkpt lat="45.68066" lon="3.03633">
        <ele>919.2</ele>
        <time>2025-09-28T09:44:18Z</time>
      </trkpt>
      <trkpt lat="45.68067" lon="3.03629">
        <ele>919.4</ele>
        <time>2025-09-28T09:44:19Z</time>
      </trkpt>
      <trkpt lat="45.68067" lon="3.03627">
        <ele>919.6</ele>
        <time>2025-09-28T09:44:20Z</time>
      </trkpt>
      <trkpt lat="45.68068" lon="3.03624">
        <ele>919.8</ele>
        <time>2025-09-28T09:44:21Z</time>
      </trkpt>
      <trkpt lat="45.68069" lon="3.03621">
        <ele>920</ele>
        <time>2025-09-28T09:44:22Z</time>
      </trkpt>
      <trkpt lat="45.68071" lon="3.03617">
        <ele>920</ele>
        <time>2025-09-28T09:44:23Z</time>
      </trkpt>
      <trkpt lat="45.68071" lon="3.03613">
        <ele>920.2</ele>
        <time>2025-09-28T09:44:24Z</time>
      </trkpt>
      <trkpt lat="45.68071" lon="3.03607">
        <ele>920.4</ele>
        <time>2025-09-28T09:44:25Z</time>
      </trkpt>
      <trkpt lat="45.68072" lon="3.03601">
        <ele>920.6</ele>
        <time>2025-09-28T09:44:26Z</time>
      </trkpt>
      <trkpt lat="45.68072" lon="3.03596">
        <ele>920.8</ele>
        <time>2025-09-28T09:44:27Z</time>
      </trkpt>
      <trkpt lat="45.68073" lon="3.03591">
        <ele>920.8</ele>
        <time>2025-09-28T09:44:28Z</time>
      </trkpt>
      <trkpt lat="45.68073" lon="3.03587">
        <ele>921</ele>
        <time>2025-09-28T09:44:29Z</time>
      </trkpt>
      <trkpt lat="45.68074" lon="3.03582">
        <ele>921.2</ele>
        <time>2025-09-28T09:44:30Z</time>
      </trkpt>
      <trkpt lat="45.68074" lon="3.03577">
        <ele>921.4</ele>
        <time>2025-09-28T09:44:31Z</time>
      </trkpt>
      <trkpt lat="45.68074" lon="3.03574">
        <ele>921.6</ele>
        <time>2025-09-28T09:44:32Z</time>
      </trkpt>
      <trkpt lat="45.68074" lon="3.0357">
        <ele>921.8</ele>
        <time>2025-09-28T09:44:33Z</time>
      </trkpt>
      <trkpt lat="45.68075" lon="3.03567">
        <ele>922</ele>
        <time>2025-09-28T09:44:34Z</time>
      </trkpt>
      <trkpt lat="45.68075" lon="3.03563">
        <ele>922</ele>
        <time>2025-09-28T09:44:35Z</time>
      </trkpt>
      <trkpt lat="45.68075" lon="3.03558">
        <ele>922.2</ele>
        <time>2025-09-28T09:44:36Z</time>
      </trkpt>
      <trkpt lat="45.68075" lon="3.03553">
        <ele>922.4</ele>
        <time>2025-09-28T09:44:37Z</time>
      </trkpt>
      <trkpt lat="45.68076" lon="3.03548">
        <ele>922.6</ele>
        <time>2025-09-28T09:44:38Z</time>
      </trkpt>
      <trkpt lat="45.68076" lon="3.03544">
        <ele>922.8</ele>
        <time>2025-09-28T09:44:39Z</time>
      </trkpt>
      <trkpt lat="45.68076" lon="3.03539">
        <ele>923</ele>
        <time>2025-09-28T09:44:40Z</time>
      </trkpt>
      <trkpt lat="45.68077" lon="3.03535">
        <ele>923.2</ele>
        <time>2025-09-28T09:44:41Z</time>
      </trkpt>
      <trkpt lat="45.68077" lon="3.03531">
        <ele>923.2</ele>
        <time>2025-09-28T09:44:42Z</time>
      </trkpt>
      <trkpt lat="45.68078" lon="3.03526">
        <ele>923.4</ele>
        <time>2025-09-28T09:44:43Z</time>
      </trkpt>
      <trkpt lat="45.68078" lon="3.03522">
        <ele>923.6</ele>
        <time>2025-09-28T09:44:44Z</time>
      </trkpt>
      <trkpt lat="45.68078" lon="3.03518">
        <ele>923.8</ele>
        <time>2025-09-28T09:44:45Z</time>
      </trkpt>
      <trkpt lat="45.68077" lon="3.03514">
        <ele>923.8</ele>
        <time>2025-09-28T09:44:46Z</time>
      </trkpt>
      <trkpt lat="45.68076" lon="3.0351">
        <ele>924</ele>
        <time>2025-09-28T09:44:47Z</time>
      </trkpt>
      <trkpt lat="45.68074" lon="3.03505">
        <ele>924</ele>
        <time>2025-09-28T09:44:48Z</time>
      </trkpt>
      <trkpt lat="45.68073" lon="3.035">
        <ele>924.2</ele>
        <time>2025-09-28T09:44:49Z</time>
      </trkpt>
      <trkpt lat="45.68071" lon="3.03495">
        <ele>924.4</ele>
        <time>2025-09-28T09:44:50Z</time>
      </trkpt>
      <trkpt lat="45.6807" lon="3.0349">
        <ele>924.4</ele>
        <time>2025-09-28T09:44:51Z</time>
      </trkpt>
      <trkpt lat="45.68069" lon="3.03486">
        <ele>924.6</ele>
        <time>2025-09-28T09:44:52Z</time>
      </trkpt>
      <trkpt lat="45.68068" lon="3.03482">
        <ele>924.6</ele>
        <time>2025-09-28T09:44:53Z</time>
      </trkpt>
      <trkpt lat="45.68066" lon="3.03477">
        <ele>924.8</ele>
        <time>2025-09-28T09:44:54Z</time>
      </trkpt>
      <trkpt lat="45.68065" lon="3.03472">
        <ele>925</ele>
        <time>2025-09-28T09:44:55Z</time>
      </trkpt>
      <trkpt lat="45.68065" lon="3.03467">
        <ele>925</ele>
        <time>2025-09-28T09:44:56Z</time>
      </trkpt>
      <trkpt lat="45.68065" lon="3.03461">
        <ele>925.2</ele>
        <time>2025-09-28T09:44:57Z</time>
      </trkpt>
      <trkpt lat="45.68065" lon="3.03456">
        <ele>925.2</ele>
        <time>2025-09-28T09:44:58Z</time>
      </trkpt>
      <trkpt lat="45.68066" lon="3.03452">
        <ele>925.2</ele>
        <time>2025-09-28T09:44:59Z</time>
      </trkpt>
      <trkpt lat="45.68067" lon="3.03448">
        <ele>925.4</ele>
        <time>2025-09-28T09:45:00Z</time>
      </trkpt>
      <trkpt lat="45.68067" lon="3.03447">
        <ele>925.4</ele>
        <time>2025-09-28T09:45:01Z</time>
      </trkpt>
      <trkpt lat="45.68067" lon="3.03445">
        <ele>925.6</ele>
        <time>2025-09-28T09:45:02Z</time>
      </trkpt>
      <trkpt lat="45.68068" lon="3.03436">
        <ele>925.8</ele>
        <time>2025-09-28T09:45:03Z</time>
      </trkpt>
      <trkpt lat="45.6807" lon="3.03429">
        <ele>925.8</ele>
        <time>2025-09-28T09:45:04Z</time>
      </trkpt>
      <trkpt lat="45.68071" lon="3.03426">
        <ele>926</ele>
        <time>2025-09-28T09:45:05Z</time>
      </trkpt>
      <trkpt lat="45.68072" lon="3.03422">
        <ele>926.4</ele>
        <time>2025-09-28T09:45:06Z</time>
      </trkpt>
      <trkpt lat="45.68073" lon="3.03419">
        <ele>926.6</ele>
        <time>2025-09-28T09:45:07Z</time>
      </trkpt>
      <trkpt lat="45.68075" lon="3.03417">
        <ele>926.8</ele>
        <time>2025-09-28T09:45:08Z</time>
      </trkpt>
      <trkpt lat="45.68078" lon="3.03415">
        <ele>927</ele>
        <time>2025-09-28T09:45:09Z</time>
      </trkpt>
      <trkpt lat="45.68081" lon="3.03414">
        <ele>927.2</ele>
        <time>2025-09-28T09:45:10Z</time>
      </trkpt>
      <trkpt lat="45.68083" lon="3.03413">
        <ele>927.4</ele>
        <time>2025-09-28T09:45:11Z</time>
      </trkpt>
      <trkpt lat="45.68086" lon="3.03413">
        <ele>927.6</ele>
        <time>2025-09-28T09:45:12Z</time>
      </trkpt>
      <trkpt lat="45.6809" lon="3.03412">
        <ele>927.8</ele>
        <time>2025-09-28T09:45:13Z</time>
      </trkpt>
      <trkpt lat="45.68093" lon="3.03411">
        <ele>928</ele>
        <time>2025-09-28T09:45:14Z</time>
      </trkpt>
      <trkpt lat="45.68096" lon="3.0341">
        <ele>928.2</ele>
        <time>2025-09-28T09:45:15Z</time>
      </trkpt>
      <trkpt lat="45.68099" lon="3.0341">
        <ele>928.4</ele>
        <time>2025-09-28T09:45:16Z</time>
      </trkpt>
      <trkpt lat="45.68101" lon="3.03409">
        <ele>928.6</ele>
        <time>2025-09-28T09:45:17Z</time>
      </trkpt>
      <trkpt lat="45.68104" lon="3.03409">
        <ele>928.8</ele>
        <time>2025-09-28T09:45:18Z</time>
      </trkpt>
      <trkpt lat="45.68106" lon="3.03409">
        <ele>929</ele>
        <time>2025-09-28T09:45:19Z</time>
      </trkpt>
      <trkpt lat="45.68108" lon="3.03408">
        <ele>929.2</ele>
        <time>2025-09-28T09:45:20Z</time>
      </trkpt>
      <trkpt lat="45.68111" lon="3.03408">
        <ele>929.4</ele>
        <time>2025-09-28T09:45:21Z</time>
      </trkpt>
      <trkpt lat="45.68113" lon="3.03407">
        <ele>929.6</ele>
        <time>2025-09-28T09:45:22Z</time>
      </trkpt>
      <trkpt lat="45.68115" lon="3.03407">
        <ele>929.8</ele>
        <time>2025-09-28T09:45:23Z</time>
      </trkpt>
      <trkpt lat="45.68117" lon="3.03407">
        <ele>930</ele>
        <time>2025-09-28T09:45:24Z</time>
      </trkpt>
      <trkpt lat="45.68118" lon="3.03407">
        <ele>930.4</ele>
        <time>2025-09-28T09:45:25Z</time>
      </trkpt>
      <trkpt lat="45.68121" lon="3.03406">
        <ele>930.6</ele>
        <time>2025-09-28T09:45:26Z</time>
      </trkpt>
      <trkpt lat="45.68123" lon="3.03406">
        <ele>930.8</ele>
        <time>2025-09-28T09:45:27Z</time>
      </trkpt>
      <trkpt lat="45.68125" lon="3.03406">
        <ele>931.2</ele>
        <time>2025-09-28T09:45:28Z</time>
      </trkpt>
      <trkpt lat="45.68128" lon="3.03406">
        <ele>931.4</ele>
        <time>2025-09-28T09:45:29Z</time>
      </trkpt>
      <trkpt lat="45.6813" lon="3.03406">
        <ele>931.6</ele>
        <time>2025-09-28T09:45:30Z</time>
      </trkpt>
      <trkpt lat="45.68133" lon="3.03406">
        <ele>931.8</ele>
        <time>2025-09-28T09:45:31Z</time>
      </trkpt>
      <trkpt lat="45.68136" lon="3.03406">
        <ele>932</ele>
        <time>2025-09-28T09:45:32Z</time>
      </trkpt>
      <trkpt lat="45.68139" lon="3.03406">
        <ele>932.4</ele>
        <time>2025-09-28T09:45:33Z</time>
      </trkpt>
      <trkpt lat="45.68141" lon="3.03406">
        <ele>932.6</ele>
        <time>2025-09-28T09:45:34Z</time>
      </trkpt>
      <trkpt lat="45.68144" lon="3.03406">
        <ele>932.8</ele>
        <time>2025-09-28T09:45:35Z</time>
      </trkpt>
      <trkpt lat="45.68147" lon="3.03405">
        <ele>933</ele>
        <time>2025-09-28T09:45:36Z</time>
      </trkpt>
      <trkpt lat="45.68149" lon="3.03405">
        <ele>933.2</ele>
        <time>2025-09-28T09:45:37Z</time>
      </trkpt>
      <trkpt lat="45.68152" lon="3.03404">
        <ele>933.4</ele>
        <time>2025-09-28T09:45:38Z</time>
      </trkpt>
      <trkpt lat="45.68154" lon="3.03403">
        <ele>933.6</ele>
        <time>2025-09-28T09:45:39Z</time>
      </trkpt>
      <trkpt lat="45.68157" lon="3.03401">
        <ele>934</ele>
        <time>2025-09-28T09:45:40Z</time>
      </trkpt>
      <trkpt lat="45.68159" lon="3.034">
        <ele>934.2</ele>
        <time>2025-09-28T09:45:41Z</time>
      </trkpt>
      <trkpt lat="45.68162" lon="3.03398">
        <ele>934.4</ele>
        <time>2025-09-28T09:45:42Z</time>
      </trkpt>
      <trkpt lat="45.68164" lon="3.03397">
        <ele>934.8</ele>
        <time>2025-09-28T09:45:43Z</time>
      </trkpt>
      <trkpt lat="45.68166" lon="3.03396">
        <ele>935</ele>
        <time>2025-09-28T09:45:44Z</time>
      </trkpt>
      <trkpt lat="45.68168" lon="3.03395">
        <ele>935.2</ele>
        <time>2025-09-28T09:45:45Z</time>
      </trkpt>
      <trkpt lat="45.6817" lon="3.03394">
        <ele>935.4</ele>
        <time>2025-09-28T09:45:46Z</time>
      </trkpt>
      <trkpt lat="45.68172" lon="3.03391">
        <ele>935.8</ele>
        <time>2025-09-28T09:45:47Z</time>
      </trkpt>
      <trkpt lat="45.68174" lon="3.03389">
        <ele>936</ele>
        <time>2025-09-28T09:45:48Z</time>
      </trkpt>
      <trkpt lat="45.68176" lon="3.03385">
        <ele>936.2</ele>
        <time>2025-09-28T09:45:49Z</time>
      </trkpt>
      <trkpt lat="45.68178" lon="3.03382">
        <ele>936.4</ele>
        <time>2025-09-28T09:45:50Z</time>
      </trkpt>
      <trkpt lat="45.6818" lon="3.03378">
        <ele>936.6</ele>
        <time>2025-09-28T09:45:51Z</time>
      </trkpt>
      <trkpt lat="45.68181" lon="3.03374">
        <ele>936.8</ele>
        <time>2025-09-28T09:45:52Z</time>
      </trkpt>
      <trkpt lat="45.68182" lon="3.03371">
        <ele>937</ele>
        <time>2025-09-28T09:45:53Z</time>
      </trkpt>
      <trkpt lat="45.68184" lon="3.03368">
        <ele>937.2</ele>
        <time>2025-09-28T09:45:54Z</time>
      </trkpt>
      <trkpt lat="45.68186" lon="3.03365">
        <ele>937.4</ele>
        <time>2025-09-28T09:45:55Z</time>
      </trkpt>
      <trkpt lat="45.68187" lon="3.03363">
        <ele>937.6</ele>
        <time>2025-09-28T09:45:56Z</time>
      </trkpt>
      <trkpt lat="45.68189" lon="3.0336">
        <ele>937.8</ele>
        <time>2025-09-28T09:45:57Z</time>
      </trkpt>
      <trkpt lat="45.68191" lon="3.03357">
        <ele>938</ele>
        <time>2025-09-28T09:45:58Z</time>
      </trkpt>
      <trkpt lat="45.68193" lon="3.03354">
        <ele>938</ele>
        <time>2025-09-28T09:45:59Z</time>
      </trkpt>
      <trkpt lat="45.68194" lon="3.0335">
        <ele>938.2</ele>
        <time>2025-09-28T09:46:00Z</time>
      </trkpt>
      <trkpt lat="45.68193" lon="3.03347">
        <ele>938.4</ele>
        <time>2025-09-28T09:46:01Z</time>
      </trkpt>
      <trkpt lat="45.68193" lon="3.03344">
        <ele>938.6</ele>
        <time>2025-09-28T09:46:02Z</time>
      </trkpt>
      <trkpt lat="45.68192" lon="3.0334">
        <ele>938.6</ele>
        <time>2025-09-28T09:46:03Z</time>
      </trkpt>
      <trkpt lat="45.68192" lon="3.03336">
        <ele>938.8</ele>
        <time>2025-09-28T09:46:04Z</time>
      </trkpt>
      <trkpt lat="45.68191" lon="3.03333">
        <ele>939</ele>
        <time>2025-09-28T09:46:05Z</time>
      </trkpt>
      <trkpt lat="45.6819" lon="3.0333">
        <ele>939.2</ele>
        <time>2025-09-28T09:46:06Z</time>
      </trkpt>
      <trkpt lat="45.68189" lon="3.03327">
        <ele>939.4</ele>
        <time>2025-09-28T09:46:07Z</time>
      </trkpt>
      <trkpt lat="45.68187" lon="3.03324">
        <ele>939.6</ele>
        <time>2025-09-28T09:46:08Z</time>
      </trkpt>
      <trkpt lat="45.68186" lon="3.03321">
        <ele>939.8</ele>
        <time>2025-09-28T09:46:09Z</time>
      </trkpt>
      <trkpt lat="45.68185" lon="3.03318">
        <ele>940</ele>
        <time>2025-09-28T09:46:10Z</time>
      </trkpt>
      <trkpt lat="45.68184" lon="3.03315">
        <ele>940.2</ele>
        <time>2025-09-28T09:46:11Z</time>
      </trkpt>
      <trkpt lat="45.68183" lon="3.03312">
        <ele>940.4</ele>
        <time>2025-09-28T09:46:12Z</time>
      </trkpt>
      <trkpt lat="45.68182" lon="3.03309">
        <ele>940.6</ele>
        <time>2025-09-28T09:46:13Z</time>
      </trkpt>
      <trkpt lat="45.68181" lon="3.03306">
        <ele>941</ele>
        <time>2025-09-28T09:46:14Z</time>
      </trkpt>
      <trkpt lat="45.6818" lon="3.03303">
        <ele>941.2</ele>
        <time>2025-09-28T09:46:15Z</time>
      </trkpt>
      <trkpt lat="45.68179" lon="3.033">
        <ele>941.4</ele>
        <time>2025-09-28T09:46:16Z</time>
      </trkpt>
      <trkpt lat="45.68178" lon="3.03297">
        <ele>941.6</ele>
        <time>2025-09-28T09:46:17Z</time>
      </trkpt>
      <trkpt lat="45.68177" lon="3.03294">
        <ele>941.8</ele>
        <time>2025-09-28T09:46:18Z</time>
      </trkpt>
      <trkpt lat="45.68176" lon="3.03292">
        <ele>942</ele>
        <time>2025-09-28T09:46:19Z</time>
      </trkpt>
      <trkpt lat="45.68175" lon="3.0329">
        <ele>942.2</ele>
        <time>2025-09-28T09:46:20Z</time>
      </trkpt>
      <trkpt lat="45.68173" lon="3.03288">
        <ele>942.4</ele>
        <time>2025-09-28T09:46:21Z</time>
      </trkpt>
      <trkpt lat="45.68172" lon="3.03286">
        <ele>942.6</ele>
        <time>2025-09-28T09:46:22Z</time>
      </trkpt>
      <trkpt lat="45.68171" lon="3.03283">
        <ele>942.8</ele>
        <time>2025-09-28T09:46:23Z</time>
      </trkpt>
      <trkpt lat="45.6817" lon="3.03281">
        <ele>943.2</ele>
        <time>2025-09-28T09:46:24Z</time>
      </trkpt>
      <trkpt lat="45.68169" lon="3.03279">
        <ele>943.4</ele>
        <time>2025-09-28T09:46:25Z</time>
      </trkpt>
      <trkpt lat="45.68167" lon="3.03276">
        <ele>943.6</ele>
        <time>2025-09-28T09:46:26Z</time>
      </trkpt>
      <trkpt lat="45.68166" lon="3.03274">
        <ele>943.8</ele>
        <time>2025-09-28T09:46:27Z</time>
      </trkpt>
      <trkpt lat="45.68165" lon="3.03271">
        <ele>944</ele>
        <time>2025-09-28T09:46:28Z</time>
      </trkpt>
      <trkpt lat="45.68165" lon="3.03269">
        <ele>944.2</ele>
        <time>2025-09-28T09:46:29Z</time>
      </trkpt>
      <trkpt lat="45.68165" lon="3.03266">
        <ele>944.4</ele>
        <time>2025-09-28T09:46:30Z</time>
      </trkpt>
      <trkpt lat="45.68164" lon="3.03262">
        <ele>944.8</ele>
        <time>2025-09-28T09:46:31Z</time>
      </trkpt>
      <trkpt lat="45.68165" lon="3.03259">
        <ele>945</ele>
        <time>2025-09-28T09:46:32Z</time>
      </trkpt>
      <trkpt lat="45.68165" lon="3.03256">
        <ele>945.2</ele>
        <time>2025-09-28T09:46:33Z</time>
      </trkpt>
      <trkpt lat="45.68165" lon="3.03252">
        <ele>945.4</ele>
        <time>2025-09-28T09:46:34Z</time>
      </trkpt>
      <trkpt lat="45.68165" lon="3.03248">
        <ele>945.6</ele>
        <time>2025-09-28T09:46:35Z</time>
      </trkpt>
      <trkpt lat="45.68166" lon="3.03245">
        <ele>945.8</ele>
        <time>2025-09-28T09:46:36Z</time>
      </trkpt>
      <trkpt lat="45.68166" lon="3.03242">
        <ele>946</ele>
        <time>2025-09-28T09:46:37Z</time>
      </trkpt>
      <trkpt lat="45.68167" lon="3.0324">
        <ele>946.2</ele>
        <time>2025-09-28T09:46:38Z</time>
      </trkpt>
      <trkpt lat="45.68168" lon="3.03236">
        <ele>946.4</ele>
        <time>2025-09-28T09:46:39Z</time>
      </trkpt>
      <trkpt lat="45.68168" lon="3.03232">
        <ele>946.6</ele>
        <time>2025-09-28T09:46:40Z</time>
      </trkpt>
      <trkpt lat="45.68168" lon="3.03229">
        <ele>946.8</ele>
        <time>2025-09-28T09:46:41Z</time>
      </trkpt>
      <trkpt lat="45.68167" lon="3.03225">
        <ele>947</ele>
        <time>2025-09-28T09:46:42Z</time>
      </trkpt>
      <trkpt lat="45.68167" lon="3.03222">
        <ele>947.4</ele>
        <time>2025-09-28T09:46:43Z</time>
      </trkpt>
      <trkpt lat="45.68167" lon="3.03218">
        <ele>947.6</ele>
        <time>2025-09-28T09:46:44Z</time>
      </trkpt>
      <trkpt lat="45.68168" lon="3.03214">
        <ele>947.8</ele>
        <time>2025-09-28T09:46:45Z</time>
      </trkpt>
      <trkpt lat="45.68168" lon="3.03211">
        <ele>948</ele>
        <time>2025-09-28T09:46:46Z</time>
      </trkpt>
      <trkpt lat="45.68169" lon="3.03208">
        <ele>948.2</ele>
        <time>2025-09-28T09:46:47Z</time>
      </trkpt>
      <trkpt lat="45.68169" lon="3.03205">
        <ele>948.4</ele>
        <time>2025-09-28T09:46:48Z</time>
      </trkpt>
      <trkpt lat="45.68168" lon="3.03202">
        <ele>948.6</ele>
        <time>2025-09-28T09:46:49Z</time>
      </trkpt>
      <trkpt lat="45.68168" lon="3.03199">
        <ele>948.8</ele>
        <time>2025-09-28T09:46:50Z</time>
      </trkpt>
      <trkpt lat="45.68168" lon="3.03196">
        <ele>949</ele>
        <time>2025-09-28T09:46:51Z</time>
      </trkpt>
      <trkpt lat="45.68168" lon="3.03192">
        <ele>949.2</ele>
        <time>2025-09-28T09:46:52Z</time>
      </trkpt>
      <trkpt lat="45.68168" lon="3.03189">
        <ele>949.4</ele>
        <time>2025-09-28T09:46:53Z</time>
      </trkpt>
      <trkpt lat="45.68168" lon="3.03186">
        <ele>949.6</ele>
        <time>2025-09-28T09:46:54Z</time>
      </trkpt>
      <trkpt lat="45.68168" lon="3.03183">
        <ele>949.8</ele>
        <time>2025-09-28T09:46:55Z</time>
      </trkpt>
      <trkpt lat="45.68167" lon="3.0318">
        <ele>950</ele>
        <time>2025-09-28T09:46:56Z</time>
      </trkpt>
      <trkpt lat="45.68167" lon="3.03176">
        <ele>950.2</ele>
        <time>2025-09-28T09:46:57Z</time>
      </trkpt>
      <trkpt lat="45.68166" lon="3.03172">
        <ele>950.4</ele>
        <time>2025-09-28T09:46:58Z</time>
      </trkpt>
      <trkpt lat="45.68165" lon="3.03168">
        <ele>950.6</ele>
        <time>2025-09-28T09:46:59Z</time>
      </trkpt>
      <trkpt lat="45.68165" lon="3.03165">
        <ele>950.8</ele>
        <time>2025-09-28T09:47:00Z</time>
      </trkpt>
      <trkpt lat="45.68164" lon="3.03162">
        <ele>950.8</ele>
        <time>2025-09-28T09:47:01Z</time>
      </trkpt>
      <trkpt lat="45.68163" lon="3.03158">
        <ele>951</ele>
        <time>2025-09-28T09:47:02Z</time>
      </trkpt>
      <trkpt lat="45.68163" lon="3.03155">
        <ele>951.2</ele>
        <time>2025-09-28T09:47:03Z</time>
      </trkpt>
      <trkpt lat="45.68162" lon="3.03151">
        <ele>951.2</ele>
        <time>2025-09-28T09:47:04Z</time>
      </trkpt>
      <trkpt lat="45.68161" lon="3.03148">
        <ele>951.4</ele>
        <time>2025-09-28T09:47:05Z</time>
      </trkpt>
      <trkpt lat="45.68161" lon="3.03144">
        <ele>951.4</ele>
        <time>2025-09-28T09:47:06Z</time>
      </trkpt>
      <trkpt lat="45.68161" lon="3.0314">
        <ele>951.6</ele>
        <time>2025-09-28T09:47:07Z</time>
      </trkpt>
      <trkpt lat="45.68161" lon="3.03137">
        <ele>951.6</ele>
        <time>2025-09-28T09:47:08Z</time>
      </trkpt>
      <trkpt lat="45.68161" lon="3.03132">
        <ele>951.8</ele>
        <time>2025-09-28T09:47:09Z</time>
      </trkpt>
      <trkpt lat="45.68161" lon="3.03128">
        <ele>951.8</ele>
        <time>2025-09-28T09:47:10Z</time>
      </trkpt>
      <trkpt lat="45.68162" lon="3.03123">
        <ele>952</ele>
        <time>2025-09-28T09:47:11Z</time>
      </trkpt>
      <trkpt lat="45.68162" lon="3.03118">
        <ele>952</ele>
        <time>2025-09-28T09:47:12Z</time>
      </trkpt>
      <trkpt lat="45.68163" lon="3.03113">
        <ele>952.2</ele>
        <time>2025-09-28T09:47:13Z</time>
      </trkpt>
      <trkpt lat="45.68164" lon="3.03109">
        <ele>952.2</ele>
        <time>2025-09-28T09:47:14Z</time>
      </trkpt>
      <trkpt lat="45.68164" lon="3.03104">
        <ele>952.4</ele>
        <time>2025-09-28T09:47:15Z</time>
      </trkpt>
      <trkpt lat="45.68165" lon="3.03099">
        <ele>952.6</ele>
        <time>2025-09-28T09:47:16Z</time>
      </trkpt>
      <trkpt lat="45.68166" lon="3.03095">
        <ele>952.6</ele>
        <time>2025-09-28T09:47:17Z</time>
      </trkpt>
      <trkpt lat="45.68167" lon="3.0309">
        <ele>952.8</ele>
        <time>2025-09-28T09:47:18Z</time>
      </trkpt>
      <trkpt lat="45.68167" lon="3.03085">
        <ele>952.8</ele>
        <time>2025-09-28T09:47:19Z</time>
      </trkpt>
      <trkpt lat="45.68168" lon="3.03081">
        <ele>953</ele>
        <time>2025-09-28T09:47:20Z</time>
      </trkpt>
      <trkpt lat="45.68168" lon="3.03077">
        <ele>953.2</ele>
        <time>2025-09-28T09:47:21Z</time>
      </trkpt>
      <trkpt lat="45.68168" lon="3.03073">
        <ele>953.4</ele>
        <time>2025-09-28T09:47:22Z</time>
      </trkpt>
      <trkpt lat="45.68168" lon="3.03069">
        <ele>953.6</ele>
        <time>2025-09-28T09:47:23Z</time>
      </trkpt>
      <trkpt lat="45.68168" lon="3.03065">
        <ele>953.8</ele>
        <time>2025-09-28T09:47:24Z</time>
      </trkpt>
      <trkpt lat="45.68168" lon="3.03061">
        <ele>954</ele>
        <time>2025-09-28T09:47:25Z</time>
      </trkpt>
      <trkpt lat="45.68168" lon="3.03057">
        <ele>954.2</ele>
        <time>2025-09-28T09:47:26Z</time>
      </trkpt>
      <trkpt lat="45.68168" lon="3.03053">
        <ele>954.2</ele>
        <time>2025-09-28T09:47:27Z</time>
      </trkpt>
      <trkpt lat="45.68168" lon="3.03049">
        <ele>954.4</ele>
        <time>2025-09-28T09:47:28Z</time>
      </trkpt>
      <trkpt lat="45.68169" lon="3.03045">
        <ele>954.6</ele>
        <time>2025-09-28T09:47:29Z</time>
      </trkpt>
      <trkpt lat="45.68169" lon="3.0304">
        <ele>954.6</ele>
        <time>2025-09-28T09:47:30Z</time>
      </trkpt>
      <trkpt lat="45.6817" lon="3.03036">
        <ele>954.8</ele>
        <time>2025-09-28T09:47:31Z</time>
      </trkpt>
      <trkpt lat="45.6817" lon="3.03032">
        <ele>955</ele>
        <time>2025-09-28T09:47:32Z</time>
      </trkpt>
      <trkpt lat="45.6817" lon="3.03027">
        <ele>955</ele>
        <time>2025-09-28T09:47:33Z</time>
      </trkpt>
      <trkpt lat="45.68171" lon="3.03022">
        <ele>955.2</ele>
        <time>2025-09-28T09:47:34Z</time>
      </trkpt>
      <trkpt lat="45.68171" lon="3.03017">
        <ele>955.2</ele>
        <time>2025-09-28T09:47:35Z</time>
      </trkpt>
      <trkpt lat="45.68171" lon="3.03012">
        <ele>955.2</ele>
        <time>2025-09-28T09:47:36Z</time>
      </trkpt>
      <trkpt lat="45.68171" lon="3.03008">
        <ele>955.4</ele>
        <time>2025-09-28T09:47:37Z</time>
      </trkpt>
      <trkpt lat="45.68171" lon="3.03002">
        <ele>955.4</ele>
        <time>2025-09-28T09:47:38Z</time>
      </trkpt>
      <trkpt lat="45.68171" lon="3.02997">
        <ele>955.6</ele>
        <time>2025-09-28T09:47:39Z</time>
      </trkpt>
      <trkpt lat="45.68171" lon="3.02992">
        <ele>955.6</ele>
        <time>2025-09-28T09:47:40Z</time>
      </trkpt>
      <trkpt lat="45.6817" lon="3.02988">
        <ele>955.8</ele>
        <time>2025-09-28T09:47:41Z</time>
      </trkpt>
      <trkpt lat="45.6817" lon="3.02983">
        <ele>955.8</ele>
        <time>2025-09-28T09:47:42Z</time>
      </trkpt>
      <trkpt lat="45.6817" lon="3.02977">
        <ele>956</ele>
        <time>2025-09-28T09:47:43Z</time>
      </trkpt>
      <trkpt lat="45.6817" lon="3.02972">
        <ele>956.2</ele>
        <time>2025-09-28T09:47:44Z</time>
      </trkpt>
      <trkpt lat="45.68169" lon="3.02968">
        <ele>956.4</ele>
        <time>2025-09-28T09:47:45Z</time>
      </trkpt>
      <trkpt lat="45.68169" lon="3.02963">
        <ele>956.6</ele>
        <time>2025-09-28T09:47:46Z</time>
      </trkpt>
      <trkpt lat="45.68168" lon="3.02958">
        <ele>956.6</ele>
        <time>2025-09-28T09:47:47Z</time>
      </trkpt>
      <trkpt lat="45.68168" lon="3.02954">
        <ele>956.8</ele>
        <time>2025-09-28T09:47:48Z</time>
      </trkpt>
      <trkpt lat="45.68167" lon="3.02949">
        <ele>957</ele>
        <time>2025-09-28T09:47:49Z</time>
      </trkpt>
      <trkpt lat="45.68166" lon="3.02945">
        <ele>957.2</ele>
        <time>2025-09-28T09:47:50Z</time>
      </trkpt>
      <trkpt lat="45.68165" lon="3.0294">
        <ele>957.2</ele>
        <time>2025-09-28T09:47:51Z</time>
      </trkpt>
      <trkpt lat="45.68164" lon="3.02935">
        <ele>957.2</ele>
        <time>2025-09-28T09:47:52Z</time>
      </trkpt>
      <trkpt lat="45.68164" lon="3.0293">
        <ele>957.4</ele>
        <time>2025-09-28T09:47:53Z</time>
      </trkpt>
      <trkpt lat="45.68163" lon="3.02925">
        <ele>957.4</ele>
        <time>2025-09-28T09:47:54Z</time>
      </trkpt>
      <trkpt lat="45.68162" lon="3.0292">
        <ele>957.4</ele>
        <time>2025-09-28T09:47:55Z</time>
      </trkpt>
      <trkpt lat="45.68161" lon="3.02914">
        <ele>957.6</ele>
        <time>2025-09-28T09:47:56Z</time>
      </trkpt>
      <trkpt lat="45.6816" lon="3.02908">
        <ele>957.6</ele>
        <time>2025-09-28T09:47:57Z</time>
      </trkpt>
      <trkpt lat="45.68159" lon="3.02903">
        <ele>957.6</ele>
        <time>2025-09-28T09:47:58Z</time>
      </trkpt>
      <trkpt lat="45.68158" lon="3.02898">
        <ele>957.8</ele>
        <time>2025-09-28T09:47:59Z</time>
      </trkpt>
      <trkpt lat="45.68158" lon="3.02892">
        <ele>958</ele>
        <time>2025-09-28T09:48:00Z</time>
      </trkpt>
      <trkpt lat="45.68157" lon="3.02887">
        <ele>958</ele>
        <time>2025-09-28T09:48:01Z</time>
      </trkpt>
      <trkpt lat="45.68157" lon="3.02882">
        <ele>958.2</ele>
        <time>2025-09-28T09:48:02Z</time>
      </trkpt>
      <trkpt lat="45.68156" lon="3.02877">
        <ele>958.2</ele>
        <time>2025-09-28T09:48:03Z</time>
      </trkpt>
      <trkpt lat="45.68155" lon="3.02873">
        <ele>958.4</ele>
        <time>2025-09-28T09:48:04Z</time>
      </trkpt>
      <trkpt lat="45.68154" lon="3.02868">
        <ele>958.6</ele>
        <time>2025-09-28T09:48:05Z</time>
      </trkpt>
      <trkpt lat="45.68153" lon="3.02862">
        <ele>958.6</ele>
        <time>2025-09-28T09:48:06Z</time>
      </trkpt>
      <trkpt lat="45.68152" lon="3.02857">
        <ele>958.8</ele>
        <time>2025-09-28T09:48:07Z</time>
      </trkpt>
      <trkpt lat="45.68152" lon="3.02852">
        <ele>958.8</ele>
        <time>2025-09-28T09:48:08Z</time>
      </trkpt>
      <trkpt lat="45.68151" lon="3.02847">
        <ele>959</ele>
        <time>2025-09-28T09:48:09Z</time>
      </trkpt>
      <trkpt lat="45.6815" lon="3.02841">
        <ele>959.2</ele>
        <time>2025-09-28T09:48:10Z</time>
      </trkpt>
      <trkpt lat="45.68149" lon="3.02837">
        <ele>959.4</ele>
        <time>2025-09-28T09:48:11Z</time>
      </trkpt>
      <trkpt lat="45.68148" lon="3.02832">
        <ele>959.4</ele>
        <time>2025-09-28T09:48:12Z</time>
      </trkpt>
      <trkpt lat="45.68148" lon="3.02828">
        <ele>959.6</ele>
        <time>2025-09-28T09:48:13Z</time>
      </trkpt>
      <trkpt lat="45.68147" lon="3.02823">
        <ele>959.6</ele>
        <time>2025-09-28T09:48:14Z</time>
      </trkpt>
      <trkpt lat="45.68147" lon="3.02818">
        <ele>959.8</ele>
        <time>2025-09-28T09:48:15Z</time>
      </trkpt>
      <trkpt lat="45.68147" lon="3.02813">
        <ele>960</ele>
        <time>2025-09-28T09:48:16Z</time>
      </trkpt>
      <trkpt lat="45.68148" lon="3.02808">
        <ele>960.2</ele>
        <time>2025-09-28T09:48:17Z</time>
      </trkpt>
      <trkpt lat="45.68148" lon="3.02803">
        <ele>960.2</ele>
        <time>2025-09-28T09:48:18Z</time>
      </trkpt>
      <trkpt lat="45.68148" lon="3.02797">
        <ele>960.4</ele>
        <time>2025-09-28T09:48:19Z</time>
      </trkpt>
      <trkpt lat="45.68149" lon="3.02792">
        <ele>960.4</ele>
        <time>2025-09-28T09:48:20Z</time>
      </trkpt>
      <trkpt lat="45.6815" lon="3.02788">
        <ele>960.6</ele>
        <time>2025-09-28T09:48:21Z</time>
      </trkpt>
      <trkpt lat="45.68151" lon="3.02782">
        <ele>960.6</ele>
        <time>2025-09-28T09:48:22Z</time>
      </trkpt>
      <trkpt lat="45.68151" lon="3.02777">
        <ele>960.6</ele>
        <time>2025-09-28T09:48:23Z</time>
      </trkpt>
      <trkpt lat="45.68151" lon="3.02772">
        <ele>960.6</ele>
        <time>2025-09-28T09:48:24Z</time>
      </trkpt>
      <trkpt lat="45.68151" lon="3.02767">
        <ele>960.8</ele>
        <time>2025-09-28T09:48:25Z</time>
      </trkpt>
      <trkpt lat="45.68151" lon="3.02762">
        <ele>960.8</ele>
        <time>2025-09-28T09:48:26Z</time>
      </trkpt>
      <trkpt lat="45.68151" lon="3.02757">
        <ele>960.8</ele>
        <time>2025-09-28T09:48:27Z</time>
      </trkpt>
      <trkpt lat="45.68152" lon="3.02752">
        <ele>960.8</ele>
        <time>2025-09-28T09:48:28Z</time>
      </trkpt>
      <trkpt lat="45.68152" lon="3.02747">
        <ele>960.8</ele>
        <time>2025-09-28T09:48:29Z</time>
      </trkpt>
      <trkpt lat="45.68152" lon="3.02743">
        <ele>960.8</ele>
        <time>2025-09-28T09:48:30Z</time>
      </trkpt>
      <trkpt lat="45.68152" lon="3.02739">
        <ele>961</ele>
        <time>2025-09-28T09:48:31Z</time>
      </trkpt>
      <trkpt lat="45.68151" lon="3.02734">
        <ele>960.8</ele>
        <time>2025-09-28T09:48:32Z</time>
      </trkpt>
      <trkpt lat="45.68152" lon="3.02729">
        <ele>960.8</ele>
        <time>2025-09-28T09:48:33Z</time>
      </trkpt>
      <trkpt lat="45.68152" lon="3.02725">
        <ele>960.8</ele>
        <time>2025-09-28T09:48:34Z</time>
      </trkpt>
      <trkpt lat="45.68152" lon="3.02719">
        <ele>960.6</ele>
        <time>2025-09-28T09:48:35Z</time>
      </trkpt>
      <trkpt lat="45.68153" lon="3.02714">
        <ele>960.6</ele>
        <time>2025-09-28T09:48:36Z</time>
      </trkpt>
      <trkpt lat="45.68154" lon="3.02708">
        <ele>960.6</ele>
        <time>2025-09-28T09:48:37Z</time>
      </trkpt>
      <trkpt lat="45.68155" lon="3.02703">
        <ele>960.4</ele>
        <time>2025-09-28T09:48:38Z</time>
      </trkpt>
      <trkpt lat="45.68156" lon="3.02697">
        <ele>960.2</ele>
        <time>2025-09-28T09:48:39Z</time>
      </trkpt>
      <trkpt lat="45.68157" lon="3.0269">
        <ele>960</ele>
        <time>2025-09-28T09:48:40Z</time>
      </trkpt>
      <trkpt lat="45.68159" lon="3.02682">
        <ele>959.6</ele>
        <time>2025-09-28T09:48:41Z</time>
      </trkpt>
      <trkpt lat="45.68161" lon="3.02674">
        <ele>959.4</ele>
        <time>2025-09-28T09:48:42Z</time>
      </trkpt>
      <trkpt lat="45.68164" lon="3.02666">
        <ele>959</ele>
        <time>2025-09-28T09:48:43Z</time>
      </trkpt>
      <trkpt lat="45.68167" lon="3.02659">
        <ele>958.6</ele>
        <time>2025-09-28T09:48:44Z</time>
      </trkpt>
      <trkpt lat="45.6817" lon="3.02651">
        <ele>958.2</ele>
        <time>2025-09-28T09:48:45Z</time>
      </trkpt>
      <trkpt lat="45.68174" lon="3.02641">
        <ele>957.8</ele>
        <time>2025-09-28T09:48:46Z</time>
      </trkpt>
      <trkpt lat="45.68177" lon="3.02632">
        <ele>957.6</ele>
        <time>2025-09-28T09:48:47Z</time>
      </trkpt>
      <trkpt lat="45.68179" lon="3.02623">
        <ele>957.4</ele>
        <time>2025-09-28T09:48:48Z</time>
      </trkpt>
      <trkpt lat="45.68182" lon="3.02615">
        <ele>957.2</ele>
        <time>2025-09-28T09:48:49Z</time>
      </trkpt>
      <trkpt lat="45.68184" lon="3.02606">
        <ele>957</ele>
        <time>2025-09-28T09:48:50Z</time>
      </trkpt>
      <trkpt lat="45.68187" lon="3.02597">
        <ele>956.8</ele>
        <time>2025-09-28T09:48:51Z</time>
      </trkpt>
      <trkpt lat="45.68189" lon="3.02589">
        <ele>956.6</ele>
        <time>2025-09-28T09:48:52Z</time>
      </trkpt>
      <trkpt lat="45.6819" lon="3.02582">
        <ele>956.6</ele>
        <time>2025-09-28T09:48:53Z</time>
      </trkpt>
      <trkpt lat="45.68192" lon="3.02574">
        <ele>956.4</ele>
        <time>2025-09-28T09:48:54Z</time>
      </trkpt>
      <trkpt lat="45.68193" lon="3.02568">
        <ele>956.4</ele>
        <time>2025-09-28T09:48:55Z</time>
      </trkpt>
      <trkpt lat="45.68194" lon="3.02562">
        <ele>956.4</ele>
        <time>2025-09-28T09:48:56Z</time>
      </trkpt>
      <trkpt lat="45.68195" lon="3.02558">
        <ele>956.4</ele>
        <time>2025-09-28T09:48:57Z</time>
      </trkpt>
      <trkpt lat="45.68196" lon="3.02554">
        <ele>956.6</ele>
        <time>2025-09-28T09:48:58Z</time>
      </trkpt>
      <trkpt lat="45.68197" lon="3.02549">
        <ele>956.6</ele>
        <time>2025-09-28T09:48:59Z</time>
      </trkpt>
      <trkpt lat="45.68197" lon="3.02546">
        <ele>956.6</ele>
        <time>2025-09-28T09:49:00Z</time>
      </trkpt>
      <trkpt lat="45.68197" lon="3.02542">
        <ele>956.6</ele>
        <time>2025-09-28T09:49:01Z</time>
      </trkpt>
      <trkpt lat="45.68195" lon="3.02539">
        <ele>956.6</ele>
        <time>2025-09-28T09:49:02Z</time>
      </trkpt>
      <trkpt lat="45.68194" lon="3.02535">
        <ele>956.6</ele>
        <time>2025-09-28T09:49:03Z</time>
      </trkpt>
      <trkpt lat="45.68192" lon="3.0253">
        <ele>956.4</ele>
        <time>2025-09-28T09:49:04Z</time>
      </trkpt>
      <trkpt lat="45.6819" lon="3.02526">
        <ele>956.4</ele>
        <time>2025-09-28T09:49:05Z</time>
      </trkpt>
      <trkpt lat="45.68189" lon="3.02521">
        <ele>956.2</ele>
        <time>2025-09-28T09:49:06Z</time>
      </trkpt>
      <trkpt lat="45.68188" lon="3.02517">
        <ele>956.2</ele>
        <time>2025-09-28T09:49:07Z</time>
      </trkpt>
      <trkpt lat="45.68187" lon="3.02512">
        <ele>956</ele>
        <time>2025-09-28T09:49:08Z</time>
      </trkpt>
      <trkpt lat="45.68185" lon="3.02507">
        <ele>956</ele>
        <time>2025-09-28T09:49:09Z</time>
      </trkpt>
      <trkpt lat="45.68184" lon="3.02503">
        <ele>955.8</ele>
        <time>2025-09-28T09:49:10Z</time>
      </trkpt>
      <trkpt lat="45.68182" lon="3.02498">
        <ele>955.6</ele>
        <time>2025-09-28T09:49:11Z</time>
      </trkpt>
      <trkpt lat="45.68181" lon="3.02493">
        <ele>955.4</ele>
        <time>2025-09-28T09:49:12Z</time>
      </trkpt>
      <trkpt lat="45.6818" lon="3.02487">
        <ele>955</ele>
        <time>2025-09-28T09:49:13Z</time>
      </trkpt>
      <trkpt lat="45.68179" lon="3.0248">
        <ele>954.4</ele>
        <time>2025-09-28T09:49:14Z</time>
      </trkpt>
      <trkpt lat="45.68177" lon="3.02473">
        <ele>954</ele>
        <time>2025-09-28T09:49:15Z</time>
      </trkpt>
      <trkpt lat="45.68175" lon="3.02467">
        <ele>953.4</ele>
        <time>2025-09-28T09:49:16Z</time>
      </trkpt>
      <trkpt lat="45.68173" lon="3.02461">
        <ele>952.8</ele>
        <time>2025-09-28T09:49:17Z</time>
      </trkpt>
      <trkpt lat="45.68171" lon="3.02455">
        <ele>952.2</ele>
        <time>2025-09-28T09:49:18Z</time>
      </trkpt>
      <trkpt lat="45.68169" lon="3.02449">
        <ele>951.6</ele>
        <time>2025-09-28T09:49:19Z</time>
      </trkpt>
      <trkpt lat="45.68166" lon="3.02443">
        <ele>951</ele>
        <time>2025-09-28T09:49:20Z</time>
      </trkpt>
      <trkpt lat="45.68163" lon="3.02436">
        <ele>950.4</ele>
        <time>2025-09-28T09:49:21Z</time>
      </trkpt>
      <trkpt lat="45.6816" lon="3.02428">
        <ele>949.8</ele>
        <time>2025-09-28T09:49:22Z</time>
      </trkpt>
      <trkpt lat="45.68157" lon="3.0242">
        <ele>949</ele>
        <time>2025-09-28T09:49:23Z</time>
      </trkpt>
      <trkpt lat="45.68155" lon="3.02412">
        <ele>948.2</ele>
        <time>2025-09-28T09:49:24Z</time>
      </trkpt>
      <trkpt lat="45.68152" lon="3.02403">
        <ele>947.2</ele>
        <time>2025-09-28T09:49:25Z</time>
      </trkpt>
      <trkpt lat="45.68151" lon="3.02393">
        <ele>946.4</ele>
        <time>2025-09-28T09:49:26Z</time>
      </trkpt>
      <trkpt lat="45.68149" lon="3.02382">
        <ele>945.2</ele>
        <time>2025-09-28T09:49:27Z</time>
      </trkpt>
      <trkpt lat="45.68147" lon="3.0237">
        <ele>944.2</ele>
        <time>2025-09-28T09:49:28Z</time>
      </trkpt>
      <trkpt lat="45.68146" lon="3.02358">
        <ele>943.2</ele>
        <time>2025-09-28T09:49:29Z</time>
      </trkpt>
      <trkpt lat="45.68145" lon="3.02344">
        <ele>942.2</ele>
        <time>2025-09-28T09:49:30Z</time>
      </trkpt>
      <trkpt lat="45.68143" lon="3.0233">
        <ele>941.2</ele>
        <time>2025-09-28T09:49:31Z</time>
      </trkpt>
      <trkpt lat="45.68141" lon="3.02317">
        <ele>940</ele>
        <time>2025-09-28T09:49:32Z</time>
      </trkpt>
      <trkpt lat="45.68138" lon="3.02305">
        <ele>938.8</ele>
        <time>2025-09-28T09:49:33Z</time>
      </trkpt>
      <trkpt lat="45.68134" lon="3.02294">
        <ele>937.2</ele>
        <time>2025-09-28T09:49:34Z</time>
      </trkpt>
      <trkpt lat="45.68129" lon="3.02283">
        <ele>935.8</ele>
        <time>2025-09-28T09:49:35Z</time>
      </trkpt>
      <trkpt lat="45.68124" lon="3.02273">
        <ele>934.2</ele>
        <time>2025-09-28T09:49:36Z</time>
      </trkpt>
      <trkpt lat="45.68117" lon="3.02262">
        <ele>932.2</ele>
        <time>2025-09-28T09:49:37Z</time>
      </trkpt>
      <trkpt lat="45.6811" lon="3.0225">
        <ele>930.4</ele>
        <time>2025-09-28T09:49:38Z</time>
      </trkpt>
      <trkpt lat="45.68101" lon="3.02237">
        <ele>928.6</ele>
        <time>2025-09-28T09:49:39Z</time>
      </trkpt>
      <trkpt lat="45.68091" lon="3.02226">
        <ele>927</ele>
        <time>2025-09-28T09:49:40Z</time>
      </trkpt>
      <trkpt lat="45.6808" lon="3.02215">
        <ele>925.4</ele>
        <time>2025-09-28T09:49:41Z</time>
      </trkpt>
      <trkpt lat="45.6807" lon="3.02203">
        <ele>924</ele>
        <time>2025-09-28T09:49:42Z</time>
      </trkpt>
      <trkpt lat="45.68061" lon="3.0219">
        <ele>922.6</ele>
        <time>2025-09-28T09:49:43Z</time>
      </trkpt>
      <trkpt lat="45.68053" lon="3.02178">
        <ele>921.6</ele>
        <time>2025-09-28T09:49:44Z</time>
      </trkpt>
      <trkpt lat="45.68044" lon="3.02167">
        <ele>920.6</ele>
        <time>2025-09-28T09:49:45Z</time>
      </trkpt>
      <trkpt lat="45.68036" lon="3.02159">
        <ele>919.4</ele>
        <time>2025-09-28T09:49:46Z</time>
      </trkpt>
      <trkpt lat="45.68027" lon="3.02151">
        <ele>918.2</ele>
        <time>2025-09-28T09:49:47Z</time>
      </trkpt>
      <trkpt lat="45.68017" lon="3.02144">
        <ele>917</ele>
        <time>2025-09-28T09:49:48Z</time>
      </trkpt>
      <trkpt lat="45.68007" lon="3.0214">
        <ele>915.8</ele>
        <time>2025-09-28T09:49:49Z</time>
      </trkpt>
      <trkpt lat="45.67997" lon="3.02139">
        <ele>914.4</ele>
        <time>2025-09-28T09:49:50Z</time>
      </trkpt>
      <trkpt lat="45.67988" lon="3.0214">
        <ele>913</ele>
        <time>2025-09-28T09:49:51Z</time>
      </trkpt>
      <trkpt lat="45.67981" lon="3.02143">
        <ele>911.8</ele>
        <time>2025-09-28T09:49:52Z</time>
      </trkpt>
      <trkpt lat="45.67974" lon="3.02146">
        <ele>910.6</ele>
        <time>2025-09-28T09:49:53Z</time>
      </trkpt>
      <trkpt lat="45.67969" lon="3.02146">
        <ele>909.6</ele>
        <time>2025-09-28T09:49:54Z</time>
      </trkpt>
      <trkpt lat="45.67964" lon="3.02145">
        <ele>908.6</ele>
        <time>2025-09-28T09:49:55Z</time>
      </trkpt>
      <trkpt lat="45.67961" lon="3.02142">
        <ele>907.8</ele>
        <time>2025-09-28T09:49:56Z</time>
      </trkpt>
      <trkpt lat="45.67958" lon="3.02138">
        <ele>907.2</ele>
        <time>2025-09-28T09:49:57Z</time>
      </trkpt>
      <trkpt lat="45.67956" lon="3.02132">
        <ele>906.6</ele>
        <time>2025-09-28T09:49:58Z</time>
      </trkpt>
      <trkpt lat="45.67956" lon="3.02125">
        <ele>906</ele>
        <time>2025-09-28T09:49:59Z</time>
      </trkpt>
      <trkpt lat="45.67955" lon="3.02116">
        <ele>905.6</ele>
        <time>2025-09-28T09:50:00Z</time>
      </trkpt>
      <trkpt lat="45.67955" lon="3.02107">
        <ele>905.4</ele>
        <time>2025-09-28T09:50:01Z</time>
      </trkpt>
      <trkpt lat="45.67953" lon="3.02096">
        <ele>904.8</ele>
        <time>2025-09-28T09:50:02Z</time>
      </trkpt>
      <trkpt lat="45.6795" lon="3.02086">
        <ele>904.2</ele>
        <time>2025-09-28T09:50:03Z</time>
      </trkpt>
      <trkpt lat="45.67946" lon="3.02076">
        <ele>903.6</ele>
        <time>2025-09-28T09:50:04Z</time>
      </trkpt>
      <trkpt lat="45.67943" lon="3.02065">
        <ele>903</ele>
        <time>2025-09-28T09:50:05Z</time>
      </trkpt>
      <trkpt lat="45.67938" lon="3.02054">
        <ele>902</ele>
        <time>2025-09-28T09:50:06Z</time>
      </trkpt>
      <trkpt lat="45.67934" lon="3.02041">
        <ele>901.2</ele>
        <time>2025-09-28T09:50:07Z</time>
      </trkpt>
      <trkpt lat="45.67929" lon="3.02028">
        <ele>900.2</ele>
        <time>2025-09-28T09:50:08Z</time>
      </trkpt>
      <trkpt lat="45.67924" lon="3.02014">
        <ele>899.4</ele>
        <time>2025-09-28T09:50:09Z</time>
      </trkpt>
      <trkpt lat="45.67919" lon="3.02">
        <ele>898.6</ele>
        <time>2025-09-28T09:50:10Z</time>
      </trkpt>
      <trkpt lat="45.67914" lon="3.01986">
        <ele>897.6</ele>
        <time>2025-09-28T09:50:11Z</time>
      </trkpt>
      <trkpt lat="45.6791" lon="3.01971">
        <ele>897</ele>
        <time>2025-09-28T09:50:12Z</time>
      </trkpt>
      <trkpt lat="45.67906" lon="3.01958">
        <ele>896.4</ele>
        <time>2025-09-28T09:50:13Z</time>
      </trkpt>
      <trkpt lat="45.67902" lon="3.01944">
        <ele>895.6</ele>
        <time>2025-09-28T09:50:14Z</time>
      </trkpt>
      <trkpt lat="45.67898" lon="3.01932">
        <ele>894.8</ele>
        <time>2025-09-28T09:50:15Z</time>
      </trkpt>
      <trkpt lat="45.67895" lon="3.01922">
        <ele>894.4</ele>
        <time>2025-09-28T09:50:16Z</time>
      </trkpt>
      <trkpt lat="45.67894" lon="3.01913">
        <ele>893.8</ele>
        <time>2025-09-28T09:50:17Z</time>
      </trkpt>
      <trkpt lat="45.67894" lon="3.01905">
        <ele>893.4</ele>
        <time>2025-09-28T09:50:18Z</time>
      </trkpt>
      <trkpt lat="45.67895" lon="3.01898">
        <ele>893</ele>
        <time>2025-09-28T09:50:19Z</time>
      </trkpt>
      <trkpt lat="45.67898" lon="3.01891">
        <ele>892.8</ele>
        <time>2025-09-28T09:50:20Z</time>
      </trkpt>
      <trkpt lat="45.67901" lon="3.01884">
        <ele>892.6</ele>
        <time>2025-09-28T09:50:21Z</time>
      </trkpt>
      <trkpt lat="45.67903" lon="3.01876">
        <ele>892.4</ele>
        <time>2025-09-28T09:50:22Z</time>
      </trkpt>
      <trkpt lat="45.67905" lon="3.01867">
        <ele>892.4</ele>
        <time>2025-09-28T09:50:23Z</time>
      </trkpt>
      <trkpt lat="45.67907" lon="3.01859">
        <ele>892.4</ele>
        <time>2025-09-28T09:50:24Z</time>
      </trkpt>
      <trkpt lat="45.67909" lon="3.01851">
        <ele>892.6</ele>
        <time>2025-09-28T09:50:25Z</time>
      </trkpt>
      <trkpt lat="45.67911" lon="3.01844">
        <ele>892.6</ele>
        <time>2025-09-28T09:50:26Z</time>
      </trkpt>
      <trkpt lat="45.67913" lon="3.01838">
        <ele>892.8</ele>
        <time>2025-09-28T09:50:27Z</time>
      </trkpt>
      <trkpt lat="45.67915" lon="3.01832">
        <ele>893</ele>
        <time>2025-09-28T09:50:28Z</time>
      </trkpt>
      <trkpt lat="45.67916" lon="3.01826">
        <ele>893</ele>
        <time>2025-09-28T09:50:29Z</time>
      </trkpt>
      <trkpt lat="45.67916" lon="3.0182">
        <ele>893</ele>
        <time>2025-09-28T09:50:30Z</time>
      </trkpt>
      <trkpt lat="45.67917" lon="3.01815">
        <ele>893</ele>
        <time>2025-09-28T09:50:31Z</time>
      </trkpt>
      <trkpt lat="45.67917" lon="3.01809">
        <ele>893</ele>
        <time>2025-09-28T09:50:32Z</time>
      </trkpt>
      <trkpt lat="45.67919" lon="3.01803">
        <ele>893</ele>
        <time>2025-09-28T09:50:33Z</time>
      </trkpt>
      <trkpt lat="45.6792" lon="3.01797">
        <ele>892.8</ele>
        <time>2025-09-28T09:50:34Z</time>
      </trkpt>
      <trkpt lat="45.67921" lon="3.0179">
        <ele>892.8</ele>
        <time>2025-09-28T09:50:35Z</time>
      </trkpt>
      <trkpt lat="45.67923" lon="3.01784">
        <ele>892.6</ele>
        <time>2025-09-28T09:50:36Z</time>
      </trkpt>
      <trkpt lat="45.67924" lon="3.01779">
        <ele>892.6</ele>
        <time>2025-09-28T09:50:37Z</time>
      </trkpt>
      <trkpt lat="45.67926" lon="3.01773">
        <ele>892.6</ele>
        <time>2025-09-28T09:50:38Z</time>
      </trkpt>
      <trkpt lat="45.67927" lon="3.01767">
        <ele>892.6</ele>
        <time>2025-09-28T09:50:39Z</time>
      </trkpt>
      <trkpt lat="45.67928" lon="3.01761">
        <ele>892.6</ele>
        <time>2025-09-28T09:50:40Z</time>
      </trkpt>
      <trkpt lat="45.67929" lon="3.01755">
        <ele>892.6</ele>
        <time>2025-09-28T09:50:41Z</time>
      </trkpt>
      <trkpt lat="45.67931" lon="3.0175">
        <ele>892.6</ele>
        <time>2025-09-28T09:50:42Z</time>
      </trkpt>
      <trkpt lat="45.67933" lon="3.01744">
        <ele>892.4</ele>
        <time>2025-09-28T09:50:43Z</time>
      </trkpt>
      <trkpt lat="45.67934" lon="3.01737">
        <ele>892.2</ele>
        <time>2025-09-28T09:50:44Z</time>
      </trkpt>
      <trkpt lat="45.67935" lon="3.0173">
        <ele>892</ele>
        <time>2025-09-28T09:50:45Z</time>
      </trkpt>
      <trkpt lat="45.67936" lon="3.01723">
        <ele>891.8</ele>
        <time>2025-09-28T09:50:46Z</time>
      </trkpt>
      <trkpt lat="45.67936" lon="3.01715">
        <ele>891.4</ele>
        <time>2025-09-28T09:50:47Z</time>
      </trkpt>
      <trkpt lat="45.67937" lon="3.01707">
        <ele>891.2</ele>
        <time>2025-09-28T09:50:48Z</time>
      </trkpt>
      <trkpt lat="45.67937" lon="3.017">
        <ele>890.8</ele>
        <time>2025-09-28T09:50:49Z</time>
      </trkpt>
      <trkpt lat="45.67938" lon="3.01692">
        <ele>890.4</ele>
        <time>2025-09-28T09:50:50Z</time>
      </trkpt>
      <trkpt lat="45.67938" lon="3.01684">
        <ele>890</ele>
        <time>2025-09-28T09:50:51Z</time>
      </trkpt>
      <trkpt lat="45.67939" lon="3.01677">
        <ele>889.8</ele>
        <time>2025-09-28T09:50:52Z</time>
      </trkpt>
      <trkpt lat="45.67941" lon="3.0167">
        <ele>889.2</ele>
        <time>2025-09-28T09:50:53Z</time>
      </trkpt>
      <trkpt lat="45.67943" lon="3.01663">
        <ele>888.8</ele>
        <time>2025-09-28T09:50:54Z</time>
      </trkpt>
      <trkpt lat="45.67945" lon="3.01655">
        <ele>888.4</ele>
        <time>2025-09-28T09:50:55Z</time>
      </trkpt>
      <trkpt lat="45.67946" lon="3.01646">
        <ele>888</ele>
        <time>2025-09-28T09:50:56Z</time>
      </trkpt>
      <trkpt lat="45.67947" lon="3.01636">
        <ele>887.6</ele>
        <time>2025-09-28T09:50:57Z</time>
      </trkpt>
      <trkpt lat="45.67948" lon="3.01625">
        <ele>887.2</ele>
        <time>2025-09-28T09:50:58Z</time>
      </trkpt>
      <trkpt lat="45.67949" lon="3.01615">
        <ele>886.8</ele>
        <time>2025-09-28T09:50:59Z</time>
      </trkpt>
      <trkpt lat="45.6795" lon="3.01605">
        <ele>886.4</ele>
        <time>2025-09-28T09:51:00Z</time>
      </trkpt>
      <trkpt lat="45.67951" lon="3.01596">
        <ele>886</ele>
        <time>2025-09-28T09:51:01Z</time>
      </trkpt>
      <trkpt lat="45.67952" lon="3.01587">
        <ele>885.6</ele>
        <time>2025-09-28T09:51:02Z</time>
      </trkpt>
      <trkpt lat="45.67952" lon="3.01578">
        <ele>885.4</ele>
        <time>2025-09-28T09:51:03Z</time>
      </trkpt>
      <trkpt lat="45.67951" lon="3.01568">
        <ele>885.2</ele>
        <time>2025-09-28T09:51:04Z</time>
      </trkpt>
      <trkpt lat="45.6795" lon="3.01558">
        <ele>885.2</ele>
        <time>2025-09-28T09:51:05Z</time>
      </trkpt>
      <trkpt lat="45.67947" lon="3.01547">
        <ele>885</ele>
        <time>2025-09-28T09:51:06Z</time>
      </trkpt>
      <trkpt lat="45.67945" lon="3.01536">
        <ele>885.2</ele>
        <time>2025-09-28T09:51:07Z</time>
      </trkpt>
      <trkpt lat="45.67943" lon="3.01526">
        <ele>885.2</ele>
        <time>2025-09-28T09:51:08Z</time>
      </trkpt>
      <trkpt lat="45.67942" lon="3.01517">
        <ele>885.2</ele>
        <time>2025-09-28T09:51:09Z</time>
      </trkpt>
      <trkpt lat="45.67941" lon="3.01509">
        <ele>885.2</ele>
        <time>2025-09-28T09:51:10Z</time>
      </trkpt>
      <trkpt lat="45.67941" lon="3.01501">
        <ele>885.2</ele>
        <time>2025-09-28T09:51:11Z</time>
      </trkpt>
      <trkpt lat="45.6794" lon="3.01494">
        <ele>885.2</ele>
        <time>2025-09-28T09:51:12Z</time>
      </trkpt>
      <trkpt lat="45.67939" lon="3.01485">
        <ele>885.2</ele>
        <time>2025-09-28T09:51:13Z</time>
      </trkpt>
      <trkpt lat="45.67938" lon="3.01476">
        <ele>885.2</ele>
        <time>2025-09-28T09:51:14Z</time>
      </trkpt>
      <trkpt lat="45.67937" lon="3.01467">
        <ele>885.2</ele>
        <time>2025-09-28T09:51:15Z</time>
      </trkpt>
      <trkpt lat="45.67935" lon="3.01459">
        <ele>885.2</ele>
        <time>2025-09-28T09:51:16Z</time>
      </trkpt>
      <trkpt lat="45.67933" lon="3.01451">
        <ele>885</ele>
        <time>2025-09-28T09:51:17Z</time>
      </trkpt>
      <trkpt lat="45.67932" lon="3.01444">
        <ele>885</ele>
        <time>2025-09-28T09:51:18Z</time>
      </trkpt>
      <trkpt lat="45.67931" lon="3.01437">
        <ele>884.8</ele>
        <time>2025-09-28T09:51:19Z</time>
      </trkpt>
      <trkpt lat="45.6793" lon="3.01431">
        <ele>884.8</ele>
        <time>2025-09-28T09:51:20Z</time>
      </trkpt>
      <trkpt lat="45.67929" lon="3.01424">
        <ele>884.6</ele>
        <time>2025-09-28T09:51:21Z</time>
      </trkpt>
      <trkpt lat="45.67929" lon="3.01418">
        <ele>884.6</ele>
        <time>2025-09-28T09:51:22Z</time>
      </trkpt>
      <trkpt lat="45.67928" lon="3.01411">
        <ele>884.4</ele>
        <time>2025-09-28T09:51:23Z</time>
      </trkpt>
      <trkpt lat="45.67928" lon="3.01403">
        <ele>884.4</ele>
        <time>2025-09-28T09:51:24Z</time>
      </trkpt>
      <trkpt lat="45.67927" lon="3.01394">
        <ele>884.4</ele>
        <time>2025-09-28T09:51:25Z</time>
      </trkpt>
      <trkpt lat="45.67926" lon="3.01385">
        <ele>884.2</ele>
        <time>2025-09-28T09:51:26Z</time>
      </trkpt>
      <trkpt lat="45.67926" lon="3.01377">
        <ele>884.2</ele>
        <time>2025-09-28T09:51:27Z</time>
      </trkpt>
      <trkpt lat="45.67925" lon="3.01369">
        <ele>884.2</ele>
        <time>2025-09-28T09:51:28Z</time>
      </trkpt>
      <trkpt lat="45.67925" lon="3.01363">
        <ele>884</ele>
        <time>2025-09-28T09:51:29Z</time>
      </trkpt>
      <trkpt lat="45.67925" lon="3.01357">
        <ele>884</ele>
        <time>2025-09-28T09:51:30Z</time>
      </trkpt>
      <trkpt lat="45.67925" lon="3.01349">
        <ele>884</ele>
        <time>2025-09-28T09:51:31Z</time>
      </trkpt>
      <trkpt lat="45.67925" lon="3.0134">
        <ele>884</ele>
        <time>2025-09-28T09:51:32Z</time>
      </trkpt>
      <trkpt lat="45.67924" lon="3.01331">
        <ele>884</ele>
        <time>2025-09-28T09:51:33Z</time>
      </trkpt>
      <trkpt lat="45.67924" lon="3.01324">
        <ele>884</ele>
        <time>2025-09-28T09:51:34Z</time>
      </trkpt>
      <trkpt lat="45.67926" lon="3.01317">
        <ele>884.2</ele>
        <time>2025-09-28T09:51:35Z</time>
      </trkpt>
      <trkpt lat="45.67927" lon="3.0131">
        <ele>884.2</ele>
        <time>2025-09-28T09:51:36Z</time>
      </trkpt>
      <trkpt lat="45.67929" lon="3.01303">
        <ele>884.4</ele>
        <time>2025-09-28T09:51:37Z</time>
      </trkpt>
      <trkpt lat="45.6793" lon="3.01296">
        <ele>884.6</ele>
        <time>2025-09-28T09:51:38Z</time>
      </trkpt>
      <trkpt lat="45.67932" lon="3.0129">
        <ele>884.8</ele>
        <time>2025-09-28T09:51:39Z</time>
      </trkpt>
      <trkpt lat="45.67933" lon="3.01284">
        <ele>885</ele>
        <time>2025-09-28T09:51:40Z</time>
      </trkpt>
      <trkpt lat="45.67934" lon="3.01278">
        <ele>885.2</ele>
        <time>2025-09-28T09:51:41Z</time>
      </trkpt>
      <trkpt lat="45.67935" lon="3.01273">
        <ele>885.4</ele>
        <time>2025-09-28T09:51:42Z</time>
      </trkpt>
      <trkpt lat="45.67936" lon="3.01267">
        <ele>885.8</ele>
        <time>2025-09-28T09:51:43Z</time>
      </trkpt>
      <trkpt lat="45.67937" lon="3.01261">
        <ele>886</ele>
        <time>2025-09-28T09:51:44Z</time>
      </trkpt>
      <trkpt lat="45.67937" lon="3.01254">
        <ele>886.2</ele>
        <time>2025-09-28T09:51:45Z</time>
      </trkpt>
      <trkpt lat="45.67937" lon="3.01247">
        <ele>886.4</ele>
        <time>2025-09-28T09:51:46Z</time>
      </trkpt>
      <trkpt lat="45.67938" lon="3.01241">
        <ele>886.6</ele>
        <time>2025-09-28T09:51:47Z</time>
      </trkpt>
      <trkpt lat="45.67938" lon="3.01236">
        <ele>886.8</ele>
        <time>2025-09-28T09:51:48Z</time>
      </trkpt>
      <trkpt lat="45.67939" lon="3.0123">
        <ele>886.8</ele>
        <time>2025-09-28T09:51:49Z</time>
      </trkpt>
      <trkpt lat="45.67939" lon="3.01225">
        <ele>886.8</ele>
        <time>2025-09-28T09:51:50Z</time>
      </trkpt>
      <trkpt lat="45.6794" lon="3.01217">
        <ele>886.8</ele>
        <time>2025-09-28T09:51:51Z</time>
      </trkpt>
      <trkpt lat="45.6794" lon="3.01209">
        <ele>886.6</ele>
        <time>2025-09-28T09:51:52Z</time>
      </trkpt>
      <trkpt lat="45.6794" lon="3.01202">
        <ele>886.6</ele>
        <time>2025-09-28T09:51:53Z</time>
      </trkpt>
      <trkpt lat="45.67939" lon="3.01195">
        <ele>886.6</ele>
        <time>2025-09-28T09:51:54Z</time>
      </trkpt>
      <trkpt lat="45.67939" lon="3.01188">
        <ele>886.6</ele>
        <time>2025-09-28T09:51:55Z</time>
      </trkpt>
      <trkpt lat="45.67939" lon="3.01183">
        <ele>886.4</ele>
        <time>2025-09-28T09:51:56Z</time>
      </trkpt>
      <trkpt lat="45.67938" lon="3.01178">
        <ele>886.2</ele>
        <time>2025-09-28T09:51:57Z</time>
      </trkpt>
      <trkpt lat="45.67938" lon="3.01173">
        <ele>886.2</ele>
        <time>2025-09-28T09:51:58Z</time>
      </trkpt>
      <trkpt lat="45.67939" lon="3.01168">
        <ele>885.8</ele>
        <time>2025-09-28T09:51:59Z</time>
      </trkpt>
      <trkpt lat="45.6794" lon="3.01164">
        <ele>885.6</ele>
        <time>2025-09-28T09:52:00Z</time>
      </trkpt>
      <trkpt lat="45.6794" lon="3.01158">
        <ele>885.4</ele>
        <time>2025-09-28T09:52:01Z</time>
      </trkpt>
      <trkpt lat="45.6794" lon="3.01153">
        <ele>885.2</ele>
        <time>2025-09-28T09:52:02Z</time>
      </trkpt>
      <trkpt lat="45.67939" lon="3.01148">
        <ele>885</ele>
        <time>2025-09-28T09:52:03Z</time>
      </trkpt>
      <trkpt lat="45.67938" lon="3.01143">
        <ele>884.6</ele>
        <time>2025-09-28T09:52:04Z</time>
      </trkpt>
      <trkpt lat="45.67937" lon="3.01137">
        <ele>884.2</ele>
        <time>2025-09-28T09:52:05Z</time>
      </trkpt>
      <trkpt lat="45.67934" lon="3.01131">
        <ele>883.8</ele>
        <time>2025-09-28T09:52:06Z</time>
      </trkpt>
      <trkpt lat="45.67932" lon="3.01124">
        <ele>883.4</ele>
        <time>2025-09-28T09:52:07Z</time>
      </trkpt>
      <trkpt lat="45.6793" lon="3.01117">
        <ele>883.2</ele>
        <time>2025-09-28T09:52:08Z</time>
      </trkpt>
      <trkpt lat="45.67927" lon="3.01112">
        <ele>883.2</ele>
        <time>2025-09-28T09:52:09Z</time>
      </trkpt>
      <trkpt lat="45.67924" lon="3.01107">
        <ele>883</ele>
        <time>2025-09-28T09:52:10Z</time>
      </trkpt>
      <trkpt lat="45.67921" lon="3.01104">
        <ele>883</ele>
        <time>2025-09-28T09:52:11Z</time>
      </trkpt>
      <trkpt lat="45.67918" lon="3.01101">
        <ele>882.8</ele>
        <time>2025-09-28T09:52:12Z</time>
      </trkpt>
      <trkpt lat="45.67914" lon="3.01097">
        <ele>882.6</ele>
        <time>2025-09-28T09:52:13Z</time>
      </trkpt>
      <trkpt lat="45.67911" lon="3.01092">
        <ele>882.4</ele>
        <time>2025-09-28T09:52:14Z</time>
      </trkpt>
      <trkpt lat="45.67908" lon="3.01086">
        <ele>882.2</ele>
        <time>2025-09-28T09:52:15Z</time>
      </trkpt>
      <trkpt lat="45.67905" lon="3.01081">
        <ele>882.2</ele>
        <time>2025-09-28T09:52:16Z</time>
      </trkpt>
      <trkpt lat="45.67903" lon="3.01075">
        <ele>882.2</ele>
        <time>2025-09-28T09:52:17Z</time>
      </trkpt>
      <trkpt lat="45.67901" lon="3.0107">
        <ele>882</ele>
        <time>2025-09-28T09:52:18Z</time>
      </trkpt>
      <trkpt lat="45.67899" lon="3.01065">
        <ele>882</ele>
        <time>2025-09-28T09:52:19Z</time>
      </trkpt>
      <trkpt lat="45.67897" lon="3.01059">
        <ele>881.8</ele>
        <time>2025-09-28T09:52:20Z</time>
      </trkpt>
      <trkpt lat="45.67897" lon="3.01053">
        <ele>882</ele>
        <time>2025-09-28T09:52:21Z</time>
      </trkpt>
      <trkpt lat="45.67897" lon="3.01048">
        <ele>882</ele>
        <time>2025-09-28T09:52:22Z</time>
      </trkpt>
      <trkpt lat="45.67897" lon="3.01044">
        <ele>882.2</ele>
        <time>2025-09-28T09:52:23Z</time>
      </trkpt>
      <trkpt lat="45.67897" lon="3.01039">
        <ele>882.4</ele>
        <time>2025-09-28T09:52:24Z</time>
      </trkpt>
      <trkpt lat="45.67897" lon="3.01035">
        <ele>882.6</ele>
        <time>2025-09-28T09:52:25Z</time>
      </trkpt>
      <trkpt lat="45.67897" lon="3.01032">
        <ele>882.8</ele>
        <time>2025-09-28T09:52:26Z</time>
      </trkpt>
      <trkpt lat="45.67898" lon="3.01028">
        <ele>883</ele>
        <time>2025-09-28T09:52:27Z</time>
      </trkpt>
      <trkpt lat="45.67898" lon="3.01024">
        <ele>883.2</ele>
        <time>2025-09-28T09:52:28Z</time>
      </trkpt>
      <trkpt lat="45.67898" lon="3.0102">
        <ele>883.6</ele>
        <time>2025-09-28T09:52:29Z</time>
      </trkpt>
      <trkpt lat="45.67897" lon="3.01016">
        <ele>883.8</ele>
        <time>2025-09-28T09:52:30Z</time>
      </trkpt>
      <trkpt lat="45.67897" lon="3.01011">
        <ele>884</ele>
        <time>2025-09-28T09:52:31Z</time>
      </trkpt>
      <trkpt lat="45.67897" lon="3.01007">
        <ele>884.2</ele>
        <time>2025-09-28T09:52:32Z</time>
      </trkpt>
      <trkpt lat="45.67897" lon="3.01003">
        <ele>884.4</ele>
        <time>2025-09-28T09:52:33Z</time>
      </trkpt>
      <trkpt lat="45.67897" lon="3.00999">
        <ele>884.6</ele>
        <time>2025-09-28T09:52:34Z</time>
      </trkpt>
      <trkpt lat="45.67897" lon="3.00995">
        <ele>884.6</ele>
        <time>2025-09-28T09:52:35Z</time>
      </trkpt>
      <trkpt lat="45.67897" lon="3.0099">
        <ele>884.8</ele>
        <time>2025-09-28T09:52:36Z</time>
      </trkpt>
      <trkpt lat="45.67897" lon="3.00986">
        <ele>885</ele>
        <time>2025-09-28T09:52:37Z</time>
      </trkpt>
      <trkpt lat="45.67897" lon="3.00982">
        <ele>885.2</ele>
        <time>2025-09-28T09:52:38Z</time>
      </trkpt>
      <trkpt lat="45.67897" lon="3.00978">
        <ele>885.2</ele>
        <time>2025-09-28T09:52:39Z</time>
      </trkpt>
      <trkpt lat="45.67897" lon="3.00974">
        <ele>885.4</ele>
        <time>2025-09-28T09:52:40Z</time>
      </trkpt>
      <trkpt lat="45.67896" lon="3.00969">
        <ele>885.6</ele>
        <time>2025-09-28T09:52:41Z</time>
      </trkpt>
      <trkpt lat="45.67896" lon="3.00965">
        <ele>885.8</ele>
        <time>2025-09-28T09:52:42Z</time>
      </trkpt>
      <trkpt lat="45.67897" lon="3.0096">
        <ele>885.8</ele>
        <time>2025-09-28T09:52:43Z</time>
      </trkpt>
      <trkpt lat="45.67897" lon="3.00956">
        <ele>886.2</ele>
        <time>2025-09-28T09:52:44Z</time>
      </trkpt>
      <trkpt lat="45.67897" lon="3.00953">
        <ele>886.4</ele>
        <time>2025-09-28T09:52:45Z</time>
      </trkpt>
      <trkpt lat="45.67897" lon="3.00949">
        <ele>886.6</ele>
        <time>2025-09-28T09:52:46Z</time>
      </trkpt>
      <trkpt lat="45.67897" lon="3.00946">
        <ele>886.8</ele>
        <time>2025-09-28T09:52:47Z</time>
      </trkpt>
      <trkpt lat="45.67897" lon="3.00943">
        <ele>887</ele>
        <time>2025-09-28T09:52:48Z</time>
      </trkpt>
      <trkpt lat="45.67897" lon="3.0094">
        <ele>887</ele>
        <time>2025-09-28T09:52:49Z</time>
      </trkpt>
      <trkpt lat="45.67897" lon="3.00937">
        <ele>887.2</ele>
        <time>2025-09-28T09:52:50Z</time>
      </trkpt>
      <trkpt lat="45.67898" lon="3.00933">
        <ele>887.2</ele>
        <time>2025-09-28T09:52:51Z</time>
      </trkpt>
      <trkpt lat="45.67898" lon="3.00929">
        <ele>887.4</ele>
        <time>2025-09-28T09:52:52Z</time>
      </trkpt>
      <trkpt lat="45.67899" lon="3.00925">
        <ele>887.4</ele>
        <time>2025-09-28T09:52:53Z</time>
      </trkpt>
      <trkpt lat="45.679" lon="3.00922">
        <ele>887.4</ele>
        <time>2025-09-28T09:52:54Z</time>
      </trkpt>
      <trkpt lat="45.67902" lon="3.00919">
        <ele>887.4</ele>
        <time>2025-09-28T09:52:55Z</time>
      </trkpt>
      <trkpt lat="45.67905" lon="3.00917">
        <ele>887.6</ele>
        <time>2025-09-28T09:52:56Z</time>
      </trkpt>
      <trkpt lat="45.67907" lon="3.00915">
        <ele>887.6</ele>
        <time>2025-09-28T09:52:57Z</time>
      </trkpt>
      <trkpt lat="45.67909" lon="3.00914">
        <ele>887.8</ele>
        <time>2025-09-28T09:52:58Z</time>
      </trkpt>
      <trkpt lat="45.67912" lon="3.00913">
        <ele>887.8</ele>
        <time>2025-09-28T09:52:59Z</time>
      </trkpt>
      <trkpt lat="45.67914" lon="3.00913">
        <ele>888</ele>
        <time>2025-09-28T09:53:00Z</time>
      </trkpt>
      <trkpt lat="45.67917" lon="3.00912">
        <ele>888</ele>
        <time>2025-09-28T09:53:01Z</time>
      </trkpt>
      <trkpt lat="45.67921" lon="3.00912">
        <ele>888</ele>
        <time>2025-09-28T09:53:02Z</time>
      </trkpt>
      <trkpt lat="45.67925" lon="3.00912">
        <ele>888</ele>
        <time>2025-09-28T09:53:03Z</time>
      </trkpt>
      <trkpt lat="45.67929" lon="3.00912">
        <ele>888.2</ele>
        <time>2025-09-28T09:53:04Z</time>
      </trkpt>
      <trkpt lat="45.67933" lon="3.00911">
        <ele>888</ele>
        <time>2025-09-28T09:53:05Z</time>
      </trkpt>
      <trkpt lat="45.67936" lon="3.00911">
        <ele>888.2</ele>
        <time>2025-09-28T09:53:06Z</time>
      </trkpt>
      <trkpt lat="45.6794" lon="3.0091">
        <ele>888.2</ele>
        <time>2025-09-28T09:53:07Z</time>
      </trkpt>
      <trkpt lat="45.67944" lon="3.00909">
        <ele>888.2</ele>
        <time>2025-09-28T09:53:08Z</time>
      </trkpt>
      <trkpt lat="45.67947" lon="3.00909">
        <ele>888.2</ele>
        <time>2025-09-28T09:53:09Z</time>
      </trkpt>
      <trkpt lat="45.67952" lon="3.00908">
        <ele>888.2</ele>
        <time>2025-09-28T09:53:10Z</time>
      </trkpt>
      <trkpt lat="45.67956" lon="3.00905">
        <ele>888.2</ele>
        <time>2025-09-28T09:53:11Z</time>
      </trkpt>
      <trkpt lat="45.67959" lon="3.00901">
        <ele>888.4</ele>
        <time>2025-09-28T09:53:12Z</time>
      </trkpt>
      <trkpt lat="45.67961" lon="3.00895">
        <ele>888.4</ele>
        <time>2025-09-28T09:53:13Z</time>
      </trkpt>
      <trkpt lat="45.67961" lon="3.00889">
        <ele>888.4</ele>
        <time>2025-09-28T09:53:14Z</time>
      </trkpt>
      <trkpt lat="45.6796" lon="3.00882">
        <ele>888.4</ele>
        <time>2025-09-28T09:53:15Z</time>
      </trkpt>
      <trkpt lat="45.67959" lon="3.00875">
        <ele>888.4</ele>
        <time>2025-09-28T09:53:16Z</time>
      </trkpt>
      <trkpt lat="45.67957" lon="3.00867">
        <ele>888.4</ele>
        <time>2025-09-28T09:53:17Z</time>
      </trkpt>
      <trkpt lat="45.67956" lon="3.00861">
        <ele>888.6</ele>
        <time>2025-09-28T09:53:18Z</time>
      </trkpt>
      <trkpt lat="45.67955" lon="3.00855">
        <ele>888.8</ele>
        <time>2025-09-28T09:53:19Z</time>
      </trkpt>
      <trkpt lat="45.67953" lon="3.0085">
        <ele>888.8</ele>
        <time>2025-09-28T09:53:20Z</time>
      </trkpt>
      <trkpt lat="45.67951" lon="3.00846">
        <ele>889</ele>
        <time>2025-09-28T09:53:21Z</time>
      </trkpt>
      <trkpt lat="45.6795" lon="3.00842">
        <ele>889</ele>
        <time>2025-09-28T09:53:22Z</time>
      </trkpt>
      <trkpt lat="45.67948" lon="3.00838">
        <ele>889.2</ele>
        <time>2025-09-28T09:53:23Z</time>
      </trkpt>
      <trkpt lat="45.67946" lon="3.00834">
        <ele>889.2</ele>
        <time>2025-09-28T09:53:24Z</time>
      </trkpt>
      <trkpt lat="45.67945" lon="3.0083">
        <ele>889.4</ele>
        <time>2025-09-28T09:53:25Z</time>
      </trkpt>
      <trkpt lat="45.67943" lon="3.00826">
        <ele>889.6</ele>
        <time>2025-09-28T09:53:26Z</time>
      </trkpt>
      <trkpt lat="45.67941" lon="3.00822">
        <ele>889.8</ele>
        <time>2025-09-28T09:53:27Z</time>
      </trkpt>
      <trkpt lat="45.6794" lon="3.00819">
        <ele>890</ele>
        <time>2025-09-28T09:53:28Z</time>
      </trkpt>
      <trkpt lat="45.67938" lon="3.00817">
        <ele>890.2</ele>
        <time>2025-09-28T09:53:29Z</time>
      </trkpt>
      <trkpt lat="45.67935" lon="3.00815">
        <ele>890.4</ele>
        <time>2025-09-28T09:53:30Z</time>
      </trkpt>
      <trkpt lat="45.67932" lon="3.00814">
        <ele>890.4</ele>
        <time>2025-09-28T09:53:31Z</time>
      </trkpt>
      <trkpt lat="45.67929" lon="3.00813">
        <ele>890.6</ele>
        <time>2025-09-28T09:53:32Z</time>
      </trkpt>
      <trkpt lat="45.67926" lon="3.00812">
        <ele>890.6</ele>
        <time>2025-09-28T09:53:33Z</time>
      </trkpt>
      <trkpt lat="45.67922" lon="3.00811">
        <ele>890.8</ele>
        <time>2025-09-28T09:53:34Z</time>
      </trkpt>
      <trkpt lat="45.67918" lon="3.00809">
        <ele>890.8</ele>
        <time>2025-09-28T09:53:35Z</time>
      </trkpt>
      <trkpt lat="45.67915" lon="3.00807">
        <ele>890.6</ele>
        <time>2025-09-28T09:53:36Z</time>
      </trkpt>
      <trkpt lat="45.67912" lon="3.00805">
        <ele>890.4</ele>
        <time>2025-09-28T09:53:37Z</time>
      </trkpt>
      <trkpt lat="45.67908" lon="3.00803">
        <ele>890.4</ele>
        <time>2025-09-28T09:53:38Z</time>
      </trkpt>
      <trkpt lat="45.67903" lon="3.008">
        <ele>890.2</ele>
        <time>2025-09-28T09:53:39Z</time>
      </trkpt>
      <trkpt lat="45.67899" lon="3.00798">
        <ele>890</ele>
        <time>2025-09-28T09:53:40Z</time>
      </trkpt>
      <trkpt lat="45.67894" lon="3.00795">
        <ele>890</ele>
        <time>2025-09-28T09:53:41Z</time>
      </trkpt>
      <trkpt lat="45.6789" lon="3.00793">
        <ele>889.8</ele>
        <time>2025-09-28T09:53:42Z</time>
      </trkpt>
      <trkpt lat="45.67885" lon="3.0079">
        <ele>889.6</ele>
        <time>2025-09-28T09:53:43Z</time>
      </trkpt>
      <trkpt lat="45.67879" lon="3.00789">
        <ele>889.4</ele>
        <time>2025-09-28T09:53:44Z</time>
      </trkpt>
      <trkpt lat="45.67874" lon="3.00787">
        <ele>889.2</ele>
        <time>2025-09-28T09:53:45Z</time>
      </trkpt>
      <trkpt lat="45.67869" lon="3.00786">
        <ele>889</ele>
        <time>2025-09-28T09:53:46Z</time>
      </trkpt>
      <trkpt lat="45.67864" lon="3.00785">
        <ele>888.8</ele>
        <time>2025-09-28T09:53:47Z</time>
      </trkpt>
      <trkpt lat="45.67859" lon="3.00783">
        <ele>888.6</ele>
        <time>2025-09-28T09:53:48Z</time>
      </trkpt>
      <trkpt lat="45.67853" lon="3.00782">
        <ele>888.4</ele>
        <time>2025-09-28T09:53:49Z</time>
      </trkpt>
      <trkpt lat="45.67848" lon="3.00781">
        <ele>888.2</ele>
        <time>2025-09-28T09:53:50Z</time>
      </trkpt>
      <trkpt lat="45.67843" lon="3.00779">
        <ele>888.2</ele>
        <time>2025-09-28T09:53:51Z</time>
      </trkpt>
      <trkpt lat="45.67838" lon="3.00776">
        <ele>888</ele>
        <time>2025-09-28T09:53:52Z</time>
      </trkpt>
      <trkpt lat="45.67833" lon="3.00772">
        <ele>888</ele>
        <time>2025-09-28T09:53:53Z</time>
      </trkpt>
      <trkpt lat="45.67828" lon="3.00766">
        <ele>888</ele>
        <time>2025-09-28T09:53:54Z</time>
      </trkpt>
      <trkpt lat="45.67823" lon="3.00759">
        <ele>888</ele>
        <time>2025-09-28T09:53:55Z</time>
      </trkpt>
      <trkpt lat="45.67819" lon="3.00752">
        <ele>888.2</ele>
        <time>2025-09-28T09:53:56Z</time>
      </trkpt>
      <trkpt lat="45.67815" lon="3.00746">
        <ele>888.4</ele>
        <time>2025-09-28T09:53:57Z</time>
      </trkpt>
      <trkpt lat="45.67813" lon="3.00741">
        <ele>888.8</ele>
        <time>2025-09-28T09:53:58Z</time>
      </trkpt>
      <trkpt lat="45.6781" lon="3.00737">
        <ele>889</ele>
        <time>2025-09-28T09:53:59Z</time>
      </trkpt>
      <trkpt lat="45.67807" lon="3.00732">
        <ele>889.2</ele>
        <time>2025-09-28T09:54:00Z</time>
      </trkpt>
      <trkpt lat="45.67804" lon="3.00728">
        <ele>889.6</ele>
        <time>2025-09-28T09:54:01Z</time>
      </trkpt>
      <trkpt lat="45.67801" lon="3.00722">
        <ele>889.8</ele>
        <time>2025-09-28T09:54:02Z</time>
      </trkpt>
      <trkpt lat="45.67798" lon="3.00717">
        <ele>890</ele>
        <time>2025-09-28T09:54:03Z</time>
      </trkpt>
      <trkpt lat="45.67795" lon="3.00712">
        <ele>890.2</ele>
        <time>2025-09-28T09:54:04Z</time>
      </trkpt>
      <trkpt lat="45.67793" lon="3.00708">
        <ele>890.4</ele>
        <time>2025-09-28T09:54:05Z</time>
      </trkpt>
      <trkpt lat="45.67791" lon="3.00705">
        <ele>890.6</ele>
        <time>2025-09-28T09:54:06Z</time>
      </trkpt>
      <trkpt lat="45.67789" lon="3.00701">
        <ele>890.8</ele>
        <time>2025-09-28T09:54:07Z</time>
      </trkpt>
      <trkpt lat="45.67787" lon="3.00696">
        <ele>891.2</ele>
        <time>2025-09-28T09:54:08Z</time>
      </trkpt>
      <trkpt lat="45.67785" lon="3.00691">
        <ele>891.4</ele>
        <time>2025-09-28T09:54:09Z</time>
      </trkpt>
      <trkpt lat="45.67783" lon="3.00686">
        <ele>891.6</ele>
        <time>2025-09-28T09:54:10Z</time>
      </trkpt>
      <trkpt lat="45.67781" lon="3.00681">
        <ele>891.8</ele>
        <time>2025-09-28T09:54:11Z</time>
      </trkpt>
      <trkpt lat="45.67779" lon="3.00676">
        <ele>892</ele>
        <time>2025-09-28T09:54:12Z</time>
      </trkpt>
      <trkpt lat="45.67777" lon="3.00672">
        <ele>892.2</ele>
        <time>2025-09-28T09:54:13Z</time>
      </trkpt>
      <trkpt lat="45.67774" lon="3.00668">
        <ele>892.4</ele>
        <time>2025-09-28T09:54:14Z</time>
      </trkpt>
      <trkpt lat="45.67772" lon="3.00664">
        <ele>892.6</ele>
        <time>2025-09-28T09:54:15Z</time>
      </trkpt>
      <trkpt lat="45.67771" lon="3.0066">
        <ele>892.8</ele>
        <time>2025-09-28T09:54:16Z</time>
      </trkpt>
      <trkpt lat="45.6777" lon="3.00655">
        <ele>893</ele>
        <time>2025-09-28T09:54:17Z</time>
      </trkpt>
      <trkpt lat="45.67768" lon="3.00651">
        <ele>893.2</ele>
        <time>2025-09-28T09:54:18Z</time>
      </trkpt>
      <trkpt lat="45.67765" lon="3.00646">
        <ele>893.4</ele>
        <time>2025-09-28T09:54:19Z</time>
      </trkpt>
      <trkpt lat="45.67762" lon="3.00641">
        <ele>893.6</ele>
        <time>2025-09-28T09:54:20Z</time>
      </trkpt>
      <trkpt lat="45.67761" lon="3.00636">
        <ele>893.8</ele>
        <time>2025-09-28T09:54:21Z</time>
      </trkpt>
      <trkpt lat="45.67761" lon="3.00631">
        <ele>894.2</ele>
        <time>2025-09-28T09:54:22Z</time>
      </trkpt>
      <trkpt lat="45.6776" lon="3.00627">
        <ele>894.4</ele>
        <time>2025-09-28T09:54:23Z</time>
      </trkpt>
      <trkpt lat="45.67759" lon="3.00622">
        <ele>894.6</ele>
        <time>2025-09-28T09:54:24Z</time>
      </trkpt>
      <trkpt lat="45.67758" lon="3.00619">
        <ele>894.8</ele>
        <time>2025-09-28T09:54:25Z</time>
      </trkpt>
      <trkpt lat="45.67757" lon="3.00615">
        <ele>894.8</ele>
        <time>2025-09-28T09:54:26Z</time>
      </trkpt>
      <trkpt lat="45.67755" lon="3.00612">
        <ele>895</ele>
        <time>2025-09-28T09:54:27Z</time>
      </trkpt>
      <trkpt lat="45.67753" lon="3.00608">
        <ele>895.2</ele>
        <time>2025-09-28T09:54:28Z</time>
      </trkpt>
      <trkpt lat="45.67751" lon="3.00604">
        <ele>895.4</ele>
        <time>2025-09-28T09:54:29Z</time>
      </trkpt>
      <trkpt lat="45.6775" lon="3.006">
        <ele>895.8</ele>
        <time>2025-09-28T09:54:30Z</time>
      </trkpt>
      <trkpt lat="45.67748" lon="3.00597">
        <ele>896</ele>
        <time>2025-09-28T09:54:31Z</time>
      </trkpt>
      <trkpt lat="45.67747" lon="3.00593">
        <ele>896.2</ele>
        <time>2025-09-28T09:54:32Z</time>
      </trkpt>
      <trkpt lat="45.67745" lon="3.00589">
        <ele>896.4</ele>
        <time>2025-09-28T09:54:33Z</time>
      </trkpt>
      <trkpt lat="45.67744" lon="3.00585">
        <ele>896.8</ele>
        <time>2025-09-28T09:54:34Z</time>
      </trkpt>
      <trkpt lat="45.67742" lon="3.00581">
        <ele>897</ele>
        <time>2025-09-28T09:54:35Z</time>
      </trkpt>
      <trkpt lat="45.67741" lon="3.00578">
        <ele>897.2</ele>
        <time>2025-09-28T09:54:36Z</time>
      </trkpt>
      <trkpt lat="45.6774" lon="3.00575">
        <ele>897.4</ele>
        <time>2025-09-28T09:54:37Z</time>
      </trkpt>
      <trkpt lat="45.67739" lon="3.00572">
        <ele>897.8</ele>
        <time>2025-09-28T09:54:38Z</time>
      </trkpt>
      <trkpt lat="45.67738" lon="3.00569">
        <ele>898</ele>
        <time>2025-09-28T09:54:39Z</time>
      </trkpt>
      <trkpt lat="45.67737" lon="3.00565">
        <ele>898.4</ele>
        <time>2025-09-28T09:54:40Z</time>
      </trkpt>
      <trkpt lat="45.67736" lon="3.00562">
        <ele>898.6</ele>
        <time>2025-09-28T09:54:41Z</time>
      </trkpt>
      <trkpt lat="45.67735" lon="3.00559">
        <ele>898.8</ele>
        <time>2025-09-28T09:54:42Z</time>
      </trkpt>
      <trkpt lat="45.67733" lon="3.00556">
        <ele>899.2</ele>
        <time>2025-09-28T09:54:43Z</time>
      </trkpt>
      <trkpt lat="45.67732" lon="3.00553">
        <ele>899.4</ele>
        <time>2025-09-28T09:54:44Z</time>
      </trkpt>
      <trkpt lat="45.6773" lon="3.0055">
        <ele>899.6</ele>
        <time>2025-09-28T09:54:45Z</time>
      </trkpt>
      <trkpt lat="45.67728" lon="3.00547">
        <ele>899.8</ele>
        <time>2025-09-28T09:54:46Z</time>
      </trkpt>
      <trkpt lat="45.67727" lon="3.00543">
        <ele>900</ele>
        <time>2025-09-28T09:54:47Z</time>
      </trkpt>
      <trkpt lat="45.67726" lon="3.0054">
        <ele>900.2</ele>
        <time>2025-09-28T09:54:48Z</time>
      </trkpt>
      <trkpt lat="45.67724" lon="3.00538">
        <ele>900.6</ele>
        <time>2025-09-28T09:54:49Z</time>
      </trkpt>
      <trkpt lat="45.67723" lon="3.00536">
        <ele>900.8</ele>
        <time>2025-09-28T09:54:50Z</time>
      </trkpt>
      <trkpt lat="45.67721" lon="3.00533">
        <ele>901</ele>
        <time>2025-09-28T09:54:51Z</time>
      </trkpt>
      <trkpt lat="45.6772" lon="3.00531">
        <ele>901.2</ele>
        <time>2025-09-28T09:54:52Z</time>
      </trkpt>
      <trkpt lat="45.67718" lon="3.00529">
        <ele>901.4</ele>
        <time>2025-09-28T09:54:53Z</time>
      </trkpt>
      <trkpt lat="45.67716" lon="3.00526">
        <ele>901.4</ele>
        <time>2025-09-28T09:54:54Z</time>
      </trkpt>
      <trkpt lat="45.67715" lon="3.00524">
        <ele>901.6</ele>
        <time>2025-09-28T09:54:55Z</time>
      </trkpt>
      <trkpt lat="45.67714" lon="3.00521">
        <ele>902</ele>
        <time>2025-09-28T09:54:56Z</time>
      </trkpt>
      <trkpt lat="45.67712" lon="3.00518">
        <ele>902.2</ele>
        <time>2025-09-28T09:54:57Z</time>
      </trkpt>
      <trkpt lat="45.67711" lon="3.00515">
        <ele>902.4</ele>
        <time>2025-09-28T09:54:58Z</time>
      </trkpt>
      <trkpt lat="45.6771" lon="3.00512">
        <ele>902.6</ele>
        <time>2025-09-28T09:54:59Z</time>
      </trkpt>
      <trkpt lat="45.67708" lon="3.0051">
        <ele>902.8</ele>
        <time>2025-09-28T09:55:00Z</time>
      </trkpt>
      <trkpt lat="45.67707" lon="3.00507">
        <ele>903</ele>
        <time>2025-09-28T09:55:01Z</time>
      </trkpt>
      <trkpt lat="45.67706" lon="3.00504">
        <ele>903.2</ele>
        <time>2025-09-28T09:55:02Z</time>
      </trkpt>
      <trkpt lat="45.67705" lon="3.00502">
        <ele>903.4</ele>
        <time>2025-09-28T09:55:03Z</time>
      </trkpt>
      <trkpt lat="45.67704" lon="3.00499">
        <ele>903.6</ele>
        <time>2025-09-28T09:55:04Z</time>
      </trkpt>
      <trkpt lat="45.67703" lon="3.00497">
        <ele>904</ele>
        <time>2025-09-28T09:55:05Z</time>
      </trkpt>
      <trkpt lat="45.67702" lon="3.00495">
        <ele>904.2</ele>
        <time>2025-09-28T09:55:06Z</time>
      </trkpt>
      <trkpt lat="45.677" lon="3.00492">
        <ele>904.4</ele>
        <time>2025-09-28T09:55:07Z</time>
      </trkpt>
      <trkpt lat="45.67699" lon="3.0049">
        <ele>904.6</ele>
        <time>2025-09-28T09:55:08Z</time>
      </trkpt>
      <trkpt lat="45.67698" lon="3.00488">
        <ele>905</ele>
        <time>2025-09-28T09:55:09Z</time>
      </trkpt>
      <trkpt lat="45.67697" lon="3.00485">
        <ele>905.2</ele>
        <time>2025-09-28T09:55:10Z</time>
      </trkpt>
      <trkpt lat="45.67695" lon="3.00483">
        <ele>905.4</ele>
        <time>2025-09-28T09:55:11Z</time>
      </trkpt>
      <trkpt lat="45.67694" lon="3.00482">
        <ele>905.6</ele>
        <time>2025-09-28T09:55:12Z</time>
      </trkpt>
      <trkpt lat="45.67693" lon="3.0048">
        <ele>905.8</ele>
        <time>2025-09-28T09:55:13Z</time>
      </trkpt>
      <trkpt lat="45.67692" lon="3.00477">
        <ele>906</ele>
        <time>2025-09-28T09:55:14Z</time>
      </trkpt>
      <trkpt lat="45.6769" lon="3.00475">
        <ele>906.4</ele>
        <time>2025-09-28T09:55:15Z</time>
      </trkpt>
      <trkpt lat="45.67689" lon="3.00473">
        <ele>906.6</ele>
        <time>2025-09-28T09:55:16Z</time>
      </trkpt>
      <trkpt lat="45.67687" lon="3.0047">
        <ele>906.8</ele>
        <time>2025-09-28T09:55:17Z</time>
      </trkpt>
      <trkpt lat="45.67686" lon="3.00467">
        <ele>907.2</ele>
        <time>2025-09-28T09:55:18Z</time>
      </trkpt>
      <trkpt lat="45.67685" lon="3.00465">
        <ele>907.4</ele>
        <time>2025-09-28T09:55:19Z</time>
      </trkpt>
      <trkpt lat="45.67684" lon="3.00462">
        <ele>907.6</ele>
        <time>2025-09-28T09:55:20Z</time>
      </trkpt>
      <trkpt lat="45.67684" lon="3.0046">
        <ele>908</ele>
        <time>2025-09-28T09:55:21Z</time>
      </trkpt>
      <trkpt lat="45.67684" lon="3.00458">
        <ele>908.2</ele>
        <time>2025-09-28T09:55:22Z</time>
      </trkpt>
      <trkpt lat="45.67683" lon="3.00455">
        <ele>908.4</ele>
        <time>2025-09-28T09:55:23Z</time>
      </trkpt>
      <trkpt lat="45.67684" lon="3.00453">
        <ele>908.8</ele>
        <time>2025-09-28T09:55:24Z</time>
      </trkpt>
      <trkpt lat="45.67684" lon="3.00451">
        <ele>909</ele>
        <time>2025-09-28T09:55:25Z</time>
      </trkpt>
      <trkpt lat="45.67685" lon="3.00449">
        <ele>909.2</ele>
        <time>2025-09-28T09:55:26Z</time>
      </trkpt>
      <trkpt lat="45.67687" lon="3.00447">
        <ele>909.4</ele>
        <time>2025-09-28T09:55:27Z</time>
      </trkpt>
      <trkpt lat="45.67688" lon="3.00446">
        <ele>909.8</ele>
        <time>2025-09-28T09:55:28Z</time>
      </trkpt>
      <trkpt lat="45.6769" lon="3.00445">
        <ele>910</ele>
        <time>2025-09-28T09:55:29Z</time>
      </trkpt>
      <trkpt lat="45.67692" lon="3.00443">
        <ele>910.2</ele>
        <time>2025-09-28T09:55:30Z</time>
      </trkpt>
      <trkpt lat="45.67693" lon="3.00442">
        <ele>910.4</ele>
        <time>2025-09-28T09:55:31Z</time>
      </trkpt>
      <trkpt lat="45.67695" lon="3.00441">
        <ele>910.4</ele>
        <time>2025-09-28T09:55:32Z</time>
      </trkpt>
      <trkpt lat="45.67697" lon="3.00439">
        <ele>910.6</ele>
        <time>2025-09-28T09:55:33Z</time>
      </trkpt>
      <trkpt lat="45.67698" lon="3.00437">
        <ele>910.8</ele>
        <time>2025-09-28T09:55:34Z</time>
      </trkpt>
      <trkpt lat="45.677" lon="3.00435">
        <ele>911</ele>
        <time>2025-09-28T09:55:35Z</time>
      </trkpt>
      <trkpt lat="45.67701" lon="3.00433">
        <ele>911.2</ele>
        <time>2025-09-28T09:55:36Z</time>
      </trkpt>
      <trkpt lat="45.67703" lon="3.00431">
        <ele>911.2</ele>
        <time>2025-09-28T09:55:37Z</time>
      </trkpt>
      <trkpt lat="45.67705" lon="3.00428">
        <ele>911.4</ele>
        <time>2025-09-28T09:55:38Z</time>
      </trkpt>
      <trkpt lat="45.67706" lon="3.00426">
        <ele>911.4</ele>
        <time>2025-09-28T09:55:39Z</time>
      </trkpt>
      <trkpt lat="45.67708" lon="3.00423">
        <ele>911.6</ele>
        <time>2025-09-28T09:55:40Z</time>
      </trkpt>
      <trkpt lat="45.67709" lon="3.00421">
        <ele>911.6</ele>
        <time>2025-09-28T09:55:41Z</time>
      </trkpt>
      <trkpt lat="45.67711" lon="3.00418">
        <ele>911.8</ele>
        <time>2025-09-28T09:55:42Z</time>
      </trkpt>
      <trkpt lat="45.67713" lon="3.00415">
        <ele>911.8</ele>
        <time>2025-09-28T09:55:43Z</time>
      </trkpt>
      <trkpt lat="45.67715" lon="3.00413">
        <ele>911.8</ele>
        <time>2025-09-28T09:55:44Z</time>
      </trkpt>
      <trkpt lat="45.67716" lon="3.0041">
        <ele>912</ele>
        <time>2025-09-28T09:55:45Z</time>
      </trkpt>
      <trkpt lat="45.67718" lon="3.00406">
        <ele>912</ele>
        <time>2025-09-28T09:55:46Z</time>
      </trkpt>
      <trkpt lat="45.67719" lon="3.00402">
        <ele>912.2</ele>
        <time>2025-09-28T09:55:47Z</time>
      </trkpt>
      <trkpt lat="45.6772" lon="3.00398">
        <ele>912.2</ele>
        <time>2025-09-28T09:55:48Z</time>
      </trkpt>
      <trkpt lat="45.67721" lon="3.00394">
        <ele>912.4</ele>
        <time>2025-09-28T09:55:49Z</time>
      </trkpt>
      <trkpt lat="45.67722" lon="3.0039">
        <ele>912.4</ele>
        <time>2025-09-28T09:55:50Z</time>
      </trkpt>
      <trkpt lat="45.67723" lon="3.00385">
        <ele>912.4</ele>
        <time>2025-09-28T09:55:51Z</time>
      </trkpt>
      <trkpt lat="45.67724" lon="3.0038">
        <ele>912.6</ele>
        <time>2025-09-28T09:55:52Z</time>
      </trkpt>
      <trkpt lat="45.67725" lon="3.00375">
        <ele>912.6</ele>
        <time>2025-09-28T09:55:53Z</time>
      </trkpt>
      <trkpt lat="45.67726" lon="3.0037">
        <ele>912.6</ele>
        <time>2025-09-28T09:55:54Z</time>
      </trkpt>
      <trkpt lat="45.67727" lon="3.00366">
        <ele>912.4</ele>
        <time>2025-09-28T09:55:55Z</time>
      </trkpt>
      <trkpt lat="45.67728" lon="3.00361">
        <ele>912.4</ele>
        <time>2025-09-28T09:55:56Z</time>
      </trkpt>
      <trkpt lat="45.67729" lon="3.00355">
        <ele>912.4</ele>
        <time>2025-09-28T09:55:57Z</time>
      </trkpt>
      <trkpt lat="45.6773" lon="3.0035">
        <ele>912.4</ele>
        <time>2025-09-28T09:55:58Z</time>
      </trkpt>
      <trkpt lat="45.67731" lon="3.00345">
        <ele>912.4</ele>
        <time>2025-09-28T09:55:59Z</time>
      </trkpt>
      <trkpt lat="45.67731" lon="3.00339">
        <ele>912.2</ele>
        <time>2025-09-28T09:56:00Z</time>
      </trkpt>
      <trkpt lat="45.67731" lon="3.00332">
        <ele>912.2</ele>
        <time>2025-09-28T09:56:01Z</time>
      </trkpt>
      <trkpt lat="45.67731" lon="3.00325">
        <ele>912</ele>
        <time>2025-09-28T09:56:02Z</time>
      </trkpt>
      <trkpt lat="45.67731" lon="3.00318">
        <ele>911.8</ele>
        <time>2025-09-28T09:56:03Z</time>
      </trkpt>
      <trkpt lat="45.67732" lon="3.00311">
        <ele>911.6</ele>
        <time>2025-09-28T09:56:04Z</time>
      </trkpt>
      <trkpt lat="45.67732" lon="3.00303">
        <ele>911.4</ele>
        <time>2025-09-28T09:56:05Z</time>
      </trkpt>
      <trkpt lat="45.67733" lon="3.00295">
        <ele>911.2</ele>
        <time>2025-09-28T09:56:06Z</time>
      </trkpt>
      <trkpt lat="45.67733" lon="3.00286">
        <ele>911</ele>
        <time>2025-09-28T09:56:07Z</time>
      </trkpt>
      <trkpt lat="45.67734" lon="3.00278">
        <ele>910.8</ele>
        <time>2025-09-28T09:56:08Z</time>
      </trkpt>
      <trkpt lat="45.67734" lon="3.0027">
        <ele>910.8</ele>
        <time>2025-09-28T09:56:09Z</time>
      </trkpt>
      <trkpt lat="45.67734" lon="3.00262">
        <ele>910.6</ele>
        <time>2025-09-28T09:56:10Z</time>
      </trkpt>
      <trkpt lat="45.67734" lon="3.00256">
        <ele>910.4</ele>
        <time>2025-09-28T09:56:11Z</time>
      </trkpt>
      <trkpt lat="45.67735" lon="3.00249">
        <ele>910.2</ele>
        <time>2025-09-28T09:56:12Z</time>
      </trkpt>
      <trkpt lat="45.67736" lon="3.00242">
        <ele>910</ele>
        <time>2025-09-28T09:56:13Z</time>
      </trkpt>
      <trkpt lat="45.67737" lon="3.00235">
        <ele>909.6</ele>
        <time>2025-09-28T09:56:14Z</time>
      </trkpt>
      <trkpt lat="45.67739" lon="3.00227">
        <ele>909.2</ele>
        <time>2025-09-28T09:56:15Z</time>
      </trkpt>
      <trkpt lat="45.67739" lon="3.00219">
        <ele>908.8</ele>
        <time>2025-09-28T09:56:16Z</time>
      </trkpt>
      <trkpt lat="45.6774" lon="3.0021">
        <ele>908.2</ele>
        <time>2025-09-28T09:56:17Z</time>
      </trkpt>
      <trkpt lat="45.6774" lon="3.002">
        <ele>907.6</ele>
        <time>2025-09-28T09:56:18Z</time>
      </trkpt>
      <trkpt lat="45.67741" lon="3.0019">
        <ele>907</ele>
        <time>2025-09-28T09:56:19Z</time>
      </trkpt>
      <trkpt lat="45.67741" lon="3.0018">
        <ele>906.4</ele>
        <time>2025-09-28T09:56:20Z</time>
      </trkpt>
      <trkpt lat="45.67741" lon="3.00168">
        <ele>905.8</ele>
        <time>2025-09-28T09:56:21Z</time>
      </trkpt>
      <trkpt lat="45.67742" lon="3.00156">
        <ele>905.2</ele>
        <time>2025-09-28T09:56:22Z</time>
      </trkpt>
      <trkpt lat="45.67741" lon="3.00143">
        <ele>904.6</ele>
        <time>2025-09-28T09:56:23Z</time>
      </trkpt>
      <trkpt lat="45.67741" lon="3.00129">
        <ele>904</ele>
        <time>2025-09-28T09:56:24Z</time>
      </trkpt>
      <trkpt lat="45.67741" lon="3.00117">
        <ele>903.6</ele>
        <time>2025-09-28T09:56:25Z</time>
      </trkpt>
      <trkpt lat="45.6774" lon="3.00104">
        <ele>903</ele>
        <time>2025-09-28T09:56:26Z</time>
      </trkpt>
      <trkpt lat="45.67738" lon="3.0009">
        <ele>902.2</ele>
        <time>2025-09-28T09:56:27Z</time>
      </trkpt>
      <trkpt lat="45.67736" lon="3.00075">
        <ele>901.8</ele>
        <time>2025-09-28T09:56:28Z</time>
      </trkpt>
      <trkpt lat="45.67733" lon="3.00061">
        <ele>901.2</ele>
        <time>2025-09-28T09:56:29Z</time>
      </trkpt>
      <trkpt lat="45.6773" lon="3.00044">
        <ele>900.6</ele>
        <time>2025-09-28T09:56:30Z</time>
      </trkpt>
      <trkpt lat="45.67729" lon="3.00029">
        <ele>900.4</ele>
        <time>2025-09-28T09:56:31Z</time>
      </trkpt>
      <trkpt lat="45.67729" lon="3.00016">
        <ele>899.8</ele>
        <time>2025-09-28T09:56:32Z</time>
      </trkpt>
      <trkpt lat="45.67731" lon="3.00004">
        <ele>899.4</ele>
        <time>2025-09-28T09:56:33Z</time>
      </trkpt>
      <trkpt lat="45.67732" lon="2.99991">
        <ele>899.2</ele>
        <time>2025-09-28T09:56:34Z</time>
      </trkpt>
      <trkpt lat="45.67734" lon="2.99978">
        <ele>898.8</ele>
        <time>2025-09-28T09:56:35Z</time>
      </trkpt>
      <trkpt lat="45.67736" lon="2.99966">
        <ele>898.4</ele>
        <time>2025-09-28T09:56:36Z</time>
      </trkpt>
      <trkpt lat="45.67738" lon="2.99955">
        <ele>898</ele>
        <time>2025-09-28T09:56:37Z</time>
      </trkpt>
      <trkpt lat="45.67741" lon="2.99943">
        <ele>897.6</ele>
        <time>2025-09-28T09:56:38Z</time>
      </trkpt>
      <trkpt lat="45.67745" lon="2.99932">
        <ele>897.2</ele>
        <time>2025-09-28T09:56:39Z</time>
      </trkpt>
      <trkpt lat="45.67749" lon="2.9992">
        <ele>896.6</ele>
        <time>2025-09-28T09:56:40Z</time>
      </trkpt>
      <trkpt lat="45.67754" lon="2.99908">
        <ele>896</ele>
        <time>2025-09-28T09:56:41Z</time>
      </trkpt>
      <trkpt lat="45.67759" lon="2.99896">
        <ele>895.4</ele>
        <time>2025-09-28T09:56:42Z</time>
      </trkpt>
      <trkpt lat="45.67764" lon="2.99883">
        <ele>894.8</ele>
        <time>2025-09-28T09:56:43Z</time>
      </trkpt>
      <trkpt lat="45.67767" lon="2.9987">
        <ele>894.4</ele>
        <time>2025-09-28T09:56:44Z</time>
      </trkpt>
      <trkpt lat="45.6777" lon="2.99859">
        <ele>893.8</ele>
        <time>2025-09-28T09:56:45Z</time>
      </trkpt>
      <trkpt lat="45.67773" lon="2.99848">
        <ele>893.2</ele>
        <time>2025-09-28T09:56:46Z</time>
      </trkpt>
      <trkpt lat="45.67776" lon="2.99838">
        <ele>892.4</ele>
        <time>2025-09-28T09:56:47Z</time>
      </trkpt>
      <trkpt lat="45.67779" lon="2.99828">
        <ele>891.8</ele>
        <time>2025-09-28T09:56:48Z</time>
      </trkpt>
      <trkpt lat="45.67782" lon="2.99819">
        <ele>891</ele>
        <time>2025-09-28T09:56:49Z</time>
      </trkpt>
      <trkpt lat="45.67785" lon="2.99813">
        <ele>890.4</ele>
        <time>2025-09-28T09:56:50Z</time>
      </trkpt>
      <trkpt lat="45.67787" lon="2.99808">
        <ele>890</ele>
        <time>2025-09-28T09:56:51Z</time>
      </trkpt>
      <trkpt lat="45.67787" lon="2.99804">
        <ele>889.4</ele>
        <time>2025-09-28T09:56:52Z</time>
      </trkpt>
      <trkpt lat="45.67784" lon="2.99801">
        <ele>888.8</ele>
        <time>2025-09-28T09:56:53Z</time>
      </trkpt>
      <trkpt lat="45.6778" lon="2.99798">
        <ele>888.4</ele>
        <time>2025-09-28T09:56:54Z</time>
      </trkpt>
      <trkpt lat="45.67774" lon="2.99797">
        <ele>888</ele>
        <time>2025-09-28T09:56:55Z</time>
      </trkpt>
      <trkpt lat="45.67767" lon="2.99796">
        <ele>887.6</ele>
        <time>2025-09-28T09:56:56Z</time>
      </trkpt>
      <trkpt lat="45.6776" lon="2.99796">
        <ele>887.2</ele>
        <time>2025-09-28T09:56:57Z</time>
      </trkpt>
      <trkpt lat="45.67752" lon="2.99797">
        <ele>887</ele>
        <time>2025-09-28T09:56:58Z</time>
      </trkpt>
      <trkpt lat="45.67744" lon="2.99797">
        <ele>886.8</ele>
        <time>2025-09-28T09:56:59Z</time>
      </trkpt>
      <trkpt lat="45.67737" lon="2.99798">
        <ele>886.6</ele>
        <time>2025-09-28T09:57:00Z</time>
      </trkpt>
      <trkpt lat="45.67729" lon="2.99799">
        <ele>886.2</ele>
        <time>2025-09-28T09:57:01Z</time>
      </trkpt>
      <trkpt lat="45.67722" lon="2.99801">
        <ele>886</ele>
        <time>2025-09-28T09:57:02Z</time>
      </trkpt>
      <trkpt lat="45.67715" lon="2.99803">
        <ele>885.8</ele>
        <time>2025-09-28T09:57:03Z</time>
      </trkpt>
      <trkpt lat="45.67709" lon="2.99805">
        <ele>885.6</ele>
        <time>2025-09-28T09:57:04Z</time>
      </trkpt>
      <trkpt lat="45.67702" lon="2.99808">
        <ele>885.4</ele>
        <time>2025-09-28T09:57:05Z</time>
      </trkpt>
      <trkpt lat="45.67696" lon="2.99812">
        <ele>885.2</ele>
        <time>2025-09-28T09:57:06Z</time>
      </trkpt>
      <trkpt lat="45.6769" lon="2.99816">
        <ele>884.8</ele>
        <time>2025-09-28T09:57:07Z</time>
      </trkpt>
      <trkpt lat="45.67684" lon="2.9982">
        <ele>884.4</ele>
        <time>2025-09-28T09:57:08Z</time>
      </trkpt>
      <trkpt lat="45.67678" lon="2.99825">
        <ele>884</ele>
        <time>2025-09-28T09:57:09Z</time>
      </trkpt>
      <trkpt lat="45.67673" lon="2.99829">
        <ele>883.6</ele>
        <time>2025-09-28T09:57:10Z</time>
      </trkpt>
      <trkpt lat="45.6767" lon="2.99833">
        <ele>883.4</ele>
        <time>2025-09-28T09:57:11Z</time>
      </trkpt>
      <trkpt lat="45.67667" lon="2.99837">
        <ele>883</ele>
        <time>2025-09-28T09:57:12Z</time>
      </trkpt>
      <trkpt lat="45.67666" lon="2.99839">
        <ele>882.8</ele>
        <time>2025-09-28T09:57:13Z</time>
      </trkpt>
      <trkpt lat="45.67664" lon="2.99836">
        <ele>881.8</ele>
        <time>2025-09-28T09:57:32Z</time>
      </trkpt>
      <trkpt lat="45.67662" lon="2.99833">
        <ele>881.8</ele>
        <time>2025-09-28T09:57:33Z</time>
      </trkpt>
      <trkpt lat="45.67659" lon="2.99828">
        <ele>881.8</ele>
        <time>2025-09-28T09:57:34Z</time>
      </trkpt>
      <trkpt lat="45.67655" lon="2.99824">
        <ele>881.6</ele>
        <time>2025-09-28T09:57:35Z</time>
      </trkpt>
      <trkpt lat="45.67651" lon="2.9982">
        <ele>881.2</ele>
        <time>2025-09-28T09:57:36Z</time>
      </trkpt>
      <trkpt lat="45.67646" lon="2.99815">
        <ele>880.6</ele>
        <time>2025-09-28T09:57:37Z</time>
      </trkpt>
      <trkpt lat="45.6764" lon="2.99811">
        <ele>880</ele>
        <time>2025-09-28T09:57:38Z</time>
      </trkpt>
      <trkpt lat="45.67634" lon="2.99807">
        <ele>879.2</ele>
        <time>2025-09-28T09:57:39Z</time>
      </trkpt>
      <trkpt lat="45.67628" lon="2.99803">
        <ele>878.6</ele>
        <time>2025-09-28T09:57:40Z</time>
      </trkpt>
      <trkpt lat="45.67623" lon="2.99799">
        <ele>877.8</ele>
        <time>2025-09-28T09:57:41Z</time>
      </trkpt>
      <trkpt lat="45.67617" lon="2.99796">
        <ele>877.2</ele>
        <time>2025-09-28T09:57:42Z</time>
      </trkpt>
      <trkpt lat="45.67612" lon="2.99793">
        <ele>876.4</ele>
        <time>2025-09-28T09:57:43Z</time>
      </trkpt>
      <trkpt lat="45.67606" lon="2.99788">
        <ele>875.8</ele>
        <time>2025-09-28T09:57:44Z</time>
      </trkpt>
      <trkpt lat="45.67601" lon="2.99783">
        <ele>875.4</ele>
        <time>2025-09-28T09:57:45Z</time>
      </trkpt>
      <trkpt lat="45.67597" lon="2.99777">
        <ele>874.8</ele>
        <time>2025-09-28T09:57:46Z</time>
      </trkpt>
      <trkpt lat="45.67595" lon="2.99772">
        <ele>874.6</ele>
        <time>2025-09-28T09:57:47Z</time>
      </trkpt>
      <trkpt lat="45.67594" lon="2.99768">
        <ele>874.2</ele>
        <time>2025-09-28T09:57:48Z</time>
      </trkpt>
      <trkpt lat="45.67592" lon="2.99766">
        <ele>874.2</ele>
        <time>2025-09-28T09:57:49Z</time>
      </trkpt>
      <trkpt lat="45.67591" lon="2.99765">
        <ele>874</ele>
        <time>2025-09-28T09:57:50Z</time>
      </trkpt>
      <trkpt lat="45.67589" lon="2.99765">
        <ele>873.8</ele>
        <time>2025-09-28T09:57:51Z</time>
      </trkpt>
      <trkpt lat="45.67587" lon="2.99766">
        <ele>873.8</ele>
        <time>2025-09-28T09:57:52Z</time>
      </trkpt>
      <trkpt lat="45.67584" lon="2.99767">
        <ele>873.6</ele>
        <time>2025-09-28T09:57:53Z</time>
      </trkpt>
      <trkpt lat="45.67581" lon="2.99769">
        <ele>873.6</ele>
        <time>2025-09-28T09:57:54Z</time>
      </trkpt>
      <trkpt lat="45.67577" lon="2.99771">
        <ele>873.2</ele>
        <time>2025-09-28T09:57:55Z</time>
      </trkpt>
      <trkpt lat="45.67572" lon="2.99773">
        <ele>873</ele>
        <time>2025-09-28T09:57:56Z</time>
      </trkpt>
      <trkpt lat="45.67568" lon="2.99775">
        <ele>872.6</ele>
        <time>2025-09-28T09:57:57Z</time>
      </trkpt>
      <trkpt lat="45.67562" lon="2.99778">
        <ele>872.2</ele>
        <time>2025-09-28T09:57:58Z</time>
      </trkpt>
      <trkpt lat="45.67557" lon="2.99781">
        <ele>871.8</ele>
        <time>2025-09-28T09:57:59Z</time>
      </trkpt>
      <trkpt lat="45.67552" lon="2.99783">
        <ele>871.4</ele>
        <time>2025-09-28T09:58:00Z</time>
      </trkpt>
      <trkpt lat="45.67547" lon="2.99787">
        <ele>871.2</ele>
        <time>2025-09-28T09:58:01Z</time>
      </trkpt>
      <trkpt lat="45.67542" lon="2.99791">
        <ele>870.8</ele>
        <time>2025-09-28T09:58:02Z</time>
      </trkpt>
      <trkpt lat="45.67538" lon="2.99794">
        <ele>870.6</ele>
        <time>2025-09-28T09:58:03Z</time>
      </trkpt>
      <trkpt lat="45.67532" lon="2.99796">
        <ele>870</ele>
        <time>2025-09-28T09:58:04Z</time>
      </trkpt>
      <trkpt lat="45.67528" lon="2.99799">
        <ele>869.4</ele>
        <time>2025-09-28T09:58:05Z</time>
      </trkpt>
      <trkpt lat="45.67523" lon="2.99802">
        <ele>868.6</ele>
        <time>2025-09-28T09:58:06Z</time>
      </trkpt>
      <trkpt lat="45.67518" lon="2.99805">
        <ele>868</ele>
        <time>2025-09-28T09:58:07Z</time>
      </trkpt>
      <trkpt lat="45.67514" lon="2.99808">
        <ele>867.4</ele>
        <time>2025-09-28T09:58:08Z</time>
      </trkpt>
      <trkpt lat="45.6751" lon="2.99813">
        <ele>866.6</ele>
        <time>2025-09-28T09:58:09Z</time>
      </trkpt>
      <trkpt lat="45.67505" lon="2.9982">
        <ele>866</ele>
        <time>2025-09-28T09:58:10Z</time>
      </trkpt>
      <trkpt lat="45.67499" lon="2.99827">
        <ele>865.4</ele>
        <time>2025-09-28T09:58:11Z</time>
      </trkpt>
      <trkpt lat="45.67493" lon="2.99833">
        <ele>864.8</ele>
        <time>2025-09-28T09:58:12Z</time>
      </trkpt>
      <trkpt lat="45.67486" lon="2.99839">
        <ele>864.2</ele>
        <time>2025-09-28T09:58:13Z</time>
      </trkpt>
      <trkpt lat="45.67479" lon="2.99842">
        <ele>863.4</ele>
        <time>2025-09-28T09:58:14Z</time>
      </trkpt>
      <trkpt lat="45.67472" lon="2.99846">
        <ele>862.8</ele>
        <time>2025-09-28T09:58:15Z</time>
      </trkpt>
      <trkpt lat="45.67467" lon="2.9985">
        <ele>862.4</ele>
        <time>2025-09-28T09:58:16Z</time>
      </trkpt>
      <trkpt lat="45.67462" lon="2.99853">
        <ele>861.8</ele>
        <time>2025-09-28T09:58:17Z</time>
      </trkpt>
      <trkpt lat="45.67457" lon="2.99853">
        <ele>861.4</ele>
        <time>2025-09-28T09:58:18Z</time>
      </trkpt>
      <trkpt lat="45.67451" lon="2.99852">
        <ele>861</ele>
        <time>2025-09-28T09:58:19Z</time>
      </trkpt>
      <trkpt lat="45.67446" lon="2.9985">
        <ele>860.4</ele>
        <time>2025-09-28T09:58:20Z</time>
      </trkpt>
      <trkpt lat="45.67442" lon="2.99847">
        <ele>860</ele>
        <time>2025-09-28T09:58:21Z</time>
      </trkpt>
      <trkpt lat="45.6744" lon="2.99843">
        <ele>859.4</ele>
        <time>2025-09-28T09:58:22Z</time>
      </trkpt>
      <trkpt lat="45.67439" lon="2.99839">
        <ele>858.8</ele>
        <time>2025-09-28T09:58:23Z</time>
      </trkpt>
      <trkpt lat="45.67438" lon="2.99836">
        <ele>858.2</ele>
        <time>2025-09-28T09:58:24Z</time>
      </trkpt>
      <trkpt lat="45.67438" lon="2.99832">
        <ele>857.2</ele>
        <time>2025-09-28T09:58:25Z</time>
      </trkpt>
      <trkpt lat="45.67439" lon="2.99828">
        <ele>856.2</ele>
        <time>2025-09-28T09:58:26Z</time>
      </trkpt>
      <trkpt lat="45.6744" lon="2.99823">
        <ele>855.2</ele>
        <time>2025-09-28T09:58:27Z</time>
      </trkpt>
      <trkpt lat="45.67441" lon="2.99815">
        <ele>854.4</ele>
        <time>2025-09-28T09:58:28Z</time>
      </trkpt>
      <trkpt lat="45.6744" lon="2.99802">
        <ele>853.4</ele>
        <time>2025-09-28T09:58:29Z</time>
      </trkpt>
      <trkpt lat="45.67437" lon="2.99785">
        <ele>852.2</ele>
        <time>2025-09-28T09:58:30Z</time>
      </trkpt>
      <trkpt lat="45.67435" lon="2.99772">
        <ele>851.2</ele>
        <time>2025-09-28T09:58:31Z</time>
      </trkpt>
      <trkpt lat="45.67434" lon="2.99762">
        <ele>850.2</ele>
        <time>2025-09-28T09:58:32Z</time>
      </trkpt>
      <trkpt lat="45.67431" lon="2.99755">
        <ele>849.2</ele>
        <time>2025-09-28T09:58:33Z</time>
      </trkpt>
      <trkpt lat="45.67428" lon="2.9975">
        <ele>848.6</ele>
        <time>2025-09-28T09:58:34Z</time>
      </trkpt>
      <trkpt lat="45.67423" lon="2.99748">
        <ele>848.2</ele>
        <time>2025-09-28T09:58:35Z</time>
      </trkpt>
      <trkpt lat="45.67416" lon="2.99748">
        <ele>848.2</ele>
        <time>2025-09-28T09:58:36Z</time>
      </trkpt>
      <trkpt lat="45.67407" lon="2.99747">
        <ele>848.2</ele>
        <time>2025-09-28T09:58:37Z</time>
      </trkpt>
      <trkpt lat="45.674" lon="2.99745">
        <ele>848.2</ele>
        <time>2025-09-28T09:58:38Z</time>
      </trkpt>
      <trkpt lat="45.67395" lon="2.99743">
        <ele>848.2</ele>
        <time>2025-09-28T09:58:39Z</time>
      </trkpt>
      <trkpt lat="45.67392" lon="2.99741">
        <ele>848.2</ele>
        <time>2025-09-28T09:58:40Z</time>
      </trkpt>
      <trkpt lat="45.67392" lon="2.99738">
        <ele>848.2</ele>
        <time>2025-09-28T09:58:41Z</time>
      </trkpt>
      <trkpt lat="45.67394" lon="2.99736">
        <ele>848.4</ele>
        <time>2025-09-28T09:58:42Z</time>
      </trkpt>
      <trkpt lat="45.67396" lon="2.99733">
        <ele>848.4</ele>
        <time>2025-09-28T09:58:43Z</time>
      </trkpt>
      <trkpt lat="45.674" lon="2.99729">
        <ele>848.4</ele>
        <time>2025-09-28T09:58:44Z</time>
      </trkpt>
      <trkpt lat="45.67403" lon="2.99723">
        <ele>848.6</ele>
        <time>2025-09-28T09:58:45Z</time>
      </trkpt>
      <trkpt lat="45.67404" lon="2.99715">
        <ele>848.8</ele>
        <time>2025-09-28T09:58:46Z</time>
      </trkpt>
      <trkpt lat="45.67405" lon="2.99707">
        <ele>848.8</ele>
        <time>2025-09-28T09:58:47Z</time>
      </trkpt>
      <trkpt lat="45.67406" lon="2.99701">
        <ele>849</ele>
        <time>2025-09-28T09:58:48Z</time>
      </trkpt>
      <trkpt lat="45.67409" lon="2.99698">
        <ele>849.2</ele>
        <time>2025-09-28T09:58:49Z</time>
      </trkpt>
      <trkpt lat="45.6741" lon="2.99694">
        <ele>849.4</ele>
        <time>2025-09-28T09:58:50Z</time>
      </trkpt>
      <trkpt lat="45.67411" lon="2.99688">
        <ele>849.4</ele>
        <time>2025-09-28T09:58:51Z</time>
      </trkpt>
      <trkpt lat="45.67412" lon="2.99683">
        <ele>849.6</ele>
        <time>2025-09-28T09:58:52Z</time>
      </trkpt>
      <trkpt lat="45.67414" lon="2.99679">
        <ele>849.8</ele>
        <time>2025-09-28T09:58:53Z</time>
      </trkpt>
      <trkpt lat="45.67416" lon="2.99676">
        <ele>850</ele>
        <time>2025-09-28T09:58:54Z</time>
      </trkpt>
      <trkpt lat="45.67418" lon="2.99672">
        <ele>850.2</ele>
        <time>2025-09-28T09:58:55Z</time>
      </trkpt>
      <trkpt lat="45.67421" lon="2.9967">
        <ele>850.4</ele>
        <time>2025-09-28T09:58:56Z</time>
      </trkpt>
      <trkpt lat="45.67423" lon="2.99669">
        <ele>850.4</ele>
        <time>2025-09-28T09:58:57Z</time>
      </trkpt>
      <trkpt lat="45.67425" lon="2.99667">
        <ele>850.6</ele>
        <time>2025-09-28T09:58:58Z</time>
      </trkpt>
      <trkpt lat="45.67429" lon="2.99664">
        <ele>850.8</ele>
        <time>2025-09-28T09:58:59Z</time>
      </trkpt>
      <trkpt lat="45.67432" lon="2.99658">
        <ele>851</ele>
        <time>2025-09-28T09:59:00Z</time>
      </trkpt>
      <trkpt lat="45.67433" lon="2.99651">
        <ele>851.2</ele>
        <time>2025-09-28T09:59:01Z</time>
      </trkpt>
      <trkpt lat="45.67434" lon="2.99647">
        <ele>851.4</ele>
        <time>2025-09-28T09:59:02Z</time>
      </trkpt>
      <trkpt lat="45.67436" lon="2.99644">
        <ele>851.6</ele>
        <time>2025-09-28T09:59:03Z</time>
      </trkpt>
      <trkpt lat="45.67438" lon="2.99641">
        <ele>851.8</ele>
        <time>2025-09-28T09:59:04Z</time>
      </trkpt>
      <trkpt lat="45.6744" lon="2.9964">
        <ele>851.8</ele>
        <time>2025-09-28T09:59:05Z</time>
      </trkpt>
      <trkpt lat="45.67443" lon="2.99638">
        <ele>852</ele>
        <time>2025-09-28T09:59:06Z</time>
      </trkpt>
      <trkpt lat="45.67445" lon="2.99636">
        <ele>852.2</ele>
        <time>2025-09-28T09:59:07Z</time>
      </trkpt>
      <trkpt lat="45.67447" lon="2.99633">
        <ele>852.4</ele>
        <time>2025-09-28T09:59:08Z</time>
      </trkpt>
      <trkpt lat="45.67448" lon="2.9963">
        <ele>852.6</ele>
        <time>2025-09-28T09:59:09Z</time>
      </trkpt>
      <trkpt lat="45.6745" lon="2.99628">
        <ele>852.8</ele>
        <time>2025-09-28T09:59:10Z</time>
      </trkpt>
      <trkpt lat="45.67451" lon="2.99625">
        <ele>853</ele>
        <time>2025-09-28T09:59:11Z</time>
      </trkpt>
      <trkpt lat="45.67453" lon="2.99624">
        <ele>853.2</ele>
        <time>2025-09-28T09:59:12Z</time>
      </trkpt>
      <trkpt lat="45.67454" lon="2.99622">
        <ele>853.4</ele>
        <time>2025-09-28T09:59:13Z</time>
      </trkpt>
      <trkpt lat="45.67456" lon="2.9962">
        <ele>853.6</ele>
        <time>2025-09-28T09:59:14Z</time>
      </trkpt>
      <trkpt lat="45.67457" lon="2.99618">
        <ele>854</ele>
        <time>2025-09-28T09:59:15Z</time>
      </trkpt>
      <trkpt lat="45.67459" lon="2.99615">
        <ele>854.2</ele>
        <time>2025-09-28T09:59:16Z</time>
      </trkpt>
      <trkpt lat="45.6746" lon="2.99613">
        <ele>854.4</ele>
        <time>2025-09-28T09:59:17Z</time>
      </trkpt>
      <trkpt lat="45.67461" lon="2.99612">
        <ele>854.6</ele>
        <time>2025-09-28T09:59:18Z</time>
      </trkpt>
      <trkpt lat="45.67463" lon="2.9961">
        <ele>854.8</ele>
        <time>2025-09-28T09:59:19Z</time>
      </trkpt>
      <trkpt lat="45.67465" lon="2.99609">
        <ele>855</ele>
        <time>2025-09-28T09:59:20Z</time>
      </trkpt>
      <trkpt lat="45.67467" lon="2.99607">
        <ele>855.2</ele>
        <time>2025-09-28T09:59:21Z</time>
      </trkpt>
      <trkpt lat="45.67469" lon="2.99604">
        <ele>855.4</ele>
        <time>2025-09-28T09:59:22Z</time>
      </trkpt>
      <trkpt lat="45.67471" lon="2.99601">
        <ele>855.6</ele>
        <time>2025-09-28T09:59:23Z</time>
      </trkpt>
      <trkpt lat="45.67473" lon="2.99598">
        <ele>856</ele>
        <time>2025-09-28T09:59:24Z</time>
      </trkpt>
      <trkpt lat="45.67475" lon="2.99595">
        <ele>856.2</ele>
        <time>2025-09-28T09:59:25Z</time>
      </trkpt>
      <trkpt lat="45.67477" lon="2.99592">
        <ele>856.4</ele>
        <time>2025-09-28T09:59:26Z</time>
      </trkpt>
      <trkpt lat="45.67479" lon="2.99589">
        <ele>856.6</ele>
        <time>2025-09-28T09:59:27Z</time>
      </trkpt>
      <trkpt lat="45.67481" lon="2.99586">
        <ele>856.8</ele>
        <time>2025-09-28T09:59:28Z</time>
      </trkpt>
      <trkpt lat="45.67483" lon="2.99583">
        <ele>857</ele>
        <time>2025-09-28T09:59:29Z</time>
      </trkpt>
      <trkpt lat="45.67485" lon="2.99581">
        <ele>857.2</ele>
        <time>2025-09-28T09:59:30Z</time>
      </trkpt>
      <trkpt lat="45.67487" lon="2.99578">
        <ele>857.6</ele>
        <time>2025-09-28T09:59:31Z</time>
      </trkpt>
      <trkpt lat="45.6749" lon="2.99575">
        <ele>857.8</ele>
        <time>2025-09-28T09:59:32Z</time>
      </trkpt>
      <trkpt lat="45.67492" lon="2.99572">
        <ele>858</ele>
        <time>2025-09-28T09:59:33Z</time>
      </trkpt>
      <trkpt lat="45.67495" lon="2.99569">
        <ele>858.2</ele>
        <time>2025-09-28T09:59:34Z</time>
      </trkpt>
      <trkpt lat="45.67497" lon="2.99568">
        <ele>858.4</ele>
        <time>2025-09-28T09:59:35Z</time>
      </trkpt>
      <trkpt lat="45.67498" lon="2.99566">
        <ele>858.8</ele>
        <time>2025-09-28T09:59:36Z</time>
      </trkpt>
      <trkpt lat="45.675" lon="2.99565">
        <ele>859</ele>
        <time>2025-09-28T09:59:37Z</time>
      </trkpt>
      <trkpt lat="45.67501" lon="2.99563">
        <ele>859.2</ele>
        <time>2025-09-28T09:59:38Z</time>
      </trkpt>
      <trkpt lat="45.67503" lon="2.99562">
        <ele>859.4</ele>
        <time>2025-09-28T09:59:39Z</time>
      </trkpt>
      <trkpt lat="45.67504" lon="2.99561">
        <ele>859.6</ele>
        <time>2025-09-28T09:59:40Z</time>
      </trkpt>
      <trkpt lat="45.67505" lon="2.99561">
        <ele>860</ele>
        <time>2025-09-28T09:59:41Z</time>
      </trkpt>
      <trkpt lat="45.67507" lon="2.9956">
        <ele>860</ele>
        <time>2025-09-28T09:59:42Z</time>
      </trkpt>
      <trkpt lat="45.67509" lon="2.9956">
        <ele>860.4</ele>
        <time>2025-09-28T09:59:43Z</time>
      </trkpt>
      <trkpt lat="45.67512" lon="2.99559">
        <ele>860.6</ele>
        <time>2025-09-28T09:59:44Z</time>
      </trkpt>
      <trkpt lat="45.67515" lon="2.99557">
        <ele>860.8</ele>
        <time>2025-09-28T09:59:45Z</time>
      </trkpt>
      <trkpt lat="45.67518" lon="2.99556">
        <ele>861</ele>
        <time>2025-09-28T09:59:46Z</time>
      </trkpt>
      <trkpt lat="45.67521" lon="2.99554">
        <ele>861.2</ele>
        <time>2025-09-28T09:59:47Z</time>
      </trkpt>
      <trkpt lat="45.67525" lon="2.99551">
        <ele>861.2</ele>
        <time>2025-09-28T09:59:48Z</time>
      </trkpt>
      <trkpt lat="45.6753" lon="2.99548">
        <ele>861.4</ele>
        <time>2025-09-28T09:59:49Z</time>
      </trkpt>
      <trkpt lat="45.67533" lon="2.99546">
        <ele>861.8</ele>
        <time>2025-09-28T09:59:50Z</time>
      </trkpt>
      <trkpt lat="45.67535" lon="2.99544">
        <ele>861.8</ele>
        <time>2025-09-28T09:59:51Z</time>
      </trkpt>
      <trkpt lat="45.67539" lon="2.99541">
        <ele>862</ele>
        <time>2025-09-28T09:59:52Z</time>
      </trkpt>
      <trkpt lat="45.67542" lon="2.99538">
        <ele>862.2</ele>
        <time>2025-09-28T09:59:53Z</time>
      </trkpt>
      <trkpt lat="45.67544" lon="2.99538">
        <ele>862.4</ele>
        <time>2025-09-28T09:59:54Z</time>
      </trkpt>
      <trkpt lat="45.67546" lon="2.99539">
        <ele>862.6</ele>
        <time>2025-09-28T09:59:55Z</time>
      </trkpt>
      <trkpt lat="45.67548" lon="2.99539">
        <ele>862.8</ele>
        <time>2025-09-28T09:59:56Z</time>
      </trkpt>
      <trkpt lat="45.67551" lon="2.99537">
        <ele>862.8</ele>
        <time>2025-09-28T09:59:57Z</time>
      </trkpt>
      <trkpt lat="45.67555" lon="2.99533">
        <ele>863</ele>
        <time>2025-09-28T09:59:58Z</time>
      </trkpt>
      <trkpt lat="45.67558" lon="2.99529">
        <ele>863</ele>
        <time>2025-09-28T09:59:59Z</time>
      </trkpt>
      <trkpt lat="45.6756" lon="2.99526">
        <ele>863.2</ele>
        <time>2025-09-28T10:00:00Z</time>
      </trkpt>
      <trkpt lat="45.67562" lon="2.99525">
        <ele>863.4</ele>
        <time>2025-09-28T10:00:01Z</time>
      </trkpt>
      <trkpt lat="45.67565" lon="2.99523">
        <ele>863.4</ele>
        <time>2025-09-28T10:00:02Z</time>
      </trkpt>
      <trkpt lat="45.67567" lon="2.99522">
        <ele>863.6</ele>
        <time>2025-09-28T10:00:03Z</time>
      </trkpt>
      <trkpt lat="45.6757" lon="2.9952">
        <ele>863.6</ele>
        <time>2025-09-28T10:00:04Z</time>
      </trkpt>
      <trkpt lat="45.67573" lon="2.99518">
        <ele>863.6</ele>
        <time>2025-09-28T10:00:05Z</time>
      </trkpt>
      <trkpt lat="45.67575" lon="2.99516">
        <ele>863.8</ele>
        <time>2025-09-28T10:00:06Z</time>
      </trkpt>
      <trkpt lat="45.67577" lon="2.99514">
        <ele>863.8</ele>
        <time>2025-09-28T10:00:07Z</time>
      </trkpt>
      <trkpt lat="45.6758" lon="2.99514">
        <ele>864</ele>
        <time>2025-09-28T10:00:08Z</time>
      </trkpt>
      <trkpt lat="45.67582" lon="2.99515">
        <ele>864</ele>
        <time>2025-09-28T10:00:09Z</time>
      </trkpt>
      <trkpt lat="45.67585" lon="2.99514">
        <ele>864</ele>
        <time>2025-09-28T10:00:10Z</time>
      </trkpt>
      <trkpt lat="45.67589" lon="2.99513">
        <ele>864</ele>
        <time>2025-09-28T10:00:11Z</time>
      </trkpt>
      <trkpt lat="45.67592" lon="2.99513">
        <ele>864.2</ele>
        <time>2025-09-28T10:00:12Z</time>
      </trkpt>
      <trkpt lat="45.67595" lon="2.99512">
        <ele>864.2</ele>
        <time>2025-09-28T10:00:13Z</time>
      </trkpt>
      <trkpt lat="45.67598" lon="2.99511">
        <ele>864.2</ele>
        <time>2025-09-28T10:00:14Z</time>
      </trkpt>
      <trkpt lat="45.67599" lon="2.99509">
        <ele>864.2</ele>
        <time>2025-09-28T10:00:15Z</time>
      </trkpt>
      <trkpt lat="45.67602" lon="2.99506">
        <ele>864.2</ele>
        <time>2025-09-28T10:00:16Z</time>
      </trkpt>
      <trkpt lat="45.67605" lon="2.99504">
        <ele>864.2</ele>
        <time>2025-09-28T10:00:17Z</time>
      </trkpt>
      <trkpt lat="45.67608" lon="2.99504">
        <ele>864.2</ele>
        <time>2025-09-28T10:00:18Z</time>
      </trkpt>
      <trkpt lat="45.67612" lon="2.99504">
        <ele>864.2</ele>
        <time>2025-09-28T10:00:19Z</time>
      </trkpt>
      <trkpt lat="45.67616" lon="2.99505">
        <ele>864.4</ele>
        <time>2025-09-28T10:00:20Z</time>
      </trkpt>
      <trkpt lat="45.6762" lon="2.99506">
        <ele>864.4</ele>
        <time>2025-09-28T10:00:21Z</time>
      </trkpt>
      <trkpt lat="45.67623" lon="2.99506">
        <ele>864.6</ele>
        <time>2025-09-28T10:00:22Z</time>
      </trkpt>
      <trkpt lat="45.67626" lon="2.99506">
        <ele>864.6</ele>
        <time>2025-09-28T10:00:23Z</time>
      </trkpt>
      <trkpt lat="45.67628" lon="2.99505">
        <ele>864.8</ele>
        <time>2025-09-28T10:00:24Z</time>
      </trkpt>
      <trkpt lat="45.67632" lon="2.99506">
        <ele>864.8</ele>
        <time>2025-09-28T10:00:25Z</time>
      </trkpt>
      <trkpt lat="45.67635" lon="2.99507">
        <ele>865</ele>
        <time>2025-09-28T10:00:26Z</time>
      </trkpt>
      <trkpt lat="45.67638" lon="2.99508">
        <ele>865</ele>
        <time>2025-09-28T10:00:27Z</time>
      </trkpt>
      <trkpt lat="45.6764" lon="2.99509">
        <ele>865.2</ele>
        <time>2025-09-28T10:00:28Z</time>
      </trkpt>
      <trkpt lat="45.67641" lon="2.99509">
        <ele>865.2</ele>
        <time>2025-09-28T10:00:29Z</time>
      </trkpt>
      <trkpt lat="45.67642" lon="2.99508">
        <ele>865.4</ele>
        <time>2025-09-28T10:00:30Z</time>
      </trkpt>
      <trkpt lat="45.67643" lon="2.99507">
        <ele>865.4</ele>
        <time>2025-09-28T10:00:31Z</time>
      </trkpt>
      <trkpt lat="45.67644" lon="2.99505">
        <ele>865.6</ele>
        <time>2025-09-28T10:00:32Z</time>
      </trkpt>
      <trkpt lat="45.67646" lon="2.99503">
        <ele>865.6</ele>
        <time>2025-09-28T10:00:33Z</time>
      </trkpt>
      <trkpt lat="45.67648" lon="2.995">
        <ele>865.8</ele>
        <time>2025-09-28T10:00:34Z</time>
      </trkpt>
      <trkpt lat="45.67649" lon="2.99498">
        <ele>865.8</ele>
        <time>2025-09-28T10:00:35Z</time>
      </trkpt>
      <trkpt lat="45.67649" lon="2.99495">
        <ele>865.6</ele>
        <time>2025-09-28T10:00:36Z</time>
      </trkpt>
      <trkpt lat="45.67647" lon="2.99492">
        <ele>865.8</ele>
        <time>2025-09-28T10:00:37Z</time>
      </trkpt>
      <trkpt lat="45.67645" lon="2.99491">
        <ele>865.8</ele>
        <time>2025-09-28T10:00:38Z</time>
      </trkpt>
      <trkpt lat="45.67644" lon="2.9949">
        <ele>865.8</ele>
        <time>2025-09-28T10:00:39Z</time>
      </trkpt>
      <trkpt lat="45.67642" lon="2.99488">
        <ele>866</ele>
        <time>2025-09-28T10:00:40Z</time>
      </trkpt>
      <trkpt lat="45.67642" lon="2.99485">
        <ele>866</ele>
        <time>2025-09-28T10:00:41Z</time>
      </trkpt>
      <trkpt lat="45.67641" lon="2.99482">
        <ele>866.2</ele>
        <time>2025-09-28T10:00:42Z</time>
      </trkpt>
      <trkpt lat="45.6764" lon="2.99479">
        <ele>866.2</ele>
        <time>2025-09-28T10:00:43Z</time>
      </trkpt>
      <trkpt lat="45.67638" lon="2.99476">
        <ele>866.2</ele>
        <time>2025-09-28T10:00:44Z</time>
      </trkpt>
      <trkpt lat="45.67637" lon="2.99473">
        <ele>866.2</ele>
        <time>2025-09-28T10:00:45Z</time>
      </trkpt>
      <trkpt lat="45.67636" lon="2.9947">
        <ele>866.2</ele>
        <time>2025-09-28T10:00:46Z</time>
      </trkpt>
      <trkpt lat="45.67634" lon="2.99467">
        <ele>866</ele>
        <time>2025-09-28T10:00:47Z</time>
      </trkpt>
      <trkpt lat="45.67631" lon="2.99463">
        <ele>866</ele>
        <time>2025-09-28T10:00:48Z</time>
      </trkpt>
      <trkpt lat="45.67629" lon="2.99457">
        <ele>865.8</ele>
        <time>2025-09-28T10:00:49Z</time>
      </trkpt>
      <trkpt lat="45.67626" lon="2.99451">
        <ele>865.6</ele>
        <time>2025-09-28T10:00:50Z</time>
      </trkpt>
      <trkpt lat="45.67623" lon="2.99445">
        <ele>865.4</ele>
        <time>2025-09-28T10:00:51Z</time>
      </trkpt>
      <trkpt lat="45.67621" lon="2.9944">
        <ele>865.4</ele>
        <time>2025-09-28T10:00:52Z</time>
      </trkpt>
      <trkpt lat="45.67617" lon="2.99434">
        <ele>865.2</ele>
        <time>2025-09-28T10:00:53Z</time>
      </trkpt>
      <trkpt lat="45.67614" lon="2.99428">
        <ele>865</ele>
        <time>2025-09-28T10:00:54Z</time>
      </trkpt>
      <trkpt lat="45.6761" lon="2.9942">
        <ele>865</ele>
        <time>2025-09-28T10:00:55Z</time>
      </trkpt>
      <trkpt lat="45.67606" lon="2.99411">
        <ele>864.8</ele>
        <time>2025-09-28T10:00:56Z</time>
      </trkpt>
      <trkpt lat="45.67604" lon="2.99404">
        <ele>864.6</ele>
        <time>2025-09-28T10:00:57Z</time>
      </trkpt>
      <trkpt lat="45.67601" lon="2.99398">
        <ele>864.6</ele>
        <time>2025-09-28T10:00:58Z</time>
      </trkpt>
      <trkpt lat="45.67598" lon="2.99391">
        <ele>864.4</ele>
        <time>2025-09-28T10:00:59Z</time>
      </trkpt>
      <trkpt lat="45.67593" lon="2.9938">
        <ele>864.4</ele>
        <time>2025-09-28T10:01:00Z</time>
      </trkpt>
      <trkpt lat="45.67587" lon="2.9937">
        <ele>864.4</ele>
        <time>2025-09-28T10:01:01Z</time>
      </trkpt>
      <trkpt lat="45.67582" lon="2.99363">
        <ele>864.4</ele>
        <time>2025-09-28T10:01:02Z</time>
      </trkpt>
      <trkpt lat="45.67578" lon="2.99357">
        <ele>864.4</ele>
        <time>2025-09-28T10:01:03Z</time>
      </trkpt>
      <trkpt lat="45.67573" lon="2.99351">
        <ele>864.4</ele>
        <time>2025-09-28T10:01:04Z</time>
      </trkpt>
      <trkpt lat="45.67568" lon="2.99346">
        <ele>864.6</ele>
        <time>2025-09-28T10:01:05Z</time>
      </trkpt>
      <trkpt lat="45.67564" lon="2.99341">
        <ele>864.6</ele>
        <time>2025-09-28T10:01:06Z</time>
      </trkpt>
      <trkpt lat="45.67559" lon="2.99338">
        <ele>864.8</ele>
        <time>2025-09-28T10:01:07Z</time>
      </trkpt>
      <trkpt lat="45.67554" lon="2.99334">
        <ele>865</ele>
        <time>2025-09-28T10:01:08Z</time>
      </trkpt>
      <trkpt lat="45.67551" lon="2.99329">
        <ele>865</ele>
        <time>2025-09-28T10:01:09Z</time>
      </trkpt>
      <trkpt lat="45.67548" lon="2.99323">
        <ele>865.2</ele>
        <time>2025-09-28T10:01:10Z</time>
      </trkpt>
      <trkpt lat="45.67545" lon="2.99317">
        <ele>865.6</ele>
        <time>2025-09-28T10:01:11Z</time>
      </trkpt>
      <trkpt lat="45.67544" lon="2.99312">
        <ele>865.8</ele>
        <time>2025-09-28T10:01:12Z</time>
      </trkpt>
      <trkpt lat="45.67545" lon="2.99309">
        <ele>866.2</ele>
        <time>2025-09-28T10:01:13Z</time>
      </trkpt>
      <trkpt lat="45.67545" lon="2.99307">
        <ele>866.6</ele>
        <time>2025-09-28T10:01:14Z</time>
      </trkpt>
      <trkpt lat="45.67547" lon="2.99305">
        <ele>867</ele>
        <time>2025-09-28T10:01:15Z</time>
      </trkpt>
      <trkpt lat="45.67549" lon="2.99303">
        <ele>867.4</ele>
        <time>2025-09-28T10:01:16Z</time>
      </trkpt>
      <trkpt lat="45.67549" lon="2.993">
        <ele>867.8</ele>
        <time>2025-09-28T10:01:17Z</time>
      </trkpt>
      <trkpt lat="45.67548" lon="2.99294">
        <ele>868.2</ele>
        <time>2025-09-28T10:01:18Z</time>
      </trkpt>
      <trkpt lat="45.67547" lon="2.99289">
        <ele>868.4</ele>
        <time>2025-09-28T10:01:19Z</time>
      </trkpt>
      <trkpt lat="45.67546" lon="2.99285">
        <ele>868.6</ele>
        <time>2025-09-28T10:01:20Z</time>
      </trkpt>
      <trkpt lat="45.67545" lon="2.99282">
        <ele>868.8</ele>
        <time>2025-09-28T10:01:21Z</time>
      </trkpt>
      <trkpt lat="45.67545" lon="2.99279">
        <ele>868.8</ele>
        <time>2025-09-28T10:01:22Z</time>
      </trkpt>
      <trkpt lat="45.67545" lon="2.99275">
        <ele>869</ele>
        <time>2025-09-28T10:01:23Z</time>
      </trkpt>
      <trkpt lat="45.67546" lon="2.99271">
        <ele>869</ele>
        <time>2025-09-28T10:01:24Z</time>
      </trkpt>
      <trkpt lat="45.67548" lon="2.99267">
        <ele>868.8</ele>
        <time>2025-09-28T10:01:25Z</time>
      </trkpt>
      <trkpt lat="45.67548" lon="2.99263">
        <ele>868.6</ele>
        <time>2025-09-28T10:01:26Z</time>
      </trkpt>
      <trkpt lat="45.67548" lon="2.99258">
        <ele>868.6</ele>
        <time>2025-09-28T10:01:27Z</time>
      </trkpt>
      <trkpt lat="45.67548" lon="2.99252">
        <ele>868.4</ele>
        <time>2025-09-28T10:01:28Z</time>
      </trkpt>
      <trkpt lat="45.67547" lon="2.99247">
        <ele>868.2</ele>
        <time>2025-09-28T10:01:29Z</time>
      </trkpt>
      <trkpt lat="45.67546" lon="2.99241">
        <ele>868.2</ele>
        <time>2025-09-28T10:01:30Z</time>
      </trkpt>
      <trkpt lat="45.67546" lon="2.99235">
        <ele>868.2</ele>
        <time>2025-09-28T10:01:31Z</time>
      </trkpt>
      <trkpt lat="45.67545" lon="2.99227">
        <ele>868.2</ele>
        <time>2025-09-28T10:01:32Z</time>
      </trkpt>
      <trkpt lat="45.67545" lon="2.9922">
        <ele>868</ele>
        <time>2025-09-28T10:01:33Z</time>
      </trkpt>
      <trkpt lat="45.67546" lon="2.99215">
        <ele>867.8</ele>
        <time>2025-09-28T10:01:34Z</time>
      </trkpt>
      <trkpt lat="45.67546" lon="2.9921">
        <ele>867.6</ele>
        <time>2025-09-28T10:01:35Z</time>
      </trkpt>
      <trkpt lat="45.67544" lon="2.99205">
        <ele>867.2</ele>
        <time>2025-09-28T10:01:36Z</time>
      </trkpt>
      <trkpt lat="45.67542" lon="2.99199">
        <ele>866.8</ele>
        <time>2025-09-28T10:01:37Z</time>
      </trkpt>
      <trkpt lat="45.6754" lon="2.99194">
        <ele>866.2</ele>
        <time>2025-09-28T10:01:38Z</time>
      </trkpt>
      <trkpt lat="45.67537" lon="2.9919">
        <ele>865.6</ele>
        <time>2025-09-28T10:01:39Z</time>
      </trkpt>
      <trkpt lat="45.67533" lon="2.99185">
        <ele>865</ele>
        <time>2025-09-28T10:01:40Z</time>
      </trkpt>
      <trkpt lat="45.67527" lon="2.99179">
        <ele>864.2</ele>
        <time>2025-09-28T10:01:41Z</time>
      </trkpt>
      <trkpt lat="45.67523" lon="2.99173">
        <ele>863.6</ele>
        <time>2025-09-28T10:01:42Z</time>
      </trkpt>
      <trkpt lat="45.6752" lon="2.99167">
        <ele>863.2</ele>
        <time>2025-09-28T10:01:43Z</time>
      </trkpt>
      <trkpt lat="45.67519" lon="2.99163">
        <ele>862.8</ele>
        <time>2025-09-28T10:01:44Z</time>
      </trkpt>
      <trkpt lat="45.6752" lon="2.99159">
        <ele>862.4</ele>
        <time>2025-09-28T10:01:45Z</time>
      </trkpt>
      <trkpt lat="45.67522" lon="2.99157">
        <ele>862.4</ele>
        <time>2025-09-28T10:01:46Z</time>
      </trkpt>
      <trkpt lat="45.67524" lon="2.99155">
        <ele>862.4</ele>
        <time>2025-09-28T10:01:47Z</time>
      </trkpt>
      <trkpt lat="45.67526" lon="2.99153">
        <ele>862.4</ele>
        <time>2025-09-28T10:01:48Z</time>
      </trkpt>
      <trkpt lat="45.67528" lon="2.99151">
        <ele>862.4</ele>
        <time>2025-09-28T10:01:49Z</time>
      </trkpt>
      <trkpt lat="45.67529" lon="2.99148">
        <ele>862.6</ele>
        <time>2025-09-28T10:01:50Z</time>
      </trkpt>
      <trkpt lat="45.6753" lon="2.99143">
        <ele>862.8</ele>
        <time>2025-09-28T10:01:51Z</time>
      </trkpt>
      <trkpt lat="45.67531" lon="2.99135">
        <ele>863</ele>
        <time>2025-09-28T10:01:52Z</time>
      </trkpt>
      <trkpt lat="45.67532" lon="2.99127">
        <ele>863</ele>
        <time>2025-09-28T10:01:53Z</time>
      </trkpt>
      <trkpt lat="45.67533" lon="2.99121">
        <ele>863.2</ele>
        <time>2025-09-28T10:01:54Z</time>
      </trkpt>
      <trkpt lat="45.67535" lon="2.99115">
        <ele>863.6</ele>
        <time>2025-09-28T10:01:55Z</time>
      </trkpt>
      <trkpt lat="45.67535" lon="2.99109">
        <ele>863.8</ele>
        <time>2025-09-28T10:01:56Z</time>
      </trkpt>
      <trkpt lat="45.67536" lon="2.99104">
        <ele>864</ele>
        <time>2025-09-28T10:01:57Z</time>
      </trkpt>
      <trkpt lat="45.67536" lon="2.99099">
        <ele>864.2</ele>
        <time>2025-09-28T10:01:58Z</time>
      </trkpt>
      <trkpt lat="45.67536" lon="2.99094">
        <ele>864.4</ele>
        <time>2025-09-28T10:01:59Z</time>
      </trkpt>
      <trkpt lat="45.67535" lon="2.9909">
        <ele>864.6</ele>
        <time>2025-09-28T10:02:00Z</time>
      </trkpt>
      <trkpt lat="45.67535" lon="2.99086">
        <ele>864.8</ele>
        <time>2025-09-28T10:02:01Z</time>
      </trkpt>
      <trkpt lat="45.67534" lon="2.99082">
        <ele>865</ele>
        <time>2025-09-28T10:02:02Z</time>
      </trkpt>
      <trkpt lat="45.67533" lon="2.99079">
        <ele>865</ele>
        <time>2025-09-28T10:02:03Z</time>
      </trkpt>
      <trkpt lat="45.67533" lon="2.99075">
        <ele>865.2</ele>
        <time>2025-09-28T10:02:04Z</time>
      </trkpt>
      <trkpt lat="45.67533" lon="2.9907">
        <ele>865.2</ele>
        <time>2025-09-28T10:02:05Z</time>
      </trkpt>
      <trkpt lat="45.67533" lon="2.99062">
        <ele>865.4</ele>
        <time>2025-09-28T10:02:06Z</time>
      </trkpt>
      <trkpt lat="45.67533" lon="2.99054">
        <ele>865.4</ele>
        <time>2025-09-28T10:02:07Z</time>
      </trkpt>
      <trkpt lat="45.67534" lon="2.99045">
        <ele>865.6</ele>
        <time>2025-09-28T10:02:08Z</time>
      </trkpt>
      <trkpt lat="45.67534" lon="2.99037">
        <ele>865.6</ele>
        <time>2025-09-28T10:02:09Z</time>
      </trkpt>
      <trkpt lat="45.67533" lon="2.99028">
        <ele>865.6</ele>
        <time>2025-09-28T10:02:10Z</time>
      </trkpt>
      <trkpt lat="45.67532" lon="2.99021">
        <ele>865.8</ele>
        <time>2025-09-28T10:02:11Z</time>
      </trkpt>
      <trkpt lat="45.6753" lon="2.99016">
        <ele>865.8</ele>
        <time>2025-09-28T10:02:12Z</time>
      </trkpt>
      <trkpt lat="45.6753" lon="2.99013">
        <ele>866</ele>
        <time>2025-09-28T10:02:13Z</time>
      </trkpt>
      <trkpt lat="45.6753" lon="2.99009">
        <ele>866</ele>
        <time>2025-09-28T10:02:14Z</time>
      </trkpt>
      <trkpt lat="45.67531" lon="2.99004">
        <ele>866.2</ele>
        <time>2025-09-28T10:02:15Z</time>
      </trkpt>
      <trkpt lat="45.67532" lon="2.99">
        <ele>866.2</ele>
        <time>2025-09-28T10:02:16Z</time>
      </trkpt>
      <trkpt lat="45.67534" lon="2.98995">
        <ele>866.4</ele>
        <time>2025-09-28T10:02:17Z</time>
      </trkpt>
      <trkpt lat="45.67535" lon="2.98989">
        <ele>866.4</ele>
        <time>2025-09-28T10:02:18Z</time>
      </trkpt>
      <trkpt lat="45.67536" lon="2.98982">
        <ele>866.4</ele>
        <time>2025-09-28T10:02:19Z</time>
      </trkpt>
      <trkpt lat="45.67538" lon="2.98975">
        <ele>866.6</ele>
        <time>2025-09-28T10:02:20Z</time>
      </trkpt>
      <trkpt lat="45.6754" lon="2.98969">
        <ele>866.6</ele>
        <time>2025-09-28T10:02:21Z</time>
      </trkpt>
      <trkpt lat="45.67541" lon="2.98964">
        <ele>866.8</ele>
        <time>2025-09-28T10:02:22Z</time>
      </trkpt>
      <trkpt lat="45.67543" lon="2.98961">
        <ele>866.8</ele>
        <time>2025-09-28T10:02:23Z</time>
      </trkpt>
      <trkpt lat="45.67546" lon="2.98958">
        <ele>866.8</ele>
        <time>2025-09-28T10:02:24Z</time>
      </trkpt>
      <trkpt lat="45.67549" lon="2.98953">
        <ele>866.8</ele>
        <time>2025-09-28T10:02:25Z</time>
      </trkpt>
      <trkpt lat="45.67552" lon="2.98949">
        <ele>866.8</ele>
        <time>2025-09-28T10:02:26Z</time>
      </trkpt>
      <trkpt lat="45.67556" lon="2.98943">
        <ele>866.8</ele>
        <time>2025-09-28T10:02:27Z</time>
      </trkpt>
      <trkpt lat="45.6756" lon="2.98935">
        <ele>866.6</ele>
        <time>2025-09-28T10:02:28Z</time>
      </trkpt>
      <trkpt lat="45.67562" lon="2.98928">
        <ele>866.6</ele>
        <time>2025-09-28T10:02:29Z</time>
      </trkpt>
      <trkpt lat="45.67565" lon="2.9892">
        <ele>866.4</ele>
        <time>2025-09-28T10:02:30Z</time>
      </trkpt>
      <trkpt lat="45.67567" lon="2.98915">
        <ele>866.2</ele>
        <time>2025-09-28T10:02:31Z</time>
      </trkpt>
      <trkpt lat="45.6757" lon="2.9891">
        <ele>866.2</ele>
        <time>2025-09-28T10:02:32Z</time>
      </trkpt>
      <trkpt lat="45.67573" lon="2.98906">
        <ele>866</ele>
        <time>2025-09-28T10:02:33Z</time>
      </trkpt>
      <trkpt lat="45.67576" lon="2.98901">
        <ele>866</ele>
        <time>2025-09-28T10:02:34Z</time>
      </trkpt>
      <trkpt lat="45.67579" lon="2.98895">
        <ele>866</ele>
        <time>2025-09-28T10:02:35Z</time>
      </trkpt>
      <trkpt lat="45.67581" lon="2.9889">
        <ele>866.2</ele>
        <time>2025-09-28T10:02:36Z</time>
      </trkpt>
      <trkpt lat="45.67582" lon="2.98885">
        <ele>866.2</ele>
        <time>2025-09-28T10:02:37Z</time>
      </trkpt>
      <trkpt lat="45.67584" lon="2.9888">
        <ele>866.2</ele>
        <time>2025-09-28T10:02:38Z</time>
      </trkpt>
      <trkpt lat="45.67587" lon="2.98875">
        <ele>866.2</ele>
        <time>2025-09-28T10:02:39Z</time>
      </trkpt>
      <trkpt lat="45.6759" lon="2.9887">
        <ele>866.4</ele>
        <time>2025-09-28T10:02:40Z</time>
      </trkpt>
      <trkpt lat="45.67595" lon="2.98864">
        <ele>866.4</ele>
        <time>2025-09-28T10:02:41Z</time>
      </trkpt>
      <trkpt lat="45.676" lon="2.98857">
        <ele>866.6</ele>
        <time>2025-09-28T10:02:42Z</time>
      </trkpt>
      <trkpt lat="45.67604" lon="2.98851">
        <ele>866.8</ele>
        <time>2025-09-28T10:02:43Z</time>
      </trkpt>
      <trkpt lat="45.67607" lon="2.98847">
        <ele>867</ele>
        <time>2025-09-28T10:02:44Z</time>
      </trkpt>
      <trkpt lat="45.6761" lon="2.98843">
        <ele>867.2</ele>
        <time>2025-09-28T10:02:45Z</time>
      </trkpt>
      <trkpt lat="45.67611" lon="2.98841">
        <ele>867.6</ele>
        <time>2025-09-28T10:02:46Z</time>
      </trkpt>
      <trkpt lat="45.67612" lon="2.9884">
        <ele>867.8</ele>
        <time>2025-09-28T10:02:47Z</time>
      </trkpt>
      <trkpt lat="45.67614" lon="2.98841">
        <ele>868.2</ele>
        <time>2025-09-28T10:02:48Z</time>
      </trkpt>
      <trkpt lat="45.67616" lon="2.98843">
        <ele>868.6</ele>
        <time>2025-09-28T10:02:49Z</time>
      </trkpt>
      <trkpt lat="45.67616" lon="2.98845">
        <ele>868.8</ele>
        <time>2025-09-28T10:02:50Z</time>
      </trkpt>
      <trkpt lat="45.67617" lon="2.98846">
        <ele>869</ele>
        <time>2025-09-28T10:02:51Z</time>
      </trkpt>
      <trkpt lat="45.67618" lon="2.98847">
        <ele>869.2</ele>
        <time>2025-09-28T10:02:52Z</time>
      </trkpt>
      <trkpt lat="45.6762" lon="2.98848">
        <ele>869.6</ele>
        <time>2025-09-28T10:02:53Z</time>
      </trkpt>
      <trkpt lat="45.67621" lon="2.98849">
        <ele>869.8</ele>
        <time>2025-09-28T10:02:54Z</time>
      </trkpt>
      <trkpt lat="45.67621" lon="2.98849">
        <ele>870</ele>
        <time>2025-09-28T10:02:55Z</time>
      </trkpt>
      <trkpt lat="45.67621" lon="2.98849">
        <ele>870.4</ele>
        <time>2025-09-28T10:02:56Z</time>
      </trkpt>
      <trkpt lat="45.67623" lon="2.98848">
        <ele>870.6</ele>
        <time>2025-09-28T10:02:57Z</time>
      </trkpt>
      <trkpt lat="45.67625" lon="2.98848">
        <ele>870.8</ele>
        <time>2025-09-28T10:02:58Z</time>
      </trkpt>
      <trkpt lat="45.67627" lon="2.98847">
        <ele>871.2</ele>
        <time>2025-09-28T10:02:59Z</time>
      </trkpt>
      <trkpt lat="45.67629" lon="2.98847">
        <ele>871.4</ele>
        <time>2025-09-28T10:03:00Z</time>
      </trkpt>
      <trkpt lat="45.67631" lon="2.98846">
        <ele>871.6</ele>
        <time>2025-09-28T10:03:01Z</time>
      </trkpt>
      <trkpt lat="45.67634" lon="2.98844">
        <ele>871.8</ele>
        <time>2025-09-28T10:03:02Z</time>
      </trkpt>
      <trkpt lat="45.67636" lon="2.98841">
        <ele>872.2</ele>
        <time>2025-09-28T10:03:03Z</time>
      </trkpt>
      <trkpt lat="45.67637" lon="2.98839">
        <ele>872.4</ele>
        <time>2025-09-28T10:03:04Z</time>
      </trkpt>
      <trkpt lat="45.67638" lon="2.98837">
        <ele>872.6</ele>
        <time>2025-09-28T10:03:05Z</time>
      </trkpt>
      <trkpt lat="45.67639" lon="2.98835">
        <ele>872.8</ele>
        <time>2025-09-28T10:03:06Z</time>
      </trkpt>
      <trkpt lat="45.6764" lon="2.98833">
        <ele>873</ele>
        <time>2025-09-28T10:03:07Z</time>
      </trkpt>
      <trkpt lat="45.67641" lon="2.98832">
        <ele>873.2</ele>
        <time>2025-09-28T10:03:08Z</time>
      </trkpt>
      <trkpt lat="45.67642" lon="2.98831">
        <ele>873.2</ele>
        <time>2025-09-28T10:03:09Z</time>
      </trkpt>
      <trkpt lat="45.67643" lon="2.98829">
        <ele>873.4</ele>
        <time>2025-09-28T10:03:10Z</time>
      </trkpt>
      <trkpt lat="45.67646" lon="2.98826">
        <ele>873.4</ele>
        <time>2025-09-28T10:03:11Z</time>
      </trkpt>
      <trkpt lat="45.67647" lon="2.98824">
        <ele>873.4</ele>
        <time>2025-09-28T10:03:12Z</time>
      </trkpt>
      <trkpt lat="45.67648" lon="2.98821">
        <ele>873.4</ele>
        <time>2025-09-28T10:03:13Z</time>
      </trkpt>
      <trkpt lat="45.6765" lon="2.98818">
        <ele>873.4</ele>
        <time>2025-09-28T10:03:14Z</time>
      </trkpt>
      <trkpt lat="45.67653" lon="2.98813">
        <ele>873.6</ele>
        <time>2025-09-28T10:03:15Z</time>
      </trkpt>
      <trkpt lat="45.67655" lon="2.98809">
        <ele>873.6</ele>
        <time>2025-09-28T10:03:16Z</time>
      </trkpt>
      <trkpt lat="45.67656" lon="2.98806">
        <ele>873.6</ele>
        <time>2025-09-28T10:03:17Z</time>
      </trkpt>
      <trkpt lat="45.67657" lon="2.98803">
        <ele>873.6</ele>
        <time>2025-09-28T10:03:18Z</time>
      </trkpt>
      <trkpt lat="45.67657" lon="2.98801">
        <ele>873.6</ele>
        <time>2025-09-28T10:03:19Z</time>
      </trkpt>
      <trkpt lat="45.67658" lon="2.98798">
        <ele>873.8</ele>
        <time>2025-09-28T10:03:20Z</time>
      </trkpt>
      <trkpt lat="45.67659" lon="2.98793">
        <ele>873.8</ele>
        <time>2025-09-28T10:03:21Z</time>
      </trkpt>
      <trkpt lat="45.6766" lon="2.98788">
        <ele>874</ele>
        <time>2025-09-28T10:03:22Z</time>
      </trkpt>
      <trkpt lat="45.67662" lon="2.98783">
        <ele>874</ele>
        <time>2025-09-28T10:03:23Z</time>
      </trkpt>
      <trkpt lat="45.67664" lon="2.98779">
        <ele>874.2</ele>
        <time>2025-09-28T10:03:24Z</time>
      </trkpt>
      <trkpt lat="45.67665" lon="2.98776">
        <ele>874.4</ele>
        <time>2025-09-28T10:03:25Z</time>
      </trkpt>
      <trkpt lat="45.67666" lon="2.98773">
        <ele>874.4</ele>
        <time>2025-09-28T10:03:26Z</time>
      </trkpt>
      <trkpt lat="45.67668" lon="2.9877">
        <ele>874.6</ele>
        <time>2025-09-28T10:03:27Z</time>
      </trkpt>
      <trkpt lat="45.6767" lon="2.98766">
        <ele>874.8</ele>
        <time>2025-09-28T10:03:28Z</time>
      </trkpt>
      <trkpt lat="45.67672" lon="2.98764">
        <ele>874.8</ele>
        <time>2025-09-28T10:03:29Z</time>
      </trkpt>
      <trkpt lat="45.67673" lon="2.98762">
        <ele>875</ele>
        <time>2025-09-28T10:03:30Z</time>
      </trkpt>
      <trkpt lat="45.67674" lon="2.9876">
        <ele>875.2</ele>
        <time>2025-09-28T10:03:31Z</time>
      </trkpt>
      <trkpt lat="45.67674" lon="2.98758">
        <ele>875.4</ele>
        <time>2025-09-28T10:03:32Z</time>
      </trkpt>
      <trkpt lat="45.67675" lon="2.98756">
        <ele>875.6</ele>
        <time>2025-09-28T10:03:33Z</time>
      </trkpt>
      <trkpt lat="45.67677" lon="2.98752">
        <ele>875.6</ele>
        <time>2025-09-28T10:03:34Z</time>
      </trkpt>
      <trkpt lat="45.67678" lon="2.98747">
        <ele>875.8</ele>
        <time>2025-09-28T10:03:35Z</time>
      </trkpt>
      <trkpt lat="45.6768" lon="2.98742">
        <ele>876</ele>
        <time>2025-09-28T10:03:36Z</time>
      </trkpt>
      <trkpt lat="45.67681" lon="2.98737">
        <ele>876.2</ele>
        <time>2025-09-28T10:03:37Z</time>
      </trkpt>
      <trkpt lat="45.67682" lon="2.98734">
        <ele>876.2</ele>
        <time>2025-09-28T10:03:38Z</time>
      </trkpt>
      <trkpt lat="45.67683" lon="2.9873">
        <ele>876.4</ele>
        <time>2025-09-28T10:03:39Z</time>
      </trkpt>
      <trkpt lat="45.67684" lon="2.98726">
        <ele>876.6</ele>
        <time>2025-09-28T10:03:40Z</time>
      </trkpt>
      <trkpt lat="45.67685" lon="2.98721">
        <ele>876.8</ele>
        <time>2025-09-28T10:03:41Z</time>
      </trkpt>
      <trkpt lat="45.67686" lon="2.98716">
        <ele>877</ele>
        <time>2025-09-28T10:03:42Z</time>
      </trkpt>
      <trkpt lat="45.67687" lon="2.98712">
        <ele>877.2</ele>
        <time>2025-09-28T10:03:43Z</time>
      </trkpt>
      <trkpt lat="45.67689" lon="2.98709">
        <ele>877.4</ele>
        <time>2025-09-28T10:03:44Z</time>
      </trkpt>
      <trkpt lat="45.67691" lon="2.98704">
        <ele>877.6</ele>
        <time>2025-09-28T10:03:45Z</time>
      </trkpt>
      <trkpt lat="45.67693" lon="2.987">
        <ele>877.8</ele>
        <time>2025-09-28T10:03:46Z</time>
      </trkpt>
      <trkpt lat="45.67694" lon="2.98697">
        <ele>878</ele>
        <time>2025-09-28T10:03:47Z</time>
      </trkpt>
      <trkpt lat="45.67694" lon="2.98694">
        <ele>878.2</ele>
        <time>2025-09-28T10:03:48Z</time>
      </trkpt>
      <trkpt lat="45.67695" lon="2.9869">
        <ele>878.6</ele>
        <time>2025-09-28T10:03:49Z</time>
      </trkpt>
      <trkpt lat="45.67698" lon="2.98685">
        <ele>878.8</ele>
        <time>2025-09-28T10:03:50Z</time>
      </trkpt>
      <trkpt lat="45.67701" lon="2.98679">
        <ele>879</ele>
        <time>2025-09-28T10:03:51Z</time>
      </trkpt>
      <trkpt lat="45.67704" lon="2.98674">
        <ele>879.2</ele>
        <time>2025-09-28T10:03:52Z</time>
      </trkpt>
      <trkpt lat="45.67707" lon="2.98668">
        <ele>879.4</ele>
        <time>2025-09-28T10:03:53Z</time>
      </trkpt>
      <trkpt lat="45.6771" lon="2.98661">
        <ele>879.6</ele>
        <time>2025-09-28T10:03:54Z</time>
      </trkpt>
      <trkpt lat="45.67713" lon="2.98655">
        <ele>879.6</ele>
        <time>2025-09-28T10:03:55Z</time>
      </trkpt>
      <trkpt lat="45.67714" lon="2.98651">
        <ele>879.8</ele>
        <time>2025-09-28T10:03:56Z</time>
      </trkpt>
      <trkpt lat="45.67715" lon="2.98648">
        <ele>880</ele>
        <time>2025-09-28T10:03:57Z</time>
      </trkpt>
      <trkpt lat="45.67715" lon="2.98645">
        <ele>880</ele>
        <time>2025-09-28T10:03:58Z</time>
      </trkpt>
      <trkpt lat="45.67715" lon="2.98641">
        <ele>880.2</ele>
        <time>2025-09-28T10:03:59Z</time>
      </trkpt>
      <trkpt lat="45.67716" lon="2.98638">
        <ele>880.4</ele>
        <time>2025-09-28T10:04:00Z</time>
      </trkpt>
      <trkpt lat="45.67716" lon="2.98634">
        <ele>880.6</ele>
        <time>2025-09-28T10:04:01Z</time>
      </trkpt>
      <trkpt lat="45.67717" lon="2.98632">
        <ele>880.6</ele>
        <time>2025-09-28T10:04:02Z</time>
      </trkpt>
      <trkpt lat="45.67718" lon="2.9863">
        <ele>880.8</ele>
        <time>2025-09-28T10:04:03Z</time>
      </trkpt>
      <trkpt lat="45.67718" lon="2.98628">
        <ele>881</ele>
        <time>2025-09-28T10:04:04Z</time>
      </trkpt>
      <trkpt lat="45.67719" lon="2.98626">
        <ele>881.2</ele>
        <time>2025-09-28T10:04:05Z</time>
      </trkpt>
      <trkpt lat="45.67721" lon="2.98622">
        <ele>881.2</ele>
        <time>2025-09-28T10:04:06Z</time>
      </trkpt>
      <trkpt lat="45.67723" lon="2.98618">
        <ele>881.4</ele>
        <time>2025-09-28T10:04:07Z</time>
      </trkpt>
      <trkpt lat="45.67725" lon="2.98614">
        <ele>881.4</ele>
        <time>2025-09-28T10:04:08Z</time>
      </trkpt>
      <trkpt lat="45.67727" lon="2.98611">
        <ele>881.4</ele>
        <time>2025-09-28T10:04:09Z</time>
      </trkpt>
      <trkpt lat="45.67728" lon="2.98607">
        <ele>881.4</ele>
        <time>2025-09-28T10:04:10Z</time>
      </trkpt>
      <trkpt lat="45.6773" lon="2.98603">
        <ele>881.4</ele>
        <time>2025-09-28T10:04:11Z</time>
      </trkpt>
      <trkpt lat="45.67733" lon="2.98599">
        <ele>881.4</ele>
        <time>2025-09-28T10:04:12Z</time>
      </trkpt>
      <trkpt lat="45.67736" lon="2.98596">
        <ele>881.4</ele>
        <time>2025-09-28T10:04:13Z</time>
      </trkpt>
      <trkpt lat="45.67738" lon="2.98593">
        <ele>881.4</ele>
        <time>2025-09-28T10:04:14Z</time>
      </trkpt>
      <trkpt lat="45.6774" lon="2.98591">
        <ele>881.6</ele>
        <time>2025-09-28T10:04:15Z</time>
      </trkpt>
      <trkpt lat="45.67743" lon="2.98588">
        <ele>881.6</ele>
        <time>2025-09-28T10:04:16Z</time>
      </trkpt>
      <trkpt lat="45.67746" lon="2.98585">
        <ele>881.8</ele>
        <time>2025-09-28T10:04:17Z</time>
      </trkpt>
      <trkpt lat="45.67749" lon="2.98581">
        <ele>881.8</ele>
        <time>2025-09-28T10:04:18Z</time>
      </trkpt>
      <trkpt lat="45.67752" lon="2.98577">
        <ele>882</ele>
        <time>2025-09-28T10:04:19Z</time>
      </trkpt>
      <trkpt lat="45.67755" lon="2.98572">
        <ele>882.2</ele>
        <time>2025-09-28T10:04:20Z</time>
      </trkpt>
      <trkpt lat="45.67757" lon="2.98567">
        <ele>882.4</ele>
        <time>2025-09-28T10:04:21Z</time>
      </trkpt>
      <trkpt lat="45.67758" lon="2.98565">
        <ele>882.6</ele>
        <time>2025-09-28T10:04:22Z</time>
      </trkpt>
      <trkpt lat="45.67758" lon="2.98564">
        <ele>882.8</ele>
        <time>2025-09-28T10:04:23Z</time>
      </trkpt>
      <trkpt lat="45.67759" lon="2.98563">
        <ele>882.8</ele>
        <time>2025-09-28T10:04:24Z</time>
      </trkpt>
      <trkpt lat="45.67761" lon="2.98561">
        <ele>883</ele>
        <time>2025-09-28T10:04:25Z</time>
      </trkpt>
      <trkpt lat="45.67762" lon="2.98558">
        <ele>883.2</ele>
        <time>2025-09-28T10:04:26Z</time>
      </trkpt>
      <trkpt lat="45.67763" lon="2.98556">
        <ele>883.2</ele>
        <time>2025-09-28T10:04:27Z</time>
      </trkpt>
      <trkpt lat="45.67764" lon="2.98555">
        <ele>883.4</ele>
        <time>2025-09-28T10:04:28Z</time>
      </trkpt>
      <trkpt lat="45.67765" lon="2.98554">
        <ele>883.4</ele>
        <time>2025-09-28T10:04:29Z</time>
      </trkpt>
      <trkpt lat="45.67766" lon="2.98553">
        <ele>883.4</ele>
        <time>2025-09-28T10:04:30Z</time>
      </trkpt>
      <trkpt lat="45.67768" lon="2.98552">
        <ele>883.6</ele>
        <time>2025-09-28T10:04:31Z</time>
      </trkpt>
      <trkpt lat="45.67769" lon="2.98551">
        <ele>883.6</ele>
        <time>2025-09-28T10:04:32Z</time>
      </trkpt>
      <trkpt lat="45.6777" lon="2.9855">
        <ele>883.8</ele>
        <time>2025-09-28T10:04:33Z</time>
      </trkpt>
      <trkpt lat="45.67772" lon="2.98549">
        <ele>883.8</ele>
        <time>2025-09-28T10:04:34Z</time>
      </trkpt>
      <trkpt lat="45.67774" lon="2.98548">
        <ele>884</ele>
        <time>2025-09-28T10:04:35Z</time>
      </trkpt>
      <trkpt lat="45.67777" lon="2.98546">
        <ele>884.2</ele>
        <time>2025-09-28T10:04:36Z</time>
      </trkpt>
      <trkpt lat="45.67779" lon="2.98543">
        <ele>884.2</ele>
        <time>2025-09-28T10:04:37Z</time>
      </trkpt>
      <trkpt lat="45.67781" lon="2.98541">
        <ele>884.4</ele>
        <time>2025-09-28T10:04:38Z</time>
      </trkpt>
      <trkpt lat="45.67783" lon="2.98538">
        <ele>884.6</ele>
        <time>2025-09-28T10:04:39Z</time>
      </trkpt>
      <trkpt lat="45.67786" lon="2.98536">
        <ele>884.8</ele>
        <time>2025-09-28T10:04:40Z</time>
      </trkpt>
      <trkpt lat="45.67788" lon="2.98533">
        <ele>885</ele>
        <time>2025-09-28T10:04:41Z</time>
      </trkpt>
      <trkpt lat="45.6779" lon="2.98529">
        <ele>885</ele>
        <time>2025-09-28T10:04:42Z</time>
      </trkpt>
      <trkpt lat="45.67792" lon="2.98526">
        <ele>885.2</ele>
        <time>2025-09-28T10:04:43Z</time>
      </trkpt>
      <trkpt lat="45.67794" lon="2.98524">
        <ele>885.2</ele>
        <time>2025-09-28T10:04:44Z</time>
      </trkpt>
      <trkpt lat="45.67796" lon="2.98523">
        <ele>885.2</ele>
        <time>2025-09-28T10:04:45Z</time>
      </trkpt>
      <trkpt lat="45.67799" lon="2.9852">
        <ele>885.2</ele>
        <time>2025-09-28T10:04:46Z</time>
      </trkpt>
      <trkpt lat="45.67803" lon="2.98517">
        <ele>885.2</ele>
        <time>2025-09-28T10:04:47Z</time>
      </trkpt>
      <trkpt lat="45.67807" lon="2.98512">
        <ele>885.2</ele>
        <time>2025-09-28T10:04:48Z</time>
      </trkpt>
      <trkpt lat="45.6781" lon="2.98508">
        <ele>885.2</ele>
        <time>2025-09-28T10:04:49Z</time>
      </trkpt>
      <trkpt lat="45.67814" lon="2.98505">
        <ele>885.2</ele>
        <time>2025-09-28T10:04:50Z</time>
      </trkpt>
      <trkpt lat="45.67817" lon="2.98502">
        <ele>885.2</ele>
        <time>2025-09-28T10:04:51Z</time>
      </trkpt>
      <trkpt lat="45.6782" lon="2.985">
        <ele>885.2</ele>
        <time>2025-09-28T10:04:52Z</time>
      </trkpt>
      <trkpt lat="45.67823" lon="2.98498">
        <ele>885</ele>
        <time>2025-09-28T10:04:53Z</time>
      </trkpt>
      <trkpt lat="45.67826" lon="2.98496">
        <ele>885.2</ele>
        <time>2025-09-28T10:04:54Z</time>
      </trkpt>
      <trkpt lat="45.67829" lon="2.98492">
        <ele>885.2</ele>
        <time>2025-09-28T10:04:55Z</time>
      </trkpt>
      <trkpt lat="45.67833" lon="2.9849">
        <ele>885.4</ele>
        <time>2025-09-28T10:04:56Z</time>
      </trkpt>
      <trkpt lat="45.67836" lon="2.98487">
        <ele>885.4</ele>
        <time>2025-09-28T10:04:57Z</time>
      </trkpt>
      <trkpt lat="45.6784" lon="2.98484">
        <ele>885.6</ele>
        <time>2025-09-28T10:04:58Z</time>
      </trkpt>
      <trkpt lat="45.67842" lon="2.98482">
        <ele>885.6</ele>
        <time>2025-09-28T10:04:59Z</time>
      </trkpt>
      <trkpt lat="45.67844" lon="2.98479">
        <ele>885.6</ele>
        <time>2025-09-28T10:05:00Z</time>
      </trkpt>
      <trkpt lat="45.67846" lon="2.98475">
        <ele>885.6</ele>
        <time>2025-09-28T10:05:01Z</time>
      </trkpt>
      <trkpt lat="45.6785" lon="2.9847">
        <ele>885.4</ele>
        <time>2025-09-28T10:05:02Z</time>
      </trkpt>
      <trkpt lat="45.67855" lon="2.98463">
        <ele>885.4</ele>
        <time>2025-09-28T10:05:03Z</time>
      </trkpt>
      <trkpt lat="45.67859" lon="2.98457">
        <ele>885.4</ele>
        <time>2025-09-28T10:05:04Z</time>
      </trkpt>
      <trkpt lat="45.67863" lon="2.98452">
        <ele>885.4</ele>
        <time>2025-09-28T10:05:05Z</time>
      </trkpt>
      <trkpt lat="45.67866" lon="2.98449">
        <ele>885.4</ele>
        <time>2025-09-28T10:05:06Z</time>
      </trkpt>
      <trkpt lat="45.67868" lon="2.98444">
        <ele>885.6</ele>
        <time>2025-09-28T10:05:07Z</time>
      </trkpt>
      <trkpt lat="45.67869" lon="2.98439">
        <ele>885.6</ele>
        <time>2025-09-28T10:05:08Z</time>
      </trkpt>
      <trkpt lat="45.6787" lon="2.98434">
        <ele>885.6</ele>
        <time>2025-09-28T10:05:09Z</time>
      </trkpt>
      <trkpt lat="45.67872" lon="2.98429">
        <ele>885.6</ele>
        <time>2025-09-28T10:05:10Z</time>
      </trkpt>
      <trkpt lat="45.67873" lon="2.98423">
        <ele>885.8</ele>
        <time>2025-09-28T10:05:11Z</time>
      </trkpt>
      <trkpt lat="45.67875" lon="2.98416">
        <ele>885.8</ele>
        <time>2025-09-28T10:05:12Z</time>
      </trkpt>
      <trkpt lat="45.67877" lon="2.98409">
        <ele>885.8</ele>
        <time>2025-09-28T10:05:13Z</time>
      </trkpt>
      <trkpt lat="45.6788" lon="2.98402">
        <ele>885.8</ele>
        <time>2025-09-28T10:05:14Z</time>
      </trkpt>
      <trkpt lat="45.67883" lon="2.98394">
        <ele>885.8</ele>
        <time>2025-09-28T10:05:15Z</time>
      </trkpt>
      <trkpt lat="45.67885" lon="2.98389">
        <ele>886</ele>
        <time>2025-09-28T10:05:16Z</time>
      </trkpt>
      <trkpt lat="45.67887" lon="2.98385">
        <ele>886</ele>
        <time>2025-09-28T10:05:17Z</time>
      </trkpt>
      <trkpt lat="45.67889" lon="2.98381">
        <ele>886.2</ele>
        <time>2025-09-28T10:05:18Z</time>
      </trkpt>
      <trkpt lat="45.67892" lon="2.98376">
        <ele>886.4</ele>
        <time>2025-09-28T10:05:19Z</time>
      </trkpt>
      <trkpt lat="45.67895" lon="2.98371">
        <ele>886.6</ele>
        <time>2025-09-28T10:05:20Z</time>
      </trkpt>
      <trkpt lat="45.67897" lon="2.98366">
        <ele>886.6</ele>
        <time>2025-09-28T10:05:21Z</time>
      </trkpt>
      <trkpt lat="45.67898" lon="2.98361">
        <ele>886.8</ele>
        <time>2025-09-28T10:05:22Z</time>
      </trkpt>
      <trkpt lat="45.67898" lon="2.98356">
        <ele>887</ele>
        <time>2025-09-28T10:05:23Z</time>
      </trkpt>
      <trkpt lat="45.67899" lon="2.98352">
        <ele>887</ele>
        <time>2025-09-28T10:05:24Z</time>
      </trkpt>
      <trkpt lat="45.679" lon="2.98348">
        <ele>887.2</ele>
        <time>2025-09-28T10:05:25Z</time>
      </trkpt>
      <trkpt lat="45.679" lon="2.98344">
        <ele>887.2</ele>
        <time>2025-09-28T10:05:26Z</time>
      </trkpt>
      <trkpt lat="45.67899" lon="2.98339">
        <ele>887.2</ele>
        <time>2025-09-28T10:05:27Z</time>
      </trkpt>
      <trkpt lat="45.67898" lon="2.98334">
        <ele>887.4</ele>
        <time>2025-09-28T10:05:28Z</time>
      </trkpt>
      <trkpt lat="45.67899" lon="2.9833">
        <ele>887.4</ele>
        <time>2025-09-28T10:05:29Z</time>
      </trkpt>
      <trkpt lat="45.67902" lon="2.98323">
        <ele>887.4</ele>
        <time>2025-09-28T10:05:30Z</time>
      </trkpt>
      <trkpt lat="45.67905" lon="2.98314">
        <ele>887.6</ele>
        <time>2025-09-28T10:05:31Z</time>
      </trkpt>
      <trkpt lat="45.67908" lon="2.98308">
        <ele>887.6</ele>
        <time>2025-09-28T10:05:32Z</time>
      </trkpt>
      <trkpt lat="45.6791" lon="2.98302">
        <ele>887.8</ele>
        <time>2025-09-28T10:05:33Z</time>
      </trkpt>
      <trkpt lat="45.6791" lon="2.98298">
        <ele>887.8</ele>
        <time>2025-09-28T10:05:34Z</time>
      </trkpt>
      <trkpt lat="45.6791" lon="2.98295">
        <ele>888</ele>
        <time>2025-09-28T10:05:35Z</time>
      </trkpt>
      <trkpt lat="45.6791" lon="2.98291">
        <ele>888.2</ele>
        <time>2025-09-28T10:05:36Z</time>
      </trkpt>
      <trkpt lat="45.6791" lon="2.98286">
        <ele>888.4</ele>
        <time>2025-09-28T10:05:37Z</time>
      </trkpt>
      <trkpt lat="45.67909" lon="2.98282">
        <ele>888.4</ele>
        <time>2025-09-28T10:05:38Z</time>
      </trkpt>
      <trkpt lat="45.67909" lon="2.98279">
        <ele>888.6</ele>
        <time>2025-09-28T10:05:39Z</time>
      </trkpt>
      <trkpt lat="45.67909" lon="2.98275">
        <ele>888.8</ele>
        <time>2025-09-28T10:05:40Z</time>
      </trkpt>
      <trkpt lat="45.6791" lon="2.9827">
        <ele>888.8</ele>
        <time>2025-09-28T10:05:41Z</time>
      </trkpt>
      <trkpt lat="45.67911" lon="2.98265">
        <ele>888.8</ele>
        <time>2025-09-28T10:05:42Z</time>
      </trkpt>
      <trkpt lat="45.67912" lon="2.98261">
        <ele>888.8</ele>
        <time>2025-09-28T10:05:43Z</time>
      </trkpt>
      <trkpt lat="45.67914" lon="2.98257">
        <ele>889</ele>
        <time>2025-09-28T10:05:44Z</time>
      </trkpt>
      <trkpt lat="45.67915" lon="2.98254">
        <ele>889</ele>
        <time>2025-09-28T10:05:45Z</time>
      </trkpt>
      <trkpt lat="45.67917" lon="2.9825">
        <ele>889.2</ele>
        <time>2025-09-28T10:05:46Z</time>
      </trkpt>
      <trkpt lat="45.67919" lon="2.98245">
        <ele>889.2</ele>
        <time>2025-09-28T10:05:47Z</time>
      </trkpt>
      <trkpt lat="45.67919" lon="2.9824">
        <ele>889.2</ele>
        <time>2025-09-28T10:05:48Z</time>
      </trkpt>
      <trkpt lat="45.67919" lon="2.98235">
        <ele>889.2</ele>
        <time>2025-09-28T10:05:49Z</time>
      </trkpt>
      <trkpt lat="45.67923" lon="2.98226">
        <ele>889.2</ele>
        <time>2025-09-28T10:05:50Z</time>
      </trkpt>
      <trkpt lat="45.67926" lon="2.98217">
        <ele>889.4</ele>
        <time>2025-09-28T10:05:51Z</time>
      </trkpt>
      <trkpt lat="45.67929" lon="2.98211">
        <ele>889.4</ele>
        <time>2025-09-28T10:05:52Z</time>
      </trkpt>
      <trkpt lat="45.6793" lon="2.98205">
        <ele>889.4</ele>
        <time>2025-09-28T10:05:53Z</time>
      </trkpt>
      <trkpt lat="45.67932" lon="2.982">
        <ele>889.6</ele>
        <time>2025-09-28T10:05:54Z</time>
      </trkpt>
      <trkpt lat="45.67933" lon="2.98196">
        <ele>889.6</ele>
        <time>2025-09-28T10:05:55Z</time>
      </trkpt>
      <trkpt lat="45.67933" lon="2.98192">
        <ele>889.8</ele>
        <time>2025-09-28T10:05:56Z</time>
      </trkpt>
      <trkpt lat="45.67932" lon="2.98188">
        <ele>890</ele>
        <time>2025-09-28T10:05:57Z</time>
      </trkpt>
      <trkpt lat="45.67932" lon="2.98184">
        <ele>890.2</ele>
        <time>2025-09-28T10:05:58Z</time>
      </trkpt>
      <trkpt lat="45.67932" lon="2.98181">
        <ele>890.4</ele>
        <time>2025-09-28T10:05:59Z</time>
      </trkpt>
      <trkpt lat="45.67932" lon="2.98178">
        <ele>890.6</ele>
        <time>2025-09-28T10:06:00Z</time>
      </trkpt>
      <trkpt lat="45.67932" lon="2.98175">
        <ele>890.8</ele>
        <time>2025-09-28T10:06:01Z</time>
      </trkpt>
      <trkpt lat="45.67932" lon="2.98172">
        <ele>890.8</ele>
        <time>2025-09-28T10:06:02Z</time>
      </trkpt>
      <trkpt lat="45.67932" lon="2.98166">
        <ele>890.8</ele>
        <time>2025-09-28T10:06:03Z</time>
      </trkpt>
      <trkpt lat="45.67931" lon="2.98158">
        <ele>890.8</ele>
        <time>2025-09-28T10:06:04Z</time>
      </trkpt>
      <trkpt lat="45.6793" lon="2.9815">
        <ele>891</ele>
        <time>2025-09-28T10:06:05Z</time>
      </trkpt>
      <trkpt lat="45.67929" lon="2.98143">
        <ele>891.2</ele>
        <time>2025-09-28T10:06:06Z</time>
      </trkpt>
      <trkpt lat="45.67928" lon="2.98136">
        <ele>891.4</ele>
        <time>2025-09-28T10:06:07Z</time>
      </trkpt>
      <trkpt lat="45.67927" lon="2.9813">
        <ele>891.6</ele>
        <time>2025-09-28T10:06:08Z</time>
      </trkpt>
      <trkpt lat="45.67926" lon="2.98126">
        <ele>891.8</ele>
        <time>2025-09-28T10:06:09Z</time>
      </trkpt>
      <trkpt lat="45.67927" lon="2.98123">
        <ele>892</ele>
        <time>2025-09-28T10:06:10Z</time>
      </trkpt>
      <trkpt lat="45.67928" lon="2.9812">
        <ele>892</ele>
        <time>2025-09-28T10:06:11Z</time>
      </trkpt>
      <trkpt lat="45.6793" lon="2.98116">
        <ele>892.2</ele>
        <time>2025-09-28T10:06:12Z</time>
      </trkpt>
      <trkpt lat="45.67933" lon="2.98113">
        <ele>892.4</ele>
        <time>2025-09-28T10:06:13Z</time>
      </trkpt>
      <trkpt lat="45.67936" lon="2.98111">
        <ele>892.6</ele>
        <time>2025-09-28T10:06:14Z</time>
      </trkpt>
      <trkpt lat="45.67938" lon="2.9811">
        <ele>892.8</ele>
        <time>2025-09-28T10:06:15Z</time>
      </trkpt>
      <trkpt lat="45.67941" lon="2.98109">
        <ele>893</ele>
        <time>2025-09-28T10:06:16Z</time>
      </trkpt>
      <trkpt lat="45.67944" lon="2.98105">
        <ele>893.4</ele>
        <time>2025-09-28T10:06:17Z</time>
      </trkpt>
      <trkpt lat="45.67948" lon="2.98101">
        <ele>893.6</ele>
        <time>2025-09-28T10:06:18Z</time>
      </trkpt>
      <trkpt lat="45.67951" lon="2.98098">
        <ele>893.8</ele>
        <time>2025-09-28T10:06:19Z</time>
      </trkpt>
      <trkpt lat="45.67953" lon="2.98096">
        <ele>894</ele>
        <time>2025-09-28T10:06:20Z</time>
      </trkpt>
      <trkpt lat="45.67955" lon="2.98094">
        <ele>894.2</ele>
        <time>2025-09-28T10:06:21Z</time>
      </trkpt>
      <trkpt lat="45.67957" lon="2.98092">
        <ele>894.2</ele>
        <time>2025-09-28T10:06:22Z</time>
      </trkpt>
      <trkpt lat="45.67959" lon="2.98089">
        <ele>894.4</ele>
        <time>2025-09-28T10:06:23Z</time>
      </trkpt>
      <trkpt lat="45.67961" lon="2.98086">
        <ele>894.6</ele>
        <time>2025-09-28T10:06:24Z</time>
      </trkpt>
      <trkpt lat="45.67963" lon="2.98084">
        <ele>894.6</ele>
        <time>2025-09-28T10:06:25Z</time>
      </trkpt>
      <trkpt lat="45.67966" lon="2.98082">
        <ele>894.8</ele>
        <time>2025-09-28T10:06:26Z</time>
      </trkpt>
      <trkpt lat="45.67969" lon="2.98082">
        <ele>894.8</ele>
        <time>2025-09-28T10:06:27Z</time>
      </trkpt>
      <trkpt lat="45.67972" lon="2.98081">
        <ele>894.8</ele>
        <time>2025-09-28T10:06:28Z</time>
      </trkpt>
      <trkpt lat="45.67975" lon="2.98079">
        <ele>895</ele>
        <time>2025-09-28T10:06:29Z</time>
      </trkpt>
      <trkpt lat="45.67979" lon="2.98075">
        <ele>895</ele>
        <time>2025-09-28T10:06:30Z</time>
      </trkpt>
      <trkpt lat="45.67984" lon="2.9807">
        <ele>894.8</ele>
        <time>2025-09-28T10:06:31Z</time>
      </trkpt>
      <trkpt lat="45.67988" lon="2.98065">
        <ele>894.8</ele>
        <time>2025-09-28T10:06:32Z</time>
      </trkpt>
      <trkpt lat="45.67991" lon="2.98059">
        <ele>894.8</ele>
        <time>2025-09-28T10:06:33Z</time>
      </trkpt>
      <trkpt lat="45.67993" lon="2.98054">
        <ele>894.6</ele>
        <time>2025-09-28T10:06:34Z</time>
      </trkpt>
      <trkpt lat="45.67995" lon="2.98049">
        <ele>894.6</ele>
        <time>2025-09-28T10:06:35Z</time>
      </trkpt>
      <trkpt lat="45.67998" lon="2.98044">
        <ele>894.6</ele>
        <time>2025-09-28T10:06:36Z</time>
      </trkpt>
      <trkpt lat="45.68001" lon="2.98039">
        <ele>894.6</ele>
        <time>2025-09-28T10:06:37Z</time>
      </trkpt>
      <trkpt lat="45.68004" lon="2.98035">
        <ele>894.8</ele>
        <time>2025-09-28T10:06:38Z</time>
      </trkpt>
      <trkpt lat="45.68006" lon="2.98031">
        <ele>895</ele>
        <time>2025-09-28T10:06:39Z</time>
      </trkpt>
      <trkpt lat="45.68007" lon="2.98027">
        <ele>895.2</ele>
        <time>2025-09-28T10:06:40Z</time>
      </trkpt>
      <trkpt lat="45.68008" lon="2.98026">
        <ele>895.4</ele>
        <time>2025-09-28T10:06:41Z</time>
      </trkpt>
      <trkpt lat="45.68009" lon="2.98024">
        <ele>895.6</ele>
        <time>2025-09-28T10:06:42Z</time>
      </trkpt>
      <trkpt lat="45.68009" lon="2.98022">
        <ele>895.8</ele>
        <time>2025-09-28T10:06:43Z</time>
      </trkpt>
      <trkpt lat="45.6801" lon="2.98019">
        <ele>896</ele>
        <time>2025-09-28T10:06:44Z</time>
      </trkpt>
      <trkpt lat="45.68011" lon="2.98018">
        <ele>896.4</ele>
        <time>2025-09-28T10:06:45Z</time>
      </trkpt>
      <trkpt lat="45.68011" lon="2.98016">
        <ele>896.6</ele>
        <time>2025-09-28T10:06:46Z</time>
      </trkpt>
      <trkpt lat="45.68012" lon="2.98014">
        <ele>896.8</ele>
        <time>2025-09-28T10:06:47Z</time>
      </trkpt>
      <trkpt lat="45.68012" lon="2.98012">
        <ele>897</ele>
        <time>2025-09-28T10:06:48Z</time>
      </trkpt>
      <trkpt lat="45.68012" lon="2.98009">
        <ele>897.2</ele>
        <time>2025-09-28T10:06:49Z</time>
      </trkpt>
      <trkpt lat="45.68012" lon="2.98006">
        <ele>897.6</ele>
        <time>2025-09-28T10:06:50Z</time>
      </trkpt>
      <trkpt lat="45.68013" lon="2.98002">
        <ele>897.8</ele>
        <time>2025-09-28T10:06:51Z</time>
      </trkpt>
      <trkpt lat="45.68014" lon="2.97998">
        <ele>898.2</ele>
        <time>2025-09-28T10:06:52Z</time>
      </trkpt>
      <trkpt lat="45.68015" lon="2.97995">
        <ele>898.6</ele>
        <time>2025-09-28T10:06:53Z</time>
      </trkpt>
      <trkpt lat="45.68016" lon="2.97992">
        <ele>898.8</ele>
        <time>2025-09-28T10:06:54Z</time>
      </trkpt>
      <trkpt lat="45.68017" lon="2.97988">
        <ele>899.2</ele>
        <time>2025-09-28T10:06:55Z</time>
      </trkpt>
      <trkpt lat="45.68018" lon="2.97985">
        <ele>899.4</ele>
        <time>2025-09-28T10:06:56Z</time>
      </trkpt>
      <trkpt lat="45.68019" lon="2.97982">
        <ele>899.6</ele>
        <time>2025-09-28T10:06:57Z</time>
      </trkpt>
      <trkpt lat="45.68019" lon="2.9798">
        <ele>899.8</ele>
        <time>2025-09-28T10:06:58Z</time>
      </trkpt>
      <trkpt lat="45.6802" lon="2.97977">
        <ele>900.2</ele>
        <time>2025-09-28T10:06:59Z</time>
      </trkpt>
      <trkpt lat="45.68022" lon="2.97975">
        <ele>900.4</ele>
        <time>2025-09-28T10:07:00Z</time>
      </trkpt>
      <trkpt lat="45.68022" lon="2.97972">
        <ele>900.6</ele>
        <time>2025-09-28T10:07:01Z</time>
      </trkpt>
      <trkpt lat="45.68023" lon="2.9797">
        <ele>900.8</ele>
        <time>2025-09-28T10:07:02Z</time>
      </trkpt>
      <trkpt lat="45.68024" lon="2.97967">
        <ele>901</ele>
        <time>2025-09-28T10:07:03Z</time>
      </trkpt>
      <trkpt lat="45.68025" lon="2.97964">
        <ele>901</ele>
        <time>2025-09-28T10:07:04Z</time>
      </trkpt>
      <trkpt lat="45.68027" lon="2.97961">
        <ele>901.2</ele>
        <time>2025-09-28T10:07:05Z</time>
      </trkpt>
      <trkpt lat="45.68028" lon="2.97958">
        <ele>901.4</ele>
        <time>2025-09-28T10:07:06Z</time>
      </trkpt>
      <trkpt lat="45.6803" lon="2.97955">
        <ele>901.6</ele>
        <time>2025-09-28T10:07:07Z</time>
      </trkpt>
      <trkpt lat="45.68032" lon="2.97952">
        <ele>901.8</ele>
        <time>2025-09-28T10:07:08Z</time>
      </trkpt>
      <trkpt lat="45.68034" lon="2.97949">
        <ele>901.8</ele>
        <time>2025-09-28T10:07:09Z</time>
      </trkpt>
      <trkpt lat="45.68035" lon="2.97947">
        <ele>902</ele>
        <time>2025-09-28T10:07:10Z</time>
      </trkpt>
      <trkpt lat="45.68036" lon="2.97944">
        <ele>902.2</ele>
        <time>2025-09-28T10:07:11Z</time>
      </trkpt>
      <trkpt lat="45.68037" lon="2.97942">
        <ele>902.2</ele>
        <time>2025-09-28T10:07:12Z</time>
      </trkpt>
      <trkpt lat="45.68039" lon="2.9794">
        <ele>902.4</ele>
        <time>2025-09-28T10:07:13Z</time>
      </trkpt>
      <trkpt lat="45.68042" lon="2.97938">
        <ele>902.6</ele>
        <time>2025-09-28T10:07:14Z</time>
      </trkpt>
      <trkpt lat="45.68044" lon="2.97936">
        <ele>902.6</ele>
        <time>2025-09-28T10:07:15Z</time>
      </trkpt>
      <trkpt lat="45.68046" lon="2.97933">
        <ele>902.8</ele>
        <time>2025-09-28T10:07:16Z</time>
      </trkpt>
      <trkpt lat="45.68049" lon="2.9793">
        <ele>903</ele>
        <time>2025-09-28T10:07:17Z</time>
      </trkpt>
      <trkpt lat="45.68051" lon="2.97927">
        <ele>903</ele>
        <time>2025-09-28T10:07:18Z</time>
      </trkpt>
      <trkpt lat="45.68053" lon="2.97923">
        <ele>903.2</ele>
        <time>2025-09-28T10:07:19Z</time>
      </trkpt>
      <trkpt lat="45.68054" lon="2.97919">
        <ele>903.2</ele>
        <time>2025-09-28T10:07:20Z</time>
      </trkpt>
      <trkpt lat="45.68056" lon="2.97916">
        <ele>903.4</ele>
        <time>2025-09-28T10:07:21Z</time>
      </trkpt>
      <trkpt lat="45.68058" lon="2.97914">
        <ele>903.4</ele>
        <time>2025-09-28T10:07:22Z</time>
      </trkpt>
      <trkpt lat="45.6806" lon="2.97914">
        <ele>903.6</ele>
        <time>2025-09-28T10:07:23Z</time>
      </trkpt>
      <trkpt lat="45.68062" lon="2.97912">
        <ele>903.6</ele>
        <time>2025-09-28T10:07:24Z</time>
      </trkpt>
      <trkpt lat="45.68063" lon="2.97911">
        <ele>903.6</ele>
        <time>2025-09-28T10:07:25Z</time>
      </trkpt>
      <trkpt lat="45.68065" lon="2.9791">
        <ele>903.8</ele>
        <time>2025-09-28T10:07:26Z</time>
      </trkpt>
      <trkpt lat="45.68067" lon="2.97908">
        <ele>903.8</ele>
        <time>2025-09-28T10:07:27Z</time>
      </trkpt>
      <trkpt lat="45.68069" lon="2.97907">
        <ele>904</ele>
        <time>2025-09-28T10:07:28Z</time>
      </trkpt>
      <trkpt lat="45.6807" lon="2.97906">
        <ele>904</ele>
        <time>2025-09-28T10:07:29Z</time>
      </trkpt>
      <trkpt lat="45.68072" lon="2.97904">
        <ele>904.2</ele>
        <time>2025-09-28T10:07:30Z</time>
      </trkpt>
      <trkpt lat="45.68072" lon="2.97903">
        <ele>904.4</ele>
        <time>2025-09-28T10:07:31Z</time>
      </trkpt>
      <trkpt lat="45.68073" lon="2.97901">
        <ele>904.4</ele>
        <time>2025-09-28T10:07:32Z</time>
      </trkpt>
      <trkpt lat="45.68074" lon="2.97899">
        <ele>904.6</ele>
        <time>2025-09-28T10:07:33Z</time>
      </trkpt>
      <trkpt lat="45.68075" lon="2.97897">
        <ele>904.6</ele>
        <time>2025-09-28T10:07:34Z</time>
      </trkpt>
      <trkpt lat="45.68076" lon="2.97895">
        <ele>904.8</ele>
        <time>2025-09-28T10:07:35Z</time>
      </trkpt>
      <trkpt lat="45.68076" lon="2.97892">
        <ele>905</ele>
        <time>2025-09-28T10:07:36Z</time>
      </trkpt>
      <trkpt lat="45.68077" lon="2.97889">
        <ele>905.2</ele>
        <time>2025-09-28T10:07:37Z</time>
      </trkpt>
      <trkpt lat="45.68078" lon="2.97886">
        <ele>905.4</ele>
        <time>2025-09-28T10:07:38Z</time>
      </trkpt>
      <trkpt lat="45.68078" lon="2.97883">
        <ele>905.6</ele>
        <time>2025-09-28T10:07:39Z</time>
      </trkpt>
      <trkpt lat="45.68079" lon="2.97881">
        <ele>905.8</ele>
        <time>2025-09-28T10:07:40Z</time>
      </trkpt>
      <trkpt lat="45.6808" lon="2.97879">
        <ele>906.2</ele>
        <time>2025-09-28T10:07:41Z</time>
      </trkpt>
      <trkpt lat="45.68082" lon="2.97877">
        <ele>906.4</ele>
        <time>2025-09-28T10:07:42Z</time>
      </trkpt>
      <trkpt lat="45.68084" lon="2.97875">
        <ele>906.6</ele>
        <time>2025-09-28T10:07:43Z</time>
      </trkpt>
      <trkpt lat="45.68085" lon="2.97873">
        <ele>906.8</ele>
        <time>2025-09-28T10:07:44Z</time>
      </trkpt>
      <trkpt lat="45.68086" lon="2.97871">
        <ele>907.2</ele>
        <time>2025-09-28T10:07:45Z</time>
      </trkpt>
      <trkpt lat="45.68087" lon="2.97869">
        <ele>907.4</ele>
        <time>2025-09-28T10:07:46Z</time>
      </trkpt>
      <trkpt lat="45.68088" lon="2.97867">
        <ele>907.8</ele>
        <time>2025-09-28T10:07:47Z</time>
      </trkpt>
      <trkpt lat="45.68089" lon="2.97864">
        <ele>908</ele>
        <time>2025-09-28T10:07:48Z</time>
      </trkpt>
      <trkpt lat="45.68091" lon="2.97862">
        <ele>908.2</ele>
        <time>2025-09-28T10:07:49Z</time>
      </trkpt>
      <trkpt lat="45.68092" lon="2.97861">
        <ele>908.4</ele>
        <time>2025-09-28T10:07:50Z</time>
      </trkpt>
      <trkpt lat="45.68093" lon="2.97859">
        <ele>908.8</ele>
        <time>2025-09-28T10:07:51Z</time>
      </trkpt>
      <trkpt lat="45.68095" lon="2.97858">
        <ele>909</ele>
        <time>2025-09-28T10:07:52Z</time>
      </trkpt>
      <trkpt lat="45.68096" lon="2.97857">
        <ele>909.2</ele>
        <time>2025-09-28T10:07:53Z</time>
      </trkpt>
      <trkpt lat="45.68097" lon="2.97855">
        <ele>909.2</ele>
        <time>2025-09-28T10:07:54Z</time>
      </trkpt>
      <trkpt lat="45.68099" lon="2.97852">
        <ele>909.4</ele>
        <time>2025-09-28T10:07:55Z</time>
      </trkpt>
      <trkpt lat="45.68101" lon="2.97851">
        <ele>909.4</ele>
        <time>2025-09-28T10:07:56Z</time>
      </trkpt>
      <trkpt lat="45.68104" lon="2.97849">
        <ele>909.6</ele>
        <time>2025-09-28T10:07:57Z</time>
      </trkpt>
      <trkpt lat="45.68106" lon="2.97848">
        <ele>909.6</ele>
        <time>2025-09-28T10:07:58Z</time>
      </trkpt>
      <trkpt lat="45.68108" lon="2.97847">
        <ele>909.6</ele>
        <time>2025-09-28T10:07:59Z</time>
      </trkpt>
      <trkpt lat="45.6811" lon="2.97848">
        <ele>909.6</ele>
        <time>2025-09-28T10:08:00Z</time>
      </trkpt>
      <trkpt lat="45.68112" lon="2.97849">
        <ele>909.6</ele>
        <time>2025-09-28T10:08:01Z</time>
      </trkpt>
      <trkpt lat="45.68115" lon="2.97851">
        <ele>909.6</ele>
        <time>2025-09-28T10:08:02Z</time>
      </trkpt>
      <trkpt lat="45.68117" lon="2.97855">
        <ele>909.6</ele>
        <time>2025-09-28T10:08:03Z</time>
      </trkpt>
      <trkpt lat="45.68118" lon="2.97857">
        <ele>909.6</ele>
        <time>2025-09-28T10:08:04Z</time>
      </trkpt>
      <trkpt lat="45.68119" lon="2.97859">
        <ele>909.6</ele>
        <time>2025-09-28T10:08:05Z</time>
      </trkpt>
      <trkpt lat="45.6812" lon="2.97862">
        <ele>909.6</ele>
        <time>2025-09-28T10:08:06Z</time>
      </trkpt>
      <trkpt lat="45.68122" lon="2.97864">
        <ele>909.6</ele>
        <time>2025-09-28T10:08:07Z</time>
      </trkpt>
      <trkpt lat="45.68123" lon="2.97867">
        <ele>909.8</ele>
        <time>2025-09-28T10:08:08Z</time>
      </trkpt>
      <trkpt lat="45.68124" lon="2.9787">
        <ele>909.8</ele>
        <time>2025-09-28T10:08:09Z</time>
      </trkpt>
      <trkpt lat="45.68126" lon="2.97872">
        <ele>909.8</ele>
        <time>2025-09-28T10:08:10Z</time>
      </trkpt>
      <trkpt lat="45.68128" lon="2.97875">
        <ele>909.8</ele>
        <time>2025-09-28T10:08:11Z</time>
      </trkpt>
      <trkpt lat="45.6813" lon="2.97878">
        <ele>909.8</ele>
        <time>2025-09-28T10:08:12Z</time>
      </trkpt>
      <trkpt lat="45.68131" lon="2.97881">
        <ele>910</ele>
        <time>2025-09-28T10:08:13Z</time>
      </trkpt>
      <trkpt lat="45.68133" lon="2.97883">
        <ele>910</ele>
        <time>2025-09-28T10:08:14Z</time>
      </trkpt>
      <trkpt lat="45.68135" lon="2.97886">
        <ele>910</ele>
        <time>2025-09-28T10:08:15Z</time>
      </trkpt>
      <trkpt lat="45.68137" lon="2.97889">
        <ele>910.2</ele>
        <time>2025-09-28T10:08:16Z</time>
      </trkpt>
      <trkpt lat="45.68139" lon="2.97892">
        <ele>910.2</ele>
        <time>2025-09-28T10:08:17Z</time>
      </trkpt>
      <trkpt lat="45.68141" lon="2.97896">
        <ele>910.2</ele>
        <time>2025-09-28T10:08:18Z</time>
      </trkpt>
      <trkpt lat="45.68143" lon="2.97899">
        <ele>910.2</ele>
        <time>2025-09-28T10:08:19Z</time>
      </trkpt>
      <trkpt lat="45.68146" lon="2.97902">
        <ele>910.2</ele>
        <time>2025-09-28T10:08:20Z</time>
      </trkpt>
      <trkpt lat="45.68149" lon="2.97905">
        <ele>910.4</ele>
        <time>2025-09-28T10:08:21Z</time>
      </trkpt>
      <trkpt lat="45.68151" lon="2.97908">
        <ele>910.4</ele>
        <time>2025-09-28T10:08:22Z</time>
      </trkpt>
      <trkpt lat="45.68153" lon="2.97912">
        <ele>910.4</ele>
        <time>2025-09-28T10:08:23Z</time>
      </trkpt>
      <trkpt lat="45.68156" lon="2.97915">
        <ele>910.6</ele>
        <time>2025-09-28T10:08:24Z</time>
      </trkpt>
      <trkpt lat="45.68158" lon="2.97918">
        <ele>910.6</ele>
        <time>2025-09-28T10:08:25Z</time>
      </trkpt>
      <trkpt lat="45.68161" lon="2.9792">
        <ele>910.6</ele>
        <time>2025-09-28T10:08:26Z</time>
      </trkpt>
      <trkpt lat="45.68164" lon="2.97922">
        <ele>910.8</ele>
        <time>2025-09-28T10:08:27Z</time>
      </trkpt>
      <trkpt lat="45.68167" lon="2.97923">
        <ele>910.8</ele>
        <time>2025-09-28T10:08:28Z</time>
      </trkpt>
      <trkpt lat="45.68171" lon="2.97923">
        <ele>910.8</ele>
        <time>2025-09-28T10:08:29Z</time>
      </trkpt>
      <trkpt lat="45.68175" lon="2.97925">
        <ele>911</ele>
        <time>2025-09-28T10:08:30Z</time>
      </trkpt>
      <trkpt lat="45.68179" lon="2.97928">
        <ele>911</ele>
        <time>2025-09-28T10:08:31Z</time>
      </trkpt>
      <trkpt lat="45.68183" lon="2.97931">
        <ele>911</ele>
        <time>2025-09-28T10:08:32Z</time>
      </trkpt>
      <trkpt lat="45.68188" lon="2.97932">
        <ele>911.2</ele>
        <time>2025-09-28T10:08:33Z</time>
      </trkpt>
      <trkpt lat="45.68192" lon="2.97933">
        <ele>911.2</ele>
        <time>2025-09-28T10:08:34Z</time>
      </trkpt>
      <trkpt lat="45.68197" lon="2.97934">
        <ele>911.2</ele>
        <time>2025-09-28T10:08:35Z</time>
      </trkpt>
      <trkpt lat="45.68202" lon="2.97936">
        <ele>911.4</ele>
        <time>2025-09-28T10:08:36Z</time>
      </trkpt>
      <trkpt lat="45.68205" lon="2.97938">
        <ele>911.4</ele>
        <time>2025-09-28T10:08:37Z</time>
      </trkpt>
      <trkpt lat="45.68209" lon="2.9794">
        <ele>911.6</ele>
        <time>2025-09-28T10:08:38Z</time>
      </trkpt>
      <trkpt lat="45.68214" lon="2.97941">
        <ele>911.6</ele>
        <time>2025-09-28T10:08:39Z</time>
      </trkpt>
      <trkpt lat="45.68219" lon="2.97941">
        <ele>911.8</ele>
        <time>2025-09-28T10:08:40Z</time>
      </trkpt>
      <trkpt lat="45.68224" lon="2.97943">
        <ele>912</ele>
        <time>2025-09-28T10:08:41Z</time>
      </trkpt>
      <trkpt lat="45.68228" lon="2.97947">
        <ele>912</ele>
        <time>2025-09-28T10:08:42Z</time>
      </trkpt>
      <trkpt lat="45.68231" lon="2.97949">
        <ele>912.2</ele>
        <time>2025-09-28T10:08:43Z</time>
      </trkpt>
      <trkpt lat="45.68235" lon="2.9795">
        <ele>912.4</ele>
        <time>2025-09-28T10:08:44Z</time>
      </trkpt>
      <trkpt lat="45.68239" lon="2.9795">
        <ele>912.4</ele>
        <time>2025-09-28T10:08:45Z</time>
      </trkpt>
      <trkpt lat="45.68243" lon="2.97951">
        <ele>912.6</ele>
        <time>2025-09-28T10:08:46Z</time>
      </trkpt>
      <trkpt lat="45.68246" lon="2.97953">
        <ele>912.8</ele>
        <time>2025-09-28T10:08:47Z</time>
      </trkpt>
      <trkpt lat="45.68249" lon="2.97955">
        <ele>913</ele>
        <time>2025-09-28T10:08:48Z</time>
      </trkpt>
      <trkpt lat="45.68253" lon="2.97956">
        <ele>913.2</ele>
        <time>2025-09-28T10:08:49Z</time>
      </trkpt>
      <trkpt lat="45.68258" lon="2.97955">
        <ele>913.4</ele>
        <time>2025-09-28T10:08:50Z</time>
      </trkpt>
      <trkpt lat="45.68262" lon="2.97953">
        <ele>913.6</ele>
        <time>2025-09-28T10:08:51Z</time>
      </trkpt>
      <trkpt lat="45.68265" lon="2.9795">
        <ele>913.6</ele>
        <time>2025-09-28T10:08:52Z</time>
      </trkpt>
      <trkpt lat="45.68267" lon="2.97949">
        <ele>913.8</ele>
        <time>2025-09-28T10:08:53Z</time>
      </trkpt>
      <trkpt lat="45.68269" lon="2.9795">
        <ele>914</ele>
        <time>2025-09-28T10:08:54Z</time>
      </trkpt>
      <trkpt lat="45.68272" lon="2.97953">
        <ele>914.2</ele>
        <time>2025-09-28T10:08:55Z</time>
      </trkpt>
      <trkpt lat="45.68274" lon="2.97955">
        <ele>914.4</ele>
        <time>2025-09-28T10:08:56Z</time>
      </trkpt>
      <trkpt lat="45.68276" lon="2.97957">
        <ele>914.6</ele>
        <time>2025-09-28T10:08:57Z</time>
      </trkpt>
      <trkpt lat="45.68279" lon="2.97957">
        <ele>915</ele>
        <time>2025-09-28T10:08:58Z</time>
      </trkpt>
      <trkpt lat="45.68282" lon="2.97956">
        <ele>915.2</ele>
        <time>2025-09-28T10:08:59Z</time>
      </trkpt>
      <trkpt lat="45.68286" lon="2.97955">
        <ele>915.4</ele>
        <time>2025-09-28T10:09:00Z</time>
      </trkpt>
      <trkpt lat="45.6829" lon="2.97952">
        <ele>915.6</ele>
        <time>2025-09-28T10:09:01Z</time>
      </trkpt>
      <trkpt lat="45.68294" lon="2.9795">
        <ele>915.6</ele>
        <time>2025-09-28T10:09:02Z</time>
      </trkpt>
      <trkpt lat="45.68297" lon="2.9795">
        <ele>915.8</ele>
        <time>2025-09-28T10:09:03Z</time>
      </trkpt>
      <trkpt lat="45.68299" lon="2.97949">
        <ele>916</ele>
        <time>2025-09-28T10:09:04Z</time>
      </trkpt>
      <trkpt lat="45.68301" lon="2.97949">
        <ele>916.2</ele>
        <time>2025-09-28T10:09:05Z</time>
      </trkpt>
      <trkpt lat="45.68303" lon="2.97951">
        <ele>916.4</ele>
        <time>2025-09-28T10:09:06Z</time>
      </trkpt>
      <trkpt lat="45.68306" lon="2.97952">
        <ele>916.6</ele>
        <time>2025-09-28T10:09:07Z</time>
      </trkpt>
      <trkpt lat="45.68308" lon="2.97954">
        <ele>916.8</ele>
        <time>2025-09-28T10:09:08Z</time>
      </trkpt>
      <trkpt lat="45.6831" lon="2.97957">
        <ele>916.8</ele>
        <time>2025-09-28T10:09:09Z</time>
      </trkpt>
      <trkpt lat="45.68313" lon="2.97958">
        <ele>917</ele>
        <time>2025-09-28T10:09:10Z</time>
      </trkpt>
      <trkpt lat="45.68317" lon="2.97958">
        <ele>917</ele>
        <time>2025-09-28T10:09:11Z</time>
      </trkpt>
      <trkpt lat="45.68322" lon="2.97954">
        <ele>917</ele>
        <time>2025-09-28T10:09:12Z</time>
      </trkpt>
      <trkpt lat="45.68329" lon="2.97949">
        <ele>917</ele>
        <time>2025-09-28T10:09:13Z</time>
      </trkpt>
      <trkpt lat="45.68335" lon="2.97947">
        <ele>917.2</ele>
        <time>2025-09-28T10:09:14Z</time>
      </trkpt>
      <trkpt lat="45.68339" lon="2.97948">
        <ele>917.2</ele>
        <time>2025-09-28T10:09:15Z</time>
      </trkpt>
      <trkpt lat="45.68343" lon="2.97949">
        <ele>917.2</ele>
        <time>2025-09-28T10:09:16Z</time>
      </trkpt>
      <trkpt lat="45.68346" lon="2.97954">
        <ele>917.2</ele>
        <time>2025-09-28T10:09:17Z</time>
      </trkpt>
      <trkpt lat="45.68349" lon="2.97958">
        <ele>917.4</ele>
        <time>2025-09-28T10:09:18Z</time>
      </trkpt>
      <trkpt lat="45.68351" lon="2.97961">
        <ele>917.4</ele>
        <time>2025-09-28T10:09:19Z</time>
      </trkpt>
      <trkpt lat="45.68354" lon="2.97962">
        <ele>917.4</ele>
        <time>2025-09-28T10:09:20Z</time>
      </trkpt>
      <trkpt lat="45.68356" lon="2.97964">
        <ele>917.6</ele>
        <time>2025-09-28T10:09:21Z</time>
      </trkpt>
      <trkpt lat="45.6836" lon="2.97968">
        <ele>917.6</ele>
        <time>2025-09-28T10:09:22Z</time>
      </trkpt>
      <trkpt lat="45.68363" lon="2.97972">
        <ele>917.6</ele>
        <time>2025-09-28T10:09:23Z</time>
      </trkpt>
      <trkpt lat="45.68367" lon="2.97974">
        <ele>917.8</ele>
        <time>2025-09-28T10:09:24Z</time>
      </trkpt>
      <trkpt lat="45.68371" lon="2.97976">
        <ele>917.8</ele>
        <time>2025-09-28T10:09:25Z</time>
      </trkpt>
      <trkpt lat="45.68374" lon="2.97977">
        <ele>918</ele>
        <time>2025-09-28T10:09:26Z</time>
      </trkpt>
      <trkpt lat="45.68377" lon="2.97979">
        <ele>918</ele>
        <time>2025-09-28T10:09:27Z</time>
      </trkpt>
      <trkpt lat="45.6838" lon="2.97979">
        <ele>918.2</ele>
        <time>2025-09-28T10:09:28Z</time>
      </trkpt>
      <trkpt lat="45.68384" lon="2.97978">
        <ele>918.4</ele>
        <time>2025-09-28T10:09:29Z</time>
      </trkpt>
      <trkpt lat="45.68388" lon="2.97977">
        <ele>918.6</ele>
        <time>2025-09-28T10:09:30Z</time>
      </trkpt>
      <trkpt lat="45.68391" lon="2.97979">
        <ele>918.8</ele>
        <time>2025-09-28T10:09:31Z</time>
      </trkpt>
      <trkpt lat="45.68395" lon="2.97981">
        <ele>919</ele>
        <time>2025-09-28T10:09:32Z</time>
      </trkpt>
      <trkpt lat="45.68399" lon="2.97982">
        <ele>919.2</ele>
        <time>2025-09-28T10:09:33Z</time>
      </trkpt>
      <trkpt lat="45.68402" lon="2.97981">
        <ele>919.4</ele>
        <time>2025-09-28T10:09:34Z</time>
      </trkpt>
      <trkpt lat="45.68406" lon="2.97979">
        <ele>919.6</ele>
        <time>2025-09-28T10:09:35Z</time>
      </trkpt>
      <trkpt lat="45.6841" lon="2.97976">
        <ele>919.8</ele>
        <time>2025-09-28T10:09:36Z</time>
      </trkpt>
      <trkpt lat="45.68414" lon="2.97973">
        <ele>919.8</ele>
        <time>2025-09-28T10:09:37Z</time>
      </trkpt>
      <trkpt lat="45.68418" lon="2.97972">
        <ele>920</ele>
        <time>2025-09-28T10:09:38Z</time>
      </trkpt>
      <trkpt lat="45.68421" lon="2.97972">
        <ele>920.2</ele>
        <time>2025-09-28T10:09:39Z</time>
      </trkpt>
      <trkpt lat="45.68423" lon="2.97973">
        <ele>920.4</ele>
        <time>2025-09-28T10:09:40Z</time>
      </trkpt>
      <trkpt lat="45.68426" lon="2.97973">
        <ele>920.6</ele>
        <time>2025-09-28T10:09:41Z</time>
      </trkpt>
      <trkpt lat="45.68428" lon="2.97972">
        <ele>920.8</ele>
        <time>2025-09-28T10:09:42Z</time>
      </trkpt>
      <trkpt lat="45.68431" lon="2.9797">
        <ele>921</ele>
        <time>2025-09-28T10:09:43Z</time>
      </trkpt>
      <trkpt lat="45.68434" lon="2.97968">
        <ele>921.2</ele>
        <time>2025-09-28T10:09:44Z</time>
      </trkpt>
      <trkpt lat="45.68437" lon="2.97965">
        <ele>921.6</ele>
        <time>2025-09-28T10:09:45Z</time>
      </trkpt>
      <trkpt lat="45.68438" lon="2.97962">
        <ele>921.8</ele>
        <time>2025-09-28T10:09:46Z</time>
      </trkpt>
      <trkpt lat="45.68439" lon="2.97962">
        <ele>922</ele>
        <time>2025-09-28T10:09:47Z</time>
      </trkpt>
      <trkpt lat="45.6844" lon="2.97962">
        <ele>922.4</ele>
        <time>2025-09-28T10:09:48Z</time>
      </trkpt>
      <trkpt lat="45.68442" lon="2.97964">
        <ele>922.6</ele>
        <time>2025-09-28T10:09:49Z</time>
      </trkpt>
      <trkpt lat="45.68443" lon="2.97965">
        <ele>922.8</ele>
        <time>2025-09-28T10:09:50Z</time>
      </trkpt>
      <trkpt lat="45.68444" lon="2.97965">
        <ele>923</ele>
        <time>2025-09-28T10:09:51Z</time>
      </trkpt>
      <trkpt lat="45.68445" lon="2.97966">
        <ele>923.4</ele>
        <time>2025-09-28T10:09:52Z</time>
      </trkpt>
      <trkpt lat="45.68447" lon="2.97968">
        <ele>923.6</ele>
        <time>2025-09-28T10:09:53Z</time>
      </trkpt>
      <trkpt lat="45.68449" lon="2.97969">
        <ele>923.8</ele>
        <time>2025-09-28T10:09:54Z</time>
      </trkpt>
      <trkpt lat="45.68451" lon="2.97972">
        <ele>924</ele>
        <time>2025-09-28T10:09:55Z</time>
      </trkpt>
      <trkpt lat="45.68452" lon="2.97975">
        <ele>924.4</ele>
        <time>2025-09-28T10:09:56Z</time>
      </trkpt>
      <trkpt lat="45.68454" lon="2.97979">
        <ele>924.6</ele>
        <time>2025-09-28T10:09:57Z</time>
      </trkpt>
      <trkpt lat="45.68455" lon="2.97981">
        <ele>924.8</ele>
        <time>2025-09-28T10:09:58Z</time>
      </trkpt>
      <trkpt lat="45.68457" lon="2.97983">
        <ele>925</ele>
        <time>2025-09-28T10:09:59Z</time>
      </trkpt>
      <trkpt lat="45.68459" lon="2.97985">
        <ele>925.2</ele>
        <time>2025-09-28T10:10:00Z</time>
      </trkpt>
      <trkpt lat="45.6846" lon="2.97986">
        <ele>925.4</ele>
        <time>2025-09-28T10:10:01Z</time>
      </trkpt>
      <trkpt lat="45.68462" lon="2.97988">
        <ele>925.6</ele>
        <time>2025-09-28T10:10:02Z</time>
      </trkpt>
      <trkpt lat="45.68463" lon="2.9799">
        <ele>925.6</ele>
        <time>2025-09-28T10:10:03Z</time>
      </trkpt>
      <trkpt lat="45.68466" lon="2.97994">
        <ele>925.4</ele>
        <time>2025-09-28T10:10:04Z</time>
      </trkpt>
      <trkpt lat="45.68469" lon="2.97998">
        <ele>925.4</ele>
        <time>2025-09-28T10:10:05Z</time>
      </trkpt>
      <trkpt lat="45.68472" lon="2.98001">
        <ele>925.2</ele>
        <time>2025-09-28T10:10:06Z</time>
      </trkpt>
      <trkpt lat="45.68475" lon="2.98005">
        <ele>925</ele>
        <time>2025-09-28T10:10:07Z</time>
      </trkpt>
      <trkpt lat="45.68478" lon="2.98009">
        <ele>924.8</ele>
        <time>2025-09-28T10:10:08Z</time>
      </trkpt>
      <trkpt lat="45.68481" lon="2.98013">
        <ele>924.4</ele>
        <time>2025-09-28T10:10:09Z</time>
      </trkpt>
      <trkpt lat="45.68485" lon="2.98016">
        <ele>924.2</ele>
        <time>2025-09-28T10:10:10Z</time>
      </trkpt>
      <trkpt lat="45.6849" lon="2.9802">
        <ele>924</ele>
        <time>2025-09-28T10:10:11Z</time>
      </trkpt>
      <trkpt lat="45.68495" lon="2.98023">
        <ele>924</ele>
        <time>2025-09-28T10:10:12Z</time>
      </trkpt>
      <trkpt lat="45.685" lon="2.98027">
        <ele>923.8</ele>
        <time>2025-09-28T10:10:13Z</time>
      </trkpt>
      <trkpt lat="45.68504" lon="2.98031">
        <ele>923.6</ele>
        <time>2025-09-28T10:10:14Z</time>
      </trkpt>
      <trkpt lat="45.68509" lon="2.98033">
        <ele>923.6</ele>
        <time>2025-09-28T10:10:15Z</time>
      </trkpt>
      <trkpt lat="45.68513" lon="2.98034">
        <ele>923.6</ele>
        <time>2025-09-28T10:10:16Z</time>
      </trkpt>
      <trkpt lat="45.68517" lon="2.98037">
        <ele>923.4</ele>
        <time>2025-09-28T10:10:17Z</time>
      </trkpt>
      <trkpt lat="45.68521" lon="2.98042">
        <ele>923.4</ele>
        <time>2025-09-28T10:10:18Z</time>
      </trkpt>
      <trkpt lat="45.68525" lon="2.98045">
        <ele>923.4</ele>
        <time>2025-09-28T10:10:19Z</time>
      </trkpt>
      <trkpt lat="45.6853" lon="2.98049">
        <ele>923.4</ele>
        <time>2025-09-28T10:10:20Z</time>
      </trkpt>
      <trkpt lat="45.68536" lon="2.98054">
        <ele>923.4</ele>
        <time>2025-09-28T10:10:21Z</time>
      </trkpt>
      <trkpt lat="45.68541" lon="2.98056">
        <ele>923.6</ele>
        <time>2025-09-28T10:10:22Z</time>
      </trkpt>
      <trkpt lat="45.68547" lon="2.98054">
        <ele>923.6</ele>
        <time>2025-09-28T10:10:23Z</time>
      </trkpt>
      <trkpt lat="45.68554" lon="2.98052">
        <ele>923.8</ele>
        <time>2025-09-28T10:10:24Z</time>
      </trkpt>
      <trkpt lat="45.68559" lon="2.98051">
        <ele>923.8</ele>
        <time>2025-09-28T10:10:25Z</time>
      </trkpt>
      <trkpt lat="45.68565" lon="2.98051">
        <ele>923.8</ele>
        <time>2025-09-28T10:10:26Z</time>
      </trkpt>
      <trkpt lat="45.68571" lon="2.98052">
        <ele>923.8</ele>
        <time>2025-09-28T10:10:27Z</time>
      </trkpt>
      <trkpt lat="45.68576" lon="2.98055">
        <ele>923.8</ele>
        <time>2025-09-28T10:10:28Z</time>
      </trkpt>
      <trkpt lat="45.68579" lon="2.98059">
        <ele>923.8</ele>
        <time>2025-09-28T10:10:29Z</time>
      </trkpt>
      <trkpt lat="45.68582" lon="2.98064">
        <ele>923.8</ele>
        <time>2025-09-28T10:10:30Z</time>
      </trkpt>
      <trkpt lat="45.68585" lon="2.98071">
        <ele>923.8</ele>
        <time>2025-09-28T10:10:31Z</time>
      </trkpt>
      <trkpt lat="45.68588" lon="2.98076">
        <ele>923.6</ele>
        <time>2025-09-28T10:10:32Z</time>
      </trkpt>
      <trkpt lat="45.68591" lon="2.98083">
        <ele>923.4</ele>
        <time>2025-09-28T10:10:33Z</time>
      </trkpt>
      <trkpt lat="45.68594" lon="2.98089">
        <ele>923</ele>
        <time>2025-09-28T10:10:34Z</time>
      </trkpt>
      <trkpt lat="45.68597" lon="2.98095">
        <ele>922.8</ele>
        <time>2025-09-28T10:10:35Z</time>
      </trkpt>
      <trkpt lat="45.68599" lon="2.98099">
        <ele>922.4</ele>
        <time>2025-09-28T10:10:36Z</time>
      </trkpt>
      <trkpt lat="45.68601" lon="2.98105">
        <ele>922.2</ele>
        <time>2025-09-28T10:10:37Z</time>
      </trkpt>
      <trkpt lat="45.68603" lon="2.98111">
        <ele>922</ele>
        <time>2025-09-28T10:10:38Z</time>
      </trkpt>
      <trkpt lat="45.68605" lon="2.98117">
        <ele>921.6</ele>
        <time>2025-09-28T10:10:39Z</time>
      </trkpt>
      <trkpt lat="45.68607" lon="2.98125">
        <ele>921.4</ele>
        <time>2025-09-28T10:10:40Z</time>
      </trkpt>
      <trkpt lat="45.68609" lon="2.98131">
        <ele>921.4</ele>
        <time>2025-09-28T10:10:41Z</time>
      </trkpt>
      <trkpt lat="45.68611" lon="2.98137">
        <ele>921.2</ele>
        <time>2025-09-28T10:10:42Z</time>
      </trkpt>
      <trkpt lat="45.68613" lon="2.98144">
        <ele>921.2</ele>
        <time>2025-09-28T10:10:43Z</time>
      </trkpt>
      <trkpt lat="45.68615" lon="2.98151">
        <ele>921</ele>
        <time>2025-09-28T10:10:44Z</time>
      </trkpt>
      <trkpt lat="45.68619" lon="2.98157">
        <ele>921</ele>
        <time>2025-09-28T10:10:45Z</time>
      </trkpt>
      <trkpt lat="45.68622" lon="2.98164">
        <ele>920.8</ele>
        <time>2025-09-28T10:10:46Z</time>
      </trkpt>
      <trkpt lat="45.68626" lon="2.98171">
        <ele>920.6</ele>
        <time>2025-09-28T10:10:47Z</time>
      </trkpt>
      <trkpt lat="45.68631" lon="2.98178">
        <ele>920.4</ele>
        <time>2025-09-28T10:10:48Z</time>
      </trkpt>
      <trkpt lat="45.68635" lon="2.98186">
        <ele>920.2</ele>
        <time>2025-09-28T10:10:49Z</time>
      </trkpt>
      <trkpt lat="45.6864" lon="2.98194">
        <ele>920.2</ele>
        <time>2025-09-28T10:10:50Z</time>
      </trkpt>
      <trkpt lat="45.68643" lon="2.98201">
        <ele>920</ele>
        <time>2025-09-28T10:10:51Z</time>
      </trkpt>
      <trkpt lat="45.68646" lon="2.98206">
        <ele>920</ele>
        <time>2025-09-28T10:10:52Z</time>
      </trkpt>
      <trkpt lat="45.68649" lon="2.98212">
        <ele>919.8</ele>
        <time>2025-09-28T10:10:53Z</time>
      </trkpt>
      <trkpt lat="45.68651" lon="2.98217">
        <ele>919.6</ele>
        <time>2025-09-28T10:10:54Z</time>
      </trkpt>
      <trkpt lat="45.68654" lon="2.98222">
        <ele>919.4</ele>
        <time>2025-09-28T10:10:55Z</time>
      </trkpt>
      <trkpt lat="45.68656" lon="2.98227">
        <ele>919.2</ele>
        <time>2025-09-28T10:10:56Z</time>
      </trkpt>
      <trkpt lat="45.68659" lon="2.98232">
        <ele>919</ele>
        <time>2025-09-28T10:10:57Z</time>
      </trkpt>
      <trkpt lat="45.68661" lon="2.98238">
        <ele>918.8</ele>
        <time>2025-09-28T10:10:58Z</time>
      </trkpt>
      <trkpt lat="45.68664" lon="2.98244">
        <ele>918.8</ele>
        <time>2025-09-28T10:10:59Z</time>
      </trkpt>
      <trkpt lat="45.68667" lon="2.98248">
        <ele>918.6</ele>
        <time>2025-09-28T10:11:00Z</time>
      </trkpt>
      <trkpt lat="45.6867" lon="2.98253">
        <ele>918.6</ele>
        <time>2025-09-28T10:11:01Z</time>
      </trkpt>
      <trkpt lat="45.68673" lon="2.98262">
        <ele>918.6</ele>
        <time>2025-09-28T10:11:02Z</time>
      </trkpt>
      <trkpt lat="45.68675" lon="2.98271">
        <ele>918.4</ele>
        <time>2025-09-28T10:11:03Z</time>
      </trkpt>
      <trkpt lat="45.68677" lon="2.98276">
        <ele>918.4</ele>
        <time>2025-09-28T10:11:04Z</time>
      </trkpt>
      <trkpt lat="45.68678" lon="2.9828">
        <ele>918.4</ele>
        <time>2025-09-28T10:11:05Z</time>
      </trkpt>
      <trkpt lat="45.6868" lon="2.98285">
        <ele>918.2</ele>
        <time>2025-09-28T10:11:06Z</time>
      </trkpt>
      <trkpt lat="45.68681" lon="2.98289">
        <ele>918.2</ele>
        <time>2025-09-28T10:11:07Z</time>
      </trkpt>
      <trkpt lat="45.68682" lon="2.98294">
        <ele>918.2</ele>
        <time>2025-09-28T10:11:08Z</time>
      </trkpt>
      <trkpt lat="45.68682" lon="2.98301">
        <ele>918</ele>
        <time>2025-09-28T10:11:09Z</time>
      </trkpt>
      <trkpt lat="45.68682" lon="2.98308">
        <ele>918</ele>
        <time>2025-09-28T10:11:10Z</time>
      </trkpt>
      <trkpt lat="45.68682" lon="2.98315">
        <ele>918</ele>
        <time>2025-09-28T10:11:11Z</time>
      </trkpt>
      <trkpt lat="45.68681" lon="2.98322">
        <ele>917.8</ele>
        <time>2025-09-28T10:11:12Z</time>
      </trkpt>
      <trkpt lat="45.68681" lon="2.98328">
        <ele>917.8</ele>
        <time>2025-09-28T10:11:13Z</time>
      </trkpt>
      <trkpt lat="45.68681" lon="2.98334">
        <ele>917.6</ele>
        <time>2025-09-28T10:11:14Z</time>
      </trkpt>
      <trkpt lat="45.6868" lon="2.98343">
        <ele>917.6</ele>
        <time>2025-09-28T10:11:15Z</time>
      </trkpt>
      <trkpt lat="45.68679" lon="2.98354">
        <ele>917.4</ele>
        <time>2025-09-28T10:11:16Z</time>
      </trkpt>
      <trkpt lat="45.68678" lon="2.98364">
        <ele>917.2</ele>
        <time>2025-09-28T10:11:17Z</time>
      </trkpt>
      <trkpt lat="45.68677" lon="2.98371">
        <ele>917</ele>
        <time>2025-09-28T10:11:18Z</time>
      </trkpt>
      <trkpt lat="45.68678" lon="2.9838">
        <ele>916.8</ele>
        <time>2025-09-28T10:11:19Z</time>
      </trkpt>
      <trkpt lat="45.6868" lon="2.98388">
        <ele>916.6</ele>
        <time>2025-09-28T10:11:20Z</time>
      </trkpt>
      <trkpt lat="45.68683" lon="2.98395">
        <ele>916.4</ele>
        <time>2025-09-28T10:11:21Z</time>
      </trkpt>
      <trkpt lat="45.68685" lon="2.98402">
        <ele>916.4</ele>
        <time>2025-09-28T10:11:22Z</time>
      </trkpt>
      <trkpt lat="45.68688" lon="2.98409">
        <ele>916.2</ele>
        <time>2025-09-28T10:11:23Z</time>
      </trkpt>
      <trkpt lat="45.68692" lon="2.98415">
        <ele>916.2</ele>
        <time>2025-09-28T10:11:24Z</time>
      </trkpt>
      <trkpt lat="45.68695" lon="2.98422">
        <ele>916</ele>
        <time>2025-09-28T10:11:25Z</time>
      </trkpt>
      <trkpt lat="45.687" lon="2.9843">
        <ele>916</ele>
        <time>2025-09-28T10:11:26Z</time>
      </trkpt>
      <trkpt lat="45.68704" lon="2.98437">
        <ele>916</ele>
        <time>2025-09-28T10:11:27Z</time>
      </trkpt>
      <trkpt lat="45.68709" lon="2.98441">
        <ele>916</ele>
        <time>2025-09-28T10:11:28Z</time>
      </trkpt>
      <trkpt lat="45.68712" lon="2.98444">
        <ele>916</ele>
        <time>2025-09-28T10:11:29Z</time>
      </trkpt>
      <trkpt lat="45.68716" lon="2.98448">
        <ele>916</ele>
        <time>2025-09-28T10:11:30Z</time>
      </trkpt>
      <trkpt lat="45.68721" lon="2.98452">
        <ele>915.8</ele>
        <time>2025-09-28T10:11:31Z</time>
      </trkpt>
      <trkpt lat="45.68726" lon="2.98456">
        <ele>915.8</ele>
        <time>2025-09-28T10:11:32Z</time>
      </trkpt>
      <trkpt lat="45.6873" lon="2.98458">
        <ele>915.8</ele>
        <time>2025-09-28T10:11:33Z</time>
      </trkpt>
      <trkpt lat="45.68734" lon="2.98461">
        <ele>915.8</ele>
        <time>2025-09-28T10:11:34Z</time>
      </trkpt>
      <trkpt lat="45.68737" lon="2.98465">
        <ele>915.6</ele>
        <time>2025-09-28T10:11:35Z</time>
      </trkpt>
      <trkpt lat="45.68739" lon="2.9847">
        <ele>915.4</ele>
        <time>2025-09-28T10:11:36Z</time>
      </trkpt>
      <trkpt lat="45.68742" lon="2.98481">
        <ele>915.2</ele>
        <time>2025-09-28T10:11:37Z</time>
      </trkpt>
      <trkpt lat="45.68744" lon="2.98495">
        <ele>915</ele>
        <time>2025-09-28T10:11:38Z</time>
      </trkpt>
      <trkpt lat="45.68745" lon="2.98504">
        <ele>914.8</ele>
        <time>2025-09-28T10:11:39Z</time>
      </trkpt>
      <trkpt lat="45.68746" lon="2.9851">
        <ele>914.6</ele>
        <time>2025-09-28T10:11:40Z</time>
      </trkpt>
      <trkpt lat="45.68748" lon="2.98515">
        <ele>914.4</ele>
        <time>2025-09-28T10:11:41Z</time>
      </trkpt>
      <trkpt lat="45.68749" lon="2.98518">
        <ele>914.4</ele>
        <time>2025-09-28T10:11:42Z</time>
      </trkpt>
      <trkpt lat="45.68751" lon="2.98522">
        <ele>914.2</ele>
        <time>2025-09-28T10:11:43Z</time>
      </trkpt>
      <trkpt lat="45.68753" lon="2.98526">
        <ele>914.2</ele>
        <time>2025-09-28T10:11:44Z</time>
      </trkpt>
      <trkpt lat="45.68755" lon="2.98533">
        <ele>914</ele>
        <time>2025-09-28T10:11:45Z</time>
      </trkpt>
      <trkpt lat="45.68758" lon="2.9854">
        <ele>914.2</ele>
        <time>2025-09-28T10:11:46Z</time>
      </trkpt>
      <trkpt lat="45.68761" lon="2.98546">
        <ele>914.2</ele>
        <time>2025-09-28T10:11:47Z</time>
      </trkpt>
      <trkpt lat="45.68765" lon="2.9855">
        <ele>914.2</ele>
        <time>2025-09-28T10:11:48Z</time>
      </trkpt>
      <trkpt lat="45.68769" lon="2.98555">
        <ele>914.2</ele>
        <time>2025-09-28T10:11:49Z</time>
      </trkpt>
      <trkpt lat="45.68773" lon="2.98559">
        <ele>914.4</ele>
        <time>2025-09-28T10:11:50Z</time>
      </trkpt>
      <trkpt lat="45.68776" lon="2.98563">
        <ele>914.4</ele>
        <time>2025-09-28T10:11:51Z</time>
      </trkpt>
      <trkpt lat="45.6878" lon="2.98567">
        <ele>914.6</ele>
        <time>2025-09-28T10:11:52Z</time>
      </trkpt>
      <trkpt lat="45.68783" lon="2.98573">
        <ele>914.6</ele>
        <time>2025-09-28T10:11:53Z</time>
      </trkpt>
      <trkpt lat="45.68787" lon="2.98579">
        <ele>914.8</ele>
        <time>2025-09-28T10:11:54Z</time>
      </trkpt>
      <trkpt lat="45.6879" lon="2.98588">
        <ele>915</ele>
        <time>2025-09-28T10:11:55Z</time>
      </trkpt>
      <trkpt lat="45.68792" lon="2.98596">
        <ele>915.4</ele>
        <time>2025-09-28T10:11:56Z</time>
      </trkpt>
      <trkpt lat="45.68793" lon="2.986">
        <ele>915.6</ele>
        <time>2025-09-28T10:11:57Z</time>
      </trkpt>
      <trkpt lat="45.68796" lon="2.98605">
        <ele>916</ele>
        <time>2025-09-28T10:11:58Z</time>
      </trkpt>
      <trkpt lat="45.68799" lon="2.98609">
        <ele>916.2</ele>
        <time>2025-09-28T10:11:59Z</time>
      </trkpt>
      <trkpt lat="45.68801" lon="2.98615">
        <ele>916.6</ele>
        <time>2025-09-28T10:12:00Z</time>
      </trkpt>
      <trkpt lat="45.68803" lon="2.9862">
        <ele>916.8</ele>
        <time>2025-09-28T10:12:01Z</time>
      </trkpt>
      <trkpt lat="45.68805" lon="2.98623">
        <ele>917.2</ele>
        <time>2025-09-28T10:12:02Z</time>
      </trkpt>
      <trkpt lat="45.68808" lon="2.98625">
        <ele>917.4</ele>
        <time>2025-09-28T10:12:03Z</time>
      </trkpt>
      <trkpt lat="45.6881" lon="2.98628">
        <ele>917.8</ele>
        <time>2025-09-28T10:12:04Z</time>
      </trkpt>
      <trkpt lat="45.68813" lon="2.98631">
        <ele>918</ele>
        <time>2025-09-28T10:12:05Z</time>
      </trkpt>
      <trkpt lat="45.68814" lon="2.98633">
        <ele>918.4</ele>
        <time>2025-09-28T10:12:06Z</time>
      </trkpt>
      <trkpt lat="45.68816" lon="2.98634">
        <ele>918.6</ele>
        <time>2025-09-28T10:12:07Z</time>
      </trkpt>
      <trkpt lat="45.68817" lon="2.98634">
        <ele>918.8</ele>
        <time>2025-09-28T10:12:08Z</time>
      </trkpt>
      <trkpt lat="45.68819" lon="2.98635">
        <ele>919</ele>
        <time>2025-09-28T10:12:09Z</time>
      </trkpt>
      <trkpt lat="45.68821" lon="2.98637">
        <ele>919.2</ele>
        <time>2025-09-28T10:12:10Z</time>
      </trkpt>
      <trkpt lat="45.68824" lon="2.98641">
        <ele>919.4</ele>
        <time>2025-09-28T10:12:11Z</time>
      </trkpt>
      <trkpt lat="45.68826" lon="2.98648">
        <ele>919.6</ele>
        <time>2025-09-28T10:12:12Z</time>
      </trkpt>
      <trkpt lat="45.68828" lon="2.98654">
        <ele>919.8</ele>
        <time>2025-09-28T10:12:13Z</time>
      </trkpt>
      <trkpt lat="45.6883" lon="2.98657">
        <ele>920.2</ele>
        <time>2025-09-28T10:12:14Z</time>
      </trkpt>
      <trkpt lat="45.68832" lon="2.98659">
        <ele>920.4</ele>
        <time>2025-09-28T10:12:15Z</time>
      </trkpt>
      <trkpt lat="45.68835" lon="2.98661">
        <ele>920.6</ele>
        <time>2025-09-28T10:12:16Z</time>
      </trkpt>
      <trkpt lat="45.68839" lon="2.98662">
        <ele>920.8</ele>
        <time>2025-09-28T10:12:17Z</time>
      </trkpt>
      <trkpt lat="45.68841" lon="2.98663">
        <ele>921.2</ele>
        <time>2025-09-28T10:12:18Z</time>
      </trkpt>
      <trkpt lat="45.68843" lon="2.98664">
        <ele>921.4</ele>
        <time>2025-09-28T10:12:19Z</time>
      </trkpt>
      <trkpt lat="45.68846" lon="2.98667">
        <ele>921.6</ele>
        <time>2025-09-28T10:12:20Z</time>
      </trkpt>
      <trkpt lat="45.68849" lon="2.98669">
        <ele>921.8</ele>
        <time>2025-09-28T10:12:21Z</time>
      </trkpt>
      <trkpt lat="45.68852" lon="2.98672">
        <ele>922</ele>
        <time>2025-09-28T10:12:22Z</time>
      </trkpt>
      <trkpt lat="45.68856" lon="2.98675">
        <ele>922.2</ele>
        <time>2025-09-28T10:12:23Z</time>
      </trkpt>
      <trkpt lat="45.68859" lon="2.98679">
        <ele>922.4</ele>
        <time>2025-09-28T10:12:24Z</time>
      </trkpt>
      <trkpt lat="45.68862" lon="2.98681">
        <ele>922.6</ele>
        <time>2025-09-28T10:12:25Z</time>
      </trkpt>
      <trkpt lat="45.68865" lon="2.98682">
        <ele>922.6</ele>
        <time>2025-09-28T10:12:26Z</time>
      </trkpt>
      <trkpt lat="45.68866" lon="2.98682">
        <ele>922.8</ele>
        <time>2025-09-28T10:12:27Z</time>
      </trkpt>
      <trkpt lat="45.68869" lon="2.98682">
        <ele>923</ele>
        <time>2025-09-28T10:12:28Z</time>
      </trkpt>
      <trkpt lat="45.68871" lon="2.98683">
        <ele>923.2</ele>
        <time>2025-09-28T10:12:29Z</time>
      </trkpt>
      <trkpt lat="45.68873" lon="2.98684">
        <ele>923.2</ele>
        <time>2025-09-28T10:12:30Z</time>
      </trkpt>
      <trkpt lat="45.68877" lon="2.98685">
        <ele>923.4</ele>
        <time>2025-09-28T10:12:31Z</time>
      </trkpt>
      <trkpt lat="45.6888" lon="2.98686">
        <ele>923.6</ele>
        <time>2025-09-28T10:12:32Z</time>
      </trkpt>
      <trkpt lat="45.68884" lon="2.98687">
        <ele>923.8</ele>
        <time>2025-09-28T10:12:33Z</time>
      </trkpt>
      <trkpt lat="45.68887" lon="2.98688">
        <ele>924</ele>
        <time>2025-09-28T10:12:34Z</time>
      </trkpt>
      <trkpt lat="45.68891" lon="2.98688">
        <ele>924.2</ele>
        <time>2025-09-28T10:12:35Z</time>
      </trkpt>
      <trkpt lat="45.68894" lon="2.98688">
        <ele>924.4</ele>
        <time>2025-09-28T10:12:36Z</time>
      </trkpt>
      <trkpt lat="45.68898" lon="2.98688">
        <ele>924.6</ele>
        <time>2025-09-28T10:12:37Z</time>
      </trkpt>
      <trkpt lat="45.68902" lon="2.98687">
        <ele>924.8</ele>
        <time>2025-09-28T10:12:38Z</time>
      </trkpt>
      <trkpt lat="45.68905" lon="2.98684">
        <ele>925</ele>
        <time>2025-09-28T10:12:39Z</time>
      </trkpt>
      <trkpt lat="45.68908" lon="2.98682">
        <ele>925.2</ele>
        <time>2025-09-28T10:12:40Z</time>
      </trkpt>
      <trkpt lat="45.68911" lon="2.9868">
        <ele>925.2</ele>
        <time>2025-09-28T10:12:41Z</time>
      </trkpt>
      <trkpt lat="45.68914" lon="2.98678">
        <ele>925.2</ele>
        <time>2025-09-28T10:12:42Z</time>
      </trkpt>
      <trkpt lat="45.68917" lon="2.98675">
        <ele>925.2</ele>
        <time>2025-09-28T10:12:43Z</time>
      </trkpt>
      <trkpt lat="45.68921" lon="2.98674">
        <ele>925.2</ele>
        <time>2025-09-28T10:12:44Z</time>
      </trkpt>
      <trkpt lat="45.68924" lon="2.98675">
        <ele>925</ele>
        <time>2025-09-28T10:12:45Z</time>
      </trkpt>
      <trkpt lat="45.68928" lon="2.98676">
        <ele>924.8</ele>
        <time>2025-09-28T10:12:46Z</time>
      </trkpt>
      <trkpt lat="45.68932" lon="2.98679">
        <ele>924.8</ele>
        <time>2025-09-28T10:12:47Z</time>
      </trkpt>
      <trkpt lat="45.68936" lon="2.98683">
        <ele>924.6</ele>
        <time>2025-09-28T10:12:48Z</time>
      </trkpt>
      <trkpt lat="45.6894" lon="2.98688">
        <ele>924.6</ele>
        <time>2025-09-28T10:12:49Z</time>
      </trkpt>
      <trkpt lat="45.68944" lon="2.98692">
        <ele>924.4</ele>
        <time>2025-09-28T10:12:50Z</time>
      </trkpt>
      <trkpt lat="45.68948" lon="2.98696">
        <ele>924.4</ele>
        <time>2025-09-28T10:12:51Z</time>
      </trkpt>
      <trkpt lat="45.68952" lon="2.98701">
        <ele>924.4</ele>
        <time>2025-09-28T10:12:52Z</time>
      </trkpt>
      <trkpt lat="45.68955" lon="2.98704">
        <ele>924.4</ele>
        <time>2025-09-28T10:12:53Z</time>
      </trkpt>
      <trkpt lat="45.68958" lon="2.98707">
        <ele>924.4</ele>
        <time>2025-09-28T10:12:54Z</time>
      </trkpt>
      <trkpt lat="45.68962" lon="2.9871">
        <ele>924.4</ele>
        <time>2025-09-28T10:12:55Z</time>
      </trkpt>
      <trkpt lat="45.68965" lon="2.98715">
        <ele>924.6</ele>
        <time>2025-09-28T10:12:56Z</time>
      </trkpt>
      <trkpt lat="45.68969" lon="2.9872">
        <ele>924.6</ele>
        <time>2025-09-28T10:12:57Z</time>
      </trkpt>
      <trkpt lat="45.68973" lon="2.98725">
        <ele>924.8</ele>
        <time>2025-09-28T10:12:58Z</time>
      </trkpt>
      <trkpt lat="45.68977" lon="2.98729">
        <ele>924.8</ele>
        <time>2025-09-28T10:12:59Z</time>
      </trkpt>
      <trkpt lat="45.68981" lon="2.98733">
        <ele>925</ele>
        <time>2025-09-28T10:13:00Z</time>
      </trkpt>
      <trkpt lat="45.68985" lon="2.98736">
        <ele>925.2</ele>
        <time>2025-09-28T10:13:01Z</time>
      </trkpt>
      <trkpt lat="45.6899" lon="2.98739">
        <ele>925.4</ele>
        <time>2025-09-28T10:13:02Z</time>
      </trkpt>
      <trkpt lat="45.68994" lon="2.98742">
        <ele>925.4</ele>
        <time>2025-09-28T10:13:03Z</time>
      </trkpt>
      <trkpt lat="45.68998" lon="2.98745">
        <ele>925.6</ele>
        <time>2025-09-28T10:13:04Z</time>
      </trkpt>
      <trkpt lat="45.69002" lon="2.9875">
        <ele>925.6</ele>
        <time>2025-09-28T10:13:05Z</time>
      </trkpt>
      <trkpt lat="45.69005" lon="2.98754">
        <ele>925.6</ele>
        <time>2025-09-28T10:13:06Z</time>
      </trkpt>
      <trkpt lat="45.69008" lon="2.98759">
        <ele>925.8</ele>
        <time>2025-09-28T10:13:07Z</time>
      </trkpt>
      <trkpt lat="45.69011" lon="2.98763">
        <ele>925.8</ele>
        <time>2025-09-28T10:13:08Z</time>
      </trkpt>
      <trkpt lat="45.69014" lon="2.98768">
        <ele>925.8</ele>
        <time>2025-09-28T10:13:09Z</time>
      </trkpt>
      <trkpt lat="45.69016" lon="2.98774">
        <ele>925.8</ele>
        <time>2025-09-28T10:13:10Z</time>
      </trkpt>
      <trkpt lat="45.69019" lon="2.98779">
        <ele>925.8</ele>
        <time>2025-09-28T10:13:11Z</time>
      </trkpt>
      <trkpt lat="45.69021" lon="2.98784">
        <ele>925.6</ele>
        <time>2025-09-28T10:13:12Z</time>
      </trkpt>
      <trkpt lat="45.69023" lon="2.98788">
        <ele>925.6</ele>
        <time>2025-09-28T10:13:13Z</time>
      </trkpt>
      <trkpt lat="45.69024" lon="2.98792">
        <ele>925.6</ele>
        <time>2025-09-28T10:13:14Z</time>
      </trkpt>
      <trkpt lat="45.69026" lon="2.98795">
        <ele>925.6</ele>
        <time>2025-09-28T10:13:15Z</time>
      </trkpt>
      <trkpt lat="45.69028" lon="2.98798">
        <ele>925.6</ele>
        <time>2025-09-28T10:13:16Z</time>
      </trkpt>
      <trkpt lat="45.6903" lon="2.988">
        <ele>925.4</ele>
        <time>2025-09-28T10:13:17Z</time>
      </trkpt>
      <trkpt lat="45.69033" lon="2.988">
        <ele>925.4</ele>
        <time>2025-09-28T10:13:18Z</time>
      </trkpt>
      <trkpt lat="45.69036" lon="2.98797">
        <ele>925.4</ele>
        <time>2025-09-28T10:13:19Z</time>
      </trkpt>
      <trkpt lat="45.69038" lon="2.98794">
        <ele>925.2</ele>
        <time>2025-09-28T10:13:20Z</time>
      </trkpt>
      <trkpt lat="45.6904" lon="2.98789">
        <ele>925.2</ele>
        <time>2025-09-28T10:13:21Z</time>
      </trkpt>
      <trkpt lat="45.69042" lon="2.98785">
        <ele>925.2</ele>
        <time>2025-09-28T10:13:22Z</time>
      </trkpt>
      <trkpt lat="45.69044" lon="2.9878">
        <ele>925.2</ele>
        <time>2025-09-28T10:13:23Z</time>
      </trkpt>
      <trkpt lat="45.69046" lon="2.98775">
        <ele>925.2</ele>
        <time>2025-09-28T10:13:24Z</time>
      </trkpt>
      <trkpt lat="45.69048" lon="2.9877">
        <ele>925</ele>
        <time>2025-09-28T10:13:25Z</time>
      </trkpt>
      <trkpt lat="45.69051" lon="2.98765">
        <ele>925</ele>
        <time>2025-09-28T10:13:26Z</time>
      </trkpt>
      <trkpt lat="45.69054" lon="2.98759">
        <ele>924.8</ele>
        <time>2025-09-28T10:13:27Z</time>
      </trkpt>
      <trkpt lat="45.69059" lon="2.98755">
        <ele>924.8</ele>
        <time>2025-09-28T10:13:28Z</time>
      </trkpt>
      <trkpt lat="45.69063" lon="2.98753">
        <ele>924.6</ele>
        <time>2025-09-28T10:13:29Z</time>
      </trkpt>
      <trkpt lat="45.69068" lon="2.98751">
        <ele>924.4</ele>
        <time>2025-09-28T10:13:30Z</time>
      </trkpt>
      <trkpt lat="45.69073" lon="2.9875">
        <ele>924.2</ele>
        <time>2025-09-28T10:13:31Z</time>
      </trkpt>
      <trkpt lat="45.69079" lon="2.98751">
        <ele>924.2</ele>
        <time>2025-09-28T10:13:32Z</time>
      </trkpt>
      <trkpt lat="45.69083" lon="2.98753">
        <ele>924</ele>
        <time>2025-09-28T10:13:33Z</time>
      </trkpt>
      <trkpt lat="45.69088" lon="2.98755">
        <ele>924</ele>
        <time>2025-09-28T10:13:34Z</time>
      </trkpt>
      <trkpt lat="45.69091" lon="2.98757">
        <ele>924</ele>
        <time>2025-09-28T10:13:35Z</time>
      </trkpt>
      <trkpt lat="45.69093" lon="2.98757">
        <ele>924</ele>
        <time>2025-09-28T10:13:36Z</time>
      </trkpt>
      <trkpt lat="45.69096" lon="2.98757">
        <ele>923.8</ele>
        <time>2025-09-28T10:13:37Z</time>
      </trkpt>
      <trkpt lat="45.69099" lon="2.98761">
        <ele>923.8</ele>
        <time>2025-09-28T10:13:38Z</time>
      </trkpt>
      <trkpt lat="45.69105" lon="2.98765">
        <ele>923.8</ele>
        <time>2025-09-28T10:13:39Z</time>
      </trkpt>
      <trkpt lat="45.69111" lon="2.98768">
        <ele>923.8</ele>
        <time>2025-09-28T10:13:40Z</time>
      </trkpt>
      <trkpt lat="45.69117" lon="2.9877">
        <ele>923.8</ele>
        <time>2025-09-28T10:13:41Z</time>
      </trkpt>
      <trkpt lat="45.69124" lon="2.98771">
        <ele>923.8</ele>
        <time>2025-09-28T10:13:42Z</time>
      </trkpt>
      <trkpt lat="45.6913" lon="2.98771">
        <ele>923.8</ele>
        <time>2025-09-28T10:13:43Z</time>
      </trkpt>
      <trkpt lat="45.69137" lon="2.98769">
        <ele>923.8</ele>
        <time>2025-09-28T10:13:44Z</time>
      </trkpt>
      <trkpt lat="45.69142" lon="2.98767">
        <ele>923.8</ele>
        <time>2025-09-28T10:13:45Z</time>
      </trkpt>
      <trkpt lat="45.69148" lon="2.98766">
        <ele>923.8</ele>
        <time>2025-09-28T10:13:46Z</time>
      </trkpt>
      <trkpt lat="45.69153" lon="2.98766">
        <ele>924</ele>
        <time>2025-09-28T10:13:47Z</time>
      </trkpt>
      <trkpt lat="45.69158" lon="2.98766">
        <ele>924</ele>
        <time>2025-09-28T10:13:48Z</time>
      </trkpt>
      <trkpt lat="45.69162" lon="2.98767">
        <ele>924.2</ele>
        <time>2025-09-28T10:13:49Z</time>
      </trkpt>
      <trkpt lat="45.69166" lon="2.9877">
        <ele>924.2</ele>
        <time>2025-09-28T10:13:50Z</time>
      </trkpt>
      <trkpt lat="45.69169" lon="2.98772">
        <ele>924.2</ele>
        <time>2025-09-28T10:13:51Z</time>
      </trkpt>
      <trkpt lat="45.69174" lon="2.98772">
        <ele>924.2</ele>
        <time>2025-09-28T10:13:52Z</time>
      </trkpt>
      <trkpt lat="45.69177" lon="2.98769">
        <ele>924.2</ele>
        <time>2025-09-28T10:13:53Z</time>
      </trkpt>
      <trkpt lat="45.6918" lon="2.98765">
        <ele>924.2</ele>
        <time>2025-09-28T10:13:54Z</time>
      </trkpt>
      <trkpt lat="45.69181" lon="2.98759">
        <ele>924.2</ele>
        <time>2025-09-28T10:13:55Z</time>
      </trkpt>
      <trkpt lat="45.6918" lon="2.98752">
        <ele>924</ele>
        <time>2025-09-28T10:13:56Z</time>
      </trkpt>
      <trkpt lat="45.6918" lon="2.98746">
        <ele>924</ele>
        <time>2025-09-28T10:13:57Z</time>
      </trkpt>
      <trkpt lat="45.69179" lon="2.98739">
        <ele>924</ele>
        <time>2025-09-28T10:13:58Z</time>
      </trkpt>
      <trkpt lat="45.69178" lon="2.98731">
        <ele>923.8</ele>
        <time>2025-09-28T10:13:59Z</time>
      </trkpt>
      <trkpt lat="45.69178" lon="2.98724">
        <ele>923.8</ele>
        <time>2025-09-28T10:14:00Z</time>
      </trkpt>
      <trkpt lat="45.69178" lon="2.98717">
        <ele>923.6</ele>
        <time>2025-09-28T10:14:01Z</time>
      </trkpt>
      <trkpt lat="45.69179" lon="2.98708">
        <ele>923.6</ele>
        <time>2025-09-28T10:14:02Z</time>
      </trkpt>
      <trkpt lat="45.6918" lon="2.987">
        <ele>923.6</ele>
        <time>2025-09-28T10:14:03Z</time>
      </trkpt>
      <trkpt lat="45.69182" lon="2.98693">
        <ele>923.6</ele>
        <time>2025-09-28T10:14:04Z</time>
      </trkpt>
      <trkpt lat="45.69184" lon="2.98685">
        <ele>923.4</ele>
        <time>2025-09-28T10:14:05Z</time>
      </trkpt>
      <trkpt lat="45.69186" lon="2.98678">
        <ele>923.4</ele>
        <time>2025-09-28T10:14:06Z</time>
      </trkpt>
      <trkpt lat="45.69189" lon="2.98671">
        <ele>923.2</ele>
        <time>2025-09-28T10:14:07Z</time>
      </trkpt>
      <trkpt lat="45.69191" lon="2.98664">
        <ele>923</ele>
        <time>2025-09-28T10:14:08Z</time>
      </trkpt>
      <trkpt lat="45.69194" lon="2.98657">
        <ele>923</ele>
        <time>2025-09-28T10:14:09Z</time>
      </trkpt>
      <trkpt lat="45.69196" lon="2.9865">
        <ele>923</ele>
        <time>2025-09-28T10:14:10Z</time>
      </trkpt>
      <trkpt lat="45.69199" lon="2.98643">
        <ele>922.8</ele>
        <time>2025-09-28T10:14:11Z</time>
      </trkpt>
      <trkpt lat="45.69202" lon="2.98636">
        <ele>922.8</ele>
        <time>2025-09-28T10:14:12Z</time>
      </trkpt>
      <trkpt lat="45.69205" lon="2.98628">
        <ele>922.8</ele>
        <time>2025-09-28T10:14:13Z</time>
      </trkpt>
      <trkpt lat="45.69207" lon="2.98622">
        <ele>922.8</ele>
        <time>2025-09-28T10:14:14Z</time>
      </trkpt>
      <trkpt lat="45.6921" lon="2.98615">
        <ele>922.8</ele>
        <time>2025-09-28T10:14:15Z</time>
      </trkpt>
      <trkpt lat="45.69213" lon="2.98607">
        <ele>922.8</ele>
        <time>2025-09-28T10:14:16Z</time>
      </trkpt>
      <trkpt lat="45.69216" lon="2.98601">
        <ele>922.8</ele>
        <time>2025-09-28T10:14:17Z</time>
      </trkpt>
      <trkpt lat="45.69218" lon="2.98594">
        <ele>922.8</ele>
        <time>2025-09-28T10:14:18Z</time>
      </trkpt>
      <trkpt lat="45.6922" lon="2.98587">
        <ele>922.8</ele>
        <time>2025-09-28T10:14:19Z</time>
      </trkpt>
      <trkpt lat="45.69222" lon="2.9858">
        <ele>923</ele>
        <time>2025-09-28T10:14:20Z</time>
      </trkpt>
      <trkpt lat="45.69225" lon="2.98573">
        <ele>923</ele>
        <time>2025-09-28T10:14:21Z</time>
      </trkpt>
      <trkpt lat="45.69228" lon="2.98567">
        <ele>923</ele>
        <time>2025-09-28T10:14:22Z</time>
      </trkpt>
      <trkpt lat="45.6923" lon="2.9856">
        <ele>923</ele>
        <time>2025-09-28T10:14:23Z</time>
      </trkpt>
      <trkpt lat="45.69233" lon="2.98553">
        <ele>923.2</ele>
        <time>2025-09-28T10:14:24Z</time>
      </trkpt>
      <trkpt lat="45.69234" lon="2.98546">
        <ele>923.2</ele>
        <time>2025-09-28T10:14:25Z</time>
      </trkpt>
      <trkpt lat="45.69235" lon="2.98539">
        <ele>923.2</ele>
        <time>2025-09-28T10:14:26Z</time>
      </trkpt>
      <trkpt lat="45.69236" lon="2.98533">
        <ele>923.4</ele>
        <time>2025-09-28T10:14:27Z</time>
      </trkpt>
      <trkpt lat="45.69236" lon="2.98527">
        <ele>923.4</ele>
        <time>2025-09-28T10:14:28Z</time>
      </trkpt>
      <trkpt lat="45.69237" lon="2.98521">
        <ele>923.6</ele>
        <time>2025-09-28T10:14:29Z</time>
      </trkpt>
      <trkpt lat="45.69238" lon="2.98515">
        <ele>923.6</ele>
        <time>2025-09-28T10:14:30Z</time>
      </trkpt>
      <trkpt lat="45.69238" lon="2.98509">
        <ele>923.8</ele>
        <time>2025-09-28T10:14:31Z</time>
      </trkpt>
      <trkpt lat="45.69238" lon="2.98504">
        <ele>923.8</ele>
        <time>2025-09-28T10:14:32Z</time>
      </trkpt>
      <trkpt lat="45.69238" lon="2.98498">
        <ele>924</ele>
        <time>2025-09-28T10:14:33Z</time>
      </trkpt>
      <trkpt lat="45.69238" lon="2.98493">
        <ele>924.2</ele>
        <time>2025-09-28T10:14:34Z</time>
      </trkpt>
      <trkpt lat="45.69239" lon="2.98488">
        <ele>924.2</ele>
        <time>2025-09-28T10:14:35Z</time>
      </trkpt>
      <trkpt lat="45.6924" lon="2.98482">
        <ele>924.4</ele>
        <time>2025-09-28T10:14:36Z</time>
      </trkpt>
      <trkpt lat="45.6924" lon="2.98477">
        <ele>924.6</ele>
        <time>2025-09-28T10:14:37Z</time>
      </trkpt>
      <trkpt lat="45.69241" lon="2.98472">
        <ele>924.6</ele>
        <time>2025-09-28T10:14:38Z</time>
      </trkpt>
      <trkpt lat="45.69241" lon="2.98467">
        <ele>924.8</ele>
        <time>2025-09-28T10:14:39Z</time>
      </trkpt>
      <trkpt lat="45.69241" lon="2.98461">
        <ele>925</ele>
        <time>2025-09-28T10:14:40Z</time>
      </trkpt>
      <trkpt lat="45.69242" lon="2.98455">
        <ele>925</ele>
        <time>2025-09-28T10:14:41Z</time>
      </trkpt>
      <trkpt lat="45.69242" lon="2.98449">
        <ele>925.2</ele>
        <time>2025-09-28T10:14:42Z</time>
      </trkpt>
      <trkpt lat="45.69242" lon="2.98444">
        <ele>925.2</ele>
        <time>2025-09-28T10:14:43Z</time>
      </trkpt>
      <trkpt lat="45.69243" lon="2.98438">
        <ele>925.4</ele>
        <time>2025-09-28T10:14:44Z</time>
      </trkpt>
      <trkpt lat="45.69244" lon="2.98432">
        <ele>925.6</ele>
        <time>2025-09-28T10:14:45Z</time>
      </trkpt>
      <trkpt lat="45.69245" lon="2.98426">
        <ele>925.6</ele>
        <time>2025-09-28T10:14:46Z</time>
      </trkpt>
      <trkpt lat="45.69246" lon="2.9842">
        <ele>925.8</ele>
        <time>2025-09-28T10:14:47Z</time>
      </trkpt>
      <trkpt lat="45.69247" lon="2.98415">
        <ele>925.8</ele>
        <time>2025-09-28T10:14:48Z</time>
      </trkpt>
      <trkpt lat="45.69247" lon="2.98411">
        <ele>926</ele>
        <time>2025-09-28T10:14:49Z</time>
      </trkpt>
      <trkpt lat="45.69248" lon="2.98407">
        <ele>926.4</ele>
        <time>2025-09-28T10:14:50Z</time>
      </trkpt>
      <trkpt lat="45.69249" lon="2.98404">
        <ele>926.6</ele>
        <time>2025-09-28T10:14:51Z</time>
      </trkpt>
      <trkpt lat="45.6925" lon="2.98402">
        <ele>926.8</ele>
        <time>2025-09-28T10:14:52Z</time>
      </trkpt>
      <trkpt lat="45.6925" lon="2.98401">
        <ele>927.2</ele>
        <time>2025-09-28T10:14:53Z</time>
      </trkpt>
      <trkpt lat="45.69251" lon="2.98401">
        <ele>927.4</ele>
        <time>2025-09-28T10:14:54Z</time>
      </trkpt>
      <trkpt lat="45.69252" lon="2.98401">
        <ele>927.8</ele>
        <time>2025-09-28T10:14:55Z</time>
      </trkpt>
      <trkpt lat="45.69254" lon="2.98399">
        <ele>928</ele>
        <time>2025-09-28T10:14:56Z</time>
      </trkpt>
      <trkpt lat="45.69255" lon="2.98397">
        <ele>928.2</ele>
        <time>2025-09-28T10:14:57Z</time>
      </trkpt>
      <trkpt lat="45.69257" lon="2.98395">
        <ele>928.6</ele>
        <time>2025-09-28T10:14:58Z</time>
      </trkpt>
      <trkpt lat="45.69258" lon="2.98393">
        <ele>928.8</ele>
        <time>2025-09-28T10:14:59Z</time>
      </trkpt>
      <trkpt lat="45.6926" lon="2.98391">
        <ele>929</ele>
        <time>2025-09-28T10:15:00Z</time>
      </trkpt>
      <trkpt lat="45.69262" lon="2.98389">
        <ele>929.2</ele>
        <time>2025-09-28T10:15:01Z</time>
      </trkpt>
      <trkpt lat="45.69264" lon="2.98386">
        <ele>929.4</ele>
        <time>2025-09-28T10:15:02Z</time>
      </trkpt>
      <trkpt lat="45.69266" lon="2.98384">
        <ele>929.8</ele>
        <time>2025-09-28T10:15:03Z</time>
      </trkpt>
      <trkpt lat="45.69268" lon="2.98382">
        <ele>930</ele>
        <time>2025-09-28T10:15:04Z</time>
      </trkpt>
      <trkpt lat="45.69271" lon="2.98379">
        <ele>930.2</ele>
        <time>2025-09-28T10:15:05Z</time>
      </trkpt>
      <trkpt lat="45.69273" lon="2.98377">
        <ele>930.4</ele>
        <time>2025-09-28T10:15:06Z</time>
      </trkpt>
      <trkpt lat="45.69275" lon="2.98375">
        <ele>930.6</ele>
        <time>2025-09-28T10:15:07Z</time>
      </trkpt>
      <trkpt lat="45.69277" lon="2.98373">
        <ele>930.8</ele>
        <time>2025-09-28T10:15:08Z</time>
      </trkpt>
      <trkpt lat="45.69278" lon="2.9837">
        <ele>931</ele>
        <time>2025-09-28T10:15:09Z</time>
      </trkpt>
      <trkpt lat="45.69281" lon="2.98368">
        <ele>931.2</ele>
        <time>2025-09-28T10:15:10Z</time>
      </trkpt>
      <trkpt lat="45.69283" lon="2.98367">
        <ele>931.2</ele>
        <time>2025-09-28T10:15:11Z</time>
      </trkpt>
      <trkpt lat="45.69286" lon="2.98365">
        <ele>931.4</ele>
        <time>2025-09-28T10:15:12Z</time>
      </trkpt>
      <trkpt lat="45.69289" lon="2.98363">
        <ele>931.6</ele>
        <time>2025-09-28T10:15:13Z</time>
      </trkpt>
      <trkpt lat="45.69291" lon="2.9836">
        <ele>931.8</ele>
        <time>2025-09-28T10:15:14Z</time>
      </trkpt>
      <trkpt lat="45.69294" lon="2.98356">
        <ele>931.8</ele>
        <time>2025-09-28T10:15:15Z</time>
      </trkpt>
      <trkpt lat="45.69298" lon="2.98352">
        <ele>932</ele>
        <time>2025-09-28T10:15:16Z</time>
      </trkpt>
      <trkpt lat="45.69301" lon="2.98348">
        <ele>932.2</ele>
        <time>2025-09-28T10:15:17Z</time>
      </trkpt>
      <trkpt lat="45.69305" lon="2.98344">
        <ele>932.4</ele>
        <time>2025-09-28T10:15:18Z</time>
      </trkpt>
      <trkpt lat="45.69308" lon="2.9834">
        <ele>932.6</ele>
        <time>2025-09-28T10:15:19Z</time>
      </trkpt>
      <trkpt lat="45.69311" lon="2.98337">
        <ele>932.6</ele>
        <time>2025-09-28T10:15:20Z</time>
      </trkpt>
      <trkpt lat="45.69313" lon="2.98334">
        <ele>932.8</ele>
        <time>2025-09-28T10:15:21Z</time>
      </trkpt>
      <trkpt lat="45.69315" lon="2.98331">
        <ele>933</ele>
        <time>2025-09-28T10:15:22Z</time>
      </trkpt>
      <trkpt lat="45.69318" lon="2.98326">
        <ele>933.2</ele>
        <time>2025-09-28T10:15:23Z</time>
      </trkpt>
      <trkpt lat="45.69321" lon="2.98321">
        <ele>933.2</ele>
        <time>2025-09-28T10:15:24Z</time>
      </trkpt>
      <trkpt lat="45.69324" lon="2.98316">
        <ele>933.4</ele>
        <time>2025-09-28T10:15:25Z</time>
      </trkpt>
      <trkpt lat="45.69327" lon="2.98311">
        <ele>933.6</ele>
        <time>2025-09-28T10:15:26Z</time>
      </trkpt>
      <trkpt lat="45.69328" lon="2.98307">
        <ele>933.6</ele>
        <time>2025-09-28T10:15:27Z</time>
      </trkpt>
      <trkpt lat="45.69329" lon="2.98303">
        <ele>933.8</ele>
        <time>2025-09-28T10:15:28Z</time>
      </trkpt>
      <trkpt lat="45.6933" lon="2.983">
        <ele>933.8</ele>
        <time>2025-09-28T10:15:29Z</time>
      </trkpt>
      <trkpt lat="45.69332" lon="2.98296">
        <ele>934</ele>
        <time>2025-09-28T10:15:30Z</time>
      </trkpt>
      <trkpt lat="45.69335" lon="2.98292">
        <ele>934.2</ele>
        <time>2025-09-28T10:15:31Z</time>
      </trkpt>
      <trkpt lat="45.69337" lon="2.98287">
        <ele>934.2</ele>
        <time>2025-09-28T10:15:32Z</time>
      </trkpt>
      <trkpt lat="45.69339" lon="2.98283">
        <ele>934.4</ele>
        <time>2025-09-28T10:15:33Z</time>
      </trkpt>
      <trkpt lat="45.6934" lon="2.98278">
        <ele>934.4</ele>
        <time>2025-09-28T10:15:34Z</time>
      </trkpt>
      <trkpt lat="45.69341" lon="2.98274">
        <ele>934.6</ele>
        <time>2025-09-28T10:15:35Z</time>
      </trkpt>
      <trkpt lat="45.69342" lon="2.98272">
        <ele>934.6</ele>
        <time>2025-09-28T10:15:36Z</time>
      </trkpt>
      <trkpt lat="45.69341" lon="2.9827">
        <ele>934.8</ele>
        <time>2025-09-28T10:15:37Z</time>
      </trkpt>
      <trkpt lat="45.69341" lon="2.98268">
        <ele>935</ele>
        <time>2025-09-28T10:15:38Z</time>
      </trkpt>
      <trkpt lat="45.69341" lon="2.98267">
        <ele>935.2</ele>
        <time>2025-09-28T10:15:39Z</time>
      </trkpt>
      <trkpt lat="45.69343" lon="2.98265">
        <ele>935.4</ele>
        <time>2025-09-28T10:15:40Z</time>
      </trkpt>
      <trkpt lat="45.69345" lon="2.98264">
        <ele>935.6</ele>
        <time>2025-09-28T10:15:41Z</time>
      </trkpt>
      <trkpt lat="45.69347" lon="2.98262">
        <ele>935.8</ele>
        <time>2025-09-28T10:15:42Z</time>
      </trkpt>
      <trkpt lat="45.69348" lon="2.98261">
        <ele>936</ele>
        <time>2025-09-28T10:15:43Z</time>
      </trkpt>
      <trkpt lat="45.69349" lon="2.98261">
        <ele>936.2</ele>
        <time>2025-09-28T10:15:44Z</time>
      </trkpt>
      <trkpt lat="45.6935" lon="2.98261">
        <ele>936.4</ele>
        <time>2025-09-28T10:15:45Z</time>
      </trkpt>
      <trkpt lat="45.69351" lon="2.98259">
        <ele>936.8</ele>
        <time>2025-09-28T10:15:46Z</time>
      </trkpt>
      <trkpt lat="45.69353" lon="2.98257">
        <ele>937</ele>
        <time>2025-09-28T10:15:47Z</time>
      </trkpt>
      <trkpt lat="45.69353" lon="2.98256">
        <ele>937.2</ele>
        <time>2025-09-28T10:15:48Z</time>
      </trkpt>
      <trkpt lat="45.69354" lon="2.98255">
        <ele>937.4</ele>
        <time>2025-09-28T10:15:49Z</time>
      </trkpt>
      <trkpt lat="45.69355" lon="2.98252">
        <ele>937.6</ele>
        <time>2025-09-28T10:15:50Z</time>
      </trkpt>
      <trkpt lat="45.69357" lon="2.98247">
        <ele>937.8</ele>
        <time>2025-09-28T10:15:51Z</time>
      </trkpt>
      <trkpt lat="45.69359" lon="2.98243">
        <ele>938</ele>
        <time>2025-09-28T10:15:52Z</time>
      </trkpt>
      <trkpt lat="45.69361" lon="2.98239">
        <ele>938.2</ele>
        <time>2025-09-28T10:15:53Z</time>
      </trkpt>
      <trkpt lat="45.69363" lon="2.98236">
        <ele>938.4</ele>
        <time>2025-09-28T10:15:54Z</time>
      </trkpt>
      <trkpt lat="45.69366" lon="2.98231">
        <ele>938.6</ele>
        <time>2025-09-28T10:15:55Z</time>
      </trkpt>
      <trkpt lat="45.69368" lon="2.98225">
        <ele>938.8</ele>
        <time>2025-09-28T10:15:56Z</time>
      </trkpt>
      <trkpt lat="45.6937" lon="2.9822">
        <ele>939</ele>
        <time>2025-09-28T10:15:57Z</time>
      </trkpt>
      <trkpt lat="45.69372" lon="2.98217">
        <ele>939</ele>
        <time>2025-09-28T10:15:58Z</time>
      </trkpt>
      <trkpt lat="45.69373" lon="2.98214">
        <ele>939.2</ele>
        <time>2025-09-28T10:15:59Z</time>
      </trkpt>
      <trkpt lat="45.69375" lon="2.98211">
        <ele>939.4</ele>
        <time>2025-09-28T10:16:00Z</time>
      </trkpt>
      <trkpt lat="45.69377" lon="2.98208">
        <ele>939.4</ele>
        <time>2025-09-28T10:16:01Z</time>
      </trkpt>
      <trkpt lat="45.69379" lon="2.98205">
        <ele>939.6</ele>
        <time>2025-09-28T10:16:02Z</time>
      </trkpt>
      <trkpt lat="45.69382" lon="2.98201">
        <ele>939.8</ele>
        <time>2025-09-28T10:16:03Z</time>
      </trkpt>
      <trkpt lat="45.69385" lon="2.98198">
        <ele>939.8</ele>
        <time>2025-09-28T10:16:04Z</time>
      </trkpt>
      <trkpt lat="45.69387" lon="2.98195">
        <ele>940</ele>
        <time>2025-09-28T10:16:05Z</time>
      </trkpt>
      <trkpt lat="45.69389" lon="2.98192">
        <ele>940.2</ele>
        <time>2025-09-28T10:16:06Z</time>
      </trkpt>
      <trkpt lat="45.69391" lon="2.9819">
        <ele>940.2</ele>
        <time>2025-09-28T10:16:07Z</time>
      </trkpt>
      <trkpt lat="45.69393" lon="2.98187">
        <ele>940.4</ele>
        <time>2025-09-28T10:16:08Z</time>
      </trkpt>
      <trkpt lat="45.69397" lon="2.98185">
        <ele>940.6</ele>
        <time>2025-09-28T10:16:09Z</time>
      </trkpt>
      <trkpt lat="45.694" lon="2.98182">
        <ele>940.8</ele>
        <time>2025-09-28T10:16:10Z</time>
      </trkpt>
      <trkpt lat="45.69403" lon="2.98178">
        <ele>940.8</ele>
        <time>2025-09-28T10:16:11Z</time>
      </trkpt>
      <trkpt lat="45.69406" lon="2.98173">
        <ele>941</ele>
        <time>2025-09-28T10:16:12Z</time>
      </trkpt>
      <trkpt lat="45.69409" lon="2.98167">
        <ele>941.2</ele>
        <time>2025-09-28T10:16:13Z</time>
      </trkpt>
      <trkpt lat="45.69414" lon="2.98161">
        <ele>941.2</ele>
        <time>2025-09-28T10:16:14Z</time>
      </trkpt>
      <trkpt lat="45.69417" lon="2.98156">
        <ele>941.4</ele>
        <time>2025-09-28T10:16:15Z</time>
      </trkpt>
      <trkpt lat="45.6942" lon="2.98152">
        <ele>941.4</ele>
        <time>2025-09-28T10:16:16Z</time>
      </trkpt>
      <trkpt lat="45.69423" lon="2.98147">
        <ele>941.6</ele>
        <time>2025-09-28T10:16:17Z</time>
      </trkpt>
      <trkpt lat="45.69424" lon="2.98143">
        <ele>941.6</ele>
        <time>2025-09-28T10:16:18Z</time>
      </trkpt>
      <trkpt lat="45.69425" lon="2.98139">
        <ele>941.6</ele>
        <time>2025-09-28T10:16:19Z</time>
      </trkpt>
      <trkpt lat="45.69426" lon="2.98136">
        <ele>941.8</ele>
        <time>2025-09-28T10:16:20Z</time>
      </trkpt>
      <trkpt lat="45.69427" lon="2.98132">
        <ele>941.8</ele>
        <time>2025-09-28T10:16:21Z</time>
      </trkpt>
      <trkpt lat="45.69429" lon="2.98129">
        <ele>942</ele>
        <time>2025-09-28T10:16:22Z</time>
      </trkpt>
      <trkpt lat="45.69431" lon="2.98127">
        <ele>942</ele>
        <time>2025-09-28T10:16:23Z</time>
      </trkpt>
      <trkpt lat="45.69433" lon="2.98125">
        <ele>942.2</ele>
        <time>2025-09-28T10:16:24Z</time>
      </trkpt>
      <trkpt lat="45.69435" lon="2.98123">
        <ele>942.2</ele>
        <time>2025-09-28T10:16:25Z</time>
      </trkpt>
      <trkpt lat="45.69438" lon="2.98121">
        <ele>942.4</ele>
        <time>2025-09-28T10:16:26Z</time>
      </trkpt>
      <trkpt lat="45.6944" lon="2.98119">
        <ele>942.4</ele>
        <time>2025-09-28T10:16:27Z</time>
      </trkpt>
      <trkpt lat="45.69442" lon="2.98117">
        <ele>942.6</ele>
        <time>2025-09-28T10:16:28Z</time>
      </trkpt>
      <trkpt lat="45.69443" lon="2.98115">
        <ele>942.6</ele>
        <time>2025-09-28T10:16:29Z</time>
      </trkpt>
      <trkpt lat="45.69446" lon="2.98112">
        <ele>942.6</ele>
        <time>2025-09-28T10:16:30Z</time>
      </trkpt>
      <trkpt lat="45.69448" lon="2.9811">
        <ele>942.8</ele>
        <time>2025-09-28T10:16:31Z</time>
      </trkpt>
      <trkpt lat="45.6945" lon="2.98106">
        <ele>942.8</ele>
        <time>2025-09-28T10:16:32Z</time>
      </trkpt>
      <trkpt lat="45.69452" lon="2.98102">
        <ele>943</ele>
        <time>2025-09-28T10:16:33Z</time>
      </trkpt>
      <trkpt lat="45.69454" lon="2.98099">
        <ele>943</ele>
        <time>2025-09-28T10:16:34Z</time>
      </trkpt>
      <trkpt lat="45.69456" lon="2.98095">
        <ele>943</ele>
        <time>2025-09-28T10:16:35Z</time>
      </trkpt>
      <trkpt lat="45.69459" lon="2.98092">
        <ele>943.2</ele>
        <time>2025-09-28T10:16:36Z</time>
      </trkpt>
      <trkpt lat="45.69462" lon="2.98089">
        <ele>943.2</ele>
        <time>2025-09-28T10:16:37Z</time>
      </trkpt>
      <trkpt lat="45.69465" lon="2.98086">
        <ele>943.4</ele>
        <time>2025-09-28T10:16:38Z</time>
      </trkpt>
      <trkpt lat="45.69468" lon="2.98083">
        <ele>943.4</ele>
        <time>2025-09-28T10:16:39Z</time>
      </trkpt>
      <trkpt lat="45.69471" lon="2.9808">
        <ele>943.4</ele>
        <time>2025-09-28T10:16:40Z</time>
      </trkpt>
      <trkpt lat="45.69475" lon="2.98076">
        <ele>943.4</ele>
        <time>2025-09-28T10:16:41Z</time>
      </trkpt>
      <trkpt lat="45.69479" lon="2.98071">
        <ele>943.4</ele>
        <time>2025-09-28T10:16:42Z</time>
      </trkpt>
      <trkpt lat="45.69483" lon="2.98066">
        <ele>943.4</ele>
        <time>2025-09-28T10:16:43Z</time>
      </trkpt>
      <trkpt lat="45.69487" lon="2.98063">
        <ele>943.4</ele>
        <time>2025-09-28T10:16:44Z</time>
      </trkpt>
      <trkpt lat="45.6949" lon="2.9806">
        <ele>943.2</ele>
        <time>2025-09-28T10:16:45Z</time>
      </trkpt>
      <trkpt lat="45.69493" lon="2.98057">
        <ele>943.2</ele>
        <time>2025-09-28T10:16:46Z</time>
      </trkpt>
      <trkpt lat="45.69496" lon="2.98054">
        <ele>943.2</ele>
        <time>2025-09-28T10:16:47Z</time>
      </trkpt>
      <trkpt lat="45.695" lon="2.9805">
        <ele>943.2</ele>
        <time>2025-09-28T10:16:48Z</time>
      </trkpt>
      <trkpt lat="45.69505" lon="2.98047">
        <ele>943.2</ele>
        <time>2025-09-28T10:16:49Z</time>
      </trkpt>
      <trkpt lat="45.69509" lon="2.98042">
        <ele>943.2</ele>
        <time>2025-09-28T10:16:50Z</time>
      </trkpt>
      <trkpt lat="45.69515" lon="2.98037">
        <ele>943.2</ele>
        <time>2025-09-28T10:16:51Z</time>
      </trkpt>
      <trkpt lat="45.69522" lon="2.98031">
        <ele>943.2</ele>
        <time>2025-09-28T10:16:52Z</time>
      </trkpt>
      <trkpt lat="45.69529" lon="2.98026">
        <ele>943.2</ele>
        <time>2025-09-28T10:16:53Z</time>
      </trkpt>
      <trkpt lat="45.69534" lon="2.98021">
        <ele>943.2</ele>
        <time>2025-09-28T10:16:54Z</time>
      </trkpt>
      <trkpt lat="45.69538" lon="2.98017">
        <ele>943</ele>
        <time>2025-09-28T10:16:55Z</time>
      </trkpt>
      <trkpt lat="45.69544" lon="2.98011">
        <ele>943</ele>
        <time>2025-09-28T10:16:56Z</time>
      </trkpt>
      <trkpt lat="45.69548" lon="2.98002">
        <ele>943</ele>
        <time>2025-09-28T10:16:57Z</time>
      </trkpt>
      <trkpt lat="45.69549" lon="2.97993">
        <ele>943</ele>
        <time>2025-09-28T10:16:58Z</time>
      </trkpt>
      <trkpt lat="45.69548" lon="2.97986">
        <ele>942.8</ele>
        <time>2025-09-28T10:16:59Z</time>
      </trkpt>
      <trkpt lat="45.69547" lon="2.97978">
        <ele>942.8</ele>
        <time>2025-09-28T10:17:00Z</time>
      </trkpt>
      <trkpt lat="45.69546" lon="2.97972">
        <ele>942.8</ele>
        <time>2025-09-28T10:17:01Z</time>
      </trkpt>
      <trkpt lat="45.69545" lon="2.97965">
        <ele>942.8</ele>
        <time>2025-09-28T10:17:02Z</time>
      </trkpt>
      <trkpt lat="45.69545" lon="2.97959">
        <ele>942.8</ele>
        <time>2025-09-28T10:17:03Z</time>
      </trkpt>
      <trkpt lat="45.69545" lon="2.97953">
        <ele>942.8</ele>
        <time>2025-09-28T10:17:04Z</time>
      </trkpt>
      <trkpt lat="45.69545" lon="2.97946">
        <ele>942.8</ele>
        <time>2025-09-28T10:17:05Z</time>
      </trkpt>
      <trkpt lat="45.69545" lon="2.97939">
        <ele>942.8</ele>
        <time>2025-09-28T10:17:06Z</time>
      </trkpt>
      <trkpt lat="45.69546" lon="2.97933">
        <ele>942.8</ele>
        <time>2025-09-28T10:17:07Z</time>
      </trkpt>
      <trkpt lat="45.69546" lon="2.97926">
        <ele>942.8</ele>
        <time>2025-09-28T10:17:08Z</time>
      </trkpt>
      <trkpt lat="45.69545" lon="2.9792">
        <ele>942.8</ele>
        <time>2025-09-28T10:17:09Z</time>
      </trkpt>
      <trkpt lat="45.69542" lon="2.97915">
        <ele>943</ele>
        <time>2025-09-28T10:17:10Z</time>
      </trkpt>
      <trkpt lat="45.69539" lon="2.9791">
        <ele>943</ele>
        <time>2025-09-28T10:17:11Z</time>
      </trkpt>
      <trkpt lat="45.69537" lon="2.97905">
        <ele>943</ele>
        <time>2025-09-28T10:17:12Z</time>
      </trkpt>
      <trkpt lat="45.69536" lon="2.97898">
        <ele>943</ele>
        <time>2025-09-28T10:17:13Z</time>
      </trkpt>
      <trkpt lat="45.69535" lon="2.97891">
        <ele>943</ele>
        <time>2025-09-28T10:17:14Z</time>
      </trkpt>
      <trkpt lat="45.69535" lon="2.97884">
        <ele>943.2</ele>
        <time>2025-09-28T10:17:15Z</time>
      </trkpt>
      <trkpt lat="45.69535" lon="2.97877">
        <ele>943.2</ele>
        <time>2025-09-28T10:17:16Z</time>
      </trkpt>
      <trkpt lat="45.69536" lon="2.9787">
        <ele>943.4</ele>
        <time>2025-09-28T10:17:17Z</time>
      </trkpt>
      <trkpt lat="45.69536" lon="2.97865">
        <ele>943.6</ele>
        <time>2025-09-28T10:17:18Z</time>
      </trkpt>
      <trkpt lat="45.69538" lon="2.9786">
        <ele>943.6</ele>
        <time>2025-09-28T10:17:19Z</time>
      </trkpt>
      <trkpt lat="45.69538" lon="2.97856">
        <ele>943.8</ele>
        <time>2025-09-28T10:17:20Z</time>
      </trkpt>
      <trkpt lat="45.69538" lon="2.97851">
        <ele>944</ele>
        <time>2025-09-28T10:17:21Z</time>
      </trkpt>
      <trkpt lat="45.69537" lon="2.97848">
        <ele>944.4</ele>
        <time>2025-09-28T10:17:22Z</time>
      </trkpt>
      <trkpt lat="45.69537" lon="2.97844">
        <ele>944.6</ele>
        <time>2025-09-28T10:17:23Z</time>
      </trkpt>
      <trkpt lat="45.69538" lon="2.9784">
        <ele>944.8</ele>
        <time>2025-09-28T10:17:24Z</time>
      </trkpt>
      <trkpt lat="45.69539" lon="2.97836">
        <ele>945</ele>
        <time>2025-09-28T10:17:25Z</time>
      </trkpt>
      <trkpt lat="45.6954" lon="2.97831">
        <ele>945.4</ele>
        <time>2025-09-28T10:17:26Z</time>
      </trkpt>
      <trkpt lat="45.69541" lon="2.97825">
        <ele>945.6</ele>
        <time>2025-09-28T10:17:27Z</time>
      </trkpt>
      <trkpt lat="45.69542" lon="2.97821">
        <ele>945.8</ele>
        <time>2025-09-28T10:17:28Z</time>
      </trkpt>
      <trkpt lat="45.69542" lon="2.97816">
        <ele>946</ele>
        <time>2025-09-28T10:17:29Z</time>
      </trkpt>
      <trkpt lat="45.69544" lon="2.97811">
        <ele>946.2</ele>
        <time>2025-09-28T10:17:30Z</time>
      </trkpt>
      <trkpt lat="45.69546" lon="2.97807">
        <ele>946.4</ele>
        <time>2025-09-28T10:17:31Z</time>
      </trkpt>
      <trkpt lat="45.69548" lon="2.97803">
        <ele>946.6</ele>
        <time>2025-09-28T10:17:32Z</time>
      </trkpt>
      <trkpt lat="45.6955" lon="2.97799">
        <ele>946.8</ele>
        <time>2025-09-28T10:17:33Z</time>
      </trkpt>
      <trkpt lat="45.69551" lon="2.97795">
        <ele>947</ele>
        <time>2025-09-28T10:17:34Z</time>
      </trkpt>
      <trkpt lat="45.69552" lon="2.97791">
        <ele>947.2</ele>
        <time>2025-09-28T10:17:35Z</time>
      </trkpt>
      <trkpt lat="45.69553" lon="2.97788">
        <ele>947.2</ele>
        <time>2025-09-28T10:17:36Z</time>
      </trkpt>
      <trkpt lat="45.69554" lon="2.97783">
        <ele>947.4</ele>
        <time>2025-09-28T10:17:37Z</time>
      </trkpt>
      <trkpt lat="45.69557" lon="2.97779">
        <ele>947.4</ele>
        <time>2025-09-28T10:17:38Z</time>
      </trkpt>
      <trkpt lat="45.69558" lon="2.97774">
        <ele>947.2</ele>
        <time>2025-09-28T10:17:39Z</time>
      </trkpt>
      <trkpt lat="45.69561" lon="2.97769">
        <ele>947.2</ele>
        <time>2025-09-28T10:17:40Z</time>
      </trkpt>
      <trkpt lat="45.69563" lon="2.97763">
        <ele>946.8</ele>
        <time>2025-09-28T10:17:41Z</time>
      </trkpt>
      <trkpt lat="45.69566" lon="2.97756">
        <ele>946.6</ele>
        <time>2025-09-28T10:17:42Z</time>
      </trkpt>
      <trkpt lat="45.6957" lon="2.97747">
        <ele>946.4</ele>
        <time>2025-09-28T10:17:43Z</time>
      </trkpt>
      <trkpt lat="45.69574" lon="2.97739">
        <ele>946</ele>
        <time>2025-09-28T10:17:44Z</time>
      </trkpt>
      <trkpt lat="45.69577" lon="2.97733">
        <ele>945.8</ele>
        <time>2025-09-28T10:17:45Z</time>
      </trkpt>
      <trkpt lat="45.6958" lon="2.97728">
        <ele>945.6</ele>
        <time>2025-09-28T10:17:46Z</time>
      </trkpt>
      <trkpt lat="45.69583" lon="2.97724">
        <ele>945.2</ele>
        <time>2025-09-28T10:17:47Z</time>
      </trkpt>
      <trkpt lat="45.69587" lon="2.9772">
        <ele>945</ele>
        <time>2025-09-28T10:17:48Z</time>
      </trkpt>
      <trkpt lat="45.69592" lon="2.97715">
        <ele>944.6</ele>
        <time>2025-09-28T10:17:49Z</time>
      </trkpt>
      <trkpt lat="45.69597" lon="2.97708">
        <ele>944.2</ele>
        <time>2025-09-28T10:17:50Z</time>
      </trkpt>
      <trkpt lat="45.696" lon="2.977">
        <ele>944</ele>
        <time>2025-09-28T10:17:51Z</time>
      </trkpt>
      <trkpt lat="45.69602" lon="2.97693">
        <ele>943.8</ele>
        <time>2025-09-28T10:17:52Z</time>
      </trkpt>
      <trkpt lat="45.69604" lon="2.97684">
        <ele>943.4</ele>
        <time>2025-09-28T10:17:53Z</time>
      </trkpt>
      <trkpt lat="45.69604" lon="2.97676">
        <ele>943.2</ele>
        <time>2025-09-28T10:17:54Z</time>
      </trkpt>
      <trkpt lat="45.69605" lon="2.97665">
        <ele>943</ele>
        <time>2025-09-28T10:17:55Z</time>
      </trkpt>
      <trkpt lat="45.69607" lon="2.97655">
        <ele>942.8</ele>
        <time>2025-09-28T10:17:56Z</time>
      </trkpt>
      <trkpt lat="45.69609" lon="2.97645">
        <ele>942.6</ele>
        <time>2025-09-28T10:17:57Z</time>
      </trkpt>
      <trkpt lat="45.6961" lon="2.97637">
        <ele>942.6</ele>
        <time>2025-09-28T10:17:58Z</time>
      </trkpt>
      <trkpt lat="45.69609" lon="2.97629">
        <ele>942.4</ele>
        <time>2025-09-28T10:17:59Z</time>
      </trkpt>
      <trkpt lat="45.69609" lon="2.97624">
        <ele>942.2</ele>
        <time>2025-09-28T10:18:00Z</time>
      </trkpt>
      <trkpt lat="45.69608" lon="2.97619">
        <ele>942.2</ele>
        <time>2025-09-28T10:18:01Z</time>
      </trkpt>
      <trkpt lat="45.69604" lon="2.97613">
        <ele>942</ele>
        <time>2025-09-28T10:18:02Z</time>
      </trkpt>
      <trkpt lat="45.69599" lon="2.97608">
        <ele>942</ele>
        <time>2025-09-28T10:18:03Z</time>
      </trkpt>
      <trkpt lat="45.69594" lon="2.97602">
        <ele>941.8</ele>
        <time>2025-09-28T10:18:04Z</time>
      </trkpt>
      <trkpt lat="45.6959" lon="2.97596">
        <ele>941.8</ele>
        <time>2025-09-28T10:18:05Z</time>
      </trkpt>
      <trkpt lat="45.69584" lon="2.97591">
        <ele>941.8</ele>
        <time>2025-09-28T10:18:06Z</time>
      </trkpt>
      <trkpt lat="45.69577" lon="2.97587">
        <ele>941.8</ele>
        <time>2025-09-28T10:18:07Z</time>
      </trkpt>
      <trkpt lat="45.69571" lon="2.97585">
        <ele>941.8</ele>
        <time>2025-09-28T10:18:08Z</time>
      </trkpt>
      <trkpt lat="45.69567" lon="2.97582">
        <ele>941.8</ele>
        <time>2025-09-28T10:18:09Z</time>
      </trkpt>
      <trkpt lat="45.69561" lon="2.9758">
        <ele>942</ele>
        <time>2025-09-28T10:18:10Z</time>
      </trkpt>
      <trkpt lat="45.69553" lon="2.97577">
        <ele>942</ele>
        <time>2025-09-28T10:18:11Z</time>
      </trkpt>
      <trkpt lat="45.69545" lon="2.97572">
        <ele>941.8</ele>
        <time>2025-09-28T10:18:12Z</time>
      </trkpt>
      <trkpt lat="45.69537" lon="2.97565">
        <ele>941.8</ele>
        <time>2025-09-28T10:18:13Z</time>
      </trkpt>
      <trkpt lat="45.6953" lon="2.97558">
        <ele>941.6</ele>
        <time>2025-09-28T10:18:14Z</time>
      </trkpt>
      <trkpt lat="45.69526" lon="2.97553">
        <ele>941.4</ele>
        <time>2025-09-28T10:18:15Z</time>
      </trkpt>
      <trkpt lat="45.69522" lon="2.9755">
        <ele>941</ele>
        <time>2025-09-28T10:18:16Z</time>
      </trkpt>
      <trkpt lat="45.69519" lon="2.97546">
        <ele>941</ele>
        <time>2025-09-28T10:18:17Z</time>
      </trkpt>
      <trkpt lat="45.69516" lon="2.97543">
        <ele>940.8</ele>
        <time>2025-09-28T10:18:18Z</time>
      </trkpt>
      <trkpt lat="45.69512" lon="2.97537">
        <ele>940.6</ele>
        <time>2025-09-28T10:18:19Z</time>
      </trkpt>
      <trkpt lat="45.69505" lon="2.9753">
        <ele>940.6</ele>
        <time>2025-09-28T10:18:20Z</time>
      </trkpt>
      <trkpt lat="45.69501" lon="2.97525">
        <ele>940.6</ele>
        <time>2025-09-28T10:18:21Z</time>
      </trkpt>
      <trkpt lat="45.69496" lon="2.97523">
        <ele>940.6</ele>
        <time>2025-09-28T10:18:22Z</time>
      </trkpt>
      <trkpt lat="45.69491" lon="2.9752">
        <ele>940.6</ele>
        <time>2025-09-28T10:18:23Z</time>
      </trkpt>
      <trkpt lat="45.69487" lon="2.97517">
        <ele>940.6</ele>
        <time>2025-09-28T10:18:24Z</time>
      </trkpt>
      <trkpt lat="45.69481" lon="2.97514">
        <ele>940.6</ele>
        <time>2025-09-28T10:18:25Z</time>
      </trkpt>
      <trkpt lat="45.69475" lon="2.9751">
        <ele>940.6</ele>
        <time>2025-09-28T10:18:26Z</time>
      </trkpt>
      <trkpt lat="45.69469" lon="2.97507">
        <ele>940.6</ele>
        <time>2025-09-28T10:18:27Z</time>
      </trkpt>
      <trkpt lat="45.69466" lon="2.97505">
        <ele>940.8</ele>
        <time>2025-09-28T10:18:28Z</time>
      </trkpt>
      <trkpt lat="45.69464" lon="2.97504">
        <ele>941</ele>
        <time>2025-09-28T10:18:29Z</time>
      </trkpt>
      <trkpt lat="45.69464" lon="2.975">
        <ele>941.2</ele>
        <time>2025-09-28T10:18:30Z</time>
      </trkpt>
      <trkpt lat="45.69465" lon="2.97495">
        <ele>941.4</ele>
        <time>2025-09-28T10:18:31Z</time>
      </trkpt>
      <trkpt lat="45.69465" lon="2.97489">
        <ele>941.4</ele>
        <time>2025-09-28T10:18:32Z</time>
      </trkpt>
      <trkpt lat="45.69463" lon="2.97483">
        <ele>941.6</ele>
        <time>2025-09-28T10:18:33Z</time>
      </trkpt>
      <trkpt lat="45.69461" lon="2.97477">
        <ele>941.8</ele>
        <time>2025-09-28T10:18:34Z</time>
      </trkpt>
      <trkpt lat="45.69457" lon="2.97471">
        <ele>942</ele>
        <time>2025-09-28T10:18:35Z</time>
      </trkpt>
      <trkpt lat="45.69454" lon="2.97465">
        <ele>942.2</ele>
        <time>2025-09-28T10:18:36Z</time>
      </trkpt>
      <trkpt lat="45.69452" lon="2.9746">
        <ele>942.4</ele>
        <time>2025-09-28T10:18:37Z</time>
      </trkpt>
      <trkpt lat="45.69452" lon="2.97457">
        <ele>942.8</ele>
        <time>2025-09-28T10:18:38Z</time>
      </trkpt>
      <trkpt lat="45.69452" lon="2.97454">
        <ele>943</ele>
        <time>2025-09-28T10:18:39Z</time>
      </trkpt>
      <trkpt lat="45.69451" lon="2.9745">
        <ele>943.2</ele>
        <time>2025-09-28T10:18:40Z</time>
      </trkpt>
      <trkpt lat="45.69451" lon="2.97447">
        <ele>943.4</ele>
        <time>2025-09-28T10:18:41Z</time>
      </trkpt>
      <trkpt lat="45.69452" lon="2.97446">
        <ele>943.6</ele>
        <time>2025-09-28T10:18:42Z</time>
      </trkpt>
      <trkpt lat="45.69453" lon="2.97445">
        <ele>943.8</ele>
        <time>2025-09-28T10:18:43Z</time>
      </trkpt>
      <trkpt lat="45.69453" lon="2.97442">
        <ele>944</ele>
        <time>2025-09-28T10:18:44Z</time>
      </trkpt>
      <trkpt lat="45.69453" lon="2.97439">
        <ele>944.4</ele>
        <time>2025-09-28T10:18:45Z</time>
      </trkpt>
      <trkpt lat="45.69451" lon="2.97435">
        <ele>944.6</ele>
        <time>2025-09-28T10:18:46Z</time>
      </trkpt>
      <trkpt lat="45.69449" lon="2.97431">
        <ele>945</ele>
        <time>2025-09-28T10:18:47Z</time>
      </trkpt>
      <trkpt lat="45.69448" lon="2.97426">
        <ele>945.2</ele>
        <time>2025-09-28T10:18:48Z</time>
      </trkpt>
      <trkpt lat="45.69446" lon="2.97422">
        <ele>945.6</ele>
        <time>2025-09-28T10:18:49Z</time>
      </trkpt>
      <trkpt lat="45.69445" lon="2.97419">
        <ele>945.8</ele>
        <time>2025-09-28T10:18:50Z</time>
      </trkpt>
      <trkpt lat="45.69444" lon="2.97415">
        <ele>946.2</ele>
        <time>2025-09-28T10:18:51Z</time>
      </trkpt>
      <trkpt lat="45.69441" lon="2.97411">
        <ele>946.4</ele>
        <time>2025-09-28T10:18:52Z</time>
      </trkpt>
      <trkpt lat="45.69438" lon="2.97407">
        <ele>946.8</ele>
        <time>2025-09-28T10:18:53Z</time>
      </trkpt>
      <trkpt lat="45.69436" lon="2.97404">
        <ele>947</ele>
        <time>2025-09-28T10:18:54Z</time>
      </trkpt>
      <trkpt lat="45.69435" lon="2.974">
        <ele>947.2</ele>
        <time>2025-09-28T10:18:55Z</time>
      </trkpt>
      <trkpt lat="45.69434" lon="2.97398">
        <ele>947.4</ele>
        <time>2025-09-28T10:18:56Z</time>
      </trkpt>
      <trkpt lat="45.69434" lon="2.97396">
        <ele>947.8</ele>
        <time>2025-09-28T10:18:57Z</time>
      </trkpt>
      <trkpt lat="45.69434" lon="2.97396">
        <ele>948</ele>
        <time>2025-09-28T10:18:58Z</time>
      </trkpt>
      <trkpt lat="45.69435" lon="2.97398">
        <ele>948</ele>
        <time>2025-09-28T10:18:59Z</time>
      </trkpt>
      <trkpt lat="45.69435" lon="2.97396">
        <ele>948.4</ele>
        <time>2025-09-28T10:19:00Z</time>
      </trkpt>
      <trkpt lat="45.69436" lon="2.97395">
        <ele>948.6</ele>
        <time>2025-09-28T10:19:01Z</time>
      </trkpt>
      <trkpt lat="45.69437" lon="2.97394">
        <ele>948.8</ele>
        <time>2025-09-28T10:19:02Z</time>
      </trkpt>
      <trkpt lat="45.69438" lon="2.97393">
        <ele>949</ele>
        <time>2025-09-28T10:19:03Z</time>
      </trkpt>
      <trkpt lat="45.69439" lon="2.97391">
        <ele>949.4</ele>
        <time>2025-09-28T10:19:04Z</time>
      </trkpt>
      <trkpt lat="45.69439" lon="2.97389">
        <ele>949.6</ele>
        <time>2025-09-28T10:19:05Z</time>
      </trkpt>
      <trkpt lat="45.69439" lon="2.97388">
        <ele>949.8</ele>
        <time>2025-09-28T10:19:06Z</time>
      </trkpt>
      <trkpt lat="45.6944" lon="2.97385">
        <ele>950</ele>
        <time>2025-09-28T10:19:07Z</time>
      </trkpt>
      <trkpt lat="45.6944" lon="2.97383">
        <ele>950.2</ele>
        <time>2025-09-28T10:19:08Z</time>
      </trkpt>
      <trkpt lat="45.6944" lon="2.97381">
        <ele>950.4</ele>
        <time>2025-09-28T10:19:09Z</time>
      </trkpt>
      <trkpt lat="45.69439" lon="2.9738">
        <ele>950.6</ele>
        <time>2025-09-28T10:19:10Z</time>
      </trkpt>
      <trkpt lat="45.69439" lon="2.97378">
        <ele>950.8</ele>
        <time>2025-09-28T10:19:11Z</time>
      </trkpt>
      <trkpt lat="45.69439" lon="2.97376">
        <ele>951</ele>
        <time>2025-09-28T10:19:12Z</time>
      </trkpt>
      <trkpt lat="45.69439" lon="2.97374">
        <ele>951.2</ele>
        <time>2025-09-28T10:19:13Z</time>
      </trkpt>
      <trkpt lat="45.6944" lon="2.97372">
        <ele>951.4</ele>
        <time>2025-09-28T10:19:14Z</time>
      </trkpt>
      <trkpt lat="45.6944" lon="2.97371">
        <ele>951.6</ele>
        <time>2025-09-28T10:19:15Z</time>
      </trkpt>
      <trkpt lat="45.6944" lon="2.97369">
        <ele>951.8</ele>
        <time>2025-09-28T10:19:16Z</time>
      </trkpt>
      <trkpt lat="45.6944" lon="2.97368">
        <ele>952</ele>
        <time>2025-09-28T10:19:17Z</time>
      </trkpt>
      <trkpt lat="45.69439" lon="2.97368">
        <ele>952.2</ele>
        <time>2025-09-28T10:19:18Z</time>
      </trkpt>
      <trkpt lat="45.69439" lon="2.97367">
        <ele>952.4</ele>
        <time>2025-09-28T10:19:19Z</time>
      </trkpt>
      <trkpt lat="45.69439" lon="2.97366">
        <ele>952.6</ele>
        <time>2025-09-28T10:19:20Z</time>
      </trkpt>
      <trkpt lat="45.6944" lon="2.97364">
        <ele>952.8</ele>
        <time>2025-09-28T10:19:21Z</time>
      </trkpt>
      <trkpt lat="45.6944" lon="2.97363">
        <ele>953</ele>
        <time>2025-09-28T10:19:22Z</time>
      </trkpt>
      <trkpt lat="45.69441" lon="2.97361">
        <ele>953.2</ele>
        <time>2025-09-28T10:19:23Z</time>
      </trkpt>
      <trkpt lat="45.69441" lon="2.97358">
        <ele>953.4</ele>
        <time>2025-09-28T10:19:24Z</time>
      </trkpt>
      <trkpt lat="45.69441" lon="2.97355">
        <ele>953.8</ele>
        <time>2025-09-28T10:19:25Z</time>
      </trkpt>
      <trkpt lat="45.69441" lon="2.97352">
        <ele>954</ele>
        <time>2025-09-28T10:19:26Z</time>
      </trkpt>
      <trkpt lat="45.69441" lon="2.97349">
        <ele>954.2</ele>
        <time>2025-09-28T10:19:27Z</time>
      </trkpt>
      <trkpt lat="45.69441" lon="2.97346">
        <ele>954.4</ele>
        <time>2025-09-28T10:19:28Z</time>
      </trkpt>
      <trkpt lat="45.6944" lon="2.97344">
        <ele>954.4</ele>
        <time>2025-09-28T10:19:29Z</time>
      </trkpt>
      <trkpt lat="45.6944" lon="2.97343">
        <ele>954.6</ele>
        <time>2025-09-28T10:19:30Z</time>
      </trkpt>
      <trkpt lat="45.6944" lon="2.97342">
        <ele>954.8</ele>
        <time>2025-09-28T10:19:31Z</time>
      </trkpt>
      <trkpt lat="45.6944" lon="2.97341">
        <ele>955</ele>
        <time>2025-09-28T10:19:33Z</time>
      </trkpt>
      <trkpt lat="45.6944" lon="2.97341">
        <ele>955.2</ele>
        <time>2025-09-28T10:19:34Z</time>
      </trkpt>
      <trkpt lat="45.6944" lon="2.9734">
        <ele>955.4</ele>
        <time>2025-09-28T10:19:35Z</time>
      </trkpt>
      <trkpt lat="45.69441" lon="2.97339">
        <ele>955.6</ele>
        <time>2025-09-28T10:19:36Z</time>
      </trkpt>
      <trkpt lat="45.69442" lon="2.97338">
        <ele>955.8</ele>
        <time>2025-09-28T10:19:37Z</time>
      </trkpt>
      <trkpt lat="45.69442" lon="2.97338">
        <ele>956</ele>
        <time>2025-09-28T10:19:38Z</time>
      </trkpt>
      <trkpt lat="45.69442" lon="2.97338">
        <ele>956.2</ele>
        <time>2025-09-28T10:19:39Z</time>
      </trkpt>
      <trkpt lat="45.69442" lon="2.97338">
        <ele>956.4</ele>
        <time>2025-09-28T10:19:40Z</time>
      </trkpt>
      <trkpt lat="45.69443" lon="2.97337">
        <ele>956.6</ele>
        <time>2025-09-28T10:19:41Z</time>
      </trkpt>
      <trkpt lat="45.69443" lon="2.97335">
        <ele>956.8</ele>
        <time>2025-09-28T10:19:42Z</time>
      </trkpt>
      <trkpt lat="45.69443" lon="2.97334">
        <ele>957</ele>
        <time>2025-09-28T10:19:43Z</time>
      </trkpt>
      <trkpt lat="45.69444" lon="2.97333">
        <ele>957.2</ele>
        <time>2025-09-28T10:19:44Z</time>
      </trkpt>
      <trkpt lat="45.69444" lon="2.97333">
        <ele>957.4</ele>
        <time>2025-09-28T10:19:45Z</time>
      </trkpt>
      <trkpt lat="45.69444" lon="2.97332">
        <ele>957.6</ele>
        <time>2025-09-28T10:19:46Z</time>
      </trkpt>
      <trkpt lat="45.69444" lon="2.9733">
        <ele>957.8</ele>
        <time>2025-09-28T10:19:47Z</time>
      </trkpt>
      <trkpt lat="45.69445" lon="2.97328">
        <ele>958</ele>
        <time>2025-09-28T10:19:48Z</time>
      </trkpt>
      <trkpt lat="45.69445" lon="2.97326">
        <ele>958.2</ele>
        <time>2025-09-28T10:19:49Z</time>
      </trkpt>
      <trkpt lat="45.69445" lon="2.97326">
        <ele>958.2</ele>
        <time>2025-09-28T10:19:50Z</time>
      </trkpt>
      <trkpt lat="45.69445" lon="2.97326">
        <ele>958.4</ele>
        <time>2025-09-28T10:19:51Z</time>
      </trkpt>
      <trkpt lat="45.69445" lon="2.97326">
        <ele>958.4</ele>
        <time>2025-09-28T10:19:52Z</time>
      </trkpt>
      <trkpt lat="45.69445" lon="2.97326">
        <ele>958.6</ele>
        <time>2025-09-28T10:19:53Z</time>
      </trkpt>
      <trkpt lat="45.69445" lon="2.97326">
        <ele>958.6</ele>
        <time>2025-09-28T10:19:54Z</time>
      </trkpt>
      <trkpt lat="45.69447" lon="2.97308">
        <ele>959</ele>
        <time>2025-09-28T10:20:51Z</time>
      </trkpt>
      <trkpt lat="45.69448" lon="2.97305">
        <ele>959</ele>
        <time>2025-09-28T10:20:52Z</time>
      </trkpt>
      <trkpt lat="45.69449" lon="2.97301">
        <ele>959</ele>
        <time>2025-09-28T10:20:53Z</time>
      </trkpt>
      <trkpt lat="45.69449" lon="2.97298">
        <ele>959.2</ele>
        <time>2025-09-28T10:20:54Z</time>
      </trkpt>
      <trkpt lat="45.69449" lon="2.97296">
        <ele>959.4</ele>
        <time>2025-09-28T10:20:55Z</time>
      </trkpt>
      <trkpt lat="45.6945" lon="2.97293">
        <ele>959.6</ele>
        <time>2025-09-28T10:20:56Z</time>
      </trkpt>
      <trkpt lat="45.69451" lon="2.97291">
        <ele>959.8</ele>
        <time>2025-09-28T10:20:57Z</time>
      </trkpt>
      <trkpt lat="45.69451" lon="2.9729">
        <ele>960</ele>
        <time>2025-09-28T10:20:58Z</time>
      </trkpt>
      <trkpt lat="45.69452" lon="2.97287">
        <ele>960.2</ele>
        <time>2025-09-28T10:20:59Z</time>
      </trkpt>
      <trkpt lat="45.69452" lon="2.97283">
        <ele>960.6</ele>
        <time>2025-09-28T10:21:00Z</time>
      </trkpt>
      <trkpt lat="45.69452" lon="2.97279">
        <ele>960.8</ele>
        <time>2025-09-28T10:21:01Z</time>
      </trkpt>
      <trkpt lat="45.69453" lon="2.97275">
        <ele>961.2</ele>
        <time>2025-09-28T10:21:02Z</time>
      </trkpt>
      <trkpt lat="45.69453" lon="2.97272">
        <ele>961.4</ele>
        <time>2025-09-28T10:21:03Z</time>
      </trkpt>
      <trkpt lat="45.69453" lon="2.97269">
        <ele>961.8</ele>
        <time>2025-09-28T10:21:04Z</time>
      </trkpt>
      <trkpt lat="45.69453" lon="2.97266">
        <ele>962</ele>
        <time>2025-09-28T10:21:05Z</time>
      </trkpt>
      <trkpt lat="45.69454" lon="2.97262">
        <ele>962.4</ele>
        <time>2025-09-28T10:21:06Z</time>
      </trkpt>
      <trkpt lat="45.69455" lon="2.97258">
        <ele>962.6</ele>
        <time>2025-09-28T10:21:07Z</time>
      </trkpt>
      <trkpt lat="45.69455" lon="2.97254">
        <ele>963</ele>
        <time>2025-09-28T10:21:08Z</time>
      </trkpt>
      <trkpt lat="45.69456" lon="2.97249">
        <ele>963.2</ele>
        <time>2025-09-28T10:21:09Z</time>
      </trkpt>
      <trkpt lat="45.69456" lon="2.97245">
        <ele>963.4</ele>
        <time>2025-09-28T10:21:10Z</time>
      </trkpt>
      <trkpt lat="45.69455" lon="2.97241">
        <ele>963.8</ele>
        <time>2025-09-28T10:21:11Z</time>
      </trkpt>
      <trkpt lat="45.69456" lon="2.97238">
        <ele>964</ele>
        <time>2025-09-28T10:21:12Z</time>
      </trkpt>
      <trkpt lat="45.69456" lon="2.97233">
        <ele>964.2</ele>
        <time>2025-09-28T10:21:13Z</time>
      </trkpt>
      <trkpt lat="45.69456" lon="2.97229">
        <ele>964.4</ele>
        <time>2025-09-28T10:21:14Z</time>
      </trkpt>
      <trkpt lat="45.69457" lon="2.97225">
        <ele>964.6</ele>
        <time>2025-09-28T10:21:15Z</time>
      </trkpt>
      <trkpt lat="45.69459" lon="2.9722">
        <ele>964.8</ele>
        <time>2025-09-28T10:21:16Z</time>
      </trkpt>
      <trkpt lat="45.69462" lon="2.97211">
        <ele>965</ele>
        <time>2025-09-28T10:21:17Z</time>
      </trkpt>
      <trkpt lat="45.69465" lon="2.97203">
        <ele>965.4</ele>
        <time>2025-09-28T10:21:18Z</time>
      </trkpt>
      <trkpt lat="45.69467" lon="2.97197">
        <ele>965.6</ele>
        <time>2025-09-28T10:21:19Z</time>
      </trkpt>
      <trkpt lat="45.69469" lon="2.97192">
        <ele>966</ele>
        <time>2025-09-28T10:21:20Z</time>
      </trkpt>
      <trkpt lat="45.6947" lon="2.97185">
        <ele>966.2</ele>
        <time>2025-09-28T10:21:21Z</time>
      </trkpt>
      <trkpt lat="45.6947" lon="2.97177">
        <ele>966.4</ele>
        <time>2025-09-28T10:21:22Z</time>
      </trkpt>
      <trkpt lat="45.69471" lon="2.97172">
        <ele>966.8</ele>
        <time>2025-09-28T10:21:23Z</time>
      </trkpt>
      <trkpt lat="45.6947" lon="2.97169">
        <ele>967</ele>
        <time>2025-09-28T10:21:24Z</time>
      </trkpt>
      <trkpt lat="45.69469" lon="2.97165">
        <ele>967.4</ele>
        <time>2025-09-28T10:21:25Z</time>
      </trkpt>
      <trkpt lat="45.69469" lon="2.97161">
        <ele>967.8</ele>
        <time>2025-09-28T10:21:26Z</time>
      </trkpt>
      <trkpt lat="45.69469" lon="2.97157">
        <ele>968.2</ele>
        <time>2025-09-28T10:21:27Z</time>
      </trkpt>
      <trkpt lat="45.69469" lon="2.97153">
        <ele>968.6</ele>
        <time>2025-09-28T10:21:28Z</time>
      </trkpt>
      <trkpt lat="45.69469" lon="2.97149">
        <ele>969.2</ele>
        <time>2025-09-28T10:21:29Z</time>
      </trkpt>
      <trkpt lat="45.6947" lon="2.97146">
        <ele>969.6</ele>
        <time>2025-09-28T10:21:30Z</time>
      </trkpt>
      <trkpt lat="45.69472" lon="2.97143">
        <ele>970</ele>
        <time>2025-09-28T10:21:31Z</time>
      </trkpt>
      <trkpt lat="45.69473" lon="2.9714">
        <ele>970.4</ele>
        <time>2025-09-28T10:21:32Z</time>
      </trkpt>
      <trkpt lat="45.69475" lon="2.97135">
        <ele>970.8</ele>
        <time>2025-09-28T10:21:33Z</time>
      </trkpt>
      <trkpt lat="45.69476" lon="2.97131">
        <ele>971.2</ele>
        <time>2025-09-28T10:21:34Z</time>
      </trkpt>
      <trkpt lat="45.69477" lon="2.97128">
        <ele>971.6</ele>
        <time>2025-09-28T10:21:35Z</time>
      </trkpt>
      <trkpt lat="45.69478" lon="2.97125">
        <ele>971.8</ele>
        <time>2025-09-28T10:21:36Z</time>
      </trkpt>
      <trkpt lat="45.6948" lon="2.97121">
        <ele>972.4</ele>
        <time>2025-09-28T10:21:37Z</time>
      </trkpt>
      <trkpt lat="45.69482" lon="2.97117">
        <ele>972.8</ele>
        <time>2025-09-28T10:21:38Z</time>
      </trkpt>
      <trkpt lat="45.69483" lon="2.97112">
        <ele>973.2</ele>
        <time>2025-09-28T10:21:39Z</time>
      </trkpt>
      <trkpt lat="45.69485" lon="2.97107">
        <ele>973.6</ele>
        <time>2025-09-28T10:21:40Z</time>
      </trkpt>
      <trkpt lat="45.69487" lon="2.97102">
        <ele>974</ele>
        <time>2025-09-28T10:21:41Z</time>
      </trkpt>
      <trkpt lat="45.69489" lon="2.97099">
        <ele>974.4</ele>
        <time>2025-09-28T10:21:42Z</time>
      </trkpt>
      <trkpt lat="45.69491" lon="2.97095">
        <ele>974.8</ele>
        <time>2025-09-28T10:21:43Z</time>
      </trkpt>
      <trkpt lat="45.69492" lon="2.97092">
        <ele>975.2</ele>
        <time>2025-09-28T10:21:44Z</time>
      </trkpt>
      <trkpt lat="45.69494" lon="2.97089">
        <ele>975.6</ele>
        <time>2025-09-28T10:21:45Z</time>
      </trkpt>
      <trkpt lat="45.69495" lon="2.97085">
        <ele>976</ele>
        <time>2025-09-28T10:21:46Z</time>
      </trkpt>
      <trkpt lat="45.69495" lon="2.97082">
        <ele>976.4</ele>
        <time>2025-09-28T10:21:47Z</time>
      </trkpt>
      <trkpt lat="45.69496" lon="2.97077">
        <ele>976.8</ele>
        <time>2025-09-28T10:21:48Z</time>
      </trkpt>
      <trkpt lat="45.69497" lon="2.97074">
        <ele>977</ele>
        <time>2025-09-28T10:21:49Z</time>
      </trkpt>
      <trkpt lat="45.69499" lon="2.97071">
        <ele>977.4</ele>
        <time>2025-09-28T10:21:50Z</time>
      </trkpt>
      <trkpt lat="45.69501" lon="2.97068">
        <ele>977.6</ele>
        <time>2025-09-28T10:21:51Z</time>
      </trkpt>
      <trkpt lat="45.69503" lon="2.97064">
        <ele>977.8</ele>
        <time>2025-09-28T10:21:52Z</time>
      </trkpt>
      <trkpt lat="45.69504" lon="2.97058">
        <ele>978</ele>
        <time>2025-09-28T10:21:53Z</time>
      </trkpt>
      <trkpt lat="45.69505" lon="2.97051">
        <ele>978</ele>
        <time>2025-09-28T10:21:54Z</time>
      </trkpt>
      <trkpt lat="45.69505" lon="2.97047">
        <ele>978.2</ele>
        <time>2025-09-28T10:21:55Z</time>
      </trkpt>
      <trkpt lat="45.69506" lon="2.97044">
        <ele>978.4</ele>
        <time>2025-09-28T10:21:56Z</time>
      </trkpt>
      <trkpt lat="45.69506" lon="2.97042">
        <ele>978.6</ele>
        <time>2025-09-28T10:21:57Z</time>
      </trkpt>
      <trkpt lat="45.69507" lon="2.97039">
        <ele>978.8</ele>
        <time>2025-09-28T10:21:58Z</time>
      </trkpt>
      <trkpt lat="45.69509" lon="2.97036">
        <ele>979</ele>
        <time>2025-09-28T10:21:59Z</time>
      </trkpt>
      <trkpt lat="45.69512" lon="2.97032">
        <ele>979.2</ele>
        <time>2025-09-28T10:22:00Z</time>
      </trkpt>
      <trkpt lat="45.69515" lon="2.97029">
        <ele>979.4</ele>
        <time>2025-09-28T10:22:01Z</time>
      </trkpt>
      <trkpt lat="45.69517" lon="2.97026">
        <ele>979.6</ele>
        <time>2025-09-28T10:22:02Z</time>
      </trkpt>
      <trkpt lat="45.69519" lon="2.97023">
        <ele>979.8</ele>
        <time>2025-09-28T10:22:03Z</time>
      </trkpt>
      <trkpt lat="45.69521" lon="2.97019">
        <ele>980</ele>
        <time>2025-09-28T10:22:04Z</time>
      </trkpt>
      <trkpt lat="45.69522" lon="2.97017">
        <ele>980.2</ele>
        <time>2025-09-28T10:22:05Z</time>
      </trkpt>
      <trkpt lat="45.69525" lon="2.97012">
        <ele>980.2</ele>
        <time>2025-09-28T10:22:06Z</time>
      </trkpt>
      <trkpt lat="45.69528" lon="2.97004">
        <ele>980.4</ele>
        <time>2025-09-28T10:22:07Z</time>
      </trkpt>
      <trkpt lat="45.69532" lon="2.96997">
        <ele>980.6</ele>
        <time>2025-09-28T10:22:08Z</time>
      </trkpt>
      <trkpt lat="45.69534" lon="2.96991">
        <ele>980.8</ele>
        <time>2025-09-28T10:22:09Z</time>
      </trkpt>
      <trkpt lat="45.69537" lon="2.96989">
        <ele>981.2</ele>
        <time>2025-09-28T10:22:10Z</time>
      </trkpt>
      <trkpt lat="45.69539" lon="2.96988">
        <ele>981.6</ele>
        <time>2025-09-28T10:22:11Z</time>
      </trkpt>
      <trkpt lat="45.69542" lon="2.96986">
        <ele>982</ele>
        <time>2025-09-28T10:22:12Z</time>
      </trkpt>
      <trkpt lat="45.69546" lon="2.96984">
        <ele>982.2</ele>
        <time>2025-09-28T10:22:13Z</time>
      </trkpt>
      <trkpt lat="45.69551" lon="2.96979">
        <ele>982.4</ele>
        <time>2025-09-28T10:22:14Z</time>
      </trkpt>
      <trkpt lat="45.69557" lon="2.96974">
        <ele>982.6</ele>
        <time>2025-09-28T10:22:15Z</time>
      </trkpt>
      <trkpt lat="45.69563" lon="2.96967">
        <ele>982.4</ele>
        <time>2025-09-28T10:22:16Z</time>
      </trkpt>
      <trkpt lat="45.69571" lon="2.9696">
        <ele>982.4</ele>
        <time>2025-09-28T10:22:17Z</time>
      </trkpt>
      <trkpt lat="45.69579" lon="2.96953">
        <ele>982.4</ele>
        <time>2025-09-28T10:22:18Z</time>
      </trkpt>
      <trkpt lat="45.69583" lon="2.96948">
        <ele>982.4</ele>
        <time>2025-09-28T10:22:19Z</time>
      </trkpt>
      <trkpt lat="45.69585" lon="2.96946">
        <ele>982.4</ele>
        <time>2025-09-28T10:22:20Z</time>
      </trkpt>
      <trkpt lat="45.69587" lon="2.96945">
        <ele>982.6</ele>
        <time>2025-09-28T10:22:21Z</time>
      </trkpt>
      <trkpt lat="45.69589" lon="2.96944">
        <ele>982.8</ele>
        <time>2025-09-28T10:22:22Z</time>
      </trkpt>
      <trkpt lat="45.69591" lon="2.96942">
        <ele>983.2</ele>
        <time>2025-09-28T10:22:23Z</time>
      </trkpt>
      <trkpt lat="45.69593" lon="2.9694">
        <ele>983.4</ele>
        <time>2025-09-28T10:22:24Z</time>
      </trkpt>
      <trkpt lat="45.69596" lon="2.96939">
        <ele>983.8</ele>
        <time>2025-09-28T10:22:25Z</time>
      </trkpt>
      <trkpt lat="45.69598" lon="2.96939">
        <ele>984</ele>
        <time>2025-09-28T10:22:26Z</time>
      </trkpt>
      <trkpt lat="45.696" lon="2.96939">
        <ele>984.4</ele>
        <time>2025-09-28T10:22:27Z</time>
      </trkpt>
      <trkpt lat="45.69602" lon="2.96938">
        <ele>984.8</ele>
        <time>2025-09-28T10:22:28Z</time>
      </trkpt>
      <trkpt lat="45.69603" lon="2.96936">
        <ele>985.2</ele>
        <time>2025-09-28T10:22:29Z</time>
      </trkpt>
      <trkpt lat="45.69606" lon="2.96934">
        <ele>985.6</ele>
        <time>2025-09-28T10:22:30Z</time>
      </trkpt>
      <trkpt lat="45.6961" lon="2.96932">
        <ele>986</ele>
        <time>2025-09-28T10:22:31Z</time>
      </trkpt>
      <trkpt lat="45.69614" lon="2.9693">
        <ele>986.4</ele>
        <time>2025-09-28T10:22:32Z</time>
      </trkpt>
      <trkpt lat="45.69617" lon="2.96927">
        <ele>986.6</ele>
        <time>2025-09-28T10:22:33Z</time>
      </trkpt>
      <trkpt lat="45.69619" lon="2.96925">
        <ele>986.8</ele>
        <time>2025-09-28T10:22:34Z</time>
      </trkpt>
      <trkpt lat="45.69622" lon="2.96921">
        <ele>986.8</ele>
        <time>2025-09-28T10:22:35Z</time>
      </trkpt>
      <trkpt lat="45.69626" lon="2.96918">
        <ele>987</ele>
        <time>2025-09-28T10:22:36Z</time>
      </trkpt>
      <trkpt lat="45.6963" lon="2.96914">
        <ele>987</ele>
        <time>2025-09-28T10:22:37Z</time>
      </trkpt>
      <trkpt lat="45.69633" lon="2.96912">
        <ele>987.2</ele>
        <time>2025-09-28T10:22:38Z</time>
      </trkpt>
      <trkpt lat="45.69635" lon="2.96911">
        <ele>987.4</ele>
        <time>2025-09-28T10:22:39Z</time>
      </trkpt>
      <trkpt lat="45.69637" lon="2.9691">
        <ele>987.4</ele>
        <time>2025-09-28T10:22:40Z</time>
      </trkpt>
      <trkpt lat="45.6964" lon="2.9691">
        <ele>987.6</ele>
        <time>2025-09-28T10:22:41Z</time>
      </trkpt>
      <trkpt lat="45.69642" lon="2.9691">
        <ele>987.6</ele>
        <time>2025-09-28T10:22:42Z</time>
      </trkpt>
      <trkpt lat="45.69644" lon="2.96908">
        <ele>987.4</ele>
        <time>2025-09-28T10:22:43Z</time>
      </trkpt>
      <trkpt lat="45.69646" lon="2.96906">
        <ele>987.2</ele>
        <time>2025-09-28T10:22:44Z</time>
      </trkpt>
      <trkpt lat="45.69649" lon="2.96905">
        <ele>987</ele>
        <time>2025-09-28T10:22:45Z</time>
      </trkpt>
      <trkpt lat="45.69652" lon="2.96903">
        <ele>986.6</ele>
        <time>2025-09-28T10:22:46Z</time>
      </trkpt>
      <trkpt lat="45.69655" lon="2.96903">
        <ele>986.4</ele>
        <time>2025-09-28T10:22:47Z</time>
      </trkpt>
      <trkpt lat="45.69658" lon="2.96904">
        <ele>986.2</ele>
        <time>2025-09-28T10:22:48Z</time>
      </trkpt>
      <trkpt lat="45.69661" lon="2.96905">
        <ele>986</ele>
        <time>2025-09-28T10:22:49Z</time>
      </trkpt>
      <trkpt lat="45.69666" lon="2.96905">
        <ele>985.8</ele>
        <time>2025-09-28T10:22:50Z</time>
      </trkpt>
      <trkpt lat="45.69671" lon="2.96904">
        <ele>985.4</ele>
        <time>2025-09-28T10:22:51Z</time>
      </trkpt>
      <trkpt lat="45.69676" lon="2.96904">
        <ele>985.2</ele>
        <time>2025-09-28T10:22:52Z</time>
      </trkpt>
      <trkpt lat="45.69683" lon="2.96904">
        <ele>985</ele>
        <time>2025-09-28T10:22:53Z</time>
      </trkpt>
      <trkpt lat="45.69691" lon="2.96903">
        <ele>984.8</ele>
        <time>2025-09-28T10:22:54Z</time>
      </trkpt>
      <trkpt lat="45.69701" lon="2.96899">
        <ele>984.6</ele>
        <time>2025-09-28T10:22:55Z</time>
      </trkpt>
      <trkpt lat="45.69712" lon="2.96896">
        <ele>984.4</ele>
        <time>2025-09-28T10:22:56Z</time>
      </trkpt>
      <trkpt lat="45.6972" lon="2.96896">
        <ele>984.2</ele>
        <time>2025-09-28T10:22:57Z</time>
      </trkpt>
      <trkpt lat="45.69727" lon="2.96899">
        <ele>984</ele>
        <time>2025-09-28T10:22:58Z</time>
      </trkpt>
      <trkpt lat="45.69733" lon="2.96903">
        <ele>983.8</ele>
        <time>2025-09-28T10:22:59Z</time>
      </trkpt>
      <trkpt lat="45.69739" lon="2.96907">
        <ele>983.6</ele>
        <time>2025-09-28T10:23:00Z</time>
      </trkpt>
      <trkpt lat="45.69745" lon="2.96909">
        <ele>983.2</ele>
        <time>2025-09-28T10:23:01Z</time>
      </trkpt>
      <trkpt lat="45.69751" lon="2.96908">
        <ele>983</ele>
        <time>2025-09-28T10:23:02Z</time>
      </trkpt>
      <trkpt lat="45.69758" lon="2.96906">
        <ele>982.6</ele>
        <time>2025-09-28T10:23:03Z</time>
      </trkpt>
      <trkpt lat="45.69764" lon="2.96904">
        <ele>982.4</ele>
        <time>2025-09-28T10:23:04Z</time>
      </trkpt>
      <trkpt lat="45.6977" lon="2.96903">
        <ele>982</ele>
        <time>2025-09-28T10:23:05Z</time>
      </trkpt>
      <trkpt lat="45.69776" lon="2.96901">
        <ele>981.8</ele>
        <time>2025-09-28T10:23:06Z</time>
      </trkpt>
      <trkpt lat="45.69781" lon="2.969">
        <ele>981.6</ele>
        <time>2025-09-28T10:23:07Z</time>
      </trkpt>
      <trkpt lat="45.69785" lon="2.96899">
        <ele>981.2</ele>
        <time>2025-09-28T10:23:08Z</time>
      </trkpt>
      <trkpt lat="45.69788" lon="2.969">
        <ele>981</ele>
        <time>2025-09-28T10:23:09Z</time>
      </trkpt>
      <trkpt lat="45.69793" lon="2.96899">
        <ele>980.8</ele>
        <time>2025-09-28T10:23:10Z</time>
      </trkpt>
      <trkpt lat="45.698" lon="2.96898">
        <ele>980.8</ele>
        <time>2025-09-28T10:23:11Z</time>
      </trkpt>
      <trkpt lat="45.69808" lon="2.96898">
        <ele>980.6</ele>
        <time>2025-09-28T10:23:12Z</time>
      </trkpt>
      <trkpt lat="45.69816" lon="2.969">
        <ele>980.6</ele>
        <time>2025-09-28T10:23:13Z</time>
      </trkpt>
      <trkpt lat="45.69821" lon="2.96906">
        <ele>980.6</ele>
        <time>2025-09-28T10:23:14Z</time>
      </trkpt>
      <trkpt lat="45.69826" lon="2.96912">
        <ele>980.6</ele>
        <time>2025-09-28T10:23:15Z</time>
      </trkpt>
      <trkpt lat="45.69832" lon="2.96917">
        <ele>980.6</ele>
        <time>2025-09-28T10:23:16Z</time>
      </trkpt>
      <trkpt lat="45.69838" lon="2.96921">
        <ele>980.8</ele>
        <time>2025-09-28T10:23:17Z</time>
      </trkpt>
      <trkpt lat="45.69846" lon="2.96923">
        <ele>980.8</ele>
        <time>2025-09-28T10:23:18Z</time>
      </trkpt>
      <trkpt lat="45.69851" lon="2.96926">
        <ele>981</ele>
        <time>2025-09-28T10:23:19Z</time>
      </trkpt>
      <trkpt lat="45.69855" lon="2.96928">
        <ele>981</ele>
        <time>2025-09-28T10:23:20Z</time>
      </trkpt>
      <trkpt lat="45.69859" lon="2.96931">
        <ele>981.2</ele>
        <time>2025-09-28T10:23:21Z</time>
      </trkpt>
      <trkpt lat="45.69863" lon="2.96936">
        <ele>981.4</ele>
        <time>2025-09-28T10:23:22Z</time>
      </trkpt>
      <trkpt lat="45.69866" lon="2.96941">
        <ele>981.6</ele>
        <time>2025-09-28T10:23:23Z</time>
      </trkpt>
      <trkpt lat="45.6987" lon="2.96945">
        <ele>981.8</ele>
        <time>2025-09-28T10:23:24Z</time>
      </trkpt>
      <trkpt lat="45.69876" lon="2.96949">
        <ele>981.8</ele>
        <time>2025-09-28T10:23:25Z</time>
      </trkpt>
      <trkpt lat="45.69881" lon="2.96953">
        <ele>982</ele>
        <time>2025-09-28T10:23:26Z</time>
      </trkpt>
      <trkpt lat="45.69886" lon="2.96955">
        <ele>982.2</ele>
        <time>2025-09-28T10:23:27Z</time>
      </trkpt>
      <trkpt lat="45.69891" lon="2.96957">
        <ele>982.4</ele>
        <time>2025-09-28T10:23:28Z</time>
      </trkpt>
      <trkpt lat="45.69897" lon="2.9696">
        <ele>982.6</ele>
        <time>2025-09-28T10:23:29Z</time>
      </trkpt>
      <trkpt lat="45.69901" lon="2.96962">
        <ele>982.8</ele>
        <time>2025-09-28T10:23:30Z</time>
      </trkpt>
      <trkpt lat="45.69903" lon="2.96964">
        <ele>983</ele>
        <time>2025-09-28T10:23:31Z</time>
      </trkpt>
      <trkpt lat="45.69904" lon="2.96964">
        <ele>983.2</ele>
        <time>2025-09-28T10:23:32Z</time>
      </trkpt>
      <trkpt lat="45.69905" lon="2.96965">
        <ele>983.6</ele>
        <time>2025-09-28T10:23:33Z</time>
      </trkpt>
      <trkpt lat="45.69906" lon="2.96966">
        <ele>983.8</ele>
        <time>2025-09-28T10:23:34Z</time>
      </trkpt>
      <trkpt lat="45.69908" lon="2.96967">
        <ele>984</ele>
        <time>2025-09-28T10:23:35Z</time>
      </trkpt>
      <trkpt lat="45.69909" lon="2.96969">
        <ele>984.2</ele>
        <time>2025-09-28T10:23:36Z</time>
      </trkpt>
      <trkpt lat="45.69912" lon="2.9697">
        <ele>984.6</ele>
        <time>2025-09-28T10:23:37Z</time>
      </trkpt>
      <trkpt lat="45.69915" lon="2.9697">
        <ele>984.8</ele>
        <time>2025-09-28T10:23:38Z</time>
      </trkpt>
      <trkpt lat="45.69918" lon="2.96972">
        <ele>985</ele>
        <time>2025-09-28T10:23:39Z</time>
      </trkpt>
      <trkpt lat="45.69922" lon="2.96975">
        <ele>985.2</ele>
        <time>2025-09-28T10:23:40Z</time>
      </trkpt>
      <trkpt lat="45.69925" lon="2.96976">
        <ele>985.4</ele>
        <time>2025-09-28T10:23:41Z</time>
      </trkpt>
      <trkpt lat="45.69927" lon="2.96978">
        <ele>985.8</ele>
        <time>2025-09-28T10:23:42Z</time>
      </trkpt>
      <trkpt lat="45.6993" lon="2.96979">
        <ele>986</ele>
        <time>2025-09-28T10:23:43Z</time>
      </trkpt>
      <trkpt lat="45.69934" lon="2.96981">
        <ele>986.4</ele>
        <time>2025-09-28T10:23:44Z</time>
      </trkpt>
      <trkpt lat="45.69939" lon="2.96981">
        <ele>986.6</ele>
        <time>2025-09-28T10:23:45Z</time>
      </trkpt>
      <trkpt lat="45.69943" lon="2.96983">
        <ele>986.8</ele>
        <time>2025-09-28T10:23:46Z</time>
      </trkpt>
      <trkpt lat="45.69948" lon="2.96983">
        <ele>986.8</ele>
        <time>2025-09-28T10:23:47Z</time>
      </trkpt>
      <trkpt lat="45.69952" lon="2.96983">
        <ele>987</ele>
        <time>2025-09-28T10:23:48Z</time>
      </trkpt>
      <trkpt lat="45.69954" lon="2.96982">
        <ele>987.2</ele>
        <time>2025-09-28T10:23:49Z</time>
      </trkpt>
      <trkpt lat="45.69956" lon="2.96982">
        <ele>987.2</ele>
        <time>2025-09-28T10:23:50Z</time>
      </trkpt>
      <trkpt lat="45.69959" lon="2.96982">
        <ele>987.4</ele>
        <time>2025-09-28T10:23:51Z</time>
      </trkpt>
      <trkpt lat="45.69963" lon="2.96983">
        <ele>987.6</ele>
        <time>2025-09-28T10:23:52Z</time>
      </trkpt>
      <trkpt lat="45.69966" lon="2.96984">
        <ele>987.6</ele>
        <time>2025-09-28T10:23:53Z</time>
      </trkpt>
      <trkpt lat="45.69972" lon="2.96984">
        <ele>987.6</ele>
        <time>2025-09-28T10:23:54Z</time>
      </trkpt>
      <trkpt lat="45.69979" lon="2.96983">
        <ele>987.8</ele>
        <time>2025-09-28T10:23:55Z</time>
      </trkpt>
      <trkpt lat="45.69984" lon="2.96984">
        <ele>987.8</ele>
        <time>2025-09-28T10:23:56Z</time>
      </trkpt>
      <trkpt lat="45.69987" lon="2.96985">
        <ele>987.8</ele>
        <time>2025-09-28T10:23:57Z</time>
      </trkpt>
      <trkpt lat="45.6999" lon="2.96987">
        <ele>987.8</ele>
        <time>2025-09-28T10:23:58Z</time>
      </trkpt>
      <trkpt lat="45.69994" lon="2.96988">
        <ele>987.8</ele>
        <time>2025-09-28T10:23:59Z</time>
      </trkpt>
      <trkpt lat="45.69997" lon="2.9699">
        <ele>987.8</ele>
        <time>2025-09-28T10:24:00Z</time>
      </trkpt>
      <trkpt lat="45.69998" lon="2.9699">
        <ele>987.8</ele>
        <time>2025-09-28T10:24:01Z</time>
      </trkpt>
      <trkpt lat="45.69999" lon="2.9699">
        <ele>987.8</ele>
        <time>2025-09-28T10:24:02Z</time>
      </trkpt>
      <trkpt lat="45.7" lon="2.9699">
        <ele>987.8</ele>
        <time>2025-09-28T10:24:03Z</time>
      </trkpt>
      <trkpt lat="45.70001" lon="2.9699">
        <ele>987.8</ele>
        <time>2025-09-28T10:24:04Z</time>
      </trkpt>
      <trkpt lat="45.70001" lon="2.9699">
        <ele>987.8</ele>
        <time>2025-09-28T10:24:05Z</time>
      </trkpt>
      <trkpt lat="45.70002" lon="2.96989">
        <ele>988</ele>
        <time>2025-09-28T10:24:06Z</time>
      </trkpt>
      <trkpt lat="45.70002" lon="2.96989">
        <ele>988</ele>
        <time>2025-09-28T10:24:07Z</time>
      </trkpt>
      <trkpt lat="45.70042" lon="2.96991">
        <ele>988.2</ele>
        <time>2025-09-28T10:34:51Z</time>
      </trkpt>
      <trkpt lat="45.70043" lon="2.9699">
        <ele>988.2</ele>
        <time>2025-09-28T10:34:52Z</time>
      </trkpt>
      <trkpt lat="45.70044" lon="2.96988">
        <ele>988.2</ele>
        <time>2025-09-28T10:34:53Z</time>
      </trkpt>
      <trkpt lat="45.70046" lon="2.96985">
        <ele>988.2</ele>
        <time>2025-09-28T10:34:54Z</time>
      </trkpt>
      <trkpt lat="45.70048" lon="2.96983">
        <ele>988.2</ele>
        <time>2025-09-28T10:34:55Z</time>
      </trkpt>
      <trkpt lat="45.7005" lon="2.9698">
        <ele>988.2</ele>
        <time>2025-09-28T10:34:56Z</time>
      </trkpt>
      <trkpt lat="45.70051" lon="2.96978">
        <ele>988.2</ele>
        <time>2025-09-28T10:34:57Z</time>
      </trkpt>
      <trkpt lat="45.70053" lon="2.96975">
        <ele>988.2</ele>
        <time>2025-09-28T10:34:58Z</time>
      </trkpt>
      <trkpt lat="45.70055" lon="2.96973">
        <ele>988.4</ele>
        <time>2025-09-28T10:34:59Z</time>
      </trkpt>
      <trkpt lat="45.70057" lon="2.9697">
        <ele>988.4</ele>
        <time>2025-09-28T10:35:00Z</time>
      </trkpt>
      <trkpt lat="45.70058" lon="2.96966">
        <ele>988.2</ele>
        <time>2025-09-28T10:35:01Z</time>
      </trkpt>
      <trkpt lat="45.70059" lon="2.96963">
        <ele>988.2</ele>
        <time>2025-09-28T10:35:02Z</time>
      </trkpt>
      <trkpt lat="45.7006" lon="2.9696">
        <ele>988.2</ele>
        <time>2025-09-28T10:35:03Z</time>
      </trkpt>
      <trkpt lat="45.70063" lon="2.96958">
        <ele>988.2</ele>
        <time>2025-09-28T10:35:04Z</time>
      </trkpt>
      <trkpt lat="45.70065" lon="2.96955">
        <ele>988.2</ele>
        <time>2025-09-28T10:35:05Z</time>
      </trkpt>
      <trkpt lat="45.70067" lon="2.96952">
        <ele>988.2</ele>
        <time>2025-09-28T10:35:06Z</time>
      </trkpt>
      <trkpt lat="45.70069" lon="2.9695">
        <ele>988.2</ele>
        <time>2025-09-28T10:35:07Z</time>
      </trkpt>
      <trkpt lat="45.70071" lon="2.96948">
        <ele>988.2</ele>
        <time>2025-09-28T10:35:08Z</time>
      </trkpt>
      <trkpt lat="45.70073" lon="2.96947">
        <ele>988.2</ele>
        <time>2025-09-28T10:35:09Z</time>
      </trkpt>
      <trkpt lat="45.70074" lon="2.96946">
        <ele>988.4</ele>
        <time>2025-09-28T10:35:10Z</time>
      </trkpt>
      <trkpt lat="45.70074" lon="2.96945">
        <ele>988.4</ele>
        <time>2025-09-28T10:35:11Z</time>
      </trkpt>
      <trkpt lat="45.70074" lon="2.96945">
        <ele>988.6</ele>
        <time>2025-09-28T10:35:12Z</time>
      </trkpt>
      <trkpt lat="45.70075" lon="2.96946">
        <ele>988.6</ele>
        <time>2025-09-28T10:35:13Z</time>
      </trkpt>
      <trkpt lat="45.70075" lon="2.96946">
        <ele>988.6</ele>
        <time>2025-09-28T10:35:14Z</time>
      </trkpt>
      <trkpt lat="45.70076" lon="2.96948">
        <ele>988.8</ele>
        <time>2025-09-28T10:35:15Z</time>
      </trkpt>
      <trkpt lat="45.70077" lon="2.9695">
        <ele>989.2</ele>
        <time>2025-09-28T10:35:16Z</time>
      </trkpt>
      <trkpt lat="45.70079" lon="2.96953">
        <ele>989.4</ele>
        <time>2025-09-28T10:35:17Z</time>
      </trkpt>
      <trkpt lat="45.70081" lon="2.96956">
        <ele>989.8</ele>
        <time>2025-09-28T10:35:18Z</time>
      </trkpt>
      <trkpt lat="45.70083" lon="2.96958">
        <ele>990.2</ele>
        <time>2025-09-28T10:35:19Z</time>
      </trkpt>
      <trkpt lat="45.70086" lon="2.96961">
        <ele>990.6</ele>
        <time>2025-09-28T10:35:20Z</time>
      </trkpt>
      <trkpt lat="45.70088" lon="2.96964">
        <ele>990.8</ele>
        <time>2025-09-28T10:35:21Z</time>
      </trkpt>
      <trkpt lat="45.70089" lon="2.96967">
        <ele>991</ele>
        <time>2025-09-28T10:35:22Z</time>
      </trkpt>
      <trkpt lat="45.70091" lon="2.9697">
        <ele>991.2</ele>
        <time>2025-09-28T10:35:23Z</time>
      </trkpt>
      <trkpt lat="45.70093" lon="2.96973">
        <ele>991.4</ele>
        <time>2025-09-28T10:35:24Z</time>
      </trkpt>
      <trkpt lat="45.70095" lon="2.96975">
        <ele>991.6</ele>
        <time>2025-09-28T10:35:25Z</time>
      </trkpt>
      <trkpt lat="45.70096" lon="2.96977">
        <ele>991.8</ele>
        <time>2025-09-28T10:35:26Z</time>
      </trkpt>
      <trkpt lat="45.70098" lon="2.96979">
        <ele>992</ele>
        <time>2025-09-28T10:35:27Z</time>
      </trkpt>
      <trkpt lat="45.701" lon="2.96983">
        <ele>992.2</ele>
        <time>2025-09-28T10:35:28Z</time>
      </trkpt>
      <trkpt lat="45.70102" lon="2.96986">
        <ele>992.2</ele>
        <time>2025-09-28T10:35:29Z</time>
      </trkpt>
      <trkpt lat="45.70104" lon="2.96988">
        <ele>992.4</ele>
        <time>2025-09-28T10:35:30Z</time>
      </trkpt>
      <trkpt lat="45.70105" lon="2.9699">
        <ele>992.6</ele>
        <time>2025-09-28T10:35:31Z</time>
      </trkpt>
      <trkpt lat="45.70106" lon="2.96992">
        <ele>992.6</ele>
        <time>2025-09-28T10:35:32Z</time>
      </trkpt>
      <trkpt lat="45.70107" lon="2.96994">
        <ele>992.8</ele>
        <time>2025-09-28T10:35:33Z</time>
      </trkpt>
      <trkpt lat="45.70109" lon="2.96996">
        <ele>993</ele>
        <time>2025-09-28T10:35:34Z</time>
      </trkpt>
      <trkpt lat="45.70112" lon="2.96997">
        <ele>993</ele>
        <time>2025-09-28T10:35:35Z</time>
      </trkpt>
      <trkpt lat="45.70115" lon="2.96998">
        <ele>993.2</ele>
        <time>2025-09-28T10:35:36Z</time>
      </trkpt>
      <trkpt lat="45.70116" lon="2.97001">
        <ele>993.4</ele>
        <time>2025-09-28T10:35:37Z</time>
      </trkpt>
      <trkpt lat="45.70118" lon="2.97003">
        <ele>993.4</ele>
        <time>2025-09-28T10:35:38Z</time>
      </trkpt>
      <trkpt lat="45.7012" lon="2.97006">
        <ele>993.6</ele>
        <time>2025-09-28T10:35:39Z</time>
      </trkpt>
      <trkpt lat="45.70123" lon="2.97009">
        <ele>993.8</ele>
        <time>2025-09-28T10:35:40Z</time>
      </trkpt>
      <trkpt lat="45.70129" lon="2.97013">
        <ele>994</ele>
        <time>2025-09-28T10:35:41Z</time>
      </trkpt>
      <trkpt lat="45.70135" lon="2.97016">
        <ele>994</ele>
        <time>2025-09-28T10:35:42Z</time>
      </trkpt>
      <trkpt lat="45.7014" lon="2.97019">
        <ele>994.2</ele>
        <time>2025-09-28T10:35:43Z</time>
      </trkpt>
      <trkpt lat="45.70142" lon="2.97021">
        <ele>994.2</ele>
        <time>2025-09-28T10:35:44Z</time>
      </trkpt>
      <trkpt lat="45.70144" lon="2.97023">
        <ele>994.2</ele>
        <time>2025-09-28T10:35:45Z</time>
      </trkpt>
      <trkpt lat="45.70147" lon="2.97025">
        <ele>994.2</ele>
        <time>2025-09-28T10:35:46Z</time>
      </trkpt>
      <trkpt lat="45.70152" lon="2.97029">
        <ele>994.4</ele>
        <time>2025-09-28T10:35:47Z</time>
      </trkpt>
      <trkpt lat="45.70156" lon="2.97034">
        <ele>994.4</ele>
        <time>2025-09-28T10:35:48Z</time>
      </trkpt>
      <trkpt lat="45.70159" lon="2.97039">
        <ele>994.4</ele>
        <time>2025-09-28T10:35:49Z</time>
      </trkpt>
      <trkpt lat="45.70162" lon="2.97043">
        <ele>994.4</ele>
        <time>2025-09-28T10:35:50Z</time>
      </trkpt>
      <trkpt lat="45.70163" lon="2.97045">
        <ele>994.4</ele>
        <time>2025-09-28T10:35:51Z</time>
      </trkpt>
      <trkpt lat="45.70165" lon="2.97046">
        <ele>994.2</ele>
        <time>2025-09-28T10:35:52Z</time>
      </trkpt>
      <trkpt lat="45.70168" lon="2.97049">
        <ele>994.2</ele>
        <time>2025-09-28T10:35:53Z</time>
      </trkpt>
      <trkpt lat="45.70172" lon="2.97054">
        <ele>994</ele>
        <time>2025-09-28T10:35:54Z</time>
      </trkpt>
      <trkpt lat="45.70176" lon="2.97059">
        <ele>994</ele>
        <time>2025-09-28T10:35:55Z</time>
      </trkpt>
      <trkpt lat="45.70182" lon="2.97064">
        <ele>993.8</ele>
        <time>2025-09-28T10:35:56Z</time>
      </trkpt>
      <trkpt lat="45.70186" lon="2.97069">
        <ele>993.6</ele>
        <time>2025-09-28T10:35:57Z</time>
      </trkpt>
      <trkpt lat="45.70189" lon="2.97072">
        <ele>993.4</ele>
        <time>2025-09-28T10:35:58Z</time>
      </trkpt>
      <trkpt lat="45.70193" lon="2.97076">
        <ele>993.2</ele>
        <time>2025-09-28T10:35:59Z</time>
      </trkpt>
      <trkpt lat="45.70199" lon="2.97082">
        <ele>993</ele>
        <time>2025-09-28T10:36:00Z</time>
      </trkpt>
      <trkpt lat="45.70206" lon="2.97087">
        <ele>992.8</ele>
        <time>2025-09-28T10:36:01Z</time>
      </trkpt>
      <trkpt lat="45.70212" lon="2.97091">
        <ele>992.4</ele>
        <time>2025-09-28T10:36:02Z</time>
      </trkpt>
      <trkpt lat="45.70218" lon="2.97096">
        <ele>992.2</ele>
        <time>2025-09-28T10:36:03Z</time>
      </trkpt>
      <trkpt lat="45.70224" lon="2.97101">
        <ele>991.8</ele>
        <time>2025-09-28T10:36:04Z</time>
      </trkpt>
      <trkpt lat="45.70229" lon="2.97107">
        <ele>991.6</ele>
        <time>2025-09-28T10:36:05Z</time>
      </trkpt>
      <trkpt lat="45.70233" lon="2.97113">
        <ele>991.2</ele>
        <time>2025-09-28T10:36:06Z</time>
      </trkpt>
      <trkpt lat="45.70238" lon="2.97117">
        <ele>990.8</ele>
        <time>2025-09-28T10:36:07Z</time>
      </trkpt>
      <trkpt lat="45.70244" lon="2.97122">
        <ele>990.4</ele>
        <time>2025-09-28T10:36:08Z</time>
      </trkpt>
      <trkpt lat="45.70251" lon="2.97128">
        <ele>990</ele>
        <time>2025-09-28T10:36:09Z</time>
      </trkpt>
      <trkpt lat="45.70258" lon="2.97132">
        <ele>989.6</ele>
        <time>2025-09-28T10:36:10Z</time>
      </trkpt>
      <trkpt lat="45.70263" lon="2.97136">
        <ele>989.2</ele>
        <time>2025-09-28T10:36:11Z</time>
      </trkpt>
      <trkpt lat="45.70268" lon="2.9714">
        <ele>988.8</ele>
        <time>2025-09-28T10:36:12Z</time>
      </trkpt>
      <trkpt lat="45.70271" lon="2.97144">
        <ele>988.2</ele>
        <time>2025-09-28T10:36:13Z</time>
      </trkpt>
      <trkpt lat="45.70273" lon="2.97149">
        <ele>987.8</ele>
        <time>2025-09-28T10:36:14Z</time>
      </trkpt>
      <trkpt lat="45.70277" lon="2.97154">
        <ele>987.4</ele>
        <time>2025-09-28T10:36:15Z</time>
      </trkpt>
      <trkpt lat="45.70281" lon="2.97159">
        <ele>987</ele>
        <time>2025-09-28T10:36:16Z</time>
      </trkpt>
      <trkpt lat="45.70283" lon="2.97161">
        <ele>986.6</ele>
        <time>2025-09-28T10:36:17Z</time>
      </trkpt>
      <trkpt lat="45.70286" lon="2.97162">
        <ele>986.2</ele>
        <time>2025-09-28T10:36:18Z</time>
      </trkpt>
      <trkpt lat="45.7029" lon="2.97165">
        <ele>985.8</ele>
        <time>2025-09-28T10:36:19Z</time>
      </trkpt>
      <trkpt lat="45.70294" lon="2.97171">
        <ele>985.4</ele>
        <time>2025-09-28T10:36:20Z</time>
      </trkpt>
      <trkpt lat="45.70297" lon="2.97176">
        <ele>985</ele>
        <time>2025-09-28T10:36:21Z</time>
      </trkpt>
      <trkpt lat="45.703" lon="2.9718">
        <ele>984.4</ele>
        <time>2025-09-28T10:36:22Z</time>
      </trkpt>
      <trkpt lat="45.70304" lon="2.97186">
        <ele>983.8</ele>
        <time>2025-09-28T10:36:23Z</time>
      </trkpt>
      <trkpt lat="45.70307" lon="2.9719">
        <ele>983.4</ele>
        <time>2025-09-28T10:36:24Z</time>
      </trkpt>
      <trkpt lat="45.70312" lon="2.97195">
        <ele>982.8</ele>
        <time>2025-09-28T10:36:25Z</time>
      </trkpt>
      <trkpt lat="45.70318" lon="2.97203">
        <ele>982.2</ele>
        <time>2025-09-28T10:36:26Z</time>
      </trkpt>
      <trkpt lat="45.70324" lon="2.97209">
        <ele>981.8</ele>
        <time>2025-09-28T10:36:27Z</time>
      </trkpt>
      <trkpt lat="45.70328" lon="2.97212">
        <ele>981.4</ele>
        <time>2025-09-28T10:36:28Z</time>
      </trkpt>
      <trkpt lat="45.70332" lon="2.97214">
        <ele>981.2</ele>
        <time>2025-09-28T10:36:29Z</time>
      </trkpt>
      <trkpt lat="45.70336" lon="2.97215">
        <ele>981</ele>
        <time>2025-09-28T10:36:30Z</time>
      </trkpt>
      <trkpt lat="45.7034" lon="2.97216">
        <ele>980.8</ele>
        <time>2025-09-28T10:36:31Z</time>
      </trkpt>
      <trkpt lat="45.70342" lon="2.97217">
        <ele>980.6</ele>
        <time>2025-09-28T10:36:32Z</time>
      </trkpt>
      <trkpt lat="45.70345" lon="2.97218">
        <ele>980.4</ele>
        <time>2025-09-28T10:36:33Z</time>
      </trkpt>
      <trkpt lat="45.70348" lon="2.97222">
        <ele>980</ele>
        <time>2025-09-28T10:36:34Z</time>
      </trkpt>
      <trkpt lat="45.70351" lon="2.97226">
        <ele>979.8</ele>
        <time>2025-09-28T10:36:35Z</time>
      </trkpt>
      <trkpt lat="45.70354" lon="2.97229">
        <ele>979.4</ele>
        <time>2025-09-28T10:36:36Z</time>
      </trkpt>
      <trkpt lat="45.70357" lon="2.97233">
        <ele>979</ele>
        <time>2025-09-28T10:36:37Z</time>
      </trkpt>
      <trkpt lat="45.70362" lon="2.97238">
        <ele>978.6</ele>
        <time>2025-09-28T10:36:38Z</time>
      </trkpt>
      <trkpt lat="45.70366" lon="2.97243">
        <ele>978.4</ele>
        <time>2025-09-28T10:36:39Z</time>
      </trkpt>
      <trkpt lat="45.70369" lon="2.97246">
        <ele>978.2</ele>
        <time>2025-09-28T10:36:40Z</time>
      </trkpt>
      <trkpt lat="45.70373" lon="2.97248">
        <ele>978</ele>
        <time>2025-09-28T10:36:41Z</time>
      </trkpt>
      <trkpt lat="45.70377" lon="2.9725">
        <ele>977.8</ele>
        <time>2025-09-28T10:36:42Z</time>
      </trkpt>
      <trkpt lat="45.70381" lon="2.97253">
        <ele>977.6</ele>
        <time>2025-09-28T10:36:43Z</time>
      </trkpt>
      <trkpt lat="45.70382" lon="2.97254">
        <ele>977.6</ele>
        <time>2025-09-28T10:36:44Z</time>
      </trkpt>
      <trkpt lat="45.70383" lon="2.97254">
        <ele>977.4</ele>
        <time>2025-09-28T10:36:45Z</time>
      </trkpt>
      <trkpt lat="45.70383" lon="2.97256">
        <ele>977.2</ele>
        <time>2025-09-28T10:36:46Z</time>
      </trkpt>
      <trkpt lat="45.70383" lon="2.97258">
        <ele>976.8</ele>
        <time>2025-09-28T10:36:47Z</time>
      </trkpt>
      <trkpt lat="45.70382" lon="2.97261">
        <ele>976.4</ele>
        <time>2025-09-28T10:36:48Z</time>
      </trkpt>
      <trkpt lat="45.7038" lon="2.97264">
        <ele>976</ele>
        <time>2025-09-28T10:36:49Z</time>
      </trkpt>
      <trkpt lat="45.70378" lon="2.97268">
        <ele>975.4</ele>
        <time>2025-09-28T10:36:50Z</time>
      </trkpt>
      <trkpt lat="45.70376" lon="2.97272">
        <ele>974.8</ele>
        <time>2025-09-28T10:36:51Z</time>
      </trkpt>
      <trkpt lat="45.70375" lon="2.97275">
        <ele>974</ele>
        <time>2025-09-28T10:36:52Z</time>
      </trkpt>
      <trkpt lat="45.70375" lon="2.97279">
        <ele>973.4</ele>
        <time>2025-09-28T10:36:53Z</time>
      </trkpt>
      <trkpt lat="45.70377" lon="2.97285">
        <ele>972.4</ele>
        <time>2025-09-28T10:36:54Z</time>
      </trkpt>
      <trkpt lat="45.70379" lon="2.9729">
        <ele>971.6</ele>
        <time>2025-09-28T10:36:55Z</time>
      </trkpt>
      <trkpt lat="45.70381" lon="2.97296">
        <ele>970.8</ele>
        <time>2025-09-28T10:36:56Z</time>
      </trkpt>
      <trkpt lat="45.70381" lon="2.97303">
        <ele>969.8</ele>
        <time>2025-09-28T10:36:57Z</time>
      </trkpt>
      <trkpt lat="45.70378" lon="2.97311">
        <ele>968.8</ele>
        <time>2025-09-28T10:36:58Z</time>
      </trkpt>
      <trkpt lat="45.70375" lon="2.9732">
        <ele>967.8</ele>
        <time>2025-09-28T10:36:59Z</time>
      </trkpt>
      <trkpt lat="45.70372" lon="2.97327">
        <ele>966.8</ele>
        <time>2025-09-28T10:37:00Z</time>
      </trkpt>
      <trkpt lat="45.70368" lon="2.97333">
        <ele>965.8</ele>
        <time>2025-09-28T10:37:01Z</time>
      </trkpt>
      <trkpt lat="45.70366" lon="2.97338">
        <ele>965</ele>
        <time>2025-09-28T10:37:02Z</time>
      </trkpt>
      <trkpt lat="45.70364" lon="2.97343">
        <ele>964.4</ele>
        <time>2025-09-28T10:37:03Z</time>
      </trkpt>
      <trkpt lat="45.70363" lon="2.97346">
        <ele>963.8</ele>
        <time>2025-09-28T10:37:04Z</time>
      </trkpt>
      <trkpt lat="45.70361" lon="2.9735">
        <ele>963.4</ele>
        <time>2025-09-28T10:37:05Z</time>
      </trkpt>
      <trkpt lat="45.7036" lon="2.97353">
        <ele>963</ele>
        <time>2025-09-28T10:37:06Z</time>
      </trkpt>
      <trkpt lat="45.70358" lon="2.97357">
        <ele>962.6</ele>
        <time>2025-09-28T10:37:07Z</time>
      </trkpt>
      <trkpt lat="45.70355" lon="2.97362">
        <ele>962.2</ele>
        <time>2025-09-28T10:37:08Z</time>
      </trkpt>
      <trkpt lat="45.70353" lon="2.97367">
        <ele>961.8</ele>
        <time>2025-09-28T10:37:09Z</time>
      </trkpt>
      <trkpt lat="45.7035" lon="2.97372">
        <ele>961.2</ele>
        <time>2025-09-28T10:37:10Z</time>
      </trkpt>
      <trkpt lat="45.70346" lon="2.97377">
        <ele>960.6</ele>
        <time>2025-09-28T10:37:11Z</time>
      </trkpt>
      <trkpt lat="45.70343" lon="2.97382">
        <ele>959.8</ele>
        <time>2025-09-28T10:37:12Z</time>
      </trkpt>
      <trkpt lat="45.70338" lon="2.97387">
        <ele>959.2</ele>
        <time>2025-09-28T10:37:13Z</time>
      </trkpt>
      <trkpt lat="45.70335" lon="2.97392">
        <ele>958.4</ele>
        <time>2025-09-28T10:37:14Z</time>
      </trkpt>
      <trkpt lat="45.70332" lon="2.97397">
        <ele>957.6</ele>
        <time>2025-09-28T10:37:15Z</time>
      </trkpt>
      <trkpt lat="45.7033" lon="2.97403">
        <ele>957</ele>
        <time>2025-09-28T10:37:16Z</time>
      </trkpt>
      <trkpt lat="45.7033" lon="2.9741">
        <ele>956.2</ele>
        <time>2025-09-28T10:37:17Z</time>
      </trkpt>
      <trkpt lat="45.7033" lon="2.97417">
        <ele>955.6</ele>
        <time>2025-09-28T10:37:18Z</time>
      </trkpt>
      <trkpt lat="45.7033" lon="2.97424">
        <ele>955</ele>
        <time>2025-09-28T10:37:19Z</time>
      </trkpt>
      <trkpt lat="45.7033" lon="2.9743">
        <ele>954.4</ele>
        <time>2025-09-28T10:37:20Z</time>
      </trkpt>
      <trkpt lat="45.70329" lon="2.97436">
        <ele>953.8</ele>
        <time>2025-09-28T10:37:21Z</time>
      </trkpt>
      <trkpt lat="45.70327" lon="2.97443">
        <ele>953</ele>
        <time>2025-09-28T10:37:22Z</time>
      </trkpt>
      <trkpt lat="45.70325" lon="2.9745">
        <ele>952.4</ele>
        <time>2025-09-28T10:37:23Z</time>
      </trkpt>
      <trkpt lat="45.70325" lon="2.97456">
        <ele>951.8</ele>
        <time>2025-09-28T10:37:24Z</time>
      </trkpt>
      <trkpt lat="45.70326" lon="2.97462">
        <ele>951.2</ele>
        <time>2025-09-28T10:37:25Z</time>
      </trkpt>
      <trkpt lat="45.70327" lon="2.97469">
        <ele>950.6</ele>
        <time>2025-09-28T10:37:26Z</time>
      </trkpt>
      <trkpt lat="45.70327" lon="2.97475">
        <ele>950</ele>
        <time>2025-09-28T10:37:27Z</time>
      </trkpt>
      <trkpt lat="45.70326" lon="2.97481">
        <ele>949.4</ele>
        <time>2025-09-28T10:37:28Z</time>
      </trkpt>
      <trkpt lat="45.70325" lon="2.97488">
        <ele>948.6</ele>
        <time>2025-09-28T10:37:29Z</time>
      </trkpt>
      <trkpt lat="45.70325" lon="2.97496">
        <ele>947.8</ele>
        <time>2025-09-28T10:37:30Z</time>
      </trkpt>
      <trkpt lat="45.70324" lon="2.97503">
        <ele>947.2</ele>
        <time>2025-09-28T10:37:31Z</time>
      </trkpt>
      <trkpt lat="45.70323" lon="2.97511">
        <ele>946.4</ele>
        <time>2025-09-28T10:37:32Z</time>
      </trkpt>
      <trkpt lat="45.70321" lon="2.9752">
        <ele>945.8</ele>
        <time>2025-09-28T10:37:33Z</time>
      </trkpt>
      <trkpt lat="45.70321" lon="2.97527">
        <ele>945</ele>
        <time>2025-09-28T10:37:34Z</time>
      </trkpt>
      <trkpt lat="45.70321" lon="2.97534">
        <ele>944.4</ele>
        <time>2025-09-28T10:37:35Z</time>
      </trkpt>
      <trkpt lat="45.70321" lon="2.9754">
        <ele>943.8</ele>
        <time>2025-09-28T10:37:36Z</time>
      </trkpt>
      <trkpt lat="45.70323" lon="2.97546">
        <ele>943.2</ele>
        <time>2025-09-28T10:37:37Z</time>
      </trkpt>
      <trkpt lat="45.70324" lon="2.97553">
        <ele>942.6</ele>
        <time>2025-09-28T10:37:38Z</time>
      </trkpt>
      <trkpt lat="45.70324" lon="2.97561">
        <ele>942</ele>
        <time>2025-09-28T10:37:39Z</time>
      </trkpt>
      <trkpt lat="45.70323" lon="2.97567">
        <ele>941.6</ele>
        <time>2025-09-28T10:37:40Z</time>
      </trkpt>
      <trkpt lat="45.70324" lon="2.97573">
        <ele>941.2</ele>
        <time>2025-09-28T10:37:41Z</time>
      </trkpt>
      <trkpt lat="45.70325" lon="2.97579">
        <ele>940.6</ele>
        <time>2025-09-28T10:37:42Z</time>
      </trkpt>
      <trkpt lat="45.70326" lon="2.97587">
        <ele>940</ele>
        <time>2025-09-28T10:37:43Z</time>
      </trkpt>
      <trkpt lat="45.70328" lon="2.97595">
        <ele>939.2</ele>
        <time>2025-09-28T10:37:44Z</time>
      </trkpt>
      <trkpt lat="45.70329" lon="2.97605">
        <ele>938.6</ele>
        <time>2025-09-28T10:37:45Z</time>
      </trkpt>
      <trkpt lat="45.7033" lon="2.97615">
        <ele>937.6</ele>
        <time>2025-09-28T10:37:46Z</time>
      </trkpt>
      <trkpt lat="45.70331" lon="2.97622">
        <ele>937</ele>
        <time>2025-09-28T10:37:47Z</time>
      </trkpt>
      <trkpt lat="45.70331" lon="2.97628">
        <ele>936.4</ele>
        <time>2025-09-28T10:37:48Z</time>
      </trkpt>
      <trkpt lat="45.70331" lon="2.97633">
        <ele>935.8</ele>
        <time>2025-09-28T10:37:49Z</time>
      </trkpt>
      <trkpt lat="45.70331" lon="2.97638">
        <ele>935.2</ele>
        <time>2025-09-28T10:37:50Z</time>
      </trkpt>
      <trkpt lat="45.70331" lon="2.97643">
        <ele>934.6</ele>
        <time>2025-09-28T10:37:51Z</time>
      </trkpt>
      <trkpt lat="45.70333" lon="2.97647">
        <ele>934</ele>
        <time>2025-09-28T10:37:52Z</time>
      </trkpt>
      <trkpt lat="45.70334" lon="2.97652">
        <ele>933.6</ele>
        <time>2025-09-28T10:37:53Z</time>
      </trkpt>
      <trkpt lat="45.70338" lon="2.97658">
        <ele>933.2</ele>
        <time>2025-09-28T10:37:54Z</time>
      </trkpt>
      <trkpt lat="45.70342" lon="2.97663">
        <ele>932.6</ele>
        <time>2025-09-28T10:37:55Z</time>
      </trkpt>
      <trkpt lat="45.70343" lon="2.97667">
        <ele>932.2</ele>
        <time>2025-09-28T10:37:56Z</time>
      </trkpt>
      <trkpt lat="45.70345" lon="2.97672">
        <ele>931.8</ele>
        <time>2025-09-28T10:37:57Z</time>
      </trkpt>
      <trkpt lat="45.70344" lon="2.97681">
        <ele>931.4</ele>
        <time>2025-09-28T10:37:58Z</time>
      </trkpt>
      <trkpt lat="45.70342" lon="2.97692">
        <ele>930.8</ele>
        <time>2025-09-28T10:37:59Z</time>
      </trkpt>
      <trkpt lat="45.7034" lon="2.97703">
        <ele>930.4</ele>
        <time>2025-09-28T10:38:00Z</time>
      </trkpt>
      <trkpt lat="45.70338" lon="2.97716">
        <ele>930</ele>
        <time>2025-09-28T10:38:01Z</time>
      </trkpt>
      <trkpt lat="45.70336" lon="2.97733">
        <ele>929.6</ele>
        <time>2025-09-28T10:38:02Z</time>
      </trkpt>
      <trkpt lat="45.70334" lon="2.97746">
        <ele>929.2</ele>
        <time>2025-09-28T10:38:03Z</time>
      </trkpt>
      <trkpt lat="45.70334" lon="2.97754">
        <ele>928.8</ele>
        <time>2025-09-28T10:38:04Z</time>
      </trkpt>
      <trkpt lat="45.70334" lon="2.97761">
        <ele>928.6</ele>
        <time>2025-09-28T10:38:05Z</time>
      </trkpt>
      <trkpt lat="45.70334" lon="2.97767">
        <ele>928.4</ele>
        <time>2025-09-28T10:38:06Z</time>
      </trkpt>
      <trkpt lat="45.70333" lon="2.97774">
        <ele>928</ele>
        <time>2025-09-28T10:38:07Z</time>
      </trkpt>
      <trkpt lat="45.70332" lon="2.9778">
        <ele>927.8</ele>
        <time>2025-09-28T10:38:08Z</time>
      </trkpt>
      <trkpt lat="45.7033" lon="2.97784">
        <ele>927.4</ele>
        <time>2025-09-28T10:38:09Z</time>
      </trkpt>
      <trkpt lat="45.70329" lon="2.97788">
        <ele>927.2</ele>
        <time>2025-09-28T10:38:10Z</time>
      </trkpt>
      <trkpt lat="45.70329" lon="2.97793">
        <ele>927</ele>
        <time>2025-09-28T10:38:11Z</time>
      </trkpt>
      <trkpt lat="45.70329" lon="2.97797">
        <ele>926.8</ele>
        <time>2025-09-28T10:38:12Z</time>
      </trkpt>
      <trkpt lat="45.70328" lon="2.97801">
        <ele>926.6</ele>
        <time>2025-09-28T10:38:13Z</time>
      </trkpt>
      <trkpt lat="45.70327" lon="2.97807">
        <ele>926.4</ele>
        <time>2025-09-28T10:38:14Z</time>
      </trkpt>
      <trkpt lat="45.70328" lon="2.97813">
        <ele>926.2</ele>
        <time>2025-09-28T10:38:15Z</time>
      </trkpt>
      <trkpt lat="45.70329" lon="2.97821">
        <ele>926.2</ele>
        <time>2025-09-28T10:38:16Z</time>
      </trkpt>
      <trkpt lat="45.7033" lon="2.97829">
        <ele>926</ele>
        <time>2025-09-28T10:38:17Z</time>
      </trkpt>
      <trkpt lat="45.7033" lon="2.97838">
        <ele>925.8</ele>
        <time>2025-09-28T10:38:18Z</time>
      </trkpt>
      <trkpt lat="45.70329" lon="2.97847">
        <ele>925.8</ele>
        <time>2025-09-28T10:38:19Z</time>
      </trkpt>
      <trkpt lat="45.70328" lon="2.97856">
        <ele>925.8</ele>
        <time>2025-09-28T10:38:20Z</time>
      </trkpt>
      <trkpt lat="45.70327" lon="2.97864">
        <ele>925.8</ele>
        <time>2025-09-28T10:38:21Z</time>
      </trkpt>
      <trkpt lat="45.70325" lon="2.97872">
        <ele>925.8</ele>
        <time>2025-09-28T10:38:22Z</time>
      </trkpt>
      <trkpt lat="45.70325" lon="2.9788">
        <ele>925.8</ele>
        <time>2025-09-28T10:38:23Z</time>
      </trkpt>
      <trkpt lat="45.70324" lon="2.97887">
        <ele>925.8</ele>
        <time>2025-09-28T10:38:24Z</time>
      </trkpt>
      <trkpt lat="45.70324" lon="2.97893">
        <ele>926</ele>
        <time>2025-09-28T10:38:25Z</time>
      </trkpt>
      <trkpt lat="45.70323" lon="2.979">
        <ele>926</ele>
        <time>2025-09-28T10:38:26Z</time>
      </trkpt>
      <trkpt lat="45.70322" lon="2.97906">
        <ele>926.2</ele>
        <time>2025-09-28T10:38:27Z</time>
      </trkpt>
      <trkpt lat="45.70321" lon="2.97911">
        <ele>926.4</ele>
        <time>2025-09-28T10:38:28Z</time>
      </trkpt>
      <trkpt lat="45.70321" lon="2.97917">
        <ele>926.6</ele>
        <time>2025-09-28T10:38:29Z</time>
      </trkpt>
      <trkpt lat="45.70322" lon="2.97923">
        <ele>926.8</ele>
        <time>2025-09-28T10:38:30Z</time>
      </trkpt>
      <trkpt lat="45.70321" lon="2.97929">
        <ele>927</ele>
        <time>2025-09-28T10:38:31Z</time>
      </trkpt>
      <trkpt lat="45.70322" lon="2.97934">
        <ele>927.2</ele>
        <time>2025-09-28T10:38:32Z</time>
      </trkpt>
      <trkpt lat="45.70322" lon="2.97941">
        <ele>927.4</ele>
        <time>2025-09-28T10:38:33Z</time>
      </trkpt>
      <trkpt lat="45.70321" lon="2.97951">
        <ele>927.6</ele>
        <time>2025-09-28T10:38:34Z</time>
      </trkpt>
      <trkpt lat="45.70321" lon="2.97962">
        <ele>927.6</ele>
        <time>2025-09-28T10:38:35Z</time>
      </trkpt>
      <trkpt lat="45.70321" lon="2.97974">
        <ele>927.8</ele>
        <time>2025-09-28T10:38:36Z</time>
      </trkpt>
      <trkpt lat="45.70322" lon="2.97985">
        <ele>928</ele>
        <time>2025-09-28T10:38:37Z</time>
      </trkpt>
      <trkpt lat="45.70325" lon="2.97994">
        <ele>928.2</ele>
        <time>2025-09-28T10:38:38Z</time>
      </trkpt>
      <trkpt lat="45.70327" lon="2.98001">
        <ele>928.4</ele>
        <time>2025-09-28T10:38:39Z</time>
      </trkpt>
      <trkpt lat="45.70329" lon="2.98009">
        <ele>928.8</ele>
        <time>2025-09-28T10:38:40Z</time>
      </trkpt>
      <trkpt lat="45.70331" lon="2.98016">
        <ele>929</ele>
        <time>2025-09-28T10:38:41Z</time>
      </trkpt>
      <trkpt lat="45.70334" lon="2.98022">
        <ele>929.2</ele>
        <time>2025-09-28T10:38:42Z</time>
      </trkpt>
      <trkpt lat="45.70336" lon="2.98028">
        <ele>929.6</ele>
        <time>2025-09-28T10:38:43Z</time>
      </trkpt>
      <trkpt lat="45.70338" lon="2.98034">
        <ele>930</ele>
        <time>2025-09-28T10:38:44Z</time>
      </trkpt>
      <trkpt lat="45.70339" lon="2.9804">
        <ele>930.2</ele>
        <time>2025-09-28T10:38:45Z</time>
      </trkpt>
      <trkpt lat="45.7034" lon="2.98047">
        <ele>930.4</ele>
        <time>2025-09-28T10:38:46Z</time>
      </trkpt>
      <trkpt lat="45.70342" lon="2.98052">
        <ele>930.8</ele>
        <time>2025-09-28T10:38:47Z</time>
      </trkpt>
      <trkpt lat="45.70344" lon="2.98056">
        <ele>931</ele>
        <time>2025-09-28T10:38:48Z</time>
      </trkpt>
      <trkpt lat="45.70346" lon="2.98061">
        <ele>931.2</ele>
        <time>2025-09-28T10:38:49Z</time>
      </trkpt>
      <trkpt lat="45.70349" lon="2.98066">
        <ele>931.4</ele>
        <time>2025-09-28T10:38:50Z</time>
      </trkpt>
      <trkpt lat="45.70351" lon="2.98072">
        <ele>931.6</ele>
        <time>2025-09-28T10:38:51Z</time>
      </trkpt>
      <trkpt lat="45.70353" lon="2.98077">
        <ele>931.8</ele>
        <time>2025-09-28T10:38:52Z</time>
      </trkpt>
      <trkpt lat="45.70355" lon="2.98082">
        <ele>931.8</ele>
        <time>2025-09-28T10:38:53Z</time>
      </trkpt>
      <trkpt lat="45.70357" lon="2.98086">
        <ele>932</ele>
        <time>2025-09-28T10:38:54Z</time>
      </trkpt>
      <trkpt lat="45.70358" lon="2.98089">
        <ele>932</ele>
        <time>2025-09-28T10:38:55Z</time>
      </trkpt>
      <trkpt lat="45.7036" lon="2.98093">
        <ele>932.2</ele>
        <time>2025-09-28T10:38:56Z</time>
      </trkpt>
      <trkpt lat="45.70362" lon="2.98098">
        <ele>932.2</ele>
        <time>2025-09-28T10:38:57Z</time>
      </trkpt>
      <trkpt lat="45.70364" lon="2.98103">
        <ele>932.4</ele>
        <time>2025-09-28T10:38:58Z</time>
      </trkpt>
      <trkpt lat="45.70366" lon="2.98108">
        <ele>932.4</ele>
        <time>2025-09-28T10:38:59Z</time>
      </trkpt>
      <trkpt lat="45.70367" lon="2.98113">
        <ele>932.6</ele>
        <time>2025-09-28T10:39:00Z</time>
      </trkpt>
      <trkpt lat="45.70368" lon="2.98119">
        <ele>932.8</ele>
        <time>2025-09-28T10:39:01Z</time>
      </trkpt>
      <trkpt lat="45.70369" lon="2.98124">
        <ele>933.2</ele>
        <time>2025-09-28T10:39:02Z</time>
      </trkpt>
      <trkpt lat="45.70369" lon="2.98128">
        <ele>933.4</ele>
        <time>2025-09-28T10:39:03Z</time>
      </trkpt>
      <trkpt lat="45.7037" lon="2.98134">
        <ele>933.8</ele>
        <time>2025-09-28T10:39:04Z</time>
      </trkpt>
      <trkpt lat="45.70372" lon="2.98139">
        <ele>934</ele>
        <time>2025-09-28T10:39:05Z</time>
      </trkpt>
      <trkpt lat="45.70373" lon="2.98143">
        <ele>934.4</ele>
        <time>2025-09-28T10:39:06Z</time>
      </trkpt>
      <trkpt lat="45.70373" lon="2.98147">
        <ele>934.6</ele>
        <time>2025-09-28T10:39:07Z</time>
      </trkpt>
      <trkpt lat="45.70372" lon="2.98151">
        <ele>935</ele>
        <time>2025-09-28T10:39:08Z</time>
      </trkpt>
      <trkpt lat="45.70371" lon="2.98156">
        <ele>935.2</ele>
        <time>2025-09-28T10:39:09Z</time>
      </trkpt>
      <trkpt lat="45.70369" lon="2.98161">
        <ele>935.2</ele>
        <time>2025-09-28T10:39:10Z</time>
      </trkpt>
      <trkpt lat="45.70368" lon="2.98166">
        <ele>935.4</ele>
        <time>2025-09-28T10:39:11Z</time>
      </trkpt>
      <trkpt lat="45.70367" lon="2.98172">
        <ele>935.6</ele>
        <time>2025-09-28T10:39:12Z</time>
      </trkpt>
      <trkpt lat="45.70365" lon="2.98178">
        <ele>935.8</ele>
        <time>2025-09-28T10:39:13Z</time>
      </trkpt>
      <trkpt lat="45.70364" lon="2.98184">
        <ele>935.8</ele>
        <time>2025-09-28T10:39:14Z</time>
      </trkpt>
      <trkpt lat="45.70365" lon="2.98187">
        <ele>935.8</ele>
        <time>2025-09-28T10:39:15Z</time>
      </trkpt>
      <trkpt lat="45.70365" lon="2.98192">
        <ele>935.8</ele>
        <time>2025-09-28T10:39:16Z</time>
      </trkpt>
      <trkpt lat="45.70365" lon="2.98197">
        <ele>935.8</ele>
        <time>2025-09-28T10:39:17Z</time>
      </trkpt>
      <trkpt lat="45.70366" lon="2.98203">
        <ele>935.8</ele>
        <time>2025-09-28T10:39:18Z</time>
      </trkpt>
      <trkpt lat="45.70369" lon="2.98209">
        <ele>935.8</ele>
        <time>2025-09-28T10:39:19Z</time>
      </trkpt>
      <trkpt lat="45.70369" lon="2.98216">
        <ele>935.8</ele>
        <time>2025-09-28T10:39:20Z</time>
      </trkpt>
      <trkpt lat="45.70369" lon="2.98223">
        <ele>935.8</ele>
        <time>2025-09-28T10:39:21Z</time>
      </trkpt>
      <trkpt lat="45.70369" lon="2.9823">
        <ele>935.6</ele>
        <time>2025-09-28T10:39:22Z</time>
      </trkpt>
      <trkpt lat="45.7037" lon="2.98238">
        <ele>935.6</ele>
        <time>2025-09-28T10:39:23Z</time>
      </trkpt>
      <trkpt lat="45.7037" lon="2.98244">
        <ele>935.4</ele>
        <time>2025-09-28T10:39:24Z</time>
      </trkpt>
      <trkpt lat="45.70372" lon="2.98251">
        <ele>935.4</ele>
        <time>2025-09-28T10:39:25Z</time>
      </trkpt>
      <trkpt lat="45.70372" lon="2.98257">
        <ele>935.2</ele>
        <time>2025-09-28T10:39:26Z</time>
      </trkpt>
      <trkpt lat="45.70371" lon="2.98264">
        <ele>935.2</ele>
        <time>2025-09-28T10:39:27Z</time>
      </trkpt>
      <trkpt lat="45.70371" lon="2.98271">
        <ele>935</ele>
        <time>2025-09-28T10:39:28Z</time>
      </trkpt>
      <trkpt lat="45.70371" lon="2.98279">
        <ele>934.8</ele>
        <time>2025-09-28T10:39:29Z</time>
      </trkpt>
      <trkpt lat="45.70373" lon="2.98287">
        <ele>934.8</ele>
        <time>2025-09-28T10:39:30Z</time>
      </trkpt>
      <trkpt lat="45.70376" lon="2.98295">
        <ele>934.8</ele>
        <time>2025-09-28T10:39:31Z</time>
      </trkpt>
      <trkpt lat="45.70379" lon="2.98303">
        <ele>934.6</ele>
        <time>2025-09-28T10:39:32Z</time>
      </trkpt>
      <trkpt lat="45.70382" lon="2.98311">
        <ele>934.6</ele>
        <time>2025-09-28T10:39:33Z</time>
      </trkpt>
      <trkpt lat="45.70383" lon="2.98317">
        <ele>934.6</ele>
        <time>2025-09-28T10:39:34Z</time>
      </trkpt>
      <trkpt lat="45.70385" lon="2.98322">
        <ele>934.4</ele>
        <time>2025-09-28T10:39:35Z</time>
      </trkpt>
      <trkpt lat="45.70386" lon="2.98328">
        <ele>934.4</ele>
        <time>2025-09-28T10:39:36Z</time>
      </trkpt>
      <trkpt lat="45.70386" lon="2.98334">
        <ele>934.4</ele>
        <time>2025-09-28T10:39:37Z</time>
      </trkpt>
      <trkpt lat="45.70388" lon="2.98341">
        <ele>934.4</ele>
        <time>2025-09-28T10:39:38Z</time>
      </trkpt>
      <trkpt lat="45.7039" lon="2.98347">
        <ele>934.4</ele>
        <time>2025-09-28T10:39:39Z</time>
      </trkpt>
      <trkpt lat="45.70392" lon="2.98352">
        <ele>934.2</ele>
        <time>2025-09-28T10:39:40Z</time>
      </trkpt>
      <trkpt lat="45.70391" lon="2.98358">
        <ele>934.2</ele>
        <time>2025-09-28T10:39:41Z</time>
      </trkpt>
      <trkpt lat="45.7039" lon="2.98364">
        <ele>934.2</ele>
        <time>2025-09-28T10:39:42Z</time>
      </trkpt>
      <trkpt lat="45.70387" lon="2.98373">
        <ele>934.2</ele>
        <time>2025-09-28T10:39:43Z</time>
      </trkpt>
      <trkpt lat="45.70385" lon="2.98382">
        <ele>934.2</ele>
        <time>2025-09-28T10:39:44Z</time>
      </trkpt>
      <trkpt lat="45.70383" lon="2.9839">
        <ele>934.2</ele>
        <time>2025-09-28T10:39:45Z</time>
      </trkpt>
      <trkpt lat="45.70383" lon="2.98397">
        <ele>934.2</ele>
        <time>2025-09-28T10:39:46Z</time>
      </trkpt>
      <trkpt lat="45.70383" lon="2.98404">
        <ele>934</ele>
        <time>2025-09-28T10:39:47Z</time>
      </trkpt>
      <trkpt lat="45.70383" lon="2.98411">
        <ele>934</ele>
        <time>2025-09-28T10:39:48Z</time>
      </trkpt>
      <trkpt lat="45.70382" lon="2.98421">
        <ele>934</ele>
        <time>2025-09-28T10:39:49Z</time>
      </trkpt>
      <trkpt lat="45.70382" lon="2.98434">
        <ele>933.8</ele>
        <time>2025-09-28T10:39:50Z</time>
      </trkpt>
      <trkpt lat="45.70383" lon="2.98445">
        <ele>933.8</ele>
        <time>2025-09-28T10:39:51Z</time>
      </trkpt>
      <trkpt lat="45.70385" lon="2.98452">
        <ele>933.8</ele>
        <time>2025-09-28T10:39:52Z</time>
      </trkpt>
      <trkpt lat="45.70385" lon="2.98459">
        <ele>933.8</ele>
        <time>2025-09-28T10:39:53Z</time>
      </trkpt>
      <trkpt lat="45.70386" lon="2.98466">
        <ele>933.6</ele>
        <time>2025-09-28T10:39:54Z</time>
      </trkpt>
      <trkpt lat="45.70387" lon="2.98473">
        <ele>933.6</ele>
        <time>2025-09-28T10:39:55Z</time>
      </trkpt>
      <trkpt lat="45.70387" lon="2.9848">
        <ele>933.6</ele>
        <time>2025-09-28T10:39:56Z</time>
      </trkpt>
      <trkpt lat="45.70387" lon="2.98486">
        <ele>933.6</ele>
        <time>2025-09-28T10:39:57Z</time>
      </trkpt>
      <trkpt lat="45.70387" lon="2.98491">
        <ele>933.6</ele>
        <time>2025-09-28T10:39:58Z</time>
      </trkpt>
      <trkpt lat="45.70389" lon="2.98497">
        <ele>933.6</ele>
        <time>2025-09-28T10:39:59Z</time>
      </trkpt>
      <trkpt lat="45.70392" lon="2.98504">
        <ele>933.4</ele>
        <time>2025-09-28T10:40:00Z</time>
      </trkpt>
      <trkpt lat="45.70394" lon="2.98513">
        <ele>933.4</ele>
        <time>2025-09-28T10:40:01Z</time>
      </trkpt>
      <trkpt lat="45.70396" lon="2.9852">
        <ele>933.2</ele>
        <time>2025-09-28T10:40:02Z</time>
      </trkpt>
      <trkpt lat="45.70398" lon="2.98529">
        <ele>933</ele>
        <time>2025-09-28T10:40:03Z</time>
      </trkpt>
      <trkpt lat="45.704" lon="2.98541">
        <ele>933</ele>
        <time>2025-09-28T10:40:04Z</time>
      </trkpt>
      <trkpt lat="45.70401" lon="2.9855">
        <ele>932.8</ele>
        <time>2025-09-28T10:40:05Z</time>
      </trkpt>
      <trkpt lat="45.70401" lon="2.98558">
        <ele>932.8</ele>
        <time>2025-09-28T10:40:06Z</time>
      </trkpt>
      <trkpt lat="45.70402" lon="2.98566">
        <ele>932.6</ele>
        <time>2025-09-28T10:40:07Z</time>
      </trkpt>
      <trkpt lat="45.70404" lon="2.98575">
        <ele>932.4</ele>
        <time>2025-09-28T10:40:08Z</time>
      </trkpt>
      <trkpt lat="45.70405" lon="2.98584">
        <ele>932.4</ele>
        <time>2025-09-28T10:40:09Z</time>
      </trkpt>
      <trkpt lat="45.70406" lon="2.98591">
        <ele>932.2</ele>
        <time>2025-09-28T10:40:10Z</time>
      </trkpt>
      <trkpt lat="45.70405" lon="2.98601">
        <ele>932.2</ele>
        <time>2025-09-28T10:40:11Z</time>
      </trkpt>
      <trkpt lat="45.70404" lon="2.98613">
        <ele>932</ele>
        <time>2025-09-28T10:40:12Z</time>
      </trkpt>
      <trkpt lat="45.70404" lon="2.98622">
        <ele>932</ele>
        <time>2025-09-28T10:40:13Z</time>
      </trkpt>
      <trkpt lat="45.70404" lon="2.9863">
        <ele>932</ele>
        <time>2025-09-28T10:40:14Z</time>
      </trkpt>
      <trkpt lat="45.70405" lon="2.98636">
        <ele>931.8</ele>
        <time>2025-09-28T10:40:15Z</time>
      </trkpt>
      <trkpt lat="45.70406" lon="2.98643">
        <ele>931.8</ele>
        <time>2025-09-28T10:40:16Z</time>
      </trkpt>
      <trkpt lat="45.70407" lon="2.98649">
        <ele>931.8</ele>
        <time>2025-09-28T10:40:17Z</time>
      </trkpt>
      <trkpt lat="45.70407" lon="2.98655">
        <ele>931.6</ele>
        <time>2025-09-28T10:40:18Z</time>
      </trkpt>
      <trkpt lat="45.70406" lon="2.98661">
        <ele>931.6</ele>
        <time>2025-09-28T10:40:19Z</time>
      </trkpt>
      <trkpt lat="45.70404" lon="2.9867">
        <ele>931.6</ele>
        <time>2025-09-28T10:40:20Z</time>
      </trkpt>
      <trkpt lat="45.70403" lon="2.98681">
        <ele>931.6</ele>
        <time>2025-09-28T10:40:21Z</time>
      </trkpt>
      <trkpt lat="45.70404" lon="2.9869">
        <ele>931.4</ele>
        <time>2025-09-28T10:40:22Z</time>
      </trkpt>
      <trkpt lat="45.70405" lon="2.98697">
        <ele>931.4</ele>
        <time>2025-09-28T10:40:23Z</time>
      </trkpt>
      <trkpt lat="45.70406" lon="2.98703">
        <ele>931.2</ele>
        <time>2025-09-28T10:40:24Z</time>
      </trkpt>
      <trkpt lat="45.70407" lon="2.98709">
        <ele>931.2</ele>
        <time>2025-09-28T10:40:25Z</time>
      </trkpt>
      <trkpt lat="45.70408" lon="2.98717">
        <ele>931</ele>
        <time>2025-09-28T10:40:26Z</time>
      </trkpt>
      <trkpt lat="45.70409" lon="2.98724">
        <ele>931</ele>
        <time>2025-09-28T10:40:27Z</time>
      </trkpt>
      <trkpt lat="45.7041" lon="2.9873">
        <ele>930.8</ele>
        <time>2025-09-28T10:40:28Z</time>
      </trkpt>
      <trkpt lat="45.7041" lon="2.98736">
        <ele>930.8</ele>
        <time>2025-09-28T10:40:29Z</time>
      </trkpt>
      <trkpt lat="45.70411" lon="2.98743">
        <ele>930.6</ele>
        <time>2025-09-28T10:40:30Z</time>
      </trkpt>
      <trkpt lat="45.70413" lon="2.98751">
        <ele>930.6</ele>
        <time>2025-09-28T10:40:31Z</time>
      </trkpt>
      <trkpt lat="45.70414" lon="2.98761">
        <ele>930.6</ele>
        <time>2025-09-28T10:40:32Z</time>
      </trkpt>
      <trkpt lat="45.70413" lon="2.98773">
        <ele>930.4</ele>
        <time>2025-09-28T10:40:33Z</time>
      </trkpt>
      <trkpt lat="45.70413" lon="2.98785">
        <ele>930.4</ele>
        <time>2025-09-28T10:40:34Z</time>
      </trkpt>
      <trkpt lat="45.70412" lon="2.98797">
        <ele>930.4</ele>
        <time>2025-09-28T10:40:35Z</time>
      </trkpt>
      <trkpt lat="45.70413" lon="2.98809">
        <ele>930.2</ele>
        <time>2025-09-28T10:40:36Z</time>
      </trkpt>
      <trkpt lat="45.70413" lon="2.98819">
        <ele>930</ele>
        <time>2025-09-28T10:40:37Z</time>
      </trkpt>
      <trkpt lat="45.70414" lon="2.98827">
        <ele>930</ele>
        <time>2025-09-28T10:40:38Z</time>
      </trkpt>
      <trkpt lat="45.70414" lon="2.98837">
        <ele>929.8</ele>
        <time>2025-09-28T10:40:39Z</time>
      </trkpt>
      <trkpt lat="45.70414" lon="2.98845">
        <ele>929.8</ele>
        <time>2025-09-28T10:40:40Z</time>
      </trkpt>
      <trkpt lat="45.70415" lon="2.98853">
        <ele>929.6</ele>
        <time>2025-09-28T10:40:41Z</time>
      </trkpt>
      <trkpt lat="45.70416" lon="2.9886">
        <ele>929.4</ele>
        <time>2025-09-28T10:40:42Z</time>
      </trkpt>
      <trkpt lat="45.70416" lon="2.98867">
        <ele>929.4</ele>
        <time>2025-09-28T10:40:43Z</time>
      </trkpt>
      <trkpt lat="45.70416" lon="2.98874">
        <ele>929.2</ele>
        <time>2025-09-28T10:40:44Z</time>
      </trkpt>
      <trkpt lat="45.70415" lon="2.98882">
        <ele>929</ele>
        <time>2025-09-28T10:40:45Z</time>
      </trkpt>
      <trkpt lat="45.70416" lon="2.98889">
        <ele>929</ele>
        <time>2025-09-28T10:40:46Z</time>
      </trkpt>
      <trkpt lat="45.70417" lon="2.989">
        <ele>928.8</ele>
        <time>2025-09-28T10:40:47Z</time>
      </trkpt>
      <trkpt lat="45.70417" lon="2.98913">
        <ele>928.8</ele>
        <time>2025-09-28T10:40:48Z</time>
      </trkpt>
      <trkpt lat="45.70418" lon="2.98924">
        <ele>928.6</ele>
        <time>2025-09-28T10:40:49Z</time>
      </trkpt>
      <trkpt lat="45.70419" lon="2.98933">
        <ele>928.4</ele>
        <time>2025-09-28T10:40:50Z</time>
      </trkpt>
      <trkpt lat="45.7042" lon="2.98942">
        <ele>928.4</ele>
        <time>2025-09-28T10:40:51Z</time>
      </trkpt>
      <trkpt lat="45.70422" lon="2.9895">
        <ele>928.2</ele>
        <time>2025-09-28T10:40:52Z</time>
      </trkpt>
      <trkpt lat="45.70424" lon="2.98959">
        <ele>928.2</ele>
        <time>2025-09-28T10:40:53Z</time>
      </trkpt>
      <trkpt lat="45.70426" lon="2.98969">
        <ele>928</ele>
        <time>2025-09-28T10:40:54Z</time>
      </trkpt>
      <trkpt lat="45.70427" lon="2.98978">
        <ele>927.8</ele>
        <time>2025-09-28T10:40:55Z</time>
      </trkpt>
      <trkpt lat="45.70428" lon="2.98986">
        <ele>927.6</ele>
        <time>2025-09-28T10:40:56Z</time>
      </trkpt>
      <trkpt lat="45.70428" lon="2.98993">
        <ele>927.4</ele>
        <time>2025-09-28T10:40:57Z</time>
      </trkpt>
      <trkpt lat="45.70427" lon="2.99">
        <ele>927.4</ele>
        <time>2025-09-28T10:40:58Z</time>
      </trkpt>
      <trkpt lat="45.70428" lon="2.99007">
        <ele>927.2</ele>
        <time>2025-09-28T10:40:59Z</time>
      </trkpt>
      <trkpt lat="45.7043" lon="2.99014">
        <ele>927.2</ele>
        <time>2025-09-28T10:41:00Z</time>
      </trkpt>
      <trkpt lat="45.70433" lon="2.99021">
        <ele>927</ele>
        <time>2025-09-28T10:41:01Z</time>
      </trkpt>
      <trkpt lat="45.70435" lon="2.99029">
        <ele>927</ele>
        <time>2025-09-28T10:41:02Z</time>
      </trkpt>
      <trkpt lat="45.70437" lon="2.99039">
        <ele>926.8</ele>
        <time>2025-09-28T10:41:03Z</time>
      </trkpt>
      <trkpt lat="45.70438" lon="2.99049">
        <ele>926.6</ele>
        <time>2025-09-28T10:41:04Z</time>
      </trkpt>
      <trkpt lat="45.70439" lon="2.99059">
        <ele>926.2</ele>
        <time>2025-09-28T10:41:05Z</time>
      </trkpt>
      <trkpt lat="45.70439" lon="2.99068">
        <ele>926</ele>
        <time>2025-09-28T10:41:06Z</time>
      </trkpt>
      <trkpt lat="45.70439" lon="2.99079">
        <ele>925.6</ele>
        <time>2025-09-28T10:41:07Z</time>
      </trkpt>
      <trkpt lat="45.70439" lon="2.99091">
        <ele>925.4</ele>
        <time>2025-09-28T10:41:08Z</time>
      </trkpt>
      <trkpt lat="45.70439" lon="2.99101">
        <ele>925</ele>
        <time>2025-09-28T10:41:09Z</time>
      </trkpt>
      <trkpt lat="45.70437" lon="2.9911">
        <ele>924.6</ele>
        <time>2025-09-28T10:41:10Z</time>
      </trkpt>
      <trkpt lat="45.70435" lon="2.99118">
        <ele>924.4</ele>
        <time>2025-09-28T10:41:11Z</time>
      </trkpt>
      <trkpt lat="45.70434" lon="2.99128">
        <ele>924</ele>
        <time>2025-09-28T10:41:12Z</time>
      </trkpt>
      <trkpt lat="45.70435" lon="2.99139">
        <ele>923.6</ele>
        <time>2025-09-28T10:41:13Z</time>
      </trkpt>
      <trkpt lat="45.70436" lon="2.99149">
        <ele>923.4</ele>
        <time>2025-09-28T10:41:14Z</time>
      </trkpt>
      <trkpt lat="45.70438" lon="2.99159">
        <ele>923.2</ele>
        <time>2025-09-28T10:41:15Z</time>
      </trkpt>
      <trkpt lat="45.70441" lon="2.9917">
        <ele>922.8</ele>
        <time>2025-09-28T10:41:16Z</time>
      </trkpt>
      <trkpt lat="45.70443" lon="2.99182">
        <ele>922.6</ele>
        <time>2025-09-28T10:41:17Z</time>
      </trkpt>
      <trkpt lat="45.70445" lon="2.99193">
        <ele>922.2</ele>
        <time>2025-09-28T10:41:18Z</time>
      </trkpt>
      <trkpt lat="45.70446" lon="2.99203">
        <ele>921.6</ele>
        <time>2025-09-28T10:41:19Z</time>
      </trkpt>
      <trkpt lat="45.70447" lon="2.99214">
        <ele>921.2</ele>
        <time>2025-09-28T10:41:20Z</time>
      </trkpt>
      <trkpt lat="45.70448" lon="2.99225">
        <ele>920.8</ele>
        <time>2025-09-28T10:41:21Z</time>
      </trkpt>
      <trkpt lat="45.70449" lon="2.99235">
        <ele>920.4</ele>
        <time>2025-09-28T10:41:22Z</time>
      </trkpt>
      <trkpt lat="45.70448" lon="2.99245">
        <ele>919.8</ele>
        <time>2025-09-28T10:41:23Z</time>
      </trkpt>
      <trkpt lat="45.70446" lon="2.99254">
        <ele>919.4</ele>
        <time>2025-09-28T10:41:24Z</time>
      </trkpt>
      <trkpt lat="45.70446" lon="2.99263">
        <ele>918.8</ele>
        <time>2025-09-28T10:41:25Z</time>
      </trkpt>
      <trkpt lat="45.70446" lon="2.99273">
        <ele>918.4</ele>
        <time>2025-09-28T10:41:26Z</time>
      </trkpt>
      <trkpt lat="45.70446" lon="2.99283">
        <ele>917.8</ele>
        <time>2025-09-28T10:41:27Z</time>
      </trkpt>
      <trkpt lat="45.70446" lon="2.99293">
        <ele>917.4</ele>
        <time>2025-09-28T10:41:28Z</time>
      </trkpt>
      <trkpt lat="45.70447" lon="2.99303">
        <ele>916.8</ele>
        <time>2025-09-28T10:41:29Z</time>
      </trkpt>
      <trkpt lat="45.70448" lon="2.99313">
        <ele>916</ele>
        <time>2025-09-28T10:41:30Z</time>
      </trkpt>
      <trkpt lat="45.70449" lon="2.99325">
        <ele>915.4</ele>
        <time>2025-09-28T10:41:31Z</time>
      </trkpt>
      <trkpt lat="45.70447" lon="2.99338">
        <ele>914.6</ele>
        <time>2025-09-28T10:41:32Z</time>
      </trkpt>
      <trkpt lat="45.70445" lon="2.99349">
        <ele>913.8</ele>
        <time>2025-09-28T10:41:33Z</time>
      </trkpt>
      <trkpt lat="45.70445" lon="2.99362">
        <ele>913</ele>
        <time>2025-09-28T10:41:34Z</time>
      </trkpt>
      <trkpt lat="45.70447" lon="2.99375">
        <ele>912.4</ele>
        <time>2025-09-28T10:41:35Z</time>
      </trkpt>
      <trkpt lat="45.70451" lon="2.99387">
        <ele>911.6</ele>
        <time>2025-09-28T10:41:36Z</time>
      </trkpt>
      <trkpt lat="45.70455" lon="2.99398">
        <ele>910.8</ele>
        <time>2025-09-28T10:41:37Z</time>
      </trkpt>
      <trkpt lat="45.70458" lon="2.99409">
        <ele>910.2</ele>
        <time>2025-09-28T10:41:38Z</time>
      </trkpt>
      <trkpt lat="45.70459" lon="2.99421">
        <ele>909.6</ele>
        <time>2025-09-28T10:41:39Z</time>
      </trkpt>
      <trkpt lat="45.70458" lon="2.99433">
        <ele>909</ele>
        <time>2025-09-28T10:41:40Z</time>
      </trkpt>
      <trkpt lat="45.70457" lon="2.9944">
        <ele>908.6</ele>
        <time>2025-09-28T10:41:41Z</time>
      </trkpt>
      <trkpt lat="45.70456" lon="2.99446">
        <ele>908</ele>
        <time>2025-09-28T10:41:42Z</time>
      </trkpt>
      <trkpt lat="45.70455" lon="2.9945">
        <ele>907.6</ele>
        <time>2025-09-28T10:41:43Z</time>
      </trkpt>
      <trkpt lat="45.70456" lon="2.99454">
        <ele>907.2</ele>
        <time>2025-09-28T10:41:44Z</time>
      </trkpt>
      <trkpt lat="45.70457" lon="2.99461">
        <ele>907</ele>
        <time>2025-09-28T10:41:45Z</time>
      </trkpt>
      <trkpt lat="45.70457" lon="2.99466">
        <ele>906.6</ele>
        <time>2025-09-28T10:41:46Z</time>
      </trkpt>
      <trkpt lat="45.70454" lon="2.99472">
        <ele>906.2</ele>
        <time>2025-09-28T10:41:47Z</time>
      </trkpt>
      <trkpt lat="45.7045" lon="2.99479">
        <ele>906</ele>
        <time>2025-09-28T10:41:48Z</time>
      </trkpt>
      <trkpt lat="45.70449" lon="2.99486">
        <ele>905.8</ele>
        <time>2025-09-28T10:41:49Z</time>
      </trkpt>
      <trkpt lat="45.70449" lon="2.99491">
        <ele>905.6</ele>
        <time>2025-09-28T10:41:50Z</time>
      </trkpt>
      <trkpt lat="45.70448" lon="2.99496">
        <ele>905.4</ele>
        <time>2025-09-28T10:41:51Z</time>
      </trkpt>
      <trkpt lat="45.70447" lon="2.99501">
        <ele>905</ele>
        <time>2025-09-28T10:41:52Z</time>
      </trkpt>
      <trkpt lat="45.70445" lon="2.99509">
        <ele>904.8</ele>
        <time>2025-09-28T10:41:53Z</time>
      </trkpt>
      <trkpt lat="45.70442" lon="2.99517">
        <ele>904.4</ele>
        <time>2025-09-28T10:41:54Z</time>
      </trkpt>
      <trkpt lat="45.7044" lon="2.99525">
        <ele>904.2</ele>
        <time>2025-09-28T10:41:55Z</time>
      </trkpt>
      <trkpt lat="45.70437" lon="2.99536">
        <ele>904</ele>
        <time>2025-09-28T10:41:56Z</time>
      </trkpt>
      <trkpt lat="45.70434" lon="2.99548">
        <ele>903.6</ele>
        <time>2025-09-28T10:41:57Z</time>
      </trkpt>
      <trkpt lat="45.70432" lon="2.99558">
        <ele>903.2</ele>
        <time>2025-09-28T10:41:58Z</time>
      </trkpt>
      <trkpt lat="45.7043" lon="2.99569">
        <ele>902.8</ele>
        <time>2025-09-28T10:41:59Z</time>
      </trkpt>
      <trkpt lat="45.7043" lon="2.99579">
        <ele>902.6</ele>
        <time>2025-09-28T10:42:00Z</time>
      </trkpt>
      <trkpt lat="45.70429" lon="2.99587">
        <ele>902.4</ele>
        <time>2025-09-28T10:42:01Z</time>
      </trkpt>
      <trkpt lat="45.70428" lon="2.99593">
        <ele>902</ele>
        <time>2025-09-28T10:42:02Z</time>
      </trkpt>
      <trkpt lat="45.70426" lon="2.99601">
        <ele>901.8</ele>
        <time>2025-09-28T10:42:03Z</time>
      </trkpt>
      <trkpt lat="45.70425" lon="2.99611">
        <ele>901.6</ele>
        <time>2025-09-28T10:42:04Z</time>
      </trkpt>
      <trkpt lat="45.70424" lon="2.9962">
        <ele>901.4</ele>
        <time>2025-09-28T10:42:05Z</time>
      </trkpt>
      <trkpt lat="45.70423" lon="2.9963">
        <ele>901.2</ele>
        <time>2025-09-28T10:42:06Z</time>
      </trkpt>
      <trkpt lat="45.70423" lon="2.9964">
        <ele>901</ele>
        <time>2025-09-28T10:42:07Z</time>
      </trkpt>
      <trkpt lat="45.70423" lon="2.99649">
        <ele>900.6</ele>
        <time>2025-09-28T10:42:08Z</time>
      </trkpt>
      <trkpt lat="45.70422" lon="2.99659">
        <ele>900.4</ele>
        <time>2025-09-28T10:42:09Z</time>
      </trkpt>
      <trkpt lat="45.70422" lon="2.99668">
        <ele>900</ele>
        <time>2025-09-28T10:42:10Z</time>
      </trkpt>
      <trkpt lat="45.70423" lon="2.99675">
        <ele>899.6</ele>
        <time>2025-09-28T10:42:11Z</time>
      </trkpt>
      <trkpt lat="45.70424" lon="2.99684">
        <ele>899.2</ele>
        <time>2025-09-28T10:42:12Z</time>
      </trkpt>
      <trkpt lat="45.70425" lon="2.99695">
        <ele>898.8</ele>
        <time>2025-09-28T10:42:13Z</time>
      </trkpt>
      <trkpt lat="45.70425" lon="2.99706">
        <ele>898.6</ele>
        <time>2025-09-28T10:42:14Z</time>
      </trkpt>
      <trkpt lat="45.70425" lon="2.99715">
        <ele>898.4</ele>
        <time>2025-09-28T10:42:15Z</time>
      </trkpt>
      <trkpt lat="45.70425" lon="2.99724">
        <ele>898.2</ele>
        <time>2025-09-28T10:42:16Z</time>
      </trkpt>
      <trkpt lat="45.70425" lon="2.99731">
        <ele>897.8</ele>
        <time>2025-09-28T10:42:17Z</time>
      </trkpt>
      <trkpt lat="45.70425" lon="2.99738">
        <ele>897.4</ele>
        <time>2025-09-28T10:42:18Z</time>
      </trkpt>
      <trkpt lat="45.70425" lon="2.99745">
        <ele>897.2</ele>
        <time>2025-09-28T10:42:19Z</time>
      </trkpt>
      <trkpt lat="45.70425" lon="2.99752">
        <ele>896.8</ele>
        <time>2025-09-28T10:42:20Z</time>
      </trkpt>
      <trkpt lat="45.70425" lon="2.99759">
        <ele>896.4</ele>
        <time>2025-09-28T10:42:21Z</time>
      </trkpt>
      <trkpt lat="45.70424" lon="2.99767">
        <ele>896.2</ele>
        <time>2025-09-28T10:42:22Z</time>
      </trkpt>
      <trkpt lat="45.70424" lon="2.99775">
        <ele>895.8</ele>
        <time>2025-09-28T10:42:23Z</time>
      </trkpt>
      <trkpt lat="45.70425" lon="2.99784">
        <ele>895.6</ele>
        <time>2025-09-28T10:42:24Z</time>
      </trkpt>
      <trkpt lat="45.70425" lon="2.99792">
        <ele>895.2</ele>
        <time>2025-09-28T10:42:25Z</time>
      </trkpt>
      <trkpt lat="45.70425" lon="2.99798">
        <ele>895</ele>
        <time>2025-09-28T10:42:26Z</time>
      </trkpt>
      <trkpt lat="45.70428" lon="2.9981">
        <ele>894.6</ele>
        <time>2025-09-28T10:42:27Z</time>
      </trkpt>
      <trkpt lat="45.70432" lon="2.99822">
        <ele>894.4</ele>
        <time>2025-09-28T10:42:28Z</time>
      </trkpt>
      <trkpt lat="45.70434" lon="2.99827">
        <ele>894.2</ele>
        <time>2025-09-28T10:42:29Z</time>
      </trkpt>
      <trkpt lat="45.70437" lon="2.99832">
        <ele>893.8</ele>
        <time>2025-09-28T10:42:30Z</time>
      </trkpt>
      <trkpt lat="45.70439" lon="2.99838">
        <ele>893.6</ele>
        <time>2025-09-28T10:42:31Z</time>
      </trkpt>
      <trkpt lat="45.70442" lon="2.99844">
        <ele>893.4</ele>
        <time>2025-09-28T10:42:32Z</time>
      </trkpt>
      <trkpt lat="45.70445" lon="2.99851">
        <ele>893</ele>
        <time>2025-09-28T10:42:33Z</time>
      </trkpt>
      <trkpt lat="45.70448" lon="2.99859">
        <ele>892.8</ele>
        <time>2025-09-28T10:42:34Z</time>
      </trkpt>
      <trkpt lat="45.70451" lon="2.99869">
        <ele>892.6</ele>
        <time>2025-09-28T10:42:35Z</time>
      </trkpt>
      <trkpt lat="45.70455" lon="2.99879">
        <ele>892.4</ele>
        <time>2025-09-28T10:42:36Z</time>
      </trkpt>
      <trkpt lat="45.70457" lon="2.99887">
        <ele>892</ele>
        <time>2025-09-28T10:42:37Z</time>
      </trkpt>
      <trkpt lat="45.7046" lon="2.99895">
        <ele>891.8</ele>
        <time>2025-09-28T10:42:38Z</time>
      </trkpt>
      <trkpt lat="45.70462" lon="2.99904">
        <ele>891.4</ele>
        <time>2025-09-28T10:42:39Z</time>
      </trkpt>
      <trkpt lat="45.70464" lon="2.9991">
        <ele>891.2</ele>
        <time>2025-09-28T10:42:40Z</time>
      </trkpt>
      <trkpt lat="45.70466" lon="2.99916">
        <ele>891</ele>
        <time>2025-09-28T10:42:41Z</time>
      </trkpt>
      <trkpt lat="45.70469" lon="2.99922">
        <ele>890.6</ele>
        <time>2025-09-28T10:42:42Z</time>
      </trkpt>
      <trkpt lat="45.70471" lon="2.99926">
        <ele>890.4</ele>
        <time>2025-09-28T10:42:43Z</time>
      </trkpt>
      <trkpt lat="45.70473" lon="2.99932">
        <ele>890</ele>
        <time>2025-09-28T10:42:44Z</time>
      </trkpt>
      <trkpt lat="45.70476" lon="2.99938">
        <ele>889.8</ele>
        <time>2025-09-28T10:42:45Z</time>
      </trkpt>
      <trkpt lat="45.70479" lon="2.99944">
        <ele>889.6</ele>
        <time>2025-09-28T10:42:46Z</time>
      </trkpt>
      <trkpt lat="45.70481" lon="2.9995">
        <ele>889.2</ele>
        <time>2025-09-28T10:42:47Z</time>
      </trkpt>
      <trkpt lat="45.70483" lon="2.99958">
        <ele>889</ele>
        <time>2025-09-28T10:42:48Z</time>
      </trkpt>
      <trkpt lat="45.70485" lon="2.99964">
        <ele>888.8</ele>
        <time>2025-09-28T10:42:49Z</time>
      </trkpt>
      <trkpt lat="45.70488" lon="2.99968">
        <ele>888.4</ele>
        <time>2025-09-28T10:42:50Z</time>
      </trkpt>
      <trkpt lat="45.70491" lon="2.99974">
        <ele>888.2</ele>
        <time>2025-09-28T10:42:51Z</time>
      </trkpt>
      <trkpt lat="45.70495" lon="2.99979">
        <ele>887.8</ele>
        <time>2025-09-28T10:42:52Z</time>
      </trkpt>
      <trkpt lat="45.70497" lon="2.99983">
        <ele>887.4</ele>
        <time>2025-09-28T10:42:53Z</time>
      </trkpt>
      <trkpt lat="45.705" lon="2.99987">
        <ele>887</ele>
        <time>2025-09-28T10:42:54Z</time>
      </trkpt>
      <trkpt lat="45.70502" lon="2.99991">
        <ele>886.6</ele>
        <time>2025-09-28T10:42:55Z</time>
      </trkpt>
      <trkpt lat="45.70504" lon="2.99995">
        <ele>886</ele>
        <time>2025-09-28T10:42:56Z</time>
      </trkpt>
      <trkpt lat="45.70505" lon="2.99999">
        <ele>885.6</ele>
        <time>2025-09-28T10:42:57Z</time>
      </trkpt>
      <trkpt lat="45.70505" lon="3.00003">
        <ele>885.2</ele>
        <time>2025-09-28T10:42:58Z</time>
      </trkpt>
      <trkpt lat="45.70504" lon="3.00009">
        <ele>884.6</ele>
        <time>2025-09-28T10:42:59Z</time>
      </trkpt>
      <trkpt lat="45.70503" lon="3.00016">
        <ele>884.2</ele>
        <time>2025-09-28T10:43:00Z</time>
      </trkpt>
      <trkpt lat="45.70503" lon="3.00022">
        <ele>883.6</ele>
        <time>2025-09-28T10:43:01Z</time>
      </trkpt>
      <trkpt lat="45.70504" lon="3.00028">
        <ele>883.2</ele>
        <time>2025-09-28T10:43:02Z</time>
      </trkpt>
      <trkpt lat="45.70506" lon="3.00036">
        <ele>882.8</ele>
        <time>2025-09-28T10:43:03Z</time>
      </trkpt>
      <trkpt lat="45.70509" lon="3.00044">
        <ele>882.4</ele>
        <time>2025-09-28T10:43:04Z</time>
      </trkpt>
      <trkpt lat="45.70512" lon="3.00054">
        <ele>882.2</ele>
        <time>2025-09-28T10:43:05Z</time>
      </trkpt>
      <trkpt lat="45.70514" lon="3.00065">
        <ele>881.8</ele>
        <time>2025-09-28T10:43:06Z</time>
      </trkpt>
      <trkpt lat="45.70517" lon="3.00076">
        <ele>881.4</ele>
        <time>2025-09-28T10:43:07Z</time>
      </trkpt>
      <trkpt lat="45.7052" lon="3.00088">
        <ele>880.8</ele>
        <time>2025-09-28T10:43:08Z</time>
      </trkpt>
      <trkpt lat="45.70523" lon="3.00101">
        <ele>880.2</ele>
        <time>2025-09-28T10:43:09Z</time>
      </trkpt>
      <trkpt lat="45.70526" lon="3.00112">
        <ele>879.6</ele>
        <time>2025-09-28T10:43:10Z</time>
      </trkpt>
      <trkpt lat="45.70529" lon="3.00122">
        <ele>879.2</ele>
        <time>2025-09-28T10:43:11Z</time>
      </trkpt>
      <trkpt lat="45.70532" lon="3.00133">
        <ele>878.6</ele>
        <time>2025-09-28T10:43:12Z</time>
      </trkpt>
      <trkpt lat="45.70534" lon="3.00142">
        <ele>878.2</ele>
        <time>2025-09-28T10:43:13Z</time>
      </trkpt>
      <trkpt lat="45.70535" lon="3.0015">
        <ele>877.8</ele>
        <time>2025-09-28T10:43:14Z</time>
      </trkpt>
      <trkpt lat="45.70536" lon="3.00156">
        <ele>877.6</ele>
        <time>2025-09-28T10:43:15Z</time>
      </trkpt>
      <trkpt lat="45.70537" lon="3.0016">
        <ele>877.2</ele>
        <time>2025-09-28T10:43:16Z</time>
      </trkpt>
      <trkpt lat="45.70538" lon="3.00163">
        <ele>877</ele>
        <time>2025-09-28T10:43:17Z</time>
      </trkpt>
      <trkpt lat="45.7054" lon="3.00167">
        <ele>876.8</ele>
        <time>2025-09-28T10:43:18Z</time>
      </trkpt>
      <trkpt lat="45.70542" lon="3.0017">
        <ele>876.6</ele>
        <time>2025-09-28T10:43:19Z</time>
      </trkpt>
      <trkpt lat="45.70545" lon="3.00173">
        <ele>876.2</ele>
        <time>2025-09-28T10:43:20Z</time>
      </trkpt>
      <trkpt lat="45.70549" lon="3.00176">
        <ele>876</ele>
        <time>2025-09-28T10:43:21Z</time>
      </trkpt>
      <trkpt lat="45.70553" lon="3.00177">
        <ele>875.6</ele>
        <time>2025-09-28T10:43:22Z</time>
      </trkpt>
      <trkpt lat="45.70559" lon="3.00176">
        <ele>875.4</ele>
        <time>2025-09-28T10:43:23Z</time>
      </trkpt>
      <trkpt lat="45.70564" lon="3.00174">
        <ele>875</ele>
        <time>2025-09-28T10:43:24Z</time>
      </trkpt>
      <trkpt lat="45.70569" lon="3.00172">
        <ele>874.6</ele>
        <time>2025-09-28T10:43:25Z</time>
      </trkpt>
      <trkpt lat="45.70575" lon="3.0017">
        <ele>874.2</ele>
        <time>2025-09-28T10:43:26Z</time>
      </trkpt>
      <trkpt lat="45.7058" lon="3.00166">
        <ele>873.8</ele>
        <time>2025-09-28T10:43:27Z</time>
      </trkpt>
      <trkpt lat="45.70586" lon="3.00159">
        <ele>873.6</ele>
        <time>2025-09-28T10:43:28Z</time>
      </trkpt>
      <trkpt lat="45.7059" lon="3.00152">
        <ele>873.6</ele>
        <time>2025-09-28T10:43:29Z</time>
      </trkpt>
      <trkpt lat="45.70594" lon="3.00144">
        <ele>873.6</ele>
        <time>2025-09-28T10:43:30Z</time>
      </trkpt>
      <trkpt lat="45.70596" lon="3.00138">
        <ele>873.6</ele>
        <time>2025-09-28T10:43:31Z</time>
      </trkpt>
      <trkpt lat="45.70598" lon="3.00131">
        <ele>873.4</ele>
        <time>2025-09-28T10:43:32Z</time>
      </trkpt>
      <trkpt lat="45.70602" lon="3.00125">
        <ele>873.4</ele>
        <time>2025-09-28T10:43:33Z</time>
      </trkpt>
      <trkpt lat="45.70607" lon="3.00119">
        <ele>873.2</ele>
        <time>2025-09-28T10:43:34Z</time>
      </trkpt>
      <trkpt lat="45.70612" lon="3.00111">
        <ele>873</ele>
        <time>2025-09-28T10:43:35Z</time>
      </trkpt>
      <trkpt lat="45.70616" lon="3.00102">
        <ele>872.8</ele>
        <time>2025-09-28T10:43:36Z</time>
      </trkpt>
      <trkpt lat="45.7062" lon="3.00092">
        <ele>872.6</ele>
        <time>2025-09-28T10:43:37Z</time>
      </trkpt>
      <trkpt lat="45.70622" lon="3.00082">
        <ele>872.4</ele>
        <time>2025-09-28T10:43:38Z</time>
      </trkpt>
      <trkpt lat="45.70624" lon="3.00074">
        <ele>872.2</ele>
        <time>2025-09-28T10:43:39Z</time>
      </trkpt>
      <trkpt lat="45.70626" lon="3.00065">
        <ele>871.8</ele>
        <time>2025-09-28T10:43:40Z</time>
      </trkpt>
      <trkpt lat="45.70627" lon="3.00055">
        <ele>871.4</ele>
        <time>2025-09-28T10:43:41Z</time>
      </trkpt>
      <trkpt lat="45.70629" lon="3.00045">
        <ele>871</ele>
        <time>2025-09-28T10:43:42Z</time>
      </trkpt>
      <trkpt lat="45.7063" lon="3.00034">
        <ele>870.4</ele>
        <time>2025-09-28T10:43:43Z</time>
      </trkpt>
      <trkpt lat="45.70632" lon="3.00026">
        <ele>870</ele>
        <time>2025-09-28T10:43:44Z</time>
      </trkpt>
      <trkpt lat="45.70634" lon="3.00019">
        <ele>869.6</ele>
        <time>2025-09-28T10:43:45Z</time>
      </trkpt>
      <trkpt lat="45.70633" lon="3.00011">
        <ele>869</ele>
        <time>2025-09-28T10:43:46Z</time>
      </trkpt>
      <trkpt lat="45.70632" lon="3.00001">
        <ele>868.6</ele>
        <time>2025-09-28T10:43:47Z</time>
      </trkpt>
      <trkpt lat="45.70632" lon="2.99993">
        <ele>868.2</ele>
        <time>2025-09-28T10:43:48Z</time>
      </trkpt>
      <trkpt lat="45.70632" lon="2.99988">
        <ele>867.8</ele>
        <time>2025-09-28T10:43:49Z</time>
      </trkpt>
      <trkpt lat="45.70634" lon="2.99981">
        <ele>867.6</ele>
        <time>2025-09-28T10:43:50Z</time>
      </trkpt>
      <trkpt lat="45.70635" lon="2.99974">
        <ele>867.6</ele>
        <time>2025-09-28T10:43:51Z</time>
      </trkpt>
      <trkpt lat="45.70635" lon="2.99966">
        <ele>867.6</ele>
        <time>2025-09-28T10:43:52Z</time>
      </trkpt>
      <trkpt lat="45.70635" lon="2.99959">
        <ele>867.6</ele>
        <time>2025-09-28T10:43:53Z</time>
      </trkpt>
      <trkpt lat="45.70636" lon="2.99952">
        <ele>867.8</ele>
        <time>2025-09-28T10:43:54Z</time>
      </trkpt>
      <trkpt lat="45.70636" lon="2.99945">
        <ele>868</ele>
        <time>2025-09-28T10:43:55Z</time>
      </trkpt>
      <trkpt lat="45.70637" lon="2.99938">
        <ele>868.2</ele>
        <time>2025-09-28T10:43:56Z</time>
      </trkpt>
      <trkpt lat="45.70638" lon="2.99932">
        <ele>868.4</ele>
        <time>2025-09-28T10:43:57Z</time>
      </trkpt>
      <trkpt lat="45.70639" lon="2.99926">
        <ele>868.6</ele>
        <time>2025-09-28T10:43:58Z</time>
      </trkpt>
      <trkpt lat="45.70641" lon="2.9992">
        <ele>868.8</ele>
        <time>2025-09-28T10:43:59Z</time>
      </trkpt>
      <trkpt lat="45.70643" lon="2.99914">
        <ele>869</ele>
        <time>2025-09-28T10:44:00Z</time>
      </trkpt>
      <trkpt lat="45.70645" lon="2.99909">
        <ele>869.2</ele>
        <time>2025-09-28T10:44:01Z</time>
      </trkpt>
      <trkpt lat="45.70648" lon="2.99903">
        <ele>869.2</ele>
        <time>2025-09-28T10:44:02Z</time>
      </trkpt>
      <trkpt lat="45.7065" lon="2.99898">
        <ele>869.4</ele>
        <time>2025-09-28T10:44:03Z</time>
      </trkpt>
      <trkpt lat="45.70653" lon="2.99892">
        <ele>869.4</ele>
        <time>2025-09-28T10:44:04Z</time>
      </trkpt>
      <trkpt lat="45.70656" lon="2.99887">
        <ele>869.6</ele>
        <time>2025-09-28T10:44:05Z</time>
      </trkpt>
      <trkpt lat="45.70658" lon="2.99882">
        <ele>869.6</ele>
        <time>2025-09-28T10:44:06Z</time>
      </trkpt>
      <trkpt lat="45.70661" lon="2.99877">
        <ele>869.6</ele>
        <time>2025-09-28T10:44:07Z</time>
      </trkpt>
      <trkpt lat="45.70665" lon="2.99872">
        <ele>869.8</ele>
        <time>2025-09-28T10:44:08Z</time>
      </trkpt>
      <trkpt lat="45.7067" lon="2.99867">
        <ele>870</ele>
        <time>2025-09-28T10:44:09Z</time>
      </trkpt>
      <trkpt lat="45.70675" lon="2.99862">
        <ele>870</ele>
        <time>2025-09-28T10:44:10Z</time>
      </trkpt>
      <trkpt lat="45.70679" lon="2.99857">
        <ele>870.2</ele>
        <time>2025-09-28T10:44:11Z</time>
      </trkpt>
      <trkpt lat="45.70683" lon="2.99852">
        <ele>870.4</ele>
        <time>2025-09-28T10:44:12Z</time>
      </trkpt>
      <trkpt lat="45.70687" lon="2.99846">
        <ele>870.6</ele>
        <time>2025-09-28T10:44:13Z</time>
      </trkpt>
      <trkpt lat="45.70691" lon="2.99841">
        <ele>870.8</ele>
        <time>2025-09-28T10:44:14Z</time>
      </trkpt>
      <trkpt lat="45.70694" lon="2.99836">
        <ele>871</ele>
        <time>2025-09-28T10:44:15Z</time>
      </trkpt>
      <trkpt lat="45.70698" lon="2.99832">
        <ele>871.2</ele>
        <time>2025-09-28T10:44:16Z</time>
      </trkpt>
      <trkpt lat="45.70701" lon="2.99828">
        <ele>871.4</ele>
        <time>2025-09-28T10:44:17Z</time>
      </trkpt>
      <trkpt lat="45.70704" lon="2.99823">
        <ele>871.6</ele>
        <time>2025-09-28T10:44:18Z</time>
      </trkpt>
      <trkpt lat="45.70706" lon="2.99819">
        <ele>871.8</ele>
        <time>2025-09-28T10:44:19Z</time>
      </trkpt>
      <trkpt lat="45.70709" lon="2.99816">
        <ele>872</ele>
        <time>2025-09-28T10:44:20Z</time>
      </trkpt>
      <trkpt lat="45.70712" lon="2.99813">
        <ele>872.4</ele>
        <time>2025-09-28T10:44:21Z</time>
      </trkpt>
      <trkpt lat="45.70715" lon="2.99809">
        <ele>872.6</ele>
        <time>2025-09-28T10:44:22Z</time>
      </trkpt>
      <trkpt lat="45.70718" lon="2.99806">
        <ele>872.8</ele>
        <time>2025-09-28T10:44:23Z</time>
      </trkpt>
      <trkpt lat="45.70721" lon="2.99802">
        <ele>873</ele>
        <time>2025-09-28T10:44:24Z</time>
      </trkpt>
      <trkpt lat="45.70724" lon="2.99798">
        <ele>873.2</ele>
        <time>2025-09-28T10:44:25Z</time>
      </trkpt>
      <trkpt lat="45.70727" lon="2.99794">
        <ele>873.6</ele>
        <time>2025-09-28T10:44:26Z</time>
      </trkpt>
      <trkpt lat="45.70729" lon="2.9979">
        <ele>873.8</ele>
        <time>2025-09-28T10:44:27Z</time>
      </trkpt>
      <trkpt lat="45.70732" lon="2.99786">
        <ele>874</ele>
        <time>2025-09-28T10:44:28Z</time>
      </trkpt>
      <trkpt lat="45.70734" lon="2.99783">
        <ele>874.2</ele>
        <time>2025-09-28T10:44:29Z</time>
      </trkpt>
      <trkpt lat="45.70737" lon="2.99779">
        <ele>874.4</ele>
        <time>2025-09-28T10:44:30Z</time>
      </trkpt>
      <trkpt lat="45.70739" lon="2.99776">
        <ele>874.6</ele>
        <time>2025-09-28T10:44:31Z</time>
      </trkpt>
      <trkpt lat="45.70741" lon="2.99773">
        <ele>874.8</ele>
        <time>2025-09-28T10:44:32Z</time>
      </trkpt>
      <trkpt lat="45.70743" lon="2.99769">
        <ele>875</ele>
        <time>2025-09-28T10:44:33Z</time>
      </trkpt>
      <trkpt lat="45.70745" lon="2.99766">
        <ele>875.2</ele>
        <time>2025-09-28T10:44:34Z</time>
      </trkpt>
      <trkpt lat="45.70747" lon="2.99763">
        <ele>875.4</ele>
        <time>2025-09-28T10:44:35Z</time>
      </trkpt>
      <trkpt lat="45.70749" lon="2.99759">
        <ele>875.6</ele>
        <time>2025-09-28T10:44:36Z</time>
      </trkpt>
      <trkpt lat="45.70751" lon="2.99756">
        <ele>875.8</ele>
        <time>2025-09-28T10:44:37Z</time>
      </trkpt>
      <trkpt lat="45.70753" lon="2.99753">
        <ele>876</ele>
        <time>2025-09-28T10:44:38Z</time>
      </trkpt>
      <trkpt lat="45.70755" lon="2.9975">
        <ele>876.2</ele>
        <time>2025-09-28T10:44:39Z</time>
      </trkpt>
      <trkpt lat="45.70757" lon="2.99746">
        <ele>876.4</ele>
        <time>2025-09-28T10:44:40Z</time>
      </trkpt>
      <trkpt lat="45.70759" lon="2.99743">
        <ele>876.6</ele>
        <time>2025-09-28T10:44:41Z</time>
      </trkpt>
      <trkpt lat="45.70761" lon="2.9974">
        <ele>876.8</ele>
        <time>2025-09-28T10:44:42Z</time>
      </trkpt>
      <trkpt lat="45.70764" lon="2.99737">
        <ele>877</ele>
        <time>2025-09-28T10:44:43Z</time>
      </trkpt>
      <trkpt lat="45.70766" lon="2.99734">
        <ele>877.2</ele>
        <time>2025-09-28T10:44:44Z</time>
      </trkpt>
      <trkpt lat="45.70768" lon="2.99731">
        <ele>877.2</ele>
        <time>2025-09-28T10:44:45Z</time>
      </trkpt>
      <trkpt lat="45.7077" lon="2.99728">
        <ele>877.4</ele>
        <time>2025-09-28T10:44:46Z</time>
      </trkpt>
      <trkpt lat="45.70772" lon="2.99725">
        <ele>877.6</ele>
        <time>2025-09-28T10:44:47Z</time>
      </trkpt>
      <trkpt lat="45.70774" lon="2.99721">
        <ele>877.8</ele>
        <time>2025-09-28T10:44:48Z</time>
      </trkpt>
      <trkpt lat="45.70777" lon="2.99718">
        <ele>877.8</ele>
        <time>2025-09-28T10:44:49Z</time>
      </trkpt>
      <trkpt lat="45.70779" lon="2.99715">
        <ele>878</ele>
        <time>2025-09-28T10:44:50Z</time>
      </trkpt>
      <trkpt lat="45.70781" lon="2.99711">
        <ele>878</ele>
        <time>2025-09-28T10:44:51Z</time>
      </trkpt>
      <trkpt lat="45.70783" lon="2.99708">
        <ele>878.2</ele>
        <time>2025-09-28T10:44:52Z</time>
      </trkpt>
      <trkpt lat="45.70785" lon="2.99705">
        <ele>878.2</ele>
        <time>2025-09-28T10:44:53Z</time>
      </trkpt>
      <trkpt lat="45.70787" lon="2.99701">
        <ele>878.4</ele>
        <time>2025-09-28T10:44:54Z</time>
      </trkpt>
      <trkpt lat="45.70789" lon="2.99697">
        <ele>878.4</ele>
        <time>2025-09-28T10:44:55Z</time>
      </trkpt>
      <trkpt lat="45.7079" lon="2.99694">
        <ele>878.6</ele>
        <time>2025-09-28T10:44:56Z</time>
      </trkpt>
      <trkpt lat="45.70792" lon="2.9969">
        <ele>878.6</ele>
        <time>2025-09-28T10:44:57Z</time>
      </trkpt>
      <trkpt lat="45.70793" lon="2.99687">
        <ele>878.8</ele>
        <time>2025-09-28T10:44:58Z</time>
      </trkpt>
      <trkpt lat="45.70795" lon="2.99683">
        <ele>878.8</ele>
        <time>2025-09-28T10:44:59Z</time>
      </trkpt>
      <trkpt lat="45.70797" lon="2.99679">
        <ele>879</ele>
        <time>2025-09-28T10:45:00Z</time>
      </trkpt>
      <trkpt lat="45.70799" lon="2.99675">
        <ele>879</ele>
        <time>2025-09-28T10:45:01Z</time>
      </trkpt>
      <trkpt lat="45.70801" lon="2.99671">
        <ele>879.2</ele>
        <time>2025-09-28T10:45:02Z</time>
      </trkpt>
      <trkpt lat="45.70803" lon="2.99667">
        <ele>879.2</ele>
        <time>2025-09-28T10:45:03Z</time>
      </trkpt>
      <trkpt lat="45.70806" lon="2.99663">
        <ele>879.4</ele>
        <time>2025-09-28T10:45:04Z</time>
      </trkpt>
      <trkpt lat="45.70808" lon="2.99659">
        <ele>879.4</ele>
        <time>2025-09-28T10:45:05Z</time>
      </trkpt>
      <trkpt lat="45.7081" lon="2.99654">
        <ele>879.6</ele>
        <time>2025-09-28T10:45:06Z</time>
      </trkpt>
      <trkpt lat="45.70812" lon="2.9965">
        <ele>879.6</ele>
        <time>2025-09-28T10:45:07Z</time>
      </trkpt>
      <trkpt lat="45.70814" lon="2.99647">
        <ele>879.6</ele>
        <time>2025-09-28T10:45:08Z</time>
      </trkpt>
      <trkpt lat="45.70816" lon="2.99644">
        <ele>879.8</ele>
        <time>2025-09-28T10:45:09Z</time>
      </trkpt>
      <trkpt lat="45.70817" lon="2.99641">
        <ele>879.8</ele>
        <time>2025-09-28T10:45:10Z</time>
      </trkpt>
      <trkpt lat="45.70819" lon="2.99639">
        <ele>879.8</ele>
        <time>2025-09-28T10:45:11Z</time>
      </trkpt>
      <trkpt lat="45.7082" lon="2.99636">
        <ele>880</ele>
        <time>2025-09-28T10:45:12Z</time>
      </trkpt>
      <trkpt lat="45.70821" lon="2.99633">
        <ele>880</ele>
        <time>2025-09-28T10:45:13Z</time>
      </trkpt>
      <trkpt lat="45.70823" lon="2.9963">
        <ele>880</ele>
        <time>2025-09-28T10:45:14Z</time>
      </trkpt>
      <trkpt lat="45.70824" lon="2.99627">
        <ele>880</ele>
        <time>2025-09-28T10:45:15Z</time>
      </trkpt>
      <trkpt lat="45.70826" lon="2.99624">
        <ele>880</ele>
        <time>2025-09-28T10:45:16Z</time>
      </trkpt>
      <trkpt lat="45.70828" lon="2.99621">
        <ele>880</ele>
        <time>2025-09-28T10:45:17Z</time>
      </trkpt>
      <trkpt lat="45.7083" lon="2.99619">
        <ele>880</ele>
        <time>2025-09-28T10:45:18Z</time>
      </trkpt>
      <trkpt lat="45.70832" lon="2.99616">
        <ele>880</ele>
        <time>2025-09-28T10:45:19Z</time>
      </trkpt>
      <trkpt lat="45.70834" lon="2.99613">
        <ele>880</ele>
        <time>2025-09-28T10:45:20Z</time>
      </trkpt>
      <trkpt lat="45.70836" lon="2.9961">
        <ele>880</ele>
        <time>2025-09-28T10:45:21Z</time>
      </trkpt>
      <trkpt lat="45.70839" lon="2.99606">
        <ele>880</ele>
        <time>2025-09-28T10:45:22Z</time>
      </trkpt>
      <trkpt lat="45.70841" lon="2.99603">
        <ele>880.2</ele>
        <time>2025-09-28T10:45:23Z</time>
      </trkpt>
      <trkpt lat="45.70843" lon="2.996">
        <ele>880.2</ele>
        <time>2025-09-28T10:45:24Z</time>
      </trkpt>
      <trkpt lat="45.70846" lon="2.99596">
        <ele>880.2</ele>
        <time>2025-09-28T10:45:25Z</time>
      </trkpt>
      <trkpt lat="45.70848" lon="2.99592">
        <ele>880.2</ele>
        <time>2025-09-28T10:45:26Z</time>
      </trkpt>
      <trkpt lat="45.70852" lon="2.99587">
        <ele>880.4</ele>
        <time>2025-09-28T10:45:27Z</time>
      </trkpt>
      <trkpt lat="45.70855" lon="2.99582">
        <ele>880.4</ele>
        <time>2025-09-28T10:45:28Z</time>
      </trkpt>
      <trkpt lat="45.70859" lon="2.99577">
        <ele>880.6</ele>
        <time>2025-09-28T10:45:29Z</time>
      </trkpt>
      <trkpt lat="45.70862" lon="2.99571">
        <ele>880.6</ele>
        <time>2025-09-28T10:45:30Z</time>
      </trkpt>
      <trkpt lat="45.70866" lon="2.99567">
        <ele>880.6</ele>
        <time>2025-09-28T10:45:31Z</time>
      </trkpt>
      <trkpt lat="45.70869" lon="2.99562">
        <ele>880.8</ele>
        <time>2025-09-28T10:45:32Z</time>
      </trkpt>
      <trkpt lat="45.70874" lon="2.99558">
        <ele>880.8</ele>
        <time>2025-09-28T10:45:33Z</time>
      </trkpt>
      <trkpt lat="45.70878" lon="2.99552">
        <ele>881</ele>
        <time>2025-09-28T10:45:34Z</time>
      </trkpt>
      <trkpt lat="45.70883" lon="2.99549">
        <ele>881.2</ele>
        <time>2025-09-28T10:45:35Z</time>
      </trkpt>
      <trkpt lat="45.70886" lon="2.99548">
        <ele>881.4</ele>
        <time>2025-09-28T10:45:36Z</time>
      </trkpt>
      <trkpt lat="45.70888" lon="2.99546">
        <ele>881.4</ele>
        <time>2025-09-28T10:45:37Z</time>
      </trkpt>
      <trkpt lat="45.70891" lon="2.99545">
        <ele>881.6</ele>
        <time>2025-09-28T10:45:38Z</time>
      </trkpt>
      <trkpt lat="45.70892" lon="2.99544">
        <ele>881.6</ele>
        <time>2025-09-28T10:45:39Z</time>
      </trkpt>
      <trkpt lat="45.70892" lon="2.99544">
        <ele>881.8</ele>
        <time>2025-09-28T10:45:40Z</time>
      </trkpt>
      <trkpt lat="45.70892" lon="2.99544">
        <ele>881.8</ele>
        <time>2025-09-28T10:45:41Z</time>
      </trkpt>
      <trkpt lat="45.70892" lon="2.99544">
        <ele>882</ele>
        <time>2025-09-28T10:45:42Z</time>
      </trkpt>
      <trkpt lat="45.70892" lon="2.99544">
        <ele>882</ele>
        <time>2025-09-28T10:45:43Z</time>
      </trkpt>
      <trkpt lat="45.70898" lon="2.99543">
        <ele>882.8</ele>
        <time>2025-09-28T10:45:54Z</time>
      </trkpt>
      <trkpt lat="45.70901" lon="2.99542">
        <ele>883</ele>
        <time>2025-09-28T10:45:55Z</time>
      </trkpt>
      <trkpt lat="45.70904" lon="2.9954">
        <ele>883</ele>
        <time>2025-09-28T10:45:56Z</time>
      </trkpt>
      <trkpt lat="45.70909" lon="2.99539">
        <ele>883.2</ele>
        <time>2025-09-28T10:45:57Z</time>
      </trkpt>
      <trkpt lat="45.70912" lon="2.99537">
        <ele>883.4</ele>
        <time>2025-09-28T10:45:58Z</time>
      </trkpt>
      <trkpt lat="45.70915" lon="2.99534">
        <ele>883.6</ele>
        <time>2025-09-28T10:45:59Z</time>
      </trkpt>
      <trkpt lat="45.70917" lon="2.99531">
        <ele>883.8</ele>
        <time>2025-09-28T10:46:00Z</time>
      </trkpt>
      <trkpt lat="45.70919" lon="2.9953">
        <ele>884</ele>
        <time>2025-09-28T10:46:01Z</time>
      </trkpt>
      <trkpt lat="45.70923" lon="2.99523">
        <ele>884.2</ele>
        <time>2025-09-28T10:46:02Z</time>
      </trkpt>
      <trkpt lat="45.70926" lon="2.99517">
        <ele>884.4</ele>
        <time>2025-09-28T10:46:03Z</time>
      </trkpt>
      <trkpt lat="45.70927" lon="2.99513">
        <ele>884.6</ele>
        <time>2025-09-28T10:46:04Z</time>
      </trkpt>
      <trkpt lat="45.70929" lon="2.99507">
        <ele>885</ele>
        <time>2025-09-28T10:46:05Z</time>
      </trkpt>
      <trkpt lat="45.7093" lon="2.99503">
        <ele>885</ele>
        <time>2025-09-28T10:46:06Z</time>
      </trkpt>
      <trkpt lat="45.70932" lon="2.99499">
        <ele>885.2</ele>
        <time>2025-09-28T10:46:07Z</time>
      </trkpt>
      <trkpt lat="45.70933" lon="2.99496">
        <ele>885.4</ele>
        <time>2025-09-28T10:46:08Z</time>
      </trkpt>
      <trkpt lat="45.70933" lon="2.99495">
        <ele>885.6</ele>
        <time>2025-09-28T10:46:09Z</time>
      </trkpt>
      <trkpt lat="45.70934" lon="2.99492">
        <ele>885.6</ele>
        <time>2025-09-28T10:46:10Z</time>
      </trkpt>
      <trkpt lat="45.70934" lon="2.9949">
        <ele>885.8</ele>
        <time>2025-09-28T10:46:11Z</time>
      </trkpt>
      <trkpt lat="45.70935" lon="2.9949">
        <ele>885.8</ele>
        <time>2025-09-28T10:46:12Z</time>
      </trkpt>
      <trkpt lat="45.70935" lon="2.99489">
        <ele>886</ele>
        <time>2025-09-28T10:46:13Z</time>
      </trkpt>
      <trkpt lat="45.70935" lon="2.99488">
        <ele>886</ele>
        <time>2025-09-28T10:46:14Z</time>
      </trkpt>
      <trkpt lat="45.70936" lon="2.99485">
        <ele>886.2</ele>
        <time>2025-09-28T10:46:15Z</time>
      </trkpt>
      <trkpt lat="45.70936" lon="2.99482">
        <ele>886.4</ele>
        <time>2025-09-28T10:46:16Z</time>
      </trkpt>
      <trkpt lat="45.70936" lon="2.99478">
        <ele>886.6</ele>
        <time>2025-09-28T10:46:17Z</time>
      </trkpt>
      <trkpt lat="45.70936" lon="2.99475">
        <ele>886.8</ele>
        <time>2025-09-28T10:46:18Z</time>
      </trkpt>
      <trkpt lat="45.70936" lon="2.99471">
        <ele>887</ele>
        <time>2025-09-28T10:46:19Z</time>
      </trkpt>
      <trkpt lat="45.70936" lon="2.99468">
        <ele>887.2</ele>
        <time>2025-09-28T10:46:20Z</time>
      </trkpt>
      <trkpt lat="45.70937" lon="2.99467">
        <ele>887.4</ele>
        <time>2025-09-28T10:46:21Z</time>
      </trkpt>
      <trkpt lat="45.70938" lon="2.99465">
        <ele>887.6</ele>
        <time>2025-09-28T10:46:22Z</time>
      </trkpt>
      <trkpt lat="45.70939" lon="2.99462">
        <ele>887.8</ele>
        <time>2025-09-28T10:46:23Z</time>
      </trkpt>
      <trkpt lat="45.70941" lon="2.9946">
        <ele>888</ele>
        <time>2025-09-28T10:46:24Z</time>
      </trkpt>
      <trkpt lat="45.70942" lon="2.99457">
        <ele>888.2</ele>
        <time>2025-09-28T10:46:25Z</time>
      </trkpt>
      <trkpt lat="45.70943" lon="2.99454">
        <ele>888.4</ele>
        <time>2025-09-28T10:46:26Z</time>
      </trkpt>
      <trkpt lat="45.70945" lon="2.99451">
        <ele>888.6</ele>
        <time>2025-09-28T10:46:27Z</time>
      </trkpt>
      <trkpt lat="45.70946" lon="2.99448">
        <ele>888.6</ele>
        <time>2025-09-28T10:46:28Z</time>
      </trkpt>
      <trkpt lat="45.70948" lon="2.99445">
        <ele>888.8</ele>
        <time>2025-09-28T10:46:29Z</time>
      </trkpt>
      <trkpt lat="45.7095" lon="2.9944">
        <ele>888.8</ele>
        <time>2025-09-28T10:46:30Z</time>
      </trkpt>
      <trkpt lat="45.70953" lon="2.99435">
        <ele>889</ele>
        <time>2025-09-28T10:46:31Z</time>
      </trkpt>
      <trkpt lat="45.70955" lon="2.99431">
        <ele>889</ele>
        <time>2025-09-28T10:46:32Z</time>
      </trkpt>
      <trkpt lat="45.70955" lon="2.99428">
        <ele>889.2</ele>
        <time>2025-09-28T10:46:33Z</time>
      </trkpt>
      <trkpt lat="45.70957" lon="2.99425">
        <ele>889.2</ele>
        <time>2025-09-28T10:46:34Z</time>
      </trkpt>
      <trkpt lat="45.70958" lon="2.99422">
        <ele>889.2</ele>
        <time>2025-09-28T10:46:35Z</time>
      </trkpt>
      <trkpt lat="45.7096" lon="2.99418">
        <ele>889.4</ele>
        <time>2025-09-28T10:46:36Z</time>
      </trkpt>
      <trkpt lat="45.70963" lon="2.99415">
        <ele>889.4</ele>
        <time>2025-09-28T10:46:37Z</time>
      </trkpt>
      <trkpt lat="45.70966" lon="2.99413">
        <ele>889.6</ele>
        <time>2025-09-28T10:46:38Z</time>
      </trkpt>
      <trkpt lat="45.70969" lon="2.9941">
        <ele>889.6</ele>
        <time>2025-09-28T10:46:39Z</time>
      </trkpt>
      <trkpt lat="45.70972" lon="2.99406">
        <ele>889.8</ele>
        <time>2025-09-28T10:46:40Z</time>
      </trkpt>
      <trkpt lat="45.70975" lon="2.99402">
        <ele>889.8</ele>
        <time>2025-09-28T10:46:41Z</time>
      </trkpt>
      <trkpt lat="45.70977" lon="2.99398">
        <ele>890</ele>
        <time>2025-09-28T10:46:42Z</time>
      </trkpt>
      <trkpt lat="45.7098" lon="2.99393">
        <ele>890</ele>
        <time>2025-09-28T10:46:43Z</time>
      </trkpt>
      <trkpt lat="45.70984" lon="2.99388">
        <ele>890.2</ele>
        <time>2025-09-28T10:46:44Z</time>
      </trkpt>
      <trkpt lat="45.70988" lon="2.99382">
        <ele>890.2</ele>
        <time>2025-09-28T10:46:45Z</time>
      </trkpt>
      <trkpt lat="45.70991" lon="2.99379">
        <ele>890.4</ele>
        <time>2025-09-28T10:46:46Z</time>
      </trkpt>
      <trkpt lat="45.70993" lon="2.99375">
        <ele>890.4</ele>
        <time>2025-09-28T10:46:47Z</time>
      </trkpt>
      <trkpt lat="45.70996" lon="2.9937">
        <ele>890.6</ele>
        <time>2025-09-28T10:46:48Z</time>
      </trkpt>
      <trkpt lat="45.70999" lon="2.99365">
        <ele>890.8</ele>
        <time>2025-09-28T10:46:49Z</time>
      </trkpt>
      <trkpt lat="45.71002" lon="2.9936">
        <ele>890.8</ele>
        <time>2025-09-28T10:46:50Z</time>
      </trkpt>
      <trkpt lat="45.71004" lon="2.99357">
        <ele>891</ele>
        <time>2025-09-28T10:46:51Z</time>
      </trkpt>
      <trkpt lat="45.71006" lon="2.99352">
        <ele>891.2</ele>
        <time>2025-09-28T10:46:52Z</time>
      </trkpt>
      <trkpt lat="45.71008" lon="2.99347">
        <ele>891.2</ele>
        <time>2025-09-28T10:46:53Z</time>
      </trkpt>
      <trkpt lat="45.7101" lon="2.99342">
        <ele>891.4</ele>
        <time>2025-09-28T10:46:54Z</time>
      </trkpt>
      <trkpt lat="45.71013" lon="2.99339">
        <ele>891.4</ele>
        <time>2025-09-28T10:46:55Z</time>
      </trkpt>
      <trkpt lat="45.71015" lon="2.99335">
        <ele>891.6</ele>
        <time>2025-09-28T10:46:56Z</time>
      </trkpt>
      <trkpt lat="45.71016" lon="2.99328">
        <ele>891.8</ele>
        <time>2025-09-28T10:46:57Z</time>
      </trkpt>
      <trkpt lat="45.71017" lon="2.9932">
        <ele>891.8</ele>
        <time>2025-09-28T10:46:58Z</time>
      </trkpt>
      <trkpt lat="45.71018" lon="2.99312">
        <ele>892</ele>
        <time>2025-09-28T10:46:59Z</time>
      </trkpt>
      <trkpt lat="45.7102" lon="2.99307">
        <ele>892.2</ele>
        <time>2025-09-28T10:47:00Z</time>
      </trkpt>
      <trkpt lat="45.71021" lon="2.99304">
        <ele>892.2</ele>
        <time>2025-09-28T10:47:01Z</time>
      </trkpt>
      <trkpt lat="45.71022" lon="2.993">
        <ele>892.4</ele>
        <time>2025-09-28T10:47:02Z</time>
      </trkpt>
      <trkpt lat="45.71022" lon="2.99298">
        <ele>892.6</ele>
        <time>2025-09-28T10:47:03Z</time>
      </trkpt>
      <trkpt lat="45.71023" lon="2.99294">
        <ele>892.8</ele>
        <time>2025-09-28T10:47:04Z</time>
      </trkpt>
      <trkpt lat="45.71024" lon="2.9929">
        <ele>893</ele>
        <time>2025-09-28T10:47:05Z</time>
      </trkpt>
      <trkpt lat="45.71027" lon="2.99288">
        <ele>893.2</ele>
        <time>2025-09-28T10:47:06Z</time>
      </trkpt>
      <trkpt lat="45.71031" lon="2.99286">
        <ele>893.2</ele>
        <time>2025-09-28T10:47:07Z</time>
      </trkpt>
      <trkpt lat="45.71036" lon="2.99282">
        <ele>893.4</ele>
        <time>2025-09-28T10:47:08Z</time>
      </trkpt>
      <trkpt lat="45.7104" lon="2.99278">
        <ele>893.4</ele>
        <time>2025-09-28T10:47:09Z</time>
      </trkpt>
      <trkpt lat="45.71043" lon="2.99274">
        <ele>893.6</ele>
        <time>2025-09-28T10:47:10Z</time>
      </trkpt>
      <trkpt lat="45.71046" lon="2.99269">
        <ele>893.6</ele>
        <time>2025-09-28T10:47:11Z</time>
      </trkpt>
      <trkpt lat="45.71048" lon="2.99264">
        <ele>893.6</ele>
        <time>2025-09-28T10:47:12Z</time>
      </trkpt>
      <trkpt lat="45.71048" lon="2.99261">
        <ele>893.8</ele>
        <time>2025-09-28T10:47:13Z</time>
      </trkpt>
      <trkpt lat="45.71049" lon="2.99257">
        <ele>893.8</ele>
        <time>2025-09-28T10:47:14Z</time>
      </trkpt>
      <trkpt lat="45.7105" lon="2.99254">
        <ele>894</ele>
        <time>2025-09-28T10:47:15Z</time>
      </trkpt>
      <trkpt lat="45.71053" lon="2.9925">
        <ele>894</ele>
        <time>2025-09-28T10:47:16Z</time>
      </trkpt>
      <trkpt lat="45.71058" lon="2.99246">
        <ele>894.2</ele>
        <time>2025-09-28T10:47:17Z</time>
      </trkpt>
      <trkpt lat="45.71063" lon="2.99243">
        <ele>894.2</ele>
        <time>2025-09-28T10:47:18Z</time>
      </trkpt>
      <trkpt lat="45.71066" lon="2.99239">
        <ele>894.4</ele>
        <time>2025-09-28T10:47:19Z</time>
      </trkpt>
      <trkpt lat="45.71067" lon="2.99235">
        <ele>894.6</ele>
        <time>2025-09-28T10:47:20Z</time>
      </trkpt>
      <trkpt lat="45.71068" lon="2.99232">
        <ele>894.6</ele>
        <time>2025-09-28T10:47:21Z</time>
      </trkpt>
      <trkpt lat="45.71067" lon="2.99229">
        <ele>894.6</ele>
        <time>2025-09-28T10:47:22Z</time>
      </trkpt>
      <trkpt lat="45.71067" lon="2.99227">
        <ele>894.8</ele>
        <time>2025-09-28T10:47:23Z</time>
      </trkpt>
      <trkpt lat="45.71067" lon="2.99225">
        <ele>894.8</ele>
        <time>2025-09-28T10:47:24Z</time>
      </trkpt>
      <trkpt lat="45.71067" lon="2.99223">
        <ele>894.8</ele>
        <time>2025-09-28T10:47:25Z</time>
      </trkpt>
      <trkpt lat="45.71069" lon="2.99221">
        <ele>894.8</ele>
        <time>2025-09-28T10:47:26Z</time>
      </trkpt>
      <trkpt lat="45.71072" lon="2.99218">
        <ele>894.8</ele>
        <time>2025-09-28T10:47:27Z</time>
      </trkpt>
      <trkpt lat="45.71075" lon="2.99214">
        <ele>894.8</ele>
        <time>2025-09-28T10:47:28Z</time>
      </trkpt>
      <trkpt lat="45.71077" lon="2.99212">
        <ele>894.8</ele>
        <time>2025-09-28T10:47:29Z</time>
      </trkpt>
      <trkpt lat="45.71078" lon="2.99211">
        <ele>894.8</ele>
        <time>2025-09-28T10:47:30Z</time>
      </trkpt>
      <trkpt lat="45.71079" lon="2.9921">
        <ele>894.6</ele>
        <time>2025-09-28T10:47:31Z</time>
      </trkpt>
      <trkpt lat="45.7108" lon="2.99209">
        <ele>894.6</ele>
        <time>2025-09-28T10:47:32Z</time>
      </trkpt>
      <trkpt lat="45.71081" lon="2.99207">
        <ele>894.4</ele>
        <time>2025-09-28T10:47:33Z</time>
      </trkpt>
      <trkpt lat="45.71082" lon="2.99206">
        <ele>894.4</ele>
        <time>2025-09-28T10:47:34Z</time>
      </trkpt>
      <trkpt lat="45.71083" lon="2.99204">
        <ele>894.2</ele>
        <time>2025-09-28T10:47:35Z</time>
      </trkpt>
      <trkpt lat="45.71085" lon="2.99202">
        <ele>894.2</ele>
        <time>2025-09-28T10:47:36Z</time>
      </trkpt>
      <trkpt lat="45.71087" lon="2.99199">
        <ele>894</ele>
        <time>2025-09-28T10:47:37Z</time>
      </trkpt>
      <trkpt lat="45.71089" lon="2.99195">
        <ele>894</ele>
        <time>2025-09-28T10:47:38Z</time>
      </trkpt>
      <trkpt lat="45.71092" lon="2.99191">
        <ele>893.8</ele>
        <time>2025-09-28T10:47:39Z</time>
      </trkpt>
      <trkpt lat="45.71095" lon="2.99187">
        <ele>893.6</ele>
        <time>2025-09-28T10:47:40Z</time>
      </trkpt>
      <trkpt lat="45.71098" lon="2.99184">
        <ele>893.6</ele>
        <time>2025-09-28T10:47:41Z</time>
      </trkpt>
      <trkpt lat="45.71101" lon="2.9918">
        <ele>893.4</ele>
        <time>2025-09-28T10:47:42Z</time>
      </trkpt>
      <trkpt lat="45.71104" lon="2.99177">
        <ele>893.2</ele>
        <time>2025-09-28T10:47:43Z</time>
      </trkpt>
      <trkpt lat="45.71107" lon="2.99174">
        <ele>893.2</ele>
        <time>2025-09-28T10:47:44Z</time>
      </trkpt>
      <trkpt lat="45.7111" lon="2.99171">
        <ele>893</ele>
        <time>2025-09-28T10:47:45Z</time>
      </trkpt>
      <trkpt lat="45.71114" lon="2.99167">
        <ele>892.8</ele>
        <time>2025-09-28T10:47:46Z</time>
      </trkpt>
      <trkpt lat="45.71118" lon="2.99162">
        <ele>892.8</ele>
        <time>2025-09-28T10:47:47Z</time>
      </trkpt>
      <trkpt lat="45.71122" lon="2.99157">
        <ele>892.6</ele>
        <time>2025-09-28T10:47:48Z</time>
      </trkpt>
      <trkpt lat="45.71124" lon="2.99151">
        <ele>892.4</ele>
        <time>2025-09-28T10:47:49Z</time>
      </trkpt>
      <trkpt lat="45.71127" lon="2.99148">
        <ele>892.4</ele>
        <time>2025-09-28T10:47:50Z</time>
      </trkpt>
      <trkpt lat="45.71129" lon="2.99144">
        <ele>892.2</ele>
        <time>2025-09-28T10:47:51Z</time>
      </trkpt>
      <trkpt lat="45.71131" lon="2.99139">
        <ele>892.2</ele>
        <time>2025-09-28T10:47:52Z</time>
      </trkpt>
      <trkpt lat="45.71134" lon="2.99135">
        <ele>892</ele>
        <time>2025-09-28T10:47:53Z</time>
      </trkpt>
      <trkpt lat="45.71136" lon="2.99129">
        <ele>892</ele>
        <time>2025-09-28T10:47:54Z</time>
      </trkpt>
      <trkpt lat="45.71138" lon="2.99123">
        <ele>891.8</ele>
        <time>2025-09-28T10:47:55Z</time>
      </trkpt>
      <trkpt lat="45.71139" lon="2.99116">
        <ele>891.8</ele>
        <time>2025-09-28T10:47:56Z</time>
      </trkpt>
      <trkpt lat="45.7114" lon="2.99108">
        <ele>891.6</ele>
        <time>2025-09-28T10:47:57Z</time>
      </trkpt>
      <trkpt lat="45.71142" lon="2.99102">
        <ele>891.6</ele>
        <time>2025-09-28T10:47:58Z</time>
      </trkpt>
      <trkpt lat="45.71144" lon="2.99097">
        <ele>891.6</ele>
        <time>2025-09-28T10:47:59Z</time>
      </trkpt>
      <trkpt lat="45.71147" lon="2.99091">
        <ele>891.6</ele>
        <time>2025-09-28T10:48:00Z</time>
      </trkpt>
      <trkpt lat="45.71151" lon="2.99084">
        <ele>891.6</ele>
        <time>2025-09-28T10:48:01Z</time>
      </trkpt>
      <trkpt lat="45.71154" lon="2.99079">
        <ele>891.8</ele>
        <time>2025-09-28T10:48:02Z</time>
      </trkpt>
      <trkpt lat="45.71156" lon="2.99074">
        <ele>891.8</ele>
        <time>2025-09-28T10:48:03Z</time>
      </trkpt>
      <trkpt lat="45.71159" lon="2.9907">
        <ele>892</ele>
        <time>2025-09-28T10:48:04Z</time>
      </trkpt>
      <trkpt lat="45.71162" lon="2.99067">
        <ele>892</ele>
        <time>2025-09-28T10:48:05Z</time>
      </trkpt>
      <trkpt lat="45.71165" lon="2.99064">
        <ele>892</ele>
        <time>2025-09-28T10:48:06Z</time>
      </trkpt>
      <trkpt lat="45.71168" lon="2.99058">
        <ele>892.2</ele>
        <time>2025-09-28T10:48:07Z</time>
      </trkpt>
      <trkpt lat="45.71171" lon="2.99052">
        <ele>892.2</ele>
        <time>2025-09-28T10:48:08Z</time>
      </trkpt>
      <trkpt lat="45.71172" lon="2.99047">
        <ele>892.4</ele>
        <time>2025-09-28T10:48:09Z</time>
      </trkpt>
      <trkpt lat="45.71173" lon="2.99041">
        <ele>892.4</ele>
        <time>2025-09-28T10:48:10Z</time>
      </trkpt>
      <trkpt lat="45.71175" lon="2.99035">
        <ele>892.6</ele>
        <time>2025-09-28T10:48:11Z</time>
      </trkpt>
      <trkpt lat="45.7118" lon="2.99031">
        <ele>892.6</ele>
        <time>2025-09-28T10:48:12Z</time>
      </trkpt>
      <trkpt lat="45.71184" lon="2.99029">
        <ele>892.8</ele>
        <time>2025-09-28T10:48:13Z</time>
      </trkpt>
      <trkpt lat="45.71189" lon="2.99026">
        <ele>893</ele>
        <time>2025-09-28T10:48:14Z</time>
      </trkpt>
      <trkpt lat="45.71195" lon="2.99022">
        <ele>893</ele>
        <time>2025-09-28T10:48:15Z</time>
      </trkpt>
      <trkpt lat="45.712" lon="2.99019">
        <ele>893.2</ele>
        <time>2025-09-28T10:48:16Z</time>
      </trkpt>
      <trkpt lat="45.71203" lon="2.99017">
        <ele>893.4</ele>
        <time>2025-09-28T10:48:17Z</time>
      </trkpt>
      <trkpt lat="45.71206" lon="2.99015">
        <ele>893.4</ele>
        <time>2025-09-28T10:48:18Z</time>
      </trkpt>
      <trkpt lat="45.71209" lon="2.99013">
        <ele>893.6</ele>
        <time>2025-09-28T10:48:19Z</time>
      </trkpt>
      <trkpt lat="45.71212" lon="2.99011">
        <ele>893.6</ele>
        <time>2025-09-28T10:48:20Z</time>
      </trkpt>
      <trkpt lat="45.71215" lon="2.9901">
        <ele>893.8</ele>
        <time>2025-09-28T10:48:21Z</time>
      </trkpt>
      <trkpt lat="45.71217" lon="2.99009">
        <ele>893.8</ele>
        <time>2025-09-28T10:48:22Z</time>
      </trkpt>
      <trkpt lat="45.71218" lon="2.99008">
        <ele>894</ele>
        <time>2025-09-28T10:48:23Z</time>
      </trkpt>
      <trkpt lat="45.71219" lon="2.99007">
        <ele>894</ele>
        <time>2025-09-28T10:48:24Z</time>
      </trkpt>
      <trkpt lat="45.7122" lon="2.99006">
        <ele>894.2</ele>
        <time>2025-09-28T10:48:25Z</time>
      </trkpt>
      <trkpt lat="45.71221" lon="2.99006">
        <ele>894.4</ele>
        <time>2025-09-28T10:48:26Z</time>
      </trkpt>
      <trkpt lat="45.71221" lon="2.99005">
        <ele>894.6</ele>
        <time>2025-09-28T10:48:27Z</time>
      </trkpt>
      <trkpt lat="45.71222" lon="2.99005">
        <ele>894.6</ele>
        <time>2025-09-28T10:48:28Z</time>
      </trkpt>
      <trkpt lat="45.71222" lon="2.99004">
        <ele>894.8</ele>
        <time>2025-09-28T10:48:29Z</time>
      </trkpt>
      <trkpt lat="45.71223" lon="2.99003">
        <ele>895</ele>
        <time>2025-09-28T10:48:30Z</time>
      </trkpt>
      <trkpt lat="45.71224" lon="2.99003">
        <ele>895.2</ele>
        <time>2025-09-28T10:48:31Z</time>
      </trkpt>
      <trkpt lat="45.71224" lon="2.99003">
        <ele>895.4</ele>
        <time>2025-09-28T10:48:32Z</time>
      </trkpt>
      <trkpt lat="45.71224" lon="2.99002">
        <ele>895.6</ele>
        <time>2025-09-28T10:48:33Z</time>
      </trkpt>
      <trkpt lat="45.71225" lon="2.99003">
        <ele>895.8</ele>
        <time>2025-09-28T10:48:34Z</time>
      </trkpt>
      <trkpt lat="45.71226" lon="2.99003">
        <ele>896</ele>
        <time>2025-09-28T10:48:35Z</time>
      </trkpt>
      <trkpt lat="45.71228" lon="2.99003">
        <ele>896.2</ele>
        <time>2025-09-28T10:48:36Z</time>
      </trkpt>
      <trkpt lat="45.7123" lon="2.99003">
        <ele>896.2</ele>
        <time>2025-09-28T10:48:37Z</time>
      </trkpt>
      <trkpt lat="45.71231" lon="2.99003">
        <ele>896.4</ele>
        <time>2025-09-28T10:48:38Z</time>
      </trkpt>
      <trkpt lat="45.71232" lon="2.99003">
        <ele>896.4</ele>
        <time>2025-09-28T10:48:39Z</time>
      </trkpt>
      <trkpt lat="45.71232" lon="2.99003">
        <ele>896.6</ele>
        <time>2025-09-28T10:48:40Z</time>
      </trkpt>
      <trkpt lat="45.71233" lon="2.99003">
        <ele>896.8</ele>
        <time>2025-09-28T10:48:41Z</time>
      </trkpt>
      <trkpt lat="45.71234" lon="2.99003">
        <ele>896.8</ele>
        <time>2025-09-28T10:48:42Z</time>
      </trkpt>
      <trkpt lat="45.71235" lon="2.99003">
        <ele>897</ele>
        <time>2025-09-28T10:48:43Z</time>
      </trkpt>
      <trkpt lat="45.71236" lon="2.99003">
        <ele>897</ele>
        <time>2025-09-28T10:48:44Z</time>
      </trkpt>
      <trkpt lat="45.71236" lon="2.99003">
        <ele>897.2</ele>
        <time>2025-09-28T10:48:45Z</time>
      </trkpt>
      <trkpt lat="45.71236" lon="2.99003">
        <ele>897.2</ele>
        <time>2025-09-28T10:48:46Z</time>
      </trkpt>
      <trkpt lat="45.71236" lon="2.99003">
        <ele>897.4</ele>
        <time>2025-09-28T10:48:47Z</time>
      </trkpt>
      <trkpt lat="45.71237" lon="2.99003">
        <ele>897.4</ele>
        <time>2025-09-28T10:48:48Z</time>
      </trkpt>
      <trkpt lat="45.71238" lon="2.99003">
        <ele>897.4</ele>
        <time>2025-09-28T10:48:49Z</time>
      </trkpt>
      <trkpt lat="45.71238" lon="2.99003">
        <ele>897.6</ele>
        <time>2025-09-28T10:48:50Z</time>
      </trkpt>
      <trkpt lat="45.71238" lon="2.99003">
        <ele>897.8</ele>
        <time>2025-09-28T10:48:51Z</time>
      </trkpt>
      <trkpt lat="45.71238" lon="2.99003">
        <ele>897.8</ele>
        <time>2025-09-28T10:48:52Z</time>
      </trkpt>
      <trkpt lat="45.71239" lon="2.99003">
        <ele>898</ele>
        <time>2025-09-28T10:48:53Z</time>
      </trkpt>
      <trkpt lat="45.71242" lon="2.99002">
        <ele>898.2</ele>
        <time>2025-09-28T10:48:54Z</time>
      </trkpt>
      <trkpt lat="45.71246" lon="2.99002">
        <ele>898.4</ele>
        <time>2025-09-28T10:48:55Z</time>
      </trkpt>
      <trkpt lat="45.7125" lon="2.99001">
        <ele>898.6</ele>
        <time>2025-09-28T10:48:56Z</time>
      </trkpt>
      <trkpt lat="45.71253" lon="2.99001">
        <ele>898.6</ele>
        <time>2025-09-28T10:48:57Z</time>
      </trkpt>
      <trkpt lat="45.71256" lon="2.99">
        <ele>898.8</ele>
        <time>2025-09-28T10:48:58Z</time>
      </trkpt>
      <trkpt lat="45.71259" lon="2.99">
        <ele>899</ele>
        <time>2025-09-28T10:48:59Z</time>
      </trkpt>
      <trkpt lat="45.71261" lon="2.99">
        <ele>899.2</ele>
        <time>2025-09-28T10:49:00Z</time>
      </trkpt>
      <trkpt lat="45.71263" lon="2.99">
        <ele>899.4</ele>
        <time>2025-09-28T10:49:01Z</time>
      </trkpt>
      <trkpt lat="45.71265" lon="2.99">
        <ele>899.4</ele>
        <time>2025-09-28T10:49:02Z</time>
      </trkpt>
      <trkpt lat="45.71267" lon="2.98999">
        <ele>899.6</ele>
        <time>2025-09-28T10:49:03Z</time>
      </trkpt>
      <trkpt lat="45.71269" lon="2.98999">
        <ele>899.8</ele>
        <time>2025-09-28T10:49:04Z</time>
      </trkpt>
      <trkpt lat="45.71271" lon="2.98999">
        <ele>900</ele>
        <time>2025-09-28T10:49:05Z</time>
      </trkpt>
      <trkpt lat="45.71272" lon="2.98998">
        <ele>900.2</ele>
        <time>2025-09-28T10:49:06Z</time>
      </trkpt>
      <trkpt lat="45.71275" lon="2.98997">
        <ele>900.4</ele>
        <time>2025-09-28T10:49:07Z</time>
      </trkpt>
      <trkpt lat="45.71279" lon="2.98995">
        <ele>900.6</ele>
        <time>2025-09-28T10:49:08Z</time>
      </trkpt>
      <trkpt lat="45.71282" lon="2.98994">
        <ele>901</ele>
        <time>2025-09-28T10:49:09Z</time>
      </trkpt>
      <trkpt lat="45.71284" lon="2.98992">
        <ele>901.2</ele>
        <time>2025-09-28T10:49:10Z</time>
      </trkpt>
      <trkpt lat="45.71287" lon="2.98991">
        <ele>901.4</ele>
        <time>2025-09-28T10:49:11Z</time>
      </trkpt>
      <trkpt lat="45.71289" lon="2.98988">
        <ele>901.8</ele>
        <time>2025-09-28T10:49:12Z</time>
      </trkpt>
      <trkpt lat="45.71292" lon="2.98986">
        <ele>902.2</ele>
        <time>2025-09-28T10:49:13Z</time>
      </trkpt>
      <trkpt lat="45.71294" lon="2.98984">
        <ele>902.4</ele>
        <time>2025-09-28T10:49:14Z</time>
      </trkpt>
      <trkpt lat="45.71295" lon="2.98983">
        <ele>902.8</ele>
        <time>2025-09-28T10:49:15Z</time>
      </trkpt>
      <trkpt lat="45.71296" lon="2.98983">
        <ele>903</ele>
        <time>2025-09-28T10:49:16Z</time>
      </trkpt>
      <trkpt lat="45.71299" lon="2.98981">
        <ele>903.4</ele>
        <time>2025-09-28T10:49:17Z</time>
      </trkpt>
      <trkpt lat="45.71302" lon="2.98981">
        <ele>903.8</ele>
        <time>2025-09-28T10:49:18Z</time>
      </trkpt>
      <trkpt lat="45.71305" lon="2.9898">
        <ele>904</ele>
        <time>2025-09-28T10:49:19Z</time>
      </trkpt>
      <trkpt lat="45.71307" lon="2.98978">
        <ele>904.2</ele>
        <time>2025-09-28T10:49:20Z</time>
      </trkpt>
      <trkpt lat="45.7131" lon="2.98977">
        <ele>904.4</ele>
        <time>2025-09-28T10:49:21Z</time>
      </trkpt>
      <trkpt lat="45.71312" lon="2.98976">
        <ele>904.8</ele>
        <time>2025-09-28T10:49:22Z</time>
      </trkpt>
      <trkpt lat="45.71314" lon="2.98976">
        <ele>905</ele>
        <time>2025-09-28T10:49:23Z</time>
      </trkpt>
      <trkpt lat="45.71316" lon="2.98975">
        <ele>905.2</ele>
        <time>2025-09-28T10:49:24Z</time>
      </trkpt>
      <trkpt lat="45.71318" lon="2.98974">
        <ele>905.4</ele>
        <time>2025-09-28T10:49:25Z</time>
      </trkpt>
      <trkpt lat="45.71321" lon="2.98974">
        <ele>905.6</ele>
        <time>2025-09-28T10:49:26Z</time>
      </trkpt>
      <trkpt lat="45.71324" lon="2.98973">
        <ele>905.8</ele>
        <time>2025-09-28T10:49:27Z</time>
      </trkpt>
      <trkpt lat="45.71325" lon="2.98973">
        <ele>906</ele>
        <time>2025-09-28T10:49:28Z</time>
      </trkpt>
      <trkpt lat="45.71327" lon="2.98973">
        <ele>906.2</ele>
        <time>2025-09-28T10:49:29Z</time>
      </trkpt>
      <trkpt lat="45.71328" lon="2.98973">
        <ele>906.4</ele>
        <time>2025-09-28T10:49:30Z</time>
      </trkpt>
      <trkpt lat="45.7133" lon="2.98972">
        <ele>906.6</ele>
        <time>2025-09-28T10:49:31Z</time>
      </trkpt>
      <trkpt lat="45.71332" lon="2.98972">
        <ele>906.6</ele>
        <time>2025-09-28T10:49:32Z</time>
      </trkpt>
      <trkpt lat="45.71334" lon="2.98971">
        <ele>906.8</ele>
        <time>2025-09-28T10:49:33Z</time>
      </trkpt>
      <trkpt lat="45.71337" lon="2.98969">
        <ele>907</ele>
        <time>2025-09-28T10:49:34Z</time>
      </trkpt>
      <trkpt lat="45.71341" lon="2.98967">
        <ele>907</ele>
        <time>2025-09-28T10:49:35Z</time>
      </trkpt>
      <trkpt lat="45.71343" lon="2.98966">
        <ele>907.2</ele>
        <time>2025-09-28T10:49:36Z</time>
      </trkpt>
      <trkpt lat="45.71345" lon="2.98966">
        <ele>907.2</ele>
        <time>2025-09-28T10:49:37Z</time>
      </trkpt>
      <trkpt lat="45.71347" lon="2.98965">
        <ele>907.2</ele>
        <time>2025-09-28T10:49:38Z</time>
      </trkpt>
      <trkpt lat="45.71349" lon="2.98965">
        <ele>907.2</ele>
        <time>2025-09-28T10:49:39Z</time>
      </trkpt>
      <trkpt lat="45.71352" lon="2.98967">
        <ele>907.2</ele>
        <time>2025-09-28T10:49:40Z</time>
      </trkpt>
      <trkpt lat="45.71356" lon="2.98968">
        <ele>907</ele>
        <time>2025-09-28T10:49:41Z</time>
      </trkpt>
      <trkpt lat="45.71361" lon="2.98968">
        <ele>907</ele>
        <time>2025-09-28T10:49:42Z</time>
      </trkpt>
      <trkpt lat="45.71365" lon="2.98967">
        <ele>907</ele>
        <time>2025-09-28T10:49:43Z</time>
      </trkpt>
      <trkpt lat="45.71369" lon="2.98964">
        <ele>907</ele>
        <time>2025-09-28T10:49:44Z</time>
      </trkpt>
      <trkpt lat="45.71373" lon="2.98961">
        <ele>907</ele>
        <time>2025-09-28T10:49:45Z</time>
      </trkpt>
      <trkpt lat="45.71376" lon="2.98956">
        <ele>907</ele>
        <time>2025-09-28T10:49:46Z</time>
      </trkpt>
      <trkpt lat="45.7138" lon="2.98952">
        <ele>907</ele>
        <time>2025-09-28T10:49:47Z</time>
      </trkpt>
      <trkpt lat="45.71384" lon="2.98948">
        <ele>906.8</ele>
        <time>2025-09-28T10:49:48Z</time>
      </trkpt>
      <trkpt lat="45.71387" lon="2.98944">
        <ele>906.8</ele>
        <time>2025-09-28T10:49:49Z</time>
      </trkpt>
      <trkpt lat="45.71391" lon="2.9894">
        <ele>906.8</ele>
        <time>2025-09-28T10:49:50Z</time>
      </trkpt>
      <trkpt lat="45.71394" lon="2.98935">
        <ele>906.8</ele>
        <time>2025-09-28T10:49:51Z</time>
      </trkpt>
      <trkpt lat="45.71398" lon="2.98931">
        <ele>906.8</ele>
        <time>2025-09-28T10:49:52Z</time>
      </trkpt>
      <trkpt lat="45.71401" lon="2.98927">
        <ele>906.8</ele>
        <time>2025-09-28T10:49:53Z</time>
      </trkpt>
      <trkpt lat="45.71404" lon="2.98924">
        <ele>906.8</ele>
        <time>2025-09-28T10:49:54Z</time>
      </trkpt>
      <trkpt lat="45.71407" lon="2.9892">
        <ele>906.8</ele>
        <time>2025-09-28T10:49:55Z</time>
      </trkpt>
      <trkpt lat="45.7141" lon="2.98917">
        <ele>906.8</ele>
        <time>2025-09-28T10:49:56Z</time>
      </trkpt>
      <trkpt lat="45.71413" lon="2.98912">
        <ele>907</ele>
        <time>2025-09-28T10:49:57Z</time>
      </trkpt>
      <trkpt lat="45.71416" lon="2.98908">
        <ele>907</ele>
        <time>2025-09-28T10:49:58Z</time>
      </trkpt>
      <trkpt lat="45.71419" lon="2.98904">
        <ele>907</ele>
        <time>2025-09-28T10:49:59Z</time>
      </trkpt>
      <trkpt lat="45.71422" lon="2.98899">
        <ele>907</ele>
        <time>2025-09-28T10:50:00Z</time>
      </trkpt>
      <trkpt lat="45.71425" lon="2.98896">
        <ele>907</ele>
        <time>2025-09-28T10:50:01Z</time>
      </trkpt>
      <trkpt lat="45.71429" lon="2.98893">
        <ele>907</ele>
        <time>2025-09-28T10:50:02Z</time>
      </trkpt>
      <trkpt lat="45.71433" lon="2.98891">
        <ele>907</ele>
        <time>2025-09-28T10:50:03Z</time>
      </trkpt>
      <trkpt lat="45.71437" lon="2.98889">
        <ele>906.8</ele>
        <time>2025-09-28T10:50:04Z</time>
      </trkpt>
      <trkpt lat="45.71441" lon="2.98888">
        <ele>906.8</ele>
        <time>2025-09-28T10:50:05Z</time>
      </trkpt>
      <trkpt lat="45.71445" lon="2.98887">
        <ele>906.8</ele>
        <time>2025-09-28T10:50:06Z</time>
      </trkpt>
      <trkpt lat="45.7145" lon="2.98885">
        <ele>906.6</ele>
        <time>2025-09-28T10:50:07Z</time>
      </trkpt>
      <trkpt lat="45.71453" lon="2.98884">
        <ele>906.6</ele>
        <time>2025-09-28T10:50:08Z</time>
      </trkpt>
      <trkpt lat="45.71456" lon="2.98882">
        <ele>906.6</ele>
        <time>2025-09-28T10:50:09Z</time>
      </trkpt>
      <trkpt lat="45.71458" lon="2.98879">
        <ele>906.8</ele>
        <time>2025-09-28T10:50:10Z</time>
      </trkpt>
      <trkpt lat="45.71461" lon="2.98877">
        <ele>906.8</ele>
        <time>2025-09-28T10:50:11Z</time>
      </trkpt>
      <trkpt lat="45.71463" lon="2.98874">
        <ele>906.8</ele>
        <time>2025-09-28T10:50:12Z</time>
      </trkpt>
      <trkpt lat="45.71465" lon="2.98872">
        <ele>907</ele>
        <time>2025-09-28T10:50:13Z</time>
      </trkpt>
      <trkpt lat="45.71467" lon="2.9887">
        <ele>907</ele>
        <time>2025-09-28T10:50:14Z</time>
      </trkpt>
      <trkpt lat="45.71469" lon="2.98867">
        <ele>907.2</ele>
        <time>2025-09-28T10:50:15Z</time>
      </trkpt>
      <trkpt lat="45.71471" lon="2.98865">
        <ele>907.2</ele>
        <time>2025-09-28T10:50:16Z</time>
      </trkpt>
      <trkpt lat="45.71473" lon="2.98862">
        <ele>907.2</ele>
        <time>2025-09-28T10:50:17Z</time>
      </trkpt>
      <trkpt lat="45.71477" lon="2.98858">
        <ele>907.4</ele>
        <time>2025-09-28T10:50:18Z</time>
      </trkpt>
      <trkpt lat="45.7148" lon="2.98854">
        <ele>907.4</ele>
        <time>2025-09-28T10:50:19Z</time>
      </trkpt>
      <trkpt lat="45.71483" lon="2.98849">
        <ele>907.4</ele>
        <time>2025-09-28T10:50:20Z</time>
      </trkpt>
      <trkpt lat="45.71486" lon="2.98844">
        <ele>907.6</ele>
        <time>2025-09-28T10:50:21Z</time>
      </trkpt>
      <trkpt lat="45.71488" lon="2.98838">
        <ele>907.6</ele>
        <time>2025-09-28T10:50:22Z</time>
      </trkpt>
      <trkpt lat="45.71491" lon="2.98833">
        <ele>907.8</ele>
        <time>2025-09-28T10:50:23Z</time>
      </trkpt>
      <trkpt lat="45.71493" lon="2.98829">
        <ele>908</ele>
        <time>2025-09-28T10:50:24Z</time>
      </trkpt>
      <trkpt lat="45.71496" lon="2.98824">
        <ele>908.4</ele>
        <time>2025-09-28T10:50:25Z</time>
      </trkpt>
      <trkpt lat="45.71499" lon="2.9882">
        <ele>908.6</ele>
        <time>2025-09-28T10:50:26Z</time>
      </trkpt>
      <trkpt lat="45.71501" lon="2.98816">
        <ele>908.6</ele>
        <time>2025-09-28T10:50:27Z</time>
      </trkpt>
      <trkpt lat="45.71504" lon="2.98811">
        <ele>908.8</ele>
        <time>2025-09-28T10:50:28Z</time>
      </trkpt>
      <trkpt lat="45.71506" lon="2.98806">
        <ele>908.8</ele>
        <time>2025-09-28T10:50:29Z</time>
      </trkpt>
      <trkpt lat="45.7151" lon="2.98802">
        <ele>908.8</ele>
        <time>2025-09-28T10:50:30Z</time>
      </trkpt>
      <trkpt lat="45.71513" lon="2.98797">
        <ele>909</ele>
        <time>2025-09-28T10:50:31Z</time>
      </trkpt>
      <trkpt lat="45.71517" lon="2.98792">
        <ele>908.8</ele>
        <time>2025-09-28T10:50:32Z</time>
      </trkpt>
      <trkpt lat="45.71521" lon="2.98787">
        <ele>908.8</ele>
        <time>2025-09-28T10:50:33Z</time>
      </trkpt>
      <trkpt lat="45.71526" lon="2.98781">
        <ele>908.6</ele>
        <time>2025-09-28T10:50:34Z</time>
      </trkpt>
      <trkpt lat="45.7153" lon="2.98774">
        <ele>908.6</ele>
        <time>2025-09-28T10:50:35Z</time>
      </trkpt>
      <trkpt lat="45.71535" lon="2.98765">
        <ele>908.6</ele>
        <time>2025-09-28T10:50:36Z</time>
      </trkpt>
      <trkpt lat="45.71539" lon="2.98756">
        <ele>908.6</ele>
        <time>2025-09-28T10:50:37Z</time>
      </trkpt>
      <trkpt lat="45.71541" lon="2.98748">
        <ele>908.6</ele>
        <time>2025-09-28T10:50:38Z</time>
      </trkpt>
      <trkpt lat="45.71543" lon="2.98741">
        <ele>908.6</ele>
        <time>2025-09-28T10:50:39Z</time>
      </trkpt>
      <trkpt lat="45.71545" lon="2.98733">
        <ele>908.6</ele>
        <time>2025-09-28T10:50:40Z</time>
      </trkpt>
      <trkpt lat="45.71547" lon="2.98726">
        <ele>908.6</ele>
        <time>2025-09-28T10:50:41Z</time>
      </trkpt>
      <trkpt lat="45.7155" lon="2.98718">
        <ele>908.6</ele>
        <time>2025-09-28T10:50:42Z</time>
      </trkpt>
      <trkpt lat="45.71553" lon="2.98711">
        <ele>908.6</ele>
        <time>2025-09-28T10:50:43Z</time>
      </trkpt>
      <trkpt lat="45.71556" lon="2.98704">
        <ele>908.8</ele>
        <time>2025-09-28T10:50:44Z</time>
      </trkpt>
      <trkpt lat="45.71559" lon="2.98697">
        <ele>908.8</ele>
        <time>2025-09-28T10:50:45Z</time>
      </trkpt>
      <trkpt lat="45.7156" lon="2.98691">
        <ele>908.8</ele>
        <time>2025-09-28T10:50:46Z</time>
      </trkpt>
      <trkpt lat="45.71562" lon="2.98685">
        <ele>909</ele>
        <time>2025-09-28T10:50:47Z</time>
      </trkpt>
      <trkpt lat="45.71564" lon="2.9868">
        <ele>909.2</ele>
        <time>2025-09-28T10:50:48Z</time>
      </trkpt>
      <trkpt lat="45.71566" lon="2.98674">
        <ele>909.4</ele>
        <time>2025-09-28T10:50:49Z</time>
      </trkpt>
      <trkpt lat="45.71569" lon="2.98669">
        <ele>909.4</ele>
        <time>2025-09-28T10:50:50Z</time>
      </trkpt>
      <trkpt lat="45.71572" lon="2.98664">
        <ele>909.6</ele>
        <time>2025-09-28T10:50:51Z</time>
      </trkpt>
      <trkpt lat="45.71574" lon="2.98659">
        <ele>909.6</ele>
        <time>2025-09-28T10:50:52Z</time>
      </trkpt>
      <trkpt lat="45.71577" lon="2.98654">
        <ele>909.8</ele>
        <time>2025-09-28T10:50:53Z</time>
      </trkpt>
      <trkpt lat="45.71579" lon="2.98649">
        <ele>909.8</ele>
        <time>2025-09-28T10:50:54Z</time>
      </trkpt>
      <trkpt lat="45.71581" lon="2.98643">
        <ele>910</ele>
        <time>2025-09-28T10:50:55Z</time>
      </trkpt>
      <trkpt lat="45.71584" lon="2.98638">
        <ele>910.2</ele>
        <time>2025-09-28T10:50:56Z</time>
      </trkpt>
      <trkpt lat="45.71586" lon="2.98633">
        <ele>910.2</ele>
        <time>2025-09-28T10:50:57Z</time>
      </trkpt>
      <trkpt lat="45.71589" lon="2.98627">
        <ele>910.4</ele>
        <time>2025-09-28T10:50:58Z</time>
      </trkpt>
      <trkpt lat="45.71592" lon="2.98622">
        <ele>910.4</ele>
        <time>2025-09-28T10:50:59Z</time>
      </trkpt>
      <trkpt lat="45.71595" lon="2.98617">
        <ele>910.4</ele>
        <time>2025-09-28T10:51:00Z</time>
      </trkpt>
      <trkpt lat="45.71598" lon="2.98613">
        <ele>910.6</ele>
        <time>2025-09-28T10:51:01Z</time>
      </trkpt>
      <trkpt lat="45.71601" lon="2.98609">
        <ele>910.6</ele>
        <time>2025-09-28T10:51:02Z</time>
      </trkpt>
      <trkpt lat="45.71605" lon="2.98606">
        <ele>910.8</ele>
        <time>2025-09-28T10:51:03Z</time>
      </trkpt>
      <trkpt lat="45.71609" lon="2.98603">
        <ele>910.8</ele>
        <time>2025-09-28T10:51:04Z</time>
      </trkpt>
      <trkpt lat="45.71612" lon="2.98599">
        <ele>911</ele>
        <time>2025-09-28T10:51:05Z</time>
      </trkpt>
      <trkpt lat="45.71615" lon="2.98596">
        <ele>911</ele>
        <time>2025-09-28T10:51:06Z</time>
      </trkpt>
      <trkpt lat="45.71618" lon="2.98593">
        <ele>911.2</ele>
        <time>2025-09-28T10:51:07Z</time>
      </trkpt>
      <trkpt lat="45.71621" lon="2.9859">
        <ele>911.4</ele>
        <time>2025-09-28T10:51:08Z</time>
      </trkpt>
      <trkpt lat="45.71624" lon="2.98588">
        <ele>911.4</ele>
        <time>2025-09-28T10:51:09Z</time>
      </trkpt>
      <trkpt lat="45.71627" lon="2.98586">
        <ele>911.6</ele>
        <time>2025-09-28T10:51:10Z</time>
      </trkpt>
      <trkpt lat="45.71629" lon="2.98584">
        <ele>911.8</ele>
        <time>2025-09-28T10:51:11Z</time>
      </trkpt>
      <trkpt lat="45.71631" lon="2.98582">
        <ele>912</ele>
        <time>2025-09-28T10:51:12Z</time>
      </trkpt>
      <trkpt lat="45.71633" lon="2.98581">
        <ele>912.2</ele>
        <time>2025-09-28T10:51:13Z</time>
      </trkpt>
      <trkpt lat="45.71636" lon="2.98579">
        <ele>912.2</ele>
        <time>2025-09-28T10:51:14Z</time>
      </trkpt>
      <trkpt lat="45.71638" lon="2.98577">
        <ele>912.4</ele>
        <time>2025-09-28T10:51:15Z</time>
      </trkpt>
      <trkpt lat="45.71641" lon="2.98575">
        <ele>912.6</ele>
        <time>2025-09-28T10:51:16Z</time>
      </trkpt>
      <trkpt lat="45.71644" lon="2.98574">
        <ele>912.6</ele>
        <time>2025-09-28T10:51:17Z</time>
      </trkpt>
      <trkpt lat="45.71647" lon="2.98573">
        <ele>912.8</ele>
        <time>2025-09-28T10:51:18Z</time>
      </trkpt>
      <trkpt lat="45.71648" lon="2.98572">
        <ele>912.8</ele>
        <time>2025-09-28T10:51:19Z</time>
      </trkpt>
      <trkpt lat="45.7165" lon="2.98571">
        <ele>912.8</ele>
        <time>2025-09-28T10:51:20Z</time>
      </trkpt>
      <trkpt lat="45.7165" lon="2.98571">
        <ele>913</ele>
        <time>2025-09-28T10:51:21Z</time>
      </trkpt>
      <trkpt lat="45.71651" lon="2.98571">
        <ele>913</ele>
        <time>2025-09-28T10:51:22Z</time>
      </trkpt>
      <trkpt lat="45.71652" lon="2.9857">
        <ele>913</ele>
        <time>2025-09-28T10:51:24Z</time>
      </trkpt>
      <trkpt lat="45.71653" lon="2.98568">
        <ele>913.2</ele>
        <time>2025-09-28T10:51:25Z</time>
      </trkpt>
      <trkpt lat="45.71655" lon="2.98567">
        <ele>913.2</ele>
        <time>2025-09-28T10:51:26Z</time>
      </trkpt>
      <trkpt lat="45.71657" lon="2.98566">
        <ele>913.4</ele>
        <time>2025-09-28T10:51:27Z</time>
      </trkpt>
      <trkpt lat="45.7166" lon="2.98563">
        <ele>913.4</ele>
        <time>2025-09-28T10:51:28Z</time>
      </trkpt>
      <trkpt lat="45.71663" lon="2.98561">
        <ele>913.6</ele>
        <time>2025-09-28T10:51:29Z</time>
      </trkpt>
      <trkpt lat="45.71666" lon="2.98559">
        <ele>913.6</ele>
        <time>2025-09-28T10:51:30Z</time>
      </trkpt>
      <trkpt lat="45.71668" lon="2.98557">
        <ele>913.6</ele>
        <time>2025-09-28T10:51:31Z</time>
      </trkpt>
      <trkpt lat="45.71672" lon="2.98555">
        <ele>913.6</ele>
        <time>2025-09-28T10:51:32Z</time>
      </trkpt>
      <trkpt lat="45.71675" lon="2.98553">
        <ele>913.8</ele>
        <time>2025-09-28T10:51:33Z</time>
      </trkpt>
      <trkpt lat="45.71678" lon="2.98552">
        <ele>913.8</ele>
        <time>2025-09-28T10:51:34Z</time>
      </trkpt>
      <trkpt lat="45.71679" lon="2.98552">
        <ele>914</ele>
        <time>2025-09-28T10:51:35Z</time>
      </trkpt>
      <trkpt lat="45.71681" lon="2.98553">
        <ele>914</ele>
        <time>2025-09-28T10:51:36Z</time>
      </trkpt>
      <trkpt lat="45.71685" lon="2.98556">
        <ele>914</ele>
        <time>2025-09-28T10:51:37Z</time>
      </trkpt>
      <trkpt lat="45.71688" lon="2.9856">
        <ele>914</ele>
        <time>2025-09-28T10:51:38Z</time>
      </trkpt>
      <trkpt lat="45.7169" lon="2.98564">
        <ele>913.8</ele>
        <time>2025-09-28T10:51:39Z</time>
      </trkpt>
      <trkpt lat="45.71693" lon="2.98569">
        <ele>913.8</ele>
        <time>2025-09-28T10:51:40Z</time>
      </trkpt>
      <trkpt lat="45.71695" lon="2.98574">
        <ele>913.6</ele>
        <time>2025-09-28T10:51:41Z</time>
      </trkpt>
      <trkpt lat="45.71696" lon="2.98581">
        <ele>913.4</ele>
        <time>2025-09-28T10:51:42Z</time>
      </trkpt>
      <trkpt lat="45.71698" lon="2.98588">
        <ele>913</ele>
        <time>2025-09-28T10:51:43Z</time>
      </trkpt>
      <trkpt lat="45.717" lon="2.98596">
        <ele>912.8</ele>
        <time>2025-09-28T10:51:44Z</time>
      </trkpt>
      <trkpt lat="45.71701" lon="2.98605">
        <ele>912.4</ele>
        <time>2025-09-28T10:51:45Z</time>
      </trkpt>
      <trkpt lat="45.71704" lon="2.98613">
        <ele>912.2</ele>
        <time>2025-09-28T10:51:46Z</time>
      </trkpt>
      <trkpt lat="45.71706" lon="2.98622">
        <ele>911.8</ele>
        <time>2025-09-28T10:51:47Z</time>
      </trkpt>
      <trkpt lat="45.71709" lon="2.9863">
        <ele>911.4</ele>
        <time>2025-09-28T10:51:48Z</time>
      </trkpt>
      <trkpt lat="45.71712" lon="2.98639">
        <ele>911.2</ele>
        <time>2025-09-28T10:51:49Z</time>
      </trkpt>
      <trkpt lat="45.71712" lon="2.9865">
        <ele>910.6</ele>
        <time>2025-09-28T10:51:50Z</time>
      </trkpt>
      <trkpt lat="45.71712" lon="2.98662">
        <ele>910.2</ele>
        <time>2025-09-28T10:51:51Z</time>
      </trkpt>
      <trkpt lat="45.71714" lon="2.98673">
        <ele>909.8</ele>
        <time>2025-09-28T10:51:52Z</time>
      </trkpt>
      <trkpt lat="45.71716" lon="2.98684">
        <ele>909.4</ele>
        <time>2025-09-28T10:51:53Z</time>
      </trkpt>
      <trkpt lat="45.71718" lon="2.98696">
        <ele>908.8</ele>
        <time>2025-09-28T10:51:54Z</time>
      </trkpt>
      <trkpt lat="45.7172" lon="2.98707">
        <ele>908.4</ele>
        <time>2025-09-28T10:51:55Z</time>
      </trkpt>
      <trkpt lat="45.71721" lon="2.98718">
        <ele>908</ele>
        <time>2025-09-28T10:51:56Z</time>
      </trkpt>
      <trkpt lat="45.71722" lon="2.98729">
        <ele>907.4</ele>
        <time>2025-09-28T10:51:57Z</time>
      </trkpt>
      <trkpt lat="45.71722" lon="2.98742">
        <ele>907</ele>
        <time>2025-09-28T10:51:58Z</time>
      </trkpt>
      <trkpt lat="45.71721" lon="2.98755">
        <ele>906.4</ele>
        <time>2025-09-28T10:51:59Z</time>
      </trkpt>
      <trkpt lat="45.71722" lon="2.98768">
        <ele>906</ele>
        <time>2025-09-28T10:52:00Z</time>
      </trkpt>
      <trkpt lat="45.71722" lon="2.9878">
        <ele>905.6</ele>
        <time>2025-09-28T10:52:01Z</time>
      </trkpt>
      <trkpt lat="45.71722" lon="2.98792">
        <ele>905.2</ele>
        <time>2025-09-28T10:52:02Z</time>
      </trkpt>
      <trkpt lat="45.71722" lon="2.98804">
        <ele>904.8</ele>
        <time>2025-09-28T10:52:03Z</time>
      </trkpt>
      <trkpt lat="45.71722" lon="2.98815">
        <ele>904.4</ele>
        <time>2025-09-28T10:52:04Z</time>
      </trkpt>
      <trkpt lat="45.71722" lon="2.98826">
        <ele>904</ele>
        <time>2025-09-28T10:52:05Z</time>
      </trkpt>
      <trkpt lat="45.71723" lon="2.98837">
        <ele>903.6</ele>
        <time>2025-09-28T10:52:06Z</time>
      </trkpt>
      <trkpt lat="45.71724" lon="2.98848">
        <ele>903.2</ele>
        <time>2025-09-28T10:52:07Z</time>
      </trkpt>
      <trkpt lat="45.71724" lon="2.98859">
        <ele>902.8</ele>
        <time>2025-09-28T10:52:08Z</time>
      </trkpt>
      <trkpt lat="45.71725" lon="2.98868">
        <ele>902.4</ele>
        <time>2025-09-28T10:52:09Z</time>
      </trkpt>
      <trkpt lat="45.71726" lon="2.98878">
        <ele>901.8</ele>
        <time>2025-09-28T10:52:10Z</time>
      </trkpt>
      <trkpt lat="45.71727" lon="2.98888">
        <ele>901.4</ele>
        <time>2025-09-28T10:52:11Z</time>
      </trkpt>
      <trkpt lat="45.71729" lon="2.98897">
        <ele>901</ele>
        <time>2025-09-28T10:52:12Z</time>
      </trkpt>
      <trkpt lat="45.7173" lon="2.98908">
        <ele>900.6</ele>
        <time>2025-09-28T10:52:13Z</time>
      </trkpt>
      <trkpt lat="45.71731" lon="2.98917">
        <ele>900</ele>
        <time>2025-09-28T10:52:14Z</time>
      </trkpt>
      <trkpt lat="45.71733" lon="2.98926">
        <ele>899.6</ele>
        <time>2025-09-28T10:52:15Z</time>
      </trkpt>
      <trkpt lat="45.71735" lon="2.98935">
        <ele>899.4</ele>
        <time>2025-09-28T10:52:16Z</time>
      </trkpt>
      <trkpt lat="45.71738" lon="2.98945">
        <ele>899</ele>
        <time>2025-09-28T10:52:17Z</time>
      </trkpt>
      <trkpt lat="45.71741" lon="2.98956">
        <ele>898.4</ele>
        <time>2025-09-28T10:52:18Z</time>
      </trkpt>
      <trkpt lat="45.71744" lon="2.98969">
        <ele>898</ele>
        <time>2025-09-28T10:52:19Z</time>
      </trkpt>
      <trkpt lat="45.71746" lon="2.98984">
        <ele>897.6</ele>
        <time>2025-09-28T10:52:20Z</time>
      </trkpt>
      <trkpt lat="45.71749" lon="2.98998">
        <ele>897.2</ele>
        <time>2025-09-28T10:52:21Z</time>
      </trkpt>
      <trkpt lat="45.71753" lon="2.99011">
        <ele>896.8</ele>
        <time>2025-09-28T10:52:22Z</time>
      </trkpt>
      <trkpt lat="45.71756" lon="2.99023">
        <ele>896.4</ele>
        <time>2025-09-28T10:52:23Z</time>
      </trkpt>
      <trkpt lat="45.7176" lon="2.99034">
        <ele>896</ele>
        <time>2025-09-28T10:52:24Z</time>
      </trkpt>
      <trkpt lat="45.71762" lon="2.99044">
        <ele>895.6</ele>
        <time>2025-09-28T10:52:25Z</time>
      </trkpt>
      <trkpt lat="45.71765" lon="2.99055">
        <ele>895</ele>
        <time>2025-09-28T10:52:26Z</time>
      </trkpt>
      <trkpt lat="45.71769" lon="2.99065">
        <ele>894.4</ele>
        <time>2025-09-28T10:52:27Z</time>
      </trkpt>
      <trkpt lat="45.71772" lon="2.99074">
        <ele>893.8</ele>
        <time>2025-09-28T10:52:28Z</time>
      </trkpt>
      <trkpt lat="45.71775" lon="2.99083">
        <ele>893</ele>
        <time>2025-09-28T10:52:29Z</time>
      </trkpt>
      <trkpt lat="45.7178" lon="2.99094">
        <ele>892</ele>
        <time>2025-09-28T10:52:30Z</time>
      </trkpt>
      <trkpt lat="45.71787" lon="2.99107">
        <ele>891.2</ele>
        <time>2025-09-28T10:52:31Z</time>
      </trkpt>
      <trkpt lat="45.71792" lon="2.99121">
        <ele>890.2</ele>
        <time>2025-09-28T10:52:32Z</time>
      </trkpt>
      <trkpt lat="45.71796" lon="2.99134">
        <ele>889.2</ele>
        <time>2025-09-28T10:52:33Z</time>
      </trkpt>
      <trkpt lat="45.718" lon="2.99148">
        <ele>888.2</ele>
        <time>2025-09-28T10:52:34Z</time>
      </trkpt>
      <trkpt lat="45.71805" lon="2.99162">
        <ele>887.4</ele>
        <time>2025-09-28T10:52:35Z</time>
      </trkpt>
      <trkpt lat="45.7181" lon="2.99175">
        <ele>886.8</ele>
        <time>2025-09-28T10:52:36Z</time>
      </trkpt>
      <trkpt lat="45.71814" lon="2.99188">
        <ele>886.2</ele>
        <time>2025-09-28T10:52:37Z</time>
      </trkpt>
      <trkpt lat="45.71819" lon="2.99201">
        <ele>885.6</ele>
        <time>2025-09-28T10:52:38Z</time>
      </trkpt>
      <trkpt lat="45.71823" lon="2.99213">
        <ele>885</ele>
        <time>2025-09-28T10:52:39Z</time>
      </trkpt>
      <trkpt lat="45.71826" lon="2.99225">
        <ele>884.4</ele>
        <time>2025-09-28T10:52:40Z</time>
      </trkpt>
      <trkpt lat="45.71828" lon="2.99237">
        <ele>883.6</ele>
        <time>2025-09-28T10:52:41Z</time>
      </trkpt>
      <trkpt lat="45.7183" lon="2.99249">
        <ele>883</ele>
        <time>2025-09-28T10:52:42Z</time>
      </trkpt>
      <trkpt lat="45.7183" lon="2.99261">
        <ele>882.2</ele>
        <time>2025-09-28T10:52:43Z</time>
      </trkpt>
      <trkpt lat="45.7183" lon="2.99273">
        <ele>881.6</ele>
        <time>2025-09-28T10:52:44Z</time>
      </trkpt>
      <trkpt lat="45.71829" lon="2.99283">
        <ele>881</ele>
        <time>2025-09-28T10:52:45Z</time>
      </trkpt>
      <trkpt lat="45.71827" lon="2.9929">
        <ele>880.6</ele>
        <time>2025-09-28T10:52:46Z</time>
      </trkpt>
      <trkpt lat="45.71826" lon="2.99297">
        <ele>880.2</ele>
        <time>2025-09-28T10:52:47Z</time>
      </trkpt>
      <trkpt lat="45.71824" lon="2.99303">
        <ele>880</ele>
        <time>2025-09-28T10:52:48Z</time>
      </trkpt>
      <trkpt lat="45.71822" lon="2.99309">
        <ele>879.6</ele>
        <time>2025-09-28T10:52:49Z</time>
      </trkpt>
      <trkpt lat="45.71821" lon="2.99316">
        <ele>879</ele>
        <time>2025-09-28T10:52:50Z</time>
      </trkpt>
      <trkpt lat="45.71819" lon="2.99323">
        <ele>878.6</ele>
        <time>2025-09-28T10:52:51Z</time>
      </trkpt>
      <trkpt lat="45.71817" lon="2.99331">
        <ele>878.2</ele>
        <time>2025-09-28T10:52:52Z</time>
      </trkpt>
      <trkpt lat="45.71816" lon="2.99339">
        <ele>877.8</ele>
        <time>2025-09-28T10:52:53Z</time>
      </trkpt>
      <trkpt lat="45.71813" lon="2.99348">
        <ele>877.6</ele>
        <time>2025-09-28T10:52:54Z</time>
      </trkpt>
      <trkpt lat="45.71809" lon="2.99359">
        <ele>877.2</ele>
        <time>2025-09-28T10:52:55Z</time>
      </trkpt>
      <trkpt lat="45.71805" lon="2.99371">
        <ele>877</ele>
        <time>2025-09-28T10:52:56Z</time>
      </trkpt>
      <trkpt lat="45.71802" lon="2.99383">
        <ele>876.6</ele>
        <time>2025-09-28T10:52:57Z</time>
      </trkpt>
      <trkpt lat="45.718" lon="2.99396">
        <ele>876.4</ele>
        <time>2025-09-28T10:52:58Z</time>
      </trkpt>
      <trkpt lat="45.71798" lon="2.99407">
        <ele>876.2</ele>
        <time>2025-09-28T10:52:59Z</time>
      </trkpt>
      <trkpt lat="45.71796" lon="2.99418">
        <ele>876.2</ele>
        <time>2025-09-28T10:53:00Z</time>
      </trkpt>
      <trkpt lat="45.71794" lon="2.99428">
        <ele>876</ele>
        <time>2025-09-28T10:53:01Z</time>
      </trkpt>
      <trkpt lat="45.71792" lon="2.99438">
        <ele>875.8</ele>
        <time>2025-09-28T10:53:02Z</time>
      </trkpt>
      <trkpt lat="45.71789" lon="2.99447">
        <ele>875.6</ele>
        <time>2025-09-28T10:53:03Z</time>
      </trkpt>
      <trkpt lat="45.71785" lon="2.99458">
        <ele>875.6</ele>
        <time>2025-09-28T10:53:04Z</time>
      </trkpt>
      <trkpt lat="45.71782" lon="2.99469">
        <ele>875.4</ele>
        <time>2025-09-28T10:53:05Z</time>
      </trkpt>
      <trkpt lat="45.71779" lon="2.99478">
        <ele>875.4</ele>
        <time>2025-09-28T10:53:06Z</time>
      </trkpt>
      <trkpt lat="45.71776" lon="2.99487">
        <ele>875.4</ele>
        <time>2025-09-28T10:53:07Z</time>
      </trkpt>
      <trkpt lat="45.71773" lon="2.99496">
        <ele>875.2</ele>
        <time>2025-09-28T10:53:08Z</time>
      </trkpt>
      <trkpt lat="45.71769" lon="2.99505">
        <ele>875.2</ele>
        <time>2025-09-28T10:53:09Z</time>
      </trkpt>
      <trkpt lat="45.71766" lon="2.99513">
        <ele>875.2</ele>
        <time>2025-09-28T10:53:10Z</time>
      </trkpt>
      <trkpt lat="45.71763" lon="2.99521">
        <ele>875</ele>
        <time>2025-09-28T10:53:11Z</time>
      </trkpt>
      <trkpt lat="45.71761" lon="2.99528">
        <ele>875.2</ele>
        <time>2025-09-28T10:53:12Z</time>
      </trkpt>
      <trkpt lat="45.71759" lon="2.99535">
        <ele>875.2</ele>
        <time>2025-09-28T10:53:13Z</time>
      </trkpt>
      <trkpt lat="45.71756" lon="2.99542">
        <ele>875.2</ele>
        <time>2025-09-28T10:53:14Z</time>
      </trkpt>
      <trkpt lat="45.71754" lon="2.99549">
        <ele>875.4</ele>
        <time>2025-09-28T10:53:15Z</time>
      </trkpt>
      <trkpt lat="45.71751" lon="2.99556">
        <ele>875.4</ele>
        <time>2025-09-28T10:53:16Z</time>
      </trkpt>
      <trkpt lat="45.71748" lon="2.99564">
        <ele>875.6</ele>
        <time>2025-09-28T10:53:17Z</time>
      </trkpt>
      <trkpt lat="45.71747" lon="2.99573">
        <ele>875.6</ele>
        <time>2025-09-28T10:53:18Z</time>
      </trkpt>
      <trkpt lat="45.71745" lon="2.99581">
        <ele>875.8</ele>
        <time>2025-09-28T10:53:19Z</time>
      </trkpt>
      <trkpt lat="45.71743" lon="2.9959">
        <ele>876</ele>
        <time>2025-09-28T10:53:20Z</time>
      </trkpt>
      <trkpt lat="45.71741" lon="2.99599">
        <ele>876</ele>
        <time>2025-09-28T10:53:21Z</time>
      </trkpt>
      <trkpt lat="45.71739" lon="2.99606">
        <ele>876.2</ele>
        <time>2025-09-28T10:53:22Z</time>
      </trkpt>
      <trkpt lat="45.71739" lon="2.99612">
        <ele>876.2</ele>
        <time>2025-09-28T10:53:23Z</time>
      </trkpt>
      <trkpt lat="45.71738" lon="2.99619">
        <ele>876.4</ele>
        <time>2025-09-28T10:53:24Z</time>
      </trkpt>
      <trkpt lat="45.71738" lon="2.99626">
        <ele>876.4</ele>
        <time>2025-09-28T10:53:25Z</time>
      </trkpt>
      <trkpt lat="45.71737" lon="2.99632">
        <ele>876.6</ele>
        <time>2025-09-28T10:53:26Z</time>
      </trkpt>
      <trkpt lat="45.71737" lon="2.99638">
        <ele>876.8</ele>
        <time>2025-09-28T10:53:27Z</time>
      </trkpt>
      <trkpt lat="45.71737" lon="2.99643">
        <ele>877</ele>
        <time>2025-09-28T10:53:28Z</time>
      </trkpt>
      <trkpt lat="45.71737" lon="2.99648">
        <ele>877</ele>
        <time>2025-09-28T10:53:29Z</time>
      </trkpt>
      <trkpt lat="45.71737" lon="2.99655">
        <ele>877.2</ele>
        <time>2025-09-28T10:53:30Z</time>
      </trkpt>
      <trkpt lat="45.71735" lon="2.99663">
        <ele>877.4</ele>
        <time>2025-09-28T10:53:31Z</time>
      </trkpt>
      <trkpt lat="45.71734" lon="2.99671">
        <ele>877.6</ele>
        <time>2025-09-28T10:53:32Z</time>
      </trkpt>
      <trkpt lat="45.71732" lon="2.99678">
        <ele>877.8</ele>
        <time>2025-09-28T10:53:33Z</time>
      </trkpt>
      <trkpt lat="45.71731" lon="2.99683">
        <ele>878</ele>
        <time>2025-09-28T10:53:34Z</time>
      </trkpt>
      <trkpt lat="45.71731" lon="2.99689">
        <ele>878.4</ele>
        <time>2025-09-28T10:53:35Z</time>
      </trkpt>
      <trkpt lat="45.7173" lon="2.99695">
        <ele>878.6</ele>
        <time>2025-09-28T10:53:36Z</time>
      </trkpt>
      <trkpt lat="45.71729" lon="2.99703">
        <ele>878.8</ele>
        <time>2025-09-28T10:53:37Z</time>
      </trkpt>
      <trkpt lat="45.71727" lon="2.99711">
        <ele>879</ele>
        <time>2025-09-28T10:53:38Z</time>
      </trkpt>
      <trkpt lat="45.71726" lon="2.9972">
        <ele>879.2</ele>
        <time>2025-09-28T10:53:39Z</time>
      </trkpt>
      <trkpt lat="45.71724" lon="2.99727">
        <ele>879.6</ele>
        <time>2025-09-28T10:53:40Z</time>
      </trkpt>
      <trkpt lat="45.71724" lon="2.99733">
        <ele>879.8</ele>
        <time>2025-09-28T10:53:41Z</time>
      </trkpt>
      <trkpt lat="45.71722" lon="2.99739">
        <ele>880</ele>
        <time>2025-09-28T10:53:42Z</time>
      </trkpt>
      <trkpt lat="45.71722" lon="2.99745">
        <ele>880.2</ele>
        <time>2025-09-28T10:53:43Z</time>
      </trkpt>
      <trkpt lat="45.71722" lon="2.99751">
        <ele>880.4</ele>
        <time>2025-09-28T10:53:44Z</time>
      </trkpt>
      <trkpt lat="45.71722" lon="2.99757">
        <ele>880.6</ele>
        <time>2025-09-28T10:53:45Z</time>
      </trkpt>
      <trkpt lat="45.71722" lon="2.99762">
        <ele>880.8</ele>
        <time>2025-09-28T10:53:46Z</time>
      </trkpt>
      <trkpt lat="45.71721" lon="2.99767">
        <ele>881</ele>
        <time>2025-09-28T10:53:47Z</time>
      </trkpt>
      <trkpt lat="45.7172" lon="2.99772">
        <ele>881.2</ele>
        <time>2025-09-28T10:53:48Z</time>
      </trkpt>
      <trkpt lat="45.71719" lon="2.99777">
        <ele>881.4</ele>
        <time>2025-09-28T10:53:49Z</time>
      </trkpt>
      <trkpt lat="45.71717" lon="2.99782">
        <ele>881.6</ele>
        <time>2025-09-28T10:53:50Z</time>
      </trkpt>
      <trkpt lat="45.71716" lon="2.99786">
        <ele>881.6</ele>
        <time>2025-09-28T10:53:51Z</time>
      </trkpt>
      <trkpt lat="45.71714" lon="2.99791">
        <ele>881.8</ele>
        <time>2025-09-28T10:53:52Z</time>
      </trkpt>
      <trkpt lat="45.71712" lon="2.99795">
        <ele>881.8</ele>
        <time>2025-09-28T10:53:53Z</time>
      </trkpt>
      <trkpt lat="45.71711" lon="2.99799">
        <ele>882</ele>
        <time>2025-09-28T10:53:54Z</time>
      </trkpt>
      <trkpt lat="45.71709" lon="2.99804">
        <ele>882.2</ele>
        <time>2025-09-28T10:53:55Z</time>
      </trkpt>
      <trkpt lat="45.71707" lon="2.99809">
        <ele>882.2</ele>
        <time>2025-09-28T10:53:56Z</time>
      </trkpt>
      <trkpt lat="45.71705" lon="2.99813">
        <ele>882.4</ele>
        <time>2025-09-28T10:53:57Z</time>
      </trkpt>
      <trkpt lat="45.71704" lon="2.99817">
        <ele>882.6</ele>
        <time>2025-09-28T10:53:58Z</time>
      </trkpt>
      <trkpt lat="45.71702" lon="2.99822">
        <ele>882.6</ele>
        <time>2025-09-28T10:53:59Z</time>
      </trkpt>
      <trkpt lat="45.71701" lon="2.99827">
        <ele>882.8</ele>
        <time>2025-09-28T10:54:00Z</time>
      </trkpt>
      <trkpt lat="45.717" lon="2.99831">
        <ele>883</ele>
        <time>2025-09-28T10:54:01Z</time>
      </trkpt>
      <trkpt lat="45.717" lon="2.99835">
        <ele>883.2</ele>
        <time>2025-09-28T10:54:02Z</time>
      </trkpt>
      <trkpt lat="45.71701" lon="2.9984">
        <ele>883.2</ele>
        <time>2025-09-28T10:54:03Z</time>
      </trkpt>
      <trkpt lat="45.71701" lon="2.99844">
        <ele>883.4</ele>
        <time>2025-09-28T10:54:04Z</time>
      </trkpt>
      <trkpt lat="45.717" lon="2.99848">
        <ele>883.6</ele>
        <time>2025-09-28T10:54:05Z</time>
      </trkpt>
      <trkpt lat="45.71699" lon="2.99853">
        <ele>883.8</ele>
        <time>2025-09-28T10:54:06Z</time>
      </trkpt>
      <trkpt lat="45.71697" lon="2.99857">
        <ele>883.8</ele>
        <time>2025-09-28T10:54:07Z</time>
      </trkpt>
      <trkpt lat="45.71696" lon="2.99862">
        <ele>884</ele>
        <time>2025-09-28T10:54:08Z</time>
      </trkpt>
      <trkpt lat="45.71696" lon="2.99868">
        <ele>884</ele>
        <time>2025-09-28T10:54:09Z</time>
      </trkpt>
      <trkpt lat="45.71696" lon="2.99872">
        <ele>884.2</ele>
        <time>2025-09-28T10:54:10Z</time>
      </trkpt>
      <trkpt lat="45.71696" lon="2.99876">
        <ele>884.4</ele>
        <time>2025-09-28T10:54:11Z</time>
      </trkpt>
      <trkpt lat="45.71697" lon="2.9988">
        <ele>884.6</ele>
        <time>2025-09-28T10:54:12Z</time>
      </trkpt>
      <trkpt lat="45.71698" lon="2.99883">
        <ele>884.8</ele>
        <time>2025-09-28T10:54:13Z</time>
      </trkpt>
      <trkpt lat="45.71699" lon="2.99887">
        <ele>884.8</ele>
        <time>2025-09-28T10:54:14Z</time>
      </trkpt>
      <trkpt lat="45.71699" lon="2.99891">
        <ele>885</ele>
        <time>2025-09-28T10:54:15Z</time>
      </trkpt>
      <trkpt lat="45.717" lon="2.99896">
        <ele>885.2</ele>
        <time>2025-09-28T10:54:16Z</time>
      </trkpt>
      <trkpt lat="45.717" lon="2.99901">
        <ele>885.4</ele>
        <time>2025-09-28T10:54:17Z</time>
      </trkpt>
      <trkpt lat="45.717" lon="2.99906">
        <ele>885.4</ele>
        <time>2025-09-28T10:54:18Z</time>
      </trkpt>
      <trkpt lat="45.717" lon="2.99911">
        <ele>885.6</ele>
        <time>2025-09-28T10:54:19Z</time>
      </trkpt>
      <trkpt lat="45.71701" lon="2.99915">
        <ele>885.8</ele>
        <time>2025-09-28T10:54:20Z</time>
      </trkpt>
      <trkpt lat="45.71701" lon="2.9992">
        <ele>885.8</ele>
        <time>2025-09-28T10:54:21Z</time>
      </trkpt>
      <trkpt lat="45.71702" lon="2.99925">
        <ele>886</ele>
        <time>2025-09-28T10:54:22Z</time>
      </trkpt>
      <trkpt lat="45.71703" lon="2.9993">
        <ele>886.2</ele>
        <time>2025-09-28T10:54:23Z</time>
      </trkpt>
      <trkpt lat="45.71703" lon="2.99934">
        <ele>886.4</ele>
        <time>2025-09-28T10:54:24Z</time>
      </trkpt>
      <trkpt lat="45.71704" lon="2.99939">
        <ele>886.4</ele>
        <time>2025-09-28T10:54:25Z</time>
      </trkpt>
      <trkpt lat="45.71704" lon="2.99944">
        <ele>886.6</ele>
        <time>2025-09-28T10:54:26Z</time>
      </trkpt>
      <trkpt lat="45.71705" lon="2.99949">
        <ele>886.8</ele>
        <time>2025-09-28T10:54:27Z</time>
      </trkpt>
      <trkpt lat="45.71706" lon="2.99954">
        <ele>886.8</ele>
        <time>2025-09-28T10:54:28Z</time>
      </trkpt>
      <trkpt lat="45.71707" lon="2.99958">
        <ele>887</ele>
        <time>2025-09-28T10:54:29Z</time>
      </trkpt>
      <trkpt lat="45.71708" lon="2.99962">
        <ele>887</ele>
        <time>2025-09-28T10:54:30Z</time>
      </trkpt>
      <trkpt lat="45.71708" lon="2.99967">
        <ele>887.2</ele>
        <time>2025-09-28T10:54:31Z</time>
      </trkpt>
      <trkpt lat="45.7171" lon="2.99972">
        <ele>887.4</ele>
        <time>2025-09-28T10:54:32Z</time>
      </trkpt>
      <trkpt lat="45.71711" lon="2.99976">
        <ele>887.4</ele>
        <time>2025-09-28T10:54:33Z</time>
      </trkpt>
      <trkpt lat="45.71712" lon="2.99982">
        <ele>887.6</ele>
        <time>2025-09-28T10:54:34Z</time>
      </trkpt>
      <trkpt lat="45.71713" lon="2.99986">
        <ele>887.6</ele>
        <time>2025-09-28T10:54:35Z</time>
      </trkpt>
      <trkpt lat="45.71714" lon="2.99991">
        <ele>887.8</ele>
        <time>2025-09-28T10:54:36Z</time>
      </trkpt>
      <trkpt lat="45.71715" lon="2.99996">
        <ele>888</ele>
        <time>2025-09-28T10:54:37Z</time>
      </trkpt>
      <trkpt lat="45.71716" lon="3.00001">
        <ele>888</ele>
        <time>2025-09-28T10:54:38Z</time>
      </trkpt>
      <trkpt lat="45.71717" lon="3.00007">
        <ele>888.2</ele>
        <time>2025-09-28T10:54:39Z</time>
      </trkpt>
      <trkpt lat="45.71718" lon="3.00012">
        <ele>888.2</ele>
        <time>2025-09-28T10:54:40Z</time>
      </trkpt>
      <trkpt lat="45.7172" lon="3.00018">
        <ele>888.4</ele>
        <time>2025-09-28T10:54:41Z</time>
      </trkpt>
      <trkpt lat="45.7172" lon="3.00023">
        <ele>888.4</ele>
        <time>2025-09-28T10:54:42Z</time>
      </trkpt>
      <trkpt lat="45.71721" lon="3.00028">
        <ele>888.6</ele>
        <time>2025-09-28T10:54:43Z</time>
      </trkpt>
      <trkpt lat="45.71723" lon="3.00033">
        <ele>888.6</ele>
        <time>2025-09-28T10:54:44Z</time>
      </trkpt>
      <trkpt lat="45.71724" lon="3.00038">
        <ele>888.8</ele>
        <time>2025-09-28T10:54:45Z</time>
      </trkpt>
      <trkpt lat="45.71724" lon="3.00043">
        <ele>888.8</ele>
        <time>2025-09-28T10:54:46Z</time>
      </trkpt>
      <trkpt lat="45.71725" lon="3.00048">
        <ele>889</ele>
        <time>2025-09-28T10:54:47Z</time>
      </trkpt>
      <trkpt lat="45.71726" lon="3.00053">
        <ele>889.2</ele>
        <time>2025-09-28T10:54:48Z</time>
      </trkpt>
      <trkpt lat="45.71727" lon="3.00057">
        <ele>889.2</ele>
        <time>2025-09-28T10:54:49Z</time>
      </trkpt>
      <trkpt lat="45.71727" lon="3.00061">
        <ele>889.4</ele>
        <time>2025-09-28T10:54:50Z</time>
      </trkpt>
      <trkpt lat="45.71728" lon="3.00066">
        <ele>889.6</ele>
        <time>2025-09-28T10:54:51Z</time>
      </trkpt>
      <trkpt lat="45.71728" lon="3.0007">
        <ele>889.8</ele>
        <time>2025-09-28T10:54:52Z</time>
      </trkpt>
      <trkpt lat="45.71729" lon="3.00075">
        <ele>890</ele>
        <time>2025-09-28T10:54:53Z</time>
      </trkpt>
      <trkpt lat="45.71729" lon="3.0008">
        <ele>890.2</ele>
        <time>2025-09-28T10:54:54Z</time>
      </trkpt>
      <trkpt lat="45.71729" lon="3.00084">
        <ele>890.4</ele>
        <time>2025-09-28T10:54:55Z</time>
      </trkpt>
      <trkpt lat="45.7173" lon="3.00089">
        <ele>890.6</ele>
        <time>2025-09-28T10:54:56Z</time>
      </trkpt>
      <trkpt lat="45.7173" lon="3.00093">
        <ele>890.8</ele>
        <time>2025-09-28T10:54:57Z</time>
      </trkpt>
      <trkpt lat="45.7173" lon="3.00098">
        <ele>891</ele>
        <time>2025-09-28T10:54:58Z</time>
      </trkpt>
      <trkpt lat="45.7173" lon="3.00102">
        <ele>891.2</ele>
        <time>2025-09-28T10:54:59Z</time>
      </trkpt>
      <trkpt lat="45.71731" lon="3.00107">
        <ele>891.4</ele>
        <time>2025-09-28T10:55:00Z</time>
      </trkpt>
      <trkpt lat="45.71731" lon="3.00111">
        <ele>891.6</ele>
        <time>2025-09-28T10:55:01Z</time>
      </trkpt>
      <trkpt lat="45.71732" lon="3.00115">
        <ele>891.8</ele>
        <time>2025-09-28T10:55:02Z</time>
      </trkpt>
      <trkpt lat="45.71732" lon="3.00119">
        <ele>892</ele>
        <time>2025-09-28T10:55:03Z</time>
      </trkpt>
      <trkpt lat="45.71733" lon="3.00124">
        <ele>892.2</ele>
        <time>2025-09-28T10:55:04Z</time>
      </trkpt>
      <trkpt lat="45.71733" lon="3.00128">
        <ele>892.4</ele>
        <time>2025-09-28T10:55:05Z</time>
      </trkpt>
      <trkpt lat="45.71733" lon="3.00132">
        <ele>892.6</ele>
        <time>2025-09-28T10:55:06Z</time>
      </trkpt>
      <trkpt lat="45.71734" lon="3.00136">
        <ele>892.8</ele>
        <time>2025-09-28T10:55:07Z</time>
      </trkpt>
      <trkpt lat="45.71734" lon="3.0014">
        <ele>893</ele>
        <time>2025-09-28T10:55:08Z</time>
      </trkpt>
      <trkpt lat="45.71735" lon="3.00144">
        <ele>893.2</ele>
        <time>2025-09-28T10:55:09Z</time>
      </trkpt>
      <trkpt lat="45.71736" lon="3.00148">
        <ele>893.4</ele>
        <time>2025-09-28T10:55:10Z</time>
      </trkpt>
      <trkpt lat="45.71736" lon="3.00153">
        <ele>893.6</ele>
        <time>2025-09-28T10:55:11Z</time>
      </trkpt>
      <trkpt lat="45.71737" lon="3.00158">
        <ele>893.8</ele>
        <time>2025-09-28T10:55:12Z</time>
      </trkpt>
      <trkpt lat="45.71737" lon="3.00163">
        <ele>894.2</ele>
        <time>2025-09-28T10:55:13Z</time>
      </trkpt>
      <trkpt lat="45.71737" lon="3.00169">
        <ele>894.4</ele>
        <time>2025-09-28T10:55:14Z</time>
      </trkpt>
      <trkpt lat="45.71738" lon="3.00173">
        <ele>894.6</ele>
        <time>2025-09-28T10:55:15Z</time>
      </trkpt>
      <trkpt lat="45.71739" lon="3.00177">
        <ele>894.8</ele>
        <time>2025-09-28T10:55:16Z</time>
      </trkpt>
      <trkpt lat="45.71739" lon="3.00182">
        <ele>895</ele>
        <time>2025-09-28T10:55:17Z</time>
      </trkpt>
      <trkpt lat="45.7174" lon="3.00186">
        <ele>895.2</ele>
        <time>2025-09-28T10:55:18Z</time>
      </trkpt>
      <trkpt lat="45.7174" lon="3.0019">
        <ele>895.4</ele>
        <time>2025-09-28T10:55:19Z</time>
      </trkpt>
      <trkpt lat="45.71741" lon="3.00195">
        <ele>895.6</ele>
        <time>2025-09-28T10:55:20Z</time>
      </trkpt>
      <trkpt lat="45.71741" lon="3.00199">
        <ele>895.8</ele>
        <time>2025-09-28T10:55:21Z</time>
      </trkpt>
      <trkpt lat="45.71742" lon="3.00203">
        <ele>896</ele>
        <time>2025-09-28T10:55:22Z</time>
      </trkpt>
      <trkpt lat="45.71742" lon="3.00208">
        <ele>896.2</ele>
        <time>2025-09-28T10:55:23Z</time>
      </trkpt>
      <trkpt lat="45.71743" lon="3.00212">
        <ele>896.4</ele>
        <time>2025-09-28T10:55:24Z</time>
      </trkpt>
      <trkpt lat="45.71743" lon="3.00216">
        <ele>896.4</ele>
        <time>2025-09-28T10:55:25Z</time>
      </trkpt>
      <trkpt lat="45.71744" lon="3.0022">
        <ele>896.6</ele>
        <time>2025-09-28T10:55:26Z</time>
      </trkpt>
      <trkpt lat="45.71744" lon="3.00224">
        <ele>896.8</ele>
        <time>2025-09-28T10:55:27Z</time>
      </trkpt>
      <trkpt lat="45.71745" lon="3.00228">
        <ele>897</ele>
        <time>2025-09-28T10:55:28Z</time>
      </trkpt>
      <trkpt lat="45.71746" lon="3.00233">
        <ele>897.2</ele>
        <time>2025-09-28T10:55:29Z</time>
      </trkpt>
      <trkpt lat="45.71746" lon="3.00237">
        <ele>897.4</ele>
        <time>2025-09-28T10:55:30Z</time>
      </trkpt>
      <trkpt lat="45.71747" lon="3.00241">
        <ele>897.6</ele>
        <time>2025-09-28T10:55:31Z</time>
      </trkpt>
      <trkpt lat="45.71748" lon="3.00245">
        <ele>897.8</ele>
        <time>2025-09-28T10:55:32Z</time>
      </trkpt>
      <trkpt lat="45.7175" lon="3.00248">
        <ele>898</ele>
        <time>2025-09-28T10:55:33Z</time>
      </trkpt>
      <trkpt lat="45.71751" lon="3.00252">
        <ele>898</ele>
        <time>2025-09-28T10:55:34Z</time>
      </trkpt>
      <trkpt lat="45.71753" lon="3.00255">
        <ele>898.2</ele>
        <time>2025-09-28T10:55:35Z</time>
      </trkpt>
      <trkpt lat="45.71754" lon="3.00259">
        <ele>898.4</ele>
        <time>2025-09-28T10:55:36Z</time>
      </trkpt>
      <trkpt lat="45.71755" lon="3.00263">
        <ele>898.6</ele>
        <time>2025-09-28T10:55:37Z</time>
      </trkpt>
      <trkpt lat="45.71757" lon="3.00267">
        <ele>898.8</ele>
        <time>2025-09-28T10:55:38Z</time>
      </trkpt>
      <trkpt lat="45.71758" lon="3.0027">
        <ele>899</ele>
        <time>2025-09-28T10:55:39Z</time>
      </trkpt>
      <trkpt lat="45.71759" lon="3.00274">
        <ele>899.2</ele>
        <time>2025-09-28T10:55:40Z</time>
      </trkpt>
      <trkpt lat="45.71761" lon="3.00278">
        <ele>899.4</ele>
        <time>2025-09-28T10:55:41Z</time>
      </trkpt>
      <trkpt lat="45.71763" lon="3.00282">
        <ele>899.6</ele>
        <time>2025-09-28T10:55:42Z</time>
      </trkpt>
      <trkpt lat="45.71764" lon="3.00286">
        <ele>899.8</ele>
        <time>2025-09-28T10:55:43Z</time>
      </trkpt>
      <trkpt lat="45.71766" lon="3.00289">
        <ele>900</ele>
        <time>2025-09-28T10:55:44Z</time>
      </trkpt>
      <trkpt lat="45.71767" lon="3.00291">
        <ele>900.2</ele>
        <time>2025-09-28T10:55:45Z</time>
      </trkpt>
      <trkpt lat="45.71769" lon="3.00294">
        <ele>900.4</ele>
        <time>2025-09-28T10:55:46Z</time>
      </trkpt>
      <trkpt lat="45.7177" lon="3.00297">
        <ele>900.6</ele>
        <time>2025-09-28T10:55:47Z</time>
      </trkpt>
      <trkpt lat="45.71771" lon="3.003">
        <ele>900.8</ele>
        <time>2025-09-28T10:55:48Z</time>
      </trkpt>
      <trkpt lat="45.71773" lon="3.00303">
        <ele>901</ele>
        <time>2025-09-28T10:55:49Z</time>
      </trkpt>
      <trkpt lat="45.71774" lon="3.00306">
        <ele>901.2</ele>
        <time>2025-09-28T10:55:50Z</time>
      </trkpt>
      <trkpt lat="45.71775" lon="3.00309">
        <ele>901.4</ele>
        <time>2025-09-28T10:55:51Z</time>
      </trkpt>
      <trkpt lat="45.71777" lon="3.00313">
        <ele>901.6</ele>
        <time>2025-09-28T10:55:52Z</time>
      </trkpt>
      <trkpt lat="45.71778" lon="3.00317">
        <ele>901.8</ele>
        <time>2025-09-28T10:55:53Z</time>
      </trkpt>
      <trkpt lat="45.7178" lon="3.0032">
        <ele>902.2</ele>
        <time>2025-09-28T10:55:54Z</time>
      </trkpt>
      <trkpt lat="45.71781" lon="3.00324">
        <ele>902.4</ele>
        <time>2025-09-28T10:55:55Z</time>
      </trkpt>
      <trkpt lat="45.71782" lon="3.00327">
        <ele>902.6</ele>
        <time>2025-09-28T10:55:56Z</time>
      </trkpt>
      <trkpt lat="45.71784" lon="3.0033">
        <ele>902.8</ele>
        <time>2025-09-28T10:55:57Z</time>
      </trkpt>
      <trkpt lat="45.71786" lon="3.00334">
        <ele>903.2</ele>
        <time>2025-09-28T10:55:58Z</time>
      </trkpt>
      <trkpt lat="45.71787" lon="3.00337">
        <ele>903.4</ele>
        <time>2025-09-28T10:55:59Z</time>
      </trkpt>
      <trkpt lat="45.71789" lon="3.0034">
        <ele>903.6</ele>
        <time>2025-09-28T10:56:00Z</time>
      </trkpt>
      <trkpt lat="45.7179" lon="3.00343">
        <ele>903.8</ele>
        <time>2025-09-28T10:56:01Z</time>
      </trkpt>
      <trkpt lat="45.71793" lon="3.00346">
        <ele>904</ele>
        <time>2025-09-28T10:56:02Z</time>
      </trkpt>
      <trkpt lat="45.71795" lon="3.00349">
        <ele>904.2</ele>
        <time>2025-09-28T10:56:03Z</time>
      </trkpt>
      <trkpt lat="45.71797" lon="3.00352">
        <ele>904.4</ele>
        <time>2025-09-28T10:56:04Z</time>
      </trkpt>
      <trkpt lat="45.71799" lon="3.00355">
        <ele>904.6</ele>
        <time>2025-09-28T10:56:05Z</time>
      </trkpt>
      <trkpt lat="45.71802" lon="3.00358">
        <ele>904.8</ele>
        <time>2025-09-28T10:56:06Z</time>
      </trkpt>
      <trkpt lat="45.71803" lon="3.00361">
        <ele>905</ele>
        <time>2025-09-28T10:56:07Z</time>
      </trkpt>
      <trkpt lat="45.71805" lon="3.00364">
        <ele>905.2</ele>
        <time>2025-09-28T10:56:08Z</time>
      </trkpt>
      <trkpt lat="45.71807" lon="3.00367">
        <ele>905.4</ele>
        <time>2025-09-28T10:56:09Z</time>
      </trkpt>
      <trkpt lat="45.71809" lon="3.0037">
        <ele>905.6</ele>
        <time>2025-09-28T10:56:10Z</time>
      </trkpt>
      <trkpt lat="45.71811" lon="3.00373">
        <ele>905.8</ele>
        <time>2025-09-28T10:56:11Z</time>
      </trkpt>
      <trkpt lat="45.71813" lon="3.00375">
        <ele>906</ele>
        <time>2025-09-28T10:56:12Z</time>
      </trkpt>
      <trkpt lat="45.71815" lon="3.00378">
        <ele>906.2</ele>
        <time>2025-09-28T10:56:13Z</time>
      </trkpt>
      <trkpt lat="45.71817" lon="3.00381">
        <ele>906.4</ele>
        <time>2025-09-28T10:56:14Z</time>
      </trkpt>
      <trkpt lat="45.7182" lon="3.00385">
        <ele>906.6</ele>
        <time>2025-09-28T10:56:15Z</time>
      </trkpt>
      <trkpt lat="45.71822" lon="3.00388">
        <ele>906.8</ele>
        <time>2025-09-28T10:56:16Z</time>
      </trkpt>
      <trkpt lat="45.71825" lon="3.00391">
        <ele>907</ele>
        <time>2025-09-28T10:56:17Z</time>
      </trkpt>
      <trkpt lat="45.71827" lon="3.00393">
        <ele>907.2</ele>
        <time>2025-09-28T10:56:18Z</time>
      </trkpt>
      <trkpt lat="45.7183" lon="3.00397">
        <ele>907.4</ele>
        <time>2025-09-28T10:56:19Z</time>
      </trkpt>
      <trkpt lat="45.71833" lon="3.004">
        <ele>907.6</ele>
        <time>2025-09-28T10:56:20Z</time>
      </trkpt>
      <trkpt lat="45.71835" lon="3.00403">
        <ele>907.8</ele>
        <time>2025-09-28T10:56:21Z</time>
      </trkpt>
      <trkpt lat="45.71838" lon="3.00407">
        <ele>908</ele>
        <time>2025-09-28T10:56:22Z</time>
      </trkpt>
      <trkpt lat="45.71841" lon="3.0041">
        <ele>908.2</ele>
        <time>2025-09-28T10:56:23Z</time>
      </trkpt>
      <trkpt lat="45.71843" lon="3.00413">
        <ele>908.4</ele>
        <time>2025-09-28T10:56:24Z</time>
      </trkpt>
      <trkpt lat="45.71846" lon="3.00417">
        <ele>908.6</ele>
        <time>2025-09-28T10:56:25Z</time>
      </trkpt>
      <trkpt lat="45.71848" lon="3.00421">
        <ele>908.8</ele>
        <time>2025-09-28T10:56:26Z</time>
      </trkpt>
      <trkpt lat="45.7185" lon="3.00424">
        <ele>909</ele>
        <time>2025-09-28T10:56:27Z</time>
      </trkpt>
      <trkpt lat="45.71852" lon="3.00428">
        <ele>909</ele>
        <time>2025-09-28T10:56:28Z</time>
      </trkpt>
      <trkpt lat="45.71854" lon="3.00431">
        <ele>909.2</ele>
        <time>2025-09-28T10:56:29Z</time>
      </trkpt>
      <trkpt lat="45.71856" lon="3.00435">
        <ele>909.4</ele>
        <time>2025-09-28T10:56:30Z</time>
      </trkpt>
      <trkpt lat="45.71859" lon="3.00438">
        <ele>909.4</ele>
        <time>2025-09-28T10:56:31Z</time>
      </trkpt>
      <trkpt lat="45.71861" lon="3.00442">
        <ele>909.6</ele>
        <time>2025-09-28T10:56:32Z</time>
      </trkpt>
      <trkpt lat="45.71864" lon="3.00445">
        <ele>909.6</ele>
        <time>2025-09-28T10:56:33Z</time>
      </trkpt>
      <trkpt lat="45.71866" lon="3.00449">
        <ele>909.8</ele>
        <time>2025-09-28T10:56:34Z</time>
      </trkpt>
      <trkpt lat="45.71868" lon="3.00453">
        <ele>910</ele>
        <time>2025-09-28T10:56:35Z</time>
      </trkpt>
      <trkpt lat="45.7187" lon="3.00457">
        <ele>910</ele>
        <time>2025-09-28T10:56:36Z</time>
      </trkpt>
      <trkpt lat="45.71872" lon="3.00461">
        <ele>910.2</ele>
        <time>2025-09-28T10:56:37Z</time>
      </trkpt>
      <trkpt lat="45.71874" lon="3.00465">
        <ele>910.2</ele>
        <time>2025-09-28T10:56:38Z</time>
      </trkpt>
      <trkpt lat="45.71876" lon="3.00468">
        <ele>910.4</ele>
        <time>2025-09-28T10:56:39Z</time>
      </trkpt>
      <trkpt lat="45.71879" lon="3.00471">
        <ele>910.6</ele>
        <time>2025-09-28T10:56:40Z</time>
      </trkpt>
      <trkpt lat="45.71883" lon="3.00473">
        <ele>910.8</ele>
        <time>2025-09-28T10:56:41Z</time>
      </trkpt>
      <trkpt lat="45.71887" lon="3.00475">
        <ele>910.8</ele>
        <time>2025-09-28T10:56:42Z</time>
      </trkpt>
      <trkpt lat="45.71891" lon="3.00476">
        <ele>911</ele>
        <time>2025-09-28T10:56:43Z</time>
      </trkpt>
      <trkpt lat="45.71894" lon="3.00477">
        <ele>911.2</ele>
        <time>2025-09-28T10:56:44Z</time>
      </trkpt>
      <trkpt lat="45.71898" lon="3.00478">
        <ele>911.2</ele>
        <time>2025-09-28T10:56:45Z</time>
      </trkpt>
      <trkpt lat="45.71902" lon="3.0048">
        <ele>911.4</ele>
        <time>2025-09-28T10:56:46Z</time>
      </trkpt>
      <trkpt lat="45.71905" lon="3.00481">
        <ele>911.6</ele>
        <time>2025-09-28T10:56:47Z</time>
      </trkpt>
      <trkpt lat="45.71909" lon="3.00482">
        <ele>911.6</ele>
        <time>2025-09-28T10:56:48Z</time>
      </trkpt>
      <trkpt lat="45.71912" lon="3.00483">
        <ele>911.8</ele>
        <time>2025-09-28T10:56:49Z</time>
      </trkpt>
      <trkpt lat="45.71916" lon="3.00485">
        <ele>911.8</ele>
        <time>2025-09-28T10:56:50Z</time>
      </trkpt>
      <trkpt lat="45.7192" lon="3.00487">
        <ele>912</ele>
        <time>2025-09-28T10:56:51Z</time>
      </trkpt>
      <trkpt lat="45.71924" lon="3.00489">
        <ele>912.2</ele>
        <time>2025-09-28T10:56:52Z</time>
      </trkpt>
      <trkpt lat="45.71927" lon="3.0049">
        <ele>912.4</ele>
        <time>2025-09-28T10:56:53Z</time>
      </trkpt>
      <trkpt lat="45.71931" lon="3.00492">
        <ele>912.6</ele>
        <time>2025-09-28T10:56:54Z</time>
      </trkpt>
      <trkpt lat="45.71935" lon="3.00494">
        <ele>912.8</ele>
        <time>2025-09-28T10:56:55Z</time>
      </trkpt>
      <trkpt lat="45.71939" lon="3.00496">
        <ele>913</ele>
        <time>2025-09-28T10:56:56Z</time>
      </trkpt>
      <trkpt lat="45.71943" lon="3.00497">
        <ele>913.2</ele>
        <time>2025-09-28T10:56:57Z</time>
      </trkpt>
      <trkpt lat="45.71946" lon="3.00498">
        <ele>913.4</ele>
        <time>2025-09-28T10:56:58Z</time>
      </trkpt>
      <trkpt lat="45.7195" lon="3.005">
        <ele>913.6</ele>
        <time>2025-09-28T10:56:59Z</time>
      </trkpt>
      <trkpt lat="45.71953" lon="3.00502">
        <ele>913.8</ele>
        <time>2025-09-28T10:57:00Z</time>
      </trkpt>
      <trkpt lat="45.71956" lon="3.00504">
        <ele>914</ele>
        <time>2025-09-28T10:57:01Z</time>
      </trkpt>
      <trkpt lat="45.71959" lon="3.00505">
        <ele>914.2</ele>
        <time>2025-09-28T10:57:02Z</time>
      </trkpt>
      <trkpt lat="45.71963" lon="3.00507">
        <ele>914.4</ele>
        <time>2025-09-28T10:57:03Z</time>
      </trkpt>
      <trkpt lat="45.71966" lon="3.00509">
        <ele>914.6</ele>
        <time>2025-09-28T10:57:04Z</time>
      </trkpt>
      <trkpt lat="45.71969" lon="3.0051">
        <ele>914.6</ele>
        <time>2025-09-28T10:57:05Z</time>
      </trkpt>
      <trkpt lat="45.71973" lon="3.00511">
        <ele>914.8</ele>
        <time>2025-09-28T10:57:06Z</time>
      </trkpt>
      <trkpt lat="45.71976" lon="3.00513">
        <ele>915</ele>
        <time>2025-09-28T10:57:07Z</time>
      </trkpt>
      <trkpt lat="45.7198" lon="3.00514">
        <ele>915.2</ele>
        <time>2025-09-28T10:57:08Z</time>
      </trkpt>
      <trkpt lat="45.71983" lon="3.00515">
        <ele>915.4</ele>
        <time>2025-09-28T10:57:09Z</time>
      </trkpt>
      <trkpt lat="45.71987" lon="3.00517">
        <ele>915.6</ele>
        <time>2025-09-28T10:57:10Z</time>
      </trkpt>
      <trkpt lat="45.71991" lon="3.00519">
        <ele>915.8</ele>
        <time>2025-09-28T10:57:11Z</time>
      </trkpt>
      <trkpt lat="45.71994" lon="3.00522">
        <ele>915.8</ele>
        <time>2025-09-28T10:57:12Z</time>
      </trkpt>
      <trkpt lat="45.71997" lon="3.00525">
        <ele>916</ele>
        <time>2025-09-28T10:57:13Z</time>
      </trkpt>
      <trkpt lat="45.72001" lon="3.00527">
        <ele>916.2</ele>
        <time>2025-09-28T10:57:14Z</time>
      </trkpt>
      <trkpt lat="45.72005" lon="3.0053">
        <ele>916.4</ele>
        <time>2025-09-28T10:57:15Z</time>
      </trkpt>
      <trkpt lat="45.72008" lon="3.00532">
        <ele>916.4</ele>
        <time>2025-09-28T10:57:16Z</time>
      </trkpt>
      <trkpt lat="45.72011" lon="3.00534">
        <ele>916.6</ele>
        <time>2025-09-28T10:57:17Z</time>
      </trkpt>
      <trkpt lat="45.72016" lon="3.00538">
        <ele>916.6</ele>
        <time>2025-09-28T10:57:18Z</time>
      </trkpt>
      <trkpt lat="45.7202" lon="3.00542">
        <ele>916.8</ele>
        <time>2025-09-28T10:57:19Z</time>
      </trkpt>
      <trkpt lat="45.72024" lon="3.00546">
        <ele>917</ele>
        <time>2025-09-28T10:57:20Z</time>
      </trkpt>
      <trkpt lat="45.72028" lon="3.00548">
        <ele>917</ele>
        <time>2025-09-28T10:57:21Z</time>
      </trkpt>
      <trkpt lat="45.72032" lon="3.00551">
        <ele>917.2</ele>
        <time>2025-09-28T10:57:22Z</time>
      </trkpt>
      <trkpt lat="45.72036" lon="3.00555">
        <ele>917.2</ele>
        <time>2025-09-28T10:57:23Z</time>
      </trkpt>
      <trkpt lat="45.7204" lon="3.00558">
        <ele>917.2</ele>
        <time>2025-09-28T10:57:24Z</time>
      </trkpt>
      <trkpt lat="45.72044" lon="3.00561">
        <ele>917.4</ele>
        <time>2025-09-28T10:57:25Z</time>
      </trkpt>
      <trkpt lat="45.72047" lon="3.00564">
        <ele>917.4</ele>
        <time>2025-09-28T10:57:26Z</time>
      </trkpt>
      <trkpt lat="45.72051" lon="3.00568">
        <ele>917.4</ele>
        <time>2025-09-28T10:57:27Z</time>
      </trkpt>
      <trkpt lat="45.72055" lon="3.00571">
        <ele>917.6</ele>
        <time>2025-09-28T10:57:28Z</time>
      </trkpt>
      <trkpt lat="45.72059" lon="3.00573">
        <ele>917.6</ele>
        <time>2025-09-28T10:57:29Z</time>
      </trkpt>
      <trkpt lat="45.72063" lon="3.00576">
        <ele>917.6</ele>
        <time>2025-09-28T10:57:30Z</time>
      </trkpt>
      <trkpt lat="45.72067" lon="3.00579">
        <ele>917.6</ele>
        <time>2025-09-28T10:57:31Z</time>
      </trkpt>
      <trkpt lat="45.72072" lon="3.00582">
        <ele>917.6</ele>
        <time>2025-09-28T10:57:32Z</time>
      </trkpt>
      <trkpt lat="45.72076" lon="3.00585">
        <ele>917.6</ele>
        <time>2025-09-28T10:57:33Z</time>
      </trkpt>
      <trkpt lat="45.72081" lon="3.00588">
        <ele>917.6</ele>
        <time>2025-09-28T10:57:34Z</time>
      </trkpt>
      <trkpt lat="45.72085" lon="3.00591">
        <ele>917.8</ele>
        <time>2025-09-28T10:57:35Z</time>
      </trkpt>
      <trkpt lat="45.7209" lon="3.00594">
        <ele>917.8</ele>
        <time>2025-09-28T10:57:36Z</time>
      </trkpt>
      <trkpt lat="45.72095" lon="3.00597">
        <ele>917.8</ele>
        <time>2025-09-28T10:57:37Z</time>
      </trkpt>
      <trkpt lat="45.72099" lon="3.00599">
        <ele>917.8</ele>
        <time>2025-09-28T10:57:38Z</time>
      </trkpt>
      <trkpt lat="45.72103" lon="3.00601">
        <ele>917.8</ele>
        <time>2025-09-28T10:57:39Z</time>
      </trkpt>
      <trkpt lat="45.72108" lon="3.00603">
        <ele>918</ele>
        <time>2025-09-28T10:57:40Z</time>
      </trkpt>
      <trkpt lat="45.72113" lon="3.00605">
        <ele>918</ele>
        <time>2025-09-28T10:57:41Z</time>
      </trkpt>
      <trkpt lat="45.72118" lon="3.00608">
        <ele>918</ele>
        <time>2025-09-28T10:57:42Z</time>
      </trkpt>
      <trkpt lat="45.72123" lon="3.0061">
        <ele>918.2</ele>
        <time>2025-09-28T10:57:43Z</time>
      </trkpt>
      <trkpt lat="45.72127" lon="3.00612">
        <ele>918.2</ele>
        <time>2025-09-28T10:57:44Z</time>
      </trkpt>
      <trkpt lat="45.72131" lon="3.00614">
        <ele>918.4</ele>
        <time>2025-09-28T10:57:45Z</time>
      </trkpt>
      <trkpt lat="45.72136" lon="3.00615">
        <ele>918.4</ele>
        <time>2025-09-28T10:57:46Z</time>
      </trkpt>
      <trkpt lat="45.72142" lon="3.00617">
        <ele>918.4</ele>
        <time>2025-09-28T10:57:47Z</time>
      </trkpt>
      <trkpt lat="45.72147" lon="3.0062">
        <ele>918.6</ele>
        <time>2025-09-28T10:57:48Z</time>
      </trkpt>
      <trkpt lat="45.72151" lon="3.00622">
        <ele>918.6</ele>
        <time>2025-09-28T10:57:49Z</time>
      </trkpt>
      <trkpt lat="45.72156" lon="3.00624">
        <ele>918.8</ele>
        <time>2025-09-28T10:57:50Z</time>
      </trkpt>
      <trkpt lat="45.72162" lon="3.00626">
        <ele>918.8</ele>
        <time>2025-09-28T10:57:51Z</time>
      </trkpt>
      <trkpt lat="45.72166" lon="3.00628">
        <ele>918.8</ele>
        <time>2025-09-28T10:57:52Z</time>
      </trkpt>
      <trkpt lat="45.72171" lon="3.00631">
        <ele>918.8</ele>
        <time>2025-09-28T10:57:53Z</time>
      </trkpt>
      <trkpt lat="45.72175" lon="3.00634">
        <ele>919</ele>
        <time>2025-09-28T10:57:54Z</time>
      </trkpt>
      <trkpt lat="45.7218" lon="3.00636">
        <ele>919</ele>
        <time>2025-09-28T10:57:55Z</time>
      </trkpt>
      <trkpt lat="45.72185" lon="3.00638">
        <ele>919</ele>
        <time>2025-09-28T10:57:56Z</time>
      </trkpt>
      <trkpt lat="45.72189" lon="3.0064">
        <ele>919.2</ele>
        <time>2025-09-28T10:57:57Z</time>
      </trkpt>
      <trkpt lat="45.72194" lon="3.00642">
        <ele>919.2</ele>
        <time>2025-09-28T10:57:58Z</time>
      </trkpt>
      <trkpt lat="45.72198" lon="3.00643">
        <ele>919.4</ele>
        <time>2025-09-28T10:57:59Z</time>
      </trkpt>
      <trkpt lat="45.72203" lon="3.00645">
        <ele>919.4</ele>
        <time>2025-09-28T10:58:00Z</time>
      </trkpt>
      <trkpt lat="45.72207" lon="3.00646">
        <ele>919.4</ele>
        <time>2025-09-28T10:58:01Z</time>
      </trkpt>
      <trkpt lat="45.72211" lon="3.00648">
        <ele>919.4</ele>
        <time>2025-09-28T10:58:02Z</time>
      </trkpt>
      <trkpt lat="45.72215" lon="3.0065">
        <ele>919.4</ele>
        <time>2025-09-28T10:58:03Z</time>
      </trkpt>
      <trkpt lat="45.72219" lon="3.00651">
        <ele>919.6</ele>
        <time>2025-09-28T10:58:04Z</time>
      </trkpt>
      <trkpt lat="45.72224" lon="3.00653">
        <ele>919.6</ele>
        <time>2025-09-28T10:58:05Z</time>
      </trkpt>
      <trkpt lat="45.72228" lon="3.00655">
        <ele>919.6</ele>
        <time>2025-09-28T10:58:06Z</time>
      </trkpt>
      <trkpt lat="45.72231" lon="3.00657">
        <ele>919.6</ele>
        <time>2025-09-28T10:58:07Z</time>
      </trkpt>
      <trkpt lat="45.72234" lon="3.0066">
        <ele>919.6</ele>
        <time>2025-09-28T10:58:08Z</time>
      </trkpt>
      <trkpt lat="45.72235" lon="3.00664">
        <ele>919.6</ele>
        <time>2025-09-28T10:58:09Z</time>
      </trkpt>
      <trkpt lat="45.72235" lon="3.00669">
        <ele>919.6</ele>
        <time>2025-09-28T10:58:10Z</time>
      </trkpt>
      <trkpt lat="45.72233" lon="3.00675">
        <ele>919.4</ele>
        <time>2025-09-28T10:58:11Z</time>
      </trkpt>
      <trkpt lat="45.72231" lon="3.00681">
        <ele>919.4</ele>
        <time>2025-09-28T10:58:12Z</time>
      </trkpt>
      <trkpt lat="45.72228" lon="3.00687">
        <ele>919.2</ele>
        <time>2025-09-28T10:58:13Z</time>
      </trkpt>
      <trkpt lat="45.72224" lon="3.00693">
        <ele>919</ele>
        <time>2025-09-28T10:58:14Z</time>
      </trkpt>
      <trkpt lat="45.72221" lon="3.00701">
        <ele>918.8</ele>
        <time>2025-09-28T10:58:15Z</time>
      </trkpt>
      <trkpt lat="45.72218" lon="3.00708">
        <ele>918.6</ele>
        <time>2025-09-28T10:58:16Z</time>
      </trkpt>
      <trkpt lat="45.72214" lon="3.00717">
        <ele>918.4</ele>
        <time>2025-09-28T10:58:17Z</time>
      </trkpt>
      <trkpt lat="45.7221" lon="3.00726">
        <ele>918.2</ele>
        <time>2025-09-28T10:58:18Z</time>
      </trkpt>
      <trkpt lat="45.72207" lon="3.00734">
        <ele>918</ele>
        <time>2025-09-28T10:58:19Z</time>
      </trkpt>
      <trkpt lat="45.72203" lon="3.00742">
        <ele>917.6</ele>
        <time>2025-09-28T10:58:20Z</time>
      </trkpt>
      <trkpt lat="45.722" lon="3.0075">
        <ele>917.4</ele>
        <time>2025-09-28T10:58:21Z</time>
      </trkpt>
      <trkpt lat="45.72196" lon="3.00759">
        <ele>917.2</ele>
        <time>2025-09-28T10:58:22Z</time>
      </trkpt>
      <trkpt lat="45.72192" lon="3.00768">
        <ele>917</ele>
        <time>2025-09-28T10:58:23Z</time>
      </trkpt>
      <trkpt lat="45.72188" lon="3.00776">
        <ele>916.8</ele>
        <time>2025-09-28T10:58:24Z</time>
      </trkpt>
      <trkpt lat="45.72185" lon="3.00783">
        <ele>916.6</ele>
        <time>2025-09-28T10:58:25Z</time>
      </trkpt>
      <trkpt lat="45.72182" lon="3.00789">
        <ele>916.6</ele>
        <time>2025-09-28T10:58:26Z</time>
      </trkpt>
      <trkpt lat="45.72178" lon="3.00797">
        <ele>916.4</ele>
        <time>2025-09-28T10:58:27Z</time>
      </trkpt>
      <trkpt lat="45.72174" lon="3.00805">
        <ele>916.2</ele>
        <time>2025-09-28T10:58:28Z</time>
      </trkpt>
      <trkpt lat="45.7217" lon="3.00812">
        <ele>916</ele>
        <time>2025-09-28T10:58:29Z</time>
      </trkpt>
      <trkpt lat="45.72167" lon="3.00819">
        <ele>915.8</ele>
        <time>2025-09-28T10:58:30Z</time>
      </trkpt>
      <trkpt lat="45.72164" lon="3.00827">
        <ele>915.6</ele>
        <time>2025-09-28T10:58:31Z</time>
      </trkpt>
      <trkpt lat="45.72161" lon="3.00837">
        <ele>915.4</ele>
        <time>2025-09-28T10:58:32Z</time>
      </trkpt>
      <trkpt lat="45.72158" lon="3.00847">
        <ele>915.2</ele>
        <time>2025-09-28T10:58:33Z</time>
      </trkpt>
      <trkpt lat="45.72156" lon="3.00856">
        <ele>915</ele>
        <time>2025-09-28T10:58:34Z</time>
      </trkpt>
      <trkpt lat="45.72154" lon="3.00866">
        <ele>914.8</ele>
        <time>2025-09-28T10:58:35Z</time>
      </trkpt>
      <trkpt lat="45.72153" lon="3.00876">
        <ele>914.6</ele>
        <time>2025-09-28T10:58:36Z</time>
      </trkpt>
      <trkpt lat="45.72151" lon="3.00886">
        <ele>914.4</ele>
        <time>2025-09-28T10:58:37Z</time>
      </trkpt>
      <trkpt lat="45.72148" lon="3.00897">
        <ele>914</ele>
        <time>2025-09-28T10:58:38Z</time>
      </trkpt>
      <trkpt lat="45.72145" lon="3.00908">
        <ele>913.6</ele>
        <time>2025-09-28T10:58:39Z</time>
      </trkpt>
      <trkpt lat="45.72142" lon="3.00918">
        <ele>913.4</ele>
        <time>2025-09-28T10:58:40Z</time>
      </trkpt>
      <trkpt lat="45.72141" lon="3.00929">
        <ele>912.8</ele>
        <time>2025-09-28T10:58:41Z</time>
      </trkpt>
      <trkpt lat="45.72138" lon="3.0094">
        <ele>912.2</ele>
        <time>2025-09-28T10:58:42Z</time>
      </trkpt>
      <trkpt lat="45.72134" lon="3.00951">
        <ele>911.6</ele>
        <time>2025-09-28T10:58:43Z</time>
      </trkpt>
      <trkpt lat="45.7213" lon="3.00963">
        <ele>910.8</ele>
        <time>2025-09-28T10:58:44Z</time>
      </trkpt>
      <trkpt lat="45.72125" lon="3.00978">
        <ele>910.2</ele>
        <time>2025-09-28T10:58:45Z</time>
      </trkpt>
      <trkpt lat="45.7212" lon="3.00993">
        <ele>909.4</ele>
        <time>2025-09-28T10:58:46Z</time>
      </trkpt>
      <trkpt lat="45.72115" lon="3.01005">
        <ele>908.8</ele>
        <time>2025-09-28T10:58:47Z</time>
      </trkpt>
      <trkpt lat="45.72109" lon="3.01017">
        <ele>908.4</ele>
        <time>2025-09-28T10:58:48Z</time>
      </trkpt>
      <trkpt lat="45.72103" lon="3.01024">
        <ele>907.8</ele>
        <time>2025-09-28T10:58:49Z</time>
      </trkpt>
      <trkpt lat="45.72097" lon="3.0103">
        <ele>907.6</ele>
        <time>2025-09-28T10:58:50Z</time>
      </trkpt>
      <trkpt lat="45.72093" lon="3.01037">
        <ele>907.2</ele>
        <time>2025-09-28T10:58:51Z</time>
      </trkpt>
      <trkpt lat="45.72089" lon="3.01044">
        <ele>906.8</ele>
        <time>2025-09-28T10:58:52Z</time>
      </trkpt>
      <trkpt lat="45.72085" lon="3.01051">
        <ele>906.6</ele>
        <time>2025-09-28T10:58:53Z</time>
      </trkpt>
      <trkpt lat="45.7208" lon="3.01059">
        <ele>906.2</ele>
        <time>2025-09-28T10:58:54Z</time>
      </trkpt>
      <trkpt lat="45.72077" lon="3.01065">
        <ele>906</ele>
        <time>2025-09-28T10:58:55Z</time>
      </trkpt>
      <trkpt lat="45.72073" lon="3.01073">
        <ele>905.8</ele>
        <time>2025-09-28T10:58:56Z</time>
      </trkpt>
      <trkpt lat="45.72069" lon="3.0108">
        <ele>905.8</ele>
        <time>2025-09-28T10:58:57Z</time>
      </trkpt>
      <trkpt lat="45.72063" lon="3.01087">
        <ele>905.6</ele>
        <time>2025-09-28T10:58:58Z</time>
      </trkpt>
      <trkpt lat="45.72057" lon="3.01094">
        <ele>905.6</ele>
        <time>2025-09-28T10:58:59Z</time>
      </trkpt>
      <trkpt lat="45.7205" lon="3.01099">
        <ele>905.6</ele>
        <time>2025-09-28T10:59:00Z</time>
      </trkpt>
      <trkpt lat="45.72044" lon="3.01103">
        <ele>905.6</ele>
        <time>2025-09-28T10:59:01Z</time>
      </trkpt>
      <trkpt lat="45.7204" lon="3.01107">
        <ele>905.8</ele>
        <time>2025-09-28T10:59:02Z</time>
      </trkpt>
      <trkpt lat="45.72036" lon="3.01113">
        <ele>905.8</ele>
        <time>2025-09-28T10:59:03Z</time>
      </trkpt>
      <trkpt lat="45.72034" lon="3.01121">
        <ele>905.8</ele>
        <time>2025-09-28T10:59:04Z</time>
      </trkpt>
      <trkpt lat="45.72031" lon="3.01131">
        <ele>905.8</ele>
        <time>2025-09-28T10:59:05Z</time>
      </trkpt>
      <trkpt lat="45.7203" lon="3.01141">
        <ele>905.8</ele>
        <time>2025-09-28T10:59:06Z</time>
      </trkpt>
      <trkpt lat="45.72029" lon="3.01152">
        <ele>905.6</ele>
        <time>2025-09-28T10:59:07Z</time>
      </trkpt>
      <trkpt lat="45.72029" lon="3.01162">
        <ele>905.4</ele>
        <time>2025-09-28T10:59:08Z</time>
      </trkpt>
      <trkpt lat="45.72029" lon="3.01172">
        <ele>905.2</ele>
        <time>2025-09-28T10:59:09Z</time>
      </trkpt>
      <trkpt lat="45.72029" lon="3.01182">
        <ele>905</ele>
        <time>2025-09-28T10:59:10Z</time>
      </trkpt>
      <trkpt lat="45.72029" lon="3.01191">
        <ele>904.8</ele>
        <time>2025-09-28T10:59:11Z</time>
      </trkpt>
      <trkpt lat="45.72028" lon="3.01201">
        <ele>904.6</ele>
        <time>2025-09-28T10:59:12Z</time>
      </trkpt>
      <trkpt lat="45.72028" lon="3.01213">
        <ele>904.2</ele>
        <time>2025-09-28T10:59:13Z</time>
      </trkpt>
      <trkpt lat="45.72026" lon="3.01225">
        <ele>904</ele>
        <time>2025-09-28T10:59:14Z</time>
      </trkpt>
      <trkpt lat="45.72025" lon="3.01236">
        <ele>903.8</ele>
        <time>2025-09-28T10:59:15Z</time>
      </trkpt>
      <trkpt lat="45.72024" lon="3.01247">
        <ele>903.6</ele>
        <time>2025-09-28T10:59:16Z</time>
      </trkpt>
      <trkpt lat="45.72022" lon="3.01257">
        <ele>903.4</ele>
        <time>2025-09-28T10:59:17Z</time>
      </trkpt>
      <trkpt lat="45.72021" lon="3.01267">
        <ele>903.2</ele>
        <time>2025-09-28T10:59:18Z</time>
      </trkpt>
      <trkpt lat="45.72019" lon="3.01276">
        <ele>902.8</ele>
        <time>2025-09-28T10:59:19Z</time>
      </trkpt>
      <trkpt lat="45.72017" lon="3.01284">
        <ele>902.6</ele>
        <time>2025-09-28T10:59:20Z</time>
      </trkpt>
      <trkpt lat="45.72015" lon="3.01295">
        <ele>902.4</ele>
        <time>2025-09-28T10:59:21Z</time>
      </trkpt>
      <trkpt lat="45.72012" lon="3.01305">
        <ele>902.2</ele>
        <time>2025-09-28T10:59:22Z</time>
      </trkpt>
      <trkpt lat="45.7201" lon="3.01314">
        <ele>902</ele>
        <time>2025-09-28T10:59:23Z</time>
      </trkpt>
      <trkpt lat="45.72008" lon="3.01322">
        <ele>901.8</ele>
        <time>2025-09-28T10:59:24Z</time>
      </trkpt>
      <trkpt lat="45.72006" lon="3.0133">
        <ele>901.6</ele>
        <time>2025-09-28T10:59:25Z</time>
      </trkpt>
      <trkpt lat="45.72002" lon="3.01339">
        <ele>901.4</ele>
        <time>2025-09-28T10:59:26Z</time>
      </trkpt>
      <trkpt lat="45.71999" lon="3.01347">
        <ele>901.2</ele>
        <time>2025-09-28T10:59:27Z</time>
      </trkpt>
      <trkpt lat="45.71997" lon="3.01352">
        <ele>901</ele>
        <time>2025-09-28T10:59:28Z</time>
      </trkpt>
      <trkpt lat="45.71994" lon="3.01357">
        <ele>901</ele>
        <time>2025-09-28T10:59:29Z</time>
      </trkpt>
      <trkpt lat="45.71992" lon="3.0136">
        <ele>900.8</ele>
        <time>2025-09-28T10:59:30Z</time>
      </trkpt>
      <trkpt lat="45.7199" lon="3.01364">
        <ele>900.6</ele>
        <time>2025-09-28T10:59:31Z</time>
      </trkpt>
      <trkpt lat="45.71989" lon="3.01365">
        <ele>900.4</ele>
        <time>2025-09-28T10:59:32Z</time>
      </trkpt>
      <trkpt lat="45.71988" lon="3.01367">
        <ele>900.4</ele>
        <time>2025-09-28T10:59:33Z</time>
      </trkpt>
      <trkpt lat="45.71987" lon="3.01369">
        <ele>900.2</ele>
        <time>2025-09-28T10:59:34Z</time>
      </trkpt>
      <trkpt lat="45.71986" lon="3.01371">
        <ele>900.2</ele>
        <time>2025-09-28T10:59:35Z</time>
      </trkpt>
      <trkpt lat="45.71986" lon="3.01374">
        <ele>900</ele>
        <time>2025-09-28T10:59:36Z</time>
      </trkpt>
      <trkpt lat="45.71985" lon="3.01375">
        <ele>900</ele>
        <time>2025-09-28T10:59:37Z</time>
      </trkpt>
      <trkpt lat="45.71985" lon="3.01376">
        <ele>900</ele>
        <time>2025-09-28T10:59:38Z</time>
      </trkpt>
      <trkpt lat="45.71985" lon="3.01376">
        <ele>900</ele>
        <time>2025-09-28T10:59:39Z</time>
      </trkpt>
    </trkseg>
  </trk>
</gpx>